<?xml version="1.0" encoding="UTF-8" standalone="no" ?>
<gpx xmlns="http://www.topografix.com/GPX/1/1" xmlns:xsi="http://www.w3.org/2001/XMLSchema-instance" xsi:schemaLocation="http://www.topografix.com/GPX/1/1 http://www.topografix.com/GPX/1/1/gpx.xsd" version="1.1" creator="VisuGPX - https://www.visugpx.com">
  <metadata>
    <name>Bourge Orlean </name>
    <desc><![CDATA[CIRCUIT CANAUX DU BERY ET LOIRE]]></desc>
  </metadata>
  <trk>
    <name><![CDATA[Bourge Orlean Boucle]]></name>
    <trkseg>
      <trkpt lat="47.09342" lon="2.40466">
        <ele>128.6</ele>
        <time>2019-10-13T17:42:03Z</time>
      </trkpt>
      <trkpt lat="47.09342" lon="2.40513">
        <ele>127.9</ele>
        <time>2019-10-13T17:42:12Z</time>
      </trkpt>
      <trkpt lat="47.0934" lon="2.40547">
        <ele>127.7</ele>
        <time>2019-10-13T17:42:18Z</time>
      </trkpt>
      <trkpt lat="47.09337" lon="2.40578">
        <ele>127.4</ele>
        <time>2019-10-13T17:42:24Z</time>
      </trkpt>
      <trkpt lat="47.09333" lon="2.4061">
        <ele>127</ele>
        <time>2019-10-13T17:42:30Z</time>
      </trkpt>
      <trkpt lat="47.0933" lon="2.40619">
        <ele>126.9</ele>
        <time>2019-10-13T17:42:32Z</time>
      </trkpt>
      <trkpt lat="47.09328" lon="2.40634">
        <ele>126.8</ele>
        <time>2019-10-13T17:42:34Z</time>
      </trkpt>
      <trkpt lat="47.09325" lon="2.40645">
        <ele>126.8</ele>
        <time>2019-10-13T17:42:37Z</time>
      </trkpt>
      <trkpt lat="47.09312" lon="2.40664">
        <ele>126.9</ele>
        <time>2019-10-13T17:42:42Z</time>
      </trkpt>
      <trkpt lat="47.09302" lon="2.40676">
        <ele>126.9</ele>
        <time>2019-10-13T17:42:45Z</time>
      </trkpt>
      <trkpt lat="47.09285" lon="2.4069">
        <ele>126.9</ele>
        <time>2019-10-13T17:42:50Z</time>
      </trkpt>
      <trkpt lat="47.09266" lon="2.40711">
        <ele>126.8</ele>
        <time>2019-10-13T17:42:57Z</time>
      </trkpt>
      <trkpt lat="47.0924" lon="2.40739">
        <ele>126.9</ele>
        <time>2019-10-13T17:43:05Z</time>
      </trkpt>
      <trkpt lat="47.0922" lon="2.4076">
        <ele>126.9</ele>
        <time>2019-10-13T17:43:12Z</time>
      </trkpt>
      <trkpt lat="47.09201" lon="2.4078">
        <ele>127</ele>
        <time>2019-10-13T17:43:18Z</time>
      </trkpt>
      <trkpt lat="47.0919" lon="2.40792">
        <ele>126.8</ele>
        <time>2019-10-13T17:43:22Z</time>
      </trkpt>
      <trkpt lat="47.09181" lon="2.40807">
        <ele>126.6</ele>
        <time>2019-10-13T17:43:25Z</time>
      </trkpt>
      <trkpt lat="47.09162" lon="2.40839">
        <ele>127.5</ele>
        <time>2019-10-13T17:43:33Z</time>
      </trkpt>
      <trkpt lat="47.09143" lon="2.40872">
        <ele>126.9</ele>
        <time>2019-10-13T17:43:41Z</time>
      </trkpt>
      <trkpt lat="47.09131" lon="2.40893">
        <ele>127.4</ele>
        <time>2019-10-13T17:43:46Z</time>
      </trkpt>
      <trkpt lat="47.0912" lon="2.4091">
        <ele>127.4</ele>
        <time>2019-10-13T17:43:50Z</time>
      </trkpt>
      <trkpt lat="47.09098" lon="2.40938">
        <ele>126.7</ele>
        <time>2019-10-13T17:43:58Z</time>
      </trkpt>
      <trkpt lat="47.09061" lon="2.40981">
        <ele>126.5</ele>
        <time>2019-10-13T17:44:10Z</time>
      </trkpt>
      <trkpt lat="47.09029" lon="2.4102">
        <ele>126.7</ele>
        <time>2019-10-13T17:44:22Z</time>
      </trkpt>
      <trkpt lat="47.09" lon="2.41057">
        <ele>127</ele>
        <time>2019-10-13T17:44:32Z</time>
      </trkpt>
      <trkpt lat="47.08972" lon="2.4109">
        <ele>127</ele>
        <time>2019-10-13T17:44:41Z</time>
      </trkpt>
      <trkpt lat="47.08951" lon="2.41114">
        <ele>126.3</ele>
        <time>2019-10-13T17:44:49Z</time>
      </trkpt>
      <trkpt lat="47.08935" lon="2.41139">
        <ele>126.7</ele>
        <time>2019-10-13T17:44:55Z</time>
      </trkpt>
      <trkpt lat="47.08916" lon="2.41159">
        <ele>126.7</ele>
        <time>2019-10-13T17:45:01Z</time>
      </trkpt>
      <trkpt lat="47.08902" lon="2.41173">
        <ele>126.7</ele>
        <time>2019-10-13T17:45:06Z</time>
      </trkpt>
      <trkpt lat="47.08886" lon="2.41186">
        <ele>126.6</ele>
        <time>2019-10-13T17:45:10Z</time>
      </trkpt>
      <trkpt lat="47.08877" lon="2.41194">
        <ele>126.6</ele>
        <time>2019-10-13T17:45:13Z</time>
      </trkpt>
      <trkpt lat="47.0887" lon="2.41208">
        <ele>126.8</ele>
        <time>2019-10-13T17:45:16Z</time>
      </trkpt>
      <trkpt lat="47.08862" lon="2.4123">
        <ele>127</ele>
        <time>2019-10-13T17:45:21Z</time>
      </trkpt>
      <trkpt lat="47.0885" lon="2.41261">
        <ele>126.8</ele>
        <time>2019-10-13T17:45:27Z</time>
      </trkpt>
      <trkpt lat="47.08839" lon="2.41288">
        <ele>126.7</ele>
        <time>2019-10-13T17:45:33Z</time>
      </trkpt>
      <trkpt lat="47.08826" lon="2.41306">
        <ele>127</ele>
        <time>2019-10-13T17:45:38Z</time>
      </trkpt>
      <trkpt lat="47.08815" lon="2.41326">
        <ele>127.3</ele>
        <time>2019-10-13T17:45:43Z</time>
      </trkpt>
      <trkpt lat="47.08813" lon="2.41333">
        <ele>127.3</ele>
        <time>2019-10-13T17:45:44Z</time>
      </trkpt>
      <trkpt lat="47.0881" lon="2.41346">
        <ele>127.5</ele>
        <time>2019-10-13T17:45:47Z</time>
      </trkpt>
      <trkpt lat="47.0881" lon="2.4136">
        <ele>128</ele>
        <time>2019-10-13T17:45:49Z</time>
      </trkpt>
      <trkpt lat="47.0881" lon="2.41371">
        <ele>127.7</ele>
        <time>2019-10-13T17:45:51Z</time>
      </trkpt>
      <trkpt lat="47.08811" lon="2.41388">
        <ele>127.2</ele>
        <time>2019-10-13T17:45:54Z</time>
      </trkpt>
      <trkpt lat="47.0881" lon="2.41415">
        <ele>127.2</ele>
        <time>2019-10-13T17:45:59Z</time>
      </trkpt>
      <trkpt lat="47.08805" lon="2.41459">
        <ele>127</ele>
        <time>2019-10-13T17:46:07Z</time>
      </trkpt>
      <trkpt lat="47.08801" lon="2.41483">
        <ele>127</ele>
        <time>2019-10-13T17:46:12Z</time>
      </trkpt>
      <trkpt lat="47.08795" lon="2.41493">
        <ele>127</ele>
        <time>2019-10-13T17:46:14Z</time>
      </trkpt>
      <trkpt lat="47.0878" lon="2.41508">
        <ele>127</ele>
        <time>2019-10-13T17:46:19Z</time>
      </trkpt>
      <trkpt lat="47.08773" lon="2.41517">
        <ele>127</ele>
        <time>2019-10-13T17:46:21Z</time>
      </trkpt>
      <trkpt lat="47.0877" lon="2.41531">
        <ele>127</ele>
        <time>2019-10-13T17:46:24Z</time>
      </trkpt>
      <trkpt lat="47.08767" lon="2.41551">
        <ele>127</ele>
        <time>2019-10-13T17:46:28Z</time>
      </trkpt>
      <trkpt lat="47.08767" lon="2.41569">
        <ele>127</ele>
        <time>2019-10-13T17:46:31Z</time>
      </trkpt>
      <trkpt lat="47.0877" lon="2.41603">
        <ele>127.5</ele>
        <time>2019-10-13T17:46:37Z</time>
      </trkpt>
      <trkpt lat="47.08777" lon="2.41624">
        <ele>127.5</ele>
        <time>2019-10-13T17:46:42Z</time>
      </trkpt>
      <trkpt lat="47.08792" lon="2.41646">
        <ele>127.1</ele>
        <time>2019-10-13T17:46:47Z</time>
      </trkpt>
      <trkpt lat="47.08804" lon="2.41662">
        <ele>127.8</ele>
        <time>2019-10-13T17:46:52Z</time>
      </trkpt>
      <trkpt lat="47.08816" lon="2.41682">
        <ele>127.3</ele>
        <time>2019-10-13T17:46:56Z</time>
      </trkpt>
      <trkpt lat="47.08825" lon="2.4171">
        <ele>127.6</ele>
        <time>2019-10-13T17:47:02Z</time>
      </trkpt>
      <trkpt lat="47.0883" lon="2.41725">
        <ele>127.9</ele>
        <time>2019-10-13T17:47:05Z</time>
      </trkpt>
      <trkpt lat="47.08832" lon="2.41741">
        <ele>127.4</ele>
        <time>2019-10-13T17:47:08Z</time>
      </trkpt>
      <trkpt lat="47.08823" lon="2.41757">
        <ele>127.4</ele>
        <time>2019-10-13T17:47:12Z</time>
      </trkpt>
      <trkpt lat="47.08812" lon="2.41779">
        <ele>127.8</ele>
        <time>2019-10-13T17:47:17Z</time>
      </trkpt>
      <trkpt lat="47.08806" lon="2.41789">
        <ele>128</ele>
        <time>2019-10-13T17:47:19Z</time>
      </trkpt>
      <trkpt lat="47.08803" lon="2.41802">
        <ele>127.9</ele>
        <time>2019-10-13T17:47:22Z</time>
      </trkpt>
      <trkpt lat="47.08802" lon="2.4182">
        <ele>127.9</ele>
        <time>2019-10-13T17:47:25Z</time>
      </trkpt>
      <trkpt lat="47.08806" lon="2.41847">
        <ele>128</ele>
        <time>2019-10-13T17:47:30Z</time>
      </trkpt>
      <trkpt lat="47.08812" lon="2.41873">
        <ele>127.9</ele>
        <time>2019-10-13T17:47:35Z</time>
      </trkpt>
      <trkpt lat="47.0882" lon="2.41902">
        <ele>127.3</ele>
        <time>2019-10-13T17:47:41Z</time>
      </trkpt>
      <trkpt lat="47.08826" lon="2.41933">
        <ele>127.4</ele>
        <time>2019-10-13T17:47:47Z</time>
      </trkpt>
      <trkpt lat="47.08831" lon="2.41973">
        <ele>127.9</ele>
        <time>2019-10-13T17:47:54Z</time>
      </trkpt>
      <trkpt lat="47.08831" lon="2.42005">
        <ele>127.8</ele>
        <time>2019-10-13T17:48:00Z</time>
      </trkpt>
      <trkpt lat="47.08834" lon="2.42033">
        <ele>127.2</ele>
        <time>2019-10-13T17:48:05Z</time>
      </trkpt>
      <trkpt lat="47.08838" lon="2.42067">
        <ele>128</ele>
        <time>2019-10-13T17:48:11Z</time>
      </trkpt>
      <trkpt lat="47.08844" lon="2.42092">
        <ele>128.2</ele>
        <time>2019-10-13T17:48:16Z</time>
      </trkpt>
      <trkpt lat="47.08851" lon="2.42112">
        <ele>128.4</ele>
        <time>2019-10-13T17:48:20Z</time>
      </trkpt>
      <trkpt lat="47.08858" lon="2.42126">
        <ele>128.1</ele>
        <time>2019-10-13T17:48:23Z</time>
      </trkpt>
      <trkpt lat="47.08858" lon="2.42132">
        <ele>128</ele>
        <time>2019-10-13T17:48:24Z</time>
      </trkpt>
      <trkpt lat="47.08861" lon="2.42133">
        <ele>128</ele>
        <time>2019-10-13T17:48:25Z</time>
      </trkpt>
      <trkpt lat="47.08876" lon="2.42137">
        <ele>128.5</ele>
        <time>2019-10-13T17:48:29Z</time>
      </trkpt>
      <trkpt lat="47.08881" lon="2.42141">
        <ele>128.7</ele>
        <time>2019-10-13T17:48:31Z</time>
      </trkpt>
      <trkpt lat="47.08886" lon="2.42148">
        <ele>128.6</ele>
        <time>2019-10-13T17:48:33Z</time>
      </trkpt>
      <trkpt lat="47.08989" lon="2.42174">
        <ele>129.3</ele>
        <time>2019-10-13T17:49:01Z</time>
      </trkpt>
      <trkpt lat="47.09008" lon="2.42178">
        <ele>129.9</ele>
        <time>2019-10-13T17:49:06Z</time>
      </trkpt>
      <trkpt lat="47.09015" lon="2.42179">
        <ele>130.1</ele>
        <time>2019-10-13T17:49:08Z</time>
      </trkpt>
      <trkpt lat="47.09016" lon="2.42185">
        <ele>129.9</ele>
        <time>2019-10-13T17:49:09Z</time>
      </trkpt>
      <trkpt lat="47.09021" lon="2.422">
        <ele>130</ele>
        <time>2019-10-13T17:49:12Z</time>
      </trkpt>
      <trkpt lat="47.09029" lon="2.42229">
        <ele>131</ele>
        <time>2019-10-13T17:49:17Z</time>
      </trkpt>
      <trkpt lat="47.09034" lon="2.42243">
        <ele>131.2</ele>
        <time>2019-10-13T17:49:20Z</time>
      </trkpt>
      <trkpt lat="47.09037" lon="2.42255">
        <ele>131.8</ele>
        <time>2019-10-13T17:49:23Z</time>
      </trkpt>
      <trkpt lat="47.09041" lon="2.42271">
        <ele>132.7</ele>
        <time>2019-10-13T17:49:26Z</time>
      </trkpt>
      <trkpt lat="47.09046" lon="2.42297">
        <ele>133.5</ele>
        <time>2019-10-13T17:49:31Z</time>
      </trkpt>
      <trkpt lat="47.09051" lon="2.4232">
        <ele>133.8</ele>
        <time>2019-10-13T17:49:35Z</time>
      </trkpt>
      <trkpt lat="47.09051" lon="2.42335">
        <ele>133.9</ele>
        <time>2019-10-13T17:49:38Z</time>
      </trkpt>
      <trkpt lat="47.09054" lon="2.42347">
        <ele>134.4</ele>
        <time>2019-10-13T17:49:40Z</time>
      </trkpt>
      <trkpt lat="47.09053" lon="2.42359">
        <ele>134.8</ele>
        <time>2019-10-13T17:49:42Z</time>
      </trkpt>
      <trkpt lat="47.09055" lon="2.42369">
        <ele>135</ele>
        <time>2019-10-13T17:49:44Z</time>
      </trkpt>
      <trkpt lat="47.09055" lon="2.42408">
        <ele>135</ele>
        <time>2019-10-13T17:49:51Z</time>
      </trkpt>
      <trkpt lat="47.09054" lon="2.42452">
        <ele>135.9</ele>
        <time>2019-10-13T17:49:59Z</time>
      </trkpt>
      <trkpt lat="47.09043" lon="2.42809">
        <ele>138.5</ele>
        <time>2019-10-13T17:51:04Z</time>
      </trkpt>
      <trkpt lat="47.0904" lon="2.42902">
        <ele>138.4</ele>
        <time>2019-10-13T17:51:21Z</time>
      </trkpt>
      <trkpt lat="47.09039" lon="2.42937">
        <ele>138.7</ele>
        <time>2019-10-13T17:51:28Z</time>
      </trkpt>
      <trkpt lat="47.0904" lon="2.42973">
        <ele>138.4</ele>
        <time>2019-10-13T17:51:34Z</time>
      </trkpt>
      <trkpt lat="47.09043" lon="2.42993">
        <ele>138.2</ele>
        <time>2019-10-13T17:51:38Z</time>
      </trkpt>
      <trkpt lat="47.09052" lon="2.43032">
        <ele>137.9</ele>
        <time>2019-10-13T17:51:45Z</time>
      </trkpt>
      <trkpt lat="47.09095" lon="2.43183">
        <ele>136.5</ele>
        <time>2019-10-13T17:52:15Z</time>
      </trkpt>
      <trkpt lat="47.09106" lon="2.43221">
        <ele>136.5</ele>
        <time>2019-10-13T17:52:23Z</time>
      </trkpt>
      <trkpt lat="47.09108" lon="2.43229">
        <ele>136.4</ele>
        <time>2019-10-13T17:52:24Z</time>
      </trkpt>
      <trkpt lat="47.09128" lon="2.433">
        <ele>135</ele>
        <time>2019-10-13T17:52:38Z</time>
      </trkpt>
      <trkpt lat="47.09191" lon="2.43498">
        <ele>132.8</ele>
        <time>2019-10-13T17:53:18Z</time>
      </trkpt>
      <trkpt lat="47.09304" lon="2.43849">
        <ele>131.4</ele>
        <time>2019-10-13T17:54:28Z</time>
      </trkpt>
      <trkpt lat="47.09369" lon="2.44086">
        <ele>134.9</ele>
        <time>2019-10-13T17:55:15Z</time>
      </trkpt>
      <trkpt lat="47.09372" lon="2.44105">
        <ele>135.2</ele>
        <time>2019-10-13T17:55:19Z</time>
      </trkpt>
      <trkpt lat="47.09375" lon="2.44126">
        <ele>135.8</ele>
        <time>2019-10-13T17:55:23Z</time>
      </trkpt>
      <trkpt lat="47.09372" lon="2.44132">
        <ele>135.6</ele>
        <time>2019-10-13T17:55:24Z</time>
      </trkpt>
      <trkpt lat="47.09365" lon="2.44153">
        <ele>135.3</ele>
        <time>2019-10-13T17:55:28Z</time>
      </trkpt>
      <trkpt lat="47.09361" lon="2.44171">
        <ele>134.8</ele>
        <time>2019-10-13T17:55:32Z</time>
      </trkpt>
      <trkpt lat="47.0936" lon="2.44181">
        <ele>134.4</ele>
        <time>2019-10-13T17:55:33Z</time>
      </trkpt>
      <trkpt lat="47.09356" lon="2.44218">
        <ele>133.4</ele>
        <time>2019-10-13T17:55:40Z</time>
      </trkpt>
      <trkpt lat="47.09346" lon="2.44317">
        <ele>131.9</ele>
        <time>2019-10-13T17:55:58Z</time>
      </trkpt>
      <trkpt lat="47.09343" lon="2.44335">
        <ele>131.7</ele>
        <time>2019-10-13T17:56:02Z</time>
      </trkpt>
      <trkpt lat="47.09335" lon="2.44374">
        <ele>131.6</ele>
        <time>2019-10-13T17:56:09Z</time>
      </trkpt>
      <trkpt lat="47.09331" lon="2.44392">
        <ele>131.8</ele>
        <time>2019-10-13T17:56:13Z</time>
      </trkpt>
      <trkpt lat="47.09315" lon="2.4446">
        <ele>131</ele>
        <time>2019-10-13T17:56:26Z</time>
      </trkpt>
      <trkpt lat="47.09309" lon="2.44484">
        <ele>131.1</ele>
        <time>2019-10-13T17:56:30Z</time>
      </trkpt>
      <trkpt lat="47.09286" lon="2.44571">
        <ele>130.3</ele>
        <time>2019-10-13T17:56:47Z</time>
      </trkpt>
      <trkpt lat="47.09279" lon="2.44594">
        <ele>130.4</ele>
        <time>2019-10-13T17:56:52Z</time>
      </trkpt>
      <trkpt lat="47.09264" lon="2.4465">
        <ele>130.5</ele>
        <time>2019-10-13T17:57:03Z</time>
      </trkpt>
      <trkpt lat="47.0926" lon="2.44663">
        <ele>130.4</ele>
        <time>2019-10-13T17:57:06Z</time>
      </trkpt>
      <trkpt lat="47.09255" lon="2.44699">
        <ele>130.2</ele>
        <time>2019-10-13T17:57:12Z</time>
      </trkpt>
      <trkpt lat="47.0925" lon="2.44742">
        <ele>130.7</ele>
        <time>2019-10-13T17:57:20Z</time>
      </trkpt>
      <trkpt lat="47.09249" lon="2.44773">
        <ele>131</ele>
        <time>2019-10-13T17:57:26Z</time>
      </trkpt>
      <trkpt lat="47.09251" lon="2.44862">
        <ele>131.1</ele>
        <time>2019-10-13T17:57:42Z</time>
      </trkpt>
      <trkpt lat="47.0925" lon="2.44884">
        <ele>131</ele>
        <time>2019-10-13T17:57:46Z</time>
      </trkpt>
      <trkpt lat="47.09245" lon="2.4493">
        <ele>131.9</ele>
        <time>2019-10-13T17:57:55Z</time>
      </trkpt>
      <trkpt lat="47.09236" lon="2.4499">
        <ele>132</ele>
        <time>2019-10-13T17:58:06Z</time>
      </trkpt>
      <trkpt lat="47.09228" lon="2.45048">
        <ele>132.2</ele>
        <time>2019-10-13T17:58:16Z</time>
      </trkpt>
      <trkpt lat="47.09227" lon="2.45133">
        <ele>133.1</ele>
        <time>2019-10-13T17:58:32Z</time>
      </trkpt>
      <trkpt lat="47.09216" lon="2.45291">
        <ele>134.6</ele>
        <time>2019-10-13T17:59:01Z</time>
      </trkpt>
      <trkpt lat="47.09213" lon="2.45329">
        <ele>134.6</ele>
        <time>2019-10-13T17:59:08Z</time>
      </trkpt>
      <trkpt lat="47.09209" lon="2.45367">
        <ele>134.4</ele>
        <time>2019-10-13T17:59:15Z</time>
      </trkpt>
      <trkpt lat="47.09203" lon="2.45428">
        <ele>133.5</ele>
        <time>2019-10-13T17:59:26Z</time>
      </trkpt>
      <trkpt lat="47.09201" lon="2.4548">
        <ele>133.2</ele>
        <time>2019-10-13T17:59:35Z</time>
      </trkpt>
      <trkpt lat="47.09203" lon="2.45531">
        <ele>134</ele>
        <time>2019-10-13T17:59:45Z</time>
      </trkpt>
      <trkpt lat="47.09212" lon="2.45685">
        <ele>135.6</ele>
        <time>2019-10-13T18:00:13Z</time>
      </trkpt>
      <trkpt lat="47.09227" lon="2.45948">
        <ele>133.2</ele>
        <time>2019-10-13T18:01:01Z</time>
      </trkpt>
      <trkpt lat="47.09231" lon="2.45986">
        <ele>133</ele>
        <time>2019-10-13T18:01:08Z</time>
      </trkpt>
      <trkpt lat="47.09234" lon="2.46008">
        <ele>132.8</ele>
        <time>2019-10-13T18:01:12Z</time>
      </trkpt>
      <trkpt lat="47.09238" lon="2.46028">
        <ele>133.1</ele>
        <time>2019-10-13T18:01:16Z</time>
      </trkpt>
      <trkpt lat="47.09271" lon="2.46148">
        <ele>134.3</ele>
        <time>2019-10-13T18:01:39Z</time>
      </trkpt>
      <trkpt lat="47.09308" lon="2.46276">
        <ele>134.2</ele>
        <time>2019-10-13T18:02:04Z</time>
      </trkpt>
      <trkpt lat="47.09331" lon="2.46382">
        <ele>135.8</ele>
        <time>2019-10-13T18:02:25Z</time>
      </trkpt>
      <trkpt lat="47.09356" lon="2.46467">
        <ele>135.8</ele>
        <time>2019-10-13T18:02:42Z</time>
      </trkpt>
      <trkpt lat="47.09369" lon="2.46516">
        <ele>135.4</ele>
        <time>2019-10-13T18:02:51Z</time>
      </trkpt>
      <trkpt lat="47.09375" lon="2.46528">
        <ele>136</ele>
        <time>2019-10-13T18:02:54Z</time>
      </trkpt>
      <trkpt lat="47.09381" lon="2.46538">
        <ele>137</ele>
        <time>2019-10-13T18:02:56Z</time>
      </trkpt>
      <trkpt lat="47.09385" lon="2.46544">
        <ele>137.5</ele>
        <time>2019-10-13T18:02:58Z</time>
      </trkpt>
      <trkpt lat="47.09389" lon="2.46549">
        <ele>138</ele>
        <time>2019-10-13T18:02:59Z</time>
      </trkpt>
      <trkpt lat="47.09402" lon="2.46556">
        <ele>138</ele>
        <time>2019-10-13T18:03:03Z</time>
      </trkpt>
      <trkpt lat="47.09406" lon="2.46559">
        <ele>138</ele>
        <time>2019-10-13T18:03:04Z</time>
      </trkpt>
      <trkpt lat="47.09414" lon="2.46564">
        <ele>138</ele>
        <time>2019-10-13T18:03:07Z</time>
      </trkpt>
      <trkpt lat="47.09511" lon="2.46635">
        <ele>139</ele>
        <time>2019-10-13T18:03:35Z</time>
      </trkpt>
      <trkpt lat="47.09651" lon="2.46735">
        <ele>139.2</ele>
        <time>2019-10-13T18:04:17Z</time>
      </trkpt>
      <trkpt lat="47.09682" lon="2.46757">
        <ele>139.4</ele>
        <time>2019-10-13T18:04:26Z</time>
      </trkpt>
      <trkpt lat="47.09712" lon="2.46778">
        <ele>139.6</ele>
        <time>2019-10-13T18:04:35Z</time>
      </trkpt>
      <trkpt lat="47.09728" lon="2.4679">
        <ele>139.5</ele>
        <time>2019-10-13T18:04:40Z</time>
      </trkpt>
      <trkpt lat="47.09777" lon="2.46826">
        <ele>137.3</ele>
        <time>2019-10-13T18:04:55Z</time>
      </trkpt>
      <trkpt lat="47.098" lon="2.46845">
        <ele>137</ele>
        <time>2019-10-13T18:05:02Z</time>
      </trkpt>
      <trkpt lat="47.09811" lon="2.46995">
        <ele>134.8</ele>
        <time>2019-10-13T18:05:29Z</time>
      </trkpt>
      <trkpt lat="47.09821" lon="2.47145">
        <ele>133.7</ele>
        <time>2019-10-13T18:05:57Z</time>
      </trkpt>
      <trkpt lat="47.0982" lon="2.47244">
        <ele>134</ele>
        <time>2019-10-13T18:06:15Z</time>
      </trkpt>
      <trkpt lat="47.0982" lon="2.47259">
        <ele>134.2</ele>
        <time>2019-10-13T18:06:17Z</time>
      </trkpt>
      <trkpt lat="47.09817" lon="2.47275">
        <ele>134.4</ele>
        <time>2019-10-13T18:06:20Z</time>
      </trkpt>
      <trkpt lat="47.09817" lon="2.4729">
        <ele>134.4</ele>
        <time>2019-10-13T18:06:23Z</time>
      </trkpt>
      <trkpt lat="47.09821" lon="2.47301">
        <ele>134.6</ele>
        <time>2019-10-13T18:06:25Z</time>
      </trkpt>
      <trkpt lat="47.09828" lon="2.47313">
        <ele>134.9</ele>
        <time>2019-10-13T18:06:28Z</time>
      </trkpt>
      <trkpt lat="47.09823" lon="2.47318">
        <ele>134.8</ele>
        <time>2019-10-13T18:06:30Z</time>
      </trkpt>
      <trkpt lat="47.09818" lon="2.47323">
        <ele>134.8</ele>
        <time>2019-10-13T18:06:31Z</time>
      </trkpt>
      <trkpt lat="47.09813" lon="2.47327">
        <ele>134.8</ele>
        <time>2019-10-13T18:06:33Z</time>
      </trkpt>
      <trkpt lat="47.09769" lon="2.47299">
        <ele>135.7</ele>
        <time>2019-10-13T18:06:46Z</time>
      </trkpt>
      <trkpt lat="47.09731" lon="2.47276">
        <ele>135.9</ele>
        <time>2019-10-13T18:06:57Z</time>
      </trkpt>
      <trkpt lat="47.0972" lon="2.47274">
        <ele>135.9</ele>
        <time>2019-10-13T18:07:00Z</time>
      </trkpt>
      <trkpt lat="47.09715" lon="2.47274">
        <ele>135.9</ele>
        <time>2019-10-13T18:07:01Z</time>
      </trkpt>
      <trkpt lat="47.097" lon="2.47278">
        <ele>136</ele>
        <time>2019-10-13T18:07:05Z</time>
      </trkpt>
      <trkpt lat="47.09674" lon="2.47298">
        <ele>136.9</ele>
        <time>2019-10-13T18:07:13Z</time>
      </trkpt>
      <trkpt lat="47.09667" lon="2.47314">
        <ele>137.3</ele>
        <time>2019-10-13T18:07:16Z</time>
      </trkpt>
      <trkpt lat="47.09665" lon="2.47333">
        <ele>138</ele>
        <time>2019-10-13T18:07:20Z</time>
      </trkpt>
      <trkpt lat="47.09666" lon="2.47352">
        <ele>138</ele>
        <time>2019-10-13T18:07:23Z</time>
      </trkpt>
      <trkpt lat="47.09666" lon="2.47357">
        <ele>138</ele>
        <time>2019-10-13T18:07:24Z</time>
      </trkpt>
      <trkpt lat="47.09667" lon="2.47372">
        <ele>138.4</ele>
        <time>2019-10-13T18:07:27Z</time>
      </trkpt>
      <trkpt lat="47.09666" lon="2.47385">
        <ele>138.8</ele>
        <time>2019-10-13T18:07:29Z</time>
      </trkpt>
      <trkpt lat="47.09662" lon="2.47414">
        <ele>140.3</ele>
        <time>2019-10-13T18:07:35Z</time>
      </trkpt>
      <trkpt lat="47.09661" lon="2.4743">
        <ele>140.8</ele>
        <time>2019-10-13T18:07:38Z</time>
      </trkpt>
      <trkpt lat="47.09663" lon="2.47446">
        <ele>141.5</ele>
        <time>2019-10-13T18:07:41Z</time>
      </trkpt>
      <trkpt lat="47.09678" lon="2.47534">
        <ele>141.5</ele>
        <time>2019-10-13T18:07:57Z</time>
      </trkpt>
      <trkpt lat="47.09689" lon="2.47618">
        <ele>144.4</ele>
        <time>2019-10-13T18:08:13Z</time>
      </trkpt>
      <trkpt lat="47.09693" lon="2.47656">
        <ele>145.6</ele>
        <time>2019-10-13T18:08:20Z</time>
      </trkpt>
      <trkpt lat="47.0965" lon="2.47664">
        <ele>141.6</ele>
        <time>2019-10-13T18:08:31Z</time>
      </trkpt>
      <trkpt lat="47.09646" lon="2.47666">
        <ele>142.5</ele>
        <time>2019-10-13T18:08:32Z</time>
      </trkpt>
      <trkpt lat="47.09643" lon="2.47667">
        <ele>143.1</ele>
        <time>2019-10-13T18:08:33Z</time>
      </trkpt>
      <trkpt lat="47.09619" lon="2.47677">
        <ele>142.6</ele>
        <time>2019-10-13T18:08:40Z</time>
      </trkpt>
      <trkpt lat="47.09587" lon="2.47695">
        <ele>141.1</ele>
        <time>2019-10-13T18:08:49Z</time>
      </trkpt>
      <trkpt lat="47.09577" lon="2.47702">
        <ele>140</ele>
        <time>2019-10-13T18:08:52Z</time>
      </trkpt>
      <trkpt lat="47.09567" lon="2.47714">
        <ele>138.5</ele>
        <time>2019-10-13T18:08:55Z</time>
      </trkpt>
      <trkpt lat="47.09565" lon="2.47722">
        <ele>138</ele>
        <time>2019-10-13T18:08:57Z</time>
      </trkpt>
      <trkpt lat="47.09564" lon="2.47737">
        <ele>137.8</ele>
        <time>2019-10-13T18:09:00Z</time>
      </trkpt>
      <trkpt lat="47.09566" lon="2.47796">
        <ele>136.5</ele>
        <time>2019-10-13T18:09:10Z</time>
      </trkpt>
      <trkpt lat="47.09568" lon="2.47853">
        <ele>135.5</ele>
        <time>2019-10-13T18:09:21Z</time>
      </trkpt>
      <trkpt lat="47.09585" lon="2.47938">
        <ele>134.4</ele>
        <time>2019-10-13T18:09:37Z</time>
      </trkpt>
      <trkpt lat="47.09588" lon="2.47978">
        <ele>134.2</ele>
        <time>2019-10-13T18:09:44Z</time>
      </trkpt>
      <trkpt lat="47.09589" lon="2.48009">
        <ele>133.9</ele>
        <time>2019-10-13T18:09:50Z</time>
      </trkpt>
      <trkpt lat="47.0959" lon="2.48048">
        <ele>133.5</ele>
        <time>2019-10-13T18:09:57Z</time>
      </trkpt>
      <trkpt lat="47.09598" lon="2.48118">
        <ele>134.5</ele>
        <time>2019-10-13T18:10:10Z</time>
      </trkpt>
      <trkpt lat="47.09583" lon="2.48213">
        <ele>134</ele>
        <time>2019-10-13T18:10:28Z</time>
      </trkpt>
      <trkpt lat="47.09557" lon="2.48355">
        <ele>133.8</ele>
        <time>2019-10-13T18:10:54Z</time>
      </trkpt>
      <trkpt lat="47.09571" lon="2.48386">
        <ele>134.6</ele>
        <time>2019-10-13T18:11:01Z</time>
      </trkpt>
      <trkpt lat="47.09614" lon="2.48408">
        <ele>137.1</ele>
        <time>2019-10-13T18:11:13Z</time>
      </trkpt>
      <trkpt lat="47.09622" lon="2.48418">
        <ele>137.4</ele>
        <time>2019-10-13T18:11:16Z</time>
      </trkpt>
      <trkpt lat="47.09616" lon="2.48528">
        <ele>138</ele>
        <time>2019-10-13T18:11:36Z</time>
      </trkpt>
      <trkpt lat="47.09616" lon="2.48543">
        <ele>138</ele>
        <time>2019-10-13T18:11:39Z</time>
      </trkpt>
      <trkpt lat="47.0961" lon="2.48553">
        <ele>138</ele>
        <time>2019-10-13T18:11:41Z</time>
      </trkpt>
      <trkpt lat="47.09601" lon="2.48566">
        <ele>138</ele>
        <time>2019-10-13T18:11:45Z</time>
      </trkpt>
      <trkpt lat="47.09543" lon="2.48628">
        <ele>137.2</ele>
        <time>2019-10-13T18:12:04Z</time>
      </trkpt>
      <trkpt lat="47.09521" lon="2.48653">
        <ele>137.1</ele>
        <time>2019-10-13T18:12:11Z</time>
      </trkpt>
      <trkpt lat="47.09472" lon="2.48739">
        <ele>135</ele>
        <time>2019-10-13T18:12:32Z</time>
      </trkpt>
      <trkpt lat="47.09364" lon="2.48834">
        <ele>133</ele>
        <time>2019-10-13T18:13:05Z</time>
      </trkpt>
      <trkpt lat="47.09317" lon="2.48873">
        <ele>133</ele>
        <time>2019-10-13T18:13:20Z</time>
      </trkpt>
      <trkpt lat="47.09304" lon="2.48896">
        <ele>133</ele>
        <time>2019-10-13T18:13:25Z</time>
      </trkpt>
      <trkpt lat="47.09288" lon="2.49037">
        <ele>133</ele>
        <time>2019-10-13T18:13:51Z</time>
      </trkpt>
      <trkpt lat="47.09277" lon="2.49071">
        <ele>133</ele>
        <time>2019-10-13T18:13:58Z</time>
      </trkpt>
      <trkpt lat="47.0925" lon="2.4909">
        <ele>133</ele>
        <time>2019-10-13T18:14:06Z</time>
      </trkpt>
      <trkpt lat="47.09225" lon="2.49093">
        <ele>133</ele>
        <time>2019-10-13T18:14:13Z</time>
      </trkpt>
      <trkpt lat="47.09156" lon="2.49089">
        <ele>133</ele>
        <time>2019-10-13T18:14:31Z</time>
      </trkpt>
      <trkpt lat="47.09005" lon="2.49078">
        <ele>133.8</ele>
        <time>2019-10-13T18:15:12Z</time>
      </trkpt>
      <trkpt lat="47.08944" lon="2.49077">
        <ele>133.8</ele>
        <time>2019-10-13T18:15:28Z</time>
      </trkpt>
      <trkpt lat="47.08865" lon="2.49073">
        <ele>133.1</ele>
        <time>2019-10-13T18:15:49Z</time>
      </trkpt>
      <trkpt lat="47.08849" lon="2.49073">
        <ele>133</ele>
        <time>2019-10-13T18:15:53Z</time>
      </trkpt>
      <trkpt lat="47.08843" lon="2.49073">
        <ele>133</ele>
        <time>2019-10-13T18:15:55Z</time>
      </trkpt>
      <trkpt lat="47.08839" lon="2.49075">
        <ele>133</ele>
        <time>2019-10-13T18:15:56Z</time>
      </trkpt>
      <trkpt lat="47.08826" lon="2.4909">
        <ele>132.9</ele>
        <time>2019-10-13T18:16:01Z</time>
      </trkpt>
      <trkpt lat="47.0881" lon="2.49112">
        <ele>133.6</ele>
        <time>2019-10-13T18:16:06Z</time>
      </trkpt>
      <trkpt lat="47.08617" lon="2.4937">
        <ele>133</ele>
        <time>2019-10-13T18:17:16Z</time>
      </trkpt>
      <trkpt lat="47.08509" lon="2.49515">
        <ele>133</ele>
        <time>2019-10-13T18:17:55Z</time>
      </trkpt>
      <trkpt lat="47.08497" lon="2.49526">
        <ele>133</ele>
        <time>2019-10-13T18:17:59Z</time>
      </trkpt>
      <trkpt lat="47.08486" lon="2.49531">
        <ele>133</ele>
        <time>2019-10-13T18:18:02Z</time>
      </trkpt>
      <trkpt lat="47.08336" lon="2.49563">
        <ele>133</ele>
        <time>2019-10-13T18:18:43Z</time>
      </trkpt>
      <trkpt lat="47.08327" lon="2.49562">
        <ele>133</ele>
        <time>2019-10-13T18:18:45Z</time>
      </trkpt>
      <trkpt lat="47.08317" lon="2.49559">
        <ele>133</ele>
        <time>2019-10-13T18:18:48Z</time>
      </trkpt>
      <trkpt lat="47.08305" lon="2.49551">
        <ele>133</ele>
        <time>2019-10-13T18:18:51Z</time>
      </trkpt>
      <trkpt lat="47.08293" lon="2.49542">
        <ele>133.2</ele>
        <time>2019-10-13T18:18:55Z</time>
      </trkpt>
      <trkpt lat="47.08284" lon="2.49532">
        <ele>133.7</ele>
        <time>2019-10-13T18:18:58Z</time>
      </trkpt>
      <trkpt lat="47.08275" lon="2.4952">
        <ele>133.6</ele>
        <time>2019-10-13T18:19:01Z</time>
      </trkpt>
      <trkpt lat="47.08267" lon="2.49507">
        <ele>133.2</ele>
        <time>2019-10-13T18:19:04Z</time>
      </trkpt>
      <trkpt lat="47.08261" lon="2.49491">
        <ele>133</ele>
        <time>2019-10-13T18:19:08Z</time>
      </trkpt>
      <trkpt lat="47.0823" lon="2.49392">
        <ele>133</ele>
        <time>2019-10-13T18:19:27Z</time>
      </trkpt>
      <trkpt lat="47.08222" lon="2.49375">
        <ele>133.5</ele>
        <time>2019-10-13T18:19:31Z</time>
      </trkpt>
      <trkpt lat="47.08209" lon="2.49358">
        <ele>133.6</ele>
        <time>2019-10-13T18:19:36Z</time>
      </trkpt>
      <trkpt lat="47.08112" lon="2.49251">
        <ele>135.9</ele>
        <time>2019-10-13T18:20:08Z</time>
      </trkpt>
      <trkpt lat="47.08083" lon="2.49287">
        <ele>136</ele>
        <time>2019-10-13T18:20:19Z</time>
      </trkpt>
      <trkpt lat="47.08048" lon="2.49323">
        <ele>136.1</ele>
        <time>2019-10-13T18:20:30Z</time>
      </trkpt>
      <trkpt lat="47.08011" lon="2.49352">
        <ele>136.2</ele>
        <time>2019-10-13T18:20:41Z</time>
      </trkpt>
      <trkpt lat="47.07971" lon="2.49383">
        <ele>136.2</ele>
        <time>2019-10-13T18:20:53Z</time>
      </trkpt>
      <trkpt lat="47.07963" lon="2.49389">
        <ele>136.3</ele>
        <time>2019-10-13T18:20:56Z</time>
      </trkpt>
      <trkpt lat="47.07933" lon="2.49405">
        <ele>137.1</ele>
        <time>2019-10-13T18:21:04Z</time>
      </trkpt>
      <trkpt lat="47.07896" lon="2.49416">
        <ele>139.5</ele>
        <time>2019-10-13T18:21:14Z</time>
      </trkpt>
      <trkpt lat="47.07889" lon="2.49416">
        <ele>140</ele>
        <time>2019-10-13T18:21:16Z</time>
      </trkpt>
      <trkpt lat="47.07885" lon="2.49416">
        <ele>140.1</ele>
        <time>2019-10-13T18:21:17Z</time>
      </trkpt>
      <trkpt lat="47.07851" lon="2.49418">
        <ele>141.3</ele>
        <time>2019-10-13T18:21:26Z</time>
      </trkpt>
      <trkpt lat="47.07836" lon="2.49423">
        <ele>141.7</ele>
        <time>2019-10-13T18:21:31Z</time>
      </trkpt>
      <trkpt lat="47.07822" lon="2.4944">
        <ele>142</ele>
        <time>2019-10-13T18:21:35Z</time>
      </trkpt>
      <trkpt lat="47.07812" lon="2.49456">
        <ele>142.2</ele>
        <time>2019-10-13T18:21:39Z</time>
      </trkpt>
      <trkpt lat="47.07799" lon="2.49485">
        <ele>142.4</ele>
        <time>2019-10-13T18:21:46Z</time>
      </trkpt>
      <trkpt lat="47.07782" lon="2.49532">
        <ele>141.8</ele>
        <time>2019-10-13T18:21:55Z</time>
      </trkpt>
      <trkpt lat="47.07741" lon="2.49639">
        <ele>139.7</ele>
        <time>2019-10-13T18:22:18Z</time>
      </trkpt>
      <trkpt lat="47.07716" lon="2.49704">
        <ele>137.7</ele>
        <time>2019-10-13T18:22:31Z</time>
      </trkpt>
      <trkpt lat="47.07694" lon="2.49763">
        <ele>137</ele>
        <time>2019-10-13T18:22:44Z</time>
      </trkpt>
      <trkpt lat="47.07678" lon="2.49817">
        <ele>136.8</ele>
        <time>2019-10-13T18:22:54Z</time>
      </trkpt>
      <trkpt lat="47.07663" lon="2.49868">
        <ele>138.1</ele>
        <time>2019-10-13T18:23:04Z</time>
      </trkpt>
      <trkpt lat="47.07653" lon="2.49896">
        <ele>138.6</ele>
        <time>2019-10-13T18:23:10Z</time>
      </trkpt>
      <trkpt lat="47.07593" lon="2.50032">
        <ele>138.8</ele>
        <time>2019-10-13T18:23:40Z</time>
      </trkpt>
      <trkpt lat="47.07573" lon="2.50076">
        <ele>137.5</ele>
        <time>2019-10-13T18:23:49Z</time>
      </trkpt>
      <trkpt lat="47.07487" lon="2.50262">
        <ele>137.8</ele>
        <time>2019-10-13T18:24:30Z</time>
      </trkpt>
      <trkpt lat="47.07482" lon="2.50274">
        <ele>137.7</ele>
        <time>2019-10-13T18:24:33Z</time>
      </trkpt>
      <trkpt lat="47.07476" lon="2.50293">
        <ele>137.9</ele>
        <time>2019-10-13T18:24:36Z</time>
      </trkpt>
      <trkpt lat="47.07472" lon="2.50319">
        <ele>137.5</ele>
        <time>2019-10-13T18:24:41Z</time>
      </trkpt>
      <trkpt lat="47.0747" lon="2.50371">
        <ele>137.1</ele>
        <time>2019-10-13T18:24:51Z</time>
      </trkpt>
      <trkpt lat="47.07458" lon="2.50616">
        <ele>135.5</ele>
        <time>2019-10-13T18:25:35Z</time>
      </trkpt>
      <trkpt lat="47.07417" lon="2.50916">
        <ele>136</ele>
        <time>2019-10-13T18:26:31Z</time>
      </trkpt>
      <trkpt lat="47.07413" lon="2.50986">
        <ele>136</ele>
        <time>2019-10-13T18:26:44Z</time>
      </trkpt>
      <trkpt lat="47.07412" lon="2.51003">
        <ele>136</ele>
        <time>2019-10-13T18:26:47Z</time>
      </trkpt>
      <trkpt lat="47.07408" lon="2.51084">
        <ele>136</ele>
        <time>2019-10-13T18:27:02Z</time>
      </trkpt>
      <trkpt lat="47.07401" lon="2.51166">
        <ele>136.6</ele>
        <time>2019-10-13T18:27:17Z</time>
      </trkpt>
      <trkpt lat="47.07389" lon="2.51311">
        <ele>138</ele>
        <time>2019-10-13T18:27:43Z</time>
      </trkpt>
      <trkpt lat="47.07388" lon="2.51331">
        <ele>138</ele>
        <time>2019-10-13T18:27:47Z</time>
      </trkpt>
      <trkpt lat="47.07366" lon="2.51861">
        <ele>143</ele>
        <time>2019-10-13T18:29:24Z</time>
      </trkpt>
      <trkpt lat="47.07324" lon="2.52203">
        <ele>143.2</ele>
        <time>2019-10-13T18:30:27Z</time>
      </trkpt>
      <trkpt lat="47.07316" lon="2.52225">
        <ele>143</ele>
        <time>2019-10-13T18:30:31Z</time>
      </trkpt>
      <trkpt lat="47.07317" lon="2.5224">
        <ele>142.7</ele>
        <time>2019-10-13T18:30:34Z</time>
      </trkpt>
      <trkpt lat="47.07316" lon="2.52274">
        <ele>142.6</ele>
        <time>2019-10-13T18:30:40Z</time>
      </trkpt>
      <trkpt lat="47.07317" lon="2.52298">
        <ele>141.9</ele>
        <time>2019-10-13T18:30:45Z</time>
      </trkpt>
      <trkpt lat="47.07167" lon="2.52571">
        <ele>138.4</ele>
        <time>2019-10-13T18:31:49Z</time>
      </trkpt>
      <trkpt lat="47.07154" lon="2.52592">
        <ele>138.1</ele>
        <time>2019-10-13T18:31:54Z</time>
      </trkpt>
      <trkpt lat="47.07143" lon="2.52612">
        <ele>137.8</ele>
        <time>2019-10-13T18:31:58Z</time>
      </trkpt>
      <trkpt lat="47.07086" lon="2.52689">
        <ele>138.8</ele>
        <time>2019-10-13T18:32:19Z</time>
      </trkpt>
      <trkpt lat="47.07051" lon="2.52746">
        <ele>139.4</ele>
        <time>2019-10-13T18:32:33Z</time>
      </trkpt>
      <trkpt lat="47.07035" lon="2.52777">
        <ele>140.5</ele>
        <time>2019-10-13T18:32:40Z</time>
      </trkpt>
      <trkpt lat="47.07023" lon="2.528">
        <ele>141.2</ele>
        <time>2019-10-13T18:32:45Z</time>
      </trkpt>
      <trkpt lat="47.07013" lon="2.52826">
        <ele>141.2</ele>
        <time>2019-10-13T18:32:51Z</time>
      </trkpt>
      <trkpt lat="47.07001" lon="2.52857">
        <ele>141.9</ele>
        <time>2019-10-13T18:32:57Z</time>
      </trkpt>
      <trkpt lat="47.06992" lon="2.52887">
        <ele>142.6</ele>
        <time>2019-10-13T18:33:03Z</time>
      </trkpt>
      <trkpt lat="47.06966" lon="2.53">
        <ele>142.4</ele>
        <time>2019-10-13T18:33:25Z</time>
      </trkpt>
      <trkpt lat="47.0696" lon="2.53024">
        <ele>142.9</ele>
        <time>2019-10-13T18:33:30Z</time>
      </trkpt>
      <trkpt lat="47.06953" lon="2.53047">
        <ele>142.7</ele>
        <time>2019-10-13T18:33:34Z</time>
      </trkpt>
      <trkpt lat="47.06946" lon="2.53068">
        <ele>142.4</ele>
        <time>2019-10-13T18:33:38Z</time>
      </trkpt>
      <trkpt lat="47.06938" lon="2.53086">
        <ele>142.4</ele>
        <time>2019-10-13T18:33:42Z</time>
      </trkpt>
      <trkpt lat="47.06915" lon="2.53131">
        <ele>143.1</ele>
        <time>2019-10-13T18:33:53Z</time>
      </trkpt>
      <trkpt lat="47.06906" lon="2.5315">
        <ele>143.1</ele>
        <time>2019-10-13T18:33:57Z</time>
      </trkpt>
      <trkpt lat="47.06894" lon="2.53175">
        <ele>143.6</ele>
        <time>2019-10-13T18:34:02Z</time>
      </trkpt>
      <trkpt lat="47.06887" lon="2.53193">
        <ele>144.1</ele>
        <time>2019-10-13T18:34:06Z</time>
      </trkpt>
      <trkpt lat="47.06883" lon="2.53206">
        <ele>143.9</ele>
        <time>2019-10-13T18:34:09Z</time>
      </trkpt>
      <trkpt lat="47.06881" lon="2.53223">
        <ele>143.6</ele>
        <time>2019-10-13T18:34:12Z</time>
      </trkpt>
      <trkpt lat="47.06876" lon="2.53278">
        <ele>143.4</ele>
        <time>2019-10-13T18:34:22Z</time>
      </trkpt>
      <trkpt lat="47.06873" lon="2.53305">
        <ele>143.2</ele>
        <time>2019-10-13T18:34:27Z</time>
      </trkpt>
      <trkpt lat="47.06867" lon="2.5335">
        <ele>143.4</ele>
        <time>2019-10-13T18:34:35Z</time>
      </trkpt>
      <trkpt lat="47.06862" lon="2.53374">
        <ele>143.5</ele>
        <time>2019-10-13T18:34:40Z</time>
      </trkpt>
      <trkpt lat="47.06858" lon="2.53396">
        <ele>143.2</ele>
        <time>2019-10-13T18:34:44Z</time>
      </trkpt>
      <trkpt lat="47.06844" lon="2.53453">
        <ele>142.9</ele>
        <time>2019-10-13T18:34:55Z</time>
      </trkpt>
      <trkpt lat="47.0684" lon="2.5347">
        <ele>142.6</ele>
        <time>2019-10-13T18:34:58Z</time>
      </trkpt>
      <trkpt lat="47.06835" lon="2.53482">
        <ele>142.9</ele>
        <time>2019-10-13T18:35:01Z</time>
      </trkpt>
      <trkpt lat="47.06828" lon="2.53498">
        <ele>143.2</ele>
        <time>2019-10-13T18:35:04Z</time>
      </trkpt>
      <trkpt lat="47.06794" lon="2.53563">
        <ele>141.6</ele>
        <time>2019-10-13T18:35:19Z</time>
      </trkpt>
      <trkpt lat="47.06788" lon="2.53577">
        <ele>141.5</ele>
        <time>2019-10-13T18:35:22Z</time>
      </trkpt>
      <trkpt lat="47.06784" lon="2.53592">
        <ele>141</ele>
        <time>2019-10-13T18:35:25Z</time>
      </trkpt>
      <trkpt lat="47.0678" lon="2.53611">
        <ele>139.9</ele>
        <time>2019-10-13T18:35:29Z</time>
      </trkpt>
      <trkpt lat="47.06777" lon="2.53633">
        <ele>139.2</ele>
        <time>2019-10-13T18:35:33Z</time>
      </trkpt>
      <trkpt lat="47.06769" lon="2.5368">
        <ele>138.5</ele>
        <time>2019-10-13T18:35:42Z</time>
      </trkpt>
      <trkpt lat="47.06744" lon="2.53812">
        <ele>138.2</ele>
        <time>2019-10-13T18:36:07Z</time>
      </trkpt>
      <trkpt lat="47.06741" lon="2.53836">
        <ele>138.3</ele>
        <time>2019-10-13T18:36:11Z</time>
      </trkpt>
      <trkpt lat="47.06738" lon="2.53857">
        <ele>138.4</ele>
        <time>2019-10-13T18:36:15Z</time>
      </trkpt>
      <trkpt lat="47.06728" lon="2.53969">
        <ele>137.9</ele>
        <time>2019-10-13T18:36:35Z</time>
      </trkpt>
      <trkpt lat="47.06722" lon="2.54037">
        <ele>138</ele>
        <time>2019-10-13T18:36:48Z</time>
      </trkpt>
      <trkpt lat="47.0672" lon="2.54053">
        <ele>138.1</ele>
        <time>2019-10-13T18:36:51Z</time>
      </trkpt>
      <trkpt lat="47.06716" lon="2.54075">
        <ele>138.2</ele>
        <time>2019-10-13T18:36:55Z</time>
      </trkpt>
      <trkpt lat="47.06709" lon="2.5411">
        <ele>138.5</ele>
        <time>2019-10-13T18:37:02Z</time>
      </trkpt>
      <trkpt lat="47.06702" lon="2.54137">
        <ele>138</ele>
        <time>2019-10-13T18:37:07Z</time>
      </trkpt>
      <trkpt lat="47.067" lon="2.54152">
        <ele>138</ele>
        <time>2019-10-13T18:37:10Z</time>
      </trkpt>
      <trkpt lat="47.06699" lon="2.54167">
        <ele>138</ele>
        <time>2019-10-13T18:37:13Z</time>
      </trkpt>
      <trkpt lat="47.06698" lon="2.54188">
        <ele>138</ele>
        <time>2019-10-13T18:37:17Z</time>
      </trkpt>
      <trkpt lat="47.06698" lon="2.5424">
        <ele>138</ele>
        <time>2019-10-13T18:37:26Z</time>
      </trkpt>
      <trkpt lat="47.067" lon="2.54272">
        <ele>138</ele>
        <time>2019-10-13T18:37:32Z</time>
      </trkpt>
      <trkpt lat="47.06702" lon="2.54288">
        <ele>138.3</ele>
        <time>2019-10-13T18:37:35Z</time>
      </trkpt>
      <trkpt lat="47.06707" lon="2.54327">
        <ele>138.5</ele>
        <time>2019-10-13T18:37:42Z</time>
      </trkpt>
      <trkpt lat="47.06709" lon="2.5435">
        <ele>138.8</ele>
        <time>2019-10-13T18:37:46Z</time>
      </trkpt>
      <trkpt lat="47.06709" lon="2.54368">
        <ele>139</ele>
        <time>2019-10-13T18:37:49Z</time>
      </trkpt>
      <trkpt lat="47.06706" lon="2.54392">
        <ele>139</ele>
        <time>2019-10-13T18:37:54Z</time>
      </trkpt>
      <trkpt lat="47.06702" lon="2.54411">
        <ele>139</ele>
        <time>2019-10-13T18:37:58Z</time>
      </trkpt>
      <trkpt lat="47.06696" lon="2.54431">
        <ele>139.5</ele>
        <time>2019-10-13T18:38:01Z</time>
      </trkpt>
      <trkpt lat="47.06687" lon="2.54451">
        <ele>140.3</ele>
        <time>2019-10-13T18:38:06Z</time>
      </trkpt>
      <trkpt lat="47.06532" lon="2.54746">
        <ele>146.8</ele>
        <time>2019-10-13T18:39:14Z</time>
      </trkpt>
      <trkpt lat="47.0651" lon="2.5479">
        <ele>146.8</ele>
        <time>2019-10-13T18:39:23Z</time>
      </trkpt>
      <trkpt lat="47.065" lon="2.5481">
        <ele>146.8</ele>
        <time>2019-10-13T18:39:28Z</time>
      </trkpt>
      <trkpt lat="47.06488" lon="2.54829">
        <ele>146.2</ele>
        <time>2019-10-13T18:39:33Z</time>
      </trkpt>
      <trkpt lat="47.06475" lon="2.54845">
        <ele>146</ele>
        <time>2019-10-13T18:39:37Z</time>
      </trkpt>
      <trkpt lat="47.06457" lon="2.54862">
        <ele>146</ele>
        <time>2019-10-13T18:39:43Z</time>
      </trkpt>
      <trkpt lat="47.06443" lon="2.5487">
        <ele>146</ele>
        <time>2019-10-13T18:39:47Z</time>
      </trkpt>
      <trkpt lat="47.0642" lon="2.54881">
        <ele>145.4</ele>
        <time>2019-10-13T18:39:54Z</time>
      </trkpt>
      <trkpt lat="47.06243" lon="2.54951">
        <ele>148.3</ele>
        <time>2019-10-13T18:40:43Z</time>
      </trkpt>
      <trkpt lat="47.05866" lon="2.55099">
        <ele>144.6</ele>
        <time>2019-10-13T18:42:27Z</time>
      </trkpt>
      <trkpt lat="47.05759" lon="2.55145">
        <ele>141.7</ele>
        <time>2019-10-13T18:42:57Z</time>
      </trkpt>
      <trkpt lat="47.05741" lon="2.55154">
        <ele>142.3</ele>
        <time>2019-10-13T18:43:02Z</time>
      </trkpt>
      <trkpt lat="47.05726" lon="2.55164">
        <ele>142.9</ele>
        <time>2019-10-13T18:43:06Z</time>
      </trkpt>
      <trkpt lat="47.05519" lon="2.55314">
        <ele>143</ele>
        <time>2019-10-13T18:44:08Z</time>
      </trkpt>
      <trkpt lat="47.05502" lon="2.55326">
        <ele>143.2</ele>
        <time>2019-10-13T18:44:13Z</time>
      </trkpt>
      <trkpt lat="47.05451" lon="2.55357">
        <ele>143</ele>
        <time>2019-10-13T18:44:28Z</time>
      </trkpt>
      <trkpt lat="47.05442" lon="2.55365">
        <ele>143</ele>
        <time>2019-10-13T18:44:30Z</time>
      </trkpt>
      <trkpt lat="47.05433" lon="2.55375">
        <ele>143.1</ele>
        <time>2019-10-13T18:44:33Z</time>
      </trkpt>
      <trkpt lat="47.05424" lon="2.55386">
        <ele>143.5</ele>
        <time>2019-10-13T18:44:36Z</time>
      </trkpt>
      <trkpt lat="47.05406" lon="2.55418">
        <ele>143</ele>
        <time>2019-10-13T18:44:44Z</time>
      </trkpt>
      <trkpt lat="47.05389" lon="2.55454">
        <ele>142.7</ele>
        <time>2019-10-13T18:44:52Z</time>
      </trkpt>
      <trkpt lat="47.05382" lon="2.55466">
        <ele>142.4</ele>
        <time>2019-10-13T18:44:55Z</time>
      </trkpt>
      <trkpt lat="47.05284" lon="2.556">
        <ele>141.9</ele>
        <time>2019-10-13T18:45:31Z</time>
      </trkpt>
      <trkpt lat="47.05215" lon="2.5568">
        <ele>141.6</ele>
        <time>2019-10-13T18:45:54Z</time>
      </trkpt>
      <trkpt lat="47.05174" lon="2.55735">
        <ele>141.9</ele>
        <time>2019-10-13T18:46:09Z</time>
      </trkpt>
      <trkpt lat="47.05084" lon="2.5587">
        <ele>142</ele>
        <time>2019-10-13T18:46:43Z</time>
      </trkpt>
      <trkpt lat="47.04855" lon="2.56195">
        <ele>142.2</ele>
        <time>2019-10-13T18:48:09Z</time>
      </trkpt>
      <trkpt lat="47.04833" lon="2.56229">
        <ele>142.8</ele>
        <time>2019-10-13T18:48:17Z</time>
      </trkpt>
      <trkpt lat="47.04823" lon="2.56251">
        <ele>142.4</ele>
        <time>2019-10-13T18:48:22Z</time>
      </trkpt>
      <trkpt lat="47.04811" lon="2.56272">
        <ele>142.8</ele>
        <time>2019-10-13T18:48:27Z</time>
      </trkpt>
      <trkpt lat="47.04742" lon="2.56349">
        <ele>143</ele>
        <time>2019-10-13T18:48:50Z</time>
      </trkpt>
      <trkpt lat="47.04732" lon="2.56358">
        <ele>143</ele>
        <time>2019-10-13T18:48:53Z</time>
      </trkpt>
      <trkpt lat="47.04699" lon="2.56381">
        <ele>143</ele>
        <time>2019-10-13T18:49:03Z</time>
      </trkpt>
      <trkpt lat="47.04658" lon="2.56415">
        <ele>143</ele>
        <time>2019-10-13T18:49:15Z</time>
      </trkpt>
      <trkpt lat="47.04638" lon="2.56423">
        <ele>143</ele>
        <time>2019-10-13T18:49:21Z</time>
      </trkpt>
      <trkpt lat="47.04527" lon="2.56338">
        <ele>143</ele>
        <time>2019-10-13T18:49:54Z</time>
      </trkpt>
      <trkpt lat="47.0449" lon="2.56309">
        <ele>143.5</ele>
        <time>2019-10-13T18:50:06Z</time>
      </trkpt>
      <trkpt lat="47.04481" lon="2.56297">
        <ele>143.5</ele>
        <time>2019-10-13T18:50:09Z</time>
      </trkpt>
      <trkpt lat="47.0446" lon="2.56258">
        <ele>144</ele>
        <time>2019-10-13T18:50:18Z</time>
      </trkpt>
      <trkpt lat="47.04449" lon="2.56241">
        <ele>144.1</ele>
        <time>2019-10-13T18:50:22Z</time>
      </trkpt>
      <trkpt lat="47.04452" lon="2.56232">
        <ele>144.2</ele>
        <time>2019-10-13T18:50:24Z</time>
      </trkpt>
      <trkpt lat="47.04443" lon="2.56225">
        <ele>144</ele>
        <time>2019-10-13T18:50:27Z</time>
      </trkpt>
      <trkpt lat="47.04432" lon="2.56215">
        <ele>144.1</ele>
        <time>2019-10-13T18:50:30Z</time>
      </trkpt>
      <trkpt lat="47.04411" lon="2.56207">
        <ele>143.7</ele>
        <time>2019-10-13T18:50:36Z</time>
      </trkpt>
      <trkpt lat="47.04396" lon="2.56204">
        <ele>143</ele>
        <time>2019-10-13T18:50:40Z</time>
      </trkpt>
      <trkpt lat="47.04384" lon="2.5619">
        <ele>143.1</ele>
        <time>2019-10-13T18:50:44Z</time>
      </trkpt>
      <trkpt lat="47.04351" lon="2.56147">
        <ele>143.5</ele>
        <time>2019-10-13T18:50:56Z</time>
      </trkpt>
      <trkpt lat="47.04273" lon="2.56037">
        <ele>143.6</ele>
        <time>2019-10-13T18:51:25Z</time>
      </trkpt>
      <trkpt lat="47.04175" lon="2.55897">
        <ele>143.9</ele>
        <time>2019-10-13T18:52:01Z</time>
      </trkpt>
      <trkpt lat="47.04091" lon="2.55778">
        <ele>144.3</ele>
        <time>2019-10-13T18:52:33Z</time>
      </trkpt>
      <trkpt lat="47.04142" lon="2.55711">
        <ele>147.1</ele>
        <time>2019-10-13T18:52:51Z</time>
      </trkpt>
      <trkpt lat="47.04122" lon="2.55682">
        <ele>146.8</ele>
        <time>2019-10-13T18:52:58Z</time>
      </trkpt>
      <trkpt lat="47.04071" lon="2.55573">
        <ele>145.9</ele>
        <time>2019-10-13T18:53:22Z</time>
      </trkpt>
      <trkpt lat="47.04065" lon="2.55558">
        <ele>146.3</ele>
        <time>2019-10-13T18:53:26Z</time>
      </trkpt>
      <trkpt lat="47.03958" lon="2.55389">
        <ele>147.5</ele>
        <time>2019-10-13T18:54:08Z</time>
      </trkpt>
      <trkpt lat="47.03854" lon="2.55226">
        <ele>147.7</ele>
        <time>2019-10-13T18:54:48Z</time>
      </trkpt>
      <trkpt lat="47.03823" lon="2.55178">
        <ele>147.2</ele>
        <time>2019-10-13T18:55:00Z</time>
      </trkpt>
      <trkpt lat="47.03648" lon="2.54903">
        <ele>152.7</ele>
        <time>2019-10-13T18:56:09Z</time>
      </trkpt>
      <trkpt lat="47.0363" lon="2.54873">
        <ele>153.5</ele>
        <time>2019-10-13T18:56:16Z</time>
      </trkpt>
      <trkpt lat="47.03623" lon="2.54856">
        <ele>154.1</ele>
        <time>2019-10-13T18:56:20Z</time>
      </trkpt>
      <trkpt lat="47.03553" lon="2.54611">
        <ele>158.1</ele>
        <time>2019-10-13T18:57:08Z</time>
      </trkpt>
      <trkpt lat="47.0353" lon="2.54562">
        <ele>158.9</ele>
        <time>2019-10-13T18:57:19Z</time>
      </trkpt>
      <trkpt lat="47.03492" lon="2.5452">
        <ele>159.5</ele>
        <time>2019-10-13T18:57:32Z</time>
      </trkpt>
      <trkpt lat="47.03441" lon="2.54473">
        <ele>161.1</ele>
        <time>2019-10-13T18:57:48Z</time>
      </trkpt>
      <trkpt lat="47.03403" lon="2.5444">
        <ele>162</ele>
        <time>2019-10-13T18:57:59Z</time>
      </trkpt>
      <trkpt lat="47.03372" lon="2.54415">
        <ele>162</ele>
        <time>2019-10-13T18:58:09Z</time>
      </trkpt>
      <trkpt lat="47.03322" lon="2.54384">
        <ele>161.6</ele>
        <time>2019-10-13T18:58:23Z</time>
      </trkpt>
      <trkpt lat="47.03275" lon="2.54361">
        <ele>160</ele>
        <time>2019-10-13T18:58:37Z</time>
      </trkpt>
      <trkpt lat="47.03191" lon="2.54343">
        <ele>160.7</ele>
        <time>2019-10-13T18:58:59Z</time>
      </trkpt>
      <trkpt lat="47.02936" lon="2.54289">
        <ele>162</ele>
        <time>2019-10-13T19:00:08Z</time>
      </trkpt>
      <trkpt lat="47.02833" lon="2.54264">
        <ele>160.5</ele>
        <time>2019-10-13T19:00:36Z</time>
      </trkpt>
      <trkpt lat="47.02766" lon="2.54387">
        <ele>157.6</ele>
        <time>2019-10-13T19:01:05Z</time>
      </trkpt>
      <trkpt lat="47.02752" lon="2.54418">
        <ele>156.1</ele>
        <time>2019-10-13T19:01:12Z</time>
      </trkpt>
      <trkpt lat="47.02709" lon="2.54556">
        <ele>152</ele>
        <time>2019-10-13T19:01:39Z</time>
      </trkpt>
      <trkpt lat="47.02588" lon="2.54949">
        <ele>154.7</ele>
        <time>2019-10-13T19:02:58Z</time>
      </trkpt>
      <trkpt lat="47.02408" lon="2.55535">
        <ele>156.3</ele>
        <time>2019-10-13T19:04:55Z</time>
      </trkpt>
      <trkpt lat="47.0239" lon="2.55595">
        <ele>158</ele>
        <time>2019-10-13T19:05:07Z</time>
      </trkpt>
      <trkpt lat="47.02382" lon="2.55626">
        <ele>158.5</ele>
        <time>2019-10-13T19:05:13Z</time>
      </trkpt>
      <trkpt lat="47.02375" lon="2.55658">
        <ele>159</ele>
        <time>2019-10-13T19:05:19Z</time>
      </trkpt>
      <trkpt lat="47.02368" lon="2.55686">
        <ele>159</ele>
        <time>2019-10-13T19:05:24Z</time>
      </trkpt>
      <trkpt lat="47.02349" lon="2.55742">
        <ele>159</ele>
        <time>2019-10-13T19:05:36Z</time>
      </trkpt>
      <trkpt lat="47.02336" lon="2.55779">
        <ele>159</ele>
        <time>2019-10-13T19:05:43Z</time>
      </trkpt>
      <trkpt lat="47.02146" lon="2.56386">
        <ele>161</ele>
        <time>2019-10-13T19:07:45Z</time>
      </trkpt>
      <trkpt lat="47.02056" lon="2.5668">
        <ele>162</ele>
        <time>2019-10-13T19:08:44Z</time>
      </trkpt>
      <trkpt lat="47.02051" lon="2.56702">
        <ele>161.7</ele>
        <time>2019-10-13T19:08:48Z</time>
      </trkpt>
      <trkpt lat="47.02012" lon="2.57069">
        <ele>149.8</ele>
        <time>2019-10-13T19:09:55Z</time>
      </trkpt>
      <trkpt lat="47.0201" lon="2.57096">
        <ele>146.7</ele>
        <time>2019-10-13T19:10:00Z</time>
      </trkpt>
      <trkpt lat="47.02007" lon="2.57131">
        <ele>146</ele>
        <time>2019-10-13T19:10:07Z</time>
      </trkpt>
      <trkpt lat="47.01994" lon="2.57235">
        <ele>147.2</ele>
        <time>2019-10-13T19:10:26Z</time>
      </trkpt>
      <trkpt lat="47.01898" lon="2.57741">
        <ele>148.5</ele>
        <time>2019-10-13T19:12:02Z</time>
      </trkpt>
      <trkpt lat="47.01882" lon="2.57822">
        <ele>148.9</ele>
        <time>2019-10-13T19:12:17Z</time>
      </trkpt>
      <trkpt lat="47.01872" lon="2.57858">
        <ele>148.2</ele>
        <time>2019-10-13T19:12:24Z</time>
      </trkpt>
      <trkpt lat="47.01858" lon="2.57889">
        <ele>146.9</ele>
        <time>2019-10-13T19:12:31Z</time>
      </trkpt>
      <trkpt lat="47.0175" lon="2.58103">
        <ele>147.7</ele>
        <time>2019-10-13T19:13:20Z</time>
      </trkpt>
      <trkpt lat="47.01486" lon="2.58629">
        <ele>160.5</ele>
        <time>2019-10-13T19:15:18Z</time>
      </trkpt>
      <trkpt lat="47.01478" lon="2.58638">
        <ele>160.8</ele>
        <time>2019-10-13T19:15:21Z</time>
      </trkpt>
      <trkpt lat="47.01471" lon="2.58655">
        <ele>161.6</ele>
        <time>2019-10-13T19:15:25Z</time>
      </trkpt>
      <trkpt lat="47.0141" lon="2.58826">
        <ele>166.6</ele>
        <time>2019-10-13T19:16:00Z</time>
      </trkpt>
      <trkpt lat="47.01286" lon="2.59168">
        <ele>163.3</ele>
        <time>2019-10-13T19:17:11Z</time>
      </trkpt>
      <trkpt lat="47.01263" lon="2.59233">
        <ele>162.5</ele>
        <time>2019-10-13T19:17:24Z</time>
      </trkpt>
      <trkpt lat="47.01022" lon="2.59951">
        <ele>170.2</ele>
        <time>2019-10-13T19:19:50Z</time>
      </trkpt>
      <trkpt lat="47.00917" lon="2.60257">
        <ele>177</ele>
        <time>2019-10-13T19:20:52Z</time>
      </trkpt>
      <trkpt lat="47.00868" lon="2.60351">
        <ele>178</ele>
        <time>2019-10-13T19:21:14Z</time>
      </trkpt>
      <trkpt lat="47.00627" lon="2.61116">
        <ele>177</ele>
        <time>2019-10-13T19:23:47Z</time>
      </trkpt>
      <trkpt lat="47.00379" lon="2.61903">
        <ele>177</ele>
        <time>2019-10-13T19:26:25Z</time>
      </trkpt>
      <trkpt lat="47.00365" lon="2.61947">
        <ele>177.9</ele>
        <time>2019-10-13T19:26:34Z</time>
      </trkpt>
      <trkpt lat="47.0015" lon="2.62635">
        <ele>178</ele>
        <time>2019-10-13T19:28:52Z</time>
      </trkpt>
      <trkpt lat="47.00002" lon="2.63104">
        <ele>180</ele>
        <time>2019-10-13T19:30:26Z</time>
      </trkpt>
      <trkpt lat="46.99735" lon="2.6396">
        <ele>184.5</ele>
        <time>2019-10-13T19:33:18Z</time>
      </trkpt>
      <trkpt lat="46.99607" lon="2.64362">
        <ele>185</ele>
        <time>2019-10-13T19:34:38Z</time>
      </trkpt>
      <trkpt lat="46.99601" lon="2.64356">
        <ele>185.1</ele>
        <time>2019-10-13T19:34:40Z</time>
      </trkpt>
      <trkpt lat="46.99573" lon="2.64322">
        <ele>185.3</ele>
        <time>2019-10-13T19:34:50Z</time>
      </trkpt>
      <trkpt lat="46.9954" lon="2.64288">
        <ele>185</ele>
        <time>2019-10-13T19:35:01Z</time>
      </trkpt>
      <trkpt lat="46.99512" lon="2.64262">
        <ele>184.4</ele>
        <time>2019-10-13T19:35:10Z</time>
      </trkpt>
      <trkpt lat="46.99472" lon="2.64228">
        <ele>184</ele>
        <time>2019-10-13T19:35:22Z</time>
      </trkpt>
      <trkpt lat="46.99446" lon="2.64213">
        <ele>183.1</ele>
        <time>2019-10-13T19:35:29Z</time>
      </trkpt>
      <trkpt lat="46.9942" lon="2.64202">
        <ele>183</ele>
        <time>2019-10-13T19:35:37Z</time>
      </trkpt>
      <trkpt lat="46.99385" lon="2.64189">
        <ele>181.9</ele>
        <time>2019-10-13T19:35:46Z</time>
      </trkpt>
      <trkpt lat="46.99352" lon="2.6417">
        <ele>181</ele>
        <time>2019-10-13T19:35:56Z</time>
      </trkpt>
      <trkpt lat="46.99323" lon="2.64153">
        <ele>181</ele>
        <time>2019-10-13T19:36:04Z</time>
      </trkpt>
      <trkpt lat="46.99297" lon="2.64144">
        <ele>181.1</ele>
        <time>2019-10-13T19:36:11Z</time>
      </trkpt>
      <trkpt lat="46.99271" lon="2.64141">
        <ele>181.3</ele>
        <time>2019-10-13T19:36:18Z</time>
      </trkpt>
      <trkpt lat="46.99205" lon="2.64129">
        <ele>181.2</ele>
        <time>2019-10-13T19:36:36Z</time>
      </trkpt>
      <trkpt lat="46.9914" lon="2.6412">
        <ele>181</ele>
        <time>2019-10-13T19:36:53Z</time>
      </trkpt>
      <trkpt lat="46.99107" lon="2.64112">
        <ele>181</ele>
        <time>2019-10-13T19:37:02Z</time>
      </trkpt>
      <trkpt lat="46.99057" lon="2.64097">
        <ele>181</ele>
        <time>2019-10-13T19:37:16Z</time>
      </trkpt>
      <trkpt lat="46.9902" lon="2.64082">
        <ele>182</ele>
        <time>2019-10-13T19:37:26Z</time>
      </trkpt>
      <trkpt lat="46.98995" lon="2.64075">
        <ele>182</ele>
        <time>2019-10-13T19:37:33Z</time>
      </trkpt>
      <trkpt lat="46.9897" lon="2.64077">
        <ele>182</ele>
        <time>2019-10-13T19:37:40Z</time>
      </trkpt>
      <trkpt lat="46.9895" lon="2.6409">
        <ele>182</ele>
        <time>2019-10-13T19:37:46Z</time>
      </trkpt>
      <trkpt lat="46.98919" lon="2.64116">
        <ele>182</ele>
        <time>2019-10-13T19:37:55Z</time>
      </trkpt>
      <trkpt lat="46.98889" lon="2.6414">
        <ele>182</ele>
        <time>2019-10-13T19:38:04Z</time>
      </trkpt>
      <trkpt lat="46.98853" lon="2.6415">
        <ele>182</ele>
        <time>2019-10-13T19:38:14Z</time>
      </trkpt>
      <trkpt lat="46.98826" lon="2.64155">
        <ele>181.9</ele>
        <time>2019-10-13T19:38:21Z</time>
      </trkpt>
      <trkpt lat="46.98783" lon="2.64163">
        <ele>181.9</ele>
        <time>2019-10-13T19:38:33Z</time>
      </trkpt>
      <trkpt lat="46.98696" lon="2.6418">
        <ele>181.5</ele>
        <time>2019-10-13T19:38:56Z</time>
      </trkpt>
      <trkpt lat="46.98673" lon="2.64182">
        <ele>181.1</ele>
        <time>2019-10-13T19:39:03Z</time>
      </trkpt>
      <trkpt lat="46.98606" lon="2.64188">
        <ele>179.7</ele>
        <time>2019-10-13T19:39:21Z</time>
      </trkpt>
      <trkpt lat="46.98566" lon="2.64191">
        <ele>178</ele>
        <time>2019-10-13T19:39:31Z</time>
      </trkpt>
      <trkpt lat="46.98542" lon="2.64269">
        <ele>176.4</ele>
        <time>2019-10-13T19:39:47Z</time>
      </trkpt>
      <trkpt lat="46.98535" lon="2.64292">
        <ele>176.8</ele>
        <time>2019-10-13T19:39:51Z</time>
      </trkpt>
      <trkpt lat="46.98515" lon="2.64294">
        <ele>174.7</ele>
        <time>2019-10-13T19:39:57Z</time>
      </trkpt>
      <trkpt lat="46.98499" lon="2.643">
        <ele>172.7</ele>
        <time>2019-10-13T19:40:01Z</time>
      </trkpt>
      <trkpt lat="46.98481" lon="2.64319">
        <ele>171.2</ele>
        <time>2019-10-13T19:40:07Z</time>
      </trkpt>
      <trkpt lat="46.98452" lon="2.64341">
        <ele>169.4</ele>
        <time>2019-10-13T19:40:16Z</time>
      </trkpt>
      <trkpt lat="46.98352" lon="2.64375">
        <ele>167.3</ele>
        <time>2019-10-13T19:40:43Z</time>
      </trkpt>
      <trkpt lat="46.98344" lon="2.64381">
        <ele>167.3</ele>
        <time>2019-10-13T19:40:46Z</time>
      </trkpt>
      <trkpt lat="46.98323" lon="2.64351">
        <ele>167</ele>
        <time>2019-10-13T19:40:53Z</time>
      </trkpt>
      <trkpt lat="46.98316" lon="2.64342">
        <ele>167</ele>
        <time>2019-10-13T19:40:56Z</time>
      </trkpt>
      <trkpt lat="46.98298" lon="2.64318">
        <ele>166.9</ele>
        <time>2019-10-13T19:41:02Z</time>
      </trkpt>
      <trkpt lat="46.98282" lon="2.643">
        <ele>167.2</ele>
        <time>2019-10-13T19:41:08Z</time>
      </trkpt>
      <trkpt lat="46.98273" lon="2.64291">
        <ele>167.5</ele>
        <time>2019-10-13T19:41:11Z</time>
      </trkpt>
      <trkpt lat="46.98263" lon="2.64284">
        <ele>167.8</ele>
        <time>2019-10-13T19:41:14Z</time>
      </trkpt>
      <trkpt lat="46.98254" lon="2.6428">
        <ele>167.9</ele>
        <time>2019-10-13T19:41:16Z</time>
      </trkpt>
      <trkpt lat="46.98242" lon="2.64276">
        <ele>168.4</ele>
        <time>2019-10-13T19:41:20Z</time>
      </trkpt>
      <trkpt lat="46.98201" lon="2.64264">
        <ele>170.3</ele>
        <time>2019-10-13T19:41:31Z</time>
      </trkpt>
      <trkpt lat="46.98121" lon="2.64249">
        <ele>173.6</ele>
        <time>2019-10-13T19:41:52Z</time>
      </trkpt>
      <trkpt lat="46.98029" lon="2.6423">
        <ele>177</ele>
        <time>2019-10-13T19:42:17Z</time>
      </trkpt>
      <trkpt lat="46.97938" lon="2.64215">
        <ele>179</ele>
        <time>2019-10-13T19:42:42Z</time>
      </trkpt>
      <trkpt lat="46.97622" lon="2.64159">
        <ele>180.8</ele>
        <time>2019-10-13T19:44:07Z</time>
      </trkpt>
      <trkpt lat="46.97577" lon="2.64148">
        <ele>181</ele>
        <time>2019-10-13T19:44:19Z</time>
      </trkpt>
      <trkpt lat="46.97529" lon="2.64131">
        <ele>181.7</ele>
        <time>2019-10-13T19:44:32Z</time>
      </trkpt>
      <trkpt lat="46.97482" lon="2.6411">
        <ele>182</ele>
        <time>2019-10-13T19:44:45Z</time>
      </trkpt>
      <trkpt lat="46.97438" lon="2.64082">
        <ele>182</ele>
        <time>2019-10-13T19:44:58Z</time>
      </trkpt>
      <trkpt lat="46.97427" lon="2.6407">
        <ele>182</ele>
        <time>2019-10-13T19:45:02Z</time>
      </trkpt>
      <trkpt lat="46.97397" lon="2.64041">
        <ele>181.5</ele>
        <time>2019-10-13T19:45:11Z</time>
      </trkpt>
      <trkpt lat="46.97321" lon="2.63968">
        <ele>181.9</ele>
        <time>2019-10-13T19:45:35Z</time>
      </trkpt>
      <trkpt lat="46.97266" lon="2.63914">
        <ele>182.4</ele>
        <time>2019-10-13T19:45:53Z</time>
      </trkpt>
      <trkpt lat="46.97221" lon="2.63874">
        <ele>182</ele>
        <time>2019-10-13T19:46:07Z</time>
      </trkpt>
      <trkpt lat="46.97174" lon="2.63828">
        <ele>182</ele>
        <time>2019-10-13T19:46:22Z</time>
      </trkpt>
      <trkpt lat="46.97133" lon="2.63792">
        <ele>181.9</ele>
        <time>2019-10-13T19:46:35Z</time>
      </trkpt>
      <trkpt lat="46.97095" lon="2.63766">
        <ele>181</ele>
        <time>2019-10-13T19:46:46Z</time>
      </trkpt>
      <trkpt lat="46.97041" lon="2.63726">
        <ele>179.5</ele>
        <time>2019-10-13T19:47:02Z</time>
      </trkpt>
      <trkpt lat="46.96955" lon="2.63661">
        <ele>179.6</ele>
        <time>2019-10-13T19:47:28Z</time>
      </trkpt>
      <trkpt lat="46.96843" lon="2.63584">
        <ele>180</ele>
        <time>2019-10-13T19:48:01Z</time>
      </trkpt>
      <trkpt lat="46.96754" lon="2.6352">
        <ele>180</ele>
        <time>2019-10-13T19:48:28Z</time>
      </trkpt>
      <trkpt lat="46.96714" lon="2.63492">
        <ele>179.9</ele>
        <time>2019-10-13T19:48:40Z</time>
      </trkpt>
      <trkpt lat="46.9665" lon="2.63453">
        <ele>179.7</ele>
        <time>2019-10-13T19:48:58Z</time>
      </trkpt>
      <trkpt lat="46.96577" lon="2.63406">
        <ele>180</ele>
        <time>2019-10-13T19:49:19Z</time>
      </trkpt>
      <trkpt lat="46.96542" lon="2.63385">
        <ele>180</ele>
        <time>2019-10-13T19:49:30Z</time>
      </trkpt>
      <trkpt lat="46.96483" lon="2.63356">
        <ele>179.3</ele>
        <time>2019-10-13T19:49:46Z</time>
      </trkpt>
      <trkpt lat="46.96416" lon="2.63324">
        <ele>179</ele>
        <time>2019-10-13T19:50:05Z</time>
      </trkpt>
      <trkpt lat="46.96372" lon="2.63302">
        <ele>180</ele>
        <time>2019-10-13T19:50:17Z</time>
      </trkpt>
      <trkpt lat="46.96316" lon="2.63279">
        <ele>181</ele>
        <time>2019-10-13T19:50:33Z</time>
      </trkpt>
      <trkpt lat="46.96235" lon="2.63246">
        <ele>181</ele>
        <time>2019-10-13T19:50:55Z</time>
      </trkpt>
      <trkpt lat="46.95991" lon="2.63147">
        <ele>182</ele>
        <time>2019-10-13T19:52:03Z</time>
      </trkpt>
      <trkpt lat="46.9594" lon="2.6312">
        <ele>182</ele>
        <time>2019-10-13T19:52:18Z</time>
      </trkpt>
      <trkpt lat="46.95911" lon="2.63101">
        <ele>182</ele>
        <time>2019-10-13T19:52:26Z</time>
      </trkpt>
      <trkpt lat="46.95861" lon="2.63061">
        <ele>182</ele>
        <time>2019-10-13T19:52:41Z</time>
      </trkpt>
      <trkpt lat="46.95823" lon="2.63031">
        <ele>181.6</ele>
        <time>2019-10-13T19:52:53Z</time>
      </trkpt>
      <trkpt lat="46.95776" lon="2.62996">
        <ele>179.9</ele>
        <time>2019-10-13T19:53:07Z</time>
      </trkpt>
      <trkpt lat="46.95765" lon="2.62985">
        <ele>179.5</ele>
        <time>2019-10-13T19:53:10Z</time>
      </trkpt>
      <trkpt lat="46.95699" lon="2.62904">
        <ele>176.2</ele>
        <time>2019-10-13T19:53:33Z</time>
      </trkpt>
      <trkpt lat="46.95679" lon="2.62883">
        <ele>175.4</ele>
        <time>2019-10-13T19:53:40Z</time>
      </trkpt>
      <trkpt lat="46.95641" lon="2.62845">
        <ele>175</ele>
        <time>2019-10-13T19:53:52Z</time>
      </trkpt>
      <trkpt lat="46.95586" lon="2.62795">
        <ele>176.9</ele>
        <time>2019-10-13T19:54:10Z</time>
      </trkpt>
      <trkpt lat="46.95542" lon="2.62759">
        <ele>178.5</ele>
        <time>2019-10-13T19:54:23Z</time>
      </trkpt>
      <trkpt lat="46.95487" lon="2.62822">
        <ele>179.7</ele>
        <time>2019-10-13T19:54:42Z</time>
      </trkpt>
      <trkpt lat="46.94554" lon="2.63815">
        <ele>186</ele>
        <time>2019-10-13T19:59:50Z</time>
      </trkpt>
      <trkpt lat="46.94537" lon="2.63833">
        <ele>186</ele>
        <time>2019-10-13T19:59:55Z</time>
      </trkpt>
      <trkpt lat="46.9432" lon="2.64062">
        <ele>187.9</ele>
        <time>2019-10-13T20:01:07Z</time>
      </trkpt>
      <trkpt lat="46.94301" lon="2.64084">
        <ele>187.2</ele>
        <time>2019-10-13T20:01:13Z</time>
      </trkpt>
      <trkpt lat="46.9428" lon="2.64063">
        <ele>188</ele>
        <time>2019-10-13T20:01:20Z</time>
      </trkpt>
      <trkpt lat="46.94246" lon="2.64033">
        <ele>187.2</ele>
        <time>2019-10-13T20:01:31Z</time>
      </trkpt>
      <trkpt lat="46.94225" lon="2.64019">
        <ele>187</ele>
        <time>2019-10-13T20:01:37Z</time>
      </trkpt>
      <trkpt lat="46.94211" lon="2.64012">
        <ele>187</ele>
        <time>2019-10-13T20:01:41Z</time>
      </trkpt>
      <trkpt lat="46.94201" lon="2.64008">
        <ele>187</ele>
        <time>2019-10-13T20:01:44Z</time>
      </trkpt>
      <trkpt lat="46.93867" lon="2.63887">
        <ele>185</ele>
        <time>2019-10-13T20:03:16Z</time>
      </trkpt>
      <trkpt lat="46.93844" lon="2.63887">
        <ele>185</ele>
        <time>2019-10-13T20:03:22Z</time>
      </trkpt>
      <trkpt lat="46.93813" lon="2.63896">
        <ele>184.3</ele>
        <time>2019-10-13T20:03:30Z</time>
      </trkpt>
      <trkpt lat="46.93741" lon="2.63916">
        <ele>184</ele>
        <time>2019-10-13T20:03:50Z</time>
      </trkpt>
      <trkpt lat="46.93728" lon="2.63922">
        <ele>183.8</ele>
        <time>2019-10-13T20:03:53Z</time>
      </trkpt>
      <trkpt lat="46.93718" lon="2.63931">
        <ele>183.4</ele>
        <time>2019-10-13T20:03:57Z</time>
      </trkpt>
      <trkpt lat="46.9371" lon="2.63941">
        <ele>183.1</ele>
        <time>2019-10-13T20:03:59Z</time>
      </trkpt>
      <trkpt lat="46.93704" lon="2.63953">
        <ele>183</ele>
        <time>2019-10-13T20:04:02Z</time>
      </trkpt>
      <trkpt lat="46.93697" lon="2.63967">
        <ele>183</ele>
        <time>2019-10-13T20:04:05Z</time>
      </trkpt>
      <trkpt lat="46.93611" lon="2.64149">
        <ele>183</ele>
        <time>2019-10-13T20:04:46Z</time>
      </trkpt>
      <trkpt lat="46.93373" lon="2.64666">
        <ele>182.4</ele>
        <time>2019-10-13T20:06:39Z</time>
      </trkpt>
      <trkpt lat="46.93365" lon="2.64689">
        <ele>181.4</ele>
        <time>2019-10-13T20:06:44Z</time>
      </trkpt>
      <trkpt lat="46.9336" lon="2.64707">
        <ele>181</ele>
        <time>2019-10-13T20:06:48Z</time>
      </trkpt>
      <trkpt lat="46.93357" lon="2.64723">
        <ele>181</ele>
        <time>2019-10-13T20:06:51Z</time>
      </trkpt>
      <trkpt lat="46.93356" lon="2.64746">
        <ele>180.8</ele>
        <time>2019-10-13T20:06:55Z</time>
      </trkpt>
      <trkpt lat="46.93357" lon="2.6477">
        <ele>180.2</ele>
        <time>2019-10-13T20:06:59Z</time>
      </trkpt>
      <trkpt lat="46.93388" lon="2.65144">
        <ele>171</ele>
        <time>2019-10-13T20:08:08Z</time>
      </trkpt>
      <trkpt lat="46.9339" lon="2.65168">
        <ele>171</ele>
        <time>2019-10-13T20:08:12Z</time>
      </trkpt>
      <trkpt lat="46.93394" lon="2.65197">
        <ele>170.1</ele>
        <time>2019-10-13T20:08:18Z</time>
      </trkpt>
      <trkpt lat="46.93399" lon="2.65223">
        <ele>169.3</ele>
        <time>2019-10-13T20:08:23Z</time>
      </trkpt>
      <trkpt lat="46.93408" lon="2.6525">
        <ele>169.4</ele>
        <time>2019-10-13T20:08:28Z</time>
      </trkpt>
      <trkpt lat="46.93424" lon="2.65302">
        <ele>170</ele>
        <time>2019-10-13T20:08:39Z</time>
      </trkpt>
      <trkpt lat="46.93426" lon="2.65315">
        <ele>169.5</ele>
        <time>2019-10-13T20:08:41Z</time>
      </trkpt>
      <trkpt lat="46.93427" lon="2.65321">
        <ele>169.3</ele>
        <time>2019-10-13T20:08:42Z</time>
      </trkpt>
      <trkpt lat="46.9343" lon="2.65324">
        <ele>169.3</ele>
        <time>2019-10-13T20:08:43Z</time>
      </trkpt>
      <trkpt lat="46.93438" lon="2.6533">
        <ele>169.6</ele>
        <time>2019-10-13T20:08:46Z</time>
      </trkpt>
      <trkpt lat="46.93448" lon="2.65342">
        <ele>169.8</ele>
        <time>2019-10-13T20:08:49Z</time>
      </trkpt>
      <trkpt lat="46.93458" lon="2.65359">
        <ele>169.6</ele>
        <time>2019-10-13T20:08:53Z</time>
      </trkpt>
      <trkpt lat="46.93451" lon="2.65363">
        <ele>169.2</ele>
        <time>2019-10-13T20:08:55Z</time>
      </trkpt>
      <trkpt lat="46.93461" lon="2.6539">
        <ele>168.6</ele>
        <time>2019-10-13T20:09:01Z</time>
      </trkpt>
      <trkpt lat="46.93461" lon="2.65416">
        <ele>168</ele>
        <time>2019-10-13T20:09:05Z</time>
      </trkpt>
      <trkpt lat="46.9347" lon="2.65417">
        <ele>168</ele>
        <time>2019-10-13T20:09:08Z</time>
      </trkpt>
      <trkpt lat="46.9347" lon="2.6542">
        <ele>168</ele>
        <time>2019-10-13T20:09:08Z</time>
      </trkpt>
      <trkpt lat="46.93469" lon="2.65452">
        <ele>168</ele>
        <time>2019-10-13T20:09:14Z</time>
      </trkpt>
      <trkpt lat="46.93466" lon="2.65451">
        <ele>168</ele>
        <time>2019-10-13T20:09:15Z</time>
      </trkpt>
      <trkpt lat="46.93462" lon="2.65455">
        <ele>168</ele>
        <time>2019-10-13T20:09:16Z</time>
      </trkpt>
      <trkpt lat="46.93417" lon="2.655">
        <ele>168</ele>
        <time>2019-10-13T20:09:31Z</time>
      </trkpt>
      <trkpt lat="46.93412" lon="2.65508">
        <ele>168</ele>
        <time>2019-10-13T20:09:33Z</time>
      </trkpt>
      <trkpt lat="46.93408" lon="2.65517">
        <ele>167.8</ele>
        <time>2019-10-13T20:09:35Z</time>
      </trkpt>
      <trkpt lat="46.93398" lon="2.65546">
        <ele>167.5</ele>
        <time>2019-10-13T20:09:41Z</time>
      </trkpt>
      <trkpt lat="46.93395" lon="2.65561">
        <ele>167.6</ele>
        <time>2019-10-13T20:09:44Z</time>
      </trkpt>
      <trkpt lat="46.93392" lon="2.65576">
        <ele>167.9</ele>
        <time>2019-10-13T20:09:47Z</time>
      </trkpt>
      <trkpt lat="46.9339" lon="2.65595">
        <ele>168</ele>
        <time>2019-10-13T20:09:50Z</time>
      </trkpt>
      <trkpt lat="46.93381" lon="2.65682">
        <ele>167.7</ele>
        <time>2019-10-13T20:10:06Z</time>
      </trkpt>
      <trkpt lat="46.93377" lon="2.65717">
        <ele>167.6</ele>
        <time>2019-10-13T20:10:13Z</time>
      </trkpt>
      <trkpt lat="46.93377" lon="2.65745">
        <ele>167.6</ele>
        <time>2019-10-13T20:10:18Z</time>
      </trkpt>
      <trkpt lat="46.93371" lon="2.6577">
        <ele>167.8</ele>
        <time>2019-10-13T20:10:22Z</time>
      </trkpt>
      <trkpt lat="46.93364" lon="2.65791">
        <ele>168</ele>
        <time>2019-10-13T20:10:27Z</time>
      </trkpt>
      <trkpt lat="46.9335" lon="2.65826">
        <ele>167.6</ele>
        <time>2019-10-13T20:10:34Z</time>
      </trkpt>
      <trkpt lat="46.93324" lon="2.6588">
        <ele>167.9</ele>
        <time>2019-10-13T20:10:46Z</time>
      </trkpt>
      <trkpt lat="46.93319" lon="2.6589">
        <ele>168</ele>
        <time>2019-10-13T20:10:48Z</time>
      </trkpt>
      <trkpt lat="46.9331" lon="2.65901">
        <ele>168.4</ele>
        <time>2019-10-13T20:10:52Z</time>
      </trkpt>
      <trkpt lat="46.93302" lon="2.65911">
        <ele>168.8</ele>
        <time>2019-10-13T20:10:54Z</time>
      </trkpt>
      <trkpt lat="46.9327" lon="2.65941">
        <ele>170.5</ele>
        <time>2019-10-13T20:11:05Z</time>
      </trkpt>
      <trkpt lat="46.93261" lon="2.65951">
        <ele>170.8</ele>
        <time>2019-10-13T20:11:08Z</time>
      </trkpt>
      <trkpt lat="46.93255" lon="2.6596">
        <ele>171.2</ele>
        <time>2019-10-13T20:11:10Z</time>
      </trkpt>
      <trkpt lat="46.93249" lon="2.65971">
        <ele>171.9</ele>
        <time>2019-10-13T20:11:12Z</time>
      </trkpt>
      <trkpt lat="46.93142" lon="2.66166">
        <ele>172.1</ele>
        <time>2019-10-13T20:11:58Z</time>
      </trkpt>
      <trkpt lat="46.92969" lon="2.66483">
        <ele>175.7</ele>
        <time>2019-10-13T20:13:12Z</time>
      </trkpt>
      <trkpt lat="46.92965" lon="2.66493">
        <ele>175.3</ele>
        <time>2019-10-13T20:13:14Z</time>
      </trkpt>
      <trkpt lat="46.92961" lon="2.66509">
        <ele>174.8</ele>
        <time>2019-10-13T20:13:17Z</time>
      </trkpt>
      <trkpt lat="46.92945" lon="2.66554">
        <ele>174</ele>
        <time>2019-10-13T20:13:27Z</time>
      </trkpt>
      <trkpt lat="46.92934" lon="2.66582">
        <ele>174</ele>
        <time>2019-10-13T20:13:32Z</time>
      </trkpt>
      <trkpt lat="46.92926" lon="2.66599">
        <ele>173.6</ele>
        <time>2019-10-13T20:13:36Z</time>
      </trkpt>
      <trkpt lat="46.92917" lon="2.66618">
        <ele>173.8</ele>
        <time>2019-10-13T20:13:40Z</time>
      </trkpt>
      <trkpt lat="46.92907" lon="2.66634">
        <ele>174</ele>
        <time>2019-10-13T20:13:44Z</time>
      </trkpt>
      <trkpt lat="46.92897" lon="2.66647">
        <ele>173.9</ele>
        <time>2019-10-13T20:13:48Z</time>
      </trkpt>
      <trkpt lat="46.92884" lon="2.6666">
        <ele>173.9</ele>
        <time>2019-10-13T20:13:52Z</time>
      </trkpt>
      <trkpt lat="46.92876" lon="2.66668">
        <ele>174.2</ele>
        <time>2019-10-13T20:13:55Z</time>
      </trkpt>
      <trkpt lat="46.92807" lon="2.66725">
        <ele>172.5</ele>
        <time>2019-10-13T20:14:16Z</time>
      </trkpt>
      <trkpt lat="46.92791" lon="2.66741">
        <ele>172.6</ele>
        <time>2019-10-13T20:14:21Z</time>
      </trkpt>
      <trkpt lat="46.92779" lon="2.66755">
        <ele>172.5</ele>
        <time>2019-10-13T20:14:25Z</time>
      </trkpt>
      <trkpt lat="46.92768" lon="2.66773">
        <ele>172.7</ele>
        <time>2019-10-13T20:14:30Z</time>
      </trkpt>
      <trkpt lat="46.92759" lon="2.66789">
        <ele>172.4</ele>
        <time>2019-10-13T20:14:33Z</time>
      </trkpt>
      <trkpt lat="46.92712" lon="2.66876">
        <ele>171.6</ele>
        <time>2019-10-13T20:14:54Z</time>
      </trkpt>
      <trkpt lat="46.92704" lon="2.66891">
        <ele>171.4</ele>
        <time>2019-10-13T20:14:57Z</time>
      </trkpt>
      <trkpt lat="46.92697" lon="2.66909">
        <ele>171.8</ele>
        <time>2019-10-13T20:15:01Z</time>
      </trkpt>
      <trkpt lat="46.92692" lon="2.66925">
        <ele>172</ele>
        <time>2019-10-13T20:15:04Z</time>
      </trkpt>
      <trkpt lat="46.92686" lon="2.66947">
        <ele>172</ele>
        <time>2019-10-13T20:15:08Z</time>
      </trkpt>
      <trkpt lat="46.92681" lon="2.66962">
        <ele>172.3</ele>
        <time>2019-10-13T20:15:12Z</time>
      </trkpt>
      <trkpt lat="46.92674" lon="2.66975">
        <ele>172.7</ele>
        <time>2019-10-13T20:15:15Z</time>
      </trkpt>
      <trkpt lat="46.92668" lon="2.66982">
        <ele>172.6</ele>
        <time>2019-10-13T20:15:17Z</time>
      </trkpt>
      <trkpt lat="46.92661" lon="2.66986">
        <ele>172.7</ele>
        <time>2019-10-13T20:15:19Z</time>
      </trkpt>
      <trkpt lat="46.92652" lon="2.66988">
        <ele>173</ele>
        <time>2019-10-13T20:15:21Z</time>
      </trkpt>
      <trkpt lat="46.92411" lon="2.67006">
        <ele>182</ele>
        <time>2019-10-13T20:16:25Z</time>
      </trkpt>
      <trkpt lat="46.9238" lon="2.67006">
        <ele>181.7</ele>
        <time>2019-10-13T20:16:34Z</time>
      </trkpt>
      <trkpt lat="46.92374" lon="2.67006">
        <ele>181.5</ele>
        <time>2019-10-13T20:16:35Z</time>
      </trkpt>
      <trkpt lat="46.92363" lon="2.67002">
        <ele>181.1</ele>
        <time>2019-10-13T20:16:38Z</time>
      </trkpt>
      <trkpt lat="46.92349" lon="2.66995">
        <ele>179.6</ele>
        <time>2019-10-13T20:16:42Z</time>
      </trkpt>
      <trkpt lat="46.92339" lon="2.66986">
        <ele>178.5</ele>
        <time>2019-10-13T20:16:45Z</time>
      </trkpt>
      <trkpt lat="46.9232" lon="2.66966">
        <ele>175.3</ele>
        <time>2019-10-13T20:16:52Z</time>
      </trkpt>
      <trkpt lat="46.92312" lon="2.66958">
        <ele>174.2</ele>
        <time>2019-10-13T20:16:54Z</time>
      </trkpt>
      <trkpt lat="46.92303" lon="2.6695">
        <ele>173.3</ele>
        <time>2019-10-13T20:16:57Z</time>
      </trkpt>
      <trkpt lat="46.92291" lon="2.66946">
        <ele>171.8</ele>
        <time>2019-10-13T20:17:00Z</time>
      </trkpt>
      <trkpt lat="46.9228" lon="2.66946">
        <ele>170.3</ele>
        <time>2019-10-13T20:17:03Z</time>
      </trkpt>
      <trkpt lat="46.92175" lon="2.66962">
        <ele>168.7</ele>
        <time>2019-10-13T20:17:32Z</time>
      </trkpt>
      <trkpt lat="46.92165" lon="2.66963">
        <ele>169</ele>
        <time>2019-10-13T20:17:34Z</time>
      </trkpt>
      <trkpt lat="46.92142" lon="2.66967">
        <ele>169</ele>
        <time>2019-10-13T20:17:40Z</time>
      </trkpt>
      <trkpt lat="46.92131" lon="2.66966">
        <ele>169.3</ele>
        <time>2019-10-13T20:17:43Z</time>
      </trkpt>
      <trkpt lat="46.92123" lon="2.66963">
        <ele>169.6</ele>
        <time>2019-10-13T20:17:46Z</time>
      </trkpt>
      <trkpt lat="46.92097" lon="2.66946">
        <ele>171</ele>
        <time>2019-10-13T20:17:53Z</time>
      </trkpt>
      <trkpt lat="46.92087" lon="2.66937">
        <ele>171.8</ele>
        <time>2019-10-13T20:17:56Z</time>
      </trkpt>
      <trkpt lat="46.92083" lon="2.66928">
        <ele>172</ele>
        <time>2019-10-13T20:17:58Z</time>
      </trkpt>
      <trkpt lat="46.9208" lon="2.66917">
        <ele>172.1</ele>
        <time>2019-10-13T20:18:00Z</time>
      </trkpt>
      <trkpt lat="46.9208" lon="2.66906">
        <ele>172.1</ele>
        <time>2019-10-13T20:18:02Z</time>
      </trkpt>
      <trkpt lat="46.9208" lon="2.66882">
        <ele>171.9</ele>
        <time>2019-10-13T20:18:07Z</time>
      </trkpt>
      <trkpt lat="46.9208" lon="2.66869">
        <ele>171.5</ele>
        <time>2019-10-13T20:18:09Z</time>
      </trkpt>
      <trkpt lat="46.92078" lon="2.66853">
        <ele>171.3</ele>
        <time>2019-10-13T20:18:12Z</time>
      </trkpt>
      <trkpt lat="46.92074" lon="2.66836">
        <ele>171.4</ele>
        <time>2019-10-13T20:18:15Z</time>
      </trkpt>
      <trkpt lat="46.92067" lon="2.6681">
        <ele>171.6</ele>
        <time>2019-10-13T20:18:21Z</time>
      </trkpt>
      <trkpt lat="46.9206" lon="2.66791">
        <ele>171.8</ele>
        <time>2019-10-13T20:18:25Z</time>
      </trkpt>
      <trkpt lat="46.92052" lon="2.66774">
        <ele>171.9</ele>
        <time>2019-10-13T20:18:28Z</time>
      </trkpt>
      <trkpt lat="46.9204" lon="2.66758">
        <ele>171.7</ele>
        <time>2019-10-13T20:18:33Z</time>
      </trkpt>
      <trkpt lat="46.92027" lon="2.66747">
        <ele>171.9</ele>
        <time>2019-10-13T20:18:37Z</time>
      </trkpt>
      <trkpt lat="46.91962" lon="2.66714">
        <ele>176</ele>
        <time>2019-10-13T20:18:55Z</time>
      </trkpt>
      <trkpt lat="46.91875" lon="2.66674">
        <ele>179.1</ele>
        <time>2019-10-13T20:19:19Z</time>
      </trkpt>
      <trkpt lat="46.91867" lon="2.66675">
        <ele>179.2</ele>
        <time>2019-10-13T20:19:22Z</time>
      </trkpt>
      <trkpt lat="46.91862" lon="2.66683">
        <ele>179.6</ele>
        <time>2019-10-13T20:19:23Z</time>
      </trkpt>
      <trkpt lat="46.91819" lon="2.66891">
        <ele>185</ele>
        <time>2019-10-13T20:20:03Z</time>
      </trkpt>
      <trkpt lat="46.91803" lon="2.66888">
        <ele>186</ele>
        <time>2019-10-13T20:20:07Z</time>
      </trkpt>
      <trkpt lat="46.91552" lon="2.66864">
        <ele>190.2</ele>
        <time>2019-10-13T20:21:15Z</time>
      </trkpt>
      <trkpt lat="46.91502" lon="2.66841">
        <ele>190.9</ele>
        <time>2019-10-13T20:21:29Z</time>
      </trkpt>
      <trkpt lat="46.91119" lon="2.66521">
        <ele>193</ele>
        <time>2019-10-13T20:23:26Z</time>
      </trkpt>
      <trkpt lat="46.91071" lon="2.66496">
        <ele>193.4</ele>
        <time>2019-10-13T20:23:40Z</time>
      </trkpt>
      <trkpt lat="46.91023" lon="2.66442">
        <ele>193.2</ele>
        <time>2019-10-13T20:23:56Z</time>
      </trkpt>
      <trkpt lat="46.90735" lon="2.66235">
        <ele>194.8</ele>
        <time>2019-10-13T20:25:22Z</time>
      </trkpt>
      <trkpt lat="46.90707" lon="2.66215">
        <ele>195</ele>
        <time>2019-10-13T20:25:30Z</time>
      </trkpt>
      <trkpt lat="46.90684" lon="2.662">
        <ele>195</ele>
        <time>2019-10-13T20:25:37Z</time>
      </trkpt>
      <trkpt lat="46.90685" lon="2.66199">
        <ele>195</ele>
        <time>2019-10-13T20:25:37Z</time>
      </trkpt>
      <trkpt lat="46.90686" lon="2.66196">
        <ele>195</ele>
        <time>2019-10-13T20:25:38Z</time>
      </trkpt>
      <trkpt lat="46.90685" lon="2.66192">
        <ele>194.9</ele>
        <time>2019-10-13T20:25:39Z</time>
      </trkpt>
      <trkpt lat="46.90684" lon="2.66189">
        <ele>194.9</ele>
        <time>2019-10-13T20:25:39Z</time>
      </trkpt>
      <trkpt lat="46.90682" lon="2.66187">
        <ele>194.9</ele>
        <time>2019-10-13T20:25:40Z</time>
      </trkpt>
      <trkpt lat="46.9068" lon="2.66186">
        <ele>194.9</ele>
        <time>2019-10-13T20:25:41Z</time>
      </trkpt>
      <trkpt lat="46.9068" lon="2.66186">
        <ele>194.9</ele>
        <time>2019-10-13T20:25:41Z</time>
      </trkpt>
      <trkpt lat="46.90678" lon="2.66186">
        <ele>194.9</ele>
        <time>2019-10-13T20:25:41Z</time>
      </trkpt>
      <trkpt lat="46.90676" lon="2.66187">
        <ele>194.9</ele>
        <time>2019-10-13T20:25:42Z</time>
      </trkpt>
      <trkpt lat="46.90675" lon="2.6619">
        <ele>195</ele>
        <time>2019-10-13T20:25:42Z</time>
      </trkpt>
      <trkpt lat="46.90674" lon="2.66193">
        <ele>195</ele>
        <time>2019-10-13T20:25:43Z</time>
      </trkpt>
      <trkpt lat="46.90673" lon="2.66196">
        <ele>195</ele>
        <time>2019-10-13T20:25:44Z</time>
      </trkpt>
      <trkpt lat="46.90674" lon="2.662">
        <ele>195</ele>
        <time>2019-10-13T20:25:44Z</time>
      </trkpt>
      <trkpt lat="46.90675" lon="2.662">
        <ele>195</ele>
        <time>2019-10-13T20:25:45Z</time>
      </trkpt>
      <trkpt lat="46.90665" lon="2.66207">
        <ele>195</ele>
        <time>2019-10-13T20:25:48Z</time>
      </trkpt>
      <trkpt lat="46.90658" lon="2.66209">
        <ele>194.8</ele>
        <time>2019-10-13T20:25:49Z</time>
      </trkpt>
      <trkpt lat="46.90649" lon="2.66206">
        <ele>194.7</ele>
        <time>2019-10-13T20:25:52Z</time>
      </trkpt>
      <trkpt lat="46.90608" lon="2.6619">
        <ele>193</ele>
        <time>2019-10-13T20:26:03Z</time>
      </trkpt>
      <trkpt lat="46.90576" lon="2.66198">
        <ele>191.6</ele>
        <time>2019-10-13T20:26:12Z</time>
      </trkpt>
      <trkpt lat="46.90548" lon="2.66195">
        <ele>190.7</ele>
        <time>2019-10-13T20:26:19Z</time>
      </trkpt>
      <trkpt lat="46.90517" lon="2.66193">
        <ele>190</ele>
        <time>2019-10-13T20:26:28Z</time>
      </trkpt>
      <trkpt lat="46.90506" lon="2.662">
        <ele>189.8</ele>
        <time>2019-10-13T20:26:31Z</time>
      </trkpt>
      <trkpt lat="46.90497" lon="2.6621">
        <ele>189.4</ele>
        <time>2019-10-13T20:26:34Z</time>
      </trkpt>
      <trkpt lat="46.90382" lon="2.6636">
        <ele>184.8</ele>
        <time>2019-10-13T20:27:15Z</time>
      </trkpt>
      <trkpt lat="46.9034" lon="2.66417">
        <ele>183.8</ele>
        <time>2019-10-13T20:27:30Z</time>
      </trkpt>
      <trkpt lat="46.90307" lon="2.66446">
        <ele>183</ele>
        <time>2019-10-13T20:27:41Z</time>
      </trkpt>
      <trkpt lat="46.90277" lon="2.66468">
        <ele>184.1</ele>
        <time>2019-10-13T20:27:50Z</time>
      </trkpt>
      <trkpt lat="46.90261" lon="2.66477">
        <ele>185.1</ele>
        <time>2019-10-13T20:27:54Z</time>
      </trkpt>
      <trkpt lat="46.90246" lon="2.66483">
        <ele>185.7</ele>
        <time>2019-10-13T20:27:58Z</time>
      </trkpt>
      <trkpt lat="46.90232" lon="2.66487">
        <ele>185.8</ele>
        <time>2019-10-13T20:28:02Z</time>
      </trkpt>
      <trkpt lat="46.90215" lon="2.66488">
        <ele>186</ele>
        <time>2019-10-13T20:28:07Z</time>
      </trkpt>
      <trkpt lat="46.90107" lon="2.66485">
        <ele>182.9</ele>
        <time>2019-10-13T20:28:36Z</time>
      </trkpt>
      <trkpt lat="46.90057" lon="2.66486">
        <ele>183.5</ele>
        <time>2019-10-13T20:28:49Z</time>
      </trkpt>
      <trkpt lat="46.90005" lon="2.66517">
        <ele>184</ele>
        <time>2019-10-13T20:29:04Z</time>
      </trkpt>
      <trkpt lat="46.89973" lon="2.66542">
        <ele>183</ele>
        <time>2019-10-13T20:29:14Z</time>
      </trkpt>
      <trkpt lat="46.89859" lon="2.6666">
        <ele>182</ele>
        <time>2019-10-13T20:29:51Z</time>
      </trkpt>
      <trkpt lat="46.89803" lon="2.66677">
        <ele>181.4</ele>
        <time>2019-10-13T20:30:06Z</time>
      </trkpt>
      <trkpt lat="46.89736" lon="2.66687">
        <ele>180.4</ele>
        <time>2019-10-13T20:30:24Z</time>
      </trkpt>
      <trkpt lat="46.89652" lon="2.6672">
        <ele>179</ele>
        <time>2019-10-13T20:30:47Z</time>
      </trkpt>
      <trkpt lat="46.89526" lon="2.66686">
        <ele>181</ele>
        <time>2019-10-13T20:31:22Z</time>
      </trkpt>
      <trkpt lat="46.89504" lon="2.6668">
        <ele>181</ele>
        <time>2019-10-13T20:31:28Z</time>
      </trkpt>
      <trkpt lat="46.89318" lon="2.66601">
        <ele>178.3</ele>
        <time>2019-10-13T20:32:19Z</time>
      </trkpt>
      <trkpt lat="46.89035" lon="2.66524">
        <ele>181.1</ele>
        <time>2019-10-13T20:33:36Z</time>
      </trkpt>
      <trkpt lat="46.8893" lon="2.66492">
        <ele>179</ele>
        <time>2019-10-13T20:34:05Z</time>
      </trkpt>
      <trkpt lat="46.88646" lon="2.66413">
        <ele>173.7</ele>
        <time>2019-10-13T20:35:22Z</time>
      </trkpt>
      <trkpt lat="46.88631" lon="2.66411">
        <ele>174.1</ele>
        <time>2019-10-13T20:35:26Z</time>
      </trkpt>
      <trkpt lat="46.88617" lon="2.66409">
        <ele>174.2</ele>
        <time>2019-10-13T20:35:30Z</time>
      </trkpt>
      <trkpt lat="46.88614" lon="2.66423">
        <ele>174</ele>
        <time>2019-10-13T20:35:33Z</time>
      </trkpt>
      <trkpt lat="46.88609" lon="2.66438">
        <ele>174</ele>
        <time>2019-10-13T20:35:36Z</time>
      </trkpt>
      <trkpt lat="46.88598" lon="2.66454">
        <ele>173.7</ele>
        <time>2019-10-13T20:35:40Z</time>
      </trkpt>
      <trkpt lat="46.88487" lon="2.66549">
        <ele>172.2</ele>
        <time>2019-10-13T20:36:14Z</time>
      </trkpt>
      <trkpt lat="46.88351" lon="2.66657">
        <ele>173</ele>
        <time>2019-10-13T20:36:56Z</time>
      </trkpt>
      <trkpt lat="46.88338" lon="2.66673">
        <ele>173.2</ele>
        <time>2019-10-13T20:37:00Z</time>
      </trkpt>
      <trkpt lat="46.88323" lon="2.66704">
        <ele>174</ele>
        <time>2019-10-13T20:37:07Z</time>
      </trkpt>
      <trkpt lat="46.88066" lon="2.6744">
        <ele>175</ele>
        <time>2019-10-13T20:39:38Z</time>
      </trkpt>
      <trkpt lat="46.88057" lon="2.67468">
        <ele>175</ele>
        <time>2019-10-13T20:39:44Z</time>
      </trkpt>
      <trkpt lat="46.87974" lon="2.67586">
        <ele>175.1</ele>
        <time>2019-10-13T20:40:15Z</time>
      </trkpt>
      <trkpt lat="46.87965" lon="2.67593">
        <ele>175</ele>
        <time>2019-10-13T20:40:17Z</time>
      </trkpt>
      <trkpt lat="46.8796" lon="2.67596">
        <ele>175</ele>
        <time>2019-10-13T20:40:19Z</time>
      </trkpt>
      <trkpt lat="46.87952" lon="2.67597">
        <ele>175</ele>
        <time>2019-10-13T20:40:21Z</time>
      </trkpt>
      <trkpt lat="46.8794" lon="2.67594">
        <ele>175.1</ele>
        <time>2019-10-13T20:40:24Z</time>
      </trkpt>
      <trkpt lat="46.87894" lon="2.67569">
        <ele>175.9</ele>
        <time>2019-10-13T20:40:37Z</time>
      </trkpt>
      <trkpt lat="46.87882" lon="2.67565">
        <ele>176.2</ele>
        <time>2019-10-13T20:40:40Z</time>
      </trkpt>
      <trkpt lat="46.87869" lon="2.67564">
        <ele>176.7</ele>
        <time>2019-10-13T20:40:44Z</time>
      </trkpt>
      <trkpt lat="46.8786" lon="2.67564">
        <ele>177</ele>
        <time>2019-10-13T20:40:46Z</time>
      </trkpt>
      <trkpt lat="46.87849" lon="2.67568">
        <ele>177.4</ele>
        <time>2019-10-13T20:40:49Z</time>
      </trkpt>
      <trkpt lat="46.87401" lon="2.67752">
        <ele>176.4</ele>
        <time>2019-10-13T20:42:54Z</time>
      </trkpt>
      <trkpt lat="46.87384" lon="2.67836">
        <ele>176</ele>
        <time>2019-10-13T20:43:10Z</time>
      </trkpt>
      <trkpt lat="46.86587" lon="2.69317">
        <ele>191.4</ele>
        <time>2019-10-13T20:48:54Z</time>
      </trkpt>
      <trkpt lat="46.86263" lon="2.7004">
        <ele>208.5</ele>
        <time>2019-10-13T20:51:32Z</time>
      </trkpt>
      <trkpt lat="46.86245" lon="2.70069">
        <ele>209.1</ele>
        <time>2019-10-13T20:51:39Z</time>
      </trkpt>
      <trkpt lat="46.86234" lon="2.7008">
        <ele>209.5</ele>
        <time>2019-10-13T20:51:43Z</time>
      </trkpt>
      <trkpt lat="46.86224" lon="2.70088">
        <ele>209.9</ele>
        <time>2019-10-13T20:51:46Z</time>
      </trkpt>
      <trkpt lat="46.86205" lon="2.70098">
        <ele>210</ele>
        <time>2019-10-13T20:51:51Z</time>
      </trkpt>
      <trkpt lat="46.86036" lon="2.70183">
        <ele>213</ele>
        <time>2019-10-13T20:52:39Z</time>
      </trkpt>
      <trkpt lat="46.86027" lon="2.70194">
        <ele>213</ele>
        <time>2019-10-13T20:52:42Z</time>
      </trkpt>
      <trkpt lat="46.86022" lon="2.7021">
        <ele>213.4</ele>
        <time>2019-10-13T20:52:45Z</time>
      </trkpt>
      <trkpt lat="46.86019" lon="2.70238">
        <ele>213.9</ele>
        <time>2019-10-13T20:52:50Z</time>
      </trkpt>
      <trkpt lat="46.86019" lon="2.70287">
        <ele>214.8</ele>
        <time>2019-10-13T20:52:59Z</time>
      </trkpt>
      <trkpt lat="46.86019" lon="2.70399">
        <ele>215.7</ele>
        <time>2019-10-13T20:53:20Z</time>
      </trkpt>
      <trkpt lat="46.86017" lon="2.70421">
        <ele>215.8</ele>
        <time>2019-10-13T20:53:24Z</time>
      </trkpt>
      <trkpt lat="46.86011" lon="2.70439">
        <ele>216.2</ele>
        <time>2019-10-13T20:53:27Z</time>
      </trkpt>
      <trkpt lat="46.86008" lon="2.70445">
        <ele>216.3</ele>
        <time>2019-10-13T20:53:29Z</time>
      </trkpt>
      <trkpt lat="46.85985" lon="2.70493">
        <ele>215.5</ele>
        <time>2019-10-13T20:53:40Z</time>
      </trkpt>
      <trkpt lat="46.85984" lon="2.70504">
        <ele>215.4</ele>
        <time>2019-10-13T20:53:42Z</time>
      </trkpt>
      <trkpt lat="46.85984" lon="2.70534">
        <ele>215.4</ele>
        <time>2019-10-13T20:53:47Z</time>
      </trkpt>
      <trkpt lat="46.85982" lon="2.70545">
        <ele>215.4</ele>
        <time>2019-10-13T20:53:49Z</time>
      </trkpt>
      <trkpt lat="46.8595" lon="2.70645">
        <ele>214.4</ele>
        <time>2019-10-13T20:54:09Z</time>
      </trkpt>
      <trkpt lat="46.85931" lon="2.7069">
        <ele>214.9</ele>
        <time>2019-10-13T20:54:19Z</time>
      </trkpt>
      <trkpt lat="46.85928" lon="2.70687">
        <ele>214.8</ele>
        <time>2019-10-13T20:54:20Z</time>
      </trkpt>
      <trkpt lat="46.85901" lon="2.70685">
        <ele>214.9</ele>
        <time>2019-10-13T20:54:27Z</time>
      </trkpt>
      <trkpt lat="46.85879" lon="2.70689">
        <ele>215.3</ele>
        <time>2019-10-13T20:54:33Z</time>
      </trkpt>
      <trkpt lat="46.85858" lon="2.70693">
        <ele>216</ele>
        <time>2019-10-13T20:54:39Z</time>
      </trkpt>
      <trkpt lat="46.85805" lon="2.70704">
        <ele>217</ele>
        <time>2019-10-13T20:54:53Z</time>
      </trkpt>
      <trkpt lat="46.85767" lon="2.70695">
        <ele>218</ele>
        <time>2019-10-13T20:55:03Z</time>
      </trkpt>
      <trkpt lat="46.85735" lon="2.70691">
        <ele>218.7</ele>
        <time>2019-10-13T20:55:12Z</time>
      </trkpt>
      <trkpt lat="46.85699" lon="2.70701">
        <ele>219.8</ele>
        <time>2019-10-13T20:55:22Z</time>
      </trkpt>
      <trkpt lat="46.85685" lon="2.70708">
        <ele>220.7</ele>
        <time>2019-10-13T20:55:26Z</time>
      </trkpt>
      <trkpt lat="46.85553" lon="2.70742">
        <ele>226.4</ele>
        <time>2019-10-13T20:56:01Z</time>
      </trkpt>
      <trkpt lat="46.85445" lon="2.70838">
        <ele>231.1</ele>
        <time>2019-10-13T20:56:35Z</time>
      </trkpt>
      <trkpt lat="46.8541" lon="2.70842">
        <ele>232.2</ele>
        <time>2019-10-13T20:56:45Z</time>
      </trkpt>
      <trkpt lat="46.85396" lon="2.70844">
        <ele>232.7</ele>
        <time>2019-10-13T20:56:48Z</time>
      </trkpt>
      <trkpt lat="46.8536" lon="2.70835">
        <ele>233.1</ele>
        <time>2019-10-13T20:56:58Z</time>
      </trkpt>
      <trkpt lat="46.85344" lon="2.70859">
        <ele>234</ele>
        <time>2019-10-13T20:57:04Z</time>
      </trkpt>
      <trkpt lat="46.84988" lon="2.70943">
        <ele>241.4</ele>
        <time>2019-10-13T20:58:41Z</time>
      </trkpt>
      <trkpt lat="46.84956" lon="2.70943">
        <ele>241.9</ele>
        <time>2019-10-13T20:58:49Z</time>
      </trkpt>
      <trkpt lat="46.8468" lon="2.70625">
        <ele>237.5</ele>
        <time>2019-10-13T21:00:23Z</time>
      </trkpt>
      <trkpt lat="46.84649" lon="2.70611">
        <ele>236.4</ele>
        <time>2019-10-13T21:00:32Z</time>
      </trkpt>
      <trkpt lat="46.84586" lon="2.70602">
        <ele>233.2</ele>
        <time>2019-10-13T21:00:49Z</time>
      </trkpt>
      <trkpt lat="46.84257" lon="2.70702">
        <ele>214</ele>
        <time>2019-10-13T21:02:18Z</time>
      </trkpt>
      <trkpt lat="46.83707" lon="2.71029">
        <ele>223.5</ele>
        <time>2019-10-13T21:04:57Z</time>
      </trkpt>
      <trkpt lat="46.836" lon="2.71057">
        <ele>227.4</ele>
        <time>2019-10-13T21:05:26Z</time>
      </trkpt>
      <trkpt lat="46.83497" lon="2.71101">
        <ele>230</ele>
        <time>2019-10-13T21:05:55Z</time>
      </trkpt>
      <trkpt lat="46.83382" lon="2.71114">
        <ele>231.3</ele>
        <time>2019-10-13T21:06:26Z</time>
      </trkpt>
      <trkpt lat="46.83262" lon="2.71091">
        <ele>233.2</ele>
        <time>2019-10-13T21:06:58Z</time>
      </trkpt>
      <trkpt lat="46.83131" lon="2.71023">
        <ele>234.2</ele>
        <time>2019-10-13T21:07:35Z</time>
      </trkpt>
      <trkpt lat="46.83121" lon="2.71015">
        <ele>234.3</ele>
        <time>2019-10-13T21:07:38Z</time>
      </trkpt>
      <trkpt lat="46.83113" lon="2.71006">
        <ele>234.2</ele>
        <time>2019-10-13T21:07:41Z</time>
      </trkpt>
      <trkpt lat="46.83078" lon="2.70959">
        <ele>234.6</ele>
        <time>2019-10-13T21:07:53Z</time>
      </trkpt>
      <trkpt lat="46.82978" lon="2.70918">
        <ele>233.2</ele>
        <time>2019-10-13T21:08:21Z</time>
      </trkpt>
      <trkpt lat="46.82939" lon="2.70858">
        <ele>233.1</ele>
        <time>2019-10-13T21:08:36Z</time>
      </trkpt>
      <trkpt lat="46.82876" lon="2.70762">
        <ele>233.6</ele>
        <time>2019-10-13T21:09:01Z</time>
      </trkpt>
      <trkpt lat="46.82728" lon="2.70642">
        <ele>232</ele>
        <time>2019-10-13T21:09:46Z</time>
      </trkpt>
      <trkpt lat="46.82649" lon="2.70697">
        <ele>228.9</ele>
        <time>2019-10-13T21:10:09Z</time>
      </trkpt>
      <trkpt lat="46.82524" lon="2.70845">
        <ele>219.4</ele>
        <time>2019-10-13T21:10:52Z</time>
      </trkpt>
      <trkpt lat="46.8238" lon="2.71021">
        <ele>204.6</ele>
        <time>2019-10-13T21:11:42Z</time>
      </trkpt>
      <trkpt lat="46.82193" lon="2.71198">
        <ele>202.9</ele>
        <time>2019-10-13T21:12:42Z</time>
      </trkpt>
      <trkpt lat="46.82041" lon="2.71292">
        <ele>196.8</ele>
        <time>2019-10-13T21:13:26Z</time>
      </trkpt>
      <trkpt lat="46.82004" lon="2.71314">
        <ele>197</ele>
        <time>2019-10-13T21:13:37Z</time>
      </trkpt>
      <trkpt lat="46.81835" lon="2.71423">
        <ele>199.7</ele>
        <time>2019-10-13T21:14:26Z</time>
      </trkpt>
      <trkpt lat="46.81693" lon="2.7156">
        <ele>196.8</ele>
        <time>2019-10-13T21:15:12Z</time>
      </trkpt>
      <trkpt lat="46.81661" lon="2.7159">
        <ele>195.8</ele>
        <time>2019-10-13T21:15:22Z</time>
      </trkpt>
      <trkpt lat="46.81488" lon="2.71649">
        <ele>191.5</ele>
        <time>2019-10-13T21:16:09Z</time>
      </trkpt>
      <trkpt lat="46.81343" lon="2.71666">
        <ele>187</ele>
        <time>2019-10-13T21:16:48Z</time>
      </trkpt>
      <trkpt lat="46.81178" lon="2.716">
        <ele>182.6</ele>
        <time>2019-10-13T21:17:34Z</time>
      </trkpt>
      <trkpt lat="46.81045" lon="2.71587">
        <ele>184.3</ele>
        <time>2019-10-13T21:18:09Z</time>
      </trkpt>
      <trkpt lat="46.80863" lon="2.71559">
        <ele>180.1</ele>
        <time>2019-10-13T21:18:58Z</time>
      </trkpt>
      <trkpt lat="46.80839" lon="2.71571">
        <ele>180</ele>
        <time>2019-10-13T21:19:05Z</time>
      </trkpt>
      <trkpt lat="46.80831" lon="2.71584">
        <ele>179.9</ele>
        <time>2019-10-13T21:19:08Z</time>
      </trkpt>
      <trkpt lat="46.80818" lon="2.71605">
        <ele>179.4</ele>
        <time>2019-10-13T21:19:13Z</time>
      </trkpt>
      <trkpt lat="46.80808" lon="2.71624">
        <ele>179.1</ele>
        <time>2019-10-13T21:19:18Z</time>
      </trkpt>
      <trkpt lat="46.80791" lon="2.71654">
        <ele>178.2</ele>
        <time>2019-10-13T21:19:25Z</time>
      </trkpt>
      <trkpt lat="46.80713" lon="2.71701">
        <ele>177.5</ele>
        <time>2019-10-13T21:19:47Z</time>
      </trkpt>
      <trkpt lat="46.80687" lon="2.7172">
        <ele>177</ele>
        <time>2019-10-13T21:19:55Z</time>
      </trkpt>
      <trkpt lat="46.80679" lon="2.71728">
        <ele>177</ele>
        <time>2019-10-13T21:19:58Z</time>
      </trkpt>
      <trkpt lat="46.80668" lon="2.7174">
        <ele>177</ele>
        <time>2019-10-13T21:20:01Z</time>
      </trkpt>
      <trkpt lat="46.80662" lon="2.71743">
        <ele>177</ele>
        <time>2019-10-13T21:20:03Z</time>
      </trkpt>
      <trkpt lat="46.80657" lon="2.71748">
        <ele>177</ele>
        <time>2019-10-13T21:20:05Z</time>
      </trkpt>
      <trkpt lat="46.80651" lon="2.71751">
        <ele>177</ele>
        <time>2019-10-13T21:20:06Z</time>
      </trkpt>
      <trkpt lat="46.80643" lon="2.71753">
        <ele>177</ele>
        <time>2019-10-13T21:20:09Z</time>
      </trkpt>
      <trkpt lat="46.80632" lon="2.71744">
        <ele>176.8</ele>
        <time>2019-10-13T21:20:12Z</time>
      </trkpt>
      <trkpt lat="46.80605" lon="2.71716">
        <ele>176</ele>
        <time>2019-10-13T21:20:21Z</time>
      </trkpt>
      <trkpt lat="46.80587" lon="2.71691">
        <ele>176</ele>
        <time>2019-10-13T21:20:27Z</time>
      </trkpt>
      <trkpt lat="46.80569" lon="2.71672">
        <ele>176</ele>
        <time>2019-10-13T21:20:33Z</time>
      </trkpt>
      <trkpt lat="46.80542" lon="2.71652">
        <ele>176</ele>
        <time>2019-10-13T21:20:41Z</time>
      </trkpt>
      <trkpt lat="46.80496" lon="2.71617">
        <ele>176</ele>
        <time>2019-10-13T21:20:55Z</time>
      </trkpt>
      <trkpt lat="46.80468" lon="2.71593">
        <ele>176</ele>
        <time>2019-10-13T21:21:04Z</time>
      </trkpt>
      <trkpt lat="46.80456" lon="2.71581">
        <ele>176</ele>
        <time>2019-10-13T21:21:08Z</time>
      </trkpt>
      <trkpt lat="46.8039" lon="2.71442">
        <ele>176</ele>
        <time>2019-10-13T21:21:39Z</time>
      </trkpt>
      <trkpt lat="46.80373" lon="2.71422">
        <ele>176</ele>
        <time>2019-10-13T21:21:45Z</time>
      </trkpt>
      <trkpt lat="46.80355" lon="2.71416">
        <ele>176</ele>
        <time>2019-10-13T21:21:50Z</time>
      </trkpt>
      <trkpt lat="46.80347" lon="2.71419">
        <ele>175.9</ele>
        <time>2019-10-13T21:21:52Z</time>
      </trkpt>
      <trkpt lat="46.80334" lon="2.71422">
        <ele>175.6</ele>
        <time>2019-10-13T21:21:55Z</time>
      </trkpt>
      <trkpt lat="46.80316" lon="2.71421">
        <ele>175.8</ele>
        <time>2019-10-13T21:22:00Z</time>
      </trkpt>
      <trkpt lat="46.8029" lon="2.71412">
        <ele>176</ele>
        <time>2019-10-13T21:22:07Z</time>
      </trkpt>
      <trkpt lat="46.80201" lon="2.71356">
        <ele>178</ele>
        <time>2019-10-13T21:22:33Z</time>
      </trkpt>
      <trkpt lat="46.80197" lon="2.71353">
        <ele>178</ele>
        <time>2019-10-13T21:22:34Z</time>
      </trkpt>
      <trkpt lat="46.8018" lon="2.71344">
        <ele>178.5</ele>
        <time>2019-10-13T21:22:39Z</time>
      </trkpt>
      <trkpt lat="46.80161" lon="2.71338">
        <ele>179.2</ele>
        <time>2019-10-13T21:22:44Z</time>
      </trkpt>
      <trkpt lat="46.80143" lon="2.71333">
        <ele>179.8</ele>
        <time>2019-10-13T21:22:49Z</time>
      </trkpt>
      <trkpt lat="46.8012" lon="2.7133">
        <ele>179.9</ele>
        <time>2019-10-13T21:22:55Z</time>
      </trkpt>
      <trkpt lat="46.80103" lon="2.71381">
        <ele>180</ele>
        <time>2019-10-13T21:23:06Z</time>
      </trkpt>
      <trkpt lat="46.80098" lon="2.71397">
        <ele>180</ele>
        <time>2019-10-13T21:23:09Z</time>
      </trkpt>
      <trkpt lat="46.80076" lon="2.71416">
        <ele>180</ele>
        <time>2019-10-13T21:23:16Z</time>
      </trkpt>
      <trkpt lat="46.80059" lon="2.71435">
        <ele>180</ele>
        <time>2019-10-13T21:23:22Z</time>
      </trkpt>
      <trkpt lat="46.80035" lon="2.71418">
        <ele>180</ele>
        <time>2019-10-13T21:23:29Z</time>
      </trkpt>
      <trkpt lat="46.80028" lon="2.71424">
        <ele>180</ele>
        <time>2019-10-13T21:23:31Z</time>
      </trkpt>
      <trkpt lat="46.7999" lon="2.7144">
        <ele>180</ele>
        <time>2019-10-13T21:23:41Z</time>
      </trkpt>
      <trkpt lat="46.79921" lon="2.71496">
        <ele>181</ele>
        <time>2019-10-13T21:24:03Z</time>
      </trkpt>
      <trkpt lat="46.7987" lon="2.71534">
        <ele>182</ele>
        <time>2019-10-13T21:24:18Z</time>
      </trkpt>
      <trkpt lat="46.79858" lon="2.71546">
        <ele>182</ele>
        <time>2019-10-13T21:24:22Z</time>
      </trkpt>
      <trkpt lat="46.79847" lon="2.71556">
        <ele>182</ele>
        <time>2019-10-13T21:24:25Z</time>
      </trkpt>
      <trkpt lat="46.79802" lon="2.71638">
        <ele>182</ele>
        <time>2019-10-13T21:24:44Z</time>
      </trkpt>
      <trkpt lat="46.79665" lon="2.7189">
        <ele>180.9</ele>
        <time>2019-10-13T21:25:43Z</time>
      </trkpt>
      <trkpt lat="46.79615" lon="2.71969">
        <ele>180.8</ele>
        <time>2019-10-13T21:26:03Z</time>
      </trkpt>
      <trkpt lat="46.7939" lon="2.72252">
        <ele>180.9</ele>
        <time>2019-10-13T21:27:22Z</time>
      </trkpt>
      <trkpt lat="46.79342" lon="2.72289">
        <ele>180.9</ele>
        <time>2019-10-13T21:27:37Z</time>
      </trkpt>
      <trkpt lat="46.79329" lon="2.72299">
        <ele>181</ele>
        <time>2019-10-13T21:27:41Z</time>
      </trkpt>
      <trkpt lat="46.79327" lon="2.72313">
        <ele>181</ele>
        <time>2019-10-13T21:27:43Z</time>
      </trkpt>
      <trkpt lat="46.79301" lon="2.72416">
        <ele>181</ele>
        <time>2019-10-13T21:28:03Z</time>
      </trkpt>
      <trkpt lat="46.79248" lon="2.72764">
        <ele>178.6</ele>
        <time>2019-10-13T21:29:09Z</time>
      </trkpt>
      <trkpt lat="46.79206" lon="2.73015">
        <ele>178.2</ele>
        <time>2019-10-13T21:29:56Z</time>
      </trkpt>
      <trkpt lat="46.79117" lon="2.73142">
        <ele>179.3</ele>
        <time>2019-10-13T21:30:29Z</time>
      </trkpt>
      <trkpt lat="46.79014" lon="2.73464">
        <ele>180.9</ele>
        <time>2019-10-13T21:31:34Z</time>
      </trkpt>
      <trkpt lat="46.79079" lon="2.73527">
        <ele>181</ele>
        <time>2019-10-13T21:31:55Z</time>
      </trkpt>
      <trkpt lat="46.79197" lon="2.73609">
        <ele>181</ele>
        <time>2019-10-13T21:32:30Z</time>
      </trkpt>
      <trkpt lat="46.7931" lon="2.7366">
        <ele>180</ele>
        <time>2019-10-13T21:33:01Z</time>
      </trkpt>
      <trkpt lat="46.7935" lon="2.73746">
        <ele>179.1</ele>
        <time>2019-10-13T21:33:21Z</time>
      </trkpt>
      <trkpt lat="46.79397" lon="2.73825">
        <ele>179</ele>
        <time>2019-10-13T21:33:40Z</time>
      </trkpt>
      <trkpt lat="46.79442" lon="2.7386">
        <ele>179</ele>
        <time>2019-10-13T21:33:53Z</time>
      </trkpt>
      <trkpt lat="46.79517" lon="2.73916">
        <ele>179</ele>
        <time>2019-10-13T21:34:16Z</time>
      </trkpt>
      <trkpt lat="46.79574" lon="2.74032">
        <ele>179</ele>
        <time>2019-10-13T21:34:42Z</time>
      </trkpt>
      <trkpt lat="46.79609" lon="2.74192">
        <ele>179.8</ele>
        <time>2019-10-13T21:35:13Z</time>
      </trkpt>
      <trkpt lat="46.79584" lon="2.74285">
        <ele>180</ele>
        <time>2019-10-13T21:35:31Z</time>
      </trkpt>
      <trkpt lat="46.79575" lon="2.74414">
        <ele>180</ele>
        <time>2019-10-13T21:35:55Z</time>
      </trkpt>
      <trkpt lat="46.79581" lon="2.74793">
        <ele>181.9</ele>
        <time>2019-10-13T21:37:04Z</time>
      </trkpt>
      <trkpt lat="46.79574" lon="2.74818">
        <ele>181.7</ele>
        <time>2019-10-13T21:37:09Z</time>
      </trkpt>
      <trkpt lat="46.79578" lon="2.74858">
        <ele>182</ele>
        <time>2019-10-13T21:37:16Z</time>
      </trkpt>
      <trkpt lat="46.79641" lon="2.7516">
        <ele>184.8</ele>
        <time>2019-10-13T21:38:14Z</time>
      </trkpt>
      <trkpt lat="46.79576" lon="2.75241">
        <ele>183.7</ele>
        <time>2019-10-13T21:38:37Z</time>
      </trkpt>
      <trkpt lat="46.79449" lon="2.75394">
        <ele>183.2</ele>
        <time>2019-10-13T21:39:21Z</time>
      </trkpt>
      <trkpt lat="46.79416" lon="2.75398">
        <ele>183.3</ele>
        <time>2019-10-13T21:39:30Z</time>
      </trkpt>
      <trkpt lat="46.79383" lon="2.754">
        <ele>183.2</ele>
        <time>2019-10-13T21:39:39Z</time>
      </trkpt>
      <trkpt lat="46.79336" lon="2.75391">
        <ele>184.9</ele>
        <time>2019-10-13T21:39:51Z</time>
      </trkpt>
      <trkpt lat="46.79338" lon="2.75462">
        <ele>185.7</ele>
        <time>2019-10-13T21:40:04Z</time>
      </trkpt>
      <trkpt lat="46.79349" lon="2.75524">
        <ele>185.4</ele>
        <time>2019-10-13T21:40:16Z</time>
      </trkpt>
      <trkpt lat="46.79416" lon="2.75659">
        <ele>185</ele>
        <time>2019-10-13T21:40:46Z</time>
      </trkpt>
      <trkpt lat="46.79416" lon="2.75747">
        <ele>187</ele>
        <time>2019-10-13T21:41:02Z</time>
      </trkpt>
      <trkpt lat="46.79427" lon="2.75871">
        <ele>187.4</ele>
        <time>2019-10-13T21:41:25Z</time>
      </trkpt>
      <trkpt lat="46.79411" lon="2.75938">
        <ele>188.8</ele>
        <time>2019-10-13T21:41:38Z</time>
      </trkpt>
      <trkpt lat="46.79385" lon="2.76062">
        <ele>190.8</ele>
        <time>2019-10-13T21:42:02Z</time>
      </trkpt>
      <trkpt lat="46.79325" lon="2.76159">
        <ele>192</ele>
        <time>2019-10-13T21:42:26Z</time>
      </trkpt>
      <trkpt lat="46.7919" lon="2.7634">
        <ele>193.1</ele>
        <time>2019-10-13T21:43:15Z</time>
      </trkpt>
      <trkpt lat="46.7913" lon="2.76425">
        <ele>194</ele>
        <time>2019-10-13T21:43:37Z</time>
      </trkpt>
      <trkpt lat="46.79029" lon="2.76679">
        <ele>195</ele>
        <time>2019-10-13T21:44:31Z</time>
      </trkpt>
      <trkpt lat="46.78966" lon="2.76757">
        <ele>195</ele>
        <time>2019-10-13T21:44:53Z</time>
      </trkpt>
      <trkpt lat="46.78754" lon="2.77216">
        <ele>194.8</ele>
        <time>2019-10-13T21:46:34Z</time>
      </trkpt>
      <trkpt lat="46.78677" lon="2.77347">
        <ele>200.5</ele>
        <time>2019-10-13T21:47:06Z</time>
      </trkpt>
      <trkpt lat="46.78647" lon="2.77385">
        <ele>201.9</ele>
        <time>2019-10-13T21:47:17Z</time>
      </trkpt>
      <trkpt lat="46.78604" lon="2.77407">
        <ele>201</ele>
        <time>2019-10-13T21:47:29Z</time>
      </trkpt>
      <trkpt lat="46.78557" lon="2.77422">
        <ele>200.2</ele>
        <time>2019-10-13T21:47:42Z</time>
      </trkpt>
      <trkpt lat="46.7859" lon="2.77442">
        <ele>201</ele>
        <time>2019-10-13T21:47:51Z</time>
      </trkpt>
      <trkpt lat="46.78689" lon="2.77604">
        <ele>204.7</ele>
        <time>2019-10-13T21:48:31Z</time>
      </trkpt>
      <trkpt lat="46.78708" lon="2.77883">
        <ele>208</ele>
        <time>2019-10-13T21:49:22Z</time>
      </trkpt>
      <trkpt lat="46.78696" lon="2.78048">
        <ele>210</ele>
        <time>2019-10-13T21:49:52Z</time>
      </trkpt>
      <trkpt lat="46.78694" lon="2.78401">
        <ele>211</ele>
        <time>2019-10-13T21:50:57Z</time>
      </trkpt>
      <trkpt lat="46.78702" lon="2.78462">
        <ele>210</ele>
        <time>2019-10-13T21:51:08Z</time>
      </trkpt>
      <trkpt lat="46.78715" lon="2.78521">
        <ele>209.1</ele>
        <time>2019-10-13T21:51:20Z</time>
      </trkpt>
      <trkpt lat="46.78722" lon="2.79094">
        <ele>201.6</ele>
        <time>2019-10-13T21:53:05Z</time>
      </trkpt>
      <trkpt lat="46.78758" lon="2.79331">
        <ele>202.3</ele>
        <time>2019-10-13T21:53:49Z</time>
      </trkpt>
      <trkpt lat="46.78791" lon="2.79483">
        <ele>203.7</ele>
        <time>2019-10-13T21:54:18Z</time>
      </trkpt>
      <trkpt lat="46.78863" lon="2.79686">
        <ele>212.5</ele>
        <time>2019-10-13T21:55:00Z</time>
      </trkpt>
      <trkpt lat="46.78882" lon="2.79789">
        <ele>220</ele>
        <time>2019-10-13T21:55:20Z</time>
      </trkpt>
      <trkpt lat="46.78827" lon="2.79854">
        <ele>219.2</ele>
        <time>2019-10-13T21:55:38Z</time>
      </trkpt>
      <trkpt lat="46.78784" lon="2.79919">
        <ele>216.5</ele>
        <time>2019-10-13T21:55:55Z</time>
      </trkpt>
      <trkpt lat="46.78767" lon="2.79965">
        <ele>215.1</ele>
        <time>2019-10-13T21:56:05Z</time>
      </trkpt>
      <trkpt lat="46.7876" lon="2.80019">
        <ele>213.4</ele>
        <time>2019-10-13T21:56:15Z</time>
      </trkpt>
      <trkpt lat="46.7875" lon="2.80132">
        <ele>208.2</ele>
        <time>2019-10-13T21:56:35Z</time>
      </trkpt>
      <trkpt lat="46.7873" lon="2.80241">
        <ele>204.1</ele>
        <time>2019-10-13T21:56:56Z</time>
      </trkpt>
      <trkpt lat="46.78712" lon="2.80337">
        <ele>203</ele>
        <time>2019-10-13T21:57:14Z</time>
      </trkpt>
      <trkpt lat="46.78693" lon="2.80367">
        <ele>202</ele>
        <time>2019-10-13T21:57:22Z</time>
      </trkpt>
      <trkpt lat="46.78665" lon="2.80386">
        <ele>202.8</ele>
        <time>2019-10-13T21:57:30Z</time>
      </trkpt>
      <trkpt lat="46.78532" lon="2.80452">
        <ele>202.1</ele>
        <time>2019-10-13T21:58:08Z</time>
      </trkpt>
      <trkpt lat="46.78524" lon="2.80456">
        <ele>202</ele>
        <time>2019-10-13T21:58:10Z</time>
      </trkpt>
      <trkpt lat="46.7852" lon="2.80476">
        <ele>202.5</ele>
        <time>2019-10-13T21:58:14Z</time>
      </trkpt>
      <trkpt lat="46.78508" lon="2.805">
        <ele>198.7</ele>
        <time>2019-10-13T21:58:19Z</time>
      </trkpt>
      <trkpt lat="46.78504" lon="2.80537">
        <ele>197.9</ele>
        <time>2019-10-13T21:58:26Z</time>
      </trkpt>
      <trkpt lat="46.78506" lon="2.80636">
        <ele>198.3</ele>
        <time>2019-10-13T21:58:44Z</time>
      </trkpt>
      <trkpt lat="46.78511" lon="2.80735">
        <ele>199.6</ele>
        <time>2019-10-13T21:59:02Z</time>
      </trkpt>
      <trkpt lat="46.78526" lon="2.80856">
        <ele>199.3</ele>
        <time>2019-10-13T21:59:25Z</time>
      </trkpt>
      <trkpt lat="46.78546" lon="2.80961">
        <ele>201</ele>
        <time>2019-10-13T21:59:45Z</time>
      </trkpt>
      <trkpt lat="46.78598" lon="2.81228">
        <ele>200.6</ele>
        <time>2019-10-13T22:00:35Z</time>
      </trkpt>
      <trkpt lat="46.78628" lon="2.81384">
        <ele>200.6</ele>
        <time>2019-10-13T22:01:05Z</time>
      </trkpt>
      <trkpt lat="46.78672" lon="2.8161">
        <ele>198.4</ele>
        <time>2019-10-13T22:01:48Z</time>
      </trkpt>
      <trkpt lat="46.78695" lon="2.81726">
        <ele>199</ele>
        <time>2019-10-13T22:02:10Z</time>
      </trkpt>
      <trkpt lat="46.78738" lon="2.81933">
        <ele>200.9</ele>
        <time>2019-10-13T22:02:50Z</time>
      </trkpt>
      <trkpt lat="46.78772" lon="2.82063">
        <ele>202</ele>
        <time>2019-10-13T22:03:15Z</time>
      </trkpt>
      <trkpt lat="46.78798" lon="2.82167">
        <ele>200.6</ele>
        <time>2019-10-13T22:03:35Z</time>
      </trkpt>
      <trkpt lat="46.78909" lon="2.8251">
        <ele>201.5</ele>
        <time>2019-10-13T22:04:45Z</time>
      </trkpt>
      <trkpt lat="46.79026" lon="2.82885">
        <ele>201.5</ele>
        <time>2019-10-13T22:06:00Z</time>
      </trkpt>
      <trkpt lat="46.79138" lon="2.83228">
        <ele>202.2</ele>
        <time>2019-10-13T22:07:10Z</time>
      </trkpt>
      <trkpt lat="46.79155" lon="2.8328">
        <ele>202.2</ele>
        <time>2019-10-13T22:07:20Z</time>
      </trkpt>
      <trkpt lat="46.79217" lon="2.83447">
        <ele>201.1</ele>
        <time>2019-10-13T22:07:55Z</time>
      </trkpt>
      <trkpt lat="46.79238" lon="2.83494">
        <ele>201.3</ele>
        <time>2019-10-13T22:08:05Z</time>
      </trkpt>
      <trkpt lat="46.7926" lon="2.8352">
        <ele>202</ele>
        <time>2019-10-13T22:08:13Z</time>
      </trkpt>
      <trkpt lat="46.79287" lon="2.83554">
        <ele>204.5</ele>
        <time>2019-10-13T22:08:22Z</time>
      </trkpt>
      <trkpt lat="46.79297" lon="2.83567">
        <ele>204.4</ele>
        <time>2019-10-13T22:08:26Z</time>
      </trkpt>
      <trkpt lat="46.79332" lon="2.83625">
        <ele>203.8</ele>
        <time>2019-10-13T22:08:40Z</time>
      </trkpt>
      <trkpt lat="46.79396" lon="2.83689">
        <ele>205.1</ele>
        <time>2019-10-13T22:09:01Z</time>
      </trkpt>
      <trkpt lat="46.79481" lon="2.83774">
        <ele>205.1</ele>
        <time>2019-10-13T22:09:28Z</time>
      </trkpt>
      <trkpt lat="46.79573" lon="2.83869">
        <ele>204.3</ele>
        <time>2019-10-13T22:09:58Z</time>
      </trkpt>
      <trkpt lat="46.79626" lon="2.83914">
        <ele>206.1</ele>
        <time>2019-10-13T22:10:15Z</time>
      </trkpt>
      <trkpt lat="46.79691" lon="2.83985">
        <ele>205.1</ele>
        <time>2019-10-13T22:10:36Z</time>
      </trkpt>
      <trkpt lat="46.79806" lon="2.84098">
        <ele>205.9</ele>
        <time>2019-10-13T22:11:14Z</time>
      </trkpt>
      <trkpt lat="46.79881" lon="2.84172">
        <ele>207.3</ele>
        <time>2019-10-13T22:11:38Z</time>
      </trkpt>
      <trkpt lat="46.79962" lon="2.84285">
        <ele>205.9</ele>
        <time>2019-10-13T22:12:08Z</time>
      </trkpt>
      <trkpt lat="46.80011" lon="2.84391">
        <ele>203.6</ele>
        <time>2019-10-13T22:12:31Z</time>
      </trkpt>
      <trkpt lat="46.80055" lon="2.84553">
        <ele>205.1</ele>
        <time>2019-10-13T22:13:03Z</time>
      </trkpt>
      <trkpt lat="46.80061" lon="2.84642">
        <ele>202</ele>
        <time>2019-10-13T22:13:19Z</time>
      </trkpt>
      <trkpt lat="46.80079" lon="2.8485">
        <ele>204.6</ele>
        <time>2019-10-13T22:13:58Z</time>
      </trkpt>
      <trkpt lat="46.80098" lon="2.85034">
        <ele>200</ele>
        <time>2019-10-13T22:14:32Z</time>
      </trkpt>
      <trkpt lat="46.80103" lon="2.85084">
        <ele>201.1</ele>
        <time>2019-10-13T22:14:41Z</time>
      </trkpt>
      <trkpt lat="46.80101" lon="2.85101">
        <ele>201.1</ele>
        <time>2019-10-13T22:14:44Z</time>
      </trkpt>
      <trkpt lat="46.80106" lon="2.85142">
        <ele>202.7</ele>
        <time>2019-10-13T22:14:52Z</time>
      </trkpt>
      <trkpt lat="46.80119" lon="2.85142">
        <ele>203.5</ele>
        <time>2019-10-13T22:14:55Z</time>
      </trkpt>
      <trkpt lat="46.80131" lon="2.85134">
        <ele>204.4</ele>
        <time>2019-10-13T22:14:59Z</time>
      </trkpt>
      <trkpt lat="46.80136" lon="2.8513">
        <ele>204.8</ele>
        <time>2019-10-13T22:15:00Z</time>
      </trkpt>
      <trkpt lat="46.80142" lon="2.8512">
        <ele>205.3</ele>
        <time>2019-10-13T22:15:03Z</time>
      </trkpt>
      <trkpt lat="46.8015" lon="2.85096">
        <ele>205.8</ele>
        <time>2019-10-13T22:15:07Z</time>
      </trkpt>
      <trkpt lat="46.80153" lon="2.85091">
        <ele>206</ele>
        <time>2019-10-13T22:15:09Z</time>
      </trkpt>
      <trkpt lat="46.80159" lon="2.85086">
        <ele>206.4</ele>
        <time>2019-10-13T22:15:11Z</time>
      </trkpt>
      <trkpt lat="46.80171" lon="2.85076">
        <ele>206.9</ele>
        <time>2019-10-13T22:15:14Z</time>
      </trkpt>
      <trkpt lat="46.80175" lon="2.85074">
        <ele>207</ele>
        <time>2019-10-13T22:15:15Z</time>
      </trkpt>
      <trkpt lat="46.80183" lon="2.85074">
        <ele>207.3</ele>
        <time>2019-10-13T22:15:17Z</time>
      </trkpt>
      <trkpt lat="46.80211" lon="2.85079">
        <ele>208.3</ele>
        <time>2019-10-13T22:15:25Z</time>
      </trkpt>
      <trkpt lat="46.80345" lon="2.85106">
        <ele>208.6</ele>
        <time>2019-10-13T22:16:01Z</time>
      </trkpt>
      <trkpt lat="46.80361" lon="2.85111">
        <ele>209</ele>
        <time>2019-10-13T22:16:06Z</time>
      </trkpt>
      <trkpt lat="46.80368" lon="2.85115">
        <ele>209</ele>
        <time>2019-10-13T22:16:08Z</time>
      </trkpt>
      <trkpt lat="46.8037" lon="2.85117">
        <ele>209.1</ele>
        <time>2019-10-13T22:16:08Z</time>
      </trkpt>
      <trkpt lat="46.80394" lon="2.85136">
        <ele>209.6</ele>
        <time>2019-10-13T22:16:15Z</time>
      </trkpt>
      <trkpt lat="46.80417" lon="2.85153">
        <ele>210</ele>
        <time>2019-10-13T22:16:22Z</time>
      </trkpt>
      <trkpt lat="46.80432" lon="2.85159">
        <ele>209.5</ele>
        <time>2019-10-13T22:16:27Z</time>
      </trkpt>
      <trkpt lat="46.80471" lon="2.85164">
        <ele>207.9</ele>
        <time>2019-10-13T22:16:37Z</time>
      </trkpt>
      <trkpt lat="46.80511" lon="2.85166">
        <ele>207.6</ele>
        <time>2019-10-13T22:16:48Z</time>
      </trkpt>
      <trkpt lat="46.80526" lon="2.8516">
        <ele>207</ele>
        <time>2019-10-13T22:16:52Z</time>
      </trkpt>
      <trkpt lat="46.80559" lon="2.85142">
        <ele>206.1</ele>
        <time>2019-10-13T22:17:01Z</time>
      </trkpt>
      <trkpt lat="46.80578" lon="2.85126">
        <ele>206</ele>
        <time>2019-10-13T22:17:07Z</time>
      </trkpt>
      <trkpt lat="46.80598" lon="2.85095">
        <ele>205.4</ele>
        <time>2019-10-13T22:17:15Z</time>
      </trkpt>
      <trkpt lat="46.80624" lon="2.85045">
        <ele>205.3</ele>
        <time>2019-10-13T22:17:26Z</time>
      </trkpt>
      <trkpt lat="46.80628" lon="2.85017">
        <ele>205</ele>
        <time>2019-10-13T22:17:32Z</time>
      </trkpt>
      <trkpt lat="46.80636" lon="2.84987">
        <ele>205</ele>
        <time>2019-10-13T22:17:37Z</time>
      </trkpt>
      <trkpt lat="46.80644" lon="2.84969">
        <ele>205.2</ele>
        <time>2019-10-13T22:17:41Z</time>
      </trkpt>
      <trkpt lat="46.80657" lon="2.84945">
        <ele>205.7</ele>
        <time>2019-10-13T22:17:47Z</time>
      </trkpt>
      <trkpt lat="46.80702" lon="2.8487">
        <ele>207</ele>
        <time>2019-10-13T22:18:05Z</time>
      </trkpt>
      <trkpt lat="46.80714" lon="2.84841">
        <ele>207.5</ele>
        <time>2019-10-13T22:18:11Z</time>
      </trkpt>
      <trkpt lat="46.80724" lon="2.84811">
        <ele>208</ele>
        <time>2019-10-13T22:18:18Z</time>
      </trkpt>
      <trkpt lat="46.80731" lon="2.84792">
        <ele>208</ele>
        <time>2019-10-13T22:18:21Z</time>
      </trkpt>
      <trkpt lat="46.80743" lon="2.8478">
        <ele>208</ele>
        <time>2019-10-13T22:18:25Z</time>
      </trkpt>
      <trkpt lat="46.80762" lon="2.84766">
        <ele>208</ele>
        <time>2019-10-13T22:18:31Z</time>
      </trkpt>
      <trkpt lat="46.80849" lon="2.84731">
        <ele>208.1</ele>
        <time>2019-10-13T22:18:55Z</time>
      </trkpt>
      <trkpt lat="46.8087" lon="2.8472">
        <ele>208</ele>
        <time>2019-10-13T22:19:01Z</time>
      </trkpt>
      <trkpt lat="46.80908" lon="2.847">
        <ele>207.9</ele>
        <time>2019-10-13T22:19:12Z</time>
      </trkpt>
      <trkpt lat="46.80917" lon="2.84697">
        <ele>207.9</ele>
        <time>2019-10-13T22:19:14Z</time>
      </trkpt>
      <trkpt lat="46.80963" lon="2.84703">
        <ele>207</ele>
        <time>2019-10-13T22:19:27Z</time>
      </trkpt>
      <trkpt lat="46.80984" lon="2.84714">
        <ele>207</ele>
        <time>2019-10-13T22:19:33Z</time>
      </trkpt>
      <trkpt lat="46.81117" lon="2.84747">
        <ele>206</ele>
        <time>2019-10-13T22:20:09Z</time>
      </trkpt>
      <trkpt lat="46.81221" lon="2.84778">
        <ele>206.9</ele>
        <time>2019-10-13T22:20:37Z</time>
      </trkpt>
      <trkpt lat="46.81301" lon="2.84802">
        <ele>208.1</ele>
        <time>2019-10-13T22:20:59Z</time>
      </trkpt>
      <trkpt lat="46.81356" lon="2.84932">
        <ele>207.8</ele>
        <time>2019-10-13T22:21:27Z</time>
      </trkpt>
      <trkpt lat="46.81398" lon="2.85027">
        <ele>206</ele>
        <time>2019-10-13T22:21:48Z</time>
      </trkpt>
      <trkpt lat="46.81663" lon="2.85627">
        <ele>203.5</ele>
        <time>2019-10-13T22:23:58Z</time>
      </trkpt>
      <trkpt lat="46.81814" lon="2.85979">
        <ele>205</ele>
        <time>2019-10-13T22:25:14Z</time>
      </trkpt>
      <trkpt lat="46.81829" lon="2.86017">
        <ele>205</ele>
        <time>2019-10-13T22:25:22Z</time>
      </trkpt>
      <trkpt lat="46.8184" lon="2.86046">
        <ele>205.2</ele>
        <time>2019-10-13T22:25:28Z</time>
      </trkpt>
      <trkpt lat="46.81954" lon="2.86507">
        <ele>211</ele>
        <time>2019-10-13T22:26:58Z</time>
      </trkpt>
      <trkpt lat="46.81988" lon="2.86619">
        <ele>214.7</ele>
        <time>2019-10-13T22:27:20Z</time>
      </trkpt>
      <trkpt lat="46.82026" lon="2.86679">
        <ele>216.9</ele>
        <time>2019-10-13T22:27:35Z</time>
      </trkpt>
      <trkpt lat="46.82053" lon="2.86717">
        <ele>217.9</ele>
        <time>2019-10-13T22:27:45Z</time>
      </trkpt>
      <trkpt lat="46.82325" lon="2.87107">
        <ele>215.7</ele>
        <time>2019-10-13T22:29:27Z</time>
      </trkpt>
      <trkpt lat="46.82438" lon="2.8727">
        <ele>215.4</ele>
        <time>2019-10-13T22:30:09Z</time>
      </trkpt>
      <trkpt lat="46.82629" lon="2.87717">
        <ele>204</ele>
        <time>2019-10-13T22:31:46Z</time>
      </trkpt>
      <trkpt lat="46.82681" lon="2.87837">
        <ele>199.4</ele>
        <time>2019-10-13T22:32:12Z</time>
      </trkpt>
      <trkpt lat="46.82704" lon="2.87937">
        <ele>198</ele>
        <time>2019-10-13T22:32:31Z</time>
      </trkpt>
      <trkpt lat="46.82704" lon="2.88069">
        <ele>198</ele>
        <time>2019-10-13T22:32:55Z</time>
      </trkpt>
      <trkpt lat="46.82681" lon="2.88565">
        <ele>197.7</ele>
        <time>2019-10-13T22:34:26Z</time>
      </trkpt>
      <trkpt lat="46.82659" lon="2.89104">
        <ele>198</ele>
        <time>2019-10-13T22:36:05Z</time>
      </trkpt>
      <trkpt lat="46.82678" lon="2.89116">
        <ele>198</ele>
        <time>2019-10-13T22:36:10Z</time>
      </trkpt>
      <trkpt lat="46.83029" lon="2.89754">
        <ele>197</ele>
        <time>2019-10-13T22:38:40Z</time>
      </trkpt>
      <trkpt lat="46.83139" lon="2.89953">
        <ele>196.7</ele>
        <time>2019-10-13T22:39:27Z</time>
      </trkpt>
      <trkpt lat="46.83188" lon="2.90037">
        <ele>196.3</ele>
        <time>2019-10-13T22:39:47Z</time>
      </trkpt>
      <trkpt lat="46.83261" lon="2.90174">
        <ele>197</ele>
        <time>2019-10-13T22:40:19Z</time>
      </trkpt>
      <trkpt lat="46.83338" lon="2.90519">
        <ele>197</ele>
        <time>2019-10-13T22:41:25Z</time>
      </trkpt>
      <trkpt lat="46.83323" lon="2.91087">
        <ele>197</ele>
        <time>2019-10-13T22:43:09Z</time>
      </trkpt>
      <trkpt lat="46.83365" lon="2.91238">
        <ele>197</ele>
        <time>2019-10-13T22:43:39Z</time>
      </trkpt>
      <trkpt lat="46.83404" lon="2.91359">
        <ele>197</ele>
        <time>2019-10-13T22:44:03Z</time>
      </trkpt>
      <trkpt lat="46.83413" lon="2.91377">
        <ele>196.9</ele>
        <time>2019-10-13T22:44:07Z</time>
      </trkpt>
      <trkpt lat="46.8342" lon="2.91389">
        <ele>197</ele>
        <time>2019-10-13T22:44:10Z</time>
      </trkpt>
      <trkpt lat="46.83481" lon="2.91467">
        <ele>197.4</ele>
        <time>2019-10-13T22:44:32Z</time>
      </trkpt>
      <trkpt lat="46.8349" lon="2.91484">
        <ele>197.8</ele>
        <time>2019-10-13T22:44:36Z</time>
      </trkpt>
      <trkpt lat="46.8349" lon="2.9149">
        <ele>197.9</ele>
        <time>2019-10-13T22:44:37Z</time>
      </trkpt>
      <trkpt lat="46.83479" lon="2.91502">
        <ele>198</ele>
        <time>2019-10-13T22:44:40Z</time>
      </trkpt>
      <trkpt lat="46.83452" lon="2.91532">
        <ele>198</ele>
        <time>2019-10-13T22:44:49Z</time>
      </trkpt>
      <trkpt lat="46.83431" lon="2.91555">
        <ele>197.5</ele>
        <time>2019-10-13T22:44:56Z</time>
      </trkpt>
      <trkpt lat="46.83419" lon="2.91567">
        <ele>197.8</ele>
        <time>2019-10-13T22:45:00Z</time>
      </trkpt>
      <trkpt lat="46.83409" lon="2.91577">
        <ele>198.4</ele>
        <time>2019-10-13T22:45:04Z</time>
      </trkpt>
      <trkpt lat="46.83406" lon="2.91581">
        <ele>198.5</ele>
        <time>2019-10-13T22:45:05Z</time>
      </trkpt>
      <trkpt lat="46.83404" lon="2.91582">
        <ele>198.5</ele>
        <time>2019-10-13T22:45:05Z</time>
      </trkpt>
      <trkpt lat="46.83389" lon="2.91599">
        <ele>198.6</ele>
        <time>2019-10-13T22:45:10Z</time>
      </trkpt>
      <trkpt lat="46.83386" lon="2.91601">
        <ele>198.7</ele>
        <time>2019-10-13T22:45:11Z</time>
      </trkpt>
      <trkpt lat="46.83403" lon="2.91648">
        <ele>197.5</ele>
        <time>2019-10-13T22:45:21Z</time>
      </trkpt>
      <trkpt lat="46.8334" lon="2.91652">
        <ele>200.1</ele>
        <time>2019-10-13T22:45:38Z</time>
      </trkpt>
      <trkpt lat="46.83323" lon="2.9167">
        <ele>201.5</ele>
        <time>2019-10-13T22:45:43Z</time>
      </trkpt>
      <trkpt lat="46.8333" lon="2.91689">
        <ele>201.9</ele>
        <time>2019-10-13T22:45:47Z</time>
      </trkpt>
      <trkpt lat="46.83329" lon="2.91725">
        <ele>203.3</ele>
        <time>2019-10-13T22:45:54Z</time>
      </trkpt>
      <trkpt lat="46.83318" lon="2.91773">
        <ele>205</ele>
        <time>2019-10-13T22:46:03Z</time>
      </trkpt>
      <trkpt lat="46.83306" lon="2.91795">
        <ele>205</ele>
        <time>2019-10-13T22:46:08Z</time>
      </trkpt>
      <trkpt lat="46.83303" lon="2.91801">
        <ele>205.1</ele>
        <time>2019-10-13T22:46:10Z</time>
      </trkpt>
      <trkpt lat="46.83282" lon="2.91832">
        <ele>205.8</ele>
        <time>2019-10-13T22:46:18Z</time>
      </trkpt>
      <trkpt lat="46.83268" lon="2.91853">
        <ele>206</ele>
        <time>2019-10-13T22:46:23Z</time>
      </trkpt>
      <trkpt lat="46.8326" lon="2.91871">
        <ele>205.9</ele>
        <time>2019-10-13T22:46:27Z</time>
      </trkpt>
      <trkpt lat="46.83247" lon="2.91903">
        <ele>205.5</ele>
        <time>2019-10-13T22:46:34Z</time>
      </trkpt>
      <trkpt lat="46.83239" lon="2.91923">
        <ele>204.9</ele>
        <time>2019-10-13T22:46:38Z</time>
      </trkpt>
      <trkpt lat="46.83231" lon="2.91939">
        <ele>204.7</ele>
        <time>2019-10-13T22:46:41Z</time>
      </trkpt>
      <trkpt lat="46.83195" lon="2.91997">
        <ele>205</ele>
        <time>2019-10-13T22:46:56Z</time>
      </trkpt>
      <trkpt lat="46.83171" lon="2.92019">
        <ele>204.9</ele>
        <time>2019-10-13T22:47:03Z</time>
      </trkpt>
      <trkpt lat="46.83145" lon="2.9203">
        <ele>205</ele>
        <time>2019-10-13T22:47:11Z</time>
      </trkpt>
      <trkpt lat="46.83141" lon="2.92033">
        <ele>205</ele>
        <time>2019-10-13T22:47:12Z</time>
      </trkpt>
      <trkpt lat="46.83137" lon="2.92026">
        <ele>205.1</ele>
        <time>2019-10-13T22:47:13Z</time>
      </trkpt>
      <trkpt lat="46.8313" lon="2.9202">
        <ele>205.3</ele>
        <time>2019-10-13T22:47:16Z</time>
      </trkpt>
      <trkpt lat="46.83121" lon="2.92012">
        <ele>205.6</ele>
        <time>2019-10-13T22:47:18Z</time>
      </trkpt>
      <trkpt lat="46.83115" lon="2.92037">
        <ele>205.9</ele>
        <time>2019-10-13T22:47:23Z</time>
      </trkpt>
      <trkpt lat="46.83114" lon="2.92044">
        <ele>205.9</ele>
        <time>2019-10-13T22:47:25Z</time>
      </trkpt>
      <trkpt lat="46.83084" lon="2.92026">
        <ele>206</ele>
        <time>2019-10-13T22:47:33Z</time>
      </trkpt>
      <trkpt lat="46.8304" lon="2.91999">
        <ele>207</ele>
        <time>2019-10-13T22:47:46Z</time>
      </trkpt>
      <trkpt lat="46.83052" lon="2.91959">
        <ele>207</ele>
        <time>2019-10-13T22:47:54Z</time>
      </trkpt>
      <trkpt lat="46.83074" lon="2.91976">
        <ele>206.3</ele>
        <time>2019-10-13T22:48:01Z</time>
      </trkpt>
      <trkpt lat="46.83085" lon="2.91985">
        <ele>206</ele>
        <time>2019-10-13T22:48:04Z</time>
      </trkpt>
      <trkpt lat="46.8309" lon="2.91988">
        <ele>206</ele>
        <time>2019-10-13T22:48:05Z</time>
      </trkpt>
      <trkpt lat="46.83111" lon="2.92004">
        <ele>206</ele>
        <time>2019-10-13T22:48:12Z</time>
      </trkpt>
      <trkpt lat="46.83121" lon="2.92012">
        <ele>205.6</ele>
        <time>2019-10-13T22:48:15Z</time>
      </trkpt>
      <trkpt lat="46.8313" lon="2.9202">
        <ele>205.3</ele>
        <time>2019-10-13T22:48:18Z</time>
      </trkpt>
      <trkpt lat="46.83137" lon="2.92026">
        <ele>205.1</ele>
        <time>2019-10-13T22:48:20Z</time>
      </trkpt>
      <trkpt lat="46.83141" lon="2.92033">
        <ele>205</ele>
        <time>2019-10-13T22:48:21Z</time>
      </trkpt>
      <trkpt lat="46.83145" lon="2.9203">
        <ele>205</ele>
        <time>2019-10-13T22:48:23Z</time>
      </trkpt>
      <trkpt lat="46.83171" lon="2.92019">
        <ele>204.9</ele>
        <time>2019-10-13T22:48:30Z</time>
      </trkpt>
      <trkpt lat="46.83195" lon="2.91997">
        <ele>205</ele>
        <time>2019-10-13T22:48:37Z</time>
      </trkpt>
      <trkpt lat="46.83231" lon="2.91939">
        <ele>204.7</ele>
        <time>2019-10-13T22:48:52Z</time>
      </trkpt>
      <trkpt lat="46.83239" lon="2.91923">
        <ele>204.9</ele>
        <time>2019-10-13T22:48:55Z</time>
      </trkpt>
      <trkpt lat="46.83247" lon="2.91903">
        <ele>205.5</ele>
        <time>2019-10-13T22:49:00Z</time>
      </trkpt>
      <trkpt lat="46.8326" lon="2.91871">
        <ele>205.9</ele>
        <time>2019-10-13T22:49:06Z</time>
      </trkpt>
      <trkpt lat="46.83268" lon="2.91853">
        <ele>206</ele>
        <time>2019-10-13T22:49:10Z</time>
      </trkpt>
      <trkpt lat="46.83282" lon="2.91832">
        <ele>205.8</ele>
        <time>2019-10-13T22:49:16Z</time>
      </trkpt>
      <trkpt lat="46.83303" lon="2.91801">
        <ele>205.1</ele>
        <time>2019-10-13T22:49:24Z</time>
      </trkpt>
      <trkpt lat="46.83306" lon="2.91795">
        <ele>205</ele>
        <time>2019-10-13T22:49:25Z</time>
      </trkpt>
      <trkpt lat="46.83318" lon="2.91773">
        <ele>205</ele>
        <time>2019-10-13T22:49:30Z</time>
      </trkpt>
      <trkpt lat="46.83329" lon="2.91725">
        <ele>203.3</ele>
        <time>2019-10-13T22:49:39Z</time>
      </trkpt>
      <trkpt lat="46.8333" lon="2.91689">
        <ele>201.9</ele>
        <time>2019-10-13T22:49:46Z</time>
      </trkpt>
      <trkpt lat="46.83323" lon="2.9167">
        <ele>201.5</ele>
        <time>2019-10-13T22:49:50Z</time>
      </trkpt>
      <trkpt lat="46.8334" lon="2.91652">
        <ele>200.1</ele>
        <time>2019-10-13T22:49:56Z</time>
      </trkpt>
      <trkpt lat="46.83403" lon="2.91648">
        <ele>197.5</ele>
        <time>2019-10-13T22:50:12Z</time>
      </trkpt>
      <trkpt lat="46.83386" lon="2.91601">
        <ele>198.7</ele>
        <time>2019-10-13T22:50:22Z</time>
      </trkpt>
      <trkpt lat="46.83389" lon="2.91599">
        <ele>198.6</ele>
        <time>2019-10-13T22:50:23Z</time>
      </trkpt>
      <trkpt lat="46.83404" lon="2.91582">
        <ele>198.5</ele>
        <time>2019-10-13T22:50:28Z</time>
      </trkpt>
      <trkpt lat="46.83406" lon="2.91581">
        <ele>198.5</ele>
        <time>2019-10-13T22:50:29Z</time>
      </trkpt>
      <trkpt lat="46.83409" lon="2.91577">
        <ele>198.4</ele>
        <time>2019-10-13T22:50:30Z</time>
      </trkpt>
      <trkpt lat="46.83419" lon="2.91567">
        <ele>197.8</ele>
        <time>2019-10-13T22:50:33Z</time>
      </trkpt>
      <trkpt lat="46.83431" lon="2.91555">
        <ele>197.5</ele>
        <time>2019-10-13T22:50:37Z</time>
      </trkpt>
      <trkpt lat="46.83489" lon="2.91657">
        <ele>196.9</ele>
        <time>2019-10-13T22:51:01Z</time>
      </trkpt>
      <trkpt lat="46.83493" lon="2.91662">
        <ele>197</ele>
        <time>2019-10-13T22:51:03Z</time>
      </trkpt>
      <trkpt lat="46.83546" lon="2.9179">
        <ele>196.8</ele>
        <time>2019-10-13T22:51:30Z</time>
      </trkpt>
      <trkpt lat="46.83589" lon="2.91872">
        <ele>196.8</ele>
        <time>2019-10-13T22:51:49Z</time>
      </trkpt>
      <trkpt lat="46.83617" lon="2.91903">
        <ele>197.2</ele>
        <time>2019-10-13T22:51:58Z</time>
      </trkpt>
      <trkpt lat="46.83662" lon="2.91948">
        <ele>197.8</ele>
        <time>2019-10-13T22:52:13Z</time>
      </trkpt>
      <trkpt lat="46.83749" lon="2.92032">
        <ele>201.8</ele>
        <time>2019-10-13T22:52:41Z</time>
      </trkpt>
      <trkpt lat="46.83835" lon="2.9211">
        <ele>203</ele>
        <time>2019-10-13T22:53:08Z</time>
      </trkpt>
      <trkpt lat="46.84142" lon="2.92354">
        <ele>203</ele>
        <time>2019-10-13T22:54:41Z</time>
      </trkpt>
      <trkpt lat="46.84231" lon="2.92425">
        <ele>203</ele>
        <time>2019-10-13T22:55:08Z</time>
      </trkpt>
      <trkpt lat="46.84394" lon="2.92554">
        <ele>202</ele>
        <time>2019-10-13T22:55:58Z</time>
      </trkpt>
      <trkpt lat="46.84414" lon="2.9257">
        <ele>201.5</ele>
        <time>2019-10-13T22:56:04Z</time>
      </trkpt>
      <trkpt lat="46.84533" lon="2.9265">
        <ele>203</ele>
        <time>2019-10-13T22:56:39Z</time>
      </trkpt>
      <trkpt lat="46.84605" lon="2.92681">
        <ele>201.6</ele>
        <time>2019-10-13T22:56:59Z</time>
      </trkpt>
      <trkpt lat="46.8465" lon="2.92702">
        <ele>200.4</ele>
        <time>2019-10-13T22:57:11Z</time>
      </trkpt>
      <trkpt lat="46.84781" lon="2.92611">
        <ele>203</ele>
        <time>2019-10-13T22:57:50Z</time>
      </trkpt>
      <trkpt lat="46.84889" lon="2.92524">
        <ele>202</ele>
        <time>2019-10-13T22:58:23Z</time>
      </trkpt>
      <trkpt lat="46.84971" lon="2.92433">
        <ele>200.4</ele>
        <time>2019-10-13T22:58:51Z</time>
      </trkpt>
      <trkpt lat="46.85022" lon="2.92401">
        <ele>200</ele>
        <time>2019-10-13T22:59:05Z</time>
      </trkpt>
      <trkpt lat="46.85093" lon="2.92386">
        <ele>200</ele>
        <time>2019-10-13T22:59:25Z</time>
      </trkpt>
      <trkpt lat="46.85228" lon="2.92376">
        <ele>201.9</ele>
        <time>2019-10-13T23:00:01Z</time>
      </trkpt>
      <trkpt lat="46.8532" lon="2.92395">
        <ele>200.9</ele>
        <time>2019-10-13T23:00:25Z</time>
      </trkpt>
      <trkpt lat="46.85381" lon="2.92427">
        <ele>203</ele>
        <time>2019-10-13T23:00:43Z</time>
      </trkpt>
      <trkpt lat="46.85503" lon="2.92437">
        <ele>205</ele>
        <time>2019-10-13T23:01:15Z</time>
      </trkpt>
      <trkpt lat="46.85544" lon="2.92446">
        <ele>205</ele>
        <time>2019-10-13T23:01:27Z</time>
      </trkpt>
      <trkpt lat="46.85587" lon="2.92441">
        <ele>205.1</ele>
        <time>2019-10-13T23:01:38Z</time>
      </trkpt>
      <trkpt lat="46.85632" lon="2.92438">
        <ele>206.2</ele>
        <time>2019-10-13T23:01:50Z</time>
      </trkpt>
      <trkpt lat="46.85677" lon="2.92444">
        <ele>207</ele>
        <time>2019-10-13T23:02:02Z</time>
      </trkpt>
      <trkpt lat="46.85694" lon="2.92453">
        <ele>206.7</ele>
        <time>2019-10-13T23:02:07Z</time>
      </trkpt>
      <trkpt lat="46.85724" lon="2.92476">
        <ele>206</ele>
        <time>2019-10-13T23:02:16Z</time>
      </trkpt>
      <trkpt lat="46.85736" lon="2.92483">
        <ele>205.8</ele>
        <time>2019-10-13T23:02:19Z</time>
      </trkpt>
      <trkpt lat="46.85746" lon="2.92485">
        <ele>205.6</ele>
        <time>2019-10-13T23:02:22Z</time>
      </trkpt>
      <trkpt lat="46.85756" lon="2.92483">
        <ele>205.5</ele>
        <time>2019-10-13T23:02:25Z</time>
      </trkpt>
      <trkpt lat="46.85891" lon="2.92411">
        <ele>205.3</ele>
        <time>2019-10-13T23:03:03Z</time>
      </trkpt>
      <trkpt lat="46.86213" lon="2.92364">
        <ele>210.9</ele>
        <time>2019-10-13T23:04:30Z</time>
      </trkpt>
      <trkpt lat="46.86404" lon="2.92303">
        <ele>208</ele>
        <time>2019-10-13T23:05:22Z</time>
      </trkpt>
      <trkpt lat="46.86684" lon="2.92169">
        <ele>208.7</ele>
        <time>2019-10-13T23:06:41Z</time>
      </trkpt>
      <trkpt lat="46.86802" lon="2.91952">
        <ele>202.9</ele>
        <time>2019-10-13T23:07:31Z</time>
      </trkpt>
      <trkpt lat="46.86799" lon="2.91709">
        <ele>206</ele>
        <time>2019-10-13T23:08:16Z</time>
      </trkpt>
      <trkpt lat="46.86861" lon="2.91639">
        <ele>208</ele>
        <time>2019-10-13T23:08:37Z</time>
      </trkpt>
      <trkpt lat="46.86904" lon="2.91476">
        <ele>210.3</ele>
        <time>2019-10-13T23:09:09Z</time>
      </trkpt>
      <trkpt lat="46.86952" lon="2.91375">
        <ele>210.6</ele>
        <time>2019-10-13T23:09:31Z</time>
      </trkpt>
      <trkpt lat="46.87041" lon="2.91297">
        <ele>209.7</ele>
        <time>2019-10-13T23:09:59Z</time>
      </trkpt>
      <trkpt lat="46.87068" lon="2.91246">
        <ele>209.2</ele>
        <time>2019-10-13T23:10:11Z</time>
      </trkpt>
      <trkpt lat="46.87216" lon="2.91276">
        <ele>198.5</ele>
        <time>2019-10-13T23:10:50Z</time>
      </trkpt>
      <trkpt lat="46.8725" lon="2.91264">
        <ele>197</ele>
        <time>2019-10-13T23:11:00Z</time>
      </trkpt>
      <trkpt lat="46.87366" lon="2.91246">
        <ele>201.8</ele>
        <time>2019-10-13T23:11:31Z</time>
      </trkpt>
      <trkpt lat="46.87569" lon="2.91142">
        <ele>218</ele>
        <time>2019-10-13T23:12:28Z</time>
      </trkpt>
      <trkpt lat="46.87574" lon="2.91142">
        <ele>218</ele>
        <time>2019-10-13T23:12:30Z</time>
      </trkpt>
      <trkpt lat="46.8758" lon="2.91148">
        <ele>218</ele>
        <time>2019-10-13T23:12:32Z</time>
      </trkpt>
      <trkpt lat="46.87583" lon="2.91157">
        <ele>218</ele>
        <time>2019-10-13T23:12:34Z</time>
      </trkpt>
      <trkpt lat="46.87619" lon="2.91272">
        <ele>218</ele>
        <time>2019-10-13T23:12:57Z</time>
      </trkpt>
      <trkpt lat="46.87626" lon="2.91289">
        <ele>218</ele>
        <time>2019-10-13T23:13:00Z</time>
      </trkpt>
      <trkpt lat="46.87635" lon="2.91305">
        <ele>218</ele>
        <time>2019-10-13T23:13:04Z</time>
      </trkpt>
      <trkpt lat="46.87672" lon="2.9135">
        <ele>217.3</ele>
        <time>2019-10-13T23:13:17Z</time>
      </trkpt>
      <trkpt lat="46.87677" lon="2.91362">
        <ele>217</ele>
        <time>2019-10-13T23:13:19Z</time>
      </trkpt>
      <trkpt lat="46.87668" lon="2.91455">
        <ele>215.6</ele>
        <time>2019-10-13T23:13:37Z</time>
      </trkpt>
      <trkpt lat="46.87686" lon="2.91514">
        <ele>214</ele>
        <time>2019-10-13T23:13:48Z</time>
      </trkpt>
      <trkpt lat="46.87698" lon="2.91582">
        <ele>212.7</ele>
        <time>2019-10-13T23:14:01Z</time>
      </trkpt>
      <trkpt lat="46.87686" lon="2.91689">
        <ele>209.9</ele>
        <time>2019-10-13T23:14:21Z</time>
      </trkpt>
      <trkpt lat="46.87719" lon="2.91769">
        <ele>206.7</ele>
        <time>2019-10-13T23:14:38Z</time>
      </trkpt>
      <trkpt lat="46.87746" lon="2.91813">
        <ele>203.4</ele>
        <time>2019-10-13T23:14:49Z</time>
      </trkpt>
      <trkpt lat="46.87779" lon="2.91859">
        <ele>203</ele>
        <time>2019-10-13T23:15:01Z</time>
      </trkpt>
      <trkpt lat="46.87795" lon="2.91899">
        <ele>204.5</ele>
        <time>2019-10-13T23:15:10Z</time>
      </trkpt>
      <trkpt lat="46.87806" lon="2.92105">
        <ele>204</ele>
        <time>2019-10-13T23:15:47Z</time>
      </trkpt>
      <trkpt lat="46.87825" lon="2.92157">
        <ele>204.2</ele>
        <time>2019-10-13T23:15:58Z</time>
      </trkpt>
      <trkpt lat="46.87842" lon="2.92228">
        <ele>204.2</ele>
        <time>2019-10-13T23:16:12Z</time>
      </trkpt>
      <trkpt lat="46.87865" lon="2.92246">
        <ele>205</ele>
        <time>2019-10-13T23:16:19Z</time>
      </trkpt>
      <trkpt lat="46.87913" lon="2.92248">
        <ele>204.1</ele>
        <time>2019-10-13T23:16:32Z</time>
      </trkpt>
      <trkpt lat="46.87982" lon="2.92252">
        <ele>204.3</ele>
        <time>2019-10-13T23:16:50Z</time>
      </trkpt>
      <trkpt lat="46.88003" lon="2.92223">
        <ele>206.2</ele>
        <time>2019-10-13T23:16:58Z</time>
      </trkpt>
      <trkpt lat="46.88029" lon="2.92207">
        <ele>208.1</ele>
        <time>2019-10-13T23:17:05Z</time>
      </trkpt>
      <trkpt lat="46.88077" lon="2.92228">
        <ele>211.4</ele>
        <time>2019-10-13T23:17:19Z</time>
      </trkpt>
      <trkpt lat="46.88145" lon="2.92289">
        <ele>213.9</ele>
        <time>2019-10-13T23:17:40Z</time>
      </trkpt>
      <trkpt lat="46.88229" lon="2.92326">
        <ele>215.1</ele>
        <time>2019-10-13T23:18:03Z</time>
      </trkpt>
      <trkpt lat="46.88255" lon="2.92291">
        <ele>216</ele>
        <time>2019-10-13T23:18:13Z</time>
      </trkpt>
      <trkpt lat="46.88302" lon="2.92302">
        <ele>216.9</ele>
        <time>2019-10-13T23:18:26Z</time>
      </trkpt>
      <trkpt lat="46.88382" lon="2.92325">
        <ele>216.5</ele>
        <time>2019-10-13T23:18:47Z</time>
      </trkpt>
      <trkpt lat="46.8848" lon="2.92351">
        <ele>215.3</ele>
        <time>2019-10-13T23:19:14Z</time>
      </trkpt>
      <trkpt lat="46.88587" lon="2.92375">
        <ele>211.9</ele>
        <time>2019-10-13T23:19:43Z</time>
      </trkpt>
      <trkpt lat="46.8865" lon="2.92392">
        <ele>209.6</ele>
        <time>2019-10-13T23:20:00Z</time>
      </trkpt>
      <trkpt lat="46.88703" lon="2.92409">
        <ele>208.9</ele>
        <time>2019-10-13T23:20:15Z</time>
      </trkpt>
      <trkpt lat="46.88727" lon="2.92416">
        <ele>209</ele>
        <time>2019-10-13T23:20:21Z</time>
      </trkpt>
      <trkpt lat="46.8876" lon="2.92406">
        <ele>209.1</ele>
        <time>2019-10-13T23:20:30Z</time>
      </trkpt>
      <trkpt lat="46.88792" lon="2.92383">
        <ele>210.4</ele>
        <time>2019-10-13T23:20:40Z</time>
      </trkpt>
      <trkpt lat="46.8883" lon="2.92355">
        <ele>211.9</ele>
        <time>2019-10-13T23:20:51Z</time>
      </trkpt>
      <trkpt lat="46.88857" lon="2.92341">
        <ele>212</ele>
        <time>2019-10-13T23:20:59Z</time>
      </trkpt>
      <trkpt lat="46.88889" lon="2.92332">
        <ele>213</ele>
        <time>2019-10-13T23:21:07Z</time>
      </trkpt>
      <trkpt lat="46.88926" lon="2.92324">
        <ele>213.7</ele>
        <time>2019-10-13T23:21:17Z</time>
      </trkpt>
      <trkpt lat="46.88961" lon="2.92315">
        <ele>214.3</ele>
        <time>2019-10-13T23:21:27Z</time>
      </trkpt>
      <trkpt lat="46.88984" lon="2.92307">
        <ele>213.6</ele>
        <time>2019-10-13T23:21:33Z</time>
      </trkpt>
      <trkpt lat="46.89021" lon="2.92287">
        <ele>213.2</ele>
        <time>2019-10-13T23:21:44Z</time>
      </trkpt>
      <trkpt lat="46.89049" lon="2.92274">
        <ele>211.5</ele>
        <time>2019-10-13T23:21:52Z</time>
      </trkpt>
      <trkpt lat="46.8908" lon="2.92266">
        <ele>208.7</ele>
        <time>2019-10-13T23:22:00Z</time>
      </trkpt>
      <trkpt lat="46.8914" lon="2.92262">
        <ele>202.9</ele>
        <time>2019-10-13T23:22:16Z</time>
      </trkpt>
      <trkpt lat="46.89173" lon="2.92265">
        <ele>200.3</ele>
        <time>2019-10-13T23:22:25Z</time>
      </trkpt>
      <trkpt lat="46.89206" lon="2.92271">
        <ele>200</ele>
        <time>2019-10-13T23:22:34Z</time>
      </trkpt>
      <trkpt lat="46.89235" lon="2.92275">
        <ele>201.2</ele>
        <time>2019-10-13T23:22:41Z</time>
      </trkpt>
      <trkpt lat="46.8925" lon="2.92273">
        <ele>201.7</ele>
        <time>2019-10-13T23:22:45Z</time>
      </trkpt>
      <trkpt lat="46.89266" lon="2.92258">
        <ele>202.7</ele>
        <time>2019-10-13T23:22:51Z</time>
      </trkpt>
      <trkpt lat="46.89299" lon="2.92209">
        <ele>205.3</ele>
        <time>2019-10-13T23:23:03Z</time>
      </trkpt>
      <trkpt lat="46.89338" lon="2.92142">
        <ele>209.3</ele>
        <time>2019-10-13T23:23:19Z</time>
      </trkpt>
      <trkpt lat="46.89399" lon="2.92034">
        <ele>213.7</ele>
        <time>2019-10-13T23:23:45Z</time>
      </trkpt>
      <trkpt lat="46.89417" lon="2.92002">
        <ele>215</ele>
        <time>2019-10-13T23:23:52Z</time>
      </trkpt>
      <trkpt lat="46.89429" lon="2.9198">
        <ele>215.4</ele>
        <time>2019-10-13T23:23:57Z</time>
      </trkpt>
      <trkpt lat="46.89437" lon="2.91966">
        <ele>215.7</ele>
        <time>2019-10-13T23:24:01Z</time>
      </trkpt>
      <trkpt lat="46.89443" lon="2.9195">
        <ele>215.9</ele>
        <time>2019-10-13T23:24:04Z</time>
      </trkpt>
      <trkpt lat="46.89448" lon="2.91954">
        <ele>216</ele>
        <time>2019-10-13T23:24:06Z</time>
      </trkpt>
      <trkpt lat="46.8947" lon="2.91943">
        <ele>216</ele>
        <time>2019-10-13T23:24:12Z</time>
      </trkpt>
      <trkpt lat="46.8949" lon="2.91935">
        <ele>216</ele>
        <time>2019-10-13T23:24:17Z</time>
      </trkpt>
      <trkpt lat="46.89519" lon="2.91928">
        <ele>216.4</ele>
        <time>2019-10-13T23:24:25Z</time>
      </trkpt>
      <trkpt lat="46.89535" lon="2.91928">
        <ele>216.4</ele>
        <time>2019-10-13T23:24:30Z</time>
      </trkpt>
      <trkpt lat="46.89549" lon="2.9193">
        <ele>216.1</ele>
        <time>2019-10-13T23:24:33Z</time>
      </trkpt>
      <trkpt lat="46.89561" lon="2.91935">
        <ele>216</ele>
        <time>2019-10-13T23:24:37Z</time>
      </trkpt>
      <trkpt lat="46.89591" lon="2.91951">
        <ele>215.6</ele>
        <time>2019-10-13T23:24:45Z</time>
      </trkpt>
      <trkpt lat="46.89612" lon="2.91966">
        <ele>215</ele>
        <time>2019-10-13T23:24:51Z</time>
      </trkpt>
      <trkpt lat="46.89645" lon="2.91997">
        <ele>214.1</ele>
        <time>2019-10-13T23:25:02Z</time>
      </trkpt>
      <trkpt lat="46.89704" lon="2.9205">
        <ele>212.1</ele>
        <time>2019-10-13T23:25:20Z</time>
      </trkpt>
      <trkpt lat="46.89716" lon="2.9206">
        <ele>211.9</ele>
        <time>2019-10-13T23:25:24Z</time>
      </trkpt>
      <trkpt lat="46.89727" lon="2.92066">
        <ele>211.6</ele>
        <time>2019-10-13T23:25:27Z</time>
      </trkpt>
      <trkpt lat="46.89737" lon="2.92069">
        <ele>211.5</ele>
        <time>2019-10-13T23:25:30Z</time>
      </trkpt>
      <trkpt lat="46.89744" lon="2.92069">
        <ele>211.5</ele>
        <time>2019-10-13T23:25:32Z</time>
      </trkpt>
      <trkpt lat="46.89753" lon="2.92068">
        <ele>211.6</ele>
        <time>2019-10-13T23:25:34Z</time>
      </trkpt>
      <trkpt lat="46.89763" lon="2.92066">
        <ele>211.6</ele>
        <time>2019-10-13T23:25:37Z</time>
      </trkpt>
      <trkpt lat="46.89772" lon="2.92061">
        <ele>211.8</ele>
        <time>2019-10-13T23:25:39Z</time>
      </trkpt>
      <trkpt lat="46.89857" lon="2.92">
        <ele>212</ele>
        <time>2019-10-13T23:26:05Z</time>
      </trkpt>
      <trkpt lat="46.89869" lon="2.91994">
        <ele>212.4</ele>
        <time>2019-10-13T23:26:08Z</time>
      </trkpt>
      <trkpt lat="46.8988" lon="2.91991">
        <ele>212.8</ele>
        <time>2019-10-13T23:26:11Z</time>
      </trkpt>
      <trkpt lat="46.89889" lon="2.91992">
        <ele>213</ele>
        <time>2019-10-13T23:26:14Z</time>
      </trkpt>
      <trkpt lat="46.89907" lon="2.91996">
        <ele>212.3</ele>
        <time>2019-10-13T23:26:18Z</time>
      </trkpt>
      <trkpt lat="46.89948" lon="2.92013">
        <ele>210.5</ele>
        <time>2019-10-13T23:26:30Z</time>
      </trkpt>
      <trkpt lat="46.90076" lon="2.92063">
        <ele>206.3</ele>
        <time>2019-10-13T23:27:05Z</time>
      </trkpt>
      <trkpt lat="46.90279" lon="2.92057">
        <ele>199.9</ele>
        <time>2019-10-13T23:27:59Z</time>
      </trkpt>
      <trkpt lat="46.90289" lon="2.92051">
        <ele>200</ele>
        <time>2019-10-13T23:28:02Z</time>
      </trkpt>
      <trkpt lat="46.90298" lon="2.92041">
        <ele>200</ele>
        <time>2019-10-13T23:28:05Z</time>
      </trkpt>
      <trkpt lat="46.90446" lon="2.91766">
        <ele>203.9</ele>
        <time>2019-10-13T23:29:09Z</time>
      </trkpt>
      <trkpt lat="46.905" lon="2.91719">
        <ele>200</ele>
        <time>2019-10-13T23:29:26Z</time>
      </trkpt>
      <trkpt lat="46.90506" lon="2.91713">
        <ele>199.3</ele>
        <time>2019-10-13T23:29:28Z</time>
      </trkpt>
      <trkpt lat="46.90512" lon="2.91704">
        <ele>198.4</ele>
        <time>2019-10-13T23:29:30Z</time>
      </trkpt>
      <trkpt lat="46.90585" lon="2.91548">
        <ele>191</ele>
        <time>2019-10-13T23:30:05Z</time>
      </trkpt>
      <trkpt lat="46.90606" lon="2.91474">
        <ele>191</ele>
        <time>2019-10-13T23:30:19Z</time>
      </trkpt>
      <trkpt lat="46.90649" lon="2.91295">
        <ele>195.5</ele>
        <time>2019-10-13T23:30:54Z</time>
      </trkpt>
      <trkpt lat="46.90668" lon="2.91163">
        <ele>203.2</ele>
        <time>2019-10-13T23:31:19Z</time>
      </trkpt>
      <trkpt lat="46.90708" lon="2.91078">
        <ele>208</ele>
        <time>2019-10-13T23:31:38Z</time>
      </trkpt>
      <trkpt lat="46.90746" lon="2.90955">
        <ele>211.6</ele>
        <time>2019-10-13T23:32:02Z</time>
      </trkpt>
      <trkpt lat="46.90824" lon="2.9083">
        <ele>214</ele>
        <time>2019-10-13T23:32:33Z</time>
      </trkpt>
      <trkpt lat="46.90871" lon="2.90724">
        <ele>213</ele>
        <time>2019-10-13T23:32:56Z</time>
      </trkpt>
      <trkpt lat="46.90957" lon="2.90611">
        <ele>211.5</ele>
        <time>2019-10-13T23:33:27Z</time>
      </trkpt>
      <trkpt lat="46.91241" lon="2.90429">
        <ele>207.1</ele>
        <time>2019-10-13T23:34:50Z</time>
      </trkpt>
      <trkpt lat="46.91272" lon="2.90416">
        <ele>207</ele>
        <time>2019-10-13T23:34:58Z</time>
      </trkpt>
      <trkpt lat="46.91333" lon="2.90364">
        <ele>206.1</ele>
        <time>2019-10-13T23:35:17Z</time>
      </trkpt>
      <trkpt lat="46.91455" lon="2.90228">
        <ele>202</ele>
        <time>2019-10-13T23:35:58Z</time>
      </trkpt>
      <trkpt lat="46.91482" lon="2.90173">
        <ele>200.9</ele>
        <time>2019-10-13T23:36:11Z</time>
      </trkpt>
      <trkpt lat="46.91539" lon="2.90021">
        <ele>198.2</ele>
        <time>2019-10-13T23:36:42Z</time>
      </trkpt>
      <trkpt lat="46.91651" lon="2.89993">
        <ele>195.7</ele>
        <time>2019-10-13T23:37:13Z</time>
      </trkpt>
      <trkpt lat="46.91748" lon="2.89963">
        <ele>194</ele>
        <time>2019-10-13T23:37:39Z</time>
      </trkpt>
      <trkpt lat="46.91751" lon="2.89957">
        <ele>194</ele>
        <time>2019-10-13T23:37:41Z</time>
      </trkpt>
      <trkpt lat="46.91763" lon="2.89933">
        <ele>193.8</ele>
        <time>2019-10-13T23:37:46Z</time>
      </trkpt>
      <trkpt lat="46.91888" lon="2.89995">
        <ele>193.8</ele>
        <time>2019-10-13T23:38:21Z</time>
      </trkpt>
      <trkpt lat="46.91928" lon="2.9001">
        <ele>192.5</ele>
        <time>2019-10-13T23:38:32Z</time>
      </trkpt>
      <trkpt lat="46.91929" lon="2.89957">
        <ele>190.6</ele>
        <time>2019-10-13T23:38:42Z</time>
      </trkpt>
      <trkpt lat="46.91955" lon="2.89861">
        <ele>188.6</ele>
        <time>2019-10-13T23:39:01Z</time>
      </trkpt>
      <trkpt lat="46.91973" lon="2.89869">
        <ele>188</ele>
        <time>2019-10-13T23:39:06Z</time>
      </trkpt>
      <trkpt lat="46.92018" lon="2.89892">
        <ele>188.9</ele>
        <time>2019-10-13T23:39:19Z</time>
      </trkpt>
      <trkpt lat="46.92042" lon="2.89902">
        <ele>188.8</ele>
        <time>2019-10-13T23:39:25Z</time>
      </trkpt>
      <trkpt lat="46.92072" lon="2.89915">
        <ele>189.6</ele>
        <time>2019-10-13T23:39:34Z</time>
      </trkpt>
      <trkpt lat="46.92105" lon="2.89934">
        <ele>189.9</ele>
        <time>2019-10-13T23:39:43Z</time>
      </trkpt>
      <trkpt lat="46.92137" lon="2.89964">
        <ele>190</ele>
        <time>2019-10-13T23:39:53Z</time>
      </trkpt>
      <trkpt lat="46.92155" lon="2.89985">
        <ele>190.3</ele>
        <time>2019-10-13T23:39:59Z</time>
      </trkpt>
      <trkpt lat="46.92198" lon="2.90063">
        <ele>191.9</ele>
        <time>2019-10-13T23:40:18Z</time>
      </trkpt>
      <trkpt lat="46.92228" lon="2.90131">
        <ele>193.7</ele>
        <time>2019-10-13T23:40:32Z</time>
      </trkpt>
      <trkpt lat="46.92264" lon="2.90218">
        <ele>195.4</ele>
        <time>2019-10-13T23:40:51Z</time>
      </trkpt>
      <trkpt lat="46.92285" lon="2.90264">
        <ele>196</ele>
        <time>2019-10-13T23:41:01Z</time>
      </trkpt>
      <trkpt lat="46.92348" lon="2.90259">
        <ele>196.7</ele>
        <time>2019-10-13T23:41:18Z</time>
      </trkpt>
      <trkpt lat="46.92385" lon="2.9026">
        <ele>196.9</ele>
        <time>2019-10-13T23:41:28Z</time>
      </trkpt>
      <trkpt lat="46.92397" lon="2.90264">
        <ele>197.1</ele>
        <time>2019-10-13T23:41:31Z</time>
      </trkpt>
      <trkpt lat="46.92412" lon="2.90281">
        <ele>197.8</ele>
        <time>2019-10-13T23:41:36Z</time>
      </trkpt>
      <trkpt lat="46.92434" lon="2.90308">
        <ele>198</ele>
        <time>2019-10-13T23:41:44Z</time>
      </trkpt>
      <trkpt lat="46.92489" lon="2.90372">
        <ele>199</ele>
        <time>2019-10-13T23:42:03Z</time>
      </trkpt>
      <trkpt lat="46.92528" lon="2.90418">
        <ele>200</ele>
        <time>2019-10-13T23:42:16Z</time>
      </trkpt>
      <trkpt lat="46.92566" lon="2.90457">
        <ele>200.5</ele>
        <time>2019-10-13T23:42:28Z</time>
      </trkpt>
      <trkpt lat="46.92578" lon="2.9047">
        <ele>200.9</ele>
        <time>2019-10-13T23:42:32Z</time>
      </trkpt>
      <trkpt lat="46.92648" lon="2.90557">
        <ele>202.7</ele>
        <time>2019-10-13T23:42:57Z</time>
      </trkpt>
      <trkpt lat="46.92696" lon="2.90618">
        <ele>204</ele>
        <time>2019-10-13T23:43:14Z</time>
      </trkpt>
      <trkpt lat="46.92746" lon="2.9068">
        <ele>205</ele>
        <time>2019-10-13T23:43:31Z</time>
      </trkpt>
      <trkpt lat="46.92764" lon="2.907">
        <ele>205</ele>
        <time>2019-10-13T23:43:37Z</time>
      </trkpt>
      <trkpt lat="46.92779" lon="2.90715">
        <ele>205</ele>
        <time>2019-10-13T23:43:42Z</time>
      </trkpt>
      <trkpt lat="46.92794" lon="2.90724">
        <ele>205</ele>
        <time>2019-10-13T23:43:47Z</time>
      </trkpt>
      <trkpt lat="46.92822" lon="2.90738">
        <ele>205</ele>
        <time>2019-10-13T23:43:54Z</time>
      </trkpt>
      <trkpt lat="46.92846" lon="2.90748">
        <ele>205</ele>
        <time>2019-10-13T23:44:01Z</time>
      </trkpt>
      <trkpt lat="46.92867" lon="2.90754">
        <ele>205.2</ele>
        <time>2019-10-13T23:44:07Z</time>
      </trkpt>
      <trkpt lat="46.92894" lon="2.90762">
        <ele>206</ele>
        <time>2019-10-13T23:44:14Z</time>
      </trkpt>
      <trkpt lat="46.92963" lon="2.90793">
        <ele>206</ele>
        <time>2019-10-13T23:44:34Z</time>
      </trkpt>
      <trkpt lat="46.92977" lon="2.90801">
        <ele>206</ele>
        <time>2019-10-13T23:44:38Z</time>
      </trkpt>
      <trkpt lat="46.92996" lon="2.90816">
        <ele>206</ele>
        <time>2019-10-13T23:44:43Z</time>
      </trkpt>
      <trkpt lat="46.93081" lon="2.90889">
        <ele>205.1</ele>
        <time>2019-10-13T23:45:10Z</time>
      </trkpt>
      <trkpt lat="46.9318" lon="2.90972">
        <ele>202</ele>
        <time>2019-10-13T23:45:40Z</time>
      </trkpt>
      <trkpt lat="46.93204" lon="2.90991">
        <ele>200.9</ele>
        <time>2019-10-13T23:45:47Z</time>
      </trkpt>
      <trkpt lat="46.93237" lon="2.91007">
        <ele>199.6</ele>
        <time>2019-10-13T23:45:57Z</time>
      </trkpt>
      <trkpt lat="46.93251" lon="2.91015">
        <ele>198.9</ele>
        <time>2019-10-13T23:46:01Z</time>
      </trkpt>
      <trkpt lat="46.93274" lon="2.91035">
        <ele>197.7</ele>
        <time>2019-10-13T23:46:08Z</time>
      </trkpt>
      <trkpt lat="46.93295" lon="2.91058">
        <ele>196.3</ele>
        <time>2019-10-13T23:46:15Z</time>
      </trkpt>
      <trkpt lat="46.93307" lon="2.91069">
        <ele>196</ele>
        <time>2019-10-13T23:46:19Z</time>
      </trkpt>
      <trkpt lat="46.93369" lon="2.91114">
        <ele>194.9</ele>
        <time>2019-10-13T23:46:37Z</time>
      </trkpt>
      <trkpt lat="46.93453" lon="2.9117">
        <ele>191.8</ele>
        <time>2019-10-13T23:47:02Z</time>
      </trkpt>
      <trkpt lat="46.93465" lon="2.91175">
        <ele>191.6</ele>
        <time>2019-10-13T23:47:05Z</time>
      </trkpt>
      <trkpt lat="46.93474" lon="2.91177">
        <ele>191.4</ele>
        <time>2019-10-13T23:47:08Z</time>
      </trkpt>
      <trkpt lat="46.93495" lon="2.91175">
        <ele>191.3</ele>
        <time>2019-10-13T23:47:13Z</time>
      </trkpt>
      <trkpt lat="46.93569" lon="2.91165">
        <ele>190.5</ele>
        <time>2019-10-13T23:47:33Z</time>
      </trkpt>
      <trkpt lat="46.93647" lon="2.9117">
        <ele>189.9</ele>
        <time>2019-10-13T23:47:54Z</time>
      </trkpt>
      <trkpt lat="46.93715" lon="2.91176">
        <ele>188.9</ele>
        <time>2019-10-13T23:48:12Z</time>
      </trkpt>
      <trkpt lat="46.93773" lon="2.9118">
        <ele>188.6</ele>
        <time>2019-10-13T23:48:28Z</time>
      </trkpt>
      <trkpt lat="46.93801" lon="2.9118">
        <ele>188</ele>
        <time>2019-10-13T23:48:35Z</time>
      </trkpt>
      <trkpt lat="46.93812" lon="2.91181">
        <ele>188</ele>
        <time>2019-10-13T23:48:38Z</time>
      </trkpt>
      <trkpt lat="46.93843" lon="2.91189">
        <ele>188.3</ele>
        <time>2019-10-13T23:48:46Z</time>
      </trkpt>
      <trkpt lat="46.93896" lon="2.91216">
        <ele>188.4</ele>
        <time>2019-10-13T23:49:01Z</time>
      </trkpt>
      <trkpt lat="46.9392" lon="2.91227">
        <ele>188.1</ele>
        <time>2019-10-13T23:49:08Z</time>
      </trkpt>
      <trkpt lat="46.93971" lon="2.9125">
        <ele>188</ele>
        <time>2019-10-13T23:49:22Z</time>
      </trkpt>
      <trkpt lat="46.94029" lon="2.91267">
        <ele>187.6</ele>
        <time>2019-10-13T23:49:38Z</time>
      </trkpt>
      <trkpt lat="46.94046" lon="2.91274">
        <ele>187.2</ele>
        <time>2019-10-13T23:49:43Z</time>
      </trkpt>
      <trkpt lat="46.94057" lon="2.91286">
        <ele>187.2</ele>
        <time>2019-10-13T23:49:47Z</time>
      </trkpt>
      <trkpt lat="46.94067" lon="2.91307">
        <ele>187.2</ele>
        <time>2019-10-13T23:49:51Z</time>
      </trkpt>
      <trkpt lat="46.94092" lon="2.91366">
        <ele>188</ele>
        <time>2019-10-13T23:50:04Z</time>
      </trkpt>
      <trkpt lat="46.94116" lon="2.91418">
        <ele>188.8</ele>
        <time>2019-10-13T23:50:15Z</time>
      </trkpt>
      <trkpt lat="46.94134" lon="2.9145">
        <ele>188</ele>
        <time>2019-10-13T23:50:23Z</time>
      </trkpt>
      <trkpt lat="46.94126" lon="2.91468">
        <ele>188</ele>
        <time>2019-10-13T23:50:27Z</time>
      </trkpt>
      <trkpt lat="46.941" lon="2.91529">
        <ele>187</ele>
        <time>2019-10-13T23:50:40Z</time>
      </trkpt>
      <trkpt lat="46.9409" lon="2.91559">
        <ele>185.8</ele>
        <time>2019-10-13T23:50:46Z</time>
      </trkpt>
      <trkpt lat="46.94089" lon="2.91579">
        <ele>185</ele>
        <time>2019-10-13T23:50:50Z</time>
      </trkpt>
      <trkpt lat="46.94101" lon="2.91631">
        <ele>183.7</ele>
        <time>2019-10-13T23:51:00Z</time>
      </trkpt>
      <trkpt lat="46.9412" lon="2.91704">
        <ele>182.4</ele>
        <time>2019-10-13T23:51:14Z</time>
      </trkpt>
      <trkpt lat="46.94133" lon="2.9177">
        <ele>184</ele>
        <time>2019-10-13T23:51:27Z</time>
      </trkpt>
      <trkpt lat="46.94139" lon="2.91793">
        <ele>185</ele>
        <time>2019-10-13T23:51:31Z</time>
      </trkpt>
      <trkpt lat="46.94145" lon="2.91807">
        <ele>184.9</ele>
        <time>2019-10-13T23:51:34Z</time>
      </trkpt>
      <trkpt lat="46.94161" lon="2.9183">
        <ele>187.2</ele>
        <time>2019-10-13T23:51:40Z</time>
      </trkpt>
      <trkpt lat="46.94191" lon="2.91874">
        <ele>193.3</ele>
        <time>2019-10-13T23:51:51Z</time>
      </trkpt>
      <trkpt lat="46.94225" lon="2.91924">
        <ele>196.1</ele>
        <time>2019-10-13T23:52:04Z</time>
      </trkpt>
      <trkpt lat="46.9424" lon="2.91946">
        <ele>195.9</ele>
        <time>2019-10-13T23:52:10Z</time>
      </trkpt>
      <trkpt lat="46.9425" lon="2.91969">
        <ele>194.2</ele>
        <time>2019-10-13T23:52:15Z</time>
      </trkpt>
      <trkpt lat="46.94295" lon="2.92098">
        <ele>189.6</ele>
        <time>2019-10-13T23:52:41Z</time>
      </trkpt>
      <trkpt lat="46.94337" lon="2.92223">
        <ele>190</ele>
        <time>2019-10-13T23:53:07Z</time>
      </trkpt>
      <trkpt lat="46.94355" lon="2.92291">
        <ele>189.4</ele>
        <time>2019-10-13T23:53:20Z</time>
      </trkpt>
      <trkpt lat="46.94389" lon="2.92419">
        <ele>185.9</ele>
        <time>2019-10-13T23:53:45Z</time>
      </trkpt>
      <trkpt lat="46.94409" lon="2.92498">
        <ele>184</ele>
        <time>2019-10-13T23:54:00Z</time>
      </trkpt>
      <trkpt lat="46.94435" lon="2.9258">
        <ele>183</ele>
        <time>2019-10-13T23:54:17Z</time>
      </trkpt>
      <trkpt lat="46.94479" lon="2.927">
        <ele>183</ele>
        <time>2019-10-13T23:54:42Z</time>
      </trkpt>
      <trkpt lat="46.94542" lon="2.92868">
        <ele>181</ele>
        <time>2019-10-13T23:55:17Z</time>
      </trkpt>
      <trkpt lat="46.94572" lon="2.92949">
        <ele>180.3</ele>
        <time>2019-10-13T23:55:34Z</time>
      </trkpt>
      <trkpt lat="46.94605" lon="2.93046">
        <ele>180</ele>
        <time>2019-10-13T23:55:53Z</time>
      </trkpt>
      <trkpt lat="46.94616" lon="2.93073">
        <ele>180</ele>
        <time>2019-10-13T23:55:59Z</time>
      </trkpt>
      <trkpt lat="46.94626" lon="2.93087">
        <ele>180</ele>
        <time>2019-10-13T23:56:03Z</time>
      </trkpt>
      <trkpt lat="46.94636" lon="2.93097">
        <ele>180</ele>
        <time>2019-10-13T23:56:06Z</time>
      </trkpt>
      <trkpt lat="46.94646" lon="2.93105">
        <ele>180.2</ele>
        <time>2019-10-13T23:56:09Z</time>
      </trkpt>
      <trkpt lat="46.9466" lon="2.93116">
        <ele>180.6</ele>
        <time>2019-10-13T23:56:13Z</time>
      </trkpt>
      <trkpt lat="46.94674" lon="2.93131">
        <ele>180.2</ele>
        <time>2019-10-13T23:56:18Z</time>
      </trkpt>
      <trkpt lat="46.94683" lon="2.93149">
        <ele>180</ele>
        <time>2019-10-13T23:56:22Z</time>
      </trkpt>
      <trkpt lat="46.947" lon="2.93183">
        <ele>180</ele>
        <time>2019-10-13T23:56:30Z</time>
      </trkpt>
      <trkpt lat="46.94715" lon="2.93205">
        <ele>180</ele>
        <time>2019-10-13T23:56:35Z</time>
      </trkpt>
      <trkpt lat="46.94743" lon="2.9324">
        <ele>179.8</ele>
        <time>2019-10-13T23:56:45Z</time>
      </trkpt>
      <trkpt lat="46.94758" lon="2.93259">
        <ele>179.8</ele>
        <time>2019-10-13T23:56:50Z</time>
      </trkpt>
      <trkpt lat="46.9477" lon="2.9328">
        <ele>179.7</ele>
        <time>2019-10-13T23:56:55Z</time>
      </trkpt>
      <trkpt lat="46.94778" lon="2.93297">
        <ele>180</ele>
        <time>2019-10-13T23:56:59Z</time>
      </trkpt>
      <trkpt lat="46.94785" lon="2.93313">
        <ele>179.8</ele>
        <time>2019-10-13T23:57:03Z</time>
      </trkpt>
      <trkpt lat="46.94795" lon="2.93327">
        <ele>179.7</ele>
        <time>2019-10-13T23:57:06Z</time>
      </trkpt>
      <trkpt lat="46.94822" lon="2.93359">
        <ele>179.6</ele>
        <time>2019-10-13T23:57:16Z</time>
      </trkpt>
      <trkpt lat="46.94848" lon="2.93384">
        <ele>179.1</ele>
        <time>2019-10-13T23:57:24Z</time>
      </trkpt>
      <trkpt lat="46.94883" lon="2.9341">
        <ele>179</ele>
        <time>2019-10-13T23:57:34Z</time>
      </trkpt>
      <trkpt lat="46.94902" lon="2.93424">
        <ele>179</ele>
        <time>2019-10-13T23:57:40Z</time>
      </trkpt>
      <trkpt lat="46.94921" lon="2.93441">
        <ele>179</ele>
        <time>2019-10-13T23:57:46Z</time>
      </trkpt>
      <trkpt lat="46.94932" lon="2.93456">
        <ele>179</ele>
        <time>2019-10-13T23:57:50Z</time>
      </trkpt>
      <trkpt lat="46.94941" lon="2.93471">
        <ele>179</ele>
        <time>2019-10-13T23:57:54Z</time>
      </trkpt>
      <trkpt lat="46.94947" lon="2.93487">
        <ele>179.1</ele>
        <time>2019-10-13T23:57:57Z</time>
      </trkpt>
      <trkpt lat="46.94958" lon="2.93536">
        <ele>179.5</ele>
        <time>2019-10-13T23:58:06Z</time>
      </trkpt>
      <trkpt lat="46.94967" lon="2.93569">
        <ele>179.4</ele>
        <time>2019-10-13T23:58:13Z</time>
      </trkpt>
      <trkpt lat="46.94975" lon="2.9359">
        <ele>179.1</ele>
        <time>2019-10-13T23:58:17Z</time>
      </trkpt>
      <trkpt lat="46.94983" lon="2.93608">
        <ele>179.4</ele>
        <time>2019-10-13T23:58:21Z</time>
      </trkpt>
      <trkpt lat="46.94994" lon="2.93628">
        <ele>179.3</ele>
        <time>2019-10-13T23:58:26Z</time>
      </trkpt>
      <trkpt lat="46.95025" lon="2.93687">
        <ele>179.2</ele>
        <time>2019-10-13T23:58:40Z</time>
      </trkpt>
      <trkpt lat="46.95045" lon="2.93716">
        <ele>179.5</ele>
        <time>2019-10-13T23:58:47Z</time>
      </trkpt>
      <trkpt lat="46.9506" lon="2.93738">
        <ele>180.5</ele>
        <time>2019-10-13T23:58:53Z</time>
      </trkpt>
      <trkpt lat="46.95073" lon="2.93751">
        <ele>181.3</ele>
        <time>2019-10-13T23:58:57Z</time>
      </trkpt>
      <trkpt lat="46.95083" lon="2.93757">
        <ele>182.5</ele>
        <time>2019-10-13T23:59:00Z</time>
      </trkpt>
      <trkpt lat="46.95099" lon="2.93773">
        <ele>181.6</ele>
        <time>2019-10-13T23:59:05Z</time>
      </trkpt>
      <trkpt lat="46.95107" lon="2.93787">
        <ele>180.4</ele>
        <time>2019-10-13T23:59:08Z</time>
      </trkpt>
      <trkpt lat="46.95115" lon="2.93803">
        <ele>180.1</ele>
        <time>2019-10-13T23:59:12Z</time>
      </trkpt>
      <trkpt lat="46.95122" lon="2.93821">
        <ele>180.4</ele>
        <time>2019-10-13T23:59:16Z</time>
      </trkpt>
      <trkpt lat="46.95132" lon="2.93842">
        <ele>180.8</ele>
        <time>2019-10-13T23:59:20Z</time>
      </trkpt>
      <trkpt lat="46.95149" lon="2.93871">
        <ele>180.8</ele>
        <time>2019-10-13T23:59:27Z</time>
      </trkpt>
      <trkpt lat="46.95173" lon="2.93906">
        <ele>180.3</ele>
        <time>2019-10-13T23:59:36Z</time>
      </trkpt>
      <trkpt lat="46.95193" lon="2.93936">
        <ele>180</ele>
        <time>2019-10-13T23:59:44Z</time>
      </trkpt>
      <trkpt lat="46.95156" lon="2.9402">
        <ele>179.2</ele>
        <time>2019-10-14T00:00:02Z</time>
      </trkpt>
      <trkpt lat="46.95181" lon="2.94046">
        <ele>179</ele>
        <time>2019-10-14T00:00:10Z</time>
      </trkpt>
      <trkpt lat="46.95193" lon="2.94063">
        <ele>179</ele>
        <time>2019-10-14T00:00:15Z</time>
      </trkpt>
      <trkpt lat="46.95209" lon="2.94092">
        <ele>179</ele>
        <time>2019-10-14T00:00:22Z</time>
      </trkpt>
      <trkpt lat="46.95226" lon="2.94132">
        <ele>179</ele>
        <time>2019-10-14T00:00:30Z</time>
      </trkpt>
      <trkpt lat="46.95254" lon="2.94205">
        <ele>179</ele>
        <time>2019-10-14T00:00:46Z</time>
      </trkpt>
      <trkpt lat="46.95284" lon="2.94285">
        <ele>179</ele>
        <time>2019-10-14T00:01:02Z</time>
      </trkpt>
      <trkpt lat="46.95296" lon="2.94313">
        <ele>179</ele>
        <time>2019-10-14T00:01:08Z</time>
      </trkpt>
      <trkpt lat="46.9531" lon="2.94338">
        <ele>179</ele>
        <time>2019-10-14T00:01:14Z</time>
      </trkpt>
      <trkpt lat="46.95316" lon="2.9435">
        <ele>179</ele>
        <time>2019-10-14T00:01:17Z</time>
      </trkpt>
      <trkpt lat="46.95298" lon="2.94377">
        <ele>178.7</ele>
        <time>2019-10-14T00:01:24Z</time>
      </trkpt>
      <trkpt lat="46.95291" lon="2.94388">
        <ele>178.5</ele>
        <time>2019-10-14T00:01:27Z</time>
      </trkpt>
      <trkpt lat="46.95278" lon="2.94408">
        <ele>179.4</ele>
        <time>2019-10-14T00:01:32Z</time>
      </trkpt>
      <trkpt lat="46.95223" lon="2.94485">
        <ele>179</ele>
        <time>2019-10-14T00:01:52Z</time>
      </trkpt>
      <trkpt lat="46.95213" lon="2.945">
        <ele>179</ele>
        <time>2019-10-14T00:01:56Z</time>
      </trkpt>
      <trkpt lat="46.95211" lon="2.94504">
        <ele>179</ele>
        <time>2019-10-14T00:01:57Z</time>
      </trkpt>
      <trkpt lat="46.95201" lon="2.94519">
        <ele>179</ele>
        <time>2019-10-14T00:02:00Z</time>
      </trkpt>
      <trkpt lat="46.95168" lon="2.94485">
        <ele>178.5</ele>
        <time>2019-10-14T00:02:11Z</time>
      </trkpt>
      <trkpt lat="46.95126" lon="2.94447">
        <ele>178.3</ele>
        <time>2019-10-14T00:02:24Z</time>
      </trkpt>
      <trkpt lat="46.9511" lon="2.94432">
        <ele>178</ele>
        <time>2019-10-14T00:02:29Z</time>
      </trkpt>
      <trkpt lat="46.95103" lon="2.9443">
        <ele>178.3</ele>
        <time>2019-10-14T00:02:31Z</time>
      </trkpt>
      <trkpt lat="46.95077" lon="2.94424">
        <ele>179</ele>
        <time>2019-10-14T00:02:38Z</time>
      </trkpt>
      <trkpt lat="46.95067" lon="2.94422">
        <ele>179</ele>
        <time>2019-10-14T00:02:41Z</time>
      </trkpt>
      <trkpt lat="46.9506" lon="2.9442">
        <ele>179</ele>
        <time>2019-10-14T00:02:43Z</time>
      </trkpt>
      <trkpt lat="46.95055" lon="2.94416">
        <ele>179</ele>
        <time>2019-10-14T00:02:45Z</time>
      </trkpt>
      <trkpt lat="46.95008" lon="2.94372">
        <ele>179.4</ele>
        <time>2019-10-14T00:02:59Z</time>
      </trkpt>
      <trkpt lat="46.95004" lon="2.94368">
        <ele>179.6</ele>
        <time>2019-10-14T00:03:01Z</time>
      </trkpt>
      <trkpt lat="46.94996" lon="2.94386">
        <ele>179.1</ele>
        <time>2019-10-14T00:03:05Z</time>
      </trkpt>
      <trkpt lat="46.94958" lon="2.94469">
        <ele>179</ele>
        <time>2019-10-14T00:03:23Z</time>
      </trkpt>
      <trkpt lat="46.94962" lon="2.94475">
        <ele>179.1</ele>
        <time>2019-10-14T00:03:24Z</time>
      </trkpt>
      <trkpt lat="46.94965" lon="2.94479">
        <ele>179.2</ele>
        <time>2019-10-14T00:03:25Z</time>
      </trkpt>
      <trkpt lat="46.94969" lon="2.94486">
        <ele>179.5</ele>
        <time>2019-10-14T00:03:27Z</time>
      </trkpt>
      <trkpt lat="46.94996" lon="2.9452">
        <ele>179.8</ele>
        <time>2019-10-14T00:03:37Z</time>
      </trkpt>
      <trkpt lat="46.95029" lon="2.9456">
        <ele>179.9</ele>
        <time>2019-10-14T00:03:48Z</time>
      </trkpt>
      <trkpt lat="46.95036" lon="2.94568">
        <ele>179.5</ele>
        <time>2019-10-14T00:03:50Z</time>
      </trkpt>
      <trkpt lat="46.95045" lon="2.94575">
        <ele>179.2</ele>
        <time>2019-10-14T00:03:53Z</time>
      </trkpt>
      <trkpt lat="46.95036" lon="2.94588">
        <ele>179.7</ele>
        <time>2019-10-14T00:03:57Z</time>
      </trkpt>
      <trkpt lat="46.9502" lon="2.94626">
        <ele>180</ele>
        <time>2019-10-14T00:04:05Z</time>
      </trkpt>
      <trkpt lat="46.95008" lon="2.9466">
        <ele>180</ele>
        <time>2019-10-14T00:04:12Z</time>
      </trkpt>
      <trkpt lat="46.94996" lon="2.94694">
        <ele>180.1</ele>
        <time>2019-10-14T00:04:19Z</time>
      </trkpt>
      <trkpt lat="46.94993" lon="2.94701">
        <ele>180.5</ele>
        <time>2019-10-14T00:04:20Z</time>
      </trkpt>
      <trkpt lat="46.94988" lon="2.94716">
        <ele>181.2</ele>
        <time>2019-10-14T00:04:23Z</time>
      </trkpt>
      <trkpt lat="46.94923" lon="2.94802">
        <ele>184.8</ele>
        <time>2019-10-14T00:04:47Z</time>
      </trkpt>
      <trkpt lat="46.9492" lon="2.94799">
        <ele>184.9</ele>
        <time>2019-10-14T00:04:48Z</time>
      </trkpt>
      <trkpt lat="46.94888" lon="2.94835">
        <ele>186.1</ele>
        <time>2019-10-14T00:04:58Z</time>
      </trkpt>
      <trkpt lat="46.94871" lon="2.94863">
        <ele>187.3</ele>
        <time>2019-10-14T00:05:05Z</time>
      </trkpt>
      <trkpt lat="46.94853" lon="2.94895">
        <ele>187.9</ele>
        <time>2019-10-14T00:05:13Z</time>
      </trkpt>
      <trkpt lat="46.94851" lon="2.94901">
        <ele>187.7</ele>
        <time>2019-10-14T00:05:14Z</time>
      </trkpt>
      <trkpt lat="46.94738" lon="2.95258">
        <ele>193.7</ele>
        <time>2019-10-14T00:06:26Z</time>
      </trkpt>
      <trkpt lat="46.94715" lon="2.95332">
        <ele>195</ele>
        <time>2019-10-14T00:06:41Z</time>
      </trkpt>
      <trkpt lat="46.94692" lon="2.95406">
        <ele>195</ele>
        <time>2019-10-14T00:06:55Z</time>
      </trkpt>
      <trkpt lat="46.94681" lon="2.95446">
        <ele>195.5</ele>
        <time>2019-10-14T00:07:03Z</time>
      </trkpt>
      <trkpt lat="46.94677" lon="2.9546">
        <ele>195.5</ele>
        <time>2019-10-14T00:07:06Z</time>
      </trkpt>
      <trkpt lat="46.94672" lon="2.9552">
        <ele>195.2</ele>
        <time>2019-10-14T00:07:17Z</time>
      </trkpt>
      <trkpt lat="46.94658" lon="2.95586">
        <ele>194.3</ele>
        <time>2019-10-14T00:07:30Z</time>
      </trkpt>
      <trkpt lat="46.94647" lon="2.95638">
        <ele>194.9</ele>
        <time>2019-10-14T00:07:40Z</time>
      </trkpt>
      <trkpt lat="46.94629" lon="2.95702">
        <ele>195.5</ele>
        <time>2019-10-14T00:07:52Z</time>
      </trkpt>
      <trkpt lat="46.94619" lon="2.95738">
        <ele>196.4</ele>
        <time>2019-10-14T00:07:59Z</time>
      </trkpt>
      <trkpt lat="46.94612" lon="2.95779">
        <ele>197</ele>
        <time>2019-10-14T00:08:07Z</time>
      </trkpt>
      <trkpt lat="46.94602" lon="2.95851">
        <ele>197.7</ele>
        <time>2019-10-14T00:08:20Z</time>
      </trkpt>
      <trkpt lat="46.94601" lon="2.95887">
        <ele>198</ele>
        <time>2019-10-14T00:08:27Z</time>
      </trkpt>
      <trkpt lat="46.94592" lon="2.95966">
        <ele>199.8</ele>
        <time>2019-10-14T00:08:42Z</time>
      </trkpt>
      <trkpt lat="46.94576" lon="2.96101">
        <ele>201</ele>
        <time>2019-10-14T00:09:07Z</time>
      </trkpt>
      <trkpt lat="46.94571" lon="2.96146">
        <ele>202</ele>
        <time>2019-10-14T00:09:15Z</time>
      </trkpt>
      <trkpt lat="46.94564" lon="2.96199">
        <ele>203</ele>
        <time>2019-10-14T00:09:25Z</time>
      </trkpt>
      <trkpt lat="46.94544" lon="2.96324">
        <ele>204</ele>
        <time>2019-10-14T00:09:48Z</time>
      </trkpt>
      <trkpt lat="46.94527" lon="2.96423">
        <ele>205</ele>
        <time>2019-10-14T00:10:07Z</time>
      </trkpt>
      <trkpt lat="46.94475" lon="2.96711">
        <ele>208.9</ele>
        <time>2019-10-14T00:11:01Z</time>
      </trkpt>
      <trkpt lat="46.9442" lon="2.9703">
        <ele>211.8</ele>
        <time>2019-10-14T00:12:01Z</time>
      </trkpt>
      <trkpt lat="46.94411" lon="2.97073">
        <ele>212</ele>
        <time>2019-10-14T00:12:09Z</time>
      </trkpt>
      <trkpt lat="46.94409" lon="2.97082">
        <ele>212</ele>
        <time>2019-10-14T00:12:11Z</time>
      </trkpt>
      <trkpt lat="46.94404" lon="2.97118">
        <ele>212</ele>
        <time>2019-10-14T00:12:18Z</time>
      </trkpt>
      <trkpt lat="46.94399" lon="2.97168">
        <ele>212</ele>
        <time>2019-10-14T00:12:27Z</time>
      </trkpt>
      <trkpt lat="46.94396" lon="2.97213">
        <ele>211.6</ele>
        <time>2019-10-14T00:12:35Z</time>
      </trkpt>
      <trkpt lat="46.94393" lon="2.97234">
        <ele>212.1</ele>
        <time>2019-10-14T00:12:39Z</time>
      </trkpt>
      <trkpt lat="46.94392" lon="2.97241">
        <ele>212.4</ele>
        <time>2019-10-14T00:12:40Z</time>
      </trkpt>
      <trkpt lat="46.94383" lon="2.97281">
        <ele>212.2</ele>
        <time>2019-10-14T00:12:48Z</time>
      </trkpt>
      <trkpt lat="46.94373" lon="2.97311">
        <ele>212.7</ele>
        <time>2019-10-14T00:12:54Z</time>
      </trkpt>
      <trkpt lat="46.94342" lon="2.97374">
        <ele>214</ele>
        <time>2019-10-14T00:13:08Z</time>
      </trkpt>
      <trkpt lat="46.94256" lon="2.97511">
        <ele>215.5</ele>
        <time>2019-10-14T00:13:42Z</time>
      </trkpt>
      <trkpt lat="46.93964" lon="2.97955">
        <ele>217</ele>
        <time>2019-10-14T00:15:35Z</time>
      </trkpt>
      <trkpt lat="46.93871" lon="2.98093">
        <ele>215</ele>
        <time>2019-10-14T00:16:10Z</time>
      </trkpt>
      <trkpt lat="46.93848" lon="2.98127">
        <ele>214.2</ele>
        <time>2019-10-14T00:16:19Z</time>
      </trkpt>
      <trkpt lat="46.93819" lon="2.9818">
        <ele>213.3</ele>
        <time>2019-10-14T00:16:31Z</time>
      </trkpt>
      <trkpt lat="46.938" lon="2.98233">
        <ele>213</ele>
        <time>2019-10-14T00:16:42Z</time>
      </trkpt>
      <trkpt lat="46.93778" lon="2.98298">
        <ele>212</ele>
        <time>2019-10-14T00:16:55Z</time>
      </trkpt>
      <trkpt lat="46.93702" lon="2.98526">
        <ele>212.7</ele>
        <time>2019-10-14T00:17:42Z</time>
      </trkpt>
      <trkpt lat="46.93472" lon="2.99264">
        <ele>204.5</ele>
        <time>2019-10-14T00:20:10Z</time>
      </trkpt>
      <trkpt lat="46.93451" lon="2.99326">
        <ele>202.1</ele>
        <time>2019-10-14T00:20:22Z</time>
      </trkpt>
      <trkpt lat="46.9344" lon="2.99356">
        <ele>201.2</ele>
        <time>2019-10-14T00:20:29Z</time>
      </trkpt>
      <trkpt lat="46.93425" lon="2.9938">
        <ele>202</ele>
        <time>2019-10-14T00:20:35Z</time>
      </trkpt>
      <trkpt lat="46.93398" lon="2.99405">
        <ele>202.5</ele>
        <time>2019-10-14T00:20:43Z</time>
      </trkpt>
      <trkpt lat="46.93362" lon="2.9944">
        <ele>203</ele>
        <time>2019-10-14T00:20:55Z</time>
      </trkpt>
      <trkpt lat="46.93126" lon="2.99676">
        <ele>198.7</ele>
        <time>2019-10-14T00:22:11Z</time>
      </trkpt>
      <trkpt lat="46.92936" lon="2.99859">
        <ele>201.9</ele>
        <time>2019-10-14T00:23:12Z</time>
      </trkpt>
      <trkpt lat="46.92861" lon="2.99931">
        <ele>207</ele>
        <time>2019-10-14T00:23:36Z</time>
      </trkpt>
      <trkpt lat="46.9219" lon="3.00555">
        <ele>206.2</ele>
        <time>2019-10-14T00:27:08Z</time>
      </trkpt>
      <trkpt lat="46.92031" lon="3.00703">
        <ele>208</ele>
        <time>2019-10-14T00:27:58Z</time>
      </trkpt>
      <trkpt lat="46.91873" lon="3.00849">
        <ele>205.8</ele>
        <time>2019-10-14T00:28:48Z</time>
      </trkpt>
      <trkpt lat="46.91643" lon="3.01064">
        <ele>204.4</ele>
        <time>2019-10-14T00:30:01Z</time>
      </trkpt>
      <trkpt lat="46.91599" lon="3.01107">
        <ele>204.5</ele>
        <time>2019-10-14T00:30:15Z</time>
      </trkpt>
      <trkpt lat="46.91578" lon="3.01124">
        <ele>204.5</ele>
        <time>2019-10-14T00:30:22Z</time>
      </trkpt>
      <trkpt lat="46.91552" lon="3.01139">
        <ele>205</ele>
        <time>2019-10-14T00:30:29Z</time>
      </trkpt>
      <trkpt lat="46.91529" lon="3.01148">
        <ele>205</ele>
        <time>2019-10-14T00:30:36Z</time>
      </trkpt>
      <trkpt lat="46.91498" lon="3.01152">
        <ele>205</ele>
        <time>2019-10-14T00:30:44Z</time>
      </trkpt>
      <trkpt lat="46.91454" lon="3.01148">
        <ele>204.2</ele>
        <time>2019-10-14T00:30:56Z</time>
      </trkpt>
      <trkpt lat="46.91359" lon="3.01131">
        <ele>202.6</ele>
        <time>2019-10-14T00:31:21Z</time>
      </trkpt>
      <trkpt lat="46.91196" lon="3.01095">
        <ele>195</ele>
        <time>2019-10-14T00:32:05Z</time>
      </trkpt>
      <trkpt lat="46.91169" lon="3.0124">
        <ele>195.1</ele>
        <time>2019-10-14T00:32:33Z</time>
      </trkpt>
      <trkpt lat="46.91152" lon="3.0132">
        <ele>194.2</ele>
        <time>2019-10-14T00:32:48Z</time>
      </trkpt>
      <trkpt lat="46.91147" lon="3.01367">
        <ele>193.1</ele>
        <time>2019-10-14T00:32:57Z</time>
      </trkpt>
      <trkpt lat="46.9115" lon="3.01412">
        <ele>191.1</ele>
        <time>2019-10-14T00:33:05Z</time>
      </trkpt>
      <trkpt lat="46.91164" lon="3.01465">
        <ele>190.1</ele>
        <time>2019-10-14T00:33:15Z</time>
      </trkpt>
      <trkpt lat="46.91263" lon="3.01805">
        <ele>184</ele>
        <time>2019-10-14T00:34:23Z</time>
      </trkpt>
      <trkpt lat="46.91272" lon="3.01838">
        <ele>185.2</ele>
        <time>2019-10-14T00:34:29Z</time>
      </trkpt>
      <trkpt lat="46.91275" lon="3.01851">
        <ele>185.2</ele>
        <time>2019-10-14T00:34:32Z</time>
      </trkpt>
      <trkpt lat="46.91281" lon="3.01873">
        <ele>185.3</ele>
        <time>2019-10-14T00:34:36Z</time>
      </trkpt>
      <trkpt lat="46.91285" lon="3.01935">
        <ele>187.9</ele>
        <time>2019-10-14T00:34:47Z</time>
      </trkpt>
      <trkpt lat="46.91276" lon="3.02005">
        <ele>188.9</ele>
        <time>2019-10-14T00:35:00Z</time>
      </trkpt>
      <trkpt lat="46.91258" lon="3.02056">
        <ele>189</ele>
        <time>2019-10-14T00:35:11Z</time>
      </trkpt>
      <trkpt lat="46.91181" lon="3.02195">
        <ele>193</ele>
        <time>2019-10-14T00:35:44Z</time>
      </trkpt>
      <trkpt lat="46.9111" lon="3.02318">
        <ele>199.9</ele>
        <time>2019-10-14T00:36:13Z</time>
      </trkpt>
      <trkpt lat="46.91094" lon="3.02364">
        <ele>203.4</ele>
        <time>2019-10-14T00:36:22Z</time>
      </trkpt>
      <trkpt lat="46.91086" lon="3.02416">
        <ele>204.9</ele>
        <time>2019-10-14T00:36:32Z</time>
      </trkpt>
      <trkpt lat="46.91066" lon="3.02725">
        <ele>201.5</ele>
        <time>2019-10-14T00:37:29Z</time>
      </trkpt>
      <trkpt lat="46.91049" lon="3.02971">
        <ele>205</ele>
        <time>2019-10-14T00:38:14Z</time>
      </trkpt>
      <trkpt lat="46.91038" lon="3.03132">
        <ele>207.6</ele>
        <time>2019-10-14T00:38:43Z</time>
      </trkpt>
      <trkpt lat="46.91008" lon="3.03543">
        <ele>207.5</ele>
        <time>2019-10-14T00:39:59Z</time>
      </trkpt>
      <trkpt lat="46.91007" lon="3.03566">
        <ele>208</ele>
        <time>2019-10-14T00:40:03Z</time>
      </trkpt>
      <trkpt lat="46.91005" lon="3.03592">
        <ele>208.3</ele>
        <time>2019-10-14T00:40:08Z</time>
      </trkpt>
      <trkpt lat="46.90976" lon="3.04023">
        <ele>203.2</ele>
        <time>2019-10-14T00:41:27Z</time>
      </trkpt>
      <trkpt lat="46.90971" lon="3.04089">
        <ele>200.8</ele>
        <time>2019-10-14T00:41:39Z</time>
      </trkpt>
      <trkpt lat="46.90964" lon="3.04193">
        <ele>199.1</ele>
        <time>2019-10-14T00:41:58Z</time>
      </trkpt>
      <trkpt lat="46.90954" lon="3.04284">
        <ele>198.5</ele>
        <time>2019-10-14T00:42:15Z</time>
      </trkpt>
      <trkpt lat="46.90937" lon="3.04349">
        <ele>196.3</ele>
        <time>2019-10-14T00:42:28Z</time>
      </trkpt>
      <trkpt lat="46.90915" lon="3.04394">
        <ele>193.9</ele>
        <time>2019-10-14T00:42:38Z</time>
      </trkpt>
      <trkpt lat="46.9077" lon="3.04582">
        <ele>187.1</ele>
        <time>2019-10-14T00:43:30Z</time>
      </trkpt>
      <trkpt lat="46.9076" lon="3.04595">
        <ele>186.3</ele>
        <time>2019-10-14T00:43:33Z</time>
      </trkpt>
      <trkpt lat="46.90724" lon="3.04641">
        <ele>184</ele>
        <time>2019-10-14T00:43:46Z</time>
      </trkpt>
      <trkpt lat="46.90712" lon="3.04672">
        <ele>183</ele>
        <time>2019-10-14T00:43:52Z</time>
      </trkpt>
      <trkpt lat="46.90703" lon="3.0471">
        <ele>180.7</ele>
        <time>2019-10-14T00:44:00Z</time>
      </trkpt>
      <trkpt lat="46.90697" lon="3.04748">
        <ele>179.2</ele>
        <time>2019-10-14T00:44:07Z</time>
      </trkpt>
      <trkpt lat="46.90696" lon="3.04762">
        <ele>178.6</ele>
        <time>2019-10-14T00:44:09Z</time>
      </trkpt>
      <trkpt lat="46.90696" lon="3.04767">
        <ele>178.4</ele>
        <time>2019-10-14T00:44:10Z</time>
      </trkpt>
      <trkpt lat="46.90774" lon="3.04791">
        <ele>178.5</ele>
        <time>2019-10-14T00:44:32Z</time>
      </trkpt>
      <trkpt lat="46.90846" lon="3.04822">
        <ele>174.7</ele>
        <time>2019-10-14T00:44:52Z</time>
      </trkpt>
      <trkpt lat="46.90895" lon="3.04823">
        <ele>173.8</ele>
        <time>2019-10-14T00:45:05Z</time>
      </trkpt>
      <trkpt lat="46.90931" lon="3.04816">
        <ele>174.5</ele>
        <time>2019-10-14T00:45:14Z</time>
      </trkpt>
      <trkpt lat="46.90994" lon="3.04819">
        <ele>175.3</ele>
        <time>2019-10-14T00:45:31Z</time>
      </trkpt>
      <trkpt lat="46.91156" lon="3.04885">
        <ele>176.2</ele>
        <time>2019-10-14T00:46:16Z</time>
      </trkpt>
      <trkpt lat="46.91272" lon="3.04931">
        <ele>176</ele>
        <time>2019-10-14T00:46:48Z</time>
      </trkpt>
      <trkpt lat="46.91398" lon="3.04976">
        <ele>177.2</ele>
        <time>2019-10-14T00:47:23Z</time>
      </trkpt>
      <trkpt lat="46.91681" lon="3.05107">
        <ele>176.7</ele>
        <time>2019-10-14T00:48:42Z</time>
      </trkpt>
      <trkpt lat="46.91744" lon="3.05149">
        <ele>176</ele>
        <time>2019-10-14T00:49:01Z</time>
      </trkpt>
      <trkpt lat="46.91792" lon="3.05191">
        <ele>175.5</ele>
        <time>2019-10-14T00:49:16Z</time>
      </trkpt>
      <trkpt lat="46.91937" lon="3.0539">
        <ele>173.4</ele>
        <time>2019-10-14T00:50:09Z</time>
      </trkpt>
      <trkpt lat="46.91987" lon="3.05446">
        <ele>174</ele>
        <time>2019-10-14T00:50:26Z</time>
      </trkpt>
      <trkpt lat="46.92017" lon="3.05468">
        <ele>174.5</ele>
        <time>2019-10-14T00:50:35Z</time>
      </trkpt>
      <trkpt lat="46.92093" lon="3.05504">
        <ele>175.3</ele>
        <time>2019-10-14T00:50:56Z</time>
      </trkpt>
      <trkpt lat="46.92128" lon="3.05517">
        <ele>176.8</ele>
        <time>2019-10-14T00:51:06Z</time>
      </trkpt>
      <trkpt lat="46.92159" lon="3.05515">
        <ele>178.5</ele>
        <time>2019-10-14T00:51:14Z</time>
      </trkpt>
      <trkpt lat="46.92188" lon="3.05525">
        <ele>177.2</ele>
        <time>2019-10-14T00:51:22Z</time>
      </trkpt>
      <trkpt lat="46.92222" lon="3.05528">
        <ele>178</ele>
        <time>2019-10-14T00:51:31Z</time>
      </trkpt>
      <trkpt lat="46.92243" lon="3.05544">
        <ele>177</ele>
        <time>2019-10-14T00:51:37Z</time>
      </trkpt>
      <trkpt lat="46.92251" lon="3.05562">
        <ele>176.2</ele>
        <time>2019-10-14T00:51:41Z</time>
      </trkpt>
      <trkpt lat="46.92248" lon="3.05575">
        <ele>174.1</ele>
        <time>2019-10-14T00:51:44Z</time>
      </trkpt>
      <trkpt lat="46.92245" lon="3.0559">
        <ele>174</ele>
        <time>2019-10-14T00:51:47Z</time>
      </trkpt>
      <trkpt lat="46.92247" lon="3.05607">
        <ele>176.9</ele>
        <time>2019-10-14T00:51:50Z</time>
      </trkpt>
      <trkpt lat="46.92371" lon="3.05669">
        <ele>176</ele>
        <time>2019-10-14T00:52:25Z</time>
      </trkpt>
      <trkpt lat="46.92424" lon="3.05713">
        <ele>174.9</ele>
        <time>2019-10-14T00:52:41Z</time>
      </trkpt>
      <trkpt lat="46.92696" lon="3.05857">
        <ele>176.8</ele>
        <time>2019-10-14T00:53:58Z</time>
      </trkpt>
      <trkpt lat="46.92909" lon="3.05959">
        <ele>175.1</ele>
        <time>2019-10-14T00:54:58Z</time>
      </trkpt>
      <trkpt lat="46.93169" lon="3.05998">
        <ele>175.7</ele>
        <time>2019-10-14T00:56:08Z</time>
      </trkpt>
      <trkpt lat="46.93433" lon="3.06038">
        <ele>175.2</ele>
        <time>2019-10-14T00:57:19Z</time>
      </trkpt>
      <trkpt lat="46.93442" lon="3.06036">
        <ele>175.6</ele>
        <time>2019-10-14T00:57:21Z</time>
      </trkpt>
      <trkpt lat="46.93465" lon="3.06032">
        <ele>175.6</ele>
        <time>2019-10-14T00:57:27Z</time>
      </trkpt>
      <trkpt lat="46.9363" lon="3.06025">
        <ele>174.7</ele>
        <time>2019-10-14T00:58:12Z</time>
      </trkpt>
      <trkpt lat="46.93641" lon="3.06021">
        <ele>174.5</ele>
        <time>2019-10-14T00:58:15Z</time>
      </trkpt>
      <trkpt lat="46.93649" lon="3.06019">
        <ele>175</ele>
        <time>2019-10-14T00:58:17Z</time>
      </trkpt>
      <trkpt lat="46.9366" lon="3.06008">
        <ele>173.7</ele>
        <time>2019-10-14T00:58:20Z</time>
      </trkpt>
      <trkpt lat="46.93677" lon="3.06007">
        <ele>173.4</ele>
        <time>2019-10-14T00:58:25Z</time>
      </trkpt>
      <trkpt lat="46.93684" lon="3.06008">
        <ele>173.3</ele>
        <time>2019-10-14T00:58:27Z</time>
      </trkpt>
      <trkpt lat="46.93693" lon="3.06013">
        <ele>173.5</ele>
        <time>2019-10-14T00:58:29Z</time>
      </trkpt>
      <trkpt lat="46.93704" lon="3.06014">
        <ele>173.5</ele>
        <time>2019-10-14T00:58:32Z</time>
      </trkpt>
      <trkpt lat="46.93947" lon="3.06012">
        <ele>174.1</ele>
        <time>2019-10-14T00:59:37Z</time>
      </trkpt>
      <trkpt lat="46.93956" lon="3.06023">
        <ele>173.5</ele>
        <time>2019-10-14T00:59:40Z</time>
      </trkpt>
      <trkpt lat="46.94462" lon="3.06003">
        <ele>175.2</ele>
        <time>2019-10-14T01:01:56Z</time>
      </trkpt>
      <trkpt lat="46.94495" lon="3.05991">
        <ele>174.1</ele>
        <time>2019-10-14T01:02:05Z</time>
      </trkpt>
      <trkpt lat="46.94593" lon="3.05987">
        <ele>175.5</ele>
        <time>2019-10-14T01:02:31Z</time>
      </trkpt>
      <trkpt lat="46.94601" lon="3.05987">
        <ele>175.5</ele>
        <time>2019-10-14T01:02:33Z</time>
      </trkpt>
      <trkpt lat="46.94612" lon="3.06174">
        <ele>175.6</ele>
        <time>2019-10-14T01:03:07Z</time>
      </trkpt>
      <trkpt lat="46.94641" lon="3.06642">
        <ele>175.6</ele>
        <time>2019-10-14T01:04:33Z</time>
      </trkpt>
      <trkpt lat="46.94639" lon="3.06671">
        <ele>176</ele>
        <time>2019-10-14T01:04:38Z</time>
      </trkpt>
      <trkpt lat="46.94639" lon="3.0669">
        <ele>176</ele>
        <time>2019-10-14T01:04:42Z</time>
      </trkpt>
      <trkpt lat="46.94631" lon="3.06754">
        <ele>174.9</ele>
        <time>2019-10-14T01:04:54Z</time>
      </trkpt>
      <trkpt lat="46.94633" lon="3.06811">
        <ele>174.9</ele>
        <time>2019-10-14T01:05:04Z</time>
      </trkpt>
      <trkpt lat="46.94641" lon="3.06851">
        <ele>175.8</ele>
        <time>2019-10-14T01:05:12Z</time>
      </trkpt>
      <trkpt lat="46.94654" lon="3.06888">
        <ele>172.7</ele>
        <time>2019-10-14T01:05:19Z</time>
      </trkpt>
      <trkpt lat="46.9466" lon="3.06899">
        <ele>174.1</ele>
        <time>2019-10-14T01:05:22Z</time>
      </trkpt>
      <trkpt lat="46.94666" lon="3.06909">
        <ele>176</ele>
        <time>2019-10-14T01:05:24Z</time>
      </trkpt>
      <trkpt lat="46.94671" lon="3.06917">
        <ele>176.3</ele>
        <time>2019-10-14T01:05:26Z</time>
      </trkpt>
      <trkpt lat="46.94679" lon="3.06927">
        <ele>174.2</ele>
        <time>2019-10-14T01:05:29Z</time>
      </trkpt>
      <trkpt lat="46.94696" lon="3.06948">
        <ele>172.9</ele>
        <time>2019-10-14T01:05:35Z</time>
      </trkpt>
      <trkpt lat="46.947" lon="3.06945">
        <ele>173</ele>
        <time>2019-10-14T01:05:36Z</time>
      </trkpt>
      <trkpt lat="46.94705" lon="3.06951">
        <ele>173</ele>
        <time>2019-10-14T01:05:38Z</time>
      </trkpt>
      <trkpt lat="46.94725" lon="3.0697">
        <ele>174.6</ele>
        <time>2019-10-14T01:05:44Z</time>
      </trkpt>
      <trkpt lat="46.94741" lon="3.06988">
        <ele>173.8</ele>
        <time>2019-10-14T01:05:50Z</time>
      </trkpt>
      <trkpt lat="46.94768" lon="3.07017">
        <ele>173.7</ele>
        <time>2019-10-14T01:05:59Z</time>
      </trkpt>
      <trkpt lat="46.94772" lon="3.07022">
        <ele>173.8</ele>
        <time>2019-10-14T01:06:00Z</time>
      </trkpt>
      <trkpt lat="46.94779" lon="3.07031">
        <ele>173.9</ele>
        <time>2019-10-14T01:06:02Z</time>
      </trkpt>
      <trkpt lat="46.94792" lon="3.07047">
        <ele>173.3</ele>
        <time>2019-10-14T01:06:07Z</time>
      </trkpt>
      <trkpt lat="46.94815" lon="3.07074">
        <ele>174.3</ele>
        <time>2019-10-14T01:06:15Z</time>
      </trkpt>
      <trkpt lat="46.94842" lon="3.07105">
        <ele>174.5</ele>
        <time>2019-10-14T01:06:24Z</time>
      </trkpt>
      <trkpt lat="46.94862" lon="3.07131">
        <ele>175.1</ele>
        <time>2019-10-14T01:06:31Z</time>
      </trkpt>
      <trkpt lat="46.94868" lon="3.07136">
        <ele>175.4</ele>
        <time>2019-10-14T01:06:33Z</time>
      </trkpt>
      <trkpt lat="46.94872" lon="3.07139">
        <ele>175.6</ele>
        <time>2019-10-14T01:06:34Z</time>
      </trkpt>
      <trkpt lat="46.94861" lon="3.0715">
        <ele>176</ele>
        <time>2019-10-14T01:06:38Z</time>
      </trkpt>
      <trkpt lat="46.94858" lon="3.07147">
        <ele>176</ele>
        <time>2019-10-14T01:06:39Z</time>
      </trkpt>
      <trkpt lat="46.94855" lon="3.07145">
        <ele>176</ele>
        <time>2019-10-14T01:06:40Z</time>
      </trkpt>
      <trkpt lat="46.94852" lon="3.07144">
        <ele>176.1</ele>
        <time>2019-10-14T01:06:40Z</time>
      </trkpt>
      <trkpt lat="46.94848" lon="3.07144">
        <ele>176.1</ele>
        <time>2019-10-14T01:06:42Z</time>
      </trkpt>
      <trkpt lat="46.94843" lon="3.07145">
        <ele>176.1</ele>
        <time>2019-10-14T01:06:43Z</time>
      </trkpt>
      <trkpt lat="46.94839" lon="3.07148">
        <ele>176.3</ele>
        <time>2019-10-14T01:06:44Z</time>
      </trkpt>
      <trkpt lat="46.94835" lon="3.07153">
        <ele>176.5</ele>
        <time>2019-10-14T01:06:45Z</time>
      </trkpt>
      <trkpt lat="46.94833" lon="3.07159">
        <ele>176.7</ele>
        <time>2019-10-14T01:06:47Z</time>
      </trkpt>
      <trkpt lat="46.94831" lon="3.07166">
        <ele>176.6</ele>
        <time>2019-10-14T01:06:48Z</time>
      </trkpt>
      <trkpt lat="46.94831" lon="3.07173">
        <ele>176.6</ele>
        <time>2019-10-14T01:06:49Z</time>
      </trkpt>
      <trkpt lat="46.94832" lon="3.0718">
        <ele>176.8</ele>
        <time>2019-10-14T01:06:51Z</time>
      </trkpt>
      <trkpt lat="46.9483" lon="3.07198">
        <ele>176.6</ele>
        <time>2019-10-14T01:06:54Z</time>
      </trkpt>
      <trkpt lat="46.94824" lon="3.07222">
        <ele>176</ele>
        <time>2019-10-14T01:06:59Z</time>
      </trkpt>
      <trkpt lat="46.9481" lon="3.07249">
        <ele>175.4</ele>
        <time>2019-10-14T01:07:05Z</time>
      </trkpt>
      <trkpt lat="46.94637" lon="3.07601">
        <ele>173.9</ele>
        <time>2019-10-14T01:08:24Z</time>
      </trkpt>
      <trkpt lat="46.94585" lon="3.07706">
        <ele>175.7</ele>
        <time>2019-10-14T01:08:48Z</time>
      </trkpt>
      <trkpt lat="46.946" lon="3.07635">
        <ele>174.3</ele>
        <time>2019-10-14T01:09:01Z</time>
      </trkpt>
      <trkpt lat="46.94606" lon="3.07602">
        <ele>174</ele>
        <time>2019-10-14T01:09:07Z</time>
      </trkpt>
      <trkpt lat="46.94548" lon="3.07546">
        <ele>171.6</ele>
        <time>2019-10-14T01:09:26Z</time>
      </trkpt>
      <trkpt lat="46.94473" lon="3.0747">
        <ele>172.8</ele>
        <time>2019-10-14T01:09:50Z</time>
      </trkpt>
      <trkpt lat="46.94463" lon="3.0747">
        <ele>175.5</ele>
        <time>2019-10-14T01:09:53Z</time>
      </trkpt>
      <trkpt lat="46.94453" lon="3.0749">
        <ele>176.6</ele>
        <time>2019-10-14T01:09:58Z</time>
      </trkpt>
      <trkpt lat="46.94446" lon="3.07501">
        <ele>176.5</ele>
        <time>2019-10-14T01:10:00Z</time>
      </trkpt>
      <trkpt lat="46.94437" lon="3.07509">
        <ele>176.8</ele>
        <time>2019-10-14T01:10:03Z</time>
      </trkpt>
      <trkpt lat="46.94414" lon="3.07533">
        <ele>179.3</ele>
        <time>2019-10-14T01:10:11Z</time>
      </trkpt>
      <trkpt lat="46.94337" lon="3.07691">
        <ele>180</ele>
        <time>2019-10-14T01:10:46Z</time>
      </trkpt>
      <trkpt lat="46.94252" lon="3.07864">
        <ele>180.8</ele>
        <time>2019-10-14T01:11:25Z</time>
      </trkpt>
      <trkpt lat="46.94241" lon="3.07899">
        <ele>181</ele>
        <time>2019-10-14T01:11:32Z</time>
      </trkpt>
      <trkpt lat="46.94238" lon="3.07906">
        <ele>181</ele>
        <time>2019-10-14T01:11:33Z</time>
      </trkpt>
      <trkpt lat="46.94217" lon="3.07886">
        <ele>181.5</ele>
        <time>2019-10-14T01:11:40Z</time>
      </trkpt>
      <trkpt lat="46.94215" lon="3.07883">
        <ele>181.8</ele>
        <time>2019-10-14T01:11:41Z</time>
      </trkpt>
      <trkpt lat="46.94213" lon="3.07882">
        <ele>182</ele>
        <time>2019-10-14T01:11:41Z</time>
      </trkpt>
      <trkpt lat="46.94209" lon="3.07882">
        <ele>182.3</ele>
        <time>2019-10-14T01:11:43Z</time>
      </trkpt>
      <trkpt lat="46.94193" lon="3.07884">
        <ele>183.3</ele>
        <time>2019-10-14T01:11:47Z</time>
      </trkpt>
      <trkpt lat="46.9419" lon="3.07887">
        <ele>183.1</ele>
        <time>2019-10-14T01:11:48Z</time>
      </trkpt>
      <trkpt lat="46.94171" lon="3.07915">
        <ele>182.1</ele>
        <time>2019-10-14T01:11:55Z</time>
      </trkpt>
      <trkpt lat="46.94166" lon="3.07926">
        <ele>181.8</ele>
        <time>2019-10-14T01:11:57Z</time>
      </trkpt>
      <trkpt lat="46.94164" lon="3.07949">
        <ele>181.3</ele>
        <time>2019-10-14T01:12:02Z</time>
      </trkpt>
      <trkpt lat="46.94164" lon="3.07969">
        <ele>181.5</ele>
        <time>2019-10-14T01:12:05Z</time>
      </trkpt>
      <trkpt lat="46.94189" lon="3.08015">
        <ele>182.2</ele>
        <time>2019-10-14T01:12:16Z</time>
      </trkpt>
      <trkpt lat="46.94219" lon="3.08094">
        <ele>182</ele>
        <time>2019-10-14T01:12:32Z</time>
      </trkpt>
      <trkpt lat="46.94255" lon="3.08172">
        <ele>181.5</ele>
        <time>2019-10-14T01:12:50Z</time>
      </trkpt>
      <trkpt lat="46.94329" lon="3.08324">
        <ele>181.5</ele>
        <time>2019-10-14T01:13:24Z</time>
      </trkpt>
      <trkpt lat="46.94331" lon="3.08327">
        <ele>181.3</ele>
        <time>2019-10-14T01:13:24Z</time>
      </trkpt>
      <trkpt lat="46.94338" lon="3.08345">
        <ele>181</ele>
        <time>2019-10-14T01:13:28Z</time>
      </trkpt>
      <trkpt lat="46.94344" lon="3.08403">
        <ele>182.6</ele>
        <time>2019-10-14T01:13:39Z</time>
      </trkpt>
      <trkpt lat="46.94345" lon="3.08416">
        <ele>182.6</ele>
        <time>2019-10-14T01:13:41Z</time>
      </trkpt>
      <trkpt lat="46.94346" lon="3.08448">
        <ele>183</ele>
        <time>2019-10-14T01:13:47Z</time>
      </trkpt>
      <trkpt lat="46.94357" lon="3.08457">
        <ele>183</ele>
        <time>2019-10-14T01:13:51Z</time>
      </trkpt>
      <trkpt lat="46.94362" lon="3.08476">
        <ele>183</ele>
        <time>2019-10-14T01:13:54Z</time>
      </trkpt>
      <trkpt lat="46.94367" lon="3.08496">
        <ele>182.8</ele>
        <time>2019-10-14T01:13:58Z</time>
      </trkpt>
      <trkpt lat="46.94372" lon="3.08514">
        <ele>182.6</ele>
        <time>2019-10-14T01:14:02Z</time>
      </trkpt>
      <trkpt lat="46.94369" lon="3.08584">
        <ele>182.7</ele>
        <time>2019-10-14T01:14:14Z</time>
      </trkpt>
      <trkpt lat="46.9437" lon="3.08597">
        <ele>182.5</ele>
        <time>2019-10-14T01:14:17Z</time>
      </trkpt>
      <trkpt lat="46.94372" lon="3.08607">
        <ele>182.3</ele>
        <time>2019-10-14T01:14:19Z</time>
      </trkpt>
      <trkpt lat="46.94374" lon="3.08616">
        <ele>182.2</ele>
        <time>2019-10-14T01:14:21Z</time>
      </trkpt>
      <trkpt lat="46.94376" lon="3.08625">
        <ele>182.5</ele>
        <time>2019-10-14T01:14:22Z</time>
      </trkpt>
      <trkpt lat="46.94385" lon="3.08652">
        <ele>183</ele>
        <time>2019-10-14T01:14:28Z</time>
      </trkpt>
      <trkpt lat="46.94383" lon="3.08654">
        <ele>183</ele>
        <time>2019-10-14T01:14:28Z</time>
      </trkpt>
      <trkpt lat="46.94381" lon="3.08657">
        <ele>183</ele>
        <time>2019-10-14T01:14:29Z</time>
      </trkpt>
      <trkpt lat="46.9438" lon="3.0866">
        <ele>183</ele>
        <time>2019-10-14T01:14:30Z</time>
      </trkpt>
      <trkpt lat="46.9438" lon="3.08664">
        <ele>183</ele>
        <time>2019-10-14T01:14:30Z</time>
      </trkpt>
      <trkpt lat="46.9438" lon="3.08667">
        <ele>183</ele>
        <time>2019-10-14T01:14:31Z</time>
      </trkpt>
      <trkpt lat="46.94382" lon="3.08671">
        <ele>183</ele>
        <time>2019-10-14T01:14:32Z</time>
      </trkpt>
      <trkpt lat="46.94383" lon="3.08673">
        <ele>183</ele>
        <time>2019-10-14T01:14:32Z</time>
      </trkpt>
      <trkpt lat="46.94386" lon="3.08675">
        <ele>183</ele>
        <time>2019-10-14T01:14:33Z</time>
      </trkpt>
      <trkpt lat="46.94388" lon="3.08675">
        <ele>183</ele>
        <time>2019-10-14T01:14:34Z</time>
      </trkpt>
      <trkpt lat="46.94391" lon="3.08675">
        <ele>183</ele>
        <time>2019-10-14T01:14:35Z</time>
      </trkpt>
      <trkpt lat="46.94393" lon="3.08673">
        <ele>183</ele>
        <time>2019-10-14T01:14:35Z</time>
      </trkpt>
      <trkpt lat="46.94395" lon="3.0867">
        <ele>182.9</ele>
        <time>2019-10-14T01:14:36Z</time>
      </trkpt>
      <trkpt lat="46.94396" lon="3.08667">
        <ele>182.8</ele>
        <time>2019-10-14T01:14:37Z</time>
      </trkpt>
      <trkpt lat="46.94396" lon="3.08663">
        <ele>182.7</ele>
        <time>2019-10-14T01:14:37Z</time>
      </trkpt>
      <trkpt lat="46.94414" lon="3.08668">
        <ele>182.2</ele>
        <time>2019-10-14T01:14:42Z</time>
      </trkpt>
      <trkpt lat="46.94421" lon="3.08673">
        <ele>182.5</ele>
        <time>2019-10-14T01:14:44Z</time>
      </trkpt>
      <trkpt lat="46.94449" lon="3.08694">
        <ele>182.6</ele>
        <time>2019-10-14T01:14:53Z</time>
      </trkpt>
      <trkpt lat="46.94474" lon="3.08713">
        <ele>182.3</ele>
        <time>2019-10-14T01:15:00Z</time>
      </trkpt>
      <trkpt lat="46.94481" lon="3.0872">
        <ele>182.5</ele>
        <time>2019-10-14T01:15:03Z</time>
      </trkpt>
      <trkpt lat="46.94486" lon="3.08724">
        <ele>182.5</ele>
        <time>2019-10-14T01:15:04Z</time>
      </trkpt>
      <trkpt lat="46.9451" lon="3.08742">
        <ele>182.4</ele>
        <time>2019-10-14T01:15:11Z</time>
      </trkpt>
      <trkpt lat="46.94508" lon="3.08746">
        <ele>182.3</ele>
        <time>2019-10-14T01:15:12Z</time>
      </trkpt>
      <trkpt lat="46.94504" lon="3.08756">
        <ele>182.1</ele>
        <time>2019-10-14T01:15:14Z</time>
      </trkpt>
      <trkpt lat="46.94497" lon="3.08772">
        <ele>181.9</ele>
        <time>2019-10-14T01:15:18Z</time>
      </trkpt>
      <trkpt lat="46.94432" lon="3.08947">
        <ele>182.7</ele>
        <time>2019-10-14T01:15:54Z</time>
      </trkpt>
      <trkpt lat="46.944" lon="3.09035">
        <ele>182.8</ele>
        <time>2019-10-14T01:16:12Z</time>
      </trkpt>
      <trkpt lat="46.94383" lon="3.09079">
        <ele>183.9</ele>
        <time>2019-10-14T01:16:21Z</time>
      </trkpt>
      <trkpt lat="46.94375" lon="3.09101">
        <ele>183.3</ele>
        <time>2019-10-14T01:16:26Z</time>
      </trkpt>
      <trkpt lat="46.9437" lon="3.09124">
        <ele>182.6</ele>
        <time>2019-10-14T01:16:30Z</time>
      </trkpt>
      <trkpt lat="46.94355" lon="3.09178">
        <ele>183.1</ele>
        <time>2019-10-14T01:16:41Z</time>
      </trkpt>
      <trkpt lat="46.9435" lon="3.09248">
        <ele>183.4</ele>
        <time>2019-10-14T01:16:54Z</time>
      </trkpt>
      <trkpt lat="46.94352" lon="3.09301">
        <ele>183.7</ele>
        <time>2019-10-14T01:17:04Z</time>
      </trkpt>
      <trkpt lat="46.94358" lon="3.0936">
        <ele>182.9</ele>
        <time>2019-10-14T01:17:14Z</time>
      </trkpt>
      <trkpt lat="46.94368" lon="3.09414">
        <ele>181.7</ele>
        <time>2019-10-14T01:17:25Z</time>
      </trkpt>
      <trkpt lat="46.94377" lon="3.09448">
        <ele>182.1</ele>
        <time>2019-10-14T01:17:31Z</time>
      </trkpt>
      <trkpt lat="46.94388" lon="3.09482">
        <ele>181.7</ele>
        <time>2019-10-14T01:17:38Z</time>
      </trkpt>
      <trkpt lat="46.94405" lon="3.09514">
        <ele>181.9</ele>
        <time>2019-10-14T01:17:46Z</time>
      </trkpt>
      <trkpt lat="46.94422" lon="3.09543">
        <ele>181.8</ele>
        <time>2019-10-14T01:17:53Z</time>
      </trkpt>
      <trkpt lat="46.94556" lon="3.09704">
        <ele>184.2</ele>
        <time>2019-10-14T01:18:39Z</time>
      </trkpt>
      <trkpt lat="46.94587" lon="3.09739">
        <ele>180.7</ele>
        <time>2019-10-14T01:18:49Z</time>
      </trkpt>
      <trkpt lat="46.9461" lon="3.09775">
        <ele>180.7</ele>
        <time>2019-10-14T01:18:58Z</time>
      </trkpt>
      <trkpt lat="46.94631" lon="3.09809">
        <ele>180.4</ele>
        <time>2019-10-14T01:19:07Z</time>
      </trkpt>
      <trkpt lat="46.94653" lon="3.09854">
        <ele>180.4</ele>
        <time>2019-10-14T01:19:17Z</time>
      </trkpt>
      <trkpt lat="46.94669" lon="3.0991">
        <ele>180.7</ele>
        <time>2019-10-14T01:19:28Z</time>
      </trkpt>
      <trkpt lat="46.94679" lon="3.09975">
        <ele>179.7</ele>
        <time>2019-10-14T01:19:40Z</time>
      </trkpt>
      <trkpt lat="46.9468" lon="3.1">
        <ele>179.6</ele>
        <time>2019-10-14T01:19:45Z</time>
      </trkpt>
      <trkpt lat="46.9468" lon="3.10026">
        <ele>179.6</ele>
        <time>2019-10-14T01:19:49Z</time>
      </trkpt>
      <trkpt lat="46.94676" lon="3.10079">
        <ele>180</ele>
        <time>2019-10-14T01:19:59Z</time>
      </trkpt>
      <trkpt lat="46.94663" lon="3.1014">
        <ele>180.9</ele>
        <time>2019-10-14T01:20:11Z</time>
      </trkpt>
      <trkpt lat="46.94607" lon="3.10285">
        <ele>180</ele>
        <time>2019-10-14T01:20:41Z</time>
      </trkpt>
      <trkpt lat="46.94576" lon="3.10365">
        <ele>180.2</ele>
        <time>2019-10-14T01:20:58Z</time>
      </trkpt>
      <trkpt lat="46.94544" lon="3.10445">
        <ele>181</ele>
        <time>2019-10-14T01:21:15Z</time>
      </trkpt>
      <trkpt lat="46.94533" lon="3.10481">
        <ele>181</ele>
        <time>2019-10-14T01:21:22Z</time>
      </trkpt>
      <trkpt lat="46.94525" lon="3.10517">
        <ele>181</ele>
        <time>2019-10-14T01:21:29Z</time>
      </trkpt>
      <trkpt lat="46.94518" lon="3.10554">
        <ele>181.6</ele>
        <time>2019-10-14T01:21:36Z</time>
      </trkpt>
      <trkpt lat="46.94514" lon="3.10591">
        <ele>182</ele>
        <time>2019-10-14T01:21:43Z</time>
      </trkpt>
      <trkpt lat="46.94513" lon="3.10608">
        <ele>181.9</ele>
        <time>2019-10-14T01:21:46Z</time>
      </trkpt>
      <trkpt lat="46.9451" lon="3.10663">
        <ele>181.7</ele>
        <time>2019-10-14T01:21:56Z</time>
      </trkpt>
      <trkpt lat="46.94512" lon="3.10723">
        <ele>181.9</ele>
        <time>2019-10-14T01:22:07Z</time>
      </trkpt>
      <trkpt lat="46.94519" lon="3.10782">
        <ele>181</ele>
        <time>2019-10-14T01:22:18Z</time>
      </trkpt>
      <trkpt lat="46.94535" lon="3.10856">
        <ele>180.8</ele>
        <time>2019-10-14T01:22:32Z</time>
      </trkpt>
      <trkpt lat="46.94545" lon="3.10893">
        <ele>180.5</ele>
        <time>2019-10-14T01:22:39Z</time>
      </trkpt>
      <trkpt lat="46.9456" lon="3.10928">
        <ele>180.8</ele>
        <time>2019-10-14T01:22:47Z</time>
      </trkpt>
      <trkpt lat="46.94588" lon="3.10986">
        <ele>180.6</ele>
        <time>2019-10-14T01:23:00Z</time>
      </trkpt>
      <trkpt lat="46.94597" lon="3.11001">
        <ele>181.5</ele>
        <time>2019-10-14T01:23:03Z</time>
      </trkpt>
      <trkpt lat="46.94622" lon="3.11035">
        <ele>181.9</ele>
        <time>2019-10-14T01:23:12Z</time>
      </trkpt>
      <trkpt lat="46.94626" lon="3.11041">
        <ele>182</ele>
        <time>2019-10-14T01:23:14Z</time>
      </trkpt>
      <trkpt lat="46.94641" lon="3.11062">
        <ele>182.4</ele>
        <time>2019-10-14T01:23:19Z</time>
      </trkpt>
      <trkpt lat="46.94793" lon="3.11275">
        <ele>179.8</ele>
        <time>2019-10-14T01:24:16Z</time>
      </trkpt>
      <trkpt lat="46.94823" lon="3.11333">
        <ele>179.1</ele>
        <time>2019-10-14T01:24:29Z</time>
      </trkpt>
      <trkpt lat="46.94844" lon="3.11398">
        <ele>179.8</ele>
        <time>2019-10-14T01:24:42Z</time>
      </trkpt>
      <trkpt lat="46.94852" lon="3.11466">
        <ele>180.7</ele>
        <time>2019-10-14T01:24:55Z</time>
      </trkpt>
      <trkpt lat="46.94855" lon="3.11509">
        <ele>181</ele>
        <time>2019-10-14T01:25:03Z</time>
      </trkpt>
      <trkpt lat="46.94855" lon="3.11528">
        <ele>181</ele>
        <time>2019-10-14T01:25:06Z</time>
      </trkpt>
      <trkpt lat="46.94854" lon="3.11548">
        <ele>181</ele>
        <time>2019-10-14T01:25:10Z</time>
      </trkpt>
      <trkpt lat="46.94851" lon="3.11586">
        <ele>180.3</ele>
        <time>2019-10-14T01:25:17Z</time>
      </trkpt>
      <trkpt lat="46.94846" lon="3.11621">
        <ele>180.1</ele>
        <time>2019-10-14T01:25:23Z</time>
      </trkpt>
      <trkpt lat="46.94832" lon="3.11682">
        <ele>179.9</ele>
        <time>2019-10-14T01:25:35Z</time>
      </trkpt>
      <trkpt lat="46.94806" lon="3.11725">
        <ele>180.8</ele>
        <time>2019-10-14T01:25:45Z</time>
      </trkpt>
      <trkpt lat="46.9478" lon="3.11762">
        <ele>180</ele>
        <time>2019-10-14T01:25:55Z</time>
      </trkpt>
      <trkpt lat="46.94744" lon="3.11793">
        <ele>180.1</ele>
        <time>2019-10-14T01:26:06Z</time>
      </trkpt>
      <trkpt lat="46.94704" lon="3.11816">
        <ele>180.1</ele>
        <time>2019-10-14T01:26:18Z</time>
      </trkpt>
      <trkpt lat="46.94687" lon="3.11828">
        <ele>179.8</ele>
        <time>2019-10-14T01:26:23Z</time>
      </trkpt>
      <trkpt lat="46.94673" lon="3.11842">
        <ele>180</ele>
        <time>2019-10-14T01:26:27Z</time>
      </trkpt>
      <trkpt lat="46.94656" lon="3.11857">
        <ele>180</ele>
        <time>2019-10-14T01:26:33Z</time>
      </trkpt>
      <trkpt lat="46.94644" lon="3.11877">
        <ele>180.1</ele>
        <time>2019-10-14T01:26:37Z</time>
      </trkpt>
      <trkpt lat="46.94619" lon="3.1192">
        <ele>180</ele>
        <time>2019-10-14T01:26:48Z</time>
      </trkpt>
      <trkpt lat="46.94609" lon="3.11944">
        <ele>180.1</ele>
        <time>2019-10-14T01:26:53Z</time>
      </trkpt>
      <trkpt lat="46.94603" lon="3.11967">
        <ele>178.9</ele>
        <time>2019-10-14T01:26:57Z</time>
      </trkpt>
      <trkpt lat="46.94595" lon="3.11994">
        <ele>178.8</ele>
        <time>2019-10-14T01:27:03Z</time>
      </trkpt>
      <trkpt lat="46.94591" lon="3.12022">
        <ele>179.4</ele>
        <time>2019-10-14T01:27:08Z</time>
      </trkpt>
      <trkpt lat="46.94588" lon="3.12072">
        <ele>180.2</ele>
        <time>2019-10-14T01:27:17Z</time>
      </trkpt>
      <trkpt lat="46.94589" lon="3.12094">
        <ele>180.2</ele>
        <time>2019-10-14T01:27:21Z</time>
      </trkpt>
      <trkpt lat="46.94593" lon="3.12114">
        <ele>179.7</ele>
        <time>2019-10-14T01:27:25Z</time>
      </trkpt>
      <trkpt lat="46.94633" lon="3.12331">
        <ele>180.9</ele>
        <time>2019-10-14T01:28:06Z</time>
      </trkpt>
      <trkpt lat="46.94684" lon="3.12577">
        <ele>179.5</ele>
        <time>2019-10-14T01:28:53Z</time>
      </trkpt>
      <trkpt lat="46.94708" lon="3.127">
        <ele>180.5</ele>
        <time>2019-10-14T01:29:16Z</time>
      </trkpt>
      <trkpt lat="46.94735" lon="3.12827">
        <ele>180</ele>
        <time>2019-10-14T01:29:40Z</time>
      </trkpt>
      <trkpt lat="46.94759" lon="3.12895">
        <ele>180.4</ele>
        <time>2019-10-14T01:29:54Z</time>
      </trkpt>
      <trkpt lat="46.94773" lon="3.12927">
        <ele>179.7</ele>
        <time>2019-10-14T01:30:01Z</time>
      </trkpt>
      <trkpt lat="46.94788" lon="3.12956">
        <ele>179.9</ele>
        <time>2019-10-14T01:30:08Z</time>
      </trkpt>
      <trkpt lat="46.94811" lon="3.12995">
        <ele>180.3</ele>
        <time>2019-10-14T01:30:17Z</time>
      </trkpt>
      <trkpt lat="46.9484" lon="3.13029">
        <ele>180.5</ele>
        <time>2019-10-14T01:30:27Z</time>
      </trkpt>
      <trkpt lat="46.94909" lon="3.13108">
        <ele>180.8</ele>
        <time>2019-10-14T01:30:51Z</time>
      </trkpt>
      <trkpt lat="46.94977" lon="3.13176">
        <ele>180.9</ele>
        <time>2019-10-14T01:31:13Z</time>
      </trkpt>
      <trkpt lat="46.95118" lon="3.1331">
        <ele>181</ele>
        <time>2019-10-14T01:31:58Z</time>
      </trkpt>
      <trkpt lat="46.9514" lon="3.13334">
        <ele>181</ele>
        <time>2019-10-14T01:32:05Z</time>
      </trkpt>
      <trkpt lat="46.95158" lon="3.13361">
        <ele>181</ele>
        <time>2019-10-14T01:32:12Z</time>
      </trkpt>
      <trkpt lat="46.95188" lon="3.13419">
        <ele>181</ele>
        <time>2019-10-14T01:32:25Z</time>
      </trkpt>
      <trkpt lat="46.95221" lon="3.1349">
        <ele>180.7</ele>
        <time>2019-10-14T01:32:41Z</time>
      </trkpt>
      <trkpt lat="46.95247" lon="3.13577">
        <ele>179.9</ele>
        <time>2019-10-14T01:32:58Z</time>
      </trkpt>
      <trkpt lat="46.9525" lon="3.13596">
        <ele>180.5</ele>
        <time>2019-10-14T01:33:02Z</time>
      </trkpt>
      <trkpt lat="46.9525" lon="3.136">
        <ele>180.6</ele>
        <time>2019-10-14T01:33:02Z</time>
      </trkpt>
      <trkpt lat="46.95253" lon="3.13614">
        <ele>180.8</ele>
        <time>2019-10-14T01:33:05Z</time>
      </trkpt>
      <trkpt lat="46.95254" lon="3.13616">
        <ele>180.7</ele>
        <time>2019-10-14T01:33:05Z</time>
      </trkpt>
      <trkpt lat="46.95256" lon="3.13644">
        <ele>180.7</ele>
        <time>2019-10-14T01:33:11Z</time>
      </trkpt>
      <trkpt lat="46.95255" lon="3.13674">
        <ele>181.4</ele>
        <time>2019-10-14T01:33:16Z</time>
      </trkpt>
      <trkpt lat="46.9526" lon="3.13697">
        <ele>182.1</ele>
        <time>2019-10-14T01:33:20Z</time>
      </trkpt>
      <trkpt lat="46.9526" lon="3.13727">
        <ele>182.2</ele>
        <time>2019-10-14T01:33:26Z</time>
      </trkpt>
      <trkpt lat="46.95261" lon="3.13746">
        <ele>182.9</ele>
        <time>2019-10-14T01:33:29Z</time>
      </trkpt>
      <trkpt lat="46.9526" lon="3.13755">
        <ele>182.7</ele>
        <time>2019-10-14T01:33:31Z</time>
      </trkpt>
      <trkpt lat="46.95261" lon="3.13764">
        <ele>182.6</ele>
        <time>2019-10-14T01:33:33Z</time>
      </trkpt>
      <trkpt lat="46.95264" lon="3.13776">
        <ele>182.6</ele>
        <time>2019-10-14T01:33:35Z</time>
      </trkpt>
      <trkpt lat="46.95266" lon="3.13792">
        <ele>181.3</ele>
        <time>2019-10-14T01:33:38Z</time>
      </trkpt>
      <trkpt lat="46.95266" lon="3.13814">
        <ele>179.8</ele>
        <time>2019-10-14T01:33:42Z</time>
      </trkpt>
      <trkpt lat="46.95267" lon="3.13836">
        <ele>179.8</ele>
        <time>2019-10-14T01:33:46Z</time>
      </trkpt>
      <trkpt lat="46.9527" lon="3.13915">
        <ele>180.3</ele>
        <time>2019-10-14T01:34:00Z</time>
      </trkpt>
      <trkpt lat="46.95273" lon="3.13954">
        <ele>180.2</ele>
        <time>2019-10-14T01:34:08Z</time>
      </trkpt>
      <trkpt lat="46.95277" lon="3.13995">
        <ele>180.8</ele>
        <time>2019-10-14T01:34:15Z</time>
      </trkpt>
      <trkpt lat="46.95284" lon="3.14029">
        <ele>180.6</ele>
        <time>2019-10-14T01:34:22Z</time>
      </trkpt>
      <trkpt lat="46.95292" lon="3.14059">
        <ele>180</ele>
        <time>2019-10-14T01:34:28Z</time>
      </trkpt>
      <trkpt lat="46.95303" lon="3.14089">
        <ele>180.3</ele>
        <time>2019-10-14T01:34:34Z</time>
      </trkpt>
      <trkpt lat="46.95314" lon="3.1412">
        <ele>180.3</ele>
        <time>2019-10-14T01:34:40Z</time>
      </trkpt>
      <trkpt lat="46.9536" lon="3.14201">
        <ele>180.3</ele>
        <time>2019-10-14T01:34:59Z</time>
      </trkpt>
      <trkpt lat="46.95382" lon="3.14242">
        <ele>180.6</ele>
        <time>2019-10-14T01:35:09Z</time>
      </trkpt>
      <trkpt lat="46.95404" lon="3.14279">
        <ele>180</ele>
        <time>2019-10-14T01:35:18Z</time>
      </trkpt>
      <trkpt lat="46.95417" lon="3.14309">
        <ele>181</ele>
        <time>2019-10-14T01:35:24Z</time>
      </trkpt>
      <trkpt lat="46.95429" lon="3.14339">
        <ele>180.1</ele>
        <time>2019-10-14T01:35:31Z</time>
      </trkpt>
      <trkpt lat="46.95438" lon="3.14369">
        <ele>179.9</ele>
        <time>2019-10-14T01:35:37Z</time>
      </trkpt>
      <trkpt lat="46.95447" lon="3.14405">
        <ele>180.8</ele>
        <time>2019-10-14T01:35:44Z</time>
      </trkpt>
      <trkpt lat="46.95452" lon="3.1444">
        <ele>180.5</ele>
        <time>2019-10-14T01:35:50Z</time>
      </trkpt>
      <trkpt lat="46.95454" lon="3.14477">
        <ele>180.7</ele>
        <time>2019-10-14T01:35:57Z</time>
      </trkpt>
      <trkpt lat="46.95454" lon="3.14508">
        <ele>180.7</ele>
        <time>2019-10-14T01:36:03Z</time>
      </trkpt>
      <trkpt lat="46.95453" lon="3.14539">
        <ele>180.7</ele>
        <time>2019-10-14T01:36:08Z</time>
      </trkpt>
      <trkpt lat="46.95449" lon="3.14593">
        <ele>181.4</ele>
        <time>2019-10-14T01:36:18Z</time>
      </trkpt>
      <trkpt lat="46.95441" lon="3.14602">
        <ele>182.6</ele>
        <time>2019-10-14T01:36:21Z</time>
      </trkpt>
      <trkpt lat="46.9544" lon="3.14626">
        <ele>182.1</ele>
        <time>2019-10-14T01:36:25Z</time>
      </trkpt>
      <trkpt lat="46.95444" lon="3.14643">
        <ele>181</ele>
        <time>2019-10-14T01:36:28Z</time>
      </trkpt>
      <trkpt lat="46.9544" lon="3.14677">
        <ele>181.4</ele>
        <time>2019-10-14T01:36:35Z</time>
      </trkpt>
      <trkpt lat="46.9544" lon="3.14741">
        <ele>183.5</ele>
        <time>2019-10-14T01:36:46Z</time>
      </trkpt>
      <trkpt lat="46.95441" lon="3.14751">
        <ele>183.6</ele>
        <time>2019-10-14T01:36:48Z</time>
      </trkpt>
      <trkpt lat="46.95441" lon="3.14755">
        <ele>183.5</ele>
        <time>2019-10-14T01:36:49Z</time>
      </trkpt>
      <trkpt lat="46.95433" lon="3.14795">
        <ele>180.7</ele>
        <time>2019-10-14T01:36:57Z</time>
      </trkpt>
      <trkpt lat="46.9542" lon="3.14886">
        <ele>179.6</ele>
        <time>2019-10-14T01:37:14Z</time>
      </trkpt>
      <trkpt lat="46.95412" lon="3.14978">
        <ele>180.8</ele>
        <time>2019-10-14T01:37:30Z</time>
      </trkpt>
      <trkpt lat="46.95395" lon="3.1516">
        <ele>180.3</ele>
        <time>2019-10-14T01:38:04Z</time>
      </trkpt>
      <trkpt lat="46.95386" lon="3.15223">
        <ele>181</ele>
        <time>2019-10-14T01:38:16Z</time>
      </trkpt>
      <trkpt lat="46.95372" lon="3.15286">
        <ele>180.8</ele>
        <time>2019-10-14T01:38:28Z</time>
      </trkpt>
      <trkpt lat="46.95358" lon="3.15328">
        <ele>180.5</ele>
        <time>2019-10-14T01:38:36Z</time>
      </trkpt>
      <trkpt lat="46.95343" lon="3.15363">
        <ele>181.2</ele>
        <time>2019-10-14T01:38:44Z</time>
      </trkpt>
      <trkpt lat="46.95242" lon="3.15542">
        <ele>181.6</ele>
        <time>2019-10-14T01:39:26Z</time>
      </trkpt>
      <trkpt lat="46.95234" lon="3.15559">
        <ele>181.6</ele>
        <time>2019-10-14T01:39:30Z</time>
      </trkpt>
      <trkpt lat="46.95227" lon="3.15577">
        <ele>181.8</ele>
        <time>2019-10-14T01:39:34Z</time>
      </trkpt>
      <trkpt lat="46.95213" lon="3.15631">
        <ele>181.5</ele>
        <time>2019-10-14T01:39:44Z</time>
      </trkpt>
      <trkpt lat="46.95209" lon="3.15652">
        <ele>181.2</ele>
        <time>2019-10-14T01:39:48Z</time>
      </trkpt>
      <trkpt lat="46.95207" lon="3.15673">
        <ele>181.1</ele>
        <time>2019-10-14T01:39:52Z</time>
      </trkpt>
      <trkpt lat="46.95206" lon="3.15696">
        <ele>181.1</ele>
        <time>2019-10-14T01:39:56Z</time>
      </trkpt>
      <trkpt lat="46.95207" lon="3.1572">
        <ele>180.6</ele>
        <time>2019-10-14T01:40:01Z</time>
      </trkpt>
      <trkpt lat="46.95203" lon="3.15757">
        <ele>181.5</ele>
        <time>2019-10-14T01:40:08Z</time>
      </trkpt>
      <trkpt lat="46.95198" lon="3.15766">
        <ele>181.3</ele>
        <time>2019-10-14T01:40:10Z</time>
      </trkpt>
      <trkpt lat="46.95198" lon="3.15782">
        <ele>181.4</ele>
        <time>2019-10-14T01:40:13Z</time>
      </trkpt>
      <trkpt lat="46.95205" lon="3.15791">
        <ele>181.6</ele>
        <time>2019-10-14T01:40:15Z</time>
      </trkpt>
      <trkpt lat="46.95206" lon="3.15843">
        <ele>180.6</ele>
        <time>2019-10-14T01:40:25Z</time>
      </trkpt>
      <trkpt lat="46.95208" lon="3.15906">
        <ele>180.5</ele>
        <time>2019-10-14T01:40:36Z</time>
      </trkpt>
      <trkpt lat="46.95222" lon="3.16516">
        <ele>180</ele>
        <time>2019-10-14T01:42:27Z</time>
      </trkpt>
      <trkpt lat="46.95224" lon="3.16675">
        <ele>180.8</ele>
        <time>2019-10-14T01:42:56Z</time>
      </trkpt>
      <trkpt lat="46.95228" lon="3.16772">
        <ele>181</ele>
        <time>2019-10-14T01:43:14Z</time>
      </trkpt>
      <trkpt lat="46.95239" lon="3.16865">
        <ele>180.4</ele>
        <time>2019-10-14T01:43:31Z</time>
      </trkpt>
      <trkpt lat="46.95262" lon="3.17022">
        <ele>180.9</ele>
        <time>2019-10-14T01:44:01Z</time>
      </trkpt>
      <trkpt lat="46.953" lon="3.17212">
        <ele>182.8</ele>
        <time>2019-10-14T01:44:37Z</time>
      </trkpt>
      <trkpt lat="46.95306" lon="3.17235">
        <ele>183.9</ele>
        <time>2019-10-14T01:44:41Z</time>
      </trkpt>
      <trkpt lat="46.95307" lon="3.1724">
        <ele>183.7</ele>
        <time>2019-10-14T01:44:42Z</time>
      </trkpt>
      <trkpt lat="46.95313" lon="3.17298">
        <ele>180.5</ele>
        <time>2019-10-14T01:44:53Z</time>
      </trkpt>
      <trkpt lat="46.95337" lon="3.17444">
        <ele>180.7</ele>
        <time>2019-10-14T01:45:20Z</time>
      </trkpt>
      <trkpt lat="46.95365" lon="3.17584">
        <ele>180.7</ele>
        <time>2019-10-14T01:45:47Z</time>
      </trkpt>
      <trkpt lat="46.95369" lon="3.176">
        <ele>180.4</ele>
        <time>2019-10-14T01:45:50Z</time>
      </trkpt>
      <trkpt lat="46.95391" lon="3.17661">
        <ele>180.7</ele>
        <time>2019-10-14T01:46:03Z</time>
      </trkpt>
      <trkpt lat="46.95435" lon="3.17775">
        <ele>182.1</ele>
        <time>2019-10-14T01:46:26Z</time>
      </trkpt>
      <trkpt lat="46.95465" lon="3.1783">
        <ele>180.3</ele>
        <time>2019-10-14T01:46:39Z</time>
      </trkpt>
      <trkpt lat="46.95509" lon="3.179">
        <ele>180.5</ele>
        <time>2019-10-14T01:46:57Z</time>
      </trkpt>
      <trkpt lat="46.95531" lon="3.17929">
        <ele>180.3</ele>
        <time>2019-10-14T01:47:05Z</time>
      </trkpt>
      <trkpt lat="46.95558" lon="3.17958">
        <ele>179.9</ele>
        <time>2019-10-14T01:47:13Z</time>
      </trkpt>
      <trkpt lat="46.95638" lon="3.1803">
        <ele>181</ele>
        <time>2019-10-14T01:47:39Z</time>
      </trkpt>
      <trkpt lat="46.95723" lon="3.18095">
        <ele>179.8</ele>
        <time>2019-10-14T01:48:04Z</time>
      </trkpt>
      <trkpt lat="46.95745" lon="3.1811">
        <ele>180.1</ele>
        <time>2019-10-14T01:48:11Z</time>
      </trkpt>
      <trkpt lat="46.95818" lon="3.18167">
        <ele>181</ele>
        <time>2019-10-14T01:48:33Z</time>
      </trkpt>
      <trkpt lat="46.95873" lon="3.18207">
        <ele>181</ele>
        <time>2019-10-14T01:48:49Z</time>
      </trkpt>
      <trkpt lat="46.95893" lon="3.18215">
        <ele>181</ele>
        <time>2019-10-14T01:48:55Z</time>
      </trkpt>
      <trkpt lat="46.95912" lon="3.18207">
        <ele>181</ele>
        <time>2019-10-14T01:49:00Z</time>
      </trkpt>
      <trkpt lat="46.95925" lon="3.18197">
        <ele>181</ele>
        <time>2019-10-14T01:49:04Z</time>
      </trkpt>
      <trkpt lat="46.95947" lon="3.18138">
        <ele>180.9</ele>
        <time>2019-10-14T01:49:16Z</time>
      </trkpt>
      <trkpt lat="46.95952" lon="3.18141">
        <ele>180.7</ele>
        <time>2019-10-14T01:49:18Z</time>
      </trkpt>
      <trkpt lat="46.95958" lon="3.18147">
        <ele>180.5</ele>
        <time>2019-10-14T01:49:20Z</time>
      </trkpt>
      <trkpt lat="46.95966" lon="3.18153">
        <ele>180.2</ele>
        <time>2019-10-14T01:49:22Z</time>
      </trkpt>
      <trkpt lat="46.95971" lon="3.18138">
        <ele>180</ele>
        <time>2019-10-14T01:49:25Z</time>
      </trkpt>
      <trkpt lat="46.95989" lon="3.18092">
        <ele>177.6</ele>
        <time>2019-10-14T01:49:35Z</time>
      </trkpt>
      <trkpt lat="46.96008" lon="3.18059">
        <ele>177.7</ele>
        <time>2019-10-14T01:49:43Z</time>
      </trkpt>
      <trkpt lat="46.96056" lon="3.17916">
        <ele>178</ele>
        <time>2019-10-14T01:50:12Z</time>
      </trkpt>
      <trkpt lat="46.96085" lon="3.1786">
        <ele>177.9</ele>
        <time>2019-10-14T01:50:24Z</time>
      </trkpt>
      <trkpt lat="46.96116" lon="3.17806">
        <ele>177.8</ele>
        <time>2019-10-14T01:50:37Z</time>
      </trkpt>
      <trkpt lat="46.96178" lon="3.17726">
        <ele>177.8</ele>
        <time>2019-10-14T01:50:59Z</time>
      </trkpt>
      <trkpt lat="46.96239" lon="3.17664">
        <ele>177</ele>
        <time>2019-10-14T01:51:19Z</time>
      </trkpt>
      <trkpt lat="46.96301" lon="3.17625">
        <ele>176.2</ele>
        <time>2019-10-14T01:51:37Z</time>
      </trkpt>
      <trkpt lat="46.96329" lon="3.1761">
        <ele>177</ele>
        <time>2019-10-14T01:51:45Z</time>
      </trkpt>
      <trkpt lat="46.9635" lon="3.17597">
        <ele>176.7</ele>
        <time>2019-10-14T01:51:51Z</time>
      </trkpt>
      <trkpt lat="46.9637" lon="3.17585">
        <ele>177.5</ele>
        <time>2019-10-14T01:51:57Z</time>
      </trkpt>
      <trkpt lat="46.96412" lon="3.17563">
        <ele>176.7</ele>
        <time>2019-10-14T01:52:09Z</time>
      </trkpt>
      <trkpt lat="46.9711" lon="3.1719">
        <ele>175</ele>
        <time>2019-10-14T01:55:27Z</time>
      </trkpt>
      <trkpt lat="46.97425" lon="3.17023">
        <ele>175.6</ele>
        <time>2019-10-14T01:56:57Z</time>
      </trkpt>
      <trkpt lat="46.97507" lon="3.16975">
        <ele>175</ele>
        <time>2019-10-14T01:57:21Z</time>
      </trkpt>
      <trkpt lat="46.97539" lon="3.16952">
        <ele>176</ele>
        <time>2019-10-14T01:57:30Z</time>
      </trkpt>
      <trkpt lat="46.97567" lon="3.16932">
        <ele>177.1</ele>
        <time>2019-10-14T01:57:38Z</time>
      </trkpt>
      <trkpt lat="46.9757" lon="3.16931">
        <ele>177</ele>
        <time>2019-10-14T01:57:39Z</time>
      </trkpt>
      <trkpt lat="46.97579" lon="3.16927">
        <ele>176.6</ele>
        <time>2019-10-14T01:57:42Z</time>
      </trkpt>
      <trkpt lat="46.97583" lon="3.16925">
        <ele>176.2</ele>
        <time>2019-10-14T01:57:43Z</time>
      </trkpt>
      <trkpt lat="46.97613" lon="3.1692">
        <ele>175.6</ele>
        <time>2019-10-14T01:57:51Z</time>
      </trkpt>
      <trkpt lat="46.97617" lon="3.1692">
        <ele>175.8</ele>
        <time>2019-10-14T01:57:52Z</time>
      </trkpt>
      <trkpt lat="46.97622" lon="3.16919">
        <ele>175.9</ele>
        <time>2019-10-14T01:57:53Z</time>
      </trkpt>
      <trkpt lat="46.97602" lon="3.16931">
        <ele>177.1</ele>
        <time>2019-10-14T01:57:59Z</time>
      </trkpt>
      <trkpt lat="46.9758" lon="3.16949">
        <ele>178.7</ele>
        <time>2019-10-14T01:58:06Z</time>
      </trkpt>
      <trkpt lat="46.9759" lon="3.16949">
        <ele>178.8</ele>
        <time>2019-10-14T01:58:09Z</time>
      </trkpt>
      <trkpt lat="46.97595" lon="3.16948">
        <ele>178.8</ele>
        <time>2019-10-14T01:58:10Z</time>
      </trkpt>
      <trkpt lat="46.976" lon="3.16945">
        <ele>179</ele>
        <time>2019-10-14T01:58:11Z</time>
      </trkpt>
      <trkpt lat="46.97889" lon="3.16793">
        <ele>176.4</ele>
        <time>2019-10-14T01:59:33Z</time>
      </trkpt>
      <trkpt lat="46.98033" lon="3.16715">
        <ele>176.8</ele>
        <time>2019-10-14T02:00:14Z</time>
      </trkpt>
      <trkpt lat="46.98106" lon="3.16677">
        <ele>176.2</ele>
        <time>2019-10-14T02:00:35Z</time>
      </trkpt>
      <trkpt lat="46.9818" lon="3.16649">
        <ele>176</ele>
        <time>2019-10-14T02:00:55Z</time>
      </trkpt>
      <trkpt lat="46.98187" lon="3.16636">
        <ele>175.8</ele>
        <time>2019-10-14T02:00:58Z</time>
      </trkpt>
      <trkpt lat="46.9819" lon="3.16627">
        <ele>175.7</ele>
        <time>2019-10-14T02:01:00Z</time>
      </trkpt>
      <trkpt lat="46.98191" lon="3.16617">
        <ele>175.9</ele>
        <time>2019-10-14T02:01:02Z</time>
      </trkpt>
      <trkpt lat="46.98188" lon="3.16602">
        <ele>175.5</ele>
        <time>2019-10-14T02:01:05Z</time>
      </trkpt>
      <trkpt lat="46.98181" lon="3.16574">
        <ele>175.5</ele>
        <time>2019-10-14T02:01:10Z</time>
      </trkpt>
      <trkpt lat="46.98212" lon="3.16553">
        <ele>175.8</ele>
        <time>2019-10-14T02:01:20Z</time>
      </trkpt>
      <trkpt lat="46.98235" lon="3.16533">
        <ele>176</ele>
        <time>2019-10-14T02:01:27Z</time>
      </trkpt>
      <trkpt lat="46.98252" lon="3.16515">
        <ele>175.7</ele>
        <time>2019-10-14T02:01:32Z</time>
      </trkpt>
      <trkpt lat="46.98266" lon="3.16496">
        <ele>175.2</ele>
        <time>2019-10-14T02:01:37Z</time>
      </trkpt>
      <trkpt lat="46.98278" lon="3.16472">
        <ele>177.9</ele>
        <time>2019-10-14T02:01:43Z</time>
      </trkpt>
      <trkpt lat="46.98288" lon="3.16429">
        <ele>175.1</ele>
        <time>2019-10-14T02:01:51Z</time>
      </trkpt>
      <trkpt lat="46.98291" lon="3.16405">
        <ele>175</ele>
        <time>2019-10-14T02:01:56Z</time>
      </trkpt>
      <trkpt lat="46.9829" lon="3.16374">
        <ele>175.1</ele>
        <time>2019-10-14T02:02:01Z</time>
      </trkpt>
      <trkpt lat="46.98289" lon="3.16365">
        <ele>175.2</ele>
        <time>2019-10-14T02:02:03Z</time>
      </trkpt>
      <trkpt lat="46.98285" lon="3.16348">
        <ele>176.1</ele>
        <time>2019-10-14T02:02:06Z</time>
      </trkpt>
      <trkpt lat="46.98261" lon="3.16279">
        <ele>176</ele>
        <time>2019-10-14T02:02:20Z</time>
      </trkpt>
      <trkpt lat="46.98227" lon="3.16187">
        <ele>177</ele>
        <time>2019-10-14T02:02:39Z</time>
      </trkpt>
      <trkpt lat="46.98207" lon="3.16125">
        <ele>177.2</ele>
        <time>2019-10-14T02:02:52Z</time>
      </trkpt>
      <trkpt lat="46.98203" lon="3.16121">
        <ele>177.2</ele>
        <time>2019-10-14T02:02:53Z</time>
      </trkpt>
      <trkpt lat="46.98205" lon="3.16101">
        <ele>177.5</ele>
        <time>2019-10-14T02:02:57Z</time>
      </trkpt>
      <trkpt lat="46.98206" lon="3.1609">
        <ele>177.5</ele>
        <time>2019-10-14T02:02:59Z</time>
      </trkpt>
      <trkpt lat="46.98205" lon="3.16078">
        <ele>177.7</ele>
        <time>2019-10-14T02:03:01Z</time>
      </trkpt>
      <trkpt lat="46.98199" lon="3.16055">
        <ele>178.5</ele>
        <time>2019-10-14T02:03:06Z</time>
      </trkpt>
      <trkpt lat="46.98189" lon="3.16026">
        <ele>180</ele>
        <time>2019-10-14T02:03:11Z</time>
      </trkpt>
      <trkpt lat="46.98198" lon="3.1602">
        <ele>179.3</ele>
        <time>2019-10-14T02:03:14Z</time>
      </trkpt>
      <trkpt lat="46.98205" lon="3.16014">
        <ele>177.5</ele>
        <time>2019-10-14T02:03:16Z</time>
      </trkpt>
      <trkpt lat="46.98476" lon="3.15796">
        <ele>172.6</ele>
        <time>2019-10-14T02:04:39Z</time>
      </trkpt>
      <trkpt lat="46.98479" lon="3.15792">
        <ele>173.7</ele>
        <time>2019-10-14T02:04:40Z</time>
      </trkpt>
      <trkpt lat="46.98477" lon="3.15786">
        <ele>173.2</ele>
        <time>2019-10-14T02:04:41Z</time>
      </trkpt>
      <trkpt lat="46.98494" lon="3.1577">
        <ele>177.9</ele>
        <time>2019-10-14T02:04:47Z</time>
      </trkpt>
      <trkpt lat="46.98498" lon="3.15766">
        <ele>178.7</ele>
        <time>2019-10-14T02:04:48Z</time>
      </trkpt>
      <trkpt lat="46.98502" lon="3.1576">
        <ele>178.8</ele>
        <time>2019-10-14T02:04:49Z</time>
      </trkpt>
      <trkpt lat="46.98504" lon="3.15762">
        <ele>179</ele>
        <time>2019-10-14T02:04:50Z</time>
      </trkpt>
      <trkpt lat="46.98509" lon="3.15766">
        <ele>179.4</ele>
        <time>2019-10-14T02:04:52Z</time>
      </trkpt>
      <trkpt lat="46.98513" lon="3.15764">
        <ele>179.5</ele>
        <time>2019-10-14T02:04:53Z</time>
      </trkpt>
      <trkpt lat="46.98525" lon="3.15754">
        <ele>179.8</ele>
        <time>2019-10-14T02:04:56Z</time>
      </trkpt>
      <trkpt lat="46.98528" lon="3.15755">
        <ele>180.1</ele>
        <time>2019-10-14T02:04:57Z</time>
      </trkpt>
      <trkpt lat="46.98536" lon="3.1577">
        <ele>182.9</ele>
        <time>2019-10-14T02:05:01Z</time>
      </trkpt>
      <trkpt lat="46.9855" lon="3.15793">
        <ele>185.4</ele>
        <time>2019-10-14T02:05:06Z</time>
      </trkpt>
      <trkpt lat="46.98565" lon="3.15818">
        <ele>185.1</ele>
        <time>2019-10-14T02:05:12Z</time>
      </trkpt>
      <trkpt lat="46.9857" lon="3.15827">
        <ele>185.3</ele>
        <time>2019-10-14T02:05:14Z</time>
      </trkpt>
      <trkpt lat="46.98571" lon="3.1583">
        <ele>185.3</ele>
        <time>2019-10-14T02:05:15Z</time>
      </trkpt>
      <trkpt lat="46.98582" lon="3.15826">
        <ele>188.9</ele>
        <time>2019-10-14T02:05:18Z</time>
      </trkpt>
      <trkpt lat="46.98585" lon="3.15824">
        <ele>189.4</ele>
        <time>2019-10-14T02:05:19Z</time>
      </trkpt>
      <trkpt lat="46.98593" lon="3.15817">
        <ele>190.1</ele>
        <time>2019-10-14T02:05:21Z</time>
      </trkpt>
      <trkpt lat="46.98611" lon="3.15807">
        <ele>191</ele>
        <time>2019-10-14T02:05:27Z</time>
      </trkpt>
      <trkpt lat="46.98615" lon="3.15805">
        <ele>191.1</ele>
        <time>2019-10-14T02:05:28Z</time>
      </trkpt>
      <trkpt lat="46.9866" lon="3.15779">
        <ele>194.7</ele>
        <time>2019-10-14T02:05:41Z</time>
      </trkpt>
      <trkpt lat="46.98665" lon="3.15773">
        <ele>195</ele>
        <time>2019-10-14T02:05:42Z</time>
      </trkpt>
      <trkpt lat="46.98678" lon="3.15765">
        <ele>195.4</ele>
        <time>2019-10-14T02:05:46Z</time>
      </trkpt>
      <trkpt lat="46.98689" lon="3.15759">
        <ele>195.8</ele>
        <time>2019-10-14T02:05:49Z</time>
      </trkpt>
      <trkpt lat="46.98702" lon="3.15757">
        <ele>196</ele>
        <time>2019-10-14T02:05:53Z</time>
      </trkpt>
      <trkpt lat="46.98704" lon="3.15764">
        <ele>196</ele>
        <time>2019-10-14T02:05:54Z</time>
      </trkpt>
      <trkpt lat="46.98716" lon="3.15787">
        <ele>195.9</ele>
        <time>2019-10-14T02:05:59Z</time>
      </trkpt>
      <trkpt lat="46.98724" lon="3.15806">
        <ele>195.9</ele>
        <time>2019-10-14T02:06:04Z</time>
      </trkpt>
      <trkpt lat="46.98741" lon="3.15798">
        <ele>195.5</ele>
        <time>2019-10-14T02:06:08Z</time>
      </trkpt>
      <trkpt lat="46.98752" lon="3.15796">
        <ele>195.4</ele>
        <time>2019-10-14T02:06:11Z</time>
      </trkpt>
      <trkpt lat="46.98752" lon="3.15799">
        <ele>195.3</ele>
        <time>2019-10-14T02:06:12Z</time>
      </trkpt>
      <trkpt lat="46.98754" lon="3.15823">
        <ele>194.5</ele>
        <time>2019-10-14T02:06:16Z</time>
      </trkpt>
      <trkpt lat="46.98762" lon="3.15822">
        <ele>194.8</ele>
        <time>2019-10-14T02:06:18Z</time>
      </trkpt>
      <trkpt lat="46.98799" lon="3.15802">
        <ele>195.1</ele>
        <time>2019-10-14T02:06:29Z</time>
      </trkpt>
      <trkpt lat="46.98825" lon="3.15779">
        <ele>192</ele>
        <time>2019-10-14T02:06:37Z</time>
      </trkpt>
      <trkpt lat="46.98832" lon="3.15764">
        <ele>191.6</ele>
        <time>2019-10-14T02:06:40Z</time>
      </trkpt>
      <trkpt lat="46.9883" lon="3.15758">
        <ele>192</ele>
        <time>2019-10-14T02:06:42Z</time>
      </trkpt>
      <trkpt lat="46.98829" lon="3.15751">
        <ele>192.3</ele>
        <time>2019-10-14T02:06:43Z</time>
      </trkpt>
      <trkpt lat="46.98824" lon="3.15739">
        <ele>192.4</ele>
        <time>2019-10-14T02:06:45Z</time>
      </trkpt>
      <trkpt lat="46.98816" lon="3.15722">
        <ele>192.9</ele>
        <time>2019-10-14T02:06:49Z</time>
      </trkpt>
      <trkpt lat="46.98809" lon="3.15708">
        <ele>192.9</ele>
        <time>2019-10-14T02:06:52Z</time>
      </trkpt>
      <trkpt lat="46.98805" lon="3.15701">
        <ele>192.6</ele>
        <time>2019-10-14T02:06:54Z</time>
      </trkpt>
      <trkpt lat="46.98775" lon="3.15723">
        <ele>194.3</ele>
        <time>2019-10-14T02:07:03Z</time>
      </trkpt>
      <trkpt lat="46.9875" lon="3.15735">
        <ele>196</ele>
        <time>2019-10-14T02:07:10Z</time>
      </trkpt>
      <trkpt lat="46.98746" lon="3.15736">
        <ele>196.1</ele>
        <time>2019-10-14T02:07:11Z</time>
      </trkpt>
      <trkpt lat="46.98752" lon="3.15776">
        <ele>196</ele>
        <time>2019-10-14T02:07:19Z</time>
      </trkpt>
      <trkpt lat="46.98752" lon="3.15796">
        <ele>195.4</ele>
        <time>2019-10-14T02:07:22Z</time>
      </trkpt>
      <trkpt lat="46.98752" lon="3.15799">
        <ele>195.3</ele>
        <time>2019-10-14T02:07:23Z</time>
      </trkpt>
      <trkpt lat="46.98754" lon="3.15823">
        <ele>194.5</ele>
        <time>2019-10-14T02:07:27Z</time>
      </trkpt>
      <trkpt lat="46.98762" lon="3.15822">
        <ele>194.8</ele>
        <time>2019-10-14T02:07:29Z</time>
      </trkpt>
      <trkpt lat="46.98799" lon="3.15802">
        <ele>195.1</ele>
        <time>2019-10-14T02:07:40Z</time>
      </trkpt>
      <trkpt lat="46.98825" lon="3.15779">
        <ele>192</ele>
        <time>2019-10-14T02:07:48Z</time>
      </trkpt>
      <trkpt lat="46.98832" lon="3.15764">
        <ele>191.6</ele>
        <time>2019-10-14T02:07:51Z</time>
      </trkpt>
      <trkpt lat="46.9883" lon="3.15758">
        <ele>192</ele>
        <time>2019-10-14T02:07:52Z</time>
      </trkpt>
      <trkpt lat="46.98829" lon="3.15751">
        <ele>192.3</ele>
        <time>2019-10-14T02:07:54Z</time>
      </trkpt>
      <trkpt lat="46.98824" lon="3.15739">
        <ele>192.4</ele>
        <time>2019-10-14T02:07:56Z</time>
      </trkpt>
      <trkpt lat="46.98816" lon="3.15722">
        <ele>192.9</ele>
        <time>2019-10-14T02:08:00Z</time>
      </trkpt>
      <trkpt lat="46.98809" lon="3.15708">
        <ele>192.9</ele>
        <time>2019-10-14T02:08:03Z</time>
      </trkpt>
      <trkpt lat="46.98805" lon="3.15701">
        <ele>192.6</ele>
        <time>2019-10-14T02:08:05Z</time>
      </trkpt>
      <trkpt lat="46.98795" lon="3.15684">
        <ele>194.3</ele>
        <time>2019-10-14T02:08:09Z</time>
      </trkpt>
      <trkpt lat="46.98786" lon="3.15669">
        <ele>194.6</ele>
        <time>2019-10-14T02:08:13Z</time>
      </trkpt>
      <trkpt lat="46.98777" lon="3.15652">
        <ele>193.6</ele>
        <time>2019-10-14T02:08:17Z</time>
      </trkpt>
      <trkpt lat="46.98766" lon="3.15632">
        <ele>193.3</ele>
        <time>2019-10-14T02:08:21Z</time>
      </trkpt>
      <trkpt lat="46.98754" lon="3.15609">
        <ele>191</ele>
        <time>2019-10-14T02:08:27Z</time>
      </trkpt>
      <trkpt lat="46.98742" lon="3.15589">
        <ele>191.5</ele>
        <time>2019-10-14T02:08:31Z</time>
      </trkpt>
      <trkpt lat="46.98721" lon="3.15551">
        <ele>189.8</ele>
        <time>2019-10-14T02:08:40Z</time>
      </trkpt>
      <trkpt lat="46.98708" lon="3.15529">
        <ele>189.6</ele>
        <time>2019-10-14T02:08:46Z</time>
      </trkpt>
      <trkpt lat="46.98695" lon="3.15481">
        <ele>186</ele>
        <time>2019-10-14T02:08:55Z</time>
      </trkpt>
      <trkpt lat="46.98694" lon="3.1543">
        <ele>183</ele>
        <time>2019-10-14T02:09:04Z</time>
      </trkpt>
      <trkpt lat="46.98692" lon="3.15419">
        <ele>182.9</ele>
        <time>2019-10-14T02:09:06Z</time>
      </trkpt>
      <trkpt lat="46.98679" lon="3.15388">
        <ele>182.3</ele>
        <time>2019-10-14T02:09:13Z</time>
      </trkpt>
      <trkpt lat="46.98679" lon="3.15386">
        <ele>182.3</ele>
        <time>2019-10-14T02:09:13Z</time>
      </trkpt>
      <trkpt lat="46.98677" lon="3.15374">
        <ele>181.9</ele>
        <time>2019-10-14T02:09:16Z</time>
      </trkpt>
      <trkpt lat="46.98675" lon="3.15362">
        <ele>181.6</ele>
        <time>2019-10-14T02:09:18Z</time>
      </trkpt>
      <trkpt lat="46.98673" lon="3.15356">
        <ele>182</ele>
        <time>2019-10-14T02:09:19Z</time>
      </trkpt>
      <trkpt lat="46.98668" lon="3.1535">
        <ele>182.6</ele>
        <time>2019-10-14T02:09:21Z</time>
      </trkpt>
      <trkpt lat="46.9866" lon="3.15344">
        <ele>183</ele>
        <time>2019-10-14T02:09:23Z</time>
      </trkpt>
      <trkpt lat="46.98657" lon="3.15345">
        <ele>182.7</ele>
        <time>2019-10-14T02:09:24Z</time>
      </trkpt>
      <trkpt lat="46.98652" lon="3.15346">
        <ele>182.3</ele>
        <time>2019-10-14T02:09:25Z</time>
      </trkpt>
      <trkpt lat="46.98645" lon="3.1534">
        <ele>182.3</ele>
        <time>2019-10-14T02:09:28Z</time>
      </trkpt>
      <trkpt lat="46.98642" lon="3.15326">
        <ele>182.5</ele>
        <time>2019-10-14T02:09:30Z</time>
      </trkpt>
      <trkpt lat="46.98643" lon="3.15312">
        <ele>183</ele>
        <time>2019-10-14T02:09:33Z</time>
      </trkpt>
      <trkpt lat="46.98668" lon="3.15283">
        <ele>184</ele>
        <time>2019-10-14T02:09:41Z</time>
      </trkpt>
      <trkpt lat="46.98678" lon="3.15272">
        <ele>184.1</ele>
        <time>2019-10-14T02:09:45Z</time>
      </trkpt>
      <trkpt lat="46.98669" lon="3.15236">
        <ele>185</ele>
        <time>2019-10-14T02:09:52Z</time>
      </trkpt>
      <trkpt lat="46.98654" lon="3.1516">
        <ele>187.2</ele>
        <time>2019-10-14T02:10:06Z</time>
      </trkpt>
      <trkpt lat="46.98651" lon="3.1515">
        <ele>187.7</ele>
        <time>2019-10-14T02:10:08Z</time>
      </trkpt>
      <trkpt lat="46.98649" lon="3.15137">
        <ele>188.1</ele>
        <time>2019-10-14T02:10:10Z</time>
      </trkpt>
      <trkpt lat="46.98634" lon="3.15073">
        <ele>188.8</ele>
        <time>2019-10-14T02:10:23Z</time>
      </trkpt>
      <trkpt lat="46.9863" lon="3.15052">
        <ele>191.4</ele>
        <time>2019-10-14T02:10:27Z</time>
      </trkpt>
      <trkpt lat="46.98637" lon="3.15049">
        <ele>191.3</ele>
        <time>2019-10-14T02:10:29Z</time>
      </trkpt>
      <trkpt lat="46.98735" lon="3.15003">
        <ele>187.9</ele>
        <time>2019-10-14T02:10:56Z</time>
      </trkpt>
      <trkpt lat="46.98766" lon="3.14968">
        <ele>187.7</ele>
        <time>2019-10-14T02:11:07Z</time>
      </trkpt>
      <trkpt lat="46.98779" lon="3.14951">
        <ele>188.2</ele>
        <time>2019-10-14T02:11:11Z</time>
      </trkpt>
      <trkpt lat="46.98816" lon="3.14884">
        <ele>190</ele>
        <time>2019-10-14T02:11:27Z</time>
      </trkpt>
      <trkpt lat="46.98855" lon="3.14829">
        <ele>190.9</ele>
        <time>2019-10-14T02:11:42Z</time>
      </trkpt>
      <trkpt lat="46.98928" lon="3.14725">
        <ele>191.2</ele>
        <time>2019-10-14T02:12:09Z</time>
      </trkpt>
      <trkpt lat="46.98964" lon="3.14704">
        <ele>190.9</ele>
        <time>2019-10-14T02:12:19Z</time>
      </trkpt>
      <trkpt lat="46.99031" lon="3.14666">
        <ele>192.8</ele>
        <time>2019-10-14T02:12:38Z</time>
      </trkpt>
      <trkpt lat="46.99048" lon="3.14582">
        <ele>195</ele>
        <time>2019-10-14T02:12:54Z</time>
      </trkpt>
      <trkpt lat="46.9905" lon="3.14572">
        <ele>195.4</ele>
        <time>2019-10-14T02:12:56Z</time>
      </trkpt>
      <trkpt lat="46.99051" lon="3.14561">
        <ele>195.8</ele>
        <time>2019-10-14T02:12:58Z</time>
      </trkpt>
      <trkpt lat="46.99052" lon="3.14533">
        <ele>196.1</ele>
        <time>2019-10-14T02:13:03Z</time>
      </trkpt>
      <trkpt lat="46.9905" lon="3.14508">
        <ele>195.9</ele>
        <time>2019-10-14T02:13:08Z</time>
      </trkpt>
      <trkpt lat="46.99049" lon="3.14483">
        <ele>195.8</ele>
        <time>2019-10-14T02:13:12Z</time>
      </trkpt>
      <trkpt lat="46.99043" lon="3.1434">
        <ele>197.5</ele>
        <time>2019-10-14T02:13:39Z</time>
      </trkpt>
      <trkpt lat="46.99047" lon="3.14255">
        <ele>198.3</ele>
        <time>2019-10-14T02:13:54Z</time>
      </trkpt>
      <trkpt lat="46.99046" lon="3.14246">
        <ele>198.3</ele>
        <time>2019-10-14T02:13:56Z</time>
      </trkpt>
      <trkpt lat="46.99048" lon="3.14246">
        <ele>198.3</ele>
        <time>2019-10-14T02:13:56Z</time>
      </trkpt>
      <trkpt lat="46.9905" lon="3.14244">
        <ele>198.2</ele>
        <time>2019-10-14T02:13:57Z</time>
      </trkpt>
      <trkpt lat="46.99051" lon="3.14242">
        <ele>198.2</ele>
        <time>2019-10-14T02:13:57Z</time>
      </trkpt>
      <trkpt lat="46.99052" lon="3.1424">
        <ele>198.1</ele>
        <time>2019-10-14T02:13:58Z</time>
      </trkpt>
      <trkpt lat="46.99052" lon="3.14237">
        <ele>198.1</ele>
        <time>2019-10-14T02:13:58Z</time>
      </trkpt>
      <trkpt lat="46.99052" lon="3.14235">
        <ele>198.1</ele>
        <time>2019-10-14T02:13:59Z</time>
      </trkpt>
      <trkpt lat="46.99051" lon="3.14233">
        <ele>198.2</ele>
        <time>2019-10-14T02:13:59Z</time>
      </trkpt>
      <trkpt lat="46.9905" lon="3.14231">
        <ele>198.2</ele>
        <time>2019-10-14T02:14:00Z</time>
      </trkpt>
      <trkpt lat="46.99049" lon="3.1423">
        <ele>198.2</ele>
        <time>2019-10-14T02:14:00Z</time>
      </trkpt>
      <trkpt lat="46.99047" lon="3.14229">
        <ele>198.3</ele>
        <time>2019-10-14T02:14:01Z</time>
      </trkpt>
      <trkpt lat="46.99048" lon="3.14224">
        <ele>198.3</ele>
        <time>2019-10-14T02:14:01Z</time>
      </trkpt>
      <trkpt lat="46.99049" lon="3.14219">
        <ele>198.2</ele>
        <time>2019-10-14T02:14:02Z</time>
      </trkpt>
      <trkpt lat="46.99051" lon="3.1421">
        <ele>198.2</ele>
        <time>2019-10-14T02:14:04Z</time>
      </trkpt>
      <trkpt lat="46.99054" lon="3.14202">
        <ele>198.1</ele>
        <time>2019-10-14T02:14:06Z</time>
      </trkpt>
      <trkpt lat="46.99072" lon="3.14151">
        <ele>198</ele>
        <time>2019-10-14T02:14:16Z</time>
      </trkpt>
      <trkpt lat="46.99117" lon="3.13969">
        <ele>199</ele>
        <time>2019-10-14T02:14:52Z</time>
      </trkpt>
      <trkpt lat="46.99118" lon="3.13966">
        <ele>198.9</ele>
        <time>2019-10-14T02:14:52Z</time>
      </trkpt>
      <trkpt lat="46.99125" lon="3.13933">
        <ele>198.5</ele>
        <time>2019-10-14T02:14:58Z</time>
      </trkpt>
      <trkpt lat="46.99127" lon="3.13926">
        <ele>198.4</ele>
        <time>2019-10-14T02:15:00Z</time>
      </trkpt>
      <trkpt lat="46.99136" lon="3.13886">
        <ele>198.1</ele>
        <time>2019-10-14T02:15:08Z</time>
      </trkpt>
      <trkpt lat="46.99148" lon="3.13847">
        <ele>198</ele>
        <time>2019-10-14T02:15:15Z</time>
      </trkpt>
      <trkpt lat="46.99153" lon="3.13821">
        <ele>198.2</ele>
        <time>2019-10-14T02:15:20Z</time>
      </trkpt>
      <trkpt lat="46.99153" lon="3.13808">
        <ele>198.5</ele>
        <time>2019-10-14T02:15:23Z</time>
      </trkpt>
      <trkpt lat="46.9915" lon="3.1379">
        <ele>198.4</ele>
        <time>2019-10-14T02:15:26Z</time>
      </trkpt>
      <trkpt lat="46.99148" lon="3.13773">
        <ele>198.3</ele>
        <time>2019-10-14T02:15:29Z</time>
      </trkpt>
      <trkpt lat="46.99151" lon="3.13749">
        <ele>198.5</ele>
        <time>2019-10-14T02:15:34Z</time>
      </trkpt>
      <trkpt lat="46.99157" lon="3.13731">
        <ele>198.9</ele>
        <time>2019-10-14T02:15:37Z</time>
      </trkpt>
      <trkpt lat="46.99162" lon="3.13722">
        <ele>199</ele>
        <time>2019-10-14T02:15:39Z</time>
      </trkpt>
      <trkpt lat="46.99178" lon="3.13704">
        <ele>199</ele>
        <time>2019-10-14T02:15:45Z</time>
      </trkpt>
      <trkpt lat="46.9918" lon="3.13705">
        <ele>199</ele>
        <time>2019-10-14T02:15:45Z</time>
      </trkpt>
      <trkpt lat="46.99181" lon="3.13706">
        <ele>199</ele>
        <time>2019-10-14T02:15:46Z</time>
      </trkpt>
      <trkpt lat="46.99183" lon="3.13705">
        <ele>199</ele>
        <time>2019-10-14T02:15:46Z</time>
      </trkpt>
      <trkpt lat="46.99184" lon="3.13704">
        <ele>199</ele>
        <time>2019-10-14T02:15:46Z</time>
      </trkpt>
      <trkpt lat="46.99185" lon="3.13703">
        <ele>199</ele>
        <time>2019-10-14T02:15:47Z</time>
      </trkpt>
      <trkpt lat="46.99186" lon="3.137">
        <ele>199</ele>
        <time>2019-10-14T02:15:47Z</time>
      </trkpt>
      <trkpt lat="46.99186" lon="3.13698">
        <ele>199</ele>
        <time>2019-10-14T02:15:48Z</time>
      </trkpt>
      <trkpt lat="46.99186" lon="3.13696">
        <ele>199</ele>
        <time>2019-10-14T02:15:48Z</time>
      </trkpt>
      <trkpt lat="46.99185" lon="3.13693">
        <ele>199</ele>
        <time>2019-10-14T02:15:49Z</time>
      </trkpt>
      <trkpt lat="46.99184" lon="3.13692">
        <ele>199</ele>
        <time>2019-10-14T02:15:49Z</time>
      </trkpt>
      <trkpt lat="46.99182" lon="3.13691">
        <ele>199</ele>
        <time>2019-10-14T02:15:50Z</time>
      </trkpt>
      <trkpt lat="46.9918" lon="3.13691">
        <ele>199</ele>
        <time>2019-10-14T02:15:50Z</time>
      </trkpt>
      <trkpt lat="46.99178" lon="3.13687">
        <ele>199</ele>
        <time>2019-10-14T02:15:51Z</time>
      </trkpt>
      <trkpt lat="46.9917" lon="3.1368">
        <ele>199</ele>
        <time>2019-10-14T02:15:54Z</time>
      </trkpt>
      <trkpt lat="46.99162" lon="3.13676">
        <ele>199</ele>
        <time>2019-10-14T02:15:56Z</time>
      </trkpt>
      <trkpt lat="46.99131" lon="3.13659">
        <ele>199.3</ele>
        <time>2019-10-14T02:16:05Z</time>
      </trkpt>
      <trkpt lat="46.99125" lon="3.13656">
        <ele>199.5</ele>
        <time>2019-10-14T02:16:06Z</time>
      </trkpt>
      <trkpt lat="46.99133" lon="3.13618">
        <ele>199.2</ele>
        <time>2019-10-14T02:16:14Z</time>
      </trkpt>
      <trkpt lat="46.99136" lon="3.13611">
        <ele>199.1</ele>
        <time>2019-10-14T02:16:15Z</time>
      </trkpt>
      <trkpt lat="46.99148" lon="3.13562">
        <ele>199.7</ele>
        <time>2019-10-14T02:16:25Z</time>
      </trkpt>
      <trkpt lat="46.99157" lon="3.13511">
        <ele>200</ele>
        <time>2019-10-14T02:16:34Z</time>
      </trkpt>
      <trkpt lat="46.99158" lon="3.13505">
        <ele>200</ele>
        <time>2019-10-14T02:16:35Z</time>
      </trkpt>
      <trkpt lat="46.99149" lon="3.13502">
        <ele>200</ele>
        <time>2019-10-14T02:16:38Z</time>
      </trkpt>
      <trkpt lat="46.9914" lon="3.13499">
        <ele>200</ele>
        <time>2019-10-14T02:16:40Z</time>
      </trkpt>
      <trkpt lat="46.99141" lon="3.1349">
        <ele>200.3</ele>
        <time>2019-10-14T02:16:42Z</time>
      </trkpt>
      <trkpt lat="46.99149" lon="3.13446">
        <ele>201</ele>
        <time>2019-10-14T02:16:50Z</time>
      </trkpt>
      <trkpt lat="46.99163" lon="3.13362">
        <ele>202.1</ele>
        <time>2019-10-14T02:17:06Z</time>
      </trkpt>
      <trkpt lat="46.99171" lon="3.13311">
        <ele>202.8</ele>
        <time>2019-10-14T02:17:16Z</time>
      </trkpt>
      <trkpt lat="46.99175" lon="3.13281">
        <ele>202.7</ele>
        <time>2019-10-14T02:17:21Z</time>
      </trkpt>
      <trkpt lat="46.99179" lon="3.13264">
        <ele>203.1</ele>
        <time>2019-10-14T02:17:24Z</time>
      </trkpt>
      <trkpt lat="46.99191" lon="3.13213">
        <ele>203.2</ele>
        <time>2019-10-14T02:17:34Z</time>
      </trkpt>
      <trkpt lat="46.99197" lon="3.13185">
        <ele>203.3</ele>
        <time>2019-10-14T02:17:40Z</time>
      </trkpt>
      <trkpt lat="46.99202" lon="3.13166">
        <ele>203.7</ele>
        <time>2019-10-14T02:17:43Z</time>
      </trkpt>
      <trkpt lat="46.99209" lon="3.13149">
        <ele>203.5</ele>
        <time>2019-10-14T02:17:47Z</time>
      </trkpt>
      <trkpt lat="46.99224" lon="3.13137">
        <ele>202.9</ele>
        <time>2019-10-14T02:17:51Z</time>
      </trkpt>
      <trkpt lat="46.99227" lon="3.13137">
        <ele>202.8</ele>
        <time>2019-10-14T02:17:52Z</time>
      </trkpt>
      <trkpt lat="46.99239" lon="3.13136">
        <ele>202.4</ele>
        <time>2019-10-14T02:17:55Z</time>
      </trkpt>
      <trkpt lat="46.99255" lon="3.13143">
        <ele>201.8</ele>
        <time>2019-10-14T02:18:00Z</time>
      </trkpt>
      <trkpt lat="46.99266" lon="3.13148">
        <ele>201.4</ele>
        <time>2019-10-14T02:18:03Z</time>
      </trkpt>
      <trkpt lat="46.99307" lon="3.13166">
        <ele>199.9</ele>
        <time>2019-10-14T02:18:14Z</time>
      </trkpt>
      <trkpt lat="46.99366" lon="3.13191">
        <ele>198.1</ele>
        <time>2019-10-14T02:18:31Z</time>
      </trkpt>
      <trkpt lat="46.99375" lon="3.13196">
        <ele>198</ele>
        <time>2019-10-14T02:18:33Z</time>
      </trkpt>
      <trkpt lat="46.99387" lon="3.13192">
        <ele>198</ele>
        <time>2019-10-14T02:18:37Z</time>
      </trkpt>
      <trkpt lat="46.99397" lon="3.13191">
        <ele>197.7</ele>
        <time>2019-10-14T02:18:39Z</time>
      </trkpt>
      <trkpt lat="46.994" lon="3.13191">
        <ele>197.6</ele>
        <time>2019-10-14T02:18:40Z</time>
      </trkpt>
      <trkpt lat="46.9944" lon="3.13187">
        <ele>196.8</ele>
        <time>2019-10-14T02:18:51Z</time>
      </trkpt>
      <trkpt lat="46.99451" lon="3.13154">
        <ele>196</ele>
        <time>2019-10-14T02:18:58Z</time>
      </trkpt>
      <trkpt lat="46.99462" lon="3.13118">
        <ele>196</ele>
        <time>2019-10-14T02:19:05Z</time>
      </trkpt>
      <trkpt lat="46.99473" lon="3.13083">
        <ele>196</ele>
        <time>2019-10-14T02:19:12Z</time>
      </trkpt>
      <trkpt lat="46.99487" lon="3.13039">
        <ele>195</ele>
        <time>2019-10-14T02:19:21Z</time>
      </trkpt>
      <trkpt lat="46.99455" lon="3.13027">
        <ele>195</ele>
        <time>2019-10-14T02:19:29Z</time>
      </trkpt>
      <trkpt lat="46.99457" lon="3.13017">
        <ele>194.8</ele>
        <time>2019-10-14T02:19:31Z</time>
      </trkpt>
      <trkpt lat="46.99461" lon="3.13">
        <ele>194.4</ele>
        <time>2019-10-14T02:19:35Z</time>
      </trkpt>
      <trkpt lat="46.9947" lon="3.12954">
        <ele>193.4</ele>
        <time>2019-10-14T02:19:43Z</time>
      </trkpt>
      <trkpt lat="46.99476" lon="3.12921">
        <ele>193.1</ele>
        <time>2019-10-14T02:19:50Z</time>
      </trkpt>
      <trkpt lat="46.99482" lon="3.12898">
        <ele>193.4</ele>
        <time>2019-10-14T02:19:54Z</time>
      </trkpt>
      <trkpt lat="46.99485" lon="3.12887">
        <ele>193.5</ele>
        <time>2019-10-14T02:19:56Z</time>
      </trkpt>
      <trkpt lat="46.99486" lon="3.12879">
        <ele>193.5</ele>
        <time>2019-10-14T02:19:58Z</time>
      </trkpt>
      <trkpt lat="46.99489" lon="3.12856">
        <ele>193.5</ele>
        <time>2019-10-14T02:20:02Z</time>
      </trkpt>
      <trkpt lat="46.99498" lon="3.12793">
        <ele>193</ele>
        <time>2019-10-14T02:20:14Z</time>
      </trkpt>
      <trkpt lat="46.99498" lon="3.12785">
        <ele>193</ele>
        <time>2019-10-14T02:20:15Z</time>
      </trkpt>
      <trkpt lat="46.99501" lon="3.12752">
        <ele>193</ele>
        <time>2019-10-14T02:20:21Z</time>
      </trkpt>
      <trkpt lat="46.995" lon="3.12715">
        <ele>193.7</ele>
        <time>2019-10-14T02:20:28Z</time>
      </trkpt>
      <trkpt lat="46.995" lon="3.1269">
        <ele>193</ele>
        <time>2019-10-14T02:20:33Z</time>
      </trkpt>
      <trkpt lat="46.99498" lon="3.12658">
        <ele>193</ele>
        <time>2019-10-14T02:20:38Z</time>
      </trkpt>
      <trkpt lat="46.99497" lon="3.12634">
        <ele>193</ele>
        <time>2019-10-14T02:20:43Z</time>
      </trkpt>
      <trkpt lat="46.99505" lon="3.12634">
        <ele>193</ele>
        <time>2019-10-14T02:20:45Z</time>
      </trkpt>
      <trkpt lat="46.9954" lon="3.1263">
        <ele>193</ele>
        <time>2019-10-14T02:20:54Z</time>
      </trkpt>
      <trkpt lat="46.99567" lon="3.12628">
        <ele>193</ele>
        <time>2019-10-14T02:21:02Z</time>
      </trkpt>
      <trkpt lat="46.99576" lon="3.12621">
        <ele>193</ele>
        <time>2019-10-14T02:21:04Z</time>
      </trkpt>
      <trkpt lat="46.99578" lon="3.12611">
        <ele>193</ele>
        <time>2019-10-14T02:21:06Z</time>
      </trkpt>
      <trkpt lat="46.99576" lon="3.12562">
        <ele>192.7</ele>
        <time>2019-10-14T02:21:15Z</time>
      </trkpt>
      <trkpt lat="46.99573" lon="3.125">
        <ele>192</ele>
        <time>2019-10-14T02:21:26Z</time>
      </trkpt>
      <trkpt lat="46.99571" lon="3.12468">
        <ele>191.8</ele>
        <time>2019-10-14T02:21:32Z</time>
      </trkpt>
      <trkpt lat="46.9957" lon="3.12433">
        <ele>191</ele>
        <time>2019-10-14T02:21:39Z</time>
      </trkpt>
      <trkpt lat="46.99577" lon="3.12431">
        <ele>191</ele>
        <time>2019-10-14T02:21:41Z</time>
      </trkpt>
      <trkpt lat="46.99601" lon="3.1243">
        <ele>191.3</ele>
        <time>2019-10-14T02:21:47Z</time>
      </trkpt>
      <trkpt lat="46.99606" lon="3.1243">
        <ele>191.4</ele>
        <time>2019-10-14T02:21:48Z</time>
      </trkpt>
      <trkpt lat="46.99607" lon="3.12416">
        <ele>191</ele>
        <time>2019-10-14T02:21:51Z</time>
      </trkpt>
      <trkpt lat="46.99609" lon="3.12408">
        <ele>191</ele>
        <time>2019-10-14T02:21:52Z</time>
      </trkpt>
      <trkpt lat="46.99611" lon="3.12375">
        <ele>190.5</ele>
        <time>2019-10-14T02:21:58Z</time>
      </trkpt>
      <trkpt lat="46.99613" lon="3.12334">
        <ele>189.9</ele>
        <time>2019-10-14T02:22:06Z</time>
      </trkpt>
      <trkpt lat="46.99613" lon="3.12326">
        <ele>189.6</ele>
        <time>2019-10-14T02:22:07Z</time>
      </trkpt>
      <trkpt lat="46.99612" lon="3.12317">
        <ele>189.4</ele>
        <time>2019-10-14T02:22:09Z</time>
      </trkpt>
      <trkpt lat="46.99609" lon="3.12311">
        <ele>189.2</ele>
        <time>2019-10-14T02:22:10Z</time>
      </trkpt>
      <trkpt lat="46.99594" lon="3.12289">
        <ele>188.4</ele>
        <time>2019-10-14T02:22:16Z</time>
      </trkpt>
      <trkpt lat="46.99593" lon="3.12284">
        <ele>188.2</ele>
        <time>2019-10-14T02:22:17Z</time>
      </trkpt>
      <trkpt lat="46.99593" lon="3.12279">
        <ele>188</ele>
        <time>2019-10-14T02:22:18Z</time>
      </trkpt>
      <trkpt lat="46.99594" lon="3.12275">
        <ele>188</ele>
        <time>2019-10-14T02:22:19Z</time>
      </trkpt>
      <trkpt lat="46.99594" lon="3.12271">
        <ele>187.9</ele>
        <time>2019-10-14T02:22:19Z</time>
      </trkpt>
      <trkpt lat="46.99594" lon="3.12268">
        <ele>187.9</ele>
        <time>2019-10-14T02:22:20Z</time>
      </trkpt>
      <trkpt lat="46.99594" lon="3.12265">
        <ele>187.8</ele>
        <time>2019-10-14T02:22:21Z</time>
      </trkpt>
      <trkpt lat="46.99595" lon="3.1226">
        <ele>187.7</ele>
        <time>2019-10-14T02:22:22Z</time>
      </trkpt>
      <trkpt lat="46.99597" lon="3.12257">
        <ele>187.6</ele>
        <time>2019-10-14T02:22:22Z</time>
      </trkpt>
      <trkpt lat="46.99604" lon="3.12252">
        <ele>187.3</ele>
        <time>2019-10-14T02:22:24Z</time>
      </trkpt>
      <trkpt lat="46.99611" lon="3.12246">
        <ele>187</ele>
        <time>2019-10-14T02:22:27Z</time>
      </trkpt>
      <trkpt lat="46.99616" lon="3.12241">
        <ele>187</ele>
        <time>2019-10-14T02:22:28Z</time>
      </trkpt>
      <trkpt lat="46.99619" lon="3.12234">
        <ele>187</ele>
        <time>2019-10-14T02:22:30Z</time>
      </trkpt>
      <trkpt lat="46.99622" lon="3.12224">
        <ele>187</ele>
        <time>2019-10-14T02:22:32Z</time>
      </trkpt>
      <trkpt lat="46.99625" lon="3.12203">
        <ele>186.7</ele>
        <time>2019-10-14T02:22:36Z</time>
      </trkpt>
      <trkpt lat="46.99627" lon="3.12184">
        <ele>186.1</ele>
        <time>2019-10-14T02:22:39Z</time>
      </trkpt>
      <trkpt lat="46.99633" lon="3.12122">
        <ele>185</ele>
        <time>2019-10-14T02:22:50Z</time>
      </trkpt>
      <trkpt lat="46.99635" lon="3.12108">
        <ele>185</ele>
        <time>2019-10-14T02:22:53Z</time>
      </trkpt>
      <trkpt lat="46.99636" lon="3.12083">
        <ele>185</ele>
        <time>2019-10-14T02:22:58Z</time>
      </trkpt>
      <trkpt lat="46.99636" lon="3.12057">
        <ele>184.2</ele>
        <time>2019-10-14T02:23:02Z</time>
      </trkpt>
      <trkpt lat="46.99636" lon="3.12043">
        <ele>184.1</ele>
        <time>2019-10-14T02:23:05Z</time>
      </trkpt>
      <trkpt lat="46.99635" lon="3.12029">
        <ele>184.1</ele>
        <time>2019-10-14T02:23:07Z</time>
      </trkpt>
      <trkpt lat="46.99632" lon="3.12008">
        <ele>184.8</ele>
        <time>2019-10-14T02:23:11Z</time>
      </trkpt>
      <trkpt lat="46.99627" lon="3.11985">
        <ele>185</ele>
        <time>2019-10-14T02:23:16Z</time>
      </trkpt>
      <trkpt lat="46.99621" lon="3.1196">
        <ele>185</ele>
        <time>2019-10-14T02:23:21Z</time>
      </trkpt>
      <trkpt lat="46.99614" lon="3.11936">
        <ele>185</ele>
        <time>2019-10-14T02:23:25Z</time>
      </trkpt>
      <trkpt lat="46.99613" lon="3.11932">
        <ele>185</ele>
        <time>2019-10-14T02:23:26Z</time>
      </trkpt>
      <trkpt lat="46.99611" lon="3.11927">
        <ele>185</ele>
        <time>2019-10-14T02:23:27Z</time>
      </trkpt>
      <trkpt lat="46.99574" lon="3.11808">
        <ele>183.7</ele>
        <time>2019-10-14T02:23:51Z</time>
      </trkpt>
      <trkpt lat="46.99553" lon="3.1174">
        <ele>183</ele>
        <time>2019-10-14T02:24:05Z</time>
      </trkpt>
      <trkpt lat="46.99543" lon="3.11705">
        <ele>183</ele>
        <time>2019-10-14T02:24:12Z</time>
      </trkpt>
      <trkpt lat="46.99534" lon="3.1167">
        <ele>183</ele>
        <time>2019-10-14T02:24:18Z</time>
      </trkpt>
      <trkpt lat="46.99526" lon="3.1163">
        <ele>183</ele>
        <time>2019-10-14T02:24:26Z</time>
      </trkpt>
      <trkpt lat="46.9952" lon="3.11587">
        <ele>182.8</ele>
        <time>2019-10-14T02:24:34Z</time>
      </trkpt>
      <trkpt lat="46.99518" lon="3.11553">
        <ele>182</ele>
        <time>2019-10-14T02:24:40Z</time>
      </trkpt>
      <trkpt lat="46.99516" lon="3.11518">
        <ele>181.6</ele>
        <time>2019-10-14T02:24:47Z</time>
      </trkpt>
      <trkpt lat="46.99516" lon="3.11483">
        <ele>181.6</ele>
        <time>2019-10-14T02:24:53Z</time>
      </trkpt>
      <trkpt lat="46.99518" lon="3.11446">
        <ele>181</ele>
        <time>2019-10-14T02:25:00Z</time>
      </trkpt>
      <trkpt lat="46.9952" lon="3.11418">
        <ele>181.3</ele>
        <time>2019-10-14T02:25:05Z</time>
      </trkpt>
      <trkpt lat="46.99523" lon="3.11389">
        <ele>182</ele>
        <time>2019-10-14T02:25:10Z</time>
      </trkpt>
      <trkpt lat="46.99527" lon="3.11363">
        <ele>182</ele>
        <time>2019-10-14T02:25:15Z</time>
      </trkpt>
      <trkpt lat="46.99533" lon="3.11337">
        <ele>181.8</ele>
        <time>2019-10-14T02:25:20Z</time>
      </trkpt>
      <trkpt lat="46.99535" lon="3.11326">
        <ele>181.9</ele>
        <time>2019-10-14T02:25:22Z</time>
      </trkpt>
      <trkpt lat="46.99537" lon="3.11318">
        <ele>182</ele>
        <time>2019-10-14T02:25:24Z</time>
      </trkpt>
      <trkpt lat="46.99537" lon="3.11314">
        <ele>182.1</ele>
        <time>2019-10-14T02:25:24Z</time>
      </trkpt>
      <trkpt lat="46.99536" lon="3.11306">
        <ele>182.4</ele>
        <time>2019-10-14T02:25:26Z</time>
      </trkpt>
      <trkpt lat="46.99535" lon="3.11297">
        <ele>182.6</ele>
        <time>2019-10-14T02:25:28Z</time>
      </trkpt>
      <trkpt lat="46.99537" lon="3.11291">
        <ele>182.5</ele>
        <time>2019-10-14T02:25:29Z</time>
      </trkpt>
      <trkpt lat="46.99539" lon="3.11286">
        <ele>182.5</ele>
        <time>2019-10-14T02:25:30Z</time>
      </trkpt>
      <trkpt lat="46.9954" lon="3.11282">
        <ele>182.5</ele>
        <time>2019-10-14T02:25:31Z</time>
      </trkpt>
      <trkpt lat="46.99541" lon="3.1128">
        <ele>182.5</ele>
        <time>2019-10-14T02:25:31Z</time>
      </trkpt>
      <trkpt lat="46.99543" lon="3.11276">
        <ele>182.4</ele>
        <time>2019-10-14T02:25:32Z</time>
      </trkpt>
      <trkpt lat="46.99544" lon="3.1127">
        <ele>182.3</ele>
        <time>2019-10-14T02:25:33Z</time>
      </trkpt>
      <trkpt lat="46.99545" lon="3.11266">
        <ele>182.2</ele>
        <time>2019-10-14T02:25:34Z</time>
      </trkpt>
      <trkpt lat="46.99546" lon="3.11263">
        <ele>182.2</ele>
        <time>2019-10-14T02:25:34Z</time>
      </trkpt>
      <trkpt lat="46.99547" lon="3.11259">
        <ele>182.1</ele>
        <time>2019-10-14T02:25:35Z</time>
      </trkpt>
      <trkpt lat="46.99548" lon="3.11254">
        <ele>182</ele>
        <time>2019-10-14T02:25:36Z</time>
      </trkpt>
      <trkpt lat="46.99551" lon="3.11243">
        <ele>182</ele>
        <time>2019-10-14T02:25:38Z</time>
      </trkpt>
      <trkpt lat="46.99553" lon="3.1124">
        <ele>182</ele>
        <time>2019-10-14T02:25:39Z</time>
      </trkpt>
      <trkpt lat="46.99555" lon="3.11238">
        <ele>182</ele>
        <time>2019-10-14T02:25:40Z</time>
      </trkpt>
      <trkpt lat="46.9956" lon="3.11236">
        <ele>181.8</ele>
        <time>2019-10-14T02:25:41Z</time>
      </trkpt>
      <trkpt lat="46.99564" lon="3.11232">
        <ele>181.7</ele>
        <time>2019-10-14T02:25:42Z</time>
      </trkpt>
      <trkpt lat="46.99569" lon="3.1122">
        <ele>181.6</ele>
        <time>2019-10-14T02:25:45Z</time>
      </trkpt>
      <trkpt lat="46.9958" lon="3.11195">
        <ele>182</ele>
        <time>2019-10-14T02:25:50Z</time>
      </trkpt>
      <trkpt lat="46.99592" lon="3.11172">
        <ele>181.6</ele>
        <time>2019-10-14T02:25:56Z</time>
      </trkpt>
      <trkpt lat="46.99607" lon="3.11146">
        <ele>181.1</ele>
        <time>2019-10-14T02:26:02Z</time>
      </trkpt>
      <trkpt lat="46.99623" lon="3.11122">
        <ele>181.2</ele>
        <time>2019-10-14T02:26:08Z</time>
      </trkpt>
      <trkpt lat="46.9964" lon="3.11099">
        <ele>181</ele>
        <time>2019-10-14T02:26:14Z</time>
      </trkpt>
      <trkpt lat="46.99678" lon="3.11052">
        <ele>180.7</ele>
        <time>2019-10-14T02:26:28Z</time>
      </trkpt>
      <trkpt lat="46.99719" lon="3.11005">
        <ele>180.2</ele>
        <time>2019-10-14T02:26:41Z</time>
      </trkpt>
      <trkpt lat="46.99761" lon="3.10957">
        <ele>180.7</ele>
        <time>2019-10-14T02:26:56Z</time>
      </trkpt>
      <trkpt lat="46.99786" lon="3.1092">
        <ele>180.9</ele>
        <time>2019-10-14T02:27:05Z</time>
      </trkpt>
      <trkpt lat="46.99812" lon="3.1088">
        <ele>181.2</ele>
        <time>2019-10-14T02:27:15Z</time>
      </trkpt>
      <trkpt lat="46.99823" lon="3.10859">
        <ele>181.4</ele>
        <time>2019-10-14T02:27:20Z</time>
      </trkpt>
      <trkpt lat="46.99841" lon="3.10822">
        <ele>181.3</ele>
        <time>2019-10-14T02:27:28Z</time>
      </trkpt>
      <trkpt lat="46.99861" lon="3.10777">
        <ele>181</ele>
        <time>2019-10-14T02:27:38Z</time>
      </trkpt>
      <trkpt lat="46.99863" lon="3.10768">
        <ele>181.1</ele>
        <time>2019-10-14T02:27:40Z</time>
      </trkpt>
      <trkpt lat="46.99864" lon="3.10756">
        <ele>181.1</ele>
        <time>2019-10-14T02:27:42Z</time>
      </trkpt>
      <trkpt lat="46.99862" lon="3.10746">
        <ele>181</ele>
        <time>2019-10-14T02:27:44Z</time>
      </trkpt>
      <trkpt lat="46.99858" lon="3.10738">
        <ele>181.2</ele>
        <time>2019-10-14T02:27:46Z</time>
      </trkpt>
      <trkpt lat="46.99857" lon="3.10734">
        <ele>181.2</ele>
        <time>2019-10-14T02:27:47Z</time>
      </trkpt>
      <trkpt lat="46.99858" lon="3.10729">
        <ele>181.2</ele>
        <time>2019-10-14T02:27:47Z</time>
      </trkpt>
      <trkpt lat="46.99859" lon="3.10727">
        <ele>181.1</ele>
        <time>2019-10-14T02:27:48Z</time>
      </trkpt>
      <trkpt lat="46.9986" lon="3.10724">
        <ele>181.1</ele>
        <time>2019-10-14T02:27:49Z</time>
      </trkpt>
      <trkpt lat="46.99863" lon="3.10718">
        <ele>181.1</ele>
        <time>2019-10-14T02:27:50Z</time>
      </trkpt>
      <trkpt lat="46.99864" lon="3.10714">
        <ele>181.3</ele>
        <time>2019-10-14T02:27:51Z</time>
      </trkpt>
      <trkpt lat="46.99866" lon="3.1071">
        <ele>181.4</ele>
        <time>2019-10-14T02:27:52Z</time>
      </trkpt>
      <trkpt lat="46.99868" lon="3.10708">
        <ele>181.4</ele>
        <time>2019-10-14T02:27:52Z</time>
      </trkpt>
      <trkpt lat="46.99873" lon="3.10708">
        <ele>181.3</ele>
        <time>2019-10-14T02:27:54Z</time>
      </trkpt>
      <trkpt lat="46.99878" lon="3.10707">
        <ele>181.2</ele>
        <time>2019-10-14T02:27:55Z</time>
      </trkpt>
      <trkpt lat="46.99883" lon="3.10704">
        <ele>181.1</ele>
        <time>2019-10-14T02:27:56Z</time>
      </trkpt>
      <trkpt lat="46.99887" lon="3.107">
        <ele>181.1</ele>
        <time>2019-10-14T02:27:58Z</time>
      </trkpt>
      <trkpt lat="46.99892" lon="3.10693">
        <ele>181</ele>
        <time>2019-10-14T02:27:59Z</time>
      </trkpt>
      <trkpt lat="46.99895" lon="3.10687">
        <ele>181.2</ele>
        <time>2019-10-14T02:28:01Z</time>
      </trkpt>
      <trkpt lat="46.99912" lon="3.1064">
        <ele>180.4</ele>
        <time>2019-10-14T02:28:11Z</time>
      </trkpt>
      <trkpt lat="46.99926" lon="3.10598">
        <ele>181</ele>
        <time>2019-10-14T02:28:19Z</time>
      </trkpt>
      <trkpt lat="46.99947" lon="3.10526">
        <ele>181.1</ele>
        <time>2019-10-14T02:28:33Z</time>
      </trkpt>
      <trkpt lat="46.99994" lon="3.10364">
        <ele>182.9</ele>
        <time>2019-10-14T02:29:05Z</time>
      </trkpt>
      <trkpt lat="47.00033" lon="3.10226">
        <ele>183</ele>
        <time>2019-10-14T02:29:33Z</time>
      </trkpt>
      <trkpt lat="47.00048" lon="3.10177">
        <ele>183</ele>
        <time>2019-10-14T02:29:42Z</time>
      </trkpt>
      <trkpt lat="47.00065" lon="3.10128">
        <ele>182</ele>
        <time>2019-10-14T02:29:52Z</time>
      </trkpt>
      <trkpt lat="47.00087" lon="3.10071">
        <ele>181.9</ele>
        <time>2019-10-14T02:30:04Z</time>
      </trkpt>
      <trkpt lat="47.00088" lon="3.10067">
        <ele>181.8</ele>
        <time>2019-10-14T02:30:05Z</time>
      </trkpt>
      <trkpt lat="47.00089" lon="3.10062">
        <ele>181.8</ele>
        <time>2019-10-14T02:30:06Z</time>
      </trkpt>
      <trkpt lat="47.00089" lon="3.10055">
        <ele>181.8</ele>
        <time>2019-10-14T02:30:07Z</time>
      </trkpt>
      <trkpt lat="47.0009" lon="3.1005">
        <ele>181.8</ele>
        <time>2019-10-14T02:30:08Z</time>
      </trkpt>
      <trkpt lat="47.00093" lon="3.10042">
        <ele>181.7</ele>
        <time>2019-10-14T02:30:10Z</time>
      </trkpt>
      <trkpt lat="47.00099" lon="3.1003">
        <ele>181.4</ele>
        <time>2019-10-14T02:30:13Z</time>
      </trkpt>
      <trkpt lat="47.00102" lon="3.10026">
        <ele>181.3</ele>
        <time>2019-10-14T02:30:14Z</time>
      </trkpt>
      <trkpt lat="47.00107" lon="3.10022">
        <ele>181.1</ele>
        <time>2019-10-14T02:30:15Z</time>
      </trkpt>
      <trkpt lat="47.00111" lon="3.10016">
        <ele>181</ele>
        <time>2019-10-14T02:30:17Z</time>
      </trkpt>
      <trkpt lat="47.00124" lon="3.09988">
        <ele>180.7</ele>
        <time>2019-10-14T02:30:23Z</time>
      </trkpt>
      <trkpt lat="47.00137" lon="3.09963">
        <ele>181</ele>
        <time>2019-10-14T02:30:29Z</time>
      </trkpt>
      <trkpt lat="47.00149" lon="3.09942">
        <ele>180.6</ele>
        <time>2019-10-14T02:30:34Z</time>
      </trkpt>
      <trkpt lat="47.00161" lon="3.09922">
        <ele>180.2</ele>
        <time>2019-10-14T02:30:39Z</time>
      </trkpt>
      <trkpt lat="47.00165" lon="3.09916">
        <ele>180.1</ele>
        <time>2019-10-14T02:30:40Z</time>
      </trkpt>
      <trkpt lat="47.00168" lon="3.09911">
        <ele>180</ele>
        <time>2019-10-14T02:30:41Z</time>
      </trkpt>
      <trkpt lat="47.00177" lon="3.09896">
        <ele>180</ele>
        <time>2019-10-14T02:30:45Z</time>
      </trkpt>
      <trkpt lat="47.00184" lon="3.09887">
        <ele>180</ele>
        <time>2019-10-14T02:30:47Z</time>
      </trkpt>
      <trkpt lat="47.00192" lon="3.09875">
        <ele>180</ele>
        <time>2019-10-14T02:30:50Z</time>
      </trkpt>
      <trkpt lat="47.00201" lon="3.09861">
        <ele>179.8</ele>
        <time>2019-10-14T02:30:54Z</time>
      </trkpt>
      <trkpt lat="47.0022" lon="3.09836">
        <ele>179.9</ele>
        <time>2019-10-14T02:31:01Z</time>
      </trkpt>
      <trkpt lat="47.00238" lon="3.09815">
        <ele>179.4</ele>
        <time>2019-10-14T02:31:07Z</time>
      </trkpt>
      <trkpt lat="47.00255" lon="3.09794">
        <ele>179</ele>
        <time>2019-10-14T02:31:13Z</time>
      </trkpt>
      <trkpt lat="47.00286" lon="3.09762">
        <ele>179</ele>
        <time>2019-10-14T02:31:23Z</time>
      </trkpt>
      <trkpt lat="47.00382" lon="3.09668">
        <ele>178</ele>
        <time>2019-10-14T02:31:54Z</time>
      </trkpt>
      <trkpt lat="47.00453" lon="3.096">
        <ele>177</ele>
        <time>2019-10-14T02:32:17Z</time>
      </trkpt>
      <trkpt lat="47.00507" lon="3.09548">
        <ele>177.5</ele>
        <time>2019-10-14T02:32:34Z</time>
      </trkpt>
      <trkpt lat="47.00511" lon="3.09543">
        <ele>177.7</ele>
        <time>2019-10-14T02:32:35Z</time>
      </trkpt>
      <trkpt lat="47.00512" lon="3.09537">
        <ele>177.8</ele>
        <time>2019-10-14T02:32:36Z</time>
      </trkpt>
      <trkpt lat="47.00513" lon="3.09529">
        <ele>178</ele>
        <time>2019-10-14T02:32:38Z</time>
      </trkpt>
      <trkpt lat="47.00514" lon="3.09522">
        <ele>178</ele>
        <time>2019-10-14T02:32:39Z</time>
      </trkpt>
      <trkpt lat="47.00515" lon="3.09519">
        <ele>178</ele>
        <time>2019-10-14T02:32:40Z</time>
      </trkpt>
      <trkpt lat="47.00516" lon="3.09516">
        <ele>178</ele>
        <time>2019-10-14T02:32:40Z</time>
      </trkpt>
      <trkpt lat="47.00517" lon="3.09513">
        <ele>178</ele>
        <time>2019-10-14T02:32:41Z</time>
      </trkpt>
      <trkpt lat="47.00519" lon="3.09508">
        <ele>178</ele>
        <time>2019-10-14T02:32:42Z</time>
      </trkpt>
      <trkpt lat="47.00521" lon="3.09504">
        <ele>178</ele>
        <time>2019-10-14T02:32:43Z</time>
      </trkpt>
      <trkpt lat="47.00522" lon="3.095">
        <ele>178</ele>
        <time>2019-10-14T02:32:44Z</time>
      </trkpt>
      <trkpt lat="47.00526" lon="3.09491">
        <ele>178</ele>
        <time>2019-10-14T02:32:46Z</time>
      </trkpt>
      <trkpt lat="47.00529" lon="3.09487">
        <ele>178</ele>
        <time>2019-10-14T02:32:47Z</time>
      </trkpt>
      <trkpt lat="47.00534" lon="3.09485">
        <ele>178</ele>
        <time>2019-10-14T02:32:48Z</time>
      </trkpt>
      <trkpt lat="47.00538" lon="3.09484">
        <ele>178</ele>
        <time>2019-10-14T02:32:49Z</time>
      </trkpt>
      <trkpt lat="47.00541" lon="3.09484">
        <ele>178</ele>
        <time>2019-10-14T02:32:50Z</time>
      </trkpt>
      <trkpt lat="47.00544" lon="3.09484">
        <ele>178</ele>
        <time>2019-10-14T02:32:51Z</time>
      </trkpt>
      <trkpt lat="47.0055" lon="3.09485">
        <ele>178</ele>
        <time>2019-10-14T02:32:52Z</time>
      </trkpt>
      <trkpt lat="47.00553" lon="3.09485">
        <ele>178</ele>
        <time>2019-10-14T02:32:53Z</time>
      </trkpt>
      <trkpt lat="47.00556" lon="3.09485">
        <ele>178</ele>
        <time>2019-10-14T02:32:54Z</time>
      </trkpt>
      <trkpt lat="47.00562" lon="3.09487">
        <ele>178</ele>
        <time>2019-10-14T02:32:56Z</time>
      </trkpt>
      <trkpt lat="47.00569" lon="3.09491">
        <ele>178</ele>
        <time>2019-10-14T02:32:58Z</time>
      </trkpt>
      <trkpt lat="47.00579" lon="3.09494">
        <ele>178</ele>
        <time>2019-10-14T02:33:00Z</time>
      </trkpt>
      <trkpt lat="47.00584" lon="3.09494">
        <ele>178</ele>
        <time>2019-10-14T02:33:02Z</time>
      </trkpt>
      <trkpt lat="47.00588" lon="3.09493">
        <ele>178</ele>
        <time>2019-10-14T02:33:03Z</time>
      </trkpt>
      <trkpt lat="47.0065" lon="3.09456">
        <ele>178</ele>
        <time>2019-10-14T02:33:21Z</time>
      </trkpt>
      <trkpt lat="47.00687" lon="3.09434">
        <ele>178</ele>
        <time>2019-10-14T02:33:31Z</time>
      </trkpt>
      <trkpt lat="47.00713" lon="3.09417">
        <ele>178</ele>
        <time>2019-10-14T02:33:39Z</time>
      </trkpt>
      <trkpt lat="47.00722" lon="3.0941">
        <ele>178</ele>
        <time>2019-10-14T02:33:42Z</time>
      </trkpt>
      <trkpt lat="47.0073" lon="3.09402">
        <ele>178</ele>
        <time>2019-10-14T02:33:44Z</time>
      </trkpt>
      <trkpt lat="47.00807" lon="3.09318">
        <ele>178</ele>
        <time>2019-10-14T02:34:10Z</time>
      </trkpt>
      <trkpt lat="47.00844" lon="3.09273">
        <ele>178</ele>
        <time>2019-10-14T02:34:23Z</time>
      </trkpt>
      <trkpt lat="47.00883" lon="3.09231">
        <ele>178</ele>
        <time>2019-10-14T02:34:36Z</time>
      </trkpt>
      <trkpt lat="47.00996" lon="3.09104">
        <ele>177</ele>
        <time>2019-10-14T02:35:14Z</time>
      </trkpt>
      <trkpt lat="47.01086" lon="3.09002">
        <ele>175.9</ele>
        <time>2019-10-14T02:35:44Z</time>
      </trkpt>
      <trkpt lat="47.01191" lon="3.08883">
        <ele>175</ele>
        <time>2019-10-14T02:36:20Z</time>
      </trkpt>
      <trkpt lat="47.01251" lon="3.08814">
        <ele>175</ele>
        <time>2019-10-14T02:36:40Z</time>
      </trkpt>
      <trkpt lat="47.01267" lon="3.08792">
        <ele>175</ele>
        <time>2019-10-14T02:36:46Z</time>
      </trkpt>
      <trkpt lat="47.01282" lon="3.08766">
        <ele>175</ele>
        <time>2019-10-14T02:36:52Z</time>
      </trkpt>
      <trkpt lat="47.0129" lon="3.08749">
        <ele>175</ele>
        <time>2019-10-14T02:36:56Z</time>
      </trkpt>
      <trkpt lat="47.01296" lon="3.08737">
        <ele>175</ele>
        <time>2019-10-14T02:36:58Z</time>
      </trkpt>
      <trkpt lat="47.01299" lon="3.08736">
        <ele>175</ele>
        <time>2019-10-14T02:36:59Z</time>
      </trkpt>
      <trkpt lat="47.01305" lon="3.08731">
        <ele>175</ele>
        <time>2019-10-14T02:37:01Z</time>
      </trkpt>
      <trkpt lat="47.01313" lon="3.08743">
        <ele>175</ele>
        <time>2019-10-14T02:37:04Z</time>
      </trkpt>
      <trkpt lat="47.01324" lon="3.0874">
        <ele>175</ele>
        <time>2019-10-14T02:37:07Z</time>
      </trkpt>
      <trkpt lat="47.01407" lon="3.08728">
        <ele>174</ele>
        <time>2019-10-14T02:37:29Z</time>
      </trkpt>
      <trkpt lat="47.01413" lon="3.0872">
        <ele>174</ele>
        <time>2019-10-14T02:37:32Z</time>
      </trkpt>
      <trkpt lat="47.01414" lon="3.08705">
        <ele>174</ele>
        <time>2019-10-14T02:37:34Z</time>
      </trkpt>
      <trkpt lat="47.01414" lon="3.08699">
        <ele>174</ele>
        <time>2019-10-14T02:37:35Z</time>
      </trkpt>
      <trkpt lat="47.01416" lon="3.08666">
        <ele>174</ele>
        <time>2019-10-14T02:37:41Z</time>
      </trkpt>
      <trkpt lat="47.01423" lon="3.08534">
        <ele>176</ele>
        <time>2019-10-14T02:38:06Z</time>
      </trkpt>
      <trkpt lat="47.01428" lon="3.08445">
        <ele>180</ele>
        <time>2019-10-14T02:38:22Z</time>
      </trkpt>
      <trkpt lat="47.01429" lon="3.08418">
        <ele>181.9</ele>
        <time>2019-10-14T02:38:27Z</time>
      </trkpt>
      <trkpt lat="47.01416" lon="3.08418">
        <ele>181.9</ele>
        <time>2019-10-14T02:38:30Z</time>
      </trkpt>
      <trkpt lat="47.01404" lon="3.08422">
        <ele>181.2</ele>
        <time>2019-10-14T02:38:34Z</time>
      </trkpt>
      <trkpt lat="47.01402" lon="3.0841">
        <ele>181.5</ele>
        <time>2019-10-14T02:38:36Z</time>
      </trkpt>
      <trkpt lat="47.0141" lon="3.08284">
        <ele>181</ele>
        <time>2019-10-14T02:38:59Z</time>
      </trkpt>
      <trkpt lat="47.01412" lon="3.08255">
        <ele>180.2</ele>
        <time>2019-10-14T02:39:04Z</time>
      </trkpt>
      <trkpt lat="47.01397" lon="3.08253">
        <ele>180.1</ele>
        <time>2019-10-14T02:39:08Z</time>
      </trkpt>
      <trkpt lat="47.01374" lon="3.0825">
        <ele>180</ele>
        <time>2019-10-14T02:39:14Z</time>
      </trkpt>
      <trkpt lat="47.01356" lon="3.08062">
        <ele>175.2</ele>
        <time>2019-10-14T02:39:49Z</time>
      </trkpt>
      <trkpt lat="47.01343" lon="3.07944">
        <ele>171</ele>
        <time>2019-10-14T02:40:11Z</time>
      </trkpt>
      <trkpt lat="47.01334" lon="3.07859">
        <ele>169.9</ele>
        <time>2019-10-14T02:40:26Z</time>
      </trkpt>
      <trkpt lat="47.0127" lon="3.07853">
        <ele>170</ele>
        <time>2019-10-14T02:40:44Z</time>
      </trkpt>
      <trkpt lat="47.01259" lon="3.07851">
        <ele>170</ele>
        <time>2019-10-14T02:40:46Z</time>
      </trkpt>
      <trkpt lat="47.01254" lon="3.07849">
        <ele>170</ele>
        <time>2019-10-14T02:40:48Z</time>
      </trkpt>
      <trkpt lat="47.0125" lon="3.07846">
        <ele>170</ele>
        <time>2019-10-14T02:40:49Z</time>
      </trkpt>
      <trkpt lat="47.01242" lon="3.07841">
        <ele>170</ele>
        <time>2019-10-14T02:40:51Z</time>
      </trkpt>
      <trkpt lat="47.0124" lon="3.07836">
        <ele>170</ele>
        <time>2019-10-14T02:40:52Z</time>
      </trkpt>
      <trkpt lat="47.01238" lon="3.07833">
        <ele>170</ele>
        <time>2019-10-14T02:40:53Z</time>
      </trkpt>
      <trkpt lat="47.01236" lon="3.07823">
        <ele>170</ele>
        <time>2019-10-14T02:40:55Z</time>
      </trkpt>
      <trkpt lat="47.01234" lon="3.07814">
        <ele>170</ele>
        <time>2019-10-14T02:40:57Z</time>
      </trkpt>
      <trkpt lat="47.01235" lon="3.07785">
        <ele>170</ele>
        <time>2019-10-14T02:41:02Z</time>
      </trkpt>
      <trkpt lat="47.01234" lon="3.07653">
        <ele>170.7</ele>
        <time>2019-10-14T02:41:26Z</time>
      </trkpt>
      <trkpt lat="47.01234" lon="3.07627">
        <ele>170.3</ele>
        <time>2019-10-14T02:41:31Z</time>
      </trkpt>
      <trkpt lat="47.01234" lon="3.07619">
        <ele>169.9</ele>
        <time>2019-10-14T02:41:32Z</time>
      </trkpt>
      <trkpt lat="47.01233" lon="3.07514">
        <ele>165.5</ele>
        <time>2019-10-14T02:41:51Z</time>
      </trkpt>
      <trkpt lat="47.01233" lon="3.07425">
        <ele>164.2</ele>
        <time>2019-10-14T02:42:08Z</time>
      </trkpt>
      <trkpt lat="47.01233" lon="3.0734">
        <ele>164</ele>
        <time>2019-10-14T02:42:23Z</time>
      </trkpt>
      <trkpt lat="47.01232" lon="3.07248">
        <ele>164</ele>
        <time>2019-10-14T02:42:40Z</time>
      </trkpt>
      <trkpt lat="47.01232" lon="3.07168">
        <ele>164</ele>
        <time>2019-10-14T02:42:55Z</time>
      </trkpt>
      <trkpt lat="47.01232" lon="3.07084">
        <ele>169.6</ele>
        <time>2019-10-14T02:43:10Z</time>
      </trkpt>
      <trkpt lat="47.01233" lon="3.07065">
        <ele>171</ele>
        <time>2019-10-14T02:43:13Z</time>
      </trkpt>
      <trkpt lat="47.0125" lon="3.07073">
        <ele>171</ele>
        <time>2019-10-14T02:43:18Z</time>
      </trkpt>
      <trkpt lat="47.01256" lon="3.07076">
        <ele>171</ele>
        <time>2019-10-14T02:43:20Z</time>
      </trkpt>
      <trkpt lat="47.01298" lon="3.07102">
        <ele>170.5</ele>
        <time>2019-10-14T02:43:32Z</time>
      </trkpt>
      <trkpt lat="47.01343" lon="3.07124">
        <ele>169.9</ele>
        <time>2019-10-14T02:43:45Z</time>
      </trkpt>
      <trkpt lat="47.01379" lon="3.07135">
        <ele>170.8</ele>
        <time>2019-10-14T02:43:54Z</time>
      </trkpt>
      <trkpt lat="47.01426" lon="3.0715">
        <ele>169.9</ele>
        <time>2019-10-14T02:44:07Z</time>
      </trkpt>
      <trkpt lat="47.01467" lon="3.07162">
        <ele>170.5</ele>
        <time>2019-10-14T02:44:18Z</time>
      </trkpt>
      <trkpt lat="47.01486" lon="3.07167">
        <ele>170.4</ele>
        <time>2019-10-14T02:44:24Z</time>
      </trkpt>
      <trkpt lat="47.01507" lon="3.07174">
        <ele>169.3</ele>
        <time>2019-10-14T02:44:29Z</time>
      </trkpt>
      <trkpt lat="47.01524" lon="3.07177">
        <ele>169.5</ele>
        <time>2019-10-14T02:44:34Z</time>
      </trkpt>
      <trkpt lat="47.0153" lon="3.07177">
        <ele>169.7</ele>
        <time>2019-10-14T02:44:36Z</time>
      </trkpt>
      <trkpt lat="47.01536" lon="3.07177">
        <ele>170</ele>
        <time>2019-10-14T02:44:37Z</time>
      </trkpt>
      <trkpt lat="47.0154" lon="3.07176">
        <ele>170.2</ele>
        <time>2019-10-14T02:44:38Z</time>
      </trkpt>
      <trkpt lat="47.01544" lon="3.07175">
        <ele>170.5</ele>
        <time>2019-10-14T02:44:39Z</time>
      </trkpt>
      <trkpt lat="47.01547" lon="3.07174">
        <ele>170.8</ele>
        <time>2019-10-14T02:44:40Z</time>
      </trkpt>
      <trkpt lat="47.0155" lon="3.07173">
        <ele>171</ele>
        <time>2019-10-14T02:44:41Z</time>
      </trkpt>
      <trkpt lat="47.01553" lon="3.07171">
        <ele>171.4</ele>
        <time>2019-10-14T02:44:42Z</time>
      </trkpt>
      <trkpt lat="47.01572" lon="3.0716">
        <ele>170.2</ele>
        <time>2019-10-14T02:44:47Z</time>
      </trkpt>
      <trkpt lat="47.01587" lon="3.07151">
        <ele>169</ele>
        <time>2019-10-14T02:44:52Z</time>
      </trkpt>
      <trkpt lat="47.01595" lon="3.07146">
        <ele>169.3</ele>
        <time>2019-10-14T02:44:54Z</time>
      </trkpt>
      <trkpt lat="47.01606" lon="3.07139">
        <ele>170.4</ele>
        <time>2019-10-14T02:44:57Z</time>
      </trkpt>
      <trkpt lat="47.01613" lon="3.07135">
        <ele>171</ele>
        <time>2019-10-14T02:44:59Z</time>
      </trkpt>
      <trkpt lat="47.01629" lon="3.07126">
        <ele>171</ele>
        <time>2019-10-14T02:45:04Z</time>
      </trkpt>
      <trkpt lat="47.01631" lon="3.07124">
        <ele>171</ele>
        <time>2019-10-14T02:45:04Z</time>
      </trkpt>
      <trkpt lat="47.01633" lon="3.07123">
        <ele>171</ele>
        <time>2019-10-14T02:45:05Z</time>
      </trkpt>
      <trkpt lat="47.01636" lon="3.0712">
        <ele>171</ele>
        <time>2019-10-14T02:45:06Z</time>
      </trkpt>
      <trkpt lat="47.01638" lon="3.07118">
        <ele>171</ele>
        <time>2019-10-14T02:45:07Z</time>
      </trkpt>
      <trkpt lat="47.01642" lon="3.07114">
        <ele>170.6</ele>
        <time>2019-10-14T02:45:08Z</time>
      </trkpt>
      <trkpt lat="47.01644" lon="3.07111">
        <ele>170.3</ele>
        <time>2019-10-14T02:45:09Z</time>
      </trkpt>
      <trkpt lat="47.01646" lon="3.07107">
        <ele>169.8</ele>
        <time>2019-10-14T02:45:10Z</time>
      </trkpt>
      <trkpt lat="47.01647" lon="3.07104">
        <ele>169.5</ele>
        <time>2019-10-14T02:45:10Z</time>
      </trkpt>
      <trkpt lat="47.01649" lon="3.07101">
        <ele>169.2</ele>
        <time>2019-10-14T02:45:11Z</time>
      </trkpt>
      <trkpt lat="47.01651" lon="3.07096">
        <ele>168.9</ele>
        <time>2019-10-14T02:45:12Z</time>
      </trkpt>
      <trkpt lat="47.01652" lon="3.07091">
        <ele>168.7</ele>
        <time>2019-10-14T02:45:13Z</time>
      </trkpt>
      <trkpt lat="47.01659" lon="3.07061">
        <ele>170</ele>
        <time>2019-10-14T02:45:19Z</time>
      </trkpt>
      <trkpt lat="47.0166" lon="3.07057">
        <ele>170.4</ele>
        <time>2019-10-14T02:45:19Z</time>
      </trkpt>
      <trkpt lat="47.01661" lon="3.07052">
        <ele>170.6</ele>
        <time>2019-10-14T02:45:20Z</time>
      </trkpt>
      <trkpt lat="47.01663" lon="3.07048">
        <ele>170.7</ele>
        <time>2019-10-14T02:45:21Z</time>
      </trkpt>
      <trkpt lat="47.01665" lon="3.07045">
        <ele>170.9</ele>
        <time>2019-10-14T02:45:22Z</time>
      </trkpt>
      <trkpt lat="47.01666" lon="3.07043">
        <ele>171</ele>
        <time>2019-10-14T02:45:23Z</time>
      </trkpt>
      <trkpt lat="47.01668" lon="3.07041">
        <ele>170.9</ele>
        <time>2019-10-14T02:45:23Z</time>
      </trkpt>
      <trkpt lat="47.0167" lon="3.07039">
        <ele>170.9</ele>
        <time>2019-10-14T02:45:24Z</time>
      </trkpt>
      <trkpt lat="47.01674" lon="3.07037">
        <ele>170.7</ele>
        <time>2019-10-14T02:45:25Z</time>
      </trkpt>
      <trkpt lat="47.01678" lon="3.07035">
        <ele>170.7</ele>
        <time>2019-10-14T02:45:26Z</time>
      </trkpt>
      <trkpt lat="47.01714" lon="3.07026">
        <ele>170.8</ele>
        <time>2019-10-14T02:45:36Z</time>
      </trkpt>
      <trkpt lat="47.01867" lon="3.06995">
        <ele>170.1</ele>
        <time>2019-10-14T02:46:17Z</time>
      </trkpt>
      <trkpt lat="47.01987" lon="3.06973">
        <ele>170.5</ele>
        <time>2019-10-14T02:46:49Z</time>
      </trkpt>
      <trkpt lat="47.02155" lon="3.06942">
        <ele>170.2</ele>
        <time>2019-10-14T02:47:35Z</time>
      </trkpt>
      <trkpt lat="47.02318" lon="3.06912">
        <ele>169.2</ele>
        <time>2019-10-14T02:48:19Z</time>
      </trkpt>
      <trkpt lat="47.02448" lon="3.06888">
        <ele>169.9</ele>
        <time>2019-10-14T02:48:54Z</time>
      </trkpt>
      <trkpt lat="47.02497" lon="3.06881">
        <ele>169.2</ele>
        <time>2019-10-14T02:49:07Z</time>
      </trkpt>
      <trkpt lat="47.0252" lon="3.06882">
        <ele>169.3</ele>
        <time>2019-10-14T02:49:13Z</time>
      </trkpt>
      <trkpt lat="47.02688" lon="3.069">
        <ele>167.7</ele>
        <time>2019-10-14T02:49:58Z</time>
      </trkpt>
      <trkpt lat="47.02784" lon="3.06911">
        <ele>168.8</ele>
        <time>2019-10-14T02:50:24Z</time>
      </trkpt>
      <trkpt lat="47.02807" lon="3.06909">
        <ele>169.4</ele>
        <time>2019-10-14T02:50:30Z</time>
      </trkpt>
      <trkpt lat="47.0284" lon="3.0693">
        <ele>168.6</ele>
        <time>2019-10-14T02:50:39Z</time>
      </trkpt>
      <trkpt lat="47.02859" lon="3.06932">
        <ele>169</ele>
        <time>2019-10-14T02:50:44Z</time>
      </trkpt>
      <trkpt lat="47.02914" lon="3.06905">
        <ele>168.6</ele>
        <time>2019-10-14T02:51:00Z</time>
      </trkpt>
      <trkpt lat="47.02998" lon="3.06852">
        <ele>168.3</ele>
        <time>2019-10-14T02:51:24Z</time>
      </trkpt>
      <trkpt lat="47.03094" lon="3.06798">
        <ele>168.3</ele>
        <time>2019-10-14T02:51:52Z</time>
      </trkpt>
      <trkpt lat="47.03124" lon="3.06777">
        <ele>168</ele>
        <time>2019-10-14T02:52:01Z</time>
      </trkpt>
      <trkpt lat="47.03188" lon="3.06695">
        <ele>168.3</ele>
        <time>2019-10-14T02:52:23Z</time>
      </trkpt>
      <trkpt lat="47.03283" lon="3.06573">
        <ele>168.5</ele>
        <time>2019-10-14T02:52:57Z</time>
      </trkpt>
      <trkpt lat="47.03338" lon="3.06516">
        <ele>167.7</ele>
        <time>2019-10-14T02:53:15Z</time>
      </trkpt>
      <trkpt lat="47.03455" lon="3.06412">
        <ele>168.7</ele>
        <time>2019-10-14T02:53:52Z</time>
      </trkpt>
      <trkpt lat="47.03587" lon="3.06294">
        <ele>168.2</ele>
        <time>2019-10-14T02:54:33Z</time>
      </trkpt>
      <trkpt lat="47.03679" lon="3.06209">
        <ele>167.5</ele>
        <time>2019-10-14T02:55:02Z</time>
      </trkpt>
      <trkpt lat="47.03705" lon="3.06177">
        <ele>167.8</ele>
        <time>2019-10-14T02:55:11Z</time>
      </trkpt>
      <trkpt lat="47.03788" lon="3.06046">
        <ele>167.9</ele>
        <time>2019-10-14T02:55:44Z</time>
      </trkpt>
      <trkpt lat="47.039" lon="3.05874">
        <ele>167.3</ele>
        <time>2019-10-14T02:56:27Z</time>
      </trkpt>
      <trkpt lat="47.03965" lon="3.05771">
        <ele>167.4</ele>
        <time>2019-10-14T02:56:53Z</time>
      </trkpt>
      <trkpt lat="47.04022" lon="3.05685">
        <ele>168</ele>
        <time>2019-10-14T02:57:14Z</time>
      </trkpt>
      <trkpt lat="47.04056" lon="3.05633">
        <ele>168.3</ele>
        <time>2019-10-14T02:57:28Z</time>
      </trkpt>
      <trkpt lat="47.04154" lon="3.0548">
        <ele>167.2</ele>
        <time>2019-10-14T02:58:06Z</time>
      </trkpt>
      <trkpt lat="47.04216" lon="3.05382">
        <ele>166.9</ele>
        <time>2019-10-14T02:58:30Z</time>
      </trkpt>
      <trkpt lat="47.0424" lon="3.05323">
        <ele>166.7</ele>
        <time>2019-10-14T02:58:43Z</time>
      </trkpt>
      <trkpt lat="47.04287" lon="3.05207">
        <ele>166.9</ele>
        <time>2019-10-14T02:59:07Z</time>
      </trkpt>
      <trkpt lat="47.04414" lon="3.0489">
        <ele>167.6</ele>
        <time>2019-10-14T03:00:14Z</time>
      </trkpt>
      <trkpt lat="47.04552" lon="3.04546">
        <ele>166.9</ele>
        <time>2019-10-14T03:01:27Z</time>
      </trkpt>
      <trkpt lat="47.0461" lon="3.04405">
        <ele>167.3</ele>
        <time>2019-10-14T03:01:57Z</time>
      </trkpt>
      <trkpt lat="47.04672" lon="3.04253">
        <ele>167.6</ele>
        <time>2019-10-14T03:02:29Z</time>
      </trkpt>
      <trkpt lat="47.04716" lon="3.0416">
        <ele>166.7</ele>
        <time>2019-10-14T03:02:50Z</time>
      </trkpt>
      <trkpt lat="47.04773" lon="3.04038">
        <ele>167.1</ele>
        <time>2019-10-14T03:03:17Z</time>
      </trkpt>
      <trkpt lat="47.0479" lon="3.04001">
        <ele>166.9</ele>
        <time>2019-10-14T03:03:25Z</time>
      </trkpt>
      <trkpt lat="47.04807" lon="3.03981">
        <ele>167.9</ele>
        <time>2019-10-14T03:03:31Z</time>
      </trkpt>
      <trkpt lat="47.049" lon="3.03877">
        <ele>166.1</ele>
        <time>2019-10-14T03:04:02Z</time>
      </trkpt>
      <trkpt lat="47.04936" lon="3.03832">
        <ele>166.7</ele>
        <time>2019-10-14T03:04:14Z</time>
      </trkpt>
      <trkpt lat="47.04964" lon="3.03784">
        <ele>166.3</ele>
        <time>2019-10-14T03:04:26Z</time>
      </trkpt>
      <trkpt lat="47.05027" lon="3.03658">
        <ele>167.6</ele>
        <time>2019-10-14T03:04:54Z</time>
      </trkpt>
      <trkpt lat="47.05069" lon="3.03581">
        <ele>165.6</ele>
        <time>2019-10-14T03:05:12Z</time>
      </trkpt>
      <trkpt lat="47.05133" lon="3.03483">
        <ele>165.5</ele>
        <time>2019-10-14T03:05:37Z</time>
      </trkpt>
      <trkpt lat="47.05168" lon="3.03424">
        <ele>167.3</ele>
        <time>2019-10-14T03:05:51Z</time>
      </trkpt>
      <trkpt lat="47.05232" lon="3.03293">
        <ele>166.3</ele>
        <time>2019-10-14T03:06:21Z</time>
      </trkpt>
      <trkpt lat="47.05268" lon="3.03192">
        <ele>166.3</ele>
        <time>2019-10-14T03:06:41Z</time>
      </trkpt>
      <trkpt lat="47.05293" lon="3.03131">
        <ele>166.1</ele>
        <time>2019-10-14T03:06:54Z</time>
      </trkpt>
      <trkpt lat="47.05341" lon="3.03035">
        <ele>166.2</ele>
        <time>2019-10-14T03:07:16Z</time>
      </trkpt>
      <trkpt lat="47.05414" lon="3.02918">
        <ele>166.6</ele>
        <time>2019-10-14T03:07:45Z</time>
      </trkpt>
      <trkpt lat="47.05482" lon="3.02803">
        <ele>165.7</ele>
        <time>2019-10-14T03:08:13Z</time>
      </trkpt>
      <trkpt lat="47.05503" lon="3.02766">
        <ele>165.2</ele>
        <time>2019-10-14T03:08:21Z</time>
      </trkpt>
      <trkpt lat="47.05516" lon="3.02744">
        <ele>165.6</ele>
        <time>2019-10-14T03:08:27Z</time>
      </trkpt>
      <trkpt lat="47.05528" lon="3.02726">
        <ele>167.6</ele>
        <time>2019-10-14T03:08:31Z</time>
      </trkpt>
      <trkpt lat="47.05503" lon="3.0274">
        <ele>165.4</ele>
        <time>2019-10-14T03:08:38Z</time>
      </trkpt>
      <trkpt lat="47.05475" lon="3.02747">
        <ele>164.2</ele>
        <time>2019-10-14T03:08:46Z</time>
      </trkpt>
      <trkpt lat="47.05444" lon="3.02765">
        <ele>163.5</ele>
        <time>2019-10-14T03:08:55Z</time>
      </trkpt>
      <trkpt lat="47.0542" lon="3.02772">
        <ele>163.4</ele>
        <time>2019-10-14T03:09:01Z</time>
      </trkpt>
      <trkpt lat="47.05387" lon="3.02774">
        <ele>165.2</ele>
        <time>2019-10-14T03:09:10Z</time>
      </trkpt>
      <trkpt lat="47.05379" lon="3.02764">
        <ele>165.9</ele>
        <time>2019-10-14T03:09:13Z</time>
      </trkpt>
      <trkpt lat="47.05361" lon="3.02692">
        <ele>170.1</ele>
        <time>2019-10-14T03:09:27Z</time>
      </trkpt>
      <trkpt lat="47.0536" lon="3.0267">
        <ele>170.9</ele>
        <time>2019-10-14T03:09:31Z</time>
      </trkpt>
      <trkpt lat="47.05358" lon="3.0266">
        <ele>171</ele>
        <time>2019-10-14T03:09:33Z</time>
      </trkpt>
      <trkpt lat="47.05369" lon="3.02612">
        <ele>171.3</ele>
        <time>2019-10-14T03:09:42Z</time>
      </trkpt>
      <trkpt lat="47.0537" lon="3.02554">
        <ele>171.3</ele>
        <time>2019-10-14T03:09:53Z</time>
      </trkpt>
      <trkpt lat="47.05363" lon="3.02508">
        <ele>171.1</ele>
        <time>2019-10-14T03:10:01Z</time>
      </trkpt>
      <trkpt lat="47.05362" lon="3.0246">
        <ele>171.5</ele>
        <time>2019-10-14T03:10:10Z</time>
      </trkpt>
      <trkpt lat="47.05362" lon="3.02409">
        <ele>172</ele>
        <time>2019-10-14T03:10:19Z</time>
      </trkpt>
      <trkpt lat="47.05362" lon="3.0238">
        <ele>172</ele>
        <time>2019-10-14T03:10:25Z</time>
      </trkpt>
      <trkpt lat="47.05366" lon="3.02349">
        <ele>171.6</ele>
        <time>2019-10-14T03:10:30Z</time>
      </trkpt>
      <trkpt lat="47.05372" lon="3.02315">
        <ele>171</ele>
        <time>2019-10-14T03:10:37Z</time>
      </trkpt>
      <trkpt lat="47.05389" lon="3.02269">
        <ele>171.7</ele>
        <time>2019-10-14T03:10:46Z</time>
      </trkpt>
      <trkpt lat="47.05406" lon="3.02237">
        <ele>170.5</ele>
        <time>2019-10-14T03:10:54Z</time>
      </trkpt>
      <trkpt lat="47.05427" lon="3.02208">
        <ele>170.2</ele>
        <time>2019-10-14T03:11:01Z</time>
      </trkpt>
      <trkpt lat="47.0546" lon="3.02182">
        <ele>170</ele>
        <time>2019-10-14T03:11:11Z</time>
      </trkpt>
      <trkpt lat="47.05495" lon="3.02167">
        <ele>169.2</ele>
        <time>2019-10-14T03:11:21Z</time>
      </trkpt>
      <trkpt lat="47.05697" lon="3.02096">
        <ele>172.2</ele>
        <time>2019-10-14T03:12:17Z</time>
      </trkpt>
      <trkpt lat="47.0571" lon="3.02085">
        <ele>171.2</ele>
        <time>2019-10-14T03:12:21Z</time>
      </trkpt>
      <trkpt lat="47.05736" lon="3.02077">
        <ele>168.9</ele>
        <time>2019-10-14T03:12:28Z</time>
      </trkpt>
      <trkpt lat="47.05776" lon="3.02063">
        <ele>169.2</ele>
        <time>2019-10-14T03:12:39Z</time>
      </trkpt>
      <trkpt lat="47.0585" lon="3.02038">
        <ele>169.3</ele>
        <time>2019-10-14T03:12:59Z</time>
      </trkpt>
      <trkpt lat="47.05913" lon="3.02014">
        <ele>169.5</ele>
        <time>2019-10-14T03:13:16Z</time>
      </trkpt>
      <trkpt lat="47.05941" lon="3.02001">
        <ele>170</ele>
        <time>2019-10-14T03:13:24Z</time>
      </trkpt>
      <trkpt lat="47.06009" lon="3.01956">
        <ele>169</ele>
        <time>2019-10-14T03:13:44Z</time>
      </trkpt>
      <trkpt lat="47.06141" lon="3.01869">
        <ele>169.6</ele>
        <time>2019-10-14T03:14:23Z</time>
      </trkpt>
      <trkpt lat="47.06239" lon="3.01806">
        <ele>168.8</ele>
        <time>2019-10-14T03:14:51Z</time>
      </trkpt>
      <trkpt lat="47.06259" lon="3.01794">
        <ele>168.6</ele>
        <time>2019-10-14T03:14:57Z</time>
      </trkpt>
      <trkpt lat="47.0634" lon="3.01744">
        <ele>170.4</ele>
        <time>2019-10-14T03:15:21Z</time>
      </trkpt>
      <trkpt lat="47.06482" lon="3.01655">
        <ele>169</ele>
        <time>2019-10-14T03:16:02Z</time>
      </trkpt>
      <trkpt lat="47.06487" lon="3.01656">
        <ele>168.7</ele>
        <time>2019-10-14T03:16:03Z</time>
      </trkpt>
      <trkpt lat="47.06541" lon="3.01622">
        <ele>169.3</ele>
        <time>2019-10-14T03:16:19Z</time>
      </trkpt>
      <trkpt lat="47.06544" lon="3.01614">
        <ele>169.8</ele>
        <time>2019-10-14T03:16:21Z</time>
      </trkpt>
      <trkpt lat="47.06582" lon="3.01589">
        <ele>169.4</ele>
        <time>2019-10-14T03:16:32Z</time>
      </trkpt>
      <trkpt lat="47.06707" lon="3.01511">
        <ele>169.3</ele>
        <time>2019-10-14T03:17:08Z</time>
      </trkpt>
      <trkpt lat="47.06746" lon="3.01485">
        <ele>169.2</ele>
        <time>2019-10-14T03:17:19Z</time>
      </trkpt>
      <trkpt lat="47.06778" lon="3.01457">
        <ele>169.5</ele>
        <time>2019-10-14T03:17:29Z</time>
      </trkpt>
      <trkpt lat="47.06796" lon="3.01439">
        <ele>169.3</ele>
        <time>2019-10-14T03:17:35Z</time>
      </trkpt>
      <trkpt lat="47.06813" lon="3.01422">
        <ele>169.1</ele>
        <time>2019-10-14T03:17:41Z</time>
      </trkpt>
      <trkpt lat="47.06826" lon="3.01413">
        <ele>169.6</ele>
        <time>2019-10-14T03:17:45Z</time>
      </trkpt>
      <trkpt lat="47.06832" lon="3.0141">
        <ele>169.5</ele>
        <time>2019-10-14T03:17:46Z</time>
      </trkpt>
      <trkpt lat="47.06836" lon="3.0141">
        <ele>169.3</ele>
        <time>2019-10-14T03:17:47Z</time>
      </trkpt>
      <trkpt lat="47.06844" lon="3.01406">
        <ele>168.7</ele>
        <time>2019-10-14T03:17:50Z</time>
      </trkpt>
      <trkpt lat="47.06872" lon="3.0139">
        <ele>168.2</ele>
        <time>2019-10-14T03:17:58Z</time>
      </trkpt>
      <trkpt lat="47.06895" lon="3.01376">
        <ele>167</ele>
        <time>2019-10-14T03:18:04Z</time>
      </trkpt>
      <trkpt lat="47.06907" lon="3.01368">
        <ele>166.4</ele>
        <time>2019-10-14T03:18:08Z</time>
      </trkpt>
      <trkpt lat="47.06912" lon="3.01369">
        <ele>166.1</ele>
        <time>2019-10-14T03:18:09Z</time>
      </trkpt>
      <trkpt lat="47.06916" lon="3.01368">
        <ele>165.8</ele>
        <time>2019-10-14T03:18:10Z</time>
      </trkpt>
      <trkpt lat="47.06941" lon="3.01352">
        <ele>165.2</ele>
        <time>2019-10-14T03:18:17Z</time>
      </trkpt>
      <trkpt lat="47.06969" lon="3.0134">
        <ele>165.5</ele>
        <time>2019-10-14T03:18:25Z</time>
      </trkpt>
      <trkpt lat="47.07" lon="3.01332">
        <ele>164.9</ele>
        <time>2019-10-14T03:18:34Z</time>
      </trkpt>
      <trkpt lat="47.0702" lon="3.01328">
        <ele>165.6</ele>
        <time>2019-10-14T03:18:39Z</time>
      </trkpt>
      <trkpt lat="47.07038" lon="3.01322">
        <ele>166.2</ele>
        <time>2019-10-14T03:18:44Z</time>
      </trkpt>
      <trkpt lat="47.07059" lon="3.01311">
        <ele>166.7</ele>
        <time>2019-10-14T03:18:50Z</time>
      </trkpt>
      <trkpt lat="47.07053" lon="3.01285">
        <ele>167.7</ele>
        <time>2019-10-14T03:18:55Z</time>
      </trkpt>
      <trkpt lat="47.07048" lon="3.01257">
        <ele>167.8</ele>
        <time>2019-10-14T03:19:00Z</time>
      </trkpt>
      <trkpt lat="47.07051" lon="3.01258">
        <ele>167.9</ele>
        <time>2019-10-14T03:19:01Z</time>
      </trkpt>
      <trkpt lat="47.0706" lon="3.01256">
        <ele>167.7</ele>
        <time>2019-10-14T03:19:03Z</time>
      </trkpt>
      <trkpt lat="47.07121" lon="3.01229">
        <ele>165.5</ele>
        <time>2019-10-14T03:19:21Z</time>
      </trkpt>
      <trkpt lat="47.07155" lon="3.01219">
        <ele>165.9</ele>
        <time>2019-10-14T03:19:30Z</time>
      </trkpt>
      <trkpt lat="47.07187" lon="3.01205">
        <ele>165.8</ele>
        <time>2019-10-14T03:19:39Z</time>
      </trkpt>
      <trkpt lat="47.07204" lon="3.01194">
        <ele>166</ele>
        <time>2019-10-14T03:19:44Z</time>
      </trkpt>
      <trkpt lat="47.07214" lon="3.01189">
        <ele>165.8</ele>
        <time>2019-10-14T03:19:46Z</time>
      </trkpt>
      <trkpt lat="47.07224" lon="3.01186">
        <ele>165.7</ele>
        <time>2019-10-14T03:19:49Z</time>
      </trkpt>
      <trkpt lat="47.07229" lon="3.01186">
        <ele>165.5</ele>
        <time>2019-10-14T03:19:51Z</time>
      </trkpt>
      <trkpt lat="47.07231" lon="3.0119">
        <ele>165.6</ele>
        <time>2019-10-14T03:19:51Z</time>
      </trkpt>
      <trkpt lat="47.07234" lon="3.01198">
        <ele>165.6</ele>
        <time>2019-10-14T03:19:53Z</time>
      </trkpt>
      <trkpt lat="47.07234" lon="3.01202">
        <ele>165.5</ele>
        <time>2019-10-14T03:19:54Z</time>
      </trkpt>
      <trkpt lat="47.07235" lon="3.01206">
        <ele>165.5</ele>
        <time>2019-10-14T03:19:55Z</time>
      </trkpt>
      <trkpt lat="47.07239" lon="3.01215">
        <ele>165.5</ele>
        <time>2019-10-14T03:19:57Z</time>
      </trkpt>
      <trkpt lat="47.07263" lon="3.01231">
        <ele>165.7</ele>
        <time>2019-10-14T03:20:04Z</time>
      </trkpt>
      <trkpt lat="47.07427" lon="3.01333">
        <ele>166</ele>
        <time>2019-10-14T03:20:51Z</time>
      </trkpt>
      <trkpt lat="47.07747" lon="3.01536">
        <ele>166.3</ele>
        <time>2019-10-14T03:22:24Z</time>
      </trkpt>
      <trkpt lat="47.07907" lon="3.01626">
        <ele>165.3</ele>
        <time>2019-10-14T03:23:10Z</time>
      </trkpt>
      <trkpt lat="47.07987" lon="3.01669">
        <ele>165.4</ele>
        <time>2019-10-14T03:23:33Z</time>
      </trkpt>
      <trkpt lat="47.08013" lon="3.01694">
        <ele>165.5</ele>
        <time>2019-10-14T03:23:41Z</time>
      </trkpt>
      <trkpt lat="47.08112" lon="3.01785">
        <ele>166.2</ele>
        <time>2019-10-14T03:24:12Z</time>
      </trkpt>
      <trkpt lat="47.08158" lon="3.01829">
        <ele>164.8</ele>
        <time>2019-10-14T03:24:27Z</time>
      </trkpt>
      <trkpt lat="47.0821" lon="3.01893">
        <ele>164</ele>
        <time>2019-10-14T03:24:45Z</time>
      </trkpt>
      <trkpt lat="47.08298" lon="3.0201">
        <ele>164.7</ele>
        <time>2019-10-14T03:25:17Z</time>
      </trkpt>
      <trkpt lat="47.08383" lon="3.02116">
        <ele>165.3</ele>
        <time>2019-10-14T03:25:47Z</time>
      </trkpt>
      <trkpt lat="47.08473" lon="3.02214">
        <ele>165</ele>
        <time>2019-10-14T03:26:17Z</time>
      </trkpt>
      <trkpt lat="47.08516" lon="3.02256">
        <ele>164.9</ele>
        <time>2019-10-14T03:26:30Z</time>
      </trkpt>
      <trkpt lat="47.08578" lon="3.02309">
        <ele>165.1</ele>
        <time>2019-10-14T03:26:50Z</time>
      </trkpt>
      <trkpt lat="47.08599" lon="3.02322">
        <ele>164.3</ele>
        <time>2019-10-14T03:26:56Z</time>
      </trkpt>
      <trkpt lat="47.0875" lon="3.02388">
        <ele>164.9</ele>
        <time>2019-10-14T03:27:38Z</time>
      </trkpt>
      <trkpt lat="47.08808" lon="3.02412">
        <ele>164.7</ele>
        <time>2019-10-14T03:27:54Z</time>
      </trkpt>
      <trkpt lat="47.08857" lon="3.02428">
        <ele>164.7</ele>
        <time>2019-10-14T03:28:07Z</time>
      </trkpt>
      <trkpt lat="47.08999" lon="3.02462">
        <ele>164</ele>
        <time>2019-10-14T03:28:46Z</time>
      </trkpt>
      <trkpt lat="47.09137" lon="3.02499">
        <ele>164.9</ele>
        <time>2019-10-14T03:29:23Z</time>
      </trkpt>
      <trkpt lat="47.09181" lon="3.02507">
        <ele>164.6</ele>
        <time>2019-10-14T03:29:35Z</time>
      </trkpt>
      <trkpt lat="47.09217" lon="3.02509">
        <ele>164.3</ele>
        <time>2019-10-14T03:29:45Z</time>
      </trkpt>
      <trkpt lat="47.09273" lon="3.02508">
        <ele>165</ele>
        <time>2019-10-14T03:30:00Z</time>
      </trkpt>
      <trkpt lat="47.09378" lon="3.02506">
        <ele>164.4</ele>
        <time>2019-10-14T03:30:28Z</time>
      </trkpt>
      <trkpt lat="47.09772" lon="3.02506">
        <ele>164.4</ele>
        <time>2019-10-14T03:32:13Z</time>
      </trkpt>
      <trkpt lat="47.09936" lon="3.02505">
        <ele>164.5</ele>
        <time>2019-10-14T03:32:57Z</time>
      </trkpt>
      <trkpt lat="47.1019" lon="3.02504">
        <ele>164.4</ele>
        <time>2019-10-14T03:34:05Z</time>
      </trkpt>
      <trkpt lat="47.1033" lon="3.02503">
        <ele>164.7</ele>
        <time>2019-10-14T03:34:42Z</time>
      </trkpt>
      <trkpt lat="47.10489" lon="3.02502">
        <ele>164.7</ele>
        <time>2019-10-14T03:35:25Z</time>
      </trkpt>
      <trkpt lat="47.10656" lon="3.02505">
        <ele>164.5</ele>
        <time>2019-10-14T03:36:09Z</time>
      </trkpt>
      <trkpt lat="47.10697" lon="3.02503">
        <ele>164.7</ele>
        <time>2019-10-14T03:36:20Z</time>
      </trkpt>
      <trkpt lat="47.10823" lon="3.02497">
        <ele>164.7</ele>
        <time>2019-10-14T03:36:54Z</time>
      </trkpt>
      <trkpt lat="47.11205" lon="3.02482">
        <ele>162.9</ele>
        <time>2019-10-14T03:38:36Z</time>
      </trkpt>
      <trkpt lat="47.11647" lon="3.02463">
        <ele>162.8</ele>
        <time>2019-10-14T03:40:34Z</time>
      </trkpt>
      <trkpt lat="47.11779" lon="3.02457">
        <ele>162.6</ele>
        <time>2019-10-14T03:41:09Z</time>
      </trkpt>
      <trkpt lat="47.12082" lon="3.02411">
        <ele>163.4</ele>
        <time>2019-10-14T03:42:31Z</time>
      </trkpt>
      <trkpt lat="47.12307" lon="3.02377">
        <ele>162.4</ele>
        <time>2019-10-14T03:43:31Z</time>
      </trkpt>
      <trkpt lat="47.1259" lon="3.0233">
        <ele>163.3</ele>
        <time>2019-10-14T03:44:47Z</time>
      </trkpt>
      <trkpt lat="47.12869" lon="3.02289">
        <ele>162.2</ele>
        <time>2019-10-14T03:46:02Z</time>
      </trkpt>
      <trkpt lat="47.12913" lon="3.02282">
        <ele>163.4</ele>
        <time>2019-10-14T03:46:14Z</time>
      </trkpt>
      <trkpt lat="47.12939" lon="3.0227">
        <ele>161.8</ele>
        <time>2019-10-14T03:46:21Z</time>
      </trkpt>
      <trkpt lat="47.13044" lon="3.02174">
        <ele>161.8</ele>
        <time>2019-10-14T03:46:54Z</time>
      </trkpt>
      <trkpt lat="47.13079" lon="3.02141">
        <ele>162.4</ele>
        <time>2019-10-14T03:47:05Z</time>
      </trkpt>
      <trkpt lat="47.13271" lon="3.01969">
        <ele>162.5</ele>
        <time>2019-10-14T03:48:05Z</time>
      </trkpt>
      <trkpt lat="47.13396" lon="3.0186">
        <ele>162.4</ele>
        <time>2019-10-14T03:48:44Z</time>
      </trkpt>
      <trkpt lat="47.13564" lon="3.01709">
        <ele>162</ele>
        <time>2019-10-14T03:49:37Z</time>
      </trkpt>
      <trkpt lat="47.13595" lon="3.01677">
        <ele>162</ele>
        <time>2019-10-14T03:49:47Z</time>
      </trkpt>
      <trkpt lat="47.13632" lon="3.01654">
        <ele>161.9</ele>
        <time>2019-10-14T03:49:58Z</time>
      </trkpt>
      <trkpt lat="47.13746" lon="3.01611">
        <ele>162.8</ele>
        <time>2019-10-14T03:50:29Z</time>
      </trkpt>
      <trkpt lat="47.13803" lon="3.01588">
        <ele>162.4</ele>
        <time>2019-10-14T03:50:45Z</time>
      </trkpt>
      <trkpt lat="47.13923" lon="3.01537">
        <ele>162.3</ele>
        <time>2019-10-14T03:51:18Z</time>
      </trkpt>
      <trkpt lat="47.1406" lon="3.0148">
        <ele>162.1</ele>
        <time>2019-10-14T03:51:56Z</time>
      </trkpt>
      <trkpt lat="47.14142" lon="3.01448">
        <ele>162.1</ele>
        <time>2019-10-14T03:52:19Z</time>
      </trkpt>
      <trkpt lat="47.14177" lon="3.01444">
        <ele>162.9</ele>
        <time>2019-10-14T03:52:28Z</time>
      </trkpt>
      <trkpt lat="47.14397" lon="3.01469">
        <ele>161.5</ele>
        <time>2019-10-14T03:53:27Z</time>
      </trkpt>
      <trkpt lat="47.14549" lon="3.01478">
        <ele>161.8</ele>
        <time>2019-10-14T03:54:08Z</time>
      </trkpt>
      <trkpt lat="47.14586" lon="3.01477">
        <ele>162.3</ele>
        <time>2019-10-14T03:54:18Z</time>
      </trkpt>
      <trkpt lat="47.14637" lon="3.0146">
        <ele>161.6</ele>
        <time>2019-10-14T03:54:32Z</time>
      </trkpt>
      <trkpt lat="47.15087" lon="3.01321">
        <ele>162.1</ele>
        <time>2019-10-14T03:56:35Z</time>
      </trkpt>
      <trkpt lat="47.15134" lon="3.01309">
        <ele>162.5</ele>
        <time>2019-10-14T03:56:48Z</time>
      </trkpt>
      <trkpt lat="47.15156" lon="3.0131">
        <ele>162</ele>
        <time>2019-10-14T03:56:53Z</time>
      </trkpt>
      <trkpt lat="47.15261" lon="3.01332">
        <ele>162.8</ele>
        <time>2019-10-14T03:57:22Z</time>
      </trkpt>
      <trkpt lat="47.15311" lon="3.01328">
        <ele>162.3</ele>
        <time>2019-10-14T03:57:35Z</time>
      </trkpt>
      <trkpt lat="47.15351" lon="3.01309">
        <ele>161.9</ele>
        <time>2019-10-14T03:57:46Z</time>
      </trkpt>
      <trkpt lat="47.1539" lon="3.0128">
        <ele>161.9</ele>
        <time>2019-10-14T03:57:58Z</time>
      </trkpt>
      <trkpt lat="47.15478" lon="3.0121">
        <ele>161.2</ele>
        <time>2019-10-14T03:58:25Z</time>
      </trkpt>
      <trkpt lat="47.15512" lon="3.01194">
        <ele>161.4</ele>
        <time>2019-10-14T03:58:34Z</time>
      </trkpt>
      <trkpt lat="47.15537" lon="3.01188">
        <ele>161.3</ele>
        <time>2019-10-14T03:58:41Z</time>
      </trkpt>
      <trkpt lat="47.15596" lon="3.01196">
        <ele>161.9</ele>
        <time>2019-10-14T03:58:57Z</time>
      </trkpt>
      <trkpt lat="47.15625" lon="3.01193">
        <ele>162.3</ele>
        <time>2019-10-14T03:59:05Z</time>
      </trkpt>
      <trkpt lat="47.15691" lon="3.01171">
        <ele>161.5</ele>
        <time>2019-10-14T03:59:23Z</time>
      </trkpt>
      <trkpt lat="47.1576" lon="3.01147">
        <ele>161.9</ele>
        <time>2019-10-14T03:59:42Z</time>
      </trkpt>
      <trkpt lat="47.1578" lon="3.01143">
        <ele>161.9</ele>
        <time>2019-10-14T03:59:47Z</time>
      </trkpt>
      <trkpt lat="47.15798" lon="3.01133">
        <ele>162.2</ele>
        <time>2019-10-14T03:59:52Z</time>
      </trkpt>
      <trkpt lat="47.15886" lon="3.01105">
        <ele>161.3</ele>
        <time>2019-10-14T04:00:16Z</time>
      </trkpt>
      <trkpt lat="47.15928" lon="3.011">
        <ele>161.1</ele>
        <time>2019-10-14T04:00:28Z</time>
      </trkpt>
      <trkpt lat="47.16153" lon="3.01053">
        <ele>161.7</ele>
        <time>2019-10-14T04:01:28Z</time>
      </trkpt>
      <trkpt lat="47.1638" lon="3.01031">
        <ele>159.9</ele>
        <time>2019-10-14T04:02:29Z</time>
      </trkpt>
      <trkpt lat="47.16529" lon="3.00992">
        <ele>159.7</ele>
        <time>2019-10-14T04:03:09Z</time>
      </trkpt>
      <trkpt lat="47.16736" lon="3.0096">
        <ele>159.4</ele>
        <time>2019-10-14T04:04:05Z</time>
      </trkpt>
      <trkpt lat="47.1683" lon="3.00948">
        <ele>161.7</ele>
        <time>2019-10-14T04:04:30Z</time>
      </trkpt>
      <trkpt lat="47.16885" lon="3.0094">
        <ele>161</ele>
        <time>2019-10-14T04:04:45Z</time>
      </trkpt>
      <trkpt lat="47.17453" lon="3.00839">
        <ele>160.6</ele>
        <time>2019-10-14T04:07:18Z</time>
      </trkpt>
      <trkpt lat="47.17466" lon="3.00829">
        <ele>161.6</ele>
        <time>2019-10-14T04:07:22Z</time>
      </trkpt>
      <trkpt lat="47.17461" lon="3.00817">
        <ele>161</ele>
        <time>2019-10-14T04:07:24Z</time>
      </trkpt>
      <trkpt lat="47.17459" lon="3.00809">
        <ele>160.6</ele>
        <time>2019-10-14T04:07:26Z</time>
      </trkpt>
      <trkpt lat="47.17503" lon="3.00784">
        <ele>159.4</ele>
        <time>2019-10-14T04:07:39Z</time>
      </trkpt>
      <trkpt lat="47.17523" lon="3.00772">
        <ele>159</ele>
        <time>2019-10-14T04:07:44Z</time>
      </trkpt>
      <trkpt lat="47.17531" lon="3.00766">
        <ele>159.1</ele>
        <time>2019-10-14T04:07:47Z</time>
      </trkpt>
      <trkpt lat="47.17542" lon="3.00753">
        <ele>158.7</ele>
        <time>2019-10-14T04:07:50Z</time>
      </trkpt>
      <trkpt lat="47.17655" lon="3.00581">
        <ele>157.5</ele>
        <time>2019-10-14T04:08:34Z</time>
      </trkpt>
      <trkpt lat="47.17668" lon="3.00564">
        <ele>157.7</ele>
        <time>2019-10-14T04:08:39Z</time>
      </trkpt>
      <trkpt lat="47.17685" lon="3.00548">
        <ele>158</ele>
        <time>2019-10-14T04:08:44Z</time>
      </trkpt>
      <trkpt lat="47.17824" lon="3.00439">
        <ele>158</ele>
        <time>2019-10-14T04:09:26Z</time>
      </trkpt>
      <trkpt lat="47.17931" lon="3.00354">
        <ele>158</ele>
        <time>2019-10-14T04:09:59Z</time>
      </trkpt>
      <trkpt lat="47.17942" lon="3.00345">
        <ele>158</ele>
        <time>2019-10-14T04:10:02Z</time>
      </trkpt>
      <trkpt lat="47.17984" lon="3.00306">
        <ele>158</ele>
        <time>2019-10-14T04:10:15Z</time>
      </trkpt>
      <trkpt lat="47.17993" lon="3.00299">
        <ele>158</ele>
        <time>2019-10-14T04:10:18Z</time>
      </trkpt>
      <trkpt lat="47.18003" lon="3.00293">
        <ele>158</ele>
        <time>2019-10-14T04:10:21Z</time>
      </trkpt>
      <trkpt lat="47.18012" lon="3.0029">
        <ele>158</ele>
        <time>2019-10-14T04:10:23Z</time>
      </trkpt>
      <trkpt lat="47.18123" lon="3.00272">
        <ele>158</ele>
        <time>2019-10-14T04:10:53Z</time>
      </trkpt>
      <trkpt lat="47.18138" lon="3.00269">
        <ele>158</ele>
        <time>2019-10-14T04:10:57Z</time>
      </trkpt>
      <trkpt lat="47.18153" lon="3.00264">
        <ele>157.7</ele>
        <time>2019-10-14T04:11:01Z</time>
      </trkpt>
      <trkpt lat="47.18178" lon="3.00251">
        <ele>158</ele>
        <time>2019-10-14T04:11:08Z</time>
      </trkpt>
      <trkpt lat="47.18188" lon="3.00246">
        <ele>158</ele>
        <time>2019-10-14T04:11:11Z</time>
      </trkpt>
      <trkpt lat="47.182" lon="3.00242">
        <ele>157.9</ele>
        <time>2019-10-14T04:11:14Z</time>
      </trkpt>
      <trkpt lat="47.18216" lon="3.0024">
        <ele>157.5</ele>
        <time>2019-10-14T04:11:19Z</time>
      </trkpt>
      <trkpt lat="47.1823" lon="3.0024">
        <ele>157.5</ele>
        <time>2019-10-14T04:11:22Z</time>
      </trkpt>
      <trkpt lat="47.1824" lon="3.00241">
        <ele>157.8</ele>
        <time>2019-10-14T04:11:25Z</time>
      </trkpt>
      <trkpt lat="47.18306" lon="3.00259">
        <ele>157.3</ele>
        <time>2019-10-14T04:11:43Z</time>
      </trkpt>
      <trkpt lat="47.18317" lon="3.00261">
        <ele>158</ele>
        <time>2019-10-14T04:11:46Z</time>
      </trkpt>
      <trkpt lat="47.18329" lon="3.00261">
        <ele>158.6</ele>
        <time>2019-10-14T04:11:49Z</time>
      </trkpt>
      <trkpt lat="47.18338" lon="3.00257">
        <ele>158.5</ele>
        <time>2019-10-14T04:11:52Z</time>
      </trkpt>
      <trkpt lat="47.18367" lon="3.00248">
        <ele>158.9</ele>
        <time>2019-10-14T04:12:00Z</time>
      </trkpt>
      <trkpt lat="47.18375" lon="3.00253">
        <ele>158.6</ele>
        <time>2019-10-14T04:12:02Z</time>
      </trkpt>
      <trkpt lat="47.18378" lon="3.00242">
        <ele>158.6</ele>
        <time>2019-10-14T04:12:04Z</time>
      </trkpt>
      <trkpt lat="47.18629" lon="3.0008">
        <ele>158.4</ele>
        <time>2019-10-14T04:13:17Z</time>
      </trkpt>
      <trkpt lat="47.18826" lon="2.99953">
        <ele>158.2</ele>
        <time>2019-10-14T04:14:15Z</time>
      </trkpt>
      <trkpt lat="47.18847" lon="2.99936">
        <ele>158.4</ele>
        <time>2019-10-14T04:14:21Z</time>
      </trkpt>
      <trkpt lat="47.18855" lon="2.99928">
        <ele>158.1</ele>
        <time>2019-10-14T04:14:24Z</time>
      </trkpt>
      <trkpt lat="47.18863" lon="2.99917">
        <ele>158.1</ele>
        <time>2019-10-14T04:14:27Z</time>
      </trkpt>
      <trkpt lat="47.18871" lon="2.99905">
        <ele>157.8</ele>
        <time>2019-10-14T04:14:30Z</time>
      </trkpt>
      <trkpt lat="47.18878" lon="2.99895">
        <ele>158</ele>
        <time>2019-10-14T04:14:32Z</time>
      </trkpt>
      <trkpt lat="47.18882" lon="2.99899">
        <ele>158.4</ele>
        <time>2019-10-14T04:14:34Z</time>
      </trkpt>
      <trkpt lat="47.18891" lon="2.99908">
        <ele>158.9</ele>
        <time>2019-10-14T04:14:37Z</time>
      </trkpt>
      <trkpt lat="47.18899" lon="2.99917">
        <ele>158.6</ele>
        <time>2019-10-14T04:14:39Z</time>
      </trkpt>
      <trkpt lat="47.18933" lon="2.99892">
        <ele>157.6</ele>
        <time>2019-10-14T04:14:49Z</time>
      </trkpt>
      <trkpt lat="47.18972" lon="2.99836">
        <ele>157.8</ele>
        <time>2019-10-14T04:15:04Z</time>
      </trkpt>
      <trkpt lat="47.19046" lon="2.99736">
        <ele>157.2</ele>
        <time>2019-10-14T04:15:31Z</time>
      </trkpt>
      <trkpt lat="47.19086" lon="2.99691">
        <ele>157.8</ele>
        <time>2019-10-14T04:15:44Z</time>
      </trkpt>
      <trkpt lat="47.1919" lon="2.99633">
        <ele>156.7</ele>
        <time>2019-10-14T04:16:14Z</time>
      </trkpt>
      <trkpt lat="47.19237" lon="2.99613">
        <ele>157.8</ele>
        <time>2019-10-14T04:16:27Z</time>
      </trkpt>
      <trkpt lat="47.19299" lon="2.99595">
        <ele>156.8</ele>
        <time>2019-10-14T04:16:44Z</time>
      </trkpt>
      <trkpt lat="47.19338" lon="2.99587">
        <ele>157.4</ele>
        <time>2019-10-14T04:16:54Z</time>
      </trkpt>
      <trkpt lat="47.19421" lon="2.99551">
        <ele>158</ele>
        <time>2019-10-14T04:17:18Z</time>
      </trkpt>
      <trkpt lat="47.1944" lon="2.99548">
        <ele>158</ele>
        <time>2019-10-14T04:17:23Z</time>
      </trkpt>
      <trkpt lat="47.19469" lon="2.99543">
        <ele>157</ele>
        <time>2019-10-14T04:17:31Z</time>
      </trkpt>
      <trkpt lat="47.19515" lon="2.99518">
        <ele>157.7</ele>
        <time>2019-10-14T04:17:44Z</time>
      </trkpt>
      <trkpt lat="47.19535" lon="2.99506">
        <ele>158</ele>
        <time>2019-10-14T04:17:49Z</time>
      </trkpt>
      <trkpt lat="47.19749" lon="2.99386">
        <ele>157.1</ele>
        <time>2019-10-14T04:18:51Z</time>
      </trkpt>
      <trkpt lat="47.19902" lon="2.99309">
        <ele>156.6</ele>
        <time>2019-10-14T04:19:34Z</time>
      </trkpt>
      <trkpt lat="47.19912" lon="2.99304">
        <ele>156.4</ele>
        <time>2019-10-14T04:19:37Z</time>
      </trkpt>
      <trkpt lat="47.19929" lon="2.99295">
        <ele>156.2</ele>
        <time>2019-10-14T04:19:41Z</time>
      </trkpt>
      <trkpt lat="47.19937" lon="2.99292">
        <ele>156.2</ele>
        <time>2019-10-14T04:19:44Z</time>
      </trkpt>
      <trkpt lat="47.20067" lon="2.99211">
        <ele>156.3</ele>
        <time>2019-10-14T04:20:21Z</time>
      </trkpt>
      <trkpt lat="47.20287" lon="2.99087">
        <ele>156.1</ele>
        <time>2019-10-14T04:21:24Z</time>
      </trkpt>
      <trkpt lat="47.20389" lon="2.99034">
        <ele>156.1</ele>
        <time>2019-10-14T04:21:53Z</time>
      </trkpt>
      <trkpt lat="47.20439" lon="2.99019">
        <ele>155.8</ele>
        <time>2019-10-14T04:22:07Z</time>
      </trkpt>
      <trkpt lat="47.20464" lon="2.99012">
        <ele>155.5</ele>
        <time>2019-10-14T04:22:14Z</time>
      </trkpt>
      <trkpt lat="47.20481" lon="2.99002">
        <ele>156.1</ele>
        <time>2019-10-14T04:22:19Z</time>
      </trkpt>
      <trkpt lat="47.20498" lon="2.98988">
        <ele>155.9</ele>
        <time>2019-10-14T04:22:24Z</time>
      </trkpt>
      <trkpt lat="47.20515" lon="2.98974">
        <ele>156.3</ele>
        <time>2019-10-14T04:22:29Z</time>
      </trkpt>
      <trkpt lat="47.20531" lon="2.98962">
        <ele>156.1</ele>
        <time>2019-10-14T04:22:34Z</time>
      </trkpt>
      <trkpt lat="47.20595" lon="2.98904">
        <ele>155.9</ele>
        <time>2019-10-14T04:22:54Z</time>
      </trkpt>
      <trkpt lat="47.20627" lon="2.98872">
        <ele>156.3</ele>
        <time>2019-10-14T04:23:04Z</time>
      </trkpt>
      <trkpt lat="47.20668" lon="2.9883">
        <ele>156.9</ele>
        <time>2019-10-14T04:23:17Z</time>
      </trkpt>
      <trkpt lat="47.20739" lon="2.98728">
        <ele>156.9</ele>
        <time>2019-10-14T04:23:44Z</time>
      </trkpt>
      <trkpt lat="47.20794" lon="2.98663">
        <ele>156.5</ele>
        <time>2019-10-14T04:24:03Z</time>
      </trkpt>
      <trkpt lat="47.20868" lon="2.98598">
        <ele>156.9</ele>
        <time>2019-10-14T04:24:26Z</time>
      </trkpt>
      <trkpt lat="47.20946" lon="2.98526">
        <ele>156.9</ele>
        <time>2019-10-14T04:24:50Z</time>
      </trkpt>
      <trkpt lat="47.20992" lon="2.98475">
        <ele>156.9</ele>
        <time>2019-10-14T04:25:06Z</time>
      </trkpt>
      <trkpt lat="47.21016" lon="2.98448">
        <ele>156.9</ele>
        <time>2019-10-14T04:25:14Z</time>
      </trkpt>
      <trkpt lat="47.21064" lon="2.98403">
        <ele>156.7</ele>
        <time>2019-10-14T04:25:29Z</time>
      </trkpt>
      <trkpt lat="47.21152" lon="2.98309">
        <ele>156.4</ele>
        <time>2019-10-14T04:25:58Z</time>
      </trkpt>
      <trkpt lat="47.21177" lon="2.98285">
        <ele>156.7</ele>
        <time>2019-10-14T04:26:06Z</time>
      </trkpt>
      <trkpt lat="47.21311" lon="2.98135">
        <ele>157.5</ele>
        <time>2019-10-14T04:26:51Z</time>
      </trkpt>
      <trkpt lat="47.2135" lon="2.9809">
        <ele>156.9</ele>
        <time>2019-10-14T04:27:04Z</time>
      </trkpt>
      <trkpt lat="47.21408" lon="2.98026">
        <ele>156.3</ele>
        <time>2019-10-14T04:27:24Z</time>
      </trkpt>
      <trkpt lat="47.21528" lon="2.97881">
        <ele>157</ele>
        <time>2019-10-14T04:28:05Z</time>
      </trkpt>
      <trkpt lat="47.2157" lon="2.97835">
        <ele>156.5</ele>
        <time>2019-10-14T04:28:19Z</time>
      </trkpt>
      <trkpt lat="47.21701" lon="2.97717">
        <ele>156.5</ele>
        <time>2019-10-14T04:29:00Z</time>
      </trkpt>
      <trkpt lat="47.21709" lon="2.97708">
        <ele>156.5</ele>
        <time>2019-10-14T04:29:03Z</time>
      </trkpt>
      <trkpt lat="47.21914" lon="2.9752">
        <ele>156</ele>
        <time>2019-10-14T04:30:07Z</time>
      </trkpt>
      <trkpt lat="47.21925" lon="2.97509">
        <ele>156.1</ele>
        <time>2019-10-14T04:30:11Z</time>
      </trkpt>
      <trkpt lat="47.21935" lon="2.97503">
        <ele>156.5</ele>
        <time>2019-10-14T04:30:14Z</time>
      </trkpt>
      <trkpt lat="47.21958" lon="2.97497">
        <ele>156.8</ele>
        <time>2019-10-14T04:30:20Z</time>
      </trkpt>
      <trkpt lat="47.22147" lon="2.97478">
        <ele>156.6</ele>
        <time>2019-10-14T04:31:11Z</time>
      </trkpt>
      <trkpt lat="47.22168" lon="2.97476">
        <ele>156.7</ele>
        <time>2019-10-14T04:31:16Z</time>
      </trkpt>
      <trkpt lat="47.22193" lon="2.97472">
        <ele>157</ele>
        <time>2019-10-14T04:31:23Z</time>
      </trkpt>
      <trkpt lat="47.22322" lon="2.97452">
        <ele>156.2</ele>
        <time>2019-10-14T04:31:58Z</time>
      </trkpt>
      <trkpt lat="47.22461" lon="2.97419">
        <ele>156.3</ele>
        <time>2019-10-14T04:32:35Z</time>
      </trkpt>
      <trkpt lat="47.22495" lon="2.97411">
        <ele>155.3</ele>
        <time>2019-10-14T04:32:45Z</time>
      </trkpt>
      <trkpt lat="47.2251" lon="2.97407">
        <ele>155.1</ele>
        <time>2019-10-14T04:32:49Z</time>
      </trkpt>
      <trkpt lat="47.22527" lon="2.97406">
        <ele>155.4</ele>
        <time>2019-10-14T04:32:53Z</time>
      </trkpt>
      <trkpt lat="47.2265" lon="2.97408">
        <ele>155.3</ele>
        <time>2019-10-14T04:33:26Z</time>
      </trkpt>
      <trkpt lat="47.22668" lon="2.97407">
        <ele>155.3</ele>
        <time>2019-10-14T04:33:31Z</time>
      </trkpt>
      <trkpt lat="47.22688" lon="2.97405">
        <ele>155</ele>
        <time>2019-10-14T04:33:36Z</time>
      </trkpt>
      <trkpt lat="47.22707" lon="2.97399">
        <ele>155.4</ele>
        <time>2019-10-14T04:33:41Z</time>
      </trkpt>
      <trkpt lat="47.22754" lon="2.97382">
        <ele>155.8</ele>
        <time>2019-10-14T04:33:54Z</time>
      </trkpt>
      <trkpt lat="47.22767" lon="2.97378">
        <ele>155.3</ele>
        <time>2019-10-14T04:33:58Z</time>
      </trkpt>
      <trkpt lat="47.22784" lon="2.97377">
        <ele>155</ele>
        <time>2019-10-14T04:34:02Z</time>
      </trkpt>
      <trkpt lat="47.22802" lon="2.97378">
        <ele>155.3</ele>
        <time>2019-10-14T04:34:07Z</time>
      </trkpt>
      <trkpt lat="47.22851" lon="2.9739">
        <ele>156.4</ele>
        <time>2019-10-14T04:34:20Z</time>
      </trkpt>
      <trkpt lat="47.2292" lon="2.974">
        <ele>154.8</ele>
        <time>2019-10-14T04:34:39Z</time>
      </trkpt>
      <trkpt lat="47.22936" lon="2.97403">
        <ele>154.5</ele>
        <time>2019-10-14T04:34:43Z</time>
      </trkpt>
      <trkpt lat="47.2298" lon="2.97415">
        <ele>156.2</ele>
        <time>2019-10-14T04:34:55Z</time>
      </trkpt>
      <trkpt lat="47.22999" lon="2.97418">
        <ele>156.7</ele>
        <time>2019-10-14T04:35:00Z</time>
      </trkpt>
      <trkpt lat="47.23019" lon="2.97417">
        <ele>156.3</ele>
        <time>2019-10-14T04:35:06Z</time>
      </trkpt>
      <trkpt lat="47.23036" lon="2.97413">
        <ele>155.9</ele>
        <time>2019-10-14T04:35:10Z</time>
      </trkpt>
      <trkpt lat="47.23056" lon="2.97406">
        <ele>156</ele>
        <time>2019-10-14T04:35:16Z</time>
      </trkpt>
      <trkpt lat="47.2316" lon="2.97368">
        <ele>156.6</ele>
        <time>2019-10-14T04:35:44Z</time>
      </trkpt>
      <trkpt lat="47.23178" lon="2.97361">
        <ele>157</ele>
        <time>2019-10-14T04:35:49Z</time>
      </trkpt>
      <trkpt lat="47.23268" lon="2.97335">
        <ele>156.9</ele>
        <time>2019-10-14T04:36:14Z</time>
      </trkpt>
      <trkpt lat="47.23319" lon="2.97319">
        <ele>155.8</ele>
        <time>2019-10-14T04:36:28Z</time>
      </trkpt>
      <trkpt lat="47.23448" lon="2.97309">
        <ele>156.8</ele>
        <time>2019-10-14T04:37:02Z</time>
      </trkpt>
      <trkpt lat="47.23787" lon="2.97295">
        <ele>155.4</ele>
        <time>2019-10-14T04:38:33Z</time>
      </trkpt>
      <trkpt lat="47.23966" lon="2.97284">
        <ele>156.3</ele>
        <time>2019-10-14T04:39:21Z</time>
      </trkpt>
      <trkpt lat="47.24009" lon="2.9729">
        <ele>156</ele>
        <time>2019-10-14T04:39:32Z</time>
      </trkpt>
      <trkpt lat="47.24136" lon="2.97344">
        <ele>155.3</ele>
        <time>2019-10-14T04:40:08Z</time>
      </trkpt>
      <trkpt lat="47.24365" lon="2.97436">
        <ele>155.4</ele>
        <time>2019-10-14T04:41:11Z</time>
      </trkpt>
      <trkpt lat="47.24388" lon="2.97445">
        <ele>155.9</ele>
        <time>2019-10-14T04:41:17Z</time>
      </trkpt>
      <trkpt lat="47.24411" lon="2.97453">
        <ele>155.9</ele>
        <time>2019-10-14T04:41:24Z</time>
      </trkpt>
      <trkpt lat="47.24428" lon="2.9746">
        <ele>155.2</ele>
        <time>2019-10-14T04:41:29Z</time>
      </trkpt>
      <trkpt lat="47.24446" lon="2.97466">
        <ele>155</ele>
        <time>2019-10-14T04:41:33Z</time>
      </trkpt>
      <trkpt lat="47.24478" lon="2.97467">
        <ele>154.7</ele>
        <time>2019-10-14T04:41:42Z</time>
      </trkpt>
      <trkpt lat="47.24574" lon="2.97451">
        <ele>156</ele>
        <time>2019-10-14T04:42:08Z</time>
      </trkpt>
      <trkpt lat="47.24625" lon="2.97446">
        <ele>156.4</ele>
        <time>2019-10-14T04:42:21Z</time>
      </trkpt>
      <trkpt lat="47.24929" lon="2.97467">
        <ele>155.8</ele>
        <time>2019-10-14T04:43:43Z</time>
      </trkpt>
      <trkpt lat="47.25141" lon="2.97488">
        <ele>156.4</ele>
        <time>2019-10-14T04:44:40Z</time>
      </trkpt>
      <trkpt lat="47.25276" lon="2.97485">
        <ele>155.5</ele>
        <time>2019-10-14T04:45:16Z</time>
      </trkpt>
      <trkpt lat="47.25394" lon="2.97482">
        <ele>155.9</ele>
        <time>2019-10-14T04:45:47Z</time>
      </trkpt>
      <trkpt lat="47.25503" lon="2.9746">
        <ele>155.4</ele>
        <time>2019-10-14T04:46:17Z</time>
      </trkpt>
      <trkpt lat="47.25595" lon="2.97438">
        <ele>154.6</ele>
        <time>2019-10-14T04:46:41Z</time>
      </trkpt>
      <trkpt lat="47.25765" lon="2.97376">
        <ele>154.5</ele>
        <time>2019-10-14T04:47:28Z</time>
      </trkpt>
      <trkpt lat="47.25866" lon="2.97332">
        <ele>155.6</ele>
        <time>2019-10-14T04:47:56Z</time>
      </trkpt>
      <trkpt lat="47.25952" lon="2.97285">
        <ele>155.7</ele>
        <time>2019-10-14T04:48:21Z</time>
      </trkpt>
      <trkpt lat="47.25982" lon="2.97265">
        <ele>155</ele>
        <time>2019-10-14T04:48:30Z</time>
      </trkpt>
      <trkpt lat="47.26078" lon="2.97203">
        <ele>155.4</ele>
        <time>2019-10-14T04:48:58Z</time>
      </trkpt>
      <trkpt lat="47.26118" lon="2.97175">
        <ele>155.3</ele>
        <time>2019-10-14T04:49:10Z</time>
      </trkpt>
      <trkpt lat="47.26143" lon="2.97155">
        <ele>155.7</ele>
        <time>2019-10-14T04:49:17Z</time>
      </trkpt>
      <trkpt lat="47.26165" lon="2.97139">
        <ele>156</ele>
        <time>2019-10-14T04:49:24Z</time>
      </trkpt>
      <trkpt lat="47.26202" lon="2.97109">
        <ele>155.1</ele>
        <time>2019-10-14T04:49:35Z</time>
      </trkpt>
      <trkpt lat="47.26413" lon="2.96897">
        <ele>154.3</ele>
        <time>2019-10-14T04:50:43Z</time>
      </trkpt>
      <trkpt lat="47.26436" lon="2.96873">
        <ele>154.4</ele>
        <time>2019-10-14T04:50:51Z</time>
      </trkpt>
      <trkpt lat="47.26455" lon="2.96849">
        <ele>154</ele>
        <time>2019-10-14T04:50:57Z</time>
      </trkpt>
      <trkpt lat="47.26731" lon="2.96474">
        <ele>154.6</ele>
        <time>2019-10-14T04:52:38Z</time>
      </trkpt>
      <trkpt lat="47.26759" lon="2.96437">
        <ele>154.8</ele>
        <time>2019-10-14T04:52:48Z</time>
      </trkpt>
      <trkpt lat="47.26954" lon="2.96169">
        <ele>153.9</ele>
        <time>2019-10-14T04:53:59Z</time>
      </trkpt>
      <trkpt lat="47.27045" lon="2.96041">
        <ele>153</ele>
        <time>2019-10-14T04:54:33Z</time>
      </trkpt>
      <trkpt lat="47.27137" lon="2.95916">
        <ele>155.6</ele>
        <time>2019-10-14T04:55:06Z</time>
      </trkpt>
      <trkpt lat="47.27197" lon="2.95828">
        <ele>154</ele>
        <time>2019-10-14T04:55:29Z</time>
      </trkpt>
      <trkpt lat="47.27254" lon="2.95748">
        <ele>154.1</ele>
        <time>2019-10-14T04:55:50Z</time>
      </trkpt>
      <trkpt lat="47.27317" lon="2.95661">
        <ele>152</ele>
        <time>2019-10-14T04:56:13Z</time>
      </trkpt>
      <trkpt lat="47.27324" lon="2.95643">
        <ele>151.8</ele>
        <time>2019-10-14T04:56:17Z</time>
      </trkpt>
      <trkpt lat="47.27326" lon="2.95628">
        <ele>152.3</ele>
        <time>2019-10-14T04:56:19Z</time>
      </trkpt>
      <trkpt lat="47.27319" lon="2.95607">
        <ele>152.4</ele>
        <time>2019-10-14T04:56:24Z</time>
      </trkpt>
      <trkpt lat="47.27302" lon="2.95538">
        <ele>154.1</ele>
        <time>2019-10-14T04:56:37Z</time>
      </trkpt>
      <trkpt lat="47.27287" lon="2.95479">
        <ele>152.3</ele>
        <time>2019-10-14T04:56:48Z</time>
      </trkpt>
      <trkpt lat="47.27283" lon="2.9546">
        <ele>153.3</ele>
        <time>2019-10-14T04:56:52Z</time>
      </trkpt>
      <trkpt lat="47.2728" lon="2.9544">
        <ele>154.5</ele>
        <time>2019-10-14T04:56:56Z</time>
      </trkpt>
      <trkpt lat="47.27278" lon="2.95429">
        <ele>154.4</ele>
        <time>2019-10-14T04:56:58Z</time>
      </trkpt>
      <trkpt lat="47.27276" lon="2.9541">
        <ele>153.9</ele>
        <time>2019-10-14T04:57:01Z</time>
      </trkpt>
      <trkpt lat="47.27275" lon="2.95404">
        <ele>153.9</ele>
        <time>2019-10-14T04:57:02Z</time>
      </trkpt>
      <trkpt lat="47.27274" lon="2.95397">
        <ele>153.9</ele>
        <time>2019-10-14T04:57:04Z</time>
      </trkpt>
      <trkpt lat="47.27273" lon="2.9539">
        <ele>153.8</ele>
        <time>2019-10-14T04:57:05Z</time>
      </trkpt>
      <trkpt lat="47.27273" lon="2.95383">
        <ele>153.8</ele>
        <time>2019-10-14T04:57:06Z</time>
      </trkpt>
      <trkpt lat="47.27272" lon="2.95376">
        <ele>153.7</ele>
        <time>2019-10-14T04:57:07Z</time>
      </trkpt>
      <trkpt lat="47.27272" lon="2.9537">
        <ele>153.7</ele>
        <time>2019-10-14T04:57:08Z</time>
      </trkpt>
      <trkpt lat="47.27271" lon="2.95363">
        <ele>153.5</ele>
        <time>2019-10-14T04:57:10Z</time>
      </trkpt>
      <trkpt lat="47.27271" lon="2.95358">
        <ele>153.5</ele>
        <time>2019-10-14T04:57:11Z</time>
      </trkpt>
      <trkpt lat="47.27271" lon="2.95353">
        <ele>153.5</ele>
        <time>2019-10-14T04:57:12Z</time>
      </trkpt>
      <trkpt lat="47.27271" lon="2.95348">
        <ele>153.5</ele>
        <time>2019-10-14T04:57:13Z</time>
      </trkpt>
      <trkpt lat="47.27271" lon="2.95343">
        <ele>153.5</ele>
        <time>2019-10-14T04:57:13Z</time>
      </trkpt>
      <trkpt lat="47.27272" lon="2.95338">
        <ele>153.6</ele>
        <time>2019-10-14T04:57:14Z</time>
      </trkpt>
      <trkpt lat="47.27272" lon="2.95333">
        <ele>153.6</ele>
        <time>2019-10-14T04:57:15Z</time>
      </trkpt>
      <trkpt lat="47.27272" lon="2.95328">
        <ele>153.6</ele>
        <time>2019-10-14T04:57:16Z</time>
      </trkpt>
      <trkpt lat="47.27273" lon="2.95323">
        <ele>153.7</ele>
        <time>2019-10-14T04:57:17Z</time>
      </trkpt>
      <trkpt lat="47.27273" lon="2.95318">
        <ele>153.7</ele>
        <time>2019-10-14T04:57:18Z</time>
      </trkpt>
      <trkpt lat="47.27273" lon="2.95313">
        <ele>153.7</ele>
        <time>2019-10-14T04:57:19Z</time>
      </trkpt>
      <trkpt lat="47.27274" lon="2.95307">
        <ele>153.7</ele>
        <time>2019-10-14T04:57:20Z</time>
      </trkpt>
      <trkpt lat="47.27275" lon="2.95301">
        <ele>153.8</ele>
        <time>2019-10-14T04:57:21Z</time>
      </trkpt>
      <trkpt lat="47.27276" lon="2.95295">
        <ele>153.9</ele>
        <time>2019-10-14T04:57:22Z</time>
      </trkpt>
      <trkpt lat="47.27277" lon="2.9529">
        <ele>153.9</ele>
        <time>2019-10-14T04:57:23Z</time>
      </trkpt>
      <trkpt lat="47.27278" lon="2.95284">
        <ele>154</ele>
        <time>2019-10-14T04:57:24Z</time>
      </trkpt>
      <trkpt lat="47.27279" lon="2.95278">
        <ele>153.8</ele>
        <time>2019-10-14T04:57:25Z</time>
      </trkpt>
      <trkpt lat="47.2728" lon="2.95272">
        <ele>153.5</ele>
        <time>2019-10-14T04:57:27Z</time>
      </trkpt>
      <trkpt lat="47.27282" lon="2.95267">
        <ele>153.1</ele>
        <time>2019-10-14T04:57:28Z</time>
      </trkpt>
      <trkpt lat="47.27283" lon="2.95261">
        <ele>152.8</ele>
        <time>2019-10-14T04:57:29Z</time>
      </trkpt>
      <trkpt lat="47.27285" lon="2.95256">
        <ele>152.4</ele>
        <time>2019-10-14T04:57:30Z</time>
      </trkpt>
      <trkpt lat="47.27291" lon="2.95229">
        <ele>151.9</ele>
        <time>2019-10-14T04:57:35Z</time>
      </trkpt>
      <trkpt lat="47.27294" lon="2.95217">
        <ele>152.2</ele>
        <time>2019-10-14T04:57:37Z</time>
      </trkpt>
      <trkpt lat="47.27296" lon="2.95212">
        <ele>152.5</ele>
        <time>2019-10-14T04:57:38Z</time>
      </trkpt>
      <trkpt lat="47.27297" lon="2.95208">
        <ele>152.7</ele>
        <time>2019-10-14T04:57:39Z</time>
      </trkpt>
      <trkpt lat="47.27297" lon="2.95204">
        <ele>152.9</ele>
        <time>2019-10-14T04:57:40Z</time>
      </trkpt>
      <trkpt lat="47.27297" lon="2.95199">
        <ele>153.2</ele>
        <time>2019-10-14T04:57:41Z</time>
      </trkpt>
      <trkpt lat="47.27297" lon="2.95194">
        <ele>153.4</ele>
        <time>2019-10-14T04:57:42Z</time>
      </trkpt>
      <trkpt lat="47.27296" lon="2.95189">
        <ele>153.1</ele>
        <time>2019-10-14T04:57:43Z</time>
      </trkpt>
      <trkpt lat="47.27295" lon="2.95187">
        <ele>153</ele>
        <time>2019-10-14T04:57:43Z</time>
      </trkpt>
      <trkpt lat="47.27294" lon="2.95183">
        <ele>152.9</ele>
        <time>2019-10-14T04:57:44Z</time>
      </trkpt>
      <trkpt lat="47.27292" lon="2.95179">
        <ele>152.7</ele>
        <time>2019-10-14T04:57:45Z</time>
      </trkpt>
      <trkpt lat="47.27291" lon="2.95178">
        <ele>152.7</ele>
        <time>2019-10-14T04:57:45Z</time>
      </trkpt>
      <trkpt lat="47.27288" lon="2.95175">
        <ele>152.7</ele>
        <time>2019-10-14T04:57:46Z</time>
      </trkpt>
      <trkpt lat="47.27278" lon="2.95163">
        <ele>153</ele>
        <time>2019-10-14T04:57:49Z</time>
      </trkpt>
      <trkpt lat="47.27171" lon="2.95049">
        <ele>152.6</ele>
        <time>2019-10-14T04:58:25Z</time>
      </trkpt>
      <trkpt lat="47.27199" lon="2.9503">
        <ele>152.7</ele>
        <time>2019-10-14T04:58:33Z</time>
      </trkpt>
      <trkpt lat="47.27254" lon="2.94988">
        <ele>152.8</ele>
        <time>2019-10-14T04:58:50Z</time>
      </trkpt>
      <trkpt lat="47.27309" lon="2.94932">
        <ele>152.3</ele>
        <time>2019-10-14T04:59:07Z</time>
      </trkpt>
      <trkpt lat="47.27338" lon="2.9489">
        <ele>152.6</ele>
        <time>2019-10-14T04:59:18Z</time>
      </trkpt>
      <trkpt lat="47.2736" lon="2.94849">
        <ele>152.5</ele>
        <time>2019-10-14T04:59:28Z</time>
      </trkpt>
      <trkpt lat="47.27377" lon="2.94809">
        <ele>152.4</ele>
        <time>2019-10-14T04:59:36Z</time>
      </trkpt>
      <trkpt lat="47.27402" lon="2.94761">
        <ele>152.3</ele>
        <time>2019-10-14T04:59:47Z</time>
      </trkpt>
      <trkpt lat="47.27622" lon="2.94411">
        <ele>152.2</ele>
        <time>2019-10-14T05:01:14Z</time>
      </trkpt>
      <trkpt lat="47.27668" lon="2.94356">
        <ele>151.8</ele>
        <time>2019-10-14T05:01:30Z</time>
      </trkpt>
      <trkpt lat="47.27827" lon="2.94249">
        <ele>151.2</ele>
        <time>2019-10-14T05:02:16Z</time>
      </trkpt>
      <trkpt lat="47.28005" lon="2.9409">
        <ele>150.9</ele>
        <time>2019-10-14T05:03:12Z</time>
      </trkpt>
      <trkpt lat="47.2806" lon="2.94076">
        <ele>151</ele>
        <time>2019-10-14T05:03:27Z</time>
      </trkpt>
      <trkpt lat="47.28158" lon="2.93994">
        <ele>150.7</ele>
        <time>2019-10-14T05:03:57Z</time>
      </trkpt>
      <trkpt lat="47.28302" lon="2.93913">
        <ele>151.1</ele>
        <time>2019-10-14T05:04:38Z</time>
      </trkpt>
      <trkpt lat="47.28448" lon="2.93816">
        <ele>151</ele>
        <time>2019-10-14T05:05:21Z</time>
      </trkpt>
      <trkpt lat="47.28555" lon="2.93632">
        <ele>151</ele>
        <time>2019-10-14T05:06:05Z</time>
      </trkpt>
      <trkpt lat="47.28585" lon="2.93596">
        <ele>150.9</ele>
        <time>2019-10-14T05:06:15Z</time>
      </trkpt>
      <trkpt lat="47.28709" lon="2.93485">
        <ele>150.1</ele>
        <time>2019-10-14T05:06:54Z</time>
      </trkpt>
      <trkpt lat="47.28791" lon="2.93387">
        <ele>150.2</ele>
        <time>2019-10-14T05:07:22Z</time>
      </trkpt>
      <trkpt lat="47.28855" lon="2.93292">
        <ele>149.9</ele>
        <time>2019-10-14T05:07:46Z</time>
      </trkpt>
      <trkpt lat="47.28899" lon="2.93194">
        <ele>150.6</ele>
        <time>2019-10-14T05:08:08Z</time>
      </trkpt>
      <trkpt lat="47.2901" lon="2.93022">
        <ele>150.4</ele>
        <time>2019-10-14T05:08:51Z</time>
      </trkpt>
      <trkpt lat="47.29032" lon="2.92993">
        <ele>150.7</ele>
        <time>2019-10-14T05:08:59Z</time>
      </trkpt>
      <trkpt lat="47.29206" lon="2.92853">
        <ele>149.8</ele>
        <time>2019-10-14T05:09:52Z</time>
      </trkpt>
      <trkpt lat="47.29296" lon="2.92741">
        <ele>149.2</ele>
        <time>2019-10-14T05:10:23Z</time>
      </trkpt>
      <trkpt lat="47.29461" lon="2.92538">
        <ele>150.1</ele>
        <time>2019-10-14T05:11:20Z</time>
      </trkpt>
      <trkpt lat="47.29506" lon="2.92509">
        <ele>149.4</ele>
        <time>2019-10-14T05:11:34Z</time>
      </trkpt>
      <trkpt lat="47.29562" lon="2.92424">
        <ele>150.4</ele>
        <time>2019-10-14T05:11:55Z</time>
      </trkpt>
      <trkpt lat="47.2971" lon="2.92243">
        <ele>149.6</ele>
        <time>2019-10-14T05:12:46Z</time>
      </trkpt>
      <trkpt lat="47.29808" lon="2.92058">
        <ele>150.9</ele>
        <time>2019-10-14T05:13:29Z</time>
      </trkpt>
      <trkpt lat="47.29861" lon="2.91996">
        <ele>150.9</ele>
        <time>2019-10-14T05:13:47Z</time>
      </trkpt>
      <trkpt lat="47.30082" lon="2.91768">
        <ele>150.6</ele>
        <time>2019-10-14T05:14:59Z</time>
      </trkpt>
      <trkpt lat="47.30153" lon="2.91692">
        <ele>150.5</ele>
        <time>2019-10-14T05:15:22Z</time>
      </trkpt>
      <trkpt lat="47.30309" lon="2.91487">
        <ele>150.1</ele>
        <time>2019-10-14T05:16:18Z</time>
      </trkpt>
      <trkpt lat="47.30447" lon="2.91326">
        <ele>150</ele>
        <time>2019-10-14T05:17:05Z</time>
      </trkpt>
      <trkpt lat="47.30513" lon="2.91258">
        <ele>149.8</ele>
        <time>2019-10-14T05:17:27Z</time>
      </trkpt>
      <trkpt lat="47.30649" lon="2.91157">
        <ele>149.1</ele>
        <time>2019-10-14T05:18:08Z</time>
      </trkpt>
      <trkpt lat="47.30697" lon="2.91089">
        <ele>149.4</ele>
        <time>2019-10-14T05:18:25Z</time>
      </trkpt>
      <trkpt lat="47.30715" lon="2.91014">
        <ele>150.2</ele>
        <time>2019-10-14T05:18:40Z</time>
      </trkpt>
      <trkpt lat="47.30718" lon="2.90987">
        <ele>149.5</ele>
        <time>2019-10-14T05:18:45Z</time>
      </trkpt>
      <trkpt lat="47.30423" lon="2.9027">
        <ele>148.8</ele>
        <time>2019-10-14T05:21:17Z</time>
      </trkpt>
      <trkpt lat="47.30432" lon="2.90262">
        <ele>148.8</ele>
        <time>2019-10-14T05:21:19Z</time>
      </trkpt>
      <trkpt lat="47.30471" lon="2.9025">
        <ele>150</ele>
        <time>2019-10-14T05:21:30Z</time>
      </trkpt>
      <trkpt lat="47.30598" lon="2.89973">
        <ele>149</ele>
        <time>2019-10-14T05:22:31Z</time>
      </trkpt>
      <trkpt lat="47.30604" lon="2.89959">
        <ele>149</ele>
        <time>2019-10-14T05:22:34Z</time>
      </trkpt>
      <trkpt lat="47.30647" lon="2.8987">
        <ele>148.3</ele>
        <time>2019-10-14T05:22:53Z</time>
      </trkpt>
      <trkpt lat="47.30725" lon="2.89694">
        <ele>148.9</ele>
        <time>2019-10-14T05:23:32Z</time>
      </trkpt>
      <trkpt lat="47.30743" lon="2.89622">
        <ele>147.8</ele>
        <time>2019-10-14T05:23:45Z</time>
      </trkpt>
      <trkpt lat="47.30803" lon="2.89493">
        <ele>147.5</ele>
        <time>2019-10-14T05:24:14Z</time>
      </trkpt>
      <trkpt lat="47.30902" lon="2.89359">
        <ele>147.7</ele>
        <time>2019-10-14T05:24:50Z</time>
      </trkpt>
      <trkpt lat="47.30948" lon="2.89264">
        <ele>147.9</ele>
        <time>2019-10-14T05:25:11Z</time>
      </trkpt>
      <trkpt lat="47.3099" lon="2.89174">
        <ele>147.2</ele>
        <time>2019-10-14T05:25:31Z</time>
      </trkpt>
      <trkpt lat="47.31064" lon="2.88996">
        <ele>148.5</ele>
        <time>2019-10-14T05:26:08Z</time>
      </trkpt>
      <trkpt lat="47.311" lon="2.88823">
        <ele>148.8</ele>
        <time>2019-10-14T05:26:41Z</time>
      </trkpt>
      <trkpt lat="47.31129" lon="2.88475">
        <ele>149</ele>
        <time>2019-10-14T05:27:45Z</time>
      </trkpt>
      <trkpt lat="47.31168" lon="2.88487">
        <ele>148.4</ele>
        <time>2019-10-14T05:27:55Z</time>
      </trkpt>
      <trkpt lat="47.31192" lon="2.88441">
        <ele>148.1</ele>
        <time>2019-10-14T05:28:06Z</time>
      </trkpt>
      <trkpt lat="47.31268" lon="2.88253">
        <ele>148.4</ele>
        <time>2019-10-14T05:28:46Z</time>
      </trkpt>
      <trkpt lat="47.31311" lon="2.88166">
        <ele>148.8</ele>
        <time>2019-10-14T05:29:05Z</time>
      </trkpt>
      <trkpt lat="47.31376" lon="2.88015">
        <ele>148.5</ele>
        <time>2019-10-14T05:29:37Z</time>
      </trkpt>
      <trkpt lat="47.3143" lon="2.87843">
        <ele>148.5</ele>
        <time>2019-10-14T05:30:12Z</time>
      </trkpt>
      <trkpt lat="47.31462" lon="2.87777">
        <ele>148.7</ele>
        <time>2019-10-14T05:30:26Z</time>
      </trkpt>
      <trkpt lat="47.31505" lon="2.87694">
        <ele>148.8</ele>
        <time>2019-10-14T05:30:45Z</time>
      </trkpt>
      <trkpt lat="47.31545" lon="2.87647">
        <ele>148.2</ele>
        <time>2019-10-14T05:30:59Z</time>
      </trkpt>
      <trkpt lat="47.316" lon="2.875">
        <ele>148.4</ele>
        <time>2019-10-14T05:31:29Z</time>
      </trkpt>
      <trkpt lat="47.31622" lon="2.87459">
        <ele>148.2</ele>
        <time>2019-10-14T05:31:39Z</time>
      </trkpt>
      <trkpt lat="47.31658" lon="2.87354">
        <ele>148.3</ele>
        <time>2019-10-14T05:32:00Z</time>
      </trkpt>
      <trkpt lat="47.31704" lon="2.87272">
        <ele>148.4</ele>
        <time>2019-10-14T05:32:20Z</time>
      </trkpt>
      <trkpt lat="47.31782" lon="2.87124">
        <ele>147.5</ele>
        <time>2019-10-14T05:32:53Z</time>
      </trkpt>
      <trkpt lat="47.31834" lon="2.87068">
        <ele>148</ele>
        <time>2019-10-14T05:33:11Z</time>
      </trkpt>
      <trkpt lat="47.31859" lon="2.87041">
        <ele>147.6</ele>
        <time>2019-10-14T05:33:19Z</time>
      </trkpt>
      <trkpt lat="47.31919" lon="2.87015">
        <ele>147.9</ele>
        <time>2019-10-14T05:33:36Z</time>
      </trkpt>
      <trkpt lat="47.31951" lon="2.86976">
        <ele>147.7</ele>
        <time>2019-10-14T05:33:47Z</time>
      </trkpt>
      <trkpt lat="47.3199" lon="2.8693">
        <ele>147.4</ele>
        <time>2019-10-14T05:34:00Z</time>
      </trkpt>
      <trkpt lat="47.32017" lon="2.86904">
        <ele>147.5</ele>
        <time>2019-10-14T05:34:09Z</time>
      </trkpt>
      <trkpt lat="47.32117" lon="2.86831">
        <ele>147.9</ele>
        <time>2019-10-14T05:34:39Z</time>
      </trkpt>
      <trkpt lat="47.32193" lon="2.86783">
        <ele>147.6</ele>
        <time>2019-10-14T05:35:01Z</time>
      </trkpt>
      <trkpt lat="47.32201" lon="2.86775">
        <ele>147.8</ele>
        <time>2019-10-14T05:35:03Z</time>
      </trkpt>
      <trkpt lat="47.32206" lon="2.86766">
        <ele>147.8</ele>
        <time>2019-10-14T05:35:05Z</time>
      </trkpt>
      <trkpt lat="47.32208" lon="2.86765">
        <ele>147.7</ele>
        <time>2019-10-14T05:35:06Z</time>
      </trkpt>
      <trkpt lat="47.3221" lon="2.86764">
        <ele>147.7</ele>
        <time>2019-10-14T05:35:06Z</time>
      </trkpt>
      <trkpt lat="47.32216" lon="2.86764">
        <ele>147.6</ele>
        <time>2019-10-14T05:35:08Z</time>
      </trkpt>
      <trkpt lat="47.32222" lon="2.86762">
        <ele>147.6</ele>
        <time>2019-10-14T05:35:10Z</time>
      </trkpt>
      <trkpt lat="47.32233" lon="2.86755">
        <ele>147.4</ele>
        <time>2019-10-14T05:35:13Z</time>
      </trkpt>
      <trkpt lat="47.32374" lon="2.86691">
        <ele>147</ele>
        <time>2019-10-14T05:35:52Z</time>
      </trkpt>
      <trkpt lat="47.32577" lon="2.86545">
        <ele>147.5</ele>
        <time>2019-10-14T05:36:53Z</time>
      </trkpt>
      <trkpt lat="47.32683" lon="2.86347">
        <ele>147.2</ele>
        <time>2019-10-14T05:37:38Z</time>
      </trkpt>
      <trkpt lat="47.32695" lon="2.8633">
        <ele>147</ele>
        <time>2019-10-14T05:37:43Z</time>
      </trkpt>
      <trkpt lat="47.32701" lon="2.86323">
        <ele>147.1</ele>
        <time>2019-10-14T05:37:45Z</time>
      </trkpt>
      <trkpt lat="47.32765" lon="2.8625">
        <ele>147.5</ele>
        <time>2019-10-14T05:38:06Z</time>
      </trkpt>
      <trkpt lat="47.32816" lon="2.86323">
        <ele>148</ele>
        <time>2019-10-14T05:38:25Z</time>
      </trkpt>
      <trkpt lat="47.32851" lon="2.86332">
        <ele>148</ele>
        <time>2019-10-14T05:38:35Z</time>
      </trkpt>
      <trkpt lat="47.32896" lon="2.86333">
        <ele>148</ele>
        <time>2019-10-14T05:38:47Z</time>
      </trkpt>
      <trkpt lat="47.32986" lon="2.86317">
        <ele>147.6</ele>
        <time>2019-10-14T05:39:11Z</time>
      </trkpt>
      <trkpt lat="47.33099" lon="2.86306">
        <ele>148</ele>
        <time>2019-10-14T05:39:41Z</time>
      </trkpt>
      <trkpt lat="47.33152" lon="2.86312">
        <ele>147.4</ele>
        <time>2019-10-14T05:39:56Z</time>
      </trkpt>
      <trkpt lat="47.33204" lon="2.86301">
        <ele>147.1</ele>
        <time>2019-10-14T05:40:10Z</time>
      </trkpt>
      <trkpt lat="47.33273" lon="2.86272">
        <ele>147</ele>
        <time>2019-10-14T05:40:29Z</time>
      </trkpt>
      <trkpt lat="47.3336" lon="2.86256">
        <ele>146.8</ele>
        <time>2019-10-14T05:40:52Z</time>
      </trkpt>
      <trkpt lat="47.33405" lon="2.8626">
        <ele>146.6</ele>
        <time>2019-10-14T05:41:04Z</time>
      </trkpt>
      <trkpt lat="47.33441" lon="2.86267">
        <ele>146.4</ele>
        <time>2019-10-14T05:41:14Z</time>
      </trkpt>
      <trkpt lat="47.33486" lon="2.86296">
        <ele>146.8</ele>
        <time>2019-10-14T05:41:27Z</time>
      </trkpt>
      <trkpt lat="47.33507" lon="2.86303">
        <ele>147.3</ele>
        <time>2019-10-14T05:41:33Z</time>
      </trkpt>
      <trkpt lat="47.3354" lon="2.86391">
        <ele>146.9</ele>
        <time>2019-10-14T05:41:51Z</time>
      </trkpt>
      <trkpt lat="47.33564" lon="2.8644">
        <ele>147.7</ele>
        <time>2019-10-14T05:42:02Z</time>
      </trkpt>
      <trkpt lat="47.33587" lon="2.86482">
        <ele>147.8</ele>
        <time>2019-10-14T05:42:12Z</time>
      </trkpt>
      <trkpt lat="47.33593" lon="2.86501">
        <ele>147.6</ele>
        <time>2019-10-14T05:42:16Z</time>
      </trkpt>
      <trkpt lat="47.33636" lon="2.86573">
        <ele>148.1</ele>
        <time>2019-10-14T05:42:33Z</time>
      </trkpt>
      <trkpt lat="47.33661" lon="2.86605">
        <ele>147.4</ele>
        <time>2019-10-14T05:42:42Z</time>
      </trkpt>
      <trkpt lat="47.33676" lon="2.86618">
        <ele>147.3</ele>
        <time>2019-10-14T05:42:46Z</time>
      </trkpt>
      <trkpt lat="47.33704" lon="2.86639">
        <ele>148</ele>
        <time>2019-10-14T05:42:55Z</time>
      </trkpt>
      <trkpt lat="47.33713" lon="2.86646">
        <ele>147.5</ele>
        <time>2019-10-14T05:42:58Z</time>
      </trkpt>
      <trkpt lat="47.33734" lon="2.86657">
        <ele>147.6</ele>
        <time>2019-10-14T05:43:04Z</time>
      </trkpt>
      <trkpt lat="47.33783" lon="2.86665">
        <ele>148.1</ele>
        <time>2019-10-14T05:43:17Z</time>
      </trkpt>
      <trkpt lat="47.33835" lon="2.86672">
        <ele>149.3</ele>
        <time>2019-10-14T05:43:31Z</time>
      </trkpt>
      <trkpt lat="47.33893" lon="2.86668">
        <ele>147.9</ele>
        <time>2019-10-14T05:43:46Z</time>
      </trkpt>
      <trkpt lat="47.33927" lon="2.86669">
        <ele>147.7</ele>
        <time>2019-10-14T05:43:55Z</time>
      </trkpt>
      <trkpt lat="47.33974" lon="2.86659">
        <ele>148</ele>
        <time>2019-10-14T05:44:08Z</time>
      </trkpt>
      <trkpt lat="47.33992" lon="2.86655">
        <ele>147.9</ele>
        <time>2019-10-14T05:44:13Z</time>
      </trkpt>
      <trkpt lat="47.34023" lon="2.8663">
        <ele>149.3</ele>
        <time>2019-10-14T05:44:22Z</time>
      </trkpt>
      <trkpt lat="47.34025" lon="2.86628">
        <ele>149.4</ele>
        <time>2019-10-14T05:44:23Z</time>
      </trkpt>
      <trkpt lat="47.34027" lon="2.86626">
        <ele>149.5</ele>
        <time>2019-10-14T05:44:24Z</time>
      </trkpt>
      <trkpt lat="47.34029" lon="2.86624">
        <ele>149.5</ele>
        <time>2019-10-14T05:44:24Z</time>
      </trkpt>
      <trkpt lat="47.34031" lon="2.86621">
        <ele>149.5</ele>
        <time>2019-10-14T05:44:25Z</time>
      </trkpt>
      <trkpt lat="47.34032" lon="2.86619">
        <ele>149.6</ele>
        <time>2019-10-14T05:44:25Z</time>
      </trkpt>
      <trkpt lat="47.34034" lon="2.86616">
        <ele>149.6</ele>
        <time>2019-10-14T05:44:26Z</time>
      </trkpt>
      <trkpt lat="47.34036" lon="2.8661">
        <ele>149.7</ele>
        <time>2019-10-14T05:44:27Z</time>
      </trkpt>
      <trkpt lat="47.34037" lon="2.86607">
        <ele>149.6</ele>
        <time>2019-10-14T05:44:28Z</time>
      </trkpt>
      <trkpt lat="47.34037" lon="2.86603">
        <ele>149.6</ele>
        <time>2019-10-14T05:44:29Z</time>
      </trkpt>
      <trkpt lat="47.34038" lon="2.86599">
        <ele>149.5</ele>
        <time>2019-10-14T05:44:29Z</time>
      </trkpt>
      <trkpt lat="47.34038" lon="2.86595">
        <ele>149.4</ele>
        <time>2019-10-14T05:44:30Z</time>
      </trkpt>
      <trkpt lat="47.34038" lon="2.86592">
        <ele>149.4</ele>
        <time>2019-10-14T05:44:31Z</time>
      </trkpt>
      <trkpt lat="47.34037" lon="2.86588">
        <ele>149.4</ele>
        <time>2019-10-14T05:44:31Z</time>
      </trkpt>
      <trkpt lat="47.34037" lon="2.86584">
        <ele>149.3</ele>
        <time>2019-10-14T05:44:32Z</time>
      </trkpt>
      <trkpt lat="47.34036" lon="2.86581">
        <ele>149.3</ele>
        <time>2019-10-14T05:44:33Z</time>
      </trkpt>
      <trkpt lat="47.34035" lon="2.86578">
        <ele>149.3</ele>
        <time>2019-10-14T05:44:33Z</time>
      </trkpt>
      <trkpt lat="47.34034" lon="2.86574">
        <ele>149.3</ele>
        <time>2019-10-14T05:44:34Z</time>
      </trkpt>
      <trkpt lat="47.33998" lon="2.86506">
        <ele>149.3</ele>
        <time>2019-10-14T05:44:50Z</time>
      </trkpt>
      <trkpt lat="47.33968" lon="2.86446">
        <ele>149.2</ele>
        <time>2019-10-14T05:45:03Z</time>
      </trkpt>
      <trkpt lat="47.33923" lon="2.8636">
        <ele>148.8</ele>
        <time>2019-10-14T05:45:23Z</time>
      </trkpt>
      <trkpt lat="47.33918" lon="2.86351">
        <ele>148.6</ele>
        <time>2019-10-14T05:45:25Z</time>
      </trkpt>
      <trkpt lat="47.33912" lon="2.86342">
        <ele>148.6</ele>
        <time>2019-10-14T05:45:27Z</time>
      </trkpt>
      <trkpt lat="47.33905" lon="2.86335">
        <ele>148.9</ele>
        <time>2019-10-14T05:45:30Z</time>
      </trkpt>
      <trkpt lat="47.33907" lon="2.86325">
        <ele>148.9</ele>
        <time>2019-10-14T05:45:32Z</time>
      </trkpt>
      <trkpt lat="47.33926" lon="2.86018">
        <ele>148.4</ele>
        <time>2019-10-14T05:46:27Z</time>
      </trkpt>
      <trkpt lat="47.3393" lon="2.85973">
        <ele>148.5</ele>
        <time>2019-10-14T05:46:36Z</time>
      </trkpt>
      <trkpt lat="47.33932" lon="2.85956">
        <ele>149</ele>
        <time>2019-10-14T05:46:39Z</time>
      </trkpt>
      <trkpt lat="47.33931" lon="2.85946">
        <ele>149.4</ele>
        <time>2019-10-14T05:46:41Z</time>
      </trkpt>
      <trkpt lat="47.33928" lon="2.8594">
        <ele>149.4</ele>
        <time>2019-10-14T05:46:42Z</time>
      </trkpt>
      <trkpt lat="47.33928" lon="2.85936">
        <ele>149.3</ele>
        <time>2019-10-14T05:46:43Z</time>
      </trkpt>
      <trkpt lat="47.33939" lon="2.85938">
        <ele>149</ele>
        <time>2019-10-14T05:46:46Z</time>
      </trkpt>
      <trkpt lat="47.33953" lon="2.85939">
        <ele>149.1</ele>
        <time>2019-10-14T05:46:49Z</time>
      </trkpt>
      <trkpt lat="47.33959" lon="2.85939">
        <ele>149.2</ele>
        <time>2019-10-14T05:46:51Z</time>
      </trkpt>
      <trkpt lat="47.34004" lon="2.85945">
        <ele>149.8</ele>
        <time>2019-10-14T05:47:03Z</time>
      </trkpt>
      <trkpt lat="47.34011" lon="2.85938">
        <ele>149.2</ele>
        <time>2019-10-14T05:47:05Z</time>
      </trkpt>
      <trkpt lat="47.34022" lon="2.85934">
        <ele>148.8</ele>
        <time>2019-10-14T05:47:08Z</time>
      </trkpt>
      <trkpt lat="47.34037" lon="2.85932">
        <ele>148.4</ele>
        <time>2019-10-14T05:47:12Z</time>
      </trkpt>
      <trkpt lat="47.3407" lon="2.85917">
        <ele>148.5</ele>
        <time>2019-10-14T05:47:22Z</time>
      </trkpt>
      <trkpt lat="47.34364" lon="2.85946">
        <ele>148.8</ele>
        <time>2019-10-14T05:48:40Z</time>
      </trkpt>
      <trkpt lat="47.34371" lon="2.85944">
        <ele>148.6</ele>
        <time>2019-10-14T05:48:42Z</time>
      </trkpt>
      <trkpt lat="47.3438" lon="2.85944">
        <ele>148.3</ele>
        <time>2019-10-14T05:48:45Z</time>
      </trkpt>
      <trkpt lat="47.34394" lon="2.8595">
        <ele>148</ele>
        <time>2019-10-14T05:48:48Z</time>
      </trkpt>
      <trkpt lat="47.34472" lon="2.85964">
        <ele>148</ele>
        <time>2019-10-14T05:49:09Z</time>
      </trkpt>
      <trkpt lat="47.34536" lon="2.85984">
        <ele>147.7</ele>
        <time>2019-10-14T05:49:27Z</time>
      </trkpt>
      <trkpt lat="47.34572" lon="2.86">
        <ele>148</ele>
        <time>2019-10-14T05:49:37Z</time>
      </trkpt>
      <trkpt lat="47.34722" lon="2.86084">
        <ele>148</ele>
        <time>2019-10-14T05:50:20Z</time>
      </trkpt>
      <trkpt lat="47.34943" lon="2.86211">
        <ele>147.4</ele>
        <time>2019-10-14T05:51:23Z</time>
      </trkpt>
      <trkpt lat="47.35092" lon="2.86295">
        <ele>147.6</ele>
        <time>2019-10-14T05:52:06Z</time>
      </trkpt>
      <trkpt lat="47.35125" lon="2.86316">
        <ele>148</ele>
        <time>2019-10-14T05:52:15Z</time>
      </trkpt>
      <trkpt lat="47.3516" lon="2.86347">
        <ele>148.4</ele>
        <time>2019-10-14T05:52:26Z</time>
      </trkpt>
      <trkpt lat="47.35189" lon="2.86368">
        <ele>149.3</ele>
        <time>2019-10-14T05:52:35Z</time>
      </trkpt>
      <trkpt lat="47.35198" lon="2.86376">
        <ele>150</ele>
        <time>2019-10-14T05:52:38Z</time>
      </trkpt>
      <trkpt lat="47.35236" lon="2.86422">
        <ele>148.3</ele>
        <time>2019-10-14T05:52:51Z</time>
      </trkpt>
      <trkpt lat="47.35287" lon="2.86491">
        <ele>147.7</ele>
        <time>2019-10-14T05:53:09Z</time>
      </trkpt>
      <trkpt lat="47.35328" lon="2.86554">
        <ele>148.4</ele>
        <time>2019-10-14T05:53:25Z</time>
      </trkpt>
      <trkpt lat="47.35358" lon="2.86613">
        <ele>147.7</ele>
        <time>2019-10-14T05:53:39Z</time>
      </trkpt>
      <trkpt lat="47.35381" lon="2.86649">
        <ele>147.6</ele>
        <time>2019-10-14T05:53:47Z</time>
      </trkpt>
      <trkpt lat="47.354" lon="2.86679">
        <ele>147.6</ele>
        <time>2019-10-14T05:53:55Z</time>
      </trkpt>
      <trkpt lat="47.35413" lon="2.86699">
        <ele>148.2</ele>
        <time>2019-10-14T05:54:00Z</time>
      </trkpt>
      <trkpt lat="47.35449" lon="2.86722">
        <ele>148.2</ele>
        <time>2019-10-14T05:54:10Z</time>
      </trkpt>
      <trkpt lat="47.35518" lon="2.86757">
        <ele>148.2</ele>
        <time>2019-10-14T05:54:30Z</time>
      </trkpt>
      <trkpt lat="47.35564" lon="2.86783">
        <ele>148.6</ele>
        <time>2019-10-14T05:54:43Z</time>
      </trkpt>
      <trkpt lat="47.35585" lon="2.86796">
        <ele>148.4</ele>
        <time>2019-10-14T05:54:49Z</time>
      </trkpt>
      <trkpt lat="47.35639" lon="2.86839">
        <ele>148.4</ele>
        <time>2019-10-14T05:55:06Z</time>
      </trkpt>
      <trkpt lat="47.3569" lon="2.86889">
        <ele>147.7</ele>
        <time>2019-10-14T05:55:22Z</time>
      </trkpt>
      <trkpt lat="47.35745" lon="2.86946">
        <ele>149.3</ele>
        <time>2019-10-14T05:55:40Z</time>
      </trkpt>
      <trkpt lat="47.35804" lon="2.87005">
        <ele>148.3</ele>
        <time>2019-10-14T05:55:59Z</time>
      </trkpt>
      <trkpt lat="47.35855" lon="2.8705">
        <ele>148.5</ele>
        <time>2019-10-14T05:56:15Z</time>
      </trkpt>
      <trkpt lat="47.35899" lon="2.87073">
        <ele>147.6</ele>
        <time>2019-10-14T05:56:27Z</time>
      </trkpt>
      <trkpt lat="47.35984" lon="2.87119">
        <ele>148.3</ele>
        <time>2019-10-14T05:56:51Z</time>
      </trkpt>
      <trkpt lat="47.36063" lon="2.87164">
        <ele>148.3</ele>
        <time>2019-10-14T05:57:14Z</time>
      </trkpt>
      <trkpt lat="47.36129" lon="2.87194">
        <ele>148.3</ele>
        <time>2019-10-14T05:57:32Z</time>
      </trkpt>
      <trkpt lat="47.36187" lon="2.8723">
        <ele>147.9</ele>
        <time>2019-10-14T05:57:49Z</time>
      </trkpt>
      <trkpt lat="47.36255" lon="2.87287">
        <ele>148.1</ele>
        <time>2019-10-14T05:58:10Z</time>
      </trkpt>
      <trkpt lat="47.36297" lon="2.87322">
        <ele>147.2</ele>
        <time>2019-10-14T05:58:23Z</time>
      </trkpt>
      <trkpt lat="47.36376" lon="2.8736">
        <ele>147.6</ele>
        <time>2019-10-14T05:58:45Z</time>
      </trkpt>
      <trkpt lat="47.36479" lon="2.87429">
        <ele>148</ele>
        <time>2019-10-14T05:59:16Z</time>
      </trkpt>
      <trkpt lat="47.36551" lon="2.87474">
        <ele>147.9</ele>
        <time>2019-10-14T05:59:36Z</time>
      </trkpt>
      <trkpt lat="47.36626" lon="2.8754">
        <ele>147.6</ele>
        <time>2019-10-14T06:00:00Z</time>
      </trkpt>
      <trkpt lat="47.36663" lon="2.87576">
        <ele>147.8</ele>
        <time>2019-10-14T06:00:12Z</time>
      </trkpt>
      <trkpt lat="47.36688" lon="2.87601">
        <ele>146.6</ele>
        <time>2019-10-14T06:00:20Z</time>
      </trkpt>
      <trkpt lat="47.36718" lon="2.8762">
        <ele>146.8</ele>
        <time>2019-10-14T06:00:28Z</time>
      </trkpt>
      <trkpt lat="47.36837" lon="2.87676">
        <ele>147.1</ele>
        <time>2019-10-14T06:01:02Z</time>
      </trkpt>
      <trkpt lat="47.36921" lon="2.87718">
        <ele>149.6</ele>
        <time>2019-10-14T06:01:25Z</time>
      </trkpt>
      <trkpt lat="47.36987" lon="2.8774">
        <ele>147.4</ele>
        <time>2019-10-14T06:01:43Z</time>
      </trkpt>
      <trkpt lat="47.37035" lon="2.87751">
        <ele>147.9</ele>
        <time>2019-10-14T06:01:56Z</time>
      </trkpt>
      <trkpt lat="47.37092" lon="2.87754">
        <ele>148.6</ele>
        <time>2019-10-14T06:02:12Z</time>
      </trkpt>
      <trkpt lat="47.37128" lon="2.87759">
        <ele>148.2</ele>
        <time>2019-10-14T06:02:21Z</time>
      </trkpt>
      <trkpt lat="47.37165" lon="2.8777">
        <ele>147.6</ele>
        <time>2019-10-14T06:02:31Z</time>
      </trkpt>
      <trkpt lat="47.3725" lon="2.87806">
        <ele>148</ele>
        <time>2019-10-14T06:02:55Z</time>
      </trkpt>
      <trkpt lat="47.37403" lon="2.87846">
        <ele>147.6</ele>
        <time>2019-10-14T06:03:37Z</time>
      </trkpt>
      <trkpt lat="47.37452" lon="2.87863">
        <ele>148.8</ele>
        <time>2019-10-14T06:03:50Z</time>
      </trkpt>
      <trkpt lat="47.375" lon="2.87885">
        <ele>148.1</ele>
        <time>2019-10-14T06:04:03Z</time>
      </trkpt>
      <trkpt lat="47.37538" lon="2.87904">
        <ele>148.1</ele>
        <time>2019-10-14T06:04:14Z</time>
      </trkpt>
      <trkpt lat="47.37569" lon="2.87928">
        <ele>147.8</ele>
        <time>2019-10-14T06:04:24Z</time>
      </trkpt>
      <trkpt lat="47.37618" lon="2.87987">
        <ele>147.6</ele>
        <time>2019-10-14T06:04:40Z</time>
      </trkpt>
      <trkpt lat="47.37676" lon="2.88029">
        <ele>147.9</ele>
        <time>2019-10-14T06:04:58Z</time>
      </trkpt>
      <trkpt lat="47.37745" lon="2.88077">
        <ele>147.8</ele>
        <time>2019-10-14T06:05:18Z</time>
      </trkpt>
      <trkpt lat="47.37788" lon="2.88104">
        <ele>147.5</ele>
        <time>2019-10-14T06:05:31Z</time>
      </trkpt>
      <trkpt lat="47.37828" lon="2.88124">
        <ele>147.5</ele>
        <time>2019-10-14T06:05:42Z</time>
      </trkpt>
      <trkpt lat="47.37896" lon="2.88145">
        <ele>148.4</ele>
        <time>2019-10-14T06:06:00Z</time>
      </trkpt>
      <trkpt lat="47.37931" lon="2.8816">
        <ele>149</ele>
        <time>2019-10-14T06:06:10Z</time>
      </trkpt>
      <trkpt lat="47.37944" lon="2.88167">
        <ele>150.9</ele>
        <time>2019-10-14T06:06:14Z</time>
      </trkpt>
      <trkpt lat="47.37948" lon="2.88157">
        <ele>150.2</ele>
        <time>2019-10-14T06:06:16Z</time>
      </trkpt>
      <trkpt lat="47.37952" lon="2.8814">
        <ele>149.3</ele>
        <time>2019-10-14T06:06:19Z</time>
      </trkpt>
      <trkpt lat="47.37954" lon="2.88128">
        <ele>149.9</ele>
        <time>2019-10-14T06:06:21Z</time>
      </trkpt>
      <trkpt lat="47.37983" lon="2.88137">
        <ele>150.1</ele>
        <time>2019-10-14T06:06:29Z</time>
      </trkpt>
      <trkpt lat="47.37994" lon="2.88134">
        <ele>150.3</ele>
        <time>2019-10-14T06:06:32Z</time>
      </trkpt>
      <trkpt lat="47.38" lon="2.88123">
        <ele>151.1</ele>
        <time>2019-10-14T06:06:35Z</time>
      </trkpt>
      <trkpt lat="47.38136" lon="2.88209">
        <ele>151.4</ele>
        <time>2019-10-14T06:07:14Z</time>
      </trkpt>
      <trkpt lat="47.38155" lon="2.88205">
        <ele>153.1</ele>
        <time>2019-10-14T06:07:20Z</time>
      </trkpt>
      <trkpt lat="47.38156" lon="2.88201">
        <ele>153.5</ele>
        <time>2019-10-14T06:07:20Z</time>
      </trkpt>
      <trkpt lat="47.38159" lon="2.88181">
        <ele>154.7</ele>
        <time>2019-10-14T06:07:24Z</time>
      </trkpt>
      <trkpt lat="47.38163" lon="2.88156">
        <ele>156</ele>
        <time>2019-10-14T06:07:29Z</time>
      </trkpt>
      <trkpt lat="47.38163" lon="2.88155">
        <ele>156.1</ele>
        <time>2019-10-14T06:07:29Z</time>
      </trkpt>
      <trkpt lat="47.38163" lon="2.88154">
        <ele>156.1</ele>
        <time>2019-10-14T06:07:29Z</time>
      </trkpt>
      <trkpt lat="47.38164" lon="2.88153">
        <ele>156.3</ele>
        <time>2019-10-14T06:07:29Z</time>
      </trkpt>
      <trkpt lat="47.38164" lon="2.88152">
        <ele>156.3</ele>
        <time>2019-10-14T06:07:30Z</time>
      </trkpt>
      <trkpt lat="47.38165" lon="2.88151">
        <ele>156.4</ele>
        <time>2019-10-14T06:07:30Z</time>
      </trkpt>
      <trkpt lat="47.38165" lon="2.8815">
        <ele>156.5</ele>
        <time>2019-10-14T06:07:30Z</time>
      </trkpt>
      <trkpt lat="47.38166" lon="2.88149">
        <ele>156.6</ele>
        <time>2019-10-14T06:07:30Z</time>
      </trkpt>
      <trkpt lat="47.38166" lon="2.88149">
        <ele>156.6</ele>
        <time>2019-10-14T06:07:30Z</time>
      </trkpt>
      <trkpt lat="47.38167" lon="2.88148">
        <ele>156.7</ele>
        <time>2019-10-14T06:07:31Z</time>
      </trkpt>
      <trkpt lat="47.38167" lon="2.88148">
        <ele>156.7</ele>
        <time>2019-10-14T06:07:31Z</time>
      </trkpt>
      <trkpt lat="47.38168" lon="2.88148">
        <ele>156.7</ele>
        <time>2019-10-14T06:07:31Z</time>
      </trkpt>
      <trkpt lat="47.38169" lon="2.88148">
        <ele>156.8</ele>
        <time>2019-10-14T06:07:31Z</time>
      </trkpt>
      <trkpt lat="47.3817" lon="2.88148">
        <ele>156.8</ele>
        <time>2019-10-14T06:07:31Z</time>
      </trkpt>
      <trkpt lat="47.38171" lon="2.88148">
        <ele>156.9</ele>
        <time>2019-10-14T06:07:32Z</time>
      </trkpt>
      <trkpt lat="47.38214" lon="2.88154">
        <ele>158.3</ele>
        <time>2019-10-14T06:07:43Z</time>
      </trkpt>
      <trkpt lat="47.38225" lon="2.88156">
        <ele>158.4</ele>
        <time>2019-10-14T06:07:46Z</time>
      </trkpt>
      <trkpt lat="47.38227" lon="2.88156">
        <ele>158.4</ele>
        <time>2019-10-14T06:07:47Z</time>
      </trkpt>
      <trkpt lat="47.38239" lon="2.88158">
        <ele>158.3</ele>
        <time>2019-10-14T06:07:50Z</time>
      </trkpt>
      <trkpt lat="47.38265" lon="2.88162">
        <ele>157.2</ele>
        <time>2019-10-14T06:07:57Z</time>
      </trkpt>
      <trkpt lat="47.38318" lon="2.88185">
        <ele>153.2</ele>
        <time>2019-10-14T06:08:12Z</time>
      </trkpt>
      <trkpt lat="47.38371" lon="2.88225">
        <ele>146.9</ele>
        <time>2019-10-14T06:08:28Z</time>
      </trkpt>
      <trkpt lat="47.38376" lon="2.88228">
        <ele>146.9</ele>
        <time>2019-10-14T06:08:29Z</time>
      </trkpt>
      <trkpt lat="47.384" lon="2.88247">
        <ele>147.8</ele>
        <time>2019-10-14T06:08:36Z</time>
      </trkpt>
      <trkpt lat="47.3842" lon="2.88302">
        <ele>149.5</ele>
        <time>2019-10-14T06:08:48Z</time>
      </trkpt>
      <trkpt lat="47.38425" lon="2.88317">
        <ele>150.4</ele>
        <time>2019-10-14T06:08:51Z</time>
      </trkpt>
      <trkpt lat="47.38436" lon="2.88343">
        <ele>151.4</ele>
        <time>2019-10-14T06:08:56Z</time>
      </trkpt>
      <trkpt lat="47.38441" lon="2.88353">
        <ele>151.8</ele>
        <time>2019-10-14T06:08:58Z</time>
      </trkpt>
      <trkpt lat="47.38448" lon="2.88364">
        <ele>152.4</ele>
        <time>2019-10-14T06:09:01Z</time>
      </trkpt>
      <trkpt lat="47.38456" lon="2.88374">
        <ele>152.9</ele>
        <time>2019-10-14T06:09:04Z</time>
      </trkpt>
      <trkpt lat="47.38463" lon="2.88381">
        <ele>153</ele>
        <time>2019-10-14T06:09:06Z</time>
      </trkpt>
      <trkpt lat="47.38493" lon="2.88409">
        <ele>153</ele>
        <time>2019-10-14T06:09:16Z</time>
      </trkpt>
      <trkpt lat="47.38542" lon="2.88454">
        <ele>153.2</ele>
        <time>2019-10-14T06:09:31Z</time>
      </trkpt>
      <trkpt lat="47.38559" lon="2.88472">
        <ele>153.1</ele>
        <time>2019-10-14T06:09:37Z</time>
      </trkpt>
      <trkpt lat="47.38588" lon="2.88504">
        <ele>153.9</ele>
        <time>2019-10-14T06:09:46Z</time>
      </trkpt>
      <trkpt lat="47.38629" lon="2.88524">
        <ele>153.8</ele>
        <time>2019-10-14T06:09:58Z</time>
      </trkpt>
      <trkpt lat="47.38674" lon="2.88545">
        <ele>153.9</ele>
        <time>2019-10-14T06:10:11Z</time>
      </trkpt>
      <trkpt lat="47.38689" lon="2.88553">
        <ele>153.9</ele>
        <time>2019-10-14T06:10:15Z</time>
      </trkpt>
      <trkpt lat="47.38704" lon="2.88566">
        <ele>153.4</ele>
        <time>2019-10-14T06:10:19Z</time>
      </trkpt>
      <trkpt lat="47.38708" lon="2.88576">
        <ele>152.9</ele>
        <time>2019-10-14T06:10:22Z</time>
      </trkpt>
      <trkpt lat="47.38709" lon="2.88581">
        <ele>152.6</ele>
        <time>2019-10-14T06:10:23Z</time>
      </trkpt>
      <trkpt lat="47.38724" lon="2.88585">
        <ele>152.7</ele>
        <time>2019-10-14T06:10:27Z</time>
      </trkpt>
      <trkpt lat="47.38742" lon="2.88599">
        <ele>150.6</ele>
        <time>2019-10-14T06:10:32Z</time>
      </trkpt>
      <trkpt lat="47.38769" lon="2.88612">
        <ele>149.6</ele>
        <time>2019-10-14T06:10:40Z</time>
      </trkpt>
      <trkpt lat="47.38866" lon="2.88663">
        <ele>148.8</ele>
        <time>2019-10-14T06:11:07Z</time>
      </trkpt>
      <trkpt lat="47.38913" lon="2.88688">
        <ele>149.5</ele>
        <time>2019-10-14T06:11:20Z</time>
      </trkpt>
      <trkpt lat="47.38959" lon="2.88717">
        <ele>148.9</ele>
        <time>2019-10-14T06:11:34Z</time>
      </trkpt>
      <trkpt lat="47.38982" lon="2.88733">
        <ele>149</ele>
        <time>2019-10-14T06:11:41Z</time>
      </trkpt>
      <trkpt lat="47.39005" lon="2.88753">
        <ele>148.9</ele>
        <time>2019-10-14T06:11:48Z</time>
      </trkpt>
      <trkpt lat="47.39051" lon="2.8879">
        <ele>147.8</ele>
        <time>2019-10-14T06:12:02Z</time>
      </trkpt>
      <trkpt lat="47.39049" lon="2.88795">
        <ele>147.4</ele>
        <time>2019-10-14T06:12:03Z</time>
      </trkpt>
      <trkpt lat="47.39046" lon="2.88804">
        <ele>146.8</ele>
        <time>2019-10-14T06:12:05Z</time>
      </trkpt>
      <trkpt lat="47.39046" lon="2.88806">
        <ele>146.7</ele>
        <time>2019-10-14T06:12:05Z</time>
      </trkpt>
      <trkpt lat="47.39045" lon="2.88809">
        <ele>146.8</ele>
        <time>2019-10-14T06:12:06Z</time>
      </trkpt>
      <trkpt lat="47.39045" lon="2.88811">
        <ele>146.8</ele>
        <time>2019-10-14T06:12:06Z</time>
      </trkpt>
      <trkpt lat="47.39046" lon="2.88814">
        <ele>146.8</ele>
        <time>2019-10-14T06:12:07Z</time>
      </trkpt>
      <trkpt lat="47.39046" lon="2.88816">
        <ele>146.8</ele>
        <time>2019-10-14T06:12:07Z</time>
      </trkpt>
      <trkpt lat="47.39047" lon="2.88818">
        <ele>146.8</ele>
        <time>2019-10-14T06:12:07Z</time>
      </trkpt>
      <trkpt lat="47.39048" lon="2.88821">
        <ele>146.9</ele>
        <time>2019-10-14T06:12:08Z</time>
      </trkpt>
      <trkpt lat="47.3905" lon="2.88823">
        <ele>147</ele>
        <time>2019-10-14T06:12:09Z</time>
      </trkpt>
      <trkpt lat="47.39055" lon="2.8883">
        <ele>147.7</ele>
        <time>2019-10-14T06:12:10Z</time>
      </trkpt>
      <trkpt lat="47.39086" lon="2.88851">
        <ele>146.8</ele>
        <time>2019-10-14T06:12:20Z</time>
      </trkpt>
      <trkpt lat="47.3911" lon="2.88881">
        <ele>146</ele>
        <time>2019-10-14T06:12:28Z</time>
      </trkpt>
      <trkpt lat="47.3913" lon="2.88898">
        <ele>145.4</ele>
        <time>2019-10-14T06:12:34Z</time>
      </trkpt>
      <trkpt lat="47.39166" lon="2.88921">
        <ele>144.8</ele>
        <time>2019-10-14T06:12:45Z</time>
      </trkpt>
      <trkpt lat="47.39208" lon="2.88936">
        <ele>145.8</ele>
        <time>2019-10-14T06:12:56Z</time>
      </trkpt>
      <trkpt lat="47.39209" lon="2.88937">
        <ele>145.9</ele>
        <time>2019-10-14T06:12:56Z</time>
      </trkpt>
      <trkpt lat="47.39211" lon="2.88938">
        <ele>145.9</ele>
        <time>2019-10-14T06:12:57Z</time>
      </trkpt>
      <trkpt lat="47.39214" lon="2.88939">
        <ele>145.9</ele>
        <time>2019-10-14T06:12:58Z</time>
      </trkpt>
      <trkpt lat="47.39216" lon="2.88941">
        <ele>146</ele>
        <time>2019-10-14T06:12:59Z</time>
      </trkpt>
      <trkpt lat="47.39218" lon="2.88942">
        <ele>146</ele>
        <time>2019-10-14T06:12:59Z</time>
      </trkpt>
      <trkpt lat="47.39222" lon="2.88946">
        <ele>146.5</ele>
        <time>2019-10-14T06:13:00Z</time>
      </trkpt>
      <trkpt lat="47.39224" lon="2.88948">
        <ele>147</ele>
        <time>2019-10-14T06:13:01Z</time>
      </trkpt>
      <trkpt lat="47.39226" lon="2.8895">
        <ele>147.4</ele>
        <time>2019-10-14T06:13:02Z</time>
      </trkpt>
      <trkpt lat="47.39227" lon="2.88952">
        <ele>147.9</ele>
        <time>2019-10-14T06:13:02Z</time>
      </trkpt>
      <trkpt lat="47.3923" lon="2.88956">
        <ele>148.4</ele>
        <time>2019-10-14T06:13:03Z</time>
      </trkpt>
      <trkpt lat="47.39232" lon="2.88959">
        <ele>148.7</ele>
        <time>2019-10-14T06:13:04Z</time>
      </trkpt>
      <trkpt lat="47.39234" lon="2.88962">
        <ele>148.9</ele>
        <time>2019-10-14T06:13:05Z</time>
      </trkpt>
      <trkpt lat="47.39235" lon="2.88965">
        <ele>149.1</ele>
        <time>2019-10-14T06:13:05Z</time>
      </trkpt>
      <trkpt lat="47.39236" lon="2.88968">
        <ele>149.3</ele>
        <time>2019-10-14T06:13:06Z</time>
      </trkpt>
      <trkpt lat="47.39238" lon="2.88972">
        <ele>149.3</ele>
        <time>2019-10-14T06:13:07Z</time>
      </trkpt>
      <trkpt lat="47.39239" lon="2.88975">
        <ele>148.9</ele>
        <time>2019-10-14T06:13:07Z</time>
      </trkpt>
      <trkpt lat="47.3924" lon="2.88979">
        <ele>148.5</ele>
        <time>2019-10-14T06:13:08Z</time>
      </trkpt>
      <trkpt lat="47.39241" lon="2.88982">
        <ele>148.1</ele>
        <time>2019-10-14T06:13:09Z</time>
      </trkpt>
      <trkpt lat="47.39242" lon="2.88986">
        <ele>147.7</ele>
        <time>2019-10-14T06:13:10Z</time>
      </trkpt>
      <trkpt lat="47.39242" lon="2.8899">
        <ele>147.7</ele>
        <time>2019-10-14T06:13:10Z</time>
      </trkpt>
      <trkpt lat="47.39243" lon="2.88993">
        <ele>147.3</ele>
        <time>2019-10-14T06:13:11Z</time>
      </trkpt>
      <trkpt lat="47.39243" lon="2.88997">
        <ele>147.3</ele>
        <time>2019-10-14T06:13:12Z</time>
      </trkpt>
      <trkpt lat="47.39243" lon="2.89">
        <ele>147.3</ele>
        <time>2019-10-14T06:13:12Z</time>
      </trkpt>
      <trkpt lat="47.39244" lon="2.89004">
        <ele>146.9</ele>
        <time>2019-10-14T06:13:13Z</time>
      </trkpt>
      <trkpt lat="47.39244" lon="2.8901">
        <ele>146.9</ele>
        <time>2019-10-14T06:13:14Z</time>
      </trkpt>
      <trkpt lat="47.39243" lon="2.89021">
        <ele>147.1</ele>
        <time>2019-10-14T06:13:16Z</time>
      </trkpt>
      <trkpt lat="47.3924" lon="2.89033">
        <ele>147.7</ele>
        <time>2019-10-14T06:13:18Z</time>
      </trkpt>
      <trkpt lat="47.39226" lon="2.89109">
        <ele>147.5</ele>
        <time>2019-10-14T06:13:33Z</time>
      </trkpt>
      <trkpt lat="47.39225" lon="2.89113">
        <ele>147.6</ele>
        <time>2019-10-14T06:13:33Z</time>
      </trkpt>
      <trkpt lat="47.39225" lon="2.89116">
        <ele>147.6</ele>
        <time>2019-10-14T06:13:34Z</time>
      </trkpt>
      <trkpt lat="47.39225" lon="2.89118">
        <ele>147.6</ele>
        <time>2019-10-14T06:13:34Z</time>
      </trkpt>
      <trkpt lat="47.39224" lon="2.89121">
        <ele>147.8</ele>
        <time>2019-10-14T06:13:35Z</time>
      </trkpt>
      <trkpt lat="47.39224" lon="2.89124">
        <ele>147.8</ele>
        <time>2019-10-14T06:13:35Z</time>
      </trkpt>
      <trkpt lat="47.39224" lon="2.89127">
        <ele>147.8</ele>
        <time>2019-10-14T06:13:36Z</time>
      </trkpt>
      <trkpt lat="47.39224" lon="2.8913">
        <ele>147.8</ele>
        <time>2019-10-14T06:13:37Z</time>
      </trkpt>
      <trkpt lat="47.39225" lon="2.89132">
        <ele>147.7</ele>
        <time>2019-10-14T06:13:37Z</time>
      </trkpt>
      <trkpt lat="47.39225" lon="2.89135">
        <ele>147.7</ele>
        <time>2019-10-14T06:13:37Z</time>
      </trkpt>
      <trkpt lat="47.39226" lon="2.89138">
        <ele>147.6</ele>
        <time>2019-10-14T06:13:38Z</time>
      </trkpt>
      <trkpt lat="47.39226" lon="2.89141">
        <ele>147.4</ele>
        <time>2019-10-14T06:13:39Z</time>
      </trkpt>
      <trkpt lat="47.39227" lon="2.89144">
        <ele>147.1</ele>
        <time>2019-10-14T06:13:39Z</time>
      </trkpt>
      <trkpt lat="47.39227" lon="2.89146">
        <ele>147</ele>
        <time>2019-10-14T06:13:40Z</time>
      </trkpt>
      <trkpt lat="47.39228" lon="2.89148">
        <ele>146.8</ele>
        <time>2019-10-14T06:13:40Z</time>
      </trkpt>
      <trkpt lat="47.39229" lon="2.89151">
        <ele>146.6</ele>
        <time>2019-10-14T06:13:41Z</time>
      </trkpt>
      <trkpt lat="47.3923" lon="2.89153">
        <ele>146.5</ele>
        <time>2019-10-14T06:13:41Z</time>
      </trkpt>
      <trkpt lat="47.39231" lon="2.89155">
        <ele>146.4</ele>
        <time>2019-10-14T06:13:42Z</time>
      </trkpt>
      <trkpt lat="47.39232" lon="2.89157">
        <ele>146.4</ele>
        <time>2019-10-14T06:13:42Z</time>
      </trkpt>
      <trkpt lat="47.39233" lon="2.8916">
        <ele>146.3</ele>
        <time>2019-10-14T06:13:43Z</time>
      </trkpt>
      <trkpt lat="47.39234" lon="2.89161">
        <ele>146.4</ele>
        <time>2019-10-14T06:13:43Z</time>
      </trkpt>
      <trkpt lat="47.39237" lon="2.89166">
        <ele>146.6</ele>
        <time>2019-10-14T06:13:44Z</time>
      </trkpt>
      <trkpt lat="47.39259" lon="2.89202">
        <ele>146.7</ele>
        <time>2019-10-14T06:13:53Z</time>
      </trkpt>
      <trkpt lat="47.39299" lon="2.89277">
        <ele>146.3</ele>
        <time>2019-10-14T06:14:10Z</time>
      </trkpt>
      <trkpt lat="47.39378" lon="2.89417">
        <ele>146.2</ele>
        <time>2019-10-14T06:14:43Z</time>
      </trkpt>
      <trkpt lat="47.39384" lon="2.89426">
        <ele>146.3</ele>
        <time>2019-10-14T06:14:45Z</time>
      </trkpt>
      <trkpt lat="47.39389" lon="2.89433">
        <ele>146.4</ele>
        <time>2019-10-14T06:14:47Z</time>
      </trkpt>
      <trkpt lat="47.3951" lon="2.8959">
        <ele>146</ele>
        <time>2019-10-14T06:15:30Z</time>
      </trkpt>
      <trkpt lat="47.39816" lon="2.89974">
        <ele>145.6</ele>
        <time>2019-10-14T06:17:18Z</time>
      </trkpt>
      <trkpt lat="47.39887" lon="2.90065">
        <ele>146.2</ele>
        <time>2019-10-14T06:17:43Z</time>
      </trkpt>
      <trkpt lat="47.39936" lon="2.90128">
        <ele>146.3</ele>
        <time>2019-10-14T06:18:00Z</time>
      </trkpt>
      <trkpt lat="47.40085" lon="2.90312">
        <ele>146.2</ele>
        <time>2019-10-14T06:18:52Z</time>
      </trkpt>
      <trkpt lat="47.40108" lon="2.90335">
        <ele>146.4</ele>
        <time>2019-10-14T06:18:59Z</time>
      </trkpt>
      <trkpt lat="47.40134" lon="2.90353">
        <ele>145.2</ele>
        <time>2019-10-14T06:19:07Z</time>
      </trkpt>
      <trkpt lat="47.40314" lon="2.90449">
        <ele>146.1</ele>
        <time>2019-10-14T06:19:58Z</time>
      </trkpt>
      <trkpt lat="47.40351" lon="2.90459">
        <ele>145</ele>
        <time>2019-10-14T06:20:08Z</time>
      </trkpt>
      <trkpt lat="47.40413" lon="2.9047">
        <ele>146.6</ele>
        <time>2019-10-14T06:20:25Z</time>
      </trkpt>
      <trkpt lat="47.40935" lon="2.90561">
        <ele>145.3</ele>
        <time>2019-10-14T06:22:45Z</time>
      </trkpt>
      <trkpt lat="47.41095" lon="2.90591">
        <ele>146.3</ele>
        <time>2019-10-14T06:23:28Z</time>
      </trkpt>
      <trkpt lat="47.41099" lon="2.90592">
        <ele>146.4</ele>
        <time>2019-10-14T06:23:29Z</time>
      </trkpt>
      <trkpt lat="47.41101" lon="2.90592">
        <ele>146.5</ele>
        <time>2019-10-14T06:23:30Z</time>
      </trkpt>
      <trkpt lat="47.41111" lon="2.90594">
        <ele>147</ele>
        <time>2019-10-14T06:23:33Z</time>
      </trkpt>
      <trkpt lat="47.41149" lon="2.90602">
        <ele>145.5</ele>
        <time>2019-10-14T06:23:43Z</time>
      </trkpt>
      <trkpt lat="47.41187" lon="2.90609">
        <ele>145.8</ele>
        <time>2019-10-14T06:23:53Z</time>
      </trkpt>
      <trkpt lat="47.41193" lon="2.90603">
        <ele>144.9</ele>
        <time>2019-10-14T06:23:55Z</time>
      </trkpt>
      <trkpt lat="47.41497" lon="2.90661">
        <ele>145.2</ele>
        <time>2019-10-14T06:25:17Z</time>
      </trkpt>
      <trkpt lat="47.41671" lon="2.90696">
        <ele>144.7</ele>
        <time>2019-10-14T06:26:04Z</time>
      </trkpt>
      <trkpt lat="47.41762" lon="2.90712">
        <ele>144.2</ele>
        <time>2019-10-14T06:26:28Z</time>
      </trkpt>
      <trkpt lat="47.41775" lon="2.9071">
        <ele>144.2</ele>
        <time>2019-10-14T06:26:32Z</time>
      </trkpt>
      <trkpt lat="47.4178" lon="2.90718">
        <ele>145.4</ele>
        <time>2019-10-14T06:26:34Z</time>
      </trkpt>
      <trkpt lat="47.41783" lon="2.90723">
        <ele>145.9</ele>
        <time>2019-10-14T06:26:35Z</time>
      </trkpt>
      <trkpt lat="47.41792" lon="2.9073">
        <ele>145.3</ele>
        <time>2019-10-14T06:26:38Z</time>
      </trkpt>
      <trkpt lat="47.41816" lon="2.9073">
        <ele>144.9</ele>
        <time>2019-10-14T06:26:44Z</time>
      </trkpt>
      <trkpt lat="47.41835" lon="2.90738">
        <ele>144</ele>
        <time>2019-10-14T06:26:50Z</time>
      </trkpt>
      <trkpt lat="47.41893" lon="2.90766">
        <ele>144</ele>
        <time>2019-10-14T06:27:06Z</time>
      </trkpt>
      <trkpt lat="47.41953" lon="2.90796">
        <ele>144.2</ele>
        <time>2019-10-14T06:27:23Z</time>
      </trkpt>
      <trkpt lat="47.41987" lon="2.90816">
        <ele>144.3</ele>
        <time>2019-10-14T06:27:33Z</time>
      </trkpt>
      <trkpt lat="47.42093" lon="2.90896">
        <ele>144.4</ele>
        <time>2019-10-14T06:28:04Z</time>
      </trkpt>
      <trkpt lat="47.42125" lon="2.90925">
        <ele>144</ele>
        <time>2019-10-14T06:28:14Z</time>
      </trkpt>
      <trkpt lat="47.42185" lon="2.90986">
        <ele>144</ele>
        <time>2019-10-14T06:28:34Z</time>
      </trkpt>
      <trkpt lat="47.42219" lon="2.91022">
        <ele>144.4</ele>
        <time>2019-10-14T06:28:45Z</time>
      </trkpt>
      <trkpt lat="47.42262" lon="2.91055">
        <ele>144.4</ele>
        <time>2019-10-14T06:28:58Z</time>
      </trkpt>
      <trkpt lat="47.42308" lon="2.91086">
        <ele>144.7</ele>
        <time>2019-10-14T06:29:11Z</time>
      </trkpt>
      <trkpt lat="47.42455" lon="2.91177">
        <ele>144</ele>
        <time>2019-10-14T06:29:54Z</time>
      </trkpt>
      <trkpt lat="47.42606" lon="2.91268">
        <ele>143.5</ele>
        <time>2019-10-14T06:30:38Z</time>
      </trkpt>
      <trkpt lat="47.42692" lon="2.91321">
        <ele>144</ele>
        <time>2019-10-14T06:31:02Z</time>
      </trkpt>
      <trkpt lat="47.42716" lon="2.91341">
        <ele>143.9</ele>
        <time>2019-10-14T06:31:10Z</time>
      </trkpt>
      <trkpt lat="47.42751" lon="2.91375">
        <ele>144.4</ele>
        <time>2019-10-14T06:31:21Z</time>
      </trkpt>
      <trkpt lat="47.4278" lon="2.91404">
        <ele>143.4</ele>
        <time>2019-10-14T06:31:30Z</time>
      </trkpt>
      <trkpt lat="47.42924" lon="2.91546">
        <ele>143.4</ele>
        <time>2019-10-14T06:32:17Z</time>
      </trkpt>
      <trkpt lat="47.43142" lon="2.9176">
        <ele>143.6</ele>
        <time>2019-10-14T06:33:27Z</time>
      </trkpt>
      <trkpt lat="47.43164" lon="2.91774">
        <ele>144.4</ele>
        <time>2019-10-14T06:33:33Z</time>
      </trkpt>
      <trkpt lat="47.43175" lon="2.91778">
        <ele>145</ele>
        <time>2019-10-14T06:33:36Z</time>
      </trkpt>
      <trkpt lat="47.43326" lon="2.91833">
        <ele>144.7</ele>
        <time>2019-10-14T06:34:18Z</time>
      </trkpt>
      <trkpt lat="47.43359" lon="2.91837">
        <ele>144.6</ele>
        <time>2019-10-14T06:34:26Z</time>
      </trkpt>
      <trkpt lat="47.43494" lon="2.91829">
        <ele>144.3</ele>
        <time>2019-10-14T06:35:02Z</time>
      </trkpt>
      <trkpt lat="47.43633" lon="2.91849">
        <ele>143.8</ele>
        <time>2019-10-14T06:35:40Z</time>
      </trkpt>
      <trkpt lat="47.43701" lon="2.91854">
        <ele>143</ele>
        <time>2019-10-14T06:35:58Z</time>
      </trkpt>
      <trkpt lat="47.43815" lon="2.91853">
        <ele>143</ele>
        <time>2019-10-14T06:36:28Z</time>
      </trkpt>
      <trkpt lat="47.4393" lon="2.91852">
        <ele>143</ele>
        <time>2019-10-14T06:36:59Z</time>
      </trkpt>
      <trkpt lat="47.44075" lon="2.9185">
        <ele>143</ele>
        <time>2019-10-14T06:37:38Z</time>
      </trkpt>
      <trkpt lat="47.44245" lon="2.91846">
        <ele>142.6</ele>
        <time>2019-10-14T06:38:23Z</time>
      </trkpt>
      <trkpt lat="47.44284" lon="2.9184">
        <ele>143.6</ele>
        <time>2019-10-14T06:38:34Z</time>
      </trkpt>
      <trkpt lat="47.44369" lon="2.91827">
        <ele>143</ele>
        <time>2019-10-14T06:38:57Z</time>
      </trkpt>
      <trkpt lat="47.44444" lon="2.91814">
        <ele>143.4</ele>
        <time>2019-10-14T06:39:17Z</time>
      </trkpt>
      <trkpt lat="47.44485" lon="2.91806">
        <ele>144.5</ele>
        <time>2019-10-14T06:39:28Z</time>
      </trkpt>
      <trkpt lat="47.4452" lon="2.91801">
        <ele>143.1</ele>
        <time>2019-10-14T06:39:37Z</time>
      </trkpt>
      <trkpt lat="47.44583" lon="2.91792">
        <ele>142.5</ele>
        <time>2019-10-14T06:39:54Z</time>
      </trkpt>
      <trkpt lat="47.44736" lon="2.91767">
        <ele>141.9</ele>
        <time>2019-10-14T06:40:35Z</time>
      </trkpt>
      <trkpt lat="47.44784" lon="2.91754">
        <ele>143.4</ele>
        <time>2019-10-14T06:40:48Z</time>
      </trkpt>
      <trkpt lat="47.44878" lon="2.91722">
        <ele>144</ele>
        <time>2019-10-14T06:41:14Z</time>
      </trkpt>
      <trkpt lat="47.4496" lon="2.91695">
        <ele>144</ele>
        <time>2019-10-14T06:41:37Z</time>
      </trkpt>
      <trkpt lat="47.45133" lon="2.91635">
        <ele>143.4</ele>
        <time>2019-10-14T06:42:24Z</time>
      </trkpt>
      <trkpt lat="47.45475" lon="2.91521">
        <ele>142.5</ele>
        <time>2019-10-14T06:43:58Z</time>
      </trkpt>
      <trkpt lat="47.45757" lon="2.91428">
        <ele>142.2</ele>
        <time>2019-10-14T06:45:15Z</time>
      </trkpt>
      <trkpt lat="47.45928" lon="2.91342">
        <ele>142.7</ele>
        <time>2019-10-14T06:46:03Z</time>
      </trkpt>
      <trkpt lat="47.45987" lon="2.91306">
        <ele>142.9</ele>
        <time>2019-10-14T06:46:20Z</time>
      </trkpt>
      <trkpt lat="47.46034" lon="2.91262">
        <ele>141.4</ele>
        <time>2019-10-14T06:46:35Z</time>
      </trkpt>
      <trkpt lat="47.46172" lon="2.91124">
        <ele>140.9</ele>
        <time>2019-10-14T06:47:20Z</time>
      </trkpt>
      <trkpt lat="47.46265" lon="2.91024">
        <ele>141.6</ele>
        <time>2019-10-14T06:47:50Z</time>
      </trkpt>
      <trkpt lat="47.46411" lon="2.90878">
        <ele>141.3</ele>
        <time>2019-10-14T06:48:37Z</time>
      </trkpt>
      <trkpt lat="47.46581" lon="2.90703">
        <ele>142.3</ele>
        <time>2019-10-14T06:49:33Z</time>
      </trkpt>
      <trkpt lat="47.4659" lon="2.90696">
        <ele>142.9</ele>
        <time>2019-10-14T06:49:35Z</time>
      </trkpt>
      <trkpt lat="47.46771" lon="2.90661">
        <ele>141.1</ele>
        <time>2019-10-14T06:50:24Z</time>
      </trkpt>
      <trkpt lat="47.46796" lon="2.90648">
        <ele>141.7</ele>
        <time>2019-10-14T06:50:31Z</time>
      </trkpt>
      <trkpt lat="47.4682" lon="2.9063">
        <ele>141.9</ele>
        <time>2019-10-14T06:50:38Z</time>
      </trkpt>
      <trkpt lat="47.46831" lon="2.90622">
        <ele>141.9</ele>
        <time>2019-10-14T06:50:42Z</time>
      </trkpt>
      <trkpt lat="47.46972" lon="2.90532">
        <ele>141.5</ele>
        <time>2019-10-14T06:51:23Z</time>
      </trkpt>
      <trkpt lat="47.47007" lon="2.9049">
        <ele>141</ele>
        <time>2019-10-14T06:51:35Z</time>
      </trkpt>
      <trkpt lat="47.47088" lon="2.90393">
        <ele>141.4</ele>
        <time>2019-10-14T06:52:03Z</time>
      </trkpt>
      <trkpt lat="47.47093" lon="2.90387">
        <ele>141.3</ele>
        <time>2019-10-14T06:52:04Z</time>
      </trkpt>
      <trkpt lat="47.47245" lon="2.90241">
        <ele>141.3</ele>
        <time>2019-10-14T06:52:53Z</time>
      </trkpt>
      <trkpt lat="47.47523" lon="2.89967">
        <ele>140.6</ele>
        <time>2019-10-14T06:54:22Z</time>
      </trkpt>
      <trkpt lat="47.47588" lon="2.89904">
        <ele>140.8</ele>
        <time>2019-10-14T06:54:43Z</time>
      </trkpt>
      <trkpt lat="47.47778" lon="2.89715">
        <ele>140.7</ele>
        <time>2019-10-14T06:55:44Z</time>
      </trkpt>
      <trkpt lat="47.47808" lon="2.89694">
        <ele>141.9</ele>
        <time>2019-10-14T06:55:53Z</time>
      </trkpt>
      <trkpt lat="47.47903" lon="2.89659">
        <ele>140.5</ele>
        <time>2019-10-14T06:56:19Z</time>
      </trkpt>
      <trkpt lat="47.47959" lon="2.89637">
        <ele>138.9</ele>
        <time>2019-10-14T06:56:34Z</time>
      </trkpt>
      <trkpt lat="47.48034" lon="2.89597">
        <ele>138.5</ele>
        <time>2019-10-14T06:56:56Z</time>
      </trkpt>
      <trkpt lat="47.48077" lon="2.89574">
        <ele>138.9</ele>
        <time>2019-10-14T06:57:08Z</time>
      </trkpt>
      <trkpt lat="47.48092" lon="2.89566">
        <ele>138.9</ele>
        <time>2019-10-14T06:57:12Z</time>
      </trkpt>
      <trkpt lat="47.48104" lon="2.89562">
        <ele>138.8</ele>
        <time>2019-10-14T06:57:16Z</time>
      </trkpt>
      <trkpt lat="47.48115" lon="2.89563">
        <ele>138.8</ele>
        <time>2019-10-14T06:57:18Z</time>
      </trkpt>
      <trkpt lat="47.48164" lon="2.89576">
        <ele>138.8</ele>
        <time>2019-10-14T06:57:32Z</time>
      </trkpt>
      <trkpt lat="47.48193" lon="2.89588">
        <ele>138.7</ele>
        <time>2019-10-14T06:57:40Z</time>
      </trkpt>
      <trkpt lat="47.48287" lon="2.8965">
        <ele>137.5</ele>
        <time>2019-10-14T06:58:07Z</time>
      </trkpt>
      <trkpt lat="47.48326" lon="2.89655">
        <ele>137.3</ele>
        <time>2019-10-14T06:58:18Z</time>
      </trkpt>
      <trkpt lat="47.48346" lon="2.89648">
        <ele>137.9</ele>
        <time>2019-10-14T06:58:23Z</time>
      </trkpt>
      <trkpt lat="47.48356" lon="2.89639">
        <ele>139</ele>
        <time>2019-10-14T06:58:26Z</time>
      </trkpt>
      <trkpt lat="47.48361" lon="2.89636">
        <ele>139</ele>
        <time>2019-10-14T06:58:28Z</time>
      </trkpt>
      <trkpt lat="47.48363" lon="2.89641">
        <ele>138.7</ele>
        <time>2019-10-14T06:58:29Z</time>
      </trkpt>
      <trkpt lat="47.48366" lon="2.89642">
        <ele>138.6</ele>
        <time>2019-10-14T06:58:30Z</time>
      </trkpt>
      <trkpt lat="47.48372" lon="2.89641">
        <ele>138.7</ele>
        <time>2019-10-14T06:58:31Z</time>
      </trkpt>
      <trkpt lat="47.48379" lon="2.8964">
        <ele>138.8</ele>
        <time>2019-10-14T06:58:33Z</time>
      </trkpt>
      <trkpt lat="47.48387" lon="2.89637">
        <ele>139</ele>
        <time>2019-10-14T06:58:35Z</time>
      </trkpt>
      <trkpt lat="47.48431" lon="2.89612">
        <ele>138.9</ele>
        <time>2019-10-14T06:58:48Z</time>
      </trkpt>
      <trkpt lat="47.48582" lon="2.89524">
        <ele>138.2</ele>
        <time>2019-10-14T06:59:31Z</time>
      </trkpt>
      <trkpt lat="47.48586" lon="2.89521">
        <ele>138.1</ele>
        <time>2019-10-14T06:59:33Z</time>
      </trkpt>
      <trkpt lat="47.48591" lon="2.89516">
        <ele>138.1</ele>
        <time>2019-10-14T06:59:34Z</time>
      </trkpt>
      <trkpt lat="47.48621" lon="2.89477">
        <ele>138.9</ele>
        <time>2019-10-14T06:59:45Z</time>
      </trkpt>
      <trkpt lat="47.48724" lon="2.89355">
        <ele>139</ele>
        <time>2019-10-14T07:00:20Z</time>
      </trkpt>
      <trkpt lat="47.48767" lon="2.89319">
        <ele>138.4</ele>
        <time>2019-10-14T07:00:33Z</time>
      </trkpt>
      <trkpt lat="47.48841" lon="2.89278">
        <ele>138.7</ele>
        <time>2019-10-14T07:00:54Z</time>
      </trkpt>
      <trkpt lat="47.48848" lon="2.89275">
        <ele>138.5</ele>
        <time>2019-10-14T07:00:56Z</time>
      </trkpt>
      <trkpt lat="47.48855" lon="2.89273">
        <ele>138.4</ele>
        <time>2019-10-14T07:00:58Z</time>
      </trkpt>
      <trkpt lat="47.48907" lon="2.89269">
        <ele>137.8</ele>
        <time>2019-10-14T07:01:12Z</time>
      </trkpt>
      <trkpt lat="47.48915" lon="2.89269">
        <ele>138</ele>
        <time>2019-10-14T07:01:14Z</time>
      </trkpt>
      <trkpt lat="47.48922" lon="2.8927">
        <ele>138.1</ele>
        <time>2019-10-14T07:01:16Z</time>
      </trkpt>
      <trkpt lat="47.48989" lon="2.89284">
        <ele>138.4</ele>
        <time>2019-10-14T07:01:34Z</time>
      </trkpt>
      <trkpt lat="47.48997" lon="2.89283">
        <ele>138.5</ele>
        <time>2019-10-14T07:01:36Z</time>
      </trkpt>
      <trkpt lat="47.49096" lon="2.89263">
        <ele>137.9</ele>
        <time>2019-10-14T07:02:03Z</time>
      </trkpt>
      <trkpt lat="47.49121" lon="2.89251">
        <ele>138.6</ele>
        <time>2019-10-14T07:02:10Z</time>
      </trkpt>
      <trkpt lat="47.4913" lon="2.89246">
        <ele>138.4</ele>
        <time>2019-10-14T07:02:13Z</time>
      </trkpt>
      <trkpt lat="47.49134" lon="2.89243">
        <ele>138.4</ele>
        <time>2019-10-14T07:02:14Z</time>
      </trkpt>
      <trkpt lat="47.49216" lon="2.89158">
        <ele>138.3</ele>
        <time>2019-10-14T07:02:41Z</time>
      </trkpt>
      <trkpt lat="47.49264" lon="2.89104">
        <ele>137.2</ele>
        <time>2019-10-14T07:02:57Z</time>
      </trkpt>
      <trkpt lat="47.49268" lon="2.89101">
        <ele>137.2</ele>
        <time>2019-10-14T07:02:58Z</time>
      </trkpt>
      <trkpt lat="47.49272" lon="2.89097">
        <ele>137.2</ele>
        <time>2019-10-14T07:02:59Z</time>
      </trkpt>
      <trkpt lat="47.49378" lon="2.89028">
        <ele>138.6</ele>
        <time>2019-10-14T07:03:30Z</time>
      </trkpt>
      <trkpt lat="47.49453" lon="2.89003">
        <ele>138.1</ele>
        <time>2019-10-14T07:03:51Z</time>
      </trkpt>
      <trkpt lat="47.495" lon="2.88978">
        <ele>138.6</ele>
        <time>2019-10-14T07:04:04Z</time>
      </trkpt>
      <trkpt lat="47.49502" lon="2.88978">
        <ele>138.5</ele>
        <time>2019-10-14T07:04:05Z</time>
      </trkpt>
      <trkpt lat="47.49562" lon="2.88946">
        <ele>137.7</ele>
        <time>2019-10-14T07:04:22Z</time>
      </trkpt>
      <trkpt lat="47.49566" lon="2.88944">
        <ele>137.6</ele>
        <time>2019-10-14T07:04:23Z</time>
      </trkpt>
      <trkpt lat="47.49567" lon="2.88942">
        <ele>137.7</ele>
        <time>2019-10-14T07:04:23Z</time>
      </trkpt>
      <trkpt lat="47.49568" lon="2.8894">
        <ele>137.7</ele>
        <time>2019-10-14T07:04:24Z</time>
      </trkpt>
      <trkpt lat="47.4957" lon="2.88938">
        <ele>137.7</ele>
        <time>2019-10-14T07:04:24Z</time>
      </trkpt>
      <trkpt lat="47.4957" lon="2.88936">
        <ele>137.8</ele>
        <time>2019-10-14T07:04:25Z</time>
      </trkpt>
      <trkpt lat="47.49571" lon="2.88933">
        <ele>137.9</ele>
        <time>2019-10-14T07:04:25Z</time>
      </trkpt>
      <trkpt lat="47.49571" lon="2.88931">
        <ele>137.9</ele>
        <time>2019-10-14T07:04:26Z</time>
      </trkpt>
      <trkpt lat="47.49572" lon="2.88929">
        <ele>138</ele>
        <time>2019-10-14T07:04:26Z</time>
      </trkpt>
      <trkpt lat="47.49572" lon="2.88926">
        <ele>138.1</ele>
        <time>2019-10-14T07:04:27Z</time>
      </trkpt>
      <trkpt lat="47.49571" lon="2.88923">
        <ele>138.2</ele>
        <time>2019-10-14T07:04:27Z</time>
      </trkpt>
      <trkpt lat="47.49571" lon="2.88921">
        <ele>138.3</ele>
        <time>2019-10-14T07:04:28Z</time>
      </trkpt>
      <trkpt lat="47.4957" lon="2.88918">
        <ele>138.4</ele>
        <time>2019-10-14T07:04:28Z</time>
      </trkpt>
      <trkpt lat="47.49569" lon="2.88916">
        <ele>138.5</ele>
        <time>2019-10-14T07:04:29Z</time>
      </trkpt>
      <trkpt lat="47.49547" lon="2.88865">
        <ele>138.1</ele>
        <time>2019-10-14T07:04:40Z</time>
      </trkpt>
      <trkpt lat="47.49542" lon="2.88854">
        <ele>138</ele>
        <time>2019-10-14T07:04:42Z</time>
      </trkpt>
      <trkpt lat="47.49535" lon="2.88837">
        <ele>138</ele>
        <time>2019-10-14T07:04:46Z</time>
      </trkpt>
      <trkpt lat="47.49898" lon="2.88553">
        <ele>138</ele>
        <time>2019-10-14T07:06:35Z</time>
      </trkpt>
      <trkpt lat="47.49908" lon="2.88545">
        <ele>138</ele>
        <time>2019-10-14T07:06:38Z</time>
      </trkpt>
      <trkpt lat="47.49975" lon="2.88466">
        <ele>138</ele>
        <time>2019-10-14T07:07:01Z</time>
      </trkpt>
      <trkpt lat="47.49977" lon="2.88463">
        <ele>138</ele>
        <time>2019-10-14T07:07:02Z</time>
      </trkpt>
      <trkpt lat="47.49978" lon="2.88459">
        <ele>138</ele>
        <time>2019-10-14T07:07:03Z</time>
      </trkpt>
      <trkpt lat="47.49978" lon="2.88456">
        <ele>138</ele>
        <time>2019-10-14T07:07:03Z</time>
      </trkpt>
      <trkpt lat="47.49978" lon="2.88454">
        <ele>138</ele>
        <time>2019-10-14T07:07:04Z</time>
      </trkpt>
      <trkpt lat="47.49978" lon="2.88452">
        <ele>138</ele>
        <time>2019-10-14T07:07:04Z</time>
      </trkpt>
      <trkpt lat="47.49978" lon="2.8845">
        <ele>138</ele>
        <time>2019-10-14T07:07:04Z</time>
      </trkpt>
      <trkpt lat="47.49977" lon="2.88447">
        <ele>138</ele>
        <time>2019-10-14T07:07:05Z</time>
      </trkpt>
      <trkpt lat="47.49976" lon="2.88445">
        <ele>138</ele>
        <time>2019-10-14T07:07:05Z</time>
      </trkpt>
      <trkpt lat="47.4996" lon="2.88421">
        <ele>137.6</ele>
        <time>2019-10-14T07:07:11Z</time>
      </trkpt>
      <trkpt lat="47.49958" lon="2.88418">
        <ele>137.5</ele>
        <time>2019-10-14T07:07:12Z</time>
      </trkpt>
      <trkpt lat="47.49957" lon="2.88415">
        <ele>137.4</ele>
        <time>2019-10-14T07:07:13Z</time>
      </trkpt>
      <trkpt lat="47.49956" lon="2.88411">
        <ele>137.3</ele>
        <time>2019-10-14T07:07:14Z</time>
      </trkpt>
      <trkpt lat="47.49955" lon="2.88407">
        <ele>137.2</ele>
        <time>2019-10-14T07:07:14Z</time>
      </trkpt>
      <trkpt lat="47.49955" lon="2.88403">
        <ele>137.2</ele>
        <time>2019-10-14T07:07:15Z</time>
      </trkpt>
      <trkpt lat="47.49955" lon="2.88398">
        <ele>137.1</ele>
        <time>2019-10-14T07:07:16Z</time>
      </trkpt>
      <trkpt lat="47.49955" lon="2.88394">
        <ele>137.1</ele>
        <time>2019-10-14T07:07:17Z</time>
      </trkpt>
      <trkpt lat="47.49955" lon="2.8839">
        <ele>137</ele>
        <time>2019-10-14T07:07:17Z</time>
      </trkpt>
      <trkpt lat="47.49955" lon="2.88388">
        <ele>137</ele>
        <time>2019-10-14T07:07:18Z</time>
      </trkpt>
      <trkpt lat="47.49956" lon="2.88386">
        <ele>137</ele>
        <time>2019-10-14T07:07:18Z</time>
      </trkpt>
      <trkpt lat="47.49956" lon="2.88383">
        <ele>137.1</ele>
        <time>2019-10-14T07:07:19Z</time>
      </trkpt>
      <trkpt lat="47.49957" lon="2.8838">
        <ele>137.1</ele>
        <time>2019-10-14T07:07:19Z</time>
      </trkpt>
      <trkpt lat="47.49958" lon="2.88378">
        <ele>137.2</ele>
        <time>2019-10-14T07:07:20Z</time>
      </trkpt>
      <trkpt lat="47.49959" lon="2.88375">
        <ele>137.3</ele>
        <time>2019-10-14T07:07:20Z</time>
      </trkpt>
      <trkpt lat="47.49961" lon="2.88372">
        <ele>137.4</ele>
        <time>2019-10-14T07:07:21Z</time>
      </trkpt>
      <trkpt lat="47.49963" lon="2.88369">
        <ele>137.5</ele>
        <time>2019-10-14T07:07:22Z</time>
      </trkpt>
      <trkpt lat="47.49964" lon="2.88368">
        <ele>137.5</ele>
        <time>2019-10-14T07:07:22Z</time>
      </trkpt>
      <trkpt lat="47.49966" lon="2.88366">
        <ele>137.6</ele>
        <time>2019-10-14T07:07:23Z</time>
      </trkpt>
      <trkpt lat="47.50089" lon="2.88242">
        <ele>137</ele>
        <time>2019-10-14T07:08:03Z</time>
      </trkpt>
      <trkpt lat="47.50137" lon="2.88136">
        <ele>136.8</ele>
        <time>2019-10-14T07:08:26Z</time>
      </trkpt>
      <trkpt lat="47.5017" lon="2.88075">
        <ele>136.7</ele>
        <time>2019-10-14T07:08:40Z</time>
      </trkpt>
      <trkpt lat="47.50216" lon="2.88024">
        <ele>137.4</ele>
        <time>2019-10-14T07:08:55Z</time>
      </trkpt>
      <trkpt lat="47.50261" lon="2.87949">
        <ele>138.2</ele>
        <time>2019-10-14T07:09:13Z</time>
      </trkpt>
      <trkpt lat="47.50274" lon="2.87899">
        <ele>138.4</ele>
        <time>2019-10-14T07:09:23Z</time>
      </trkpt>
      <trkpt lat="47.50284" lon="2.87844">
        <ele>138</ele>
        <time>2019-10-14T07:09:33Z</time>
      </trkpt>
      <trkpt lat="47.50299" lon="2.87754">
        <ele>138.6</ele>
        <time>2019-10-14T07:09:50Z</time>
      </trkpt>
      <trkpt lat="47.50315" lon="2.87642">
        <ele>138.4</ele>
        <time>2019-10-14T07:10:11Z</time>
      </trkpt>
      <trkpt lat="47.50342" lon="2.87466">
        <ele>138.2</ele>
        <time>2019-10-14T07:10:43Z</time>
      </trkpt>
      <trkpt lat="47.5035" lon="2.87418">
        <ele>137.1</ele>
        <time>2019-10-14T07:10:52Z</time>
      </trkpt>
      <trkpt lat="47.50357" lon="2.87376">
        <ele>137.9</ele>
        <time>2019-10-14T07:11:00Z</time>
      </trkpt>
      <trkpt lat="47.50394" lon="2.87205">
        <ele>137.9</ele>
        <time>2019-10-14T07:11:32Z</time>
      </trkpt>
      <trkpt lat="47.50401" lon="2.87181">
        <ele>138.8</ele>
        <time>2019-10-14T07:11:37Z</time>
      </trkpt>
      <trkpt lat="47.50437" lon="2.87084">
        <ele>137.1</ele>
        <time>2019-10-14T07:11:57Z</time>
      </trkpt>
      <trkpt lat="47.50467" lon="2.86995">
        <ele>137</ele>
        <time>2019-10-14T07:12:15Z</time>
      </trkpt>
      <trkpt lat="47.5048" lon="2.86974">
        <ele>137.9</ele>
        <time>2019-10-14T07:12:20Z</time>
      </trkpt>
      <trkpt lat="47.50502" lon="2.86944">
        <ele>137.3</ele>
        <time>2019-10-14T07:12:28Z</time>
      </trkpt>
      <trkpt lat="47.50508" lon="2.86934">
        <ele>137.7</ele>
        <time>2019-10-14T07:12:31Z</time>
      </trkpt>
      <trkpt lat="47.50509" lon="2.86931">
        <ele>137.7</ele>
        <time>2019-10-14T07:12:31Z</time>
      </trkpt>
      <trkpt lat="47.50512" lon="2.86927">
        <ele>137.6</ele>
        <time>2019-10-14T07:12:32Z</time>
      </trkpt>
      <trkpt lat="47.50513" lon="2.86924">
        <ele>137.5</ele>
        <time>2019-10-14T07:12:33Z</time>
      </trkpt>
      <trkpt lat="47.50515" lon="2.86919">
        <ele>137.2</ele>
        <time>2019-10-14T07:12:34Z</time>
      </trkpt>
      <trkpt lat="47.50516" lon="2.86915">
        <ele>137</ele>
        <time>2019-10-14T07:12:35Z</time>
      </trkpt>
      <trkpt lat="47.50517" lon="2.86908">
        <ele>137.1</ele>
        <time>2019-10-14T07:12:36Z</time>
      </trkpt>
      <trkpt lat="47.50612" lon="2.86829">
        <ele>137.9</ele>
        <time>2019-10-14T07:13:05Z</time>
      </trkpt>
      <trkpt lat="47.50672" lon="2.86804">
        <ele>140.7</ele>
        <time>2019-10-14T07:13:22Z</time>
      </trkpt>
      <trkpt lat="47.50762" lon="2.86791">
        <ele>139</ele>
        <time>2019-10-14T07:13:46Z</time>
      </trkpt>
      <trkpt lat="47.5078" lon="2.86772">
        <ele>138.7</ele>
        <time>2019-10-14T07:13:52Z</time>
      </trkpt>
      <trkpt lat="47.50853" lon="2.86763">
        <ele>137.5</ele>
        <time>2019-10-14T07:14:11Z</time>
      </trkpt>
      <trkpt lat="47.5096" lon="2.86786">
        <ele>137.6</ele>
        <time>2019-10-14T07:14:40Z</time>
      </trkpt>
      <trkpt lat="47.50985" lon="2.868">
        <ele>138</ele>
        <time>2019-10-14T07:14:47Z</time>
      </trkpt>
      <trkpt lat="47.5102" lon="2.8683">
        <ele>138.1</ele>
        <time>2019-10-14T07:14:58Z</time>
      </trkpt>
      <trkpt lat="47.51031" lon="2.8684">
        <ele>138.4</ele>
        <time>2019-10-14T07:15:02Z</time>
      </trkpt>
      <trkpt lat="47.51035" lon="2.86847">
        <ele>138.8</ele>
        <time>2019-10-14T07:15:03Z</time>
      </trkpt>
      <trkpt lat="47.51039" lon="2.86855">
        <ele>139</ele>
        <time>2019-10-14T07:15:05Z</time>
      </trkpt>
      <trkpt lat="47.51048" lon="2.86866">
        <ele>139</ele>
        <time>2019-10-14T07:15:08Z</time>
      </trkpt>
      <trkpt lat="47.51055" lon="2.86866">
        <ele>139</ele>
        <time>2019-10-14T07:15:10Z</time>
      </trkpt>
      <trkpt lat="47.51065" lon="2.86861">
        <ele>139.3</ele>
        <time>2019-10-14T07:15:13Z</time>
      </trkpt>
      <trkpt lat="47.51074" lon="2.8685">
        <ele>139.8</ele>
        <time>2019-10-14T07:15:16Z</time>
      </trkpt>
      <trkpt lat="47.51078" lon="2.86844">
        <ele>139.9</ele>
        <time>2019-10-14T07:15:18Z</time>
      </trkpt>
      <trkpt lat="47.51084" lon="2.8683">
        <ele>139.8</ele>
        <time>2019-10-14T07:15:21Z</time>
      </trkpt>
      <trkpt lat="47.51084" lon="2.86826">
        <ele>139.7</ele>
        <time>2019-10-14T07:15:21Z</time>
      </trkpt>
      <trkpt lat="47.5108" lon="2.86812">
        <ele>139.3</ele>
        <time>2019-10-14T07:15:24Z</time>
      </trkpt>
      <trkpt lat="47.51079" lon="2.86786">
        <ele>138.9</ele>
        <time>2019-10-14T07:15:29Z</time>
      </trkpt>
      <trkpt lat="47.51081" lon="2.86772">
        <ele>138.9</ele>
        <time>2019-10-14T07:15:31Z</time>
      </trkpt>
      <trkpt lat="47.51083" lon="2.86761">
        <ele>139</ele>
        <time>2019-10-14T07:15:33Z</time>
      </trkpt>
      <trkpt lat="47.51077" lon="2.86757">
        <ele>138.6</ele>
        <time>2019-10-14T07:15:35Z</time>
      </trkpt>
      <trkpt lat="47.51078" lon="2.86749">
        <ele>138.6</ele>
        <time>2019-10-14T07:15:37Z</time>
      </trkpt>
      <trkpt lat="47.51079" lon="2.8674">
        <ele>138.4</ele>
        <time>2019-10-14T07:15:38Z</time>
      </trkpt>
      <trkpt lat="47.51079" lon="2.86733">
        <ele>138.2</ele>
        <time>2019-10-14T07:15:39Z</time>
      </trkpt>
      <trkpt lat="47.51079" lon="2.86725">
        <ele>137.9</ele>
        <time>2019-10-14T07:15:41Z</time>
      </trkpt>
      <trkpt lat="47.51078" lon="2.86702">
        <ele>137.8</ele>
        <time>2019-10-14T07:15:45Z</time>
      </trkpt>
      <trkpt lat="47.51076" lon="2.86683">
        <ele>137.4</ele>
        <time>2019-10-14T07:15:49Z</time>
      </trkpt>
      <trkpt lat="47.51073" lon="2.86651">
        <ele>137</ele>
        <time>2019-10-14T07:15:54Z</time>
      </trkpt>
      <trkpt lat="47.5107" lon="2.86632">
        <ele>137.1</ele>
        <time>2019-10-14T07:15:58Z</time>
      </trkpt>
      <trkpt lat="47.51061" lon="2.8658">
        <ele>137.1</ele>
        <time>2019-10-14T07:16:08Z</time>
      </trkpt>
      <trkpt lat="47.51011" lon="2.86399">
        <ele>136.4</ele>
        <time>2019-10-14T07:16:43Z</time>
      </trkpt>
      <trkpt lat="47.51002" lon="2.86362">
        <ele>137</ele>
        <time>2019-10-14T07:16:50Z</time>
      </trkpt>
      <trkpt lat="47.50995" lon="2.86319">
        <ele>137</ele>
        <time>2019-10-14T07:16:58Z</time>
      </trkpt>
      <trkpt lat="47.50989" lon="2.86275">
        <ele>137</ele>
        <time>2019-10-14T07:17:06Z</time>
      </trkpt>
      <trkpt lat="47.50984" lon="2.86245">
        <ele>137</ele>
        <time>2019-10-14T07:17:12Z</time>
      </trkpt>
      <trkpt lat="47.50977" lon="2.86216">
        <ele>137</ele>
        <time>2019-10-14T07:17:17Z</time>
      </trkpt>
      <trkpt lat="47.50967" lon="2.86175">
        <ele>137</ele>
        <time>2019-10-14T07:17:25Z</time>
      </trkpt>
      <trkpt lat="47.50918" lon="2.85986">
        <ele>136.5</ele>
        <time>2019-10-14T07:18:02Z</time>
      </trkpt>
      <trkpt lat="47.50779" lon="2.85504">
        <ele>137</ele>
        <time>2019-10-14T07:19:36Z</time>
      </trkpt>
      <trkpt lat="47.50765" lon="2.85442">
        <ele>137</ele>
        <time>2019-10-14T07:19:48Z</time>
      </trkpt>
      <trkpt lat="47.50756" lon="2.85397">
        <ele>137.8</ele>
        <time>2019-10-14T07:19:56Z</time>
      </trkpt>
      <trkpt lat="47.50753" lon="2.85366">
        <ele>138.7</ele>
        <time>2019-10-14T07:20:02Z</time>
      </trkpt>
      <trkpt lat="47.50749" lon="2.85319">
        <ele>139.9</ele>
        <time>2019-10-14T07:20:11Z</time>
      </trkpt>
      <trkpt lat="47.50737" lon="2.85266">
        <ele>140.3</ele>
        <time>2019-10-14T07:20:21Z</time>
      </trkpt>
      <trkpt lat="47.50736" lon="2.85261">
        <ele>140.3</ele>
        <time>2019-10-14T07:20:22Z</time>
      </trkpt>
      <trkpt lat="47.50729" lon="2.85237">
        <ele>140.8</ele>
        <time>2019-10-14T07:20:26Z</time>
      </trkpt>
      <trkpt lat="47.50727" lon="2.85228">
        <ele>141.3</ele>
        <time>2019-10-14T07:20:28Z</time>
      </trkpt>
      <trkpt lat="47.50736" lon="2.85221">
        <ele>141</ele>
        <time>2019-10-14T07:20:31Z</time>
      </trkpt>
      <trkpt lat="47.50741" lon="2.85216">
        <ele>140.6</ele>
        <time>2019-10-14T07:20:32Z</time>
      </trkpt>
      <trkpt lat="47.5075" lon="2.85216">
        <ele>140</ele>
        <time>2019-10-14T07:20:35Z</time>
      </trkpt>
      <trkpt lat="47.50754" lon="2.85209">
        <ele>139.9</ele>
        <time>2019-10-14T07:20:36Z</time>
      </trkpt>
      <trkpt lat="47.50761" lon="2.85209">
        <ele>139.6</ele>
        <time>2019-10-14T07:20:38Z</time>
      </trkpt>
      <trkpt lat="47.50768" lon="2.85198">
        <ele>139.4</ele>
        <time>2019-10-14T07:20:41Z</time>
      </trkpt>
      <trkpt lat="47.50777" lon="2.8519">
        <ele>139</ele>
        <time>2019-10-14T07:20:44Z</time>
      </trkpt>
      <trkpt lat="47.50782" lon="2.85199">
        <ele>139</ele>
        <time>2019-10-14T07:20:46Z</time>
      </trkpt>
      <trkpt lat="47.50871" lon="2.85149">
        <ele>139</ele>
        <time>2019-10-14T07:21:11Z</time>
      </trkpt>
      <trkpt lat="47.50922" lon="2.85115">
        <ele>139</ele>
        <time>2019-10-14T07:21:26Z</time>
      </trkpt>
      <trkpt lat="47.51017" lon="2.85034">
        <ele>139.3</ele>
        <time>2019-10-14T07:21:56Z</time>
      </trkpt>
      <trkpt lat="47.51021" lon="2.85031">
        <ele>139.5</ele>
        <time>2019-10-14T07:21:57Z</time>
      </trkpt>
      <trkpt lat="47.51169" lon="2.84906">
        <ele>138.6</ele>
        <time>2019-10-14T07:22:42Z</time>
      </trkpt>
      <trkpt lat="47.51271" lon="2.84819">
        <ele>139</ele>
        <time>2019-10-14T07:23:14Z</time>
      </trkpt>
      <trkpt lat="47.51287" lon="2.84807">
        <ele>139</ele>
        <time>2019-10-14T07:23:19Z</time>
      </trkpt>
      <trkpt lat="47.51323" lon="2.8478">
        <ele>139</ele>
        <time>2019-10-14T07:23:29Z</time>
      </trkpt>
      <trkpt lat="47.51376" lon="2.84742">
        <ele>138.4</ele>
        <time>2019-10-14T07:23:45Z</time>
      </trkpt>
      <trkpt lat="47.51704" lon="2.84577">
        <ele>139.3</ele>
        <time>2019-10-14T07:25:18Z</time>
      </trkpt>
      <trkpt lat="47.51729" lon="2.84562">
        <ele>140.6</ele>
        <time>2019-10-14T07:25:25Z</time>
      </trkpt>
      <trkpt lat="47.5173" lon="2.84567">
        <ele>140.5</ele>
        <time>2019-10-14T07:25:26Z</time>
      </trkpt>
      <trkpt lat="47.51736" lon="2.84596">
        <ele>139.8</ele>
        <time>2019-10-14T07:25:31Z</time>
      </trkpt>
      <trkpt lat="47.51737" lon="2.846">
        <ele>139.6</ele>
        <time>2019-10-14T07:25:32Z</time>
      </trkpt>
      <trkpt lat="47.51738" lon="2.84606">
        <ele>139.3</ele>
        <time>2019-10-14T07:25:33Z</time>
      </trkpt>
      <trkpt lat="47.51761" lon="2.84713">
        <ele>137.6</ele>
        <time>2019-10-14T07:25:53Z</time>
      </trkpt>
      <trkpt lat="47.51767" lon="2.84739">
        <ele>137.2</ele>
        <time>2019-10-14T07:25:58Z</time>
      </trkpt>
      <trkpt lat="47.51843" lon="2.84909">
        <ele>136.9</ele>
        <time>2019-10-14T07:26:35Z</time>
      </trkpt>
      <trkpt lat="47.51982" lon="2.85311">
        <ele>136</ele>
        <time>2019-10-14T07:27:57Z</time>
      </trkpt>
      <trkpt lat="47.51989" lon="2.85335">
        <ele>136</ele>
        <time>2019-10-14T07:28:01Z</time>
      </trkpt>
      <trkpt lat="47.51993" lon="2.85356">
        <ele>136</ele>
        <time>2019-10-14T07:28:05Z</time>
      </trkpt>
      <trkpt lat="47.51994" lon="2.85372">
        <ele>136</ele>
        <time>2019-10-14T07:28:08Z</time>
      </trkpt>
      <trkpt lat="47.51995" lon="2.85385">
        <ele>136</ele>
        <time>2019-10-14T07:28:11Z</time>
      </trkpt>
      <trkpt lat="47.51995" lon="2.85399">
        <ele>136</ele>
        <time>2019-10-14T07:28:13Z</time>
      </trkpt>
      <trkpt lat="47.51995" lon="2.85408">
        <ele>136</ele>
        <time>2019-10-14T07:28:15Z</time>
      </trkpt>
      <trkpt lat="47.51994" lon="2.85418">
        <ele>136</ele>
        <time>2019-10-14T07:28:17Z</time>
      </trkpt>
      <trkpt lat="47.51994" lon="2.85427">
        <ele>136</ele>
        <time>2019-10-14T07:28:18Z</time>
      </trkpt>
      <trkpt lat="47.51992" lon="2.85438">
        <ele>136</ele>
        <time>2019-10-14T07:28:20Z</time>
      </trkpt>
      <trkpt lat="47.51991" lon="2.85452">
        <ele>136</ele>
        <time>2019-10-14T07:28:23Z</time>
      </trkpt>
      <trkpt lat="47.51991" lon="2.85462">
        <ele>136</ele>
        <time>2019-10-14T07:28:25Z</time>
      </trkpt>
      <trkpt lat="47.5199" lon="2.85472">
        <ele>136</ele>
        <time>2019-10-14T07:28:26Z</time>
      </trkpt>
      <trkpt lat="47.5199" lon="2.85483">
        <ele>136</ele>
        <time>2019-10-14T07:28:28Z</time>
      </trkpt>
      <trkpt lat="47.51992" lon="2.85499">
        <ele>136</ele>
        <time>2019-10-14T07:28:31Z</time>
      </trkpt>
      <trkpt lat="47.51996" lon="2.85526">
        <ele>136.8</ele>
        <time>2019-10-14T07:28:36Z</time>
      </trkpt>
      <trkpt lat="47.52022" lon="2.85632">
        <ele>136</ele>
        <time>2019-10-14T07:28:57Z</time>
      </trkpt>
      <trkpt lat="47.52039" lon="2.85704">
        <ele>136</ele>
        <time>2019-10-14T07:29:10Z</time>
      </trkpt>
      <trkpt lat="47.52045" lon="2.85723">
        <ele>136</ele>
        <time>2019-10-14T07:29:14Z</time>
      </trkpt>
      <trkpt lat="47.52051" lon="2.85738">
        <ele>136</ele>
        <time>2019-10-14T07:29:17Z</time>
      </trkpt>
      <trkpt lat="47.52058" lon="2.85753">
        <ele>136.1</ele>
        <time>2019-10-14T07:29:21Z</time>
      </trkpt>
      <trkpt lat="47.52066" lon="2.85764">
        <ele>136.4</ele>
        <time>2019-10-14T07:29:24Z</time>
      </trkpt>
      <trkpt lat="47.52106" lon="2.85809">
        <ele>136.9</ele>
        <time>2019-10-14T07:29:37Z</time>
      </trkpt>
      <trkpt lat="47.52116" lon="2.85825">
        <ele>136.4</ele>
        <time>2019-10-14T07:29:41Z</time>
      </trkpt>
      <trkpt lat="47.52124" lon="2.85845">
        <ele>136.7</ele>
        <time>2019-10-14T07:29:45Z</time>
      </trkpt>
      <trkpt lat="47.52131" lon="2.85864">
        <ele>137</ele>
        <time>2019-10-14T07:29:49Z</time>
      </trkpt>
      <trkpt lat="47.52136" lon="2.85882">
        <ele>137</ele>
        <time>2019-10-14T07:29:53Z</time>
      </trkpt>
      <trkpt lat="47.52144" lon="2.85901">
        <ele>136.5</ele>
        <time>2019-10-14T07:29:57Z</time>
      </trkpt>
      <trkpt lat="47.52154" lon="2.85914">
        <ele>136</ele>
        <time>2019-10-14T07:30:00Z</time>
      </trkpt>
      <trkpt lat="47.52165" lon="2.8593">
        <ele>136</ele>
        <time>2019-10-14T07:30:04Z</time>
      </trkpt>
      <trkpt lat="47.52171" lon="2.85945">
        <ele>136</ele>
        <time>2019-10-14T07:30:07Z</time>
      </trkpt>
      <trkpt lat="47.52219" lon="2.86086">
        <ele>136.9</ele>
        <time>2019-10-14T07:30:36Z</time>
      </trkpt>
      <trkpt lat="47.52236" lon="2.86148">
        <ele>136</ele>
        <time>2019-10-14T07:30:48Z</time>
      </trkpt>
      <trkpt lat="47.52249" lon="2.86162">
        <ele>136.8</ele>
        <time>2019-10-14T07:30:52Z</time>
      </trkpt>
      <trkpt lat="47.52261" lon="2.86169">
        <ele>136.8</ele>
        <time>2019-10-14T07:30:56Z</time>
      </trkpt>
      <trkpt lat="47.52275" lon="2.86172">
        <ele>136.4</ele>
        <time>2019-10-14T07:30:59Z</time>
      </trkpt>
      <trkpt lat="47.52297" lon="2.86165">
        <ele>137</ele>
        <time>2019-10-14T07:31:06Z</time>
      </trkpt>
      <trkpt lat="47.52316" lon="2.86162">
        <ele>136.9</ele>
        <time>2019-10-14T07:31:11Z</time>
      </trkpt>
      <trkpt lat="47.52334" lon="2.86163">
        <ele>136.9</ele>
        <time>2019-10-14T07:31:15Z</time>
      </trkpt>
      <trkpt lat="47.52353" lon="2.86166">
        <ele>137</ele>
        <time>2019-10-14T07:31:21Z</time>
      </trkpt>
      <trkpt lat="47.52371" lon="2.86173">
        <ele>136.1</ele>
        <time>2019-10-14T07:31:25Z</time>
      </trkpt>
      <trkpt lat="47.5241" lon="2.86179">
        <ele>135.6</ele>
        <time>2019-10-14T07:31:36Z</time>
      </trkpt>
      <trkpt lat="47.52459" lon="2.86193">
        <ele>136</ele>
        <time>2019-10-14T07:31:49Z</time>
      </trkpt>
      <trkpt lat="47.52463" lon="2.86193">
        <ele>136</ele>
        <time>2019-10-14T07:31:50Z</time>
      </trkpt>
      <trkpt lat="47.52467" lon="2.86193">
        <ele>136</ele>
        <time>2019-10-14T07:31:51Z</time>
      </trkpt>
      <trkpt lat="47.52469" lon="2.86193">
        <ele>136</ele>
        <time>2019-10-14T07:31:52Z</time>
      </trkpt>
      <trkpt lat="47.52474" lon="2.86193">
        <ele>136</ele>
        <time>2019-10-14T07:31:53Z</time>
      </trkpt>
      <trkpt lat="47.52478" lon="2.86193">
        <ele>136</ele>
        <time>2019-10-14T07:31:54Z</time>
      </trkpt>
      <trkpt lat="47.52481" lon="2.86193">
        <ele>136</ele>
        <time>2019-10-14T07:31:55Z</time>
      </trkpt>
      <trkpt lat="47.52484" lon="2.86192">
        <ele>136</ele>
        <time>2019-10-14T07:31:56Z</time>
      </trkpt>
      <trkpt lat="47.52489" lon="2.86192">
        <ele>136</ele>
        <time>2019-10-14T07:31:57Z</time>
      </trkpt>
      <trkpt lat="47.52492" lon="2.86192">
        <ele>136</ele>
        <time>2019-10-14T07:31:58Z</time>
      </trkpt>
      <trkpt lat="47.52497" lon="2.86191">
        <ele>136</ele>
        <time>2019-10-14T07:31:59Z</time>
      </trkpt>
      <trkpt lat="47.52502" lon="2.8619">
        <ele>135.9</ele>
        <time>2019-10-14T07:32:01Z</time>
      </trkpt>
      <trkpt lat="47.52507" lon="2.8619">
        <ele>135.8</ele>
        <time>2019-10-14T07:32:02Z</time>
      </trkpt>
      <trkpt lat="47.52511" lon="2.86189">
        <ele>135.7</ele>
        <time>2019-10-14T07:32:03Z</time>
      </trkpt>
      <trkpt lat="47.52516" lon="2.86188">
        <ele>135.6</ele>
        <time>2019-10-14T07:32:05Z</time>
      </trkpt>
      <trkpt lat="47.52521" lon="2.86187">
        <ele>135.4</ele>
        <time>2019-10-14T07:32:06Z</time>
      </trkpt>
      <trkpt lat="47.52525" lon="2.86185">
        <ele>135.4</ele>
        <time>2019-10-14T07:32:07Z</time>
      </trkpt>
      <trkpt lat="47.5253" lon="2.86184">
        <ele>135.4</ele>
        <time>2019-10-14T07:32:08Z</time>
      </trkpt>
      <trkpt lat="47.52535" lon="2.86183">
        <ele>135.4</ele>
        <time>2019-10-14T07:32:10Z</time>
      </trkpt>
      <trkpt lat="47.52538" lon="2.86182">
        <ele>135.4</ele>
        <time>2019-10-14T07:32:11Z</time>
      </trkpt>
      <trkpt lat="47.52542" lon="2.86181">
        <ele>135.5</ele>
        <time>2019-10-14T07:32:12Z</time>
      </trkpt>
      <trkpt lat="47.52544" lon="2.8618">
        <ele>135.5</ele>
        <time>2019-10-14T07:32:12Z</time>
      </trkpt>
      <trkpt lat="47.52547" lon="2.86178">
        <ele>135.6</ele>
        <time>2019-10-14T07:32:13Z</time>
      </trkpt>
      <trkpt lat="47.52551" lon="2.86177">
        <ele>135.6</ele>
        <time>2019-10-14T07:32:14Z</time>
      </trkpt>
      <trkpt lat="47.52554" lon="2.86176">
        <ele>135.7</ele>
        <time>2019-10-14T07:32:15Z</time>
      </trkpt>
      <trkpt lat="47.52558" lon="2.86174">
        <ele>135.7</ele>
        <time>2019-10-14T07:32:16Z</time>
      </trkpt>
      <trkpt lat="47.52561" lon="2.86173">
        <ele>135.7</ele>
        <time>2019-10-14T07:32:17Z</time>
      </trkpt>
      <trkpt lat="47.52565" lon="2.86171">
        <ele>135.8</ele>
        <time>2019-10-14T07:32:18Z</time>
      </trkpt>
      <trkpt lat="47.52573" lon="2.86167">
        <ele>136</ele>
        <time>2019-10-14T07:32:20Z</time>
      </trkpt>
      <trkpt lat="47.52577" lon="2.86165">
        <ele>136</ele>
        <time>2019-10-14T07:32:21Z</time>
      </trkpt>
      <trkpt lat="47.5258" lon="2.86163">
        <ele>136</ele>
        <time>2019-10-14T07:32:22Z</time>
      </trkpt>
      <trkpt lat="47.52584" lon="2.86161">
        <ele>136</ele>
        <time>2019-10-14T07:32:24Z</time>
      </trkpt>
      <trkpt lat="47.52588" lon="2.86159">
        <ele>135.8</ele>
        <time>2019-10-14T07:32:25Z</time>
      </trkpt>
      <trkpt lat="47.52591" lon="2.86157">
        <ele>135.6</ele>
        <time>2019-10-14T07:32:26Z</time>
      </trkpt>
      <trkpt lat="47.52595" lon="2.86154">
        <ele>135.5</ele>
        <time>2019-10-14T07:32:27Z</time>
      </trkpt>
      <trkpt lat="47.52599" lon="2.86152">
        <ele>135.5</ele>
        <time>2019-10-14T07:32:28Z</time>
      </trkpt>
      <trkpt lat="47.52602" lon="2.8615">
        <ele>135.5</ele>
        <time>2019-10-14T07:32:29Z</time>
      </trkpt>
      <trkpt lat="47.52606" lon="2.86147">
        <ele>135.5</ele>
        <time>2019-10-14T07:32:30Z</time>
      </trkpt>
      <trkpt lat="47.5261" lon="2.86144">
        <ele>135.6</ele>
        <time>2019-10-14T07:32:31Z</time>
      </trkpt>
      <trkpt lat="47.52612" lon="2.86143">
        <ele>135.6</ele>
        <time>2019-10-14T07:32:32Z</time>
      </trkpt>
      <trkpt lat="47.52614" lon="2.86141">
        <ele>135.6</ele>
        <time>2019-10-14T07:32:32Z</time>
      </trkpt>
      <trkpt lat="47.52617" lon="2.86139">
        <ele>135.4</ele>
        <time>2019-10-14T07:32:33Z</time>
      </trkpt>
      <trkpt lat="47.52619" lon="2.86138">
        <ele>135.2</ele>
        <time>2019-10-14T07:32:34Z</time>
      </trkpt>
      <trkpt lat="47.52621" lon="2.86136">
        <ele>135</ele>
        <time>2019-10-14T07:32:34Z</time>
      </trkpt>
      <trkpt lat="47.52623" lon="2.86134">
        <ele>134.9</ele>
        <time>2019-10-14T07:32:35Z</time>
      </trkpt>
      <trkpt lat="47.52626" lon="2.86132">
        <ele>134.8</ele>
        <time>2019-10-14T07:32:36Z</time>
      </trkpt>
      <trkpt lat="47.52629" lon="2.86129">
        <ele>134.8</ele>
        <time>2019-10-14T07:32:37Z</time>
      </trkpt>
      <trkpt lat="47.52633" lon="2.86125">
        <ele>134.8</ele>
        <time>2019-10-14T07:32:38Z</time>
      </trkpt>
      <trkpt lat="47.52646" lon="2.86111">
        <ele>135.2</ele>
        <time>2019-10-14T07:32:42Z</time>
      </trkpt>
      <trkpt lat="47.52666" lon="2.86087">
        <ele>135.6</ele>
        <time>2019-10-14T07:32:49Z</time>
      </trkpt>
      <trkpt lat="47.52671" lon="2.86079">
        <ele>135.6</ele>
        <time>2019-10-14T07:32:51Z</time>
      </trkpt>
      <trkpt lat="47.52674" lon="2.86075">
        <ele>135.4</ele>
        <time>2019-10-14T07:32:52Z</time>
      </trkpt>
      <trkpt lat="47.52693" lon="2.86048">
        <ele>135.3</ele>
        <time>2019-10-14T07:32:59Z</time>
      </trkpt>
      <trkpt lat="47.5271" lon="2.86026">
        <ele>134.4</ele>
        <time>2019-10-14T07:33:05Z</time>
      </trkpt>
      <trkpt lat="47.52724" lon="2.86005">
        <ele>135.2</ele>
        <time>2019-10-14T07:33:11Z</time>
      </trkpt>
      <trkpt lat="47.52744" lon="2.85965">
        <ele>134.8</ele>
        <time>2019-10-14T07:33:20Z</time>
      </trkpt>
      <trkpt lat="47.52765" lon="2.85923">
        <ele>134.7</ele>
        <time>2019-10-14T07:33:29Z</time>
      </trkpt>
      <trkpt lat="47.52789" lon="2.85888">
        <ele>134.4</ele>
        <time>2019-10-14T07:33:38Z</time>
      </trkpt>
      <trkpt lat="47.52823" lon="2.85819">
        <ele>134.8</ele>
        <time>2019-10-14T07:33:54Z</time>
      </trkpt>
      <trkpt lat="47.52842" lon="2.85782">
        <ele>135</ele>
        <time>2019-10-14T07:34:02Z</time>
      </trkpt>
      <trkpt lat="47.52863" lon="2.85746">
        <ele>135.7</ele>
        <time>2019-10-14T07:34:11Z</time>
      </trkpt>
      <trkpt lat="47.52903" lon="2.85678">
        <ele>134.6</ele>
        <time>2019-10-14T07:34:27Z</time>
      </trkpt>
      <trkpt lat="47.52916" lon="2.85642">
        <ele>135.8</ele>
        <time>2019-10-14T07:34:34Z</time>
      </trkpt>
      <trkpt lat="47.52931" lon="2.85599">
        <ele>135.1</ele>
        <time>2019-10-14T07:34:43Z</time>
      </trkpt>
      <trkpt lat="47.52957" lon="2.85546">
        <ele>135.1</ele>
        <time>2019-10-14T07:34:55Z</time>
      </trkpt>
      <trkpt lat="47.52982" lon="2.85491">
        <ele>134.9</ele>
        <time>2019-10-14T07:35:07Z</time>
      </trkpt>
      <trkpt lat="47.53007" lon="2.8545">
        <ele>135</ele>
        <time>2019-10-14T07:35:17Z</time>
      </trkpt>
      <trkpt lat="47.53034" lon="2.85412">
        <ele>135.2</ele>
        <time>2019-10-14T07:35:27Z</time>
      </trkpt>
      <trkpt lat="47.53055" lon="2.8538">
        <ele>135.3</ele>
        <time>2019-10-14T07:35:35Z</time>
      </trkpt>
      <trkpt lat="47.5308" lon="2.85356">
        <ele>134.6</ele>
        <time>2019-10-14T07:35:43Z</time>
      </trkpt>
      <trkpt lat="47.5313" lon="2.85289">
        <ele>134.5</ele>
        <time>2019-10-14T07:36:01Z</time>
      </trkpt>
      <trkpt lat="47.53163" lon="2.85242">
        <ele>135.4</ele>
        <time>2019-10-14T07:36:13Z</time>
      </trkpt>
      <trkpt lat="47.53198" lon="2.85199">
        <ele>135.3</ele>
        <time>2019-10-14T07:36:25Z</time>
      </trkpt>
      <trkpt lat="47.53231" lon="2.85164">
        <ele>134.9</ele>
        <time>2019-10-14T07:36:36Z</time>
      </trkpt>
      <trkpt lat="47.53272" lon="2.85107">
        <ele>134.7</ele>
        <time>2019-10-14T07:36:51Z</time>
      </trkpt>
      <trkpt lat="47.53321" lon="2.8504">
        <ele>134.7</ele>
        <time>2019-10-14T07:37:09Z</time>
      </trkpt>
      <trkpt lat="47.53364" lon="2.84971">
        <ele>135.6</ele>
        <time>2019-10-14T07:37:26Z</time>
      </trkpt>
      <trkpt lat="47.53393" lon="2.84927">
        <ele>135.2</ele>
        <time>2019-10-14T07:37:37Z</time>
      </trkpt>
      <trkpt lat="47.53424" lon="2.84884">
        <ele>135</ele>
        <time>2019-10-14T07:37:48Z</time>
      </trkpt>
      <trkpt lat="47.53446" lon="2.84845">
        <ele>135</ele>
        <time>2019-10-14T07:37:57Z</time>
      </trkpt>
      <trkpt lat="47.53461" lon="2.84814">
        <ele>135.3</ele>
        <time>2019-10-14T07:38:04Z</time>
      </trkpt>
      <trkpt lat="47.53481" lon="2.84785">
        <ele>135.7</ele>
        <time>2019-10-14T07:38:12Z</time>
      </trkpt>
      <trkpt lat="47.53484" lon="2.84781">
        <ele>135.8</ele>
        <time>2019-10-14T07:38:13Z</time>
      </trkpt>
      <trkpt lat="47.53485" lon="2.84775">
        <ele>135.9</ele>
        <time>2019-10-14T07:38:14Z</time>
      </trkpt>
      <trkpt lat="47.53485" lon="2.8477">
        <ele>135.8</ele>
        <time>2019-10-14T07:38:15Z</time>
      </trkpt>
      <trkpt lat="47.53484" lon="2.84762">
        <ele>135.7</ele>
        <time>2019-10-14T07:38:16Z</time>
      </trkpt>
      <trkpt lat="47.53482" lon="2.84756">
        <ele>135.5</ele>
        <time>2019-10-14T07:38:17Z</time>
      </trkpt>
      <trkpt lat="47.5348" lon="2.84751">
        <ele>135.3</ele>
        <time>2019-10-14T07:38:18Z</time>
      </trkpt>
      <trkpt lat="47.53469" lon="2.84739">
        <ele>135</ele>
        <time>2019-10-14T07:38:22Z</time>
      </trkpt>
      <trkpt lat="47.53448" lon="2.84715">
        <ele>135</ele>
        <time>2019-10-14T07:38:29Z</time>
      </trkpt>
      <trkpt lat="47.53425" lon="2.84697">
        <ele>135.6</ele>
        <time>2019-10-14T07:38:36Z</time>
      </trkpt>
      <trkpt lat="47.53423" lon="2.84696">
        <ele>135.7</ele>
        <time>2019-10-14T07:38:37Z</time>
      </trkpt>
      <trkpt lat="47.53421" lon="2.84695">
        <ele>135.8</ele>
        <time>2019-10-14T07:38:37Z</time>
      </trkpt>
      <trkpt lat="47.53419" lon="2.84693">
        <ele>135.9</ele>
        <time>2019-10-14T07:38:38Z</time>
      </trkpt>
      <trkpt lat="47.53418" lon="2.8469">
        <ele>136</ele>
        <time>2019-10-14T07:38:39Z</time>
      </trkpt>
      <trkpt lat="47.53417" lon="2.84687">
        <ele>136</ele>
        <time>2019-10-14T07:38:39Z</time>
      </trkpt>
      <trkpt lat="47.53416" lon="2.84683">
        <ele>136</ele>
        <time>2019-10-14T07:38:40Z</time>
      </trkpt>
      <trkpt lat="47.53416" lon="2.8468">
        <ele>136</ele>
        <time>2019-10-14T07:38:40Z</time>
      </trkpt>
      <trkpt lat="47.53416" lon="2.84677">
        <ele>136</ele>
        <time>2019-10-14T07:38:41Z</time>
      </trkpt>
      <trkpt lat="47.53416" lon="2.84675">
        <ele>136</ele>
        <time>2019-10-14T07:38:41Z</time>
      </trkpt>
      <trkpt lat="47.53417" lon="2.84672">
        <ele>136</ele>
        <time>2019-10-14T07:38:42Z</time>
      </trkpt>
      <trkpt lat="47.53418" lon="2.84671">
        <ele>136</ele>
        <time>2019-10-14T07:38:42Z</time>
      </trkpt>
      <trkpt lat="47.53419" lon="2.84668">
        <ele>136</ele>
        <time>2019-10-14T07:38:43Z</time>
      </trkpt>
      <trkpt lat="47.53421" lon="2.84666">
        <ele>136</ele>
        <time>2019-10-14T07:38:44Z</time>
      </trkpt>
      <trkpt lat="47.53425" lon="2.84663">
        <ele>136</ele>
        <time>2019-10-14T07:38:45Z</time>
      </trkpt>
      <trkpt lat="47.53433" lon="2.84658">
        <ele>136</ele>
        <time>2019-10-14T07:38:47Z</time>
      </trkpt>
      <trkpt lat="47.53439" lon="2.84653">
        <ele>136</ele>
        <time>2019-10-14T07:38:49Z</time>
      </trkpt>
      <trkpt lat="47.53445" lon="2.84648">
        <ele>136</ele>
        <time>2019-10-14T07:38:51Z</time>
      </trkpt>
      <trkpt lat="47.53455" lon="2.84639">
        <ele>135.6</ele>
        <time>2019-10-14T07:38:54Z</time>
      </trkpt>
      <trkpt lat="47.53463" lon="2.84629">
        <ele>135.6</ele>
        <time>2019-10-14T07:38:57Z</time>
      </trkpt>
      <trkpt lat="47.53498" lon="2.84582">
        <ele>135.9</ele>
        <time>2019-10-14T07:39:09Z</time>
      </trkpt>
      <trkpt lat="47.53531" lon="2.84529">
        <ele>135</ele>
        <time>2019-10-14T07:39:22Z</time>
      </trkpt>
      <trkpt lat="47.53536" lon="2.84523">
        <ele>135</ele>
        <time>2019-10-14T07:39:24Z</time>
      </trkpt>
      <trkpt lat="47.53541" lon="2.84519">
        <ele>135</ele>
        <time>2019-10-14T07:39:25Z</time>
      </trkpt>
      <trkpt lat="47.53558" lon="2.84507">
        <ele>134.9</ele>
        <time>2019-10-14T07:39:31Z</time>
      </trkpt>
      <trkpt lat="47.53562" lon="2.84503">
        <ele>134.8</ele>
        <time>2019-10-14T07:39:32Z</time>
      </trkpt>
      <trkpt lat="47.53566" lon="2.84498">
        <ele>134.7</ele>
        <time>2019-10-14T07:39:33Z</time>
      </trkpt>
      <trkpt lat="47.53572" lon="2.84488">
        <ele>134.7</ele>
        <time>2019-10-14T07:39:36Z</time>
      </trkpt>
      <trkpt lat="47.53576" lon="2.8448">
        <ele>134.8</ele>
        <time>2019-10-14T07:39:37Z</time>
      </trkpt>
      <trkpt lat="47.53583" lon="2.84468">
        <ele>135</ele>
        <time>2019-10-14T07:39:40Z</time>
      </trkpt>
      <trkpt lat="47.5359" lon="2.84459">
        <ele>134.9</ele>
        <time>2019-10-14T07:39:43Z</time>
      </trkpt>
      <trkpt lat="47.536" lon="2.84449">
        <ele>134.9</ele>
        <time>2019-10-14T07:39:46Z</time>
      </trkpt>
      <trkpt lat="47.53616" lon="2.84439">
        <ele>135</ele>
        <time>2019-10-14T07:39:51Z</time>
      </trkpt>
      <trkpt lat="47.53633" lon="2.84432">
        <ele>135</ele>
        <time>2019-10-14T07:39:55Z</time>
      </trkpt>
      <trkpt lat="47.53642" lon="2.84429">
        <ele>135</ele>
        <time>2019-10-14T07:39:58Z</time>
      </trkpt>
      <trkpt lat="47.53667" lon="2.84427">
        <ele>135</ele>
        <time>2019-10-14T07:40:04Z</time>
      </trkpt>
      <trkpt lat="47.53676" lon="2.84425">
        <ele>134.9</ele>
        <time>2019-10-14T07:40:07Z</time>
      </trkpt>
      <trkpt lat="47.53688" lon="2.8442">
        <ele>134.9</ele>
        <time>2019-10-14T07:40:10Z</time>
      </trkpt>
      <trkpt lat="47.53734" lon="2.84383">
        <ele>135</ele>
        <time>2019-10-14T07:40:24Z</time>
      </trkpt>
      <trkpt lat="47.53745" lon="2.84376">
        <ele>135</ele>
        <time>2019-10-14T07:40:27Z</time>
      </trkpt>
      <trkpt lat="47.53758" lon="2.84371">
        <ele>134.8</ele>
        <time>2019-10-14T07:40:31Z</time>
      </trkpt>
      <trkpt lat="47.53772" lon="2.84365">
        <ele>134.8</ele>
        <time>2019-10-14T07:40:35Z</time>
      </trkpt>
      <trkpt lat="47.53778" lon="2.8436">
        <ele>135</ele>
        <time>2019-10-14T07:40:37Z</time>
      </trkpt>
      <trkpt lat="47.53782" lon="2.84356">
        <ele>134.9</ele>
        <time>2019-10-14T07:40:38Z</time>
      </trkpt>
      <trkpt lat="47.53785" lon="2.84353">
        <ele>134.8</ele>
        <time>2019-10-14T07:40:39Z</time>
      </trkpt>
      <trkpt lat="47.53811" lon="2.84316">
        <ele>134.9</ele>
        <time>2019-10-14T07:40:49Z</time>
      </trkpt>
      <trkpt lat="47.53821" lon="2.84306">
        <ele>135</ele>
        <time>2019-10-14T07:40:52Z</time>
      </trkpt>
      <trkpt lat="47.53863" lon="2.84275">
        <ele>134.9</ele>
        <time>2019-10-14T07:41:04Z</time>
      </trkpt>
      <trkpt lat="47.53988" lon="2.84166">
        <ele>134.4</ele>
        <time>2019-10-14T07:41:43Z</time>
      </trkpt>
      <trkpt lat="47.54021" lon="2.84136">
        <ele>133.6</ele>
        <time>2019-10-14T07:41:54Z</time>
      </trkpt>
      <trkpt lat="47.5405" lon="2.84104">
        <ele>133.3</ele>
        <time>2019-10-14T07:42:03Z</time>
      </trkpt>
      <trkpt lat="47.5413" lon="2.83996">
        <ele>133.8</ele>
        <time>2019-10-14T07:42:32Z</time>
      </trkpt>
      <trkpt lat="47.5415" lon="2.83968">
        <ele>134</ele>
        <time>2019-10-14T07:42:39Z</time>
      </trkpt>
      <trkpt lat="47.54171" lon="2.83946">
        <ele>134.4</ele>
        <time>2019-10-14T07:42:46Z</time>
      </trkpt>
      <trkpt lat="47.54205" lon="2.83906">
        <ele>134.1</ele>
        <time>2019-10-14T07:42:58Z</time>
      </trkpt>
      <trkpt lat="47.54235" lon="2.83873">
        <ele>133.9</ele>
        <time>2019-10-14T07:43:08Z</time>
      </trkpt>
      <trkpt lat="47.54244" lon="2.83861">
        <ele>134.2</ele>
        <time>2019-10-14T07:43:11Z</time>
      </trkpt>
      <trkpt lat="47.54252" lon="2.83847">
        <ele>134.4</ele>
        <time>2019-10-14T07:43:14Z</time>
      </trkpt>
      <trkpt lat="47.54259" lon="2.83833">
        <ele>134.4</ele>
        <time>2019-10-14T07:43:18Z</time>
      </trkpt>
      <trkpt lat="47.54261" lon="2.83819">
        <ele>134.6</ele>
        <time>2019-10-14T07:43:20Z</time>
      </trkpt>
      <trkpt lat="47.54266" lon="2.83792">
        <ele>134.7</ele>
        <time>2019-10-14T07:43:25Z</time>
      </trkpt>
      <trkpt lat="47.54271" lon="2.83776">
        <ele>134.3</ele>
        <time>2019-10-14T07:43:28Z</time>
      </trkpt>
      <trkpt lat="47.54277" lon="2.83761">
        <ele>134.6</ele>
        <time>2019-10-14T07:43:32Z</time>
      </trkpt>
      <trkpt lat="47.54286" lon="2.83745">
        <ele>135</ele>
        <time>2019-10-14T07:43:35Z</time>
      </trkpt>
      <trkpt lat="47.54302" lon="2.83721">
        <ele>135</ele>
        <time>2019-10-14T07:43:41Z</time>
      </trkpt>
      <trkpt lat="47.54329" lon="2.83684">
        <ele>135</ele>
        <time>2019-10-14T07:43:51Z</time>
      </trkpt>
      <trkpt lat="47.54385" lon="2.83613">
        <ele>135</ele>
        <time>2019-10-14T07:44:11Z</time>
      </trkpt>
      <trkpt lat="47.54399" lon="2.83601">
        <ele>135</ele>
        <time>2019-10-14T07:44:15Z</time>
      </trkpt>
      <trkpt lat="47.54423" lon="2.83585">
        <ele>135.2</ele>
        <time>2019-10-14T07:44:22Z</time>
      </trkpt>
      <trkpt lat="47.54447" lon="2.83572">
        <ele>135.9</ele>
        <time>2019-10-14T07:44:29Z</time>
      </trkpt>
      <trkpt lat="47.54476" lon="2.8356">
        <ele>135.7</ele>
        <time>2019-10-14T07:44:37Z</time>
      </trkpt>
      <trkpt lat="47.54507" lon="2.83548">
        <ele>135.3</ele>
        <time>2019-10-14T07:44:46Z</time>
      </trkpt>
      <trkpt lat="47.54522" lon="2.83543">
        <ele>135.5</ele>
        <time>2019-10-14T07:44:50Z</time>
      </trkpt>
      <trkpt lat="47.54528" lon="2.8354">
        <ele>135.6</ele>
        <time>2019-10-14T07:44:51Z</time>
      </trkpt>
      <trkpt lat="47.5455" lon="2.83527">
        <ele>135.2</ele>
        <time>2019-10-14T07:44:58Z</time>
      </trkpt>
      <trkpt lat="47.54586" lon="2.835">
        <ele>135</ele>
        <time>2019-10-14T07:45:09Z</time>
      </trkpt>
      <trkpt lat="47.5465" lon="2.83445">
        <ele>135</ele>
        <time>2019-10-14T07:45:28Z</time>
      </trkpt>
      <trkpt lat="47.54658" lon="2.83438">
        <ele>135</ele>
        <time>2019-10-14T07:45:31Z</time>
      </trkpt>
      <trkpt lat="47.54676" lon="2.83418">
        <ele>135</ele>
        <time>2019-10-14T07:45:37Z</time>
      </trkpt>
      <trkpt lat="47.54694" lon="2.83395">
        <ele>135</ele>
        <time>2019-10-14T07:45:43Z</time>
      </trkpt>
      <trkpt lat="47.54727" lon="2.83351">
        <ele>135</ele>
        <time>2019-10-14T07:45:55Z</time>
      </trkpt>
      <trkpt lat="47.54747" lon="2.8333">
        <ele>135</ele>
        <time>2019-10-14T07:46:02Z</time>
      </trkpt>
      <trkpt lat="47.54766" lon="2.83311">
        <ele>135</ele>
        <time>2019-10-14T07:46:08Z</time>
      </trkpt>
      <trkpt lat="47.54811" lon="2.83273">
        <ele>135</ele>
        <time>2019-10-14T07:46:22Z</time>
      </trkpt>
      <trkpt lat="47.5486" lon="2.83222">
        <ele>135</ele>
        <time>2019-10-14T07:46:38Z</time>
      </trkpt>
      <trkpt lat="47.54888" lon="2.83184">
        <ele>135</ele>
        <time>2019-10-14T07:46:48Z</time>
      </trkpt>
      <trkpt lat="47.54913" lon="2.83141">
        <ele>135</ele>
        <time>2019-10-14T07:46:58Z</time>
      </trkpt>
      <trkpt lat="47.54922" lon="2.83129">
        <ele>135</ele>
        <time>2019-10-14T07:47:01Z</time>
      </trkpt>
      <trkpt lat="47.54972" lon="2.83295">
        <ele>135.8</ele>
        <time>2019-10-14T07:47:34Z</time>
      </trkpt>
      <trkpt lat="47.551" lon="2.83734">
        <ele>134.8</ele>
        <time>2019-10-14T07:49:00Z</time>
      </trkpt>
      <trkpt lat="47.55149" lon="2.83918">
        <ele>134.4</ele>
        <time>2019-10-14T07:49:36Z</time>
      </trkpt>
      <trkpt lat="47.55156" lon="2.8394">
        <ele>134.6</ele>
        <time>2019-10-14T07:49:40Z</time>
      </trkpt>
      <trkpt lat="47.55162" lon="2.83934">
        <ele>134.8</ele>
        <time>2019-10-14T07:49:42Z</time>
      </trkpt>
      <trkpt lat="47.55167" lon="2.83929">
        <ele>135</ele>
        <time>2019-10-14T07:49:44Z</time>
      </trkpt>
      <trkpt lat="47.55173" lon="2.83943">
        <ele>134.8</ele>
        <time>2019-10-14T07:49:47Z</time>
      </trkpt>
      <trkpt lat="47.55179" lon="2.83961">
        <ele>134.6</ele>
        <time>2019-10-14T07:49:50Z</time>
      </trkpt>
      <trkpt lat="47.55186" lon="2.83979">
        <ele>134.2</ele>
        <time>2019-10-14T07:49:54Z</time>
      </trkpt>
      <trkpt lat="47.55195" lon="2.83991">
        <ele>134</ele>
        <time>2019-10-14T07:49:57Z</time>
      </trkpt>
      <trkpt lat="47.55203" lon="2.84">
        <ele>134</ele>
        <time>2019-10-14T07:50:00Z</time>
      </trkpt>
      <trkpt lat="47.5521" lon="2.84014">
        <ele>134.1</ele>
        <time>2019-10-14T07:50:03Z</time>
      </trkpt>
      <trkpt lat="47.55222" lon="2.8403">
        <ele>135</ele>
        <time>2019-10-14T07:50:08Z</time>
      </trkpt>
      <trkpt lat="47.55229" lon="2.84036">
        <ele>135</ele>
        <time>2019-10-14T07:50:10Z</time>
      </trkpt>
      <trkpt lat="47.55237" lon="2.84041">
        <ele>135</ele>
        <time>2019-10-14T07:50:12Z</time>
      </trkpt>
      <trkpt lat="47.55384" lon="2.83933">
        <ele>134.5</ele>
        <time>2019-10-14T07:50:56Z</time>
      </trkpt>
      <trkpt lat="47.55437" lon="2.83888">
        <ele>134.7</ele>
        <time>2019-10-14T07:51:12Z</time>
      </trkpt>
      <trkpt lat="47.55452" lon="2.83874">
        <ele>134.6</ele>
        <time>2019-10-14T07:51:17Z</time>
      </trkpt>
      <trkpt lat="47.55466" lon="2.83857">
        <ele>134.8</ele>
        <time>2019-10-14T07:51:22Z</time>
      </trkpt>
      <trkpt lat="47.5554" lon="2.83738">
        <ele>134.5</ele>
        <time>2019-10-14T07:51:51Z</time>
      </trkpt>
      <trkpt lat="47.55558" lon="2.83714">
        <ele>134.7</ele>
        <time>2019-10-14T07:51:57Z</time>
      </trkpt>
      <trkpt lat="47.55559" lon="2.83713">
        <ele>134.7</ele>
        <time>2019-10-14T07:51:58Z</time>
      </trkpt>
      <trkpt lat="47.55561" lon="2.83712">
        <ele>134.7</ele>
        <time>2019-10-14T07:51:58Z</time>
      </trkpt>
      <trkpt lat="47.55562" lon="2.83711">
        <ele>134.7</ele>
        <time>2019-10-14T07:51:59Z</time>
      </trkpt>
      <trkpt lat="47.55564" lon="2.8371">
        <ele>134.7</ele>
        <time>2019-10-14T07:51:59Z</time>
      </trkpt>
      <trkpt lat="47.55565" lon="2.83709">
        <ele>134.7</ele>
        <time>2019-10-14T07:51:59Z</time>
      </trkpt>
      <trkpt lat="47.55567" lon="2.83709">
        <ele>134.7</ele>
        <time>2019-10-14T07:52:00Z</time>
      </trkpt>
      <trkpt lat="47.55569" lon="2.83709">
        <ele>134.8</ele>
        <time>2019-10-14T07:52:01Z</time>
      </trkpt>
      <trkpt lat="47.55571" lon="2.8371">
        <ele>134.8</ele>
        <time>2019-10-14T07:52:01Z</time>
      </trkpt>
      <trkpt lat="47.55572" lon="2.8371">
        <ele>134.8</ele>
        <time>2019-10-14T07:52:01Z</time>
      </trkpt>
      <trkpt lat="47.55573" lon="2.83711">
        <ele>134.8</ele>
        <time>2019-10-14T07:52:02Z</time>
      </trkpt>
      <trkpt lat="47.55575" lon="2.83711">
        <ele>134.9</ele>
        <time>2019-10-14T07:52:02Z</time>
      </trkpt>
      <trkpt lat="47.55576" lon="2.83712">
        <ele>134.9</ele>
        <time>2019-10-14T07:52:03Z</time>
      </trkpt>
      <trkpt lat="47.55577" lon="2.83714">
        <ele>134.9</ele>
        <time>2019-10-14T07:52:03Z</time>
      </trkpt>
      <trkpt lat="47.55579" lon="2.83715">
        <ele>135</ele>
        <time>2019-10-14T07:52:04Z</time>
      </trkpt>
      <trkpt lat="47.5558" lon="2.83718">
        <ele>135</ele>
        <time>2019-10-14T07:52:04Z</time>
      </trkpt>
      <trkpt lat="47.55631" lon="2.83802">
        <ele>135</ele>
        <time>2019-10-14T07:52:25Z</time>
      </trkpt>
      <trkpt lat="47.55708" lon="2.8391">
        <ele>134.6</ele>
        <time>2019-10-14T07:52:53Z</time>
      </trkpt>
      <trkpt lat="47.55748" lon="2.83964">
        <ele>134.3</ele>
        <time>2019-10-14T07:53:07Z</time>
      </trkpt>
      <trkpt lat="47.55788" lon="2.84011">
        <ele>134.2</ele>
        <time>2019-10-14T07:53:21Z</time>
      </trkpt>
      <trkpt lat="47.55798" lon="2.84022">
        <ele>134.8</ele>
        <time>2019-10-14T07:53:24Z</time>
      </trkpt>
      <trkpt lat="47.5581" lon="2.84036">
        <ele>135.9</ele>
        <time>2019-10-14T07:53:28Z</time>
      </trkpt>
      <trkpt lat="47.55815" lon="2.84033">
        <ele>135.8</ele>
        <time>2019-10-14T07:53:30Z</time>
      </trkpt>
      <trkpt lat="47.55819" lon="2.84029">
        <ele>135.6</ele>
        <time>2019-10-14T07:53:31Z</time>
      </trkpt>
      <trkpt lat="47.55844" lon="2.84008">
        <ele>135.1</ele>
        <time>2019-10-14T07:53:39Z</time>
      </trkpt>
      <trkpt lat="47.55889" lon="2.83981">
        <ele>134.3</ele>
        <time>2019-10-14T07:53:52Z</time>
      </trkpt>
      <trkpt lat="47.55901" lon="2.83976">
        <ele>134.3</ele>
        <time>2019-10-14T07:53:55Z</time>
      </trkpt>
      <trkpt lat="47.55922" lon="2.83971">
        <ele>134.4</ele>
        <time>2019-10-14T07:54:01Z</time>
      </trkpt>
      <trkpt lat="47.55943" lon="2.83953">
        <ele>134.6</ele>
        <time>2019-10-14T07:54:07Z</time>
      </trkpt>
      <trkpt lat="47.55958" lon="2.83938">
        <ele>134.4</ele>
        <time>2019-10-14T07:54:12Z</time>
      </trkpt>
      <trkpt lat="47.55963" lon="2.83933">
        <ele>134.4</ele>
        <time>2019-10-14T07:54:14Z</time>
      </trkpt>
      <trkpt lat="47.55989" lon="2.83907">
        <ele>134.4</ele>
        <time>2019-10-14T07:54:22Z</time>
      </trkpt>
      <trkpt lat="47.55999" lon="2.83896">
        <ele>134.2</ele>
        <time>2019-10-14T07:54:25Z</time>
      </trkpt>
      <trkpt lat="47.56014" lon="2.83882">
        <ele>135.1</ele>
        <time>2019-10-14T07:54:30Z</time>
      </trkpt>
      <trkpt lat="47.56031" lon="2.83868">
        <ele>135</ele>
        <time>2019-10-14T07:54:35Z</time>
      </trkpt>
      <trkpt lat="47.56044" lon="2.83855">
        <ele>134.9</ele>
        <time>2019-10-14T07:54:40Z</time>
      </trkpt>
      <trkpt lat="47.56057" lon="2.83839">
        <ele>134.5</ele>
        <time>2019-10-14T07:54:44Z</time>
      </trkpt>
      <trkpt lat="47.56059" lon="2.83836">
        <ele>134.4</ele>
        <time>2019-10-14T07:54:45Z</time>
      </trkpt>
      <trkpt lat="47.56067" lon="2.83825">
        <ele>134.7</ele>
        <time>2019-10-14T07:54:48Z</time>
      </trkpt>
      <trkpt lat="47.56088" lon="2.83793">
        <ele>134.7</ele>
        <time>2019-10-14T07:54:56Z</time>
      </trkpt>
      <trkpt lat="47.56116" lon="2.83752">
        <ele>135</ele>
        <time>2019-10-14T07:55:06Z</time>
      </trkpt>
      <trkpt lat="47.56132" lon="2.83742">
        <ele>134.9</ele>
        <time>2019-10-14T07:55:11Z</time>
      </trkpt>
      <trkpt lat="47.56149" lon="2.83736">
        <ele>135.5</ele>
        <time>2019-10-14T07:55:16Z</time>
      </trkpt>
      <trkpt lat="47.56158" lon="2.83732">
        <ele>135.9</ele>
        <time>2019-10-14T07:55:18Z</time>
      </trkpt>
      <trkpt lat="47.56161" lon="2.8373">
        <ele>136</ele>
        <time>2019-10-14T07:55:19Z</time>
      </trkpt>
      <trkpt lat="47.56165" lon="2.83728">
        <ele>136.1</ele>
        <time>2019-10-14T07:55:20Z</time>
      </trkpt>
      <trkpt lat="47.56167" lon="2.83725">
        <ele>136.2</ele>
        <time>2019-10-14T07:55:21Z</time>
      </trkpt>
      <trkpt lat="47.56172" lon="2.83721">
        <ele>136.9</ele>
        <time>2019-10-14T07:55:22Z</time>
      </trkpt>
      <trkpt lat="47.56176" lon="2.83716">
        <ele>137.1</ele>
        <time>2019-10-14T07:55:24Z</time>
      </trkpt>
      <trkpt lat="47.56181" lon="2.83708">
        <ele>137</ele>
        <time>2019-10-14T07:55:26Z</time>
      </trkpt>
      <trkpt lat="47.56199" lon="2.83676">
        <ele>136.3</ele>
        <time>2019-10-14T07:55:33Z</time>
      </trkpt>
      <trkpt lat="47.56221" lon="2.83636">
        <ele>135.6</ele>
        <time>2019-10-14T07:55:43Z</time>
      </trkpt>
      <trkpt lat="47.56226" lon="2.83627">
        <ele>135.7</ele>
        <time>2019-10-14T07:55:45Z</time>
      </trkpt>
      <trkpt lat="47.56261" lon="2.83554">
        <ele>136.6</ele>
        <time>2019-10-14T07:56:01Z</time>
      </trkpt>
      <trkpt lat="47.56274" lon="2.83511">
        <ele>134.9</ele>
        <time>2019-10-14T07:56:09Z</time>
      </trkpt>
      <trkpt lat="47.56282" lon="2.83492">
        <ele>134.2</ele>
        <time>2019-10-14T07:56:13Z</time>
      </trkpt>
      <trkpt lat="47.563" lon="2.83463">
        <ele>134.4</ele>
        <time>2019-10-14T07:56:20Z</time>
      </trkpt>
      <trkpt lat="47.5631" lon="2.83446">
        <ele>134.2</ele>
        <time>2019-10-14T07:56:25Z</time>
      </trkpt>
      <trkpt lat="47.56316" lon="2.8343">
        <ele>134.1</ele>
        <time>2019-10-14T07:56:28Z</time>
      </trkpt>
      <trkpt lat="47.56319" lon="2.83403">
        <ele>133.7</ele>
        <time>2019-10-14T07:56:33Z</time>
      </trkpt>
      <trkpt lat="47.5633" lon="2.83354">
        <ele>134.2</ele>
        <time>2019-10-14T07:56:42Z</time>
      </trkpt>
      <trkpt lat="47.56338" lon="2.83323">
        <ele>133.9</ele>
        <time>2019-10-14T07:56:48Z</time>
      </trkpt>
      <trkpt lat="47.56346" lon="2.83301">
        <ele>134.5</ele>
        <time>2019-10-14T07:56:53Z</time>
      </trkpt>
      <trkpt lat="47.56349" lon="2.83297">
        <ele>134.6</ele>
        <time>2019-10-14T07:56:54Z</time>
      </trkpt>
      <trkpt lat="47.56351" lon="2.83294">
        <ele>134.5</ele>
        <time>2019-10-14T07:56:54Z</time>
      </trkpt>
      <trkpt lat="47.56355" lon="2.83291">
        <ele>134.5</ele>
        <time>2019-10-14T07:56:56Z</time>
      </trkpt>
      <trkpt lat="47.56358" lon="2.8329">
        <ele>134.6</ele>
        <time>2019-10-14T07:56:56Z</time>
      </trkpt>
      <trkpt lat="47.56383" lon="2.83286">
        <ele>135.4</ele>
        <time>2019-10-14T07:57:03Z</time>
      </trkpt>
      <trkpt lat="47.56392" lon="2.83282">
        <ele>135.4</ele>
        <time>2019-10-14T07:57:06Z</time>
      </trkpt>
      <trkpt lat="47.564" lon="2.83277">
        <ele>135.9</ele>
        <time>2019-10-14T07:57:08Z</time>
      </trkpt>
      <trkpt lat="47.56407" lon="2.83269">
        <ele>136.1</ele>
        <time>2019-10-14T07:57:10Z</time>
      </trkpt>
      <trkpt lat="47.56621" lon="2.8297">
        <ele>135.6</ele>
        <time>2019-10-14T07:58:29Z</time>
      </trkpt>
      <trkpt lat="47.56826" lon="2.8269">
        <ele>134.3</ele>
        <time>2019-10-14T07:59:43Z</time>
      </trkpt>
      <trkpt lat="47.56954" lon="2.82473">
        <ele>134.1</ele>
        <time>2019-10-14T08:00:35Z</time>
      </trkpt>
      <trkpt lat="47.56964" lon="2.82458">
        <ele>134.2</ele>
        <time>2019-10-14T08:00:39Z</time>
      </trkpt>
      <trkpt lat="47.5697" lon="2.8245">
        <ele>133.6</ele>
        <time>2019-10-14T08:00:41Z</time>
      </trkpt>
      <trkpt lat="47.5698" lon="2.82436">
        <ele>133.7</ele>
        <time>2019-10-14T08:00:45Z</time>
      </trkpt>
      <trkpt lat="47.57173" lon="2.82198">
        <ele>134.9</ele>
        <time>2019-10-14T08:01:52Z</time>
      </trkpt>
      <trkpt lat="47.57205" lon="2.82152">
        <ele>136.1</ele>
        <time>2019-10-14T08:02:04Z</time>
      </trkpt>
      <trkpt lat="47.57228" lon="2.82113">
        <ele>135.2</ele>
        <time>2019-10-14T08:02:13Z</time>
      </trkpt>
      <trkpt lat="47.57347" lon="2.81902">
        <ele>135.9</ele>
        <time>2019-10-14T08:03:03Z</time>
      </trkpt>
      <trkpt lat="47.57365" lon="2.81869">
        <ele>135.4</ele>
        <time>2019-10-14T08:03:11Z</time>
      </trkpt>
      <trkpt lat="47.57379" lon="2.81845">
        <ele>135.7</ele>
        <time>2019-10-14T08:03:16Z</time>
      </trkpt>
      <trkpt lat="47.57398" lon="2.8182">
        <ele>135.2</ele>
        <time>2019-10-14T08:03:23Z</time>
      </trkpt>
      <trkpt lat="47.57408" lon="2.81808">
        <ele>134.7</ele>
        <time>2019-10-14T08:03:26Z</time>
      </trkpt>
      <trkpt lat="47.57416" lon="2.81799">
        <ele>134.5</ele>
        <time>2019-10-14T08:03:29Z</time>
      </trkpt>
      <trkpt lat="47.57425" lon="2.81789">
        <ele>134.2</ele>
        <time>2019-10-14T08:03:32Z</time>
      </trkpt>
      <trkpt lat="47.57433" lon="2.81779">
        <ele>133.7</ele>
        <time>2019-10-14T08:03:35Z</time>
      </trkpt>
      <trkpt lat="47.57439" lon="2.8177">
        <ele>133.5</ele>
        <time>2019-10-14T08:03:37Z</time>
      </trkpt>
      <trkpt lat="47.57446" lon="2.81757">
        <ele>133.5</ele>
        <time>2019-10-14T08:03:40Z</time>
      </trkpt>
      <trkpt lat="47.57452" lon="2.81742">
        <ele>134.3</ele>
        <time>2019-10-14T08:03:43Z</time>
      </trkpt>
      <trkpt lat="47.57459" lon="2.81726">
        <ele>135.8</ele>
        <time>2019-10-14T08:03:47Z</time>
      </trkpt>
      <trkpt lat="47.57464" lon="2.81712">
        <ele>136.2</ele>
        <time>2019-10-14T08:03:50Z</time>
      </trkpt>
      <trkpt lat="47.57475" lon="2.81673">
        <ele>134</ele>
        <time>2019-10-14T08:03:57Z</time>
      </trkpt>
      <trkpt lat="47.5748" lon="2.81662">
        <ele>135.1</ele>
        <time>2019-10-14T08:04:00Z</time>
      </trkpt>
      <trkpt lat="47.57486" lon="2.8165">
        <ele>135.8</ele>
        <time>2019-10-14T08:04:02Z</time>
      </trkpt>
      <trkpt lat="47.57503" lon="2.81621">
        <ele>134.9</ele>
        <time>2019-10-14T08:04:09Z</time>
      </trkpt>
      <trkpt lat="47.57537" lon="2.81568">
        <ele>135.3</ele>
        <time>2019-10-14T08:04:22Z</time>
      </trkpt>
      <trkpt lat="47.57619" lon="2.81447">
        <ele>134.5</ele>
        <time>2019-10-14T08:04:53Z</time>
      </trkpt>
      <trkpt lat="47.57701" lon="2.81341">
        <ele>134.4</ele>
        <time>2019-10-14T08:05:22Z</time>
      </trkpt>
      <trkpt lat="47.57764" lon="2.81242">
        <ele>134.4</ele>
        <time>2019-10-14T08:05:47Z</time>
      </trkpt>
      <trkpt lat="47.57789" lon="2.81202">
        <ele>134.5</ele>
        <time>2019-10-14T08:05:57Z</time>
      </trkpt>
      <trkpt lat="47.57798" lon="2.81186">
        <ele>134.5</ele>
        <time>2019-10-14T08:06:01Z</time>
      </trkpt>
      <trkpt lat="47.57881" lon="2.81041">
        <ele>134.2</ele>
        <time>2019-10-14T08:06:35Z</time>
      </trkpt>
      <trkpt lat="47.57942" lon="2.80942">
        <ele>134.4</ele>
        <time>2019-10-14T08:06:59Z</time>
      </trkpt>
      <trkpt lat="47.57947" lon="2.80926">
        <ele>133.9</ele>
        <time>2019-10-14T08:07:02Z</time>
      </trkpt>
      <trkpt lat="47.57956" lon="2.80905">
        <ele>133.3</ele>
        <time>2019-10-14T08:07:07Z</time>
      </trkpt>
      <trkpt lat="47.57964" lon="2.80887">
        <ele>133.4</ele>
        <time>2019-10-14T08:07:11Z</time>
      </trkpt>
      <trkpt lat="47.57989" lon="2.80848">
        <ele>133.4</ele>
        <time>2019-10-14T08:07:20Z</time>
      </trkpt>
      <trkpt lat="47.58034" lon="2.80753">
        <ele>133.2</ele>
        <time>2019-10-14T08:07:41Z</time>
      </trkpt>
      <trkpt lat="47.58134" lon="2.80523">
        <ele>133.2</ele>
        <time>2019-10-14T08:08:31Z</time>
      </trkpt>
      <trkpt lat="47.58261" lon="2.80266">
        <ele>133.5</ele>
        <time>2019-10-14T08:09:28Z</time>
      </trkpt>
      <trkpt lat="47.58343" lon="2.80055">
        <ele>134</ele>
        <time>2019-10-14T08:10:12Z</time>
      </trkpt>
      <trkpt lat="47.58351" lon="2.80034">
        <ele>133.8</ele>
        <time>2019-10-14T08:10:16Z</time>
      </trkpt>
      <trkpt lat="47.58382" lon="2.7995">
        <ele>133.4</ele>
        <time>2019-10-14T08:10:33Z</time>
      </trkpt>
      <trkpt lat="47.58411" lon="2.79861">
        <ele>133</ele>
        <time>2019-10-14T08:10:51Z</time>
      </trkpt>
      <trkpt lat="47.58435" lon="2.79802">
        <ele>133.7</ele>
        <time>2019-10-14T08:11:04Z</time>
      </trkpt>
      <trkpt lat="47.58474" lon="2.79692">
        <ele>133.3</ele>
        <time>2019-10-14T08:11:26Z</time>
      </trkpt>
      <trkpt lat="47.58482" lon="2.79666">
        <ele>132.7</ele>
        <time>2019-10-14T08:11:31Z</time>
      </trkpt>
      <trkpt lat="47.58492" lon="2.79634">
        <ele>132.2</ele>
        <time>2019-10-14T08:11:38Z</time>
      </trkpt>
      <trkpt lat="47.58538" lon="2.79536">
        <ele>132.1</ele>
        <time>2019-10-14T08:11:59Z</time>
      </trkpt>
      <trkpt lat="47.58579" lon="2.79443">
        <ele>132.3</ele>
        <time>2019-10-14T08:12:19Z</time>
      </trkpt>
      <trkpt lat="47.58632" lon="2.79315">
        <ele>132.3</ele>
        <time>2019-10-14T08:12:46Z</time>
      </trkpt>
      <trkpt lat="47.5865" lon="2.79234">
        <ele>131.3</ele>
        <time>2019-10-14T08:13:02Z</time>
      </trkpt>
      <trkpt lat="47.58672" lon="2.79174">
        <ele>132.1</ele>
        <time>2019-10-14T08:13:14Z</time>
      </trkpt>
      <trkpt lat="47.5873" lon="2.78983">
        <ele>132.1</ele>
        <time>2019-10-14T08:13:52Z</time>
      </trkpt>
      <trkpt lat="47.58732" lon="2.78974">
        <ele>131.8</ele>
        <time>2019-10-14T08:13:53Z</time>
      </trkpt>
      <trkpt lat="47.58759" lon="2.78869">
        <ele>131.6</ele>
        <time>2019-10-14T08:14:14Z</time>
      </trkpt>
      <trkpt lat="47.58777" lon="2.78797">
        <ele>132.3</ele>
        <time>2019-10-14T08:14:27Z</time>
      </trkpt>
      <trkpt lat="47.58778" lon="2.78792">
        <ele>132</ele>
        <time>2019-10-14T08:14:28Z</time>
      </trkpt>
      <trkpt lat="47.5878" lon="2.78785">
        <ele>131.6</ele>
        <time>2019-10-14T08:14:30Z</time>
      </trkpt>
      <trkpt lat="47.58787" lon="2.78749">
        <ele>132</ele>
        <time>2019-10-14T08:14:36Z</time>
      </trkpt>
      <trkpt lat="47.58789" lon="2.78718">
        <ele>132.1</ele>
        <time>2019-10-14T08:14:42Z</time>
      </trkpt>
      <trkpt lat="47.58786" lon="2.7868">
        <ele>131.2</ele>
        <time>2019-10-14T08:14:49Z</time>
      </trkpt>
      <trkpt lat="47.58788" lon="2.78649">
        <ele>131.5</ele>
        <time>2019-10-14T08:14:55Z</time>
      </trkpt>
      <trkpt lat="47.58795" lon="2.78596">
        <ele>131.5</ele>
        <time>2019-10-14T08:15:04Z</time>
      </trkpt>
      <trkpt lat="47.58808" lon="2.78551">
        <ele>131.9</ele>
        <time>2019-10-14T08:15:13Z</time>
      </trkpt>
      <trkpt lat="47.58831" lon="2.78477">
        <ele>132.8</ele>
        <time>2019-10-14T08:15:28Z</time>
      </trkpt>
      <trkpt lat="47.58854" lon="2.78421">
        <ele>132.1</ele>
        <time>2019-10-14T08:15:40Z</time>
      </trkpt>
      <trkpt lat="47.58865" lon="2.78385">
        <ele>132</ele>
        <time>2019-10-14T08:15:47Z</time>
      </trkpt>
      <trkpt lat="47.58881" lon="2.78347">
        <ele>132</ele>
        <time>2019-10-14T08:15:55Z</time>
      </trkpt>
      <trkpt lat="47.58933" lon="2.78218">
        <ele>131.4</ele>
        <time>2019-10-14T08:16:22Z</time>
      </trkpt>
      <trkpt lat="47.58997" lon="2.78101">
        <ele>132.7</ele>
        <time>2019-10-14T08:16:49Z</time>
      </trkpt>
      <trkpt lat="47.59031" lon="2.78025">
        <ele>135.6</ele>
        <time>2019-10-14T08:17:05Z</time>
      </trkpt>
      <trkpt lat="47.59031" lon="2.77962">
        <ele>134.1</ele>
        <time>2019-10-14T08:17:17Z</time>
      </trkpt>
      <trkpt lat="47.59052" lon="2.77858">
        <ele>134.8</ele>
        <time>2019-10-14T08:17:36Z</time>
      </trkpt>
      <trkpt lat="47.5924" lon="2.77481">
        <ele>132.9</ele>
        <time>2019-10-14T08:19:01Z</time>
      </trkpt>
      <trkpt lat="47.5945" lon="2.77067">
        <ele>132.7</ele>
        <time>2019-10-14T08:20:34Z</time>
      </trkpt>
      <trkpt lat="47.59468" lon="2.77037">
        <ele>133.5</ele>
        <time>2019-10-14T08:20:41Z</time>
      </trkpt>
      <trkpt lat="47.59545" lon="2.76904">
        <ele>132.4</ele>
        <time>2019-10-14T08:21:13Z</time>
      </trkpt>
      <trkpt lat="47.59632" lon="2.7675">
        <ele>132.5</ele>
        <time>2019-10-14T08:21:49Z</time>
      </trkpt>
      <trkpt lat="47.59685" lon="2.76654">
        <ele>132.5</ele>
        <time>2019-10-14T08:22:12Z</time>
      </trkpt>
      <trkpt lat="47.59747" lon="2.76547">
        <ele>133</ele>
        <time>2019-10-14T08:22:37Z</time>
      </trkpt>
      <trkpt lat="47.59812" lon="2.76432">
        <ele>133.3</ele>
        <time>2019-10-14T08:23:04Z</time>
      </trkpt>
      <trkpt lat="47.59868" lon="2.76336">
        <ele>133.7</ele>
        <time>2019-10-14T08:23:27Z</time>
      </trkpt>
      <trkpt lat="47.5989" lon="2.76297">
        <ele>133.7</ele>
        <time>2019-10-14T08:23:36Z</time>
      </trkpt>
      <trkpt lat="47.59905" lon="2.76269">
        <ele>133.4</ele>
        <time>2019-10-14T08:23:42Z</time>
      </trkpt>
      <trkpt lat="47.59909" lon="2.7626">
        <ele>133.9</ele>
        <time>2019-10-14T08:23:44Z</time>
      </trkpt>
      <trkpt lat="47.59914" lon="2.76252">
        <ele>135.2</ele>
        <time>2019-10-14T08:23:46Z</time>
      </trkpt>
      <trkpt lat="47.5992" lon="2.7624">
        <ele>135</ele>
        <time>2019-10-14T08:23:49Z</time>
      </trkpt>
      <trkpt lat="47.59934" lon="2.76216">
        <ele>133.8</ele>
        <time>2019-10-14T08:23:55Z</time>
      </trkpt>
      <trkpt lat="47.59956" lon="2.76178">
        <ele>132.5</ele>
        <time>2019-10-14T08:24:04Z</time>
      </trkpt>
      <trkpt lat="47.59966" lon="2.76152">
        <ele>132.9</ele>
        <time>2019-10-14T08:24:09Z</time>
      </trkpt>
      <trkpt lat="47.59974" lon="2.76136">
        <ele>133.4</ele>
        <time>2019-10-14T08:24:13Z</time>
      </trkpt>
      <trkpt lat="47.59979" lon="2.76128">
        <ele>132</ele>
        <time>2019-10-14T08:24:15Z</time>
      </trkpt>
      <trkpt lat="47.59986" lon="2.76122">
        <ele>131.4</ele>
        <time>2019-10-14T08:24:17Z</time>
      </trkpt>
      <trkpt lat="47.59993" lon="2.76121">
        <ele>131.3</ele>
        <time>2019-10-14T08:24:19Z</time>
      </trkpt>
      <trkpt lat="47.60004" lon="2.76119">
        <ele>131.8</ele>
        <time>2019-10-14T08:24:22Z</time>
      </trkpt>
      <trkpt lat="47.60019" lon="2.76116">
        <ele>133.1</ele>
        <time>2019-10-14T08:24:26Z</time>
      </trkpt>
      <trkpt lat="47.60025" lon="2.7619">
        <ele>132.7</ele>
        <time>2019-10-14T08:24:39Z</time>
      </trkpt>
      <trkpt lat="47.60028" lon="2.76228">
        <ele>134</ele>
        <time>2019-10-14T08:24:46Z</time>
      </trkpt>
      <trkpt lat="47.60033" lon="2.76264">
        <ele>132.8</ele>
        <time>2019-10-14T08:24:53Z</time>
      </trkpt>
      <trkpt lat="47.6005" lon="2.76333">
        <ele>133.2</ele>
        <time>2019-10-14T08:25:06Z</time>
      </trkpt>
      <trkpt lat="47.60084" lon="2.76413">
        <ele>133.8</ele>
        <time>2019-10-14T08:25:23Z</time>
      </trkpt>
      <trkpt lat="47.60101" lon="2.76453">
        <ele>131.7</ele>
        <time>2019-10-14T08:25:32Z</time>
      </trkpt>
      <trkpt lat="47.6011" lon="2.76466">
        <ele>133.4</ele>
        <time>2019-10-14T08:25:35Z</time>
      </trkpt>
      <trkpt lat="47.60124" lon="2.76469">
        <ele>133.8</ele>
        <time>2019-10-14T08:25:39Z</time>
      </trkpt>
      <trkpt lat="47.60139" lon="2.76472">
        <ele>134</ele>
        <time>2019-10-14T08:25:43Z</time>
      </trkpt>
      <trkpt lat="47.60153" lon="2.76471">
        <ele>132</ele>
        <time>2019-10-14T08:25:46Z</time>
      </trkpt>
      <trkpt lat="47.60205" lon="2.76417">
        <ele>132.1</ele>
        <time>2019-10-14T08:26:03Z</time>
      </trkpt>
      <trkpt lat="47.60408" lon="2.76197">
        <ele>132.5</ele>
        <time>2019-10-14T08:27:11Z</time>
      </trkpt>
      <trkpt lat="47.60619" lon="2.75985">
        <ele>132</ele>
        <time>2019-10-14T08:28:19Z</time>
      </trkpt>
      <trkpt lat="47.60633" lon="2.75973">
        <ele>133.5</ele>
        <time>2019-10-14T08:28:23Z</time>
      </trkpt>
      <trkpt lat="47.60699" lon="2.75906">
        <ele>131.7</ele>
        <time>2019-10-14T08:28:44Z</time>
      </trkpt>
      <trkpt lat="47.60981" lon="2.75604">
        <ele>131.9</ele>
        <time>2019-10-14T08:30:17Z</time>
      </trkpt>
      <trkpt lat="47.61331" lon="2.75294">
        <ele>132</ele>
        <time>2019-10-14T08:32:06Z</time>
      </trkpt>
      <trkpt lat="47.61542" lon="2.75122">
        <ele>131</ele>
        <time>2019-10-14T08:33:11Z</time>
      </trkpt>
      <trkpt lat="47.61759" lon="2.74944">
        <ele>131.3</ele>
        <time>2019-10-14T08:34:17Z</time>
      </trkpt>
      <trkpt lat="47.61967" lon="2.74774">
        <ele>131.7</ele>
        <time>2019-10-14T08:35:20Z</time>
      </trkpt>
      <trkpt lat="47.6254" lon="2.74303">
        <ele>130.5</ele>
        <time>2019-10-14T08:38:15Z</time>
      </trkpt>
      <trkpt lat="47.62855" lon="2.74071">
        <ele>131.6</ele>
        <time>2019-10-14T08:39:49Z</time>
      </trkpt>
      <trkpt lat="47.62858" lon="2.7408">
        <ele>131.3</ele>
        <time>2019-10-14T08:39:51Z</time>
      </trkpt>
      <trkpt lat="47.62867" lon="2.74108">
        <ele>131.7</ele>
        <time>2019-10-14T08:39:57Z</time>
      </trkpt>
      <trkpt lat="47.62871" lon="2.74117">
        <ele>131.6</ele>
        <time>2019-10-14T08:39:59Z</time>
      </trkpt>
      <trkpt lat="47.62881" lon="2.74104">
        <ele>131</ele>
        <time>2019-10-14T08:40:02Z</time>
      </trkpt>
      <trkpt lat="47.62894" lon="2.74094">
        <ele>130.4</ele>
        <time>2019-10-14T08:40:06Z</time>
      </trkpt>
      <trkpt lat="47.62902" lon="2.74094">
        <ele>130.4</ele>
        <time>2019-10-14T08:40:08Z</time>
      </trkpt>
      <trkpt lat="47.62908" lon="2.74098">
        <ele>130.5</ele>
        <time>2019-10-14T08:40:10Z</time>
      </trkpt>
      <trkpt lat="47.62918" lon="2.741">
        <ele>130.7</ele>
        <time>2019-10-14T08:40:13Z</time>
      </trkpt>
      <trkpt lat="47.62961" lon="2.74061">
        <ele>130.7</ele>
        <time>2019-10-14T08:40:26Z</time>
      </trkpt>
      <trkpt lat="47.6307" lon="2.73981">
        <ele>130.5</ele>
        <time>2019-10-14T08:40:59Z</time>
      </trkpt>
      <trkpt lat="47.63168" lon="2.73914">
        <ele>130.9</ele>
        <time>2019-10-14T08:41:27Z</time>
      </trkpt>
      <trkpt lat="47.6317" lon="2.73913">
        <ele>131</ele>
        <time>2019-10-14T08:41:28Z</time>
      </trkpt>
      <trkpt lat="47.63171" lon="2.73912">
        <ele>131</ele>
        <time>2019-10-14T08:41:28Z</time>
      </trkpt>
      <trkpt lat="47.63172" lon="2.73911">
        <ele>131</ele>
        <time>2019-10-14T08:41:29Z</time>
      </trkpt>
      <trkpt lat="47.6326" lon="2.73838">
        <ele>136</ele>
        <time>2019-10-21T04:23:46Z</time>
      </trkpt>
      <trkpt lat="47.63263" lon="2.73846">
        <ele>136</ele>
        <time>2019-10-21T04:23:44Z</time>
      </trkpt>
      <trkpt lat="47.6328" lon="2.7389">
        <ele>136.8</ele>
        <time>2019-10-21T04:23:35Z</time>
      </trkpt>
      <trkpt lat="47.63312" lon="2.73935">
        <ele>138.4</ele>
        <time>2019-10-21T04:23:23Z</time>
      </trkpt>
      <trkpt lat="47.63304" lon="2.73943">
        <ele>138.9</ele>
        <time>2019-10-21T04:23:21Z</time>
      </trkpt>
      <trkpt lat="47.63289" lon="2.73962">
        <ele>139</ele>
        <time>2019-10-21T04:23:15Z</time>
      </trkpt>
      <trkpt lat="47.63281" lon="2.73973">
        <ele>140.5</ele>
        <time>2019-10-21T04:23:12Z</time>
      </trkpt>
      <trkpt lat="47.633" lon="2.74009">
        <ele>138.2</ele>
        <time>2019-10-21T04:23:04Z</time>
      </trkpt>
      <trkpt lat="47.63319" lon="2.74038">
        <ele>137.8</ele>
        <time>2019-10-21T04:22:57Z</time>
      </trkpt>
      <trkpt lat="47.63328" lon="2.74046">
        <ele>137.3</ele>
        <time>2019-10-21T04:22:54Z</time>
      </trkpt>
      <trkpt lat="47.63339" lon="2.74051">
        <ele>137.2</ele>
        <time>2019-10-21T04:22:51Z</time>
      </trkpt>
      <trkpt lat="47.63341" lon="2.74052">
        <ele>137.2</ele>
        <time>2019-10-21T04:22:50Z</time>
      </trkpt>
      <trkpt lat="47.63382" lon="2.7408">
        <ele>137.2</ele>
        <time>2019-10-21T04:22:38Z</time>
      </trkpt>
      <trkpt lat="47.63417" lon="2.74101">
        <ele>137.6</ele>
        <time>2019-10-21T04:22:28Z</time>
      </trkpt>
      <trkpt lat="47.63432" lon="2.7411">
        <ele>138</ele>
        <time>2019-10-21T04:22:24Z</time>
      </trkpt>
      <trkpt lat="47.63514" lon="2.74296">
        <ele>141.3</ele>
        <time>2019-10-21T04:21:44Z</time>
      </trkpt>
      <trkpt lat="47.63522" lon="2.74286">
        <ele>141.2</ele>
        <time>2019-10-21T04:21:41Z</time>
      </trkpt>
      <trkpt lat="47.63564" lon="2.74236">
        <ele>141</ele>
        <time>2019-10-21T04:21:27Z</time>
      </trkpt>
      <trkpt lat="47.63572" lon="2.74226">
        <ele>141</ele>
        <time>2019-10-21T04:21:24Z</time>
      </trkpt>
      <trkpt lat="47.6358" lon="2.74216">
        <ele>140.1</ele>
        <time>2019-10-21T04:21:21Z</time>
      </trkpt>
      <trkpt lat="47.63598" lon="2.74194">
        <ele>139.1</ele>
        <time>2019-10-21T04:21:15Z</time>
      </trkpt>
      <trkpt lat="47.63604" lon="2.74187">
        <ele>139.9</ele>
        <time>2019-10-21T04:21:13Z</time>
      </trkpt>
      <trkpt lat="47.63616" lon="2.74172">
        <ele>140.2</ele>
        <time>2019-10-21T04:21:09Z</time>
      </trkpt>
      <trkpt lat="47.63623" lon="2.74164">
        <ele>139.9</ele>
        <time>2019-10-21T04:21:06Z</time>
      </trkpt>
      <trkpt lat="47.63678" lon="2.74099">
        <ele>137.8</ele>
        <time>2019-10-21T04:20:48Z</time>
      </trkpt>
      <trkpt lat="47.63709" lon="2.74064">
        <ele>136.6</ele>
        <time>2019-10-21T04:20:37Z</time>
      </trkpt>
      <trkpt lat="47.63742" lon="2.74027">
        <ele>135.3</ele>
        <time>2019-10-21T04:20:26Z</time>
      </trkpt>
      <trkpt lat="47.63746" lon="2.74022">
        <ele>135.1</ele>
        <time>2019-10-21T04:20:25Z</time>
      </trkpt>
      <trkpt lat="47.6375" lon="2.74018">
        <ele>135</ele>
        <time>2019-10-21T04:20:23Z</time>
      </trkpt>
      <trkpt lat="47.63787" lon="2.73977">
        <ele>134</ele>
        <time>2019-10-21T04:20:11Z</time>
      </trkpt>
      <trkpt lat="47.63797" lon="2.73965">
        <ele>133.9</ele>
        <time>2019-10-21T04:20:08Z</time>
      </trkpt>
      <trkpt lat="47.63841" lon="2.73914">
        <ele>133</ele>
        <time>2019-10-21T04:19:53Z</time>
      </trkpt>
      <trkpt lat="47.63845" lon="2.73909">
        <ele>133</ele>
        <time>2019-10-21T04:19:51Z</time>
      </trkpt>
      <trkpt lat="47.63862" lon="2.7389">
        <ele>133</ele>
        <time>2019-10-21T04:19:46Z</time>
      </trkpt>
      <trkpt lat="47.63876" lon="2.73875">
        <ele>132.2</ele>
        <time>2019-10-21T04:19:41Z</time>
      </trkpt>
      <trkpt lat="47.63887" lon="2.73863">
        <ele>132</ele>
        <time>2019-10-21T04:19:37Z</time>
      </trkpt>
      <trkpt lat="47.63904" lon="2.73843">
        <ele>131.5</ele>
        <time>2019-10-21T04:19:32Z</time>
      </trkpt>
      <trkpt lat="47.63925" lon="2.73819">
        <ele>131</ele>
        <time>2019-10-21T04:19:25Z</time>
      </trkpt>
      <trkpt lat="47.6395" lon="2.7379">
        <ele>131</ele>
        <time>2019-10-21T04:19:16Z</time>
      </trkpt>
      <trkpt lat="47.63973" lon="2.73763">
        <ele>131</ele>
        <time>2019-10-21T04:19:08Z</time>
      </trkpt>
      <trkpt lat="47.63983" lon="2.73752">
        <ele>131</ele>
        <time>2019-10-21T04:19:05Z</time>
      </trkpt>
      <trkpt lat="47.63996" lon="2.73738">
        <ele>130.6</ele>
        <time>2019-10-21T04:19:01Z</time>
      </trkpt>
      <trkpt lat="47.64024" lon="2.73707">
        <ele>131.8</ele>
        <time>2019-10-21T04:18:51Z</time>
      </trkpt>
      <trkpt lat="47.64041" lon="2.73688">
        <ele>132.9</ele>
        <time>2019-10-21T04:18:46Z</time>
      </trkpt>
      <trkpt lat="47.64046" lon="2.73699">
        <ele>132.8</ele>
        <time>2019-10-21T04:18:43Z</time>
      </trkpt>
      <trkpt lat="47.64058" lon="2.73737">
        <ele>132</ele>
        <time>2019-10-21T04:18:36Z</time>
      </trkpt>
      <trkpt lat="47.64062" lon="2.73747">
        <ele>132</ele>
        <time>2019-10-21T04:18:34Z</time>
      </trkpt>
      <trkpt lat="47.64064" lon="2.73753">
        <ele>132</ele>
        <time>2019-10-21T04:18:32Z</time>
      </trkpt>
      <trkpt lat="47.64069" lon="2.7377">
        <ele>132</ele>
        <time>2019-10-21T04:18:29Z</time>
      </trkpt>
      <trkpt lat="47.64066" lon="2.73882">
        <ele>131.8</ele>
        <time>2019-10-21T04:18:09Z</time>
      </trkpt>
      <trkpt lat="47.64064" lon="2.73919">
        <ele>132</ele>
        <time>2019-10-21T04:18:02Z</time>
      </trkpt>
      <trkpt lat="47.6406" lon="2.73979">
        <ele>132</ele>
        <time>2019-10-21T04:17:51Z</time>
      </trkpt>
      <trkpt lat="47.64069" lon="2.74077">
        <ele>133.7</ele>
        <time>2019-10-21T04:17:34Z</time>
      </trkpt>
      <trkpt lat="47.64075" lon="2.7411">
        <ele>132.5</ele>
        <time>2019-10-21T04:17:27Z</time>
      </trkpt>
      <trkpt lat="47.64078" lon="2.74138">
        <ele>132.6</ele>
        <time>2019-10-21T04:17:22Z</time>
      </trkpt>
      <trkpt lat="47.64086" lon="2.74208">
        <ele>132.3</ele>
        <time>2019-10-21T04:17:09Z</time>
      </trkpt>
      <trkpt lat="47.64099" lon="2.74275">
        <ele>132.2</ele>
        <time>2019-10-21T04:16:57Z</time>
      </trkpt>
      <trkpt lat="47.64136" lon="2.74397">
        <ele>132.8</ele>
        <time>2019-10-21T04:16:33Z</time>
      </trkpt>
      <trkpt lat="47.6415" lon="2.74458">
        <ele>132.4</ele>
        <time>2019-10-21T04:16:21Z</time>
      </trkpt>
      <trkpt lat="47.64153" lon="2.74536">
        <ele>132</ele>
        <time>2019-10-21T04:16:07Z</time>
      </trkpt>
      <trkpt lat="47.64156" lon="2.74563">
        <ele>132.2</ele>
        <time>2019-10-21T04:16:02Z</time>
      </trkpt>
      <trkpt lat="47.64156" lon="2.74563">
        <ele>132.2</ele>
        <time>2019-10-21T04:16:02Z</time>
      </trkpt>
      <trkpt lat="47.64163" lon="2.74677">
        <ele>133.8</ele>
        <time>2019-10-21T04:15:42Z</time>
      </trkpt>
      <trkpt lat="47.64105" lon="2.74841">
        <ele>133.4</ele>
        <time>2019-10-21T04:15:08Z</time>
      </trkpt>
      <trkpt lat="47.64099" lon="2.74858">
        <ele>133.1</ele>
        <time>2019-10-21T04:15:05Z</time>
      </trkpt>
      <trkpt lat="47.64089" lon="2.74888">
        <ele>133.2</ele>
        <time>2019-10-21T04:14:59Z</time>
      </trkpt>
      <trkpt lat="47.6408" lon="2.74913">
        <ele>133.5</ele>
        <time>2019-10-21T04:14:54Z</time>
      </trkpt>
      <trkpt lat="47.64056" lon="2.74979">
        <ele>133</ele>
        <time>2019-10-21T04:14:40Z</time>
      </trkpt>
      <trkpt lat="47.6405" lon="2.75012">
        <ele>132.8</ele>
        <time>2019-10-21T04:14:34Z</time>
      </trkpt>
      <trkpt lat="47.64047" lon="2.75046">
        <ele>132.7</ele>
        <time>2019-10-21T04:14:28Z</time>
      </trkpt>
      <trkpt lat="47.6405" lon="2.75068">
        <ele>133.2</ele>
        <time>2019-10-21T04:14:24Z</time>
      </trkpt>
      <trkpt lat="47.64055" lon="2.75086">
        <ele>133.9</ele>
        <time>2019-10-21T04:14:20Z</time>
      </trkpt>
      <trkpt lat="47.64071" lon="2.7511">
        <ele>134.2</ele>
        <time>2019-10-21T04:14:14Z</time>
      </trkpt>
      <trkpt lat="47.64088" lon="2.75129">
        <ele>133.9</ele>
        <time>2019-10-21T04:14:09Z</time>
      </trkpt>
      <trkpt lat="47.64109" lon="2.75139">
        <ele>133.9</ele>
        <time>2019-10-21T04:14:03Z</time>
      </trkpt>
      <trkpt lat="47.64133" lon="2.7514">
        <ele>133.9</ele>
        <time>2019-10-21T04:13:56Z</time>
      </trkpt>
      <trkpt lat="47.64302" lon="2.75098">
        <ele>145.8</ele>
        <time>2019-10-21T04:13:11Z</time>
      </trkpt>
      <trkpt lat="47.64338" lon="2.7511">
        <ele>147.2</ele>
        <time>2019-10-21T04:13:01Z</time>
      </trkpt>
      <trkpt lat="47.64363" lon="2.75137">
        <ele>147.2</ele>
        <time>2019-10-21T04:12:52Z</time>
      </trkpt>
      <trkpt lat="47.6438" lon="2.7516">
        <ele>147.4</ele>
        <time>2019-10-21T04:12:46Z</time>
      </trkpt>
      <trkpt lat="47.64403" lon="2.75198">
        <ele>147.2</ele>
        <time>2019-10-21T04:12:37Z</time>
      </trkpt>
      <trkpt lat="47.6449" lon="2.75291">
        <ele>145.3</ele>
        <time>2019-10-21T04:12:08Z</time>
      </trkpt>
      <trkpt lat="47.64521" lon="2.75336">
        <ele>144.6</ele>
        <time>2019-10-21T04:11:57Z</time>
      </trkpt>
      <trkpt lat="47.64553" lon="2.75383">
        <ele>145.3</ele>
        <time>2019-10-21T04:11:45Z</time>
      </trkpt>
      <trkpt lat="47.64575" lon="2.75411">
        <ele>145.7</ele>
        <time>2019-10-21T04:11:37Z</time>
      </trkpt>
      <trkpt lat="47.64604" lon="2.75433">
        <ele>146.2</ele>
        <time>2019-10-21T04:11:28Z</time>
      </trkpt>
      <trkpt lat="47.64701" lon="2.75494">
        <ele>143.4</ele>
        <time>2019-10-21T04:11:00Z</time>
      </trkpt>
      <trkpt lat="47.64667" lon="2.75526">
        <ele>141</ele>
        <time>2019-10-21T04:10:49Z</time>
      </trkpt>
      <trkpt lat="47.64633" lon="2.75571">
        <ele>138.7</ele>
        <time>2019-10-21T04:10:37Z</time>
      </trkpt>
      <trkpt lat="47.6463" lon="2.75576">
        <ele>138.5</ele>
        <time>2019-10-21T04:10:36Z</time>
      </trkpt>
      <trkpt lat="47.64628" lon="2.75586">
        <ele>137.8</ele>
        <time>2019-10-21T04:10:34Z</time>
      </trkpt>
      <trkpt lat="47.64632" lon="2.75595">
        <ele>137.2</ele>
        <time>2019-10-21T04:10:32Z</time>
      </trkpt>
      <trkpt lat="47.64644" lon="2.75613">
        <ele>136.4</ele>
        <time>2019-10-21T04:10:28Z</time>
      </trkpt>
      <trkpt lat="47.64656" lon="2.75632">
        <ele>136.1</ele>
        <time>2019-10-21T04:10:23Z</time>
      </trkpt>
      <trkpt lat="47.64696" lon="2.7569">
        <ele>139</ele>
        <time>2019-10-21T04:10:08Z</time>
      </trkpt>
      <trkpt lat="47.64697" lon="2.75699">
        <ele>138.6</ele>
        <time>2019-10-21T04:10:06Z</time>
      </trkpt>
      <trkpt lat="47.64717" lon="2.75731">
        <ele>140.1</ele>
        <time>2019-10-21T04:09:59Z</time>
      </trkpt>
      <trkpt lat="47.64744" lon="2.75784">
        <ele>139</ele>
        <time>2019-10-21T04:09:47Z</time>
      </trkpt>
      <trkpt lat="47.6477" lon="2.75844">
        <ele>139.5</ele>
        <time>2019-10-21T04:09:34Z</time>
      </trkpt>
      <trkpt lat="47.64786" lon="2.75887">
        <ele>140</ele>
        <time>2019-10-21T04:09:25Z</time>
      </trkpt>
      <trkpt lat="47.64816" lon="2.75999">
        <ele>138.6</ele>
        <time>2019-10-21T04:09:03Z</time>
      </trkpt>
      <trkpt lat="47.64842" lon="2.76094">
        <ele>138.9</ele>
        <time>2019-10-21T04:08:45Z</time>
      </trkpt>
      <trkpt lat="47.64858" lon="2.76139">
        <ele>138.8</ele>
        <time>2019-10-21T04:08:36Z</time>
      </trkpt>
      <trkpt lat="47.64876" lon="2.7617">
        <ele>139</ele>
        <time>2019-10-21T04:08:28Z</time>
      </trkpt>
      <trkpt lat="47.6489" lon="2.76189">
        <ele>138.7</ele>
        <time>2019-10-21T04:08:23Z</time>
      </trkpt>
      <trkpt lat="47.64907" lon="2.76203">
        <ele>139</ele>
        <time>2019-10-21T04:08:18Z</time>
      </trkpt>
      <trkpt lat="47.65035" lon="2.7627">
        <ele>136.5</ele>
        <time>2019-10-21T04:07:42Z</time>
      </trkpt>
      <trkpt lat="47.65192" lon="2.76356">
        <ele>136.6</ele>
        <time>2019-10-21T04:06:57Z</time>
      </trkpt>
      <trkpt lat="47.65229" lon="2.76407">
        <ele>136</ele>
        <time>2019-10-21T04:06:44Z</time>
      </trkpt>
      <trkpt lat="47.65248" lon="2.76453">
        <ele>135.7</ele>
        <time>2019-10-21T04:06:34Z</time>
      </trkpt>
      <trkpt lat="47.65257" lon="2.76507">
        <ele>137.2</ele>
        <time>2019-10-21T04:06:24Z</time>
      </trkpt>
      <trkpt lat="47.65261" lon="2.7656">
        <ele>136.8</ele>
        <time>2019-10-21T04:06:14Z</time>
      </trkpt>
      <trkpt lat="47.65245" lon="2.76688">
        <ele>136.4</ele>
        <time>2019-10-21T04:05:51Z</time>
      </trkpt>
      <trkpt lat="47.65244" lon="2.76727">
        <ele>136.4</ele>
        <time>2019-10-21T04:05:44Z</time>
      </trkpt>
      <trkpt lat="47.6525" lon="2.76765">
        <ele>136.5</ele>
        <time>2019-10-21T04:05:37Z</time>
      </trkpt>
      <trkpt lat="47.65269" lon="2.76815">
        <ele>136.3</ele>
        <time>2019-10-21T04:05:26Z</time>
      </trkpt>
      <trkpt lat="47.65378" lon="2.77106">
        <ele>137.1</ele>
        <time>2019-10-21T04:04:26Z</time>
      </trkpt>
      <trkpt lat="47.65396" lon="2.77149">
        <ele>137.5</ele>
        <time>2019-10-21T04:04:17Z</time>
      </trkpt>
      <trkpt lat="47.65412" lon="2.77175">
        <ele>137.3</ele>
        <time>2019-10-21T04:04:11Z</time>
      </trkpt>
      <trkpt lat="47.65429" lon="2.77191">
        <ele>137.5</ele>
        <time>2019-10-21T04:04:06Z</time>
      </trkpt>
      <trkpt lat="47.65483" lon="2.77208">
        <ele>137.2</ele>
        <time>2019-10-21T04:03:51Z</time>
      </trkpt>
      <trkpt lat="47.65632" lon="2.77246">
        <ele>137.9</ele>
        <time>2019-10-21T04:03:10Z</time>
      </trkpt>
      <trkpt lat="47.65687" lon="2.77263">
        <ele>137.7</ele>
        <time>2019-10-21T04:02:55Z</time>
      </trkpt>
      <trkpt lat="47.65694" lon="2.77265">
        <ele>137.5</ele>
        <time>2019-10-21T04:02:54Z</time>
      </trkpt>
      <trkpt lat="47.65698" lon="2.77267">
        <ele>137.4</ele>
        <time>2019-10-21T04:02:52Z</time>
      </trkpt>
      <trkpt lat="47.65718" lon="2.77269">
        <ele>137.6</ele>
        <time>2019-10-21T04:02:47Z</time>
      </trkpt>
      <trkpt lat="47.65729" lon="2.77272">
        <ele>137.8</ele>
        <time>2019-10-21T04:02:44Z</time>
      </trkpt>
      <trkpt lat="47.65745" lon="2.77278">
        <ele>138</ele>
        <time>2019-10-21T04:02:40Z</time>
      </trkpt>
      <trkpt lat="47.65779" lon="2.77316">
        <ele>137.6</ele>
        <time>2019-10-21T04:02:28Z</time>
      </trkpt>
      <trkpt lat="47.65802" lon="2.77359">
        <ele>137.9</ele>
        <time>2019-10-21T04:02:18Z</time>
      </trkpt>
      <trkpt lat="47.65814" lon="2.77394">
        <ele>137.3</ele>
        <time>2019-10-21T04:02:11Z</time>
      </trkpt>
      <trkpt lat="47.65834" lon="2.77484">
        <ele>138.4</ele>
        <time>2019-10-21T04:01:54Z</time>
      </trkpt>
      <trkpt lat="47.65841" lon="2.77497">
        <ele>138.9</ele>
        <time>2019-10-21T04:01:51Z</time>
      </trkpt>
      <trkpt lat="47.6584" lon="2.77504">
        <ele>139.2</ele>
        <time>2019-10-21T04:01:50Z</time>
      </trkpt>
      <trkpt lat="47.65832" lon="2.77509">
        <ele>139.6</ele>
        <time>2019-10-21T04:01:48Z</time>
      </trkpt>
      <trkpt lat="47.65823" lon="2.77515">
        <ele>139.5</ele>
        <time>2019-10-21T04:01:45Z</time>
      </trkpt>
      <trkpt lat="47.65819" lon="2.77519">
        <ele>139.3</ele>
        <time>2019-10-21T04:01:44Z</time>
      </trkpt>
      <trkpt lat="47.65832" lon="2.77551">
        <ele>140.9</ele>
        <time>2019-10-21T04:01:37Z</time>
      </trkpt>
      <trkpt lat="47.65838" lon="2.77595">
        <ele>140.6</ele>
        <time>2019-10-21T04:01:29Z</time>
      </trkpt>
      <trkpt lat="47.65846" lon="2.77639">
        <ele>139.9</ele>
        <time>2019-10-21T04:01:21Z</time>
      </trkpt>
      <trkpt lat="47.65854" lon="2.77676">
        <ele>140.2</ele>
        <time>2019-10-21T04:01:14Z</time>
      </trkpt>
      <trkpt lat="47.65861" lon="2.777">
        <ele>140.8</ele>
        <time>2019-10-21T04:01:09Z</time>
      </trkpt>
      <trkpt lat="47.65869" lon="2.77723">
        <ele>140.2</ele>
        <time>2019-10-21T04:01:04Z</time>
      </trkpt>
      <trkpt lat="47.65885" lon="2.77758">
        <ele>139.8</ele>
        <time>2019-10-21T04:00:57Z</time>
      </trkpt>
      <trkpt lat="47.65993" lon="2.77857">
        <ele>140.4</ele>
        <time>2019-10-21T04:00:23Z</time>
      </trkpt>
      <trkpt lat="47.65997" lon="2.77862">
        <ele>140.6</ele>
        <time>2019-10-21T04:00:22Z</time>
      </trkpt>
      <trkpt lat="47.66026" lon="2.77895">
        <ele>140.5</ele>
        <time>2019-10-21T04:00:12Z</time>
      </trkpt>
      <trkpt lat="47.66134" lon="2.78053">
        <ele>140.7</ele>
        <time>2019-10-21T03:59:31Z</time>
      </trkpt>
      <trkpt lat="47.66242" lon="2.78209">
        <ele>140.7</ele>
        <time>2019-10-21T03:58:51Z</time>
      </trkpt>
      <trkpt lat="47.66401" lon="2.78439">
        <ele>140.5</ele>
        <time>2019-10-21T03:57:52Z</time>
      </trkpt>
      <trkpt lat="47.66446" lon="2.78505">
        <ele>140.8</ele>
        <time>2019-10-21T03:57:35Z</time>
      </trkpt>
      <trkpt lat="47.66468" lon="2.78565">
        <ele>140.8</ele>
        <time>2019-10-21T03:57:22Z</time>
      </trkpt>
      <trkpt lat="47.66483" lon="2.78617">
        <ele>140.5</ele>
        <time>2019-10-21T03:57:12Z</time>
      </trkpt>
      <trkpt lat="47.66487" lon="2.78641">
        <ele>141</ele>
        <time>2019-10-21T03:57:08Z</time>
      </trkpt>
      <trkpt lat="47.66488" lon="2.7867">
        <ele>141</ele>
        <time>2019-10-21T03:57:03Z</time>
      </trkpt>
      <trkpt lat="47.66495" lon="2.78788">
        <ele>142.4</ele>
        <time>2019-10-21T03:56:41Z</time>
      </trkpt>
      <trkpt lat="47.66499" lon="2.78825">
        <ele>144.6</ele>
        <time>2019-10-21T03:56:35Z</time>
      </trkpt>
      <trkpt lat="47.66498" lon="2.78855">
        <ele>144.8</ele>
        <time>2019-10-21T03:56:29Z</time>
      </trkpt>
      <trkpt lat="47.66501" lon="2.78897">
        <ele>144.7</ele>
        <time>2019-10-21T03:56:22Z</time>
      </trkpt>
      <trkpt lat="47.66507" lon="2.78941">
        <ele>143.6</ele>
        <time>2019-10-21T03:56:13Z</time>
      </trkpt>
      <trkpt lat="47.66515" lon="2.79036">
        <ele>143.6</ele>
        <time>2019-10-21T03:55:56Z</time>
      </trkpt>
      <trkpt lat="47.66525" lon="2.79077">
        <ele>144</ele>
        <time>2019-10-21T03:55:48Z</time>
      </trkpt>
      <trkpt lat="47.66561" lon="2.79161">
        <ele>143.7</ele>
        <time>2019-10-21T03:55:30Z</time>
      </trkpt>
      <trkpt lat="47.66575" lon="2.79188">
        <ele>143.9</ele>
        <time>2019-10-21T03:55:24Z</time>
      </trkpt>
      <trkpt lat="47.66588" lon="2.79214">
        <ele>143.2</ele>
        <time>2019-10-21T03:55:19Z</time>
      </trkpt>
      <trkpt lat="47.6664" lon="2.79278">
        <ele>144</ele>
        <time>2019-10-21T03:55:00Z</time>
      </trkpt>
      <trkpt lat="47.66668" lon="2.79312">
        <ele>144.6</ele>
        <time>2019-10-21T03:54:51Z</time>
      </trkpt>
      <trkpt lat="47.66696" lon="2.79368">
        <ele>144.8</ele>
        <time>2019-10-21T03:54:38Z</time>
      </trkpt>
      <trkpt lat="47.66716" lon="2.79422">
        <ele>144.6</ele>
        <time>2019-10-21T03:54:27Z</time>
      </trkpt>
      <trkpt lat="47.66738" lon="2.79503">
        <ele>144.1</ele>
        <time>2019-10-21T03:54:11Z</time>
      </trkpt>
      <trkpt lat="47.66748" lon="2.79557">
        <ele>145.7</ele>
        <time>2019-10-21T03:54:01Z</time>
      </trkpt>
      <trkpt lat="47.66754" lon="2.79606">
        <ele>145.1</ele>
        <time>2019-10-21T03:53:52Z</time>
      </trkpt>
      <trkpt lat="47.66758" lon="2.79696">
        <ele>143.9</ele>
        <time>2019-10-21T03:53:36Z</time>
      </trkpt>
      <trkpt lat="47.6676" lon="2.7983">
        <ele>144.1</ele>
        <time>2019-10-21T03:53:12Z</time>
      </trkpt>
      <trkpt lat="47.66761" lon="2.79847">
        <ele>144.2</ele>
        <time>2019-10-21T03:53:09Z</time>
      </trkpt>
      <trkpt lat="47.66762" lon="2.79953">
        <ele>144.3</ele>
        <time>2019-10-21T03:52:50Z</time>
      </trkpt>
      <trkpt lat="47.66767" lon="2.8002">
        <ele>145.2</ele>
        <time>2019-10-21T03:52:38Z</time>
      </trkpt>
      <trkpt lat="47.6677" lon="2.80067">
        <ele>145.4</ele>
        <time>2019-10-21T03:52:29Z</time>
      </trkpt>
      <trkpt lat="47.66773" lon="2.80109">
        <ele>145.7</ele>
        <time>2019-10-21T03:52:22Z</time>
      </trkpt>
      <trkpt lat="47.6679" lon="2.80158">
        <ele>145.1</ele>
        <time>2019-10-21T03:52:12Z</time>
      </trkpt>
      <trkpt lat="47.66811" lon="2.80227">
        <ele>145.1</ele>
        <time>2019-10-21T03:51:58Z</time>
      </trkpt>
      <trkpt lat="47.66839" lon="2.80295">
        <ele>145</ele>
        <time>2019-10-21T03:51:44Z</time>
      </trkpt>
      <trkpt lat="47.66862" lon="2.80347">
        <ele>145.1</ele>
        <time>2019-10-21T03:51:33Z</time>
      </trkpt>
      <trkpt lat="47.66874" lon="2.80394">
        <ele>144.9</ele>
        <time>2019-10-21T03:51:24Z</time>
      </trkpt>
      <trkpt lat="47.6688" lon="2.80443">
        <ele>145.4</ele>
        <time>2019-10-21T03:51:15Z</time>
      </trkpt>
      <trkpt lat="47.66886" lon="2.80599">
        <ele>145.9</ele>
        <time>2019-10-21T03:50:47Z</time>
      </trkpt>
      <trkpt lat="47.66888" lon="2.80655">
        <ele>146</ele>
        <time>2019-10-21T03:50:36Z</time>
      </trkpt>
      <trkpt lat="47.66892" lon="2.80734">
        <ele>146</ele>
        <time>2019-10-21T03:50:22Z</time>
      </trkpt>
      <trkpt lat="47.66893" lon="2.80751">
        <ele>146</ele>
        <time>2019-10-21T03:50:19Z</time>
      </trkpt>
      <trkpt lat="47.66896" lon="2.80817">
        <ele>146.7</ele>
        <time>2019-10-21T03:50:07Z</time>
      </trkpt>
      <trkpt lat="47.66901" lon="2.80871">
        <ele>146.8</ele>
        <time>2019-10-21T03:49:57Z</time>
      </trkpt>
      <trkpt lat="47.66907" lon="2.80902">
        <ele>146.9</ele>
        <time>2019-10-21T03:49:52Z</time>
      </trkpt>
      <trkpt lat="47.66916" lon="2.80936">
        <ele>147.5</ele>
        <time>2019-10-21T03:49:45Z</time>
      </trkpt>
      <trkpt lat="47.6693" lon="2.80966">
        <ele>147.4</ele>
        <time>2019-10-21T03:49:38Z</time>
      </trkpt>
      <trkpt lat="47.66968" lon="2.81024">
        <ele>147.3</ele>
        <time>2019-10-21T03:49:24Z</time>
      </trkpt>
      <trkpt lat="47.67001" lon="2.8107">
        <ele>147.5</ele>
        <time>2019-10-21T03:49:12Z</time>
      </trkpt>
      <trkpt lat="47.6703" lon="2.81096">
        <ele>147.7</ele>
        <time>2019-10-21T03:49:03Z</time>
      </trkpt>
      <trkpt lat="47.67049" lon="2.81111">
        <ele>146.9</ele>
        <time>2019-10-21T03:48:57Z</time>
      </trkpt>
      <trkpt lat="47.67093" lon="2.81148">
        <ele>148.6</ele>
        <time>2019-10-21T03:48:44Z</time>
      </trkpt>
      <trkpt lat="47.6712" lon="2.81169">
        <ele>149.9</ele>
        <time>2019-10-21T03:48:35Z</time>
      </trkpt>
      <trkpt lat="47.67123" lon="2.81171">
        <ele>150</ele>
        <time>2019-10-21T03:48:34Z</time>
      </trkpt>
      <trkpt lat="47.67167" lon="2.81199">
        <ele>150.3</ele>
        <time>2019-10-21T03:48:22Z</time>
      </trkpt>
      <trkpt lat="47.67205" lon="2.81223">
        <ele>149.7</ele>
        <time>2019-10-21T03:48:11Z</time>
      </trkpt>
      <trkpt lat="47.67247" lon="2.81255">
        <ele>149.4</ele>
        <time>2019-10-21T03:47:58Z</time>
      </trkpt>
      <trkpt lat="47.67285" lon="2.81285">
        <ele>150</ele>
        <time>2019-10-21T03:47:47Z</time>
      </trkpt>
      <trkpt lat="47.67315" lon="2.81322">
        <ele>149.7</ele>
        <time>2019-10-21T03:47:36Z</time>
      </trkpt>
      <trkpt lat="47.67345" lon="2.81398">
        <ele>149.6</ele>
        <time>2019-10-21T03:47:20Z</time>
      </trkpt>
      <trkpt lat="47.67354" lon="2.81441">
        <ele>149.3</ele>
        <time>2019-10-21T03:47:12Z</time>
      </trkpt>
      <trkpt lat="47.67359" lon="2.81516">
        <ele>149.2</ele>
        <time>2019-10-21T03:46:59Z</time>
      </trkpt>
      <trkpt lat="47.67364" lon="2.81593">
        <ele>149</ele>
        <time>2019-10-21T03:46:45Z</time>
      </trkpt>
      <trkpt lat="47.67371" lon="2.81644">
        <ele>149</ele>
        <time>2019-10-21T03:46:35Z</time>
      </trkpt>
      <trkpt lat="47.67388" lon="2.8169">
        <ele>148.2</ele>
        <time>2019-10-21T03:46:26Z</time>
      </trkpt>
      <trkpt lat="47.67414" lon="2.81737">
        <ele>149</ele>
        <time>2019-10-21T03:46:15Z</time>
      </trkpt>
      <trkpt lat="47.67441" lon="2.81778">
        <ele>149</ele>
        <time>2019-10-21T03:46:05Z</time>
      </trkpt>
      <trkpt lat="47.67463" lon="2.81814">
        <ele>148.8</ele>
        <time>2019-10-21T03:45:56Z</time>
      </trkpt>
      <trkpt lat="47.67488" lon="2.81853">
        <ele>149</ele>
        <time>2019-10-21T03:45:46Z</time>
      </trkpt>
      <trkpt lat="47.6751" lon="2.81878">
        <ele>149.4</ele>
        <time>2019-10-21T03:45:39Z</time>
      </trkpt>
      <trkpt lat="47.67526" lon="2.81894">
        <ele>149.4</ele>
        <time>2019-10-21T03:45:34Z</time>
      </trkpt>
      <trkpt lat="47.67537" lon="2.81902">
        <ele>149.6</ele>
        <time>2019-10-21T03:45:30Z</time>
      </trkpt>
      <trkpt lat="47.67563" lon="2.81919">
        <ele>149.1</ele>
        <time>2019-10-21T03:45:23Z</time>
      </trkpt>
      <trkpt lat="47.67595" lon="2.8194">
        <ele>149.5</ele>
        <time>2019-10-21T03:45:13Z</time>
      </trkpt>
      <trkpt lat="47.67606" lon="2.81949">
        <ele>149.3</ele>
        <time>2019-10-21T03:45:10Z</time>
      </trkpt>
      <trkpt lat="47.67627" lon="2.81973">
        <ele>149.4</ele>
        <time>2019-10-21T03:45:03Z</time>
      </trkpt>
      <trkpt lat="47.67649" lon="2.82004">
        <ele>149.1</ele>
        <time>2019-10-21T03:44:55Z</time>
      </trkpt>
      <trkpt lat="47.67678" lon="2.82043">
        <ele>149.3</ele>
        <time>2019-10-21T03:44:44Z</time>
      </trkpt>
      <trkpt lat="47.67705" lon="2.82082">
        <ele>149</ele>
        <time>2019-10-21T03:44:34Z</time>
      </trkpt>
      <trkpt lat="47.67709" lon="2.82086">
        <ele>149</ele>
        <time>2019-10-21T03:44:33Z</time>
      </trkpt>
      <trkpt lat="47.67778" lon="2.82183">
        <ele>149</ele>
        <time>2019-10-21T03:44:08Z</time>
      </trkpt>
      <trkpt lat="47.67789" lon="2.82205">
        <ele>149.7</ele>
        <time>2019-10-21T03:44:03Z</time>
      </trkpt>
      <trkpt lat="47.67802" lon="2.82229">
        <ele>149.5</ele>
        <time>2019-10-21T03:43:57Z</time>
      </trkpt>
      <trkpt lat="47.6782" lon="2.8228">
        <ele>150</ele>
        <time>2019-10-21T03:43:47Z</time>
      </trkpt>
      <trkpt lat="47.67839" lon="2.82328">
        <ele>149.6</ele>
        <time>2019-10-21T03:43:37Z</time>
      </trkpt>
      <trkpt lat="47.67847" lon="2.8235">
        <ele>150.1</ele>
        <time>2019-10-21T03:43:32Z</time>
      </trkpt>
      <trkpt lat="47.67882" lon="2.82447">
        <ele>149.4</ele>
        <time>2019-10-21T03:43:13Z</time>
      </trkpt>
      <trkpt lat="47.67885" lon="2.82452">
        <ele>149.2</ele>
        <time>2019-10-21T03:43:11Z</time>
      </trkpt>
      <trkpt lat="47.67906" lon="2.82459">
        <ele>149</ele>
        <time>2019-10-21T03:43:06Z</time>
      </trkpt>
      <trkpt lat="47.67922" lon="2.82499">
        <ele>149</ele>
        <time>2019-10-21T03:42:57Z</time>
      </trkpt>
      <trkpt lat="47.67943" lon="2.82526">
        <ele>149</ele>
        <time>2019-10-21T03:42:50Z</time>
      </trkpt>
      <trkpt lat="47.67963" lon="2.82546">
        <ele>149</ele>
        <time>2019-10-21T03:42:43Z</time>
      </trkpt>
      <trkpt lat="47.67984" lon="2.82564">
        <ele>149.3</ele>
        <time>2019-10-21T03:42:37Z</time>
      </trkpt>
      <trkpt lat="47.68015" lon="2.82589">
        <ele>150.5</ele>
        <time>2019-10-21T03:42:27Z</time>
      </trkpt>
      <trkpt lat="47.68067" lon="2.82591">
        <ele>150</ele>
        <time>2019-10-21T03:42:14Z</time>
      </trkpt>
      <trkpt lat="47.68106" lon="2.82595">
        <ele>149.8</ele>
        <time>2019-10-21T03:42:03Z</time>
      </trkpt>
      <trkpt lat="47.68144" lon="2.82604">
        <ele>149.7</ele>
        <time>2019-10-21T03:41:53Z</time>
      </trkpt>
      <trkpt lat="47.68172" lon="2.82621">
        <ele>149.5</ele>
        <time>2019-10-21T03:41:45Z</time>
      </trkpt>
      <trkpt lat="47.68241" lon="2.82679">
        <ele>151.2</ele>
        <time>2019-10-21T03:41:24Z</time>
      </trkpt>
      <trkpt lat="47.68243" lon="2.82681">
        <ele>151.2</ele>
        <time>2019-10-21T03:41:23Z</time>
      </trkpt>
      <trkpt lat="47.68245" lon="2.82677">
        <ele>151.4</ele>
        <time>2019-10-21T03:41:22Z</time>
      </trkpt>
      <trkpt lat="47.6825" lon="2.82665">
        <ele>151.9</ele>
        <time>2019-10-21T03:41:20Z</time>
      </trkpt>
      <trkpt lat="47.68253" lon="2.8266">
        <ele>151.7</ele>
        <time>2019-10-21T03:41:18Z</time>
      </trkpt>
      <trkpt lat="47.68279" lon="2.82605">
        <ele>153.5</ele>
        <time>2019-10-21T03:41:06Z</time>
      </trkpt>
      <trkpt lat="47.68281" lon="2.826">
        <ele>154</ele>
        <time>2019-10-21T03:41:05Z</time>
      </trkpt>
      <trkpt lat="47.68369" lon="2.82678">
        <ele>154.6</ele>
        <time>2019-10-21T03:40:38Z</time>
      </trkpt>
      <trkpt lat="47.68445" lon="2.82767">
        <ele>155.5</ele>
        <time>2019-10-21T03:40:12Z</time>
      </trkpt>
      <trkpt lat="47.68491" lon="2.8293">
        <ele>159.7</ele>
        <time>2019-10-21T03:39:40Z</time>
      </trkpt>
      <trkpt lat="47.68522" lon="2.83016">
        <ele>162.9</ele>
        <time>2019-10-21T03:39:23Z</time>
      </trkpt>
      <trkpt lat="47.68544" lon="2.83033">
        <ele>164.3</ele>
        <time>2019-10-21T03:39:16Z</time>
      </trkpt>
      <trkpt lat="47.68581" lon="2.83089">
        <ele>166.2</ele>
        <time>2019-10-21T03:39:02Z</time>
      </trkpt>
      <trkpt lat="47.68622" lon="2.83179">
        <ele>167.2</ele>
        <time>2019-10-21T03:38:42Z</time>
      </trkpt>
      <trkpt lat="47.68683" lon="2.83305">
        <ele>166.6</ele>
        <time>2019-10-21T03:38:14Z</time>
      </trkpt>
      <trkpt lat="47.6878" lon="2.83467">
        <ele>167</ele>
        <time>2019-10-21T03:37:35Z</time>
      </trkpt>
      <trkpt lat="47.68876" lon="2.83643">
        <ele>164.9</ele>
        <time>2019-10-21T03:36:55Z</time>
      </trkpt>
      <trkpt lat="47.68879" lon="2.8365">
        <ele>164.9</ele>
        <time>2019-10-21T03:36:53Z</time>
      </trkpt>
      <trkpt lat="47.68884" lon="2.83658">
        <ele>164.9</ele>
        <time>2019-10-21T03:36:51Z</time>
      </trkpt>
      <trkpt lat="47.68957" lon="2.83802">
        <ele>162.1</ele>
        <time>2019-10-21T03:36:19Z</time>
      </trkpt>
      <trkpt lat="47.69045" lon="2.83907">
        <ele>163.4</ele>
        <time>2019-10-21T03:35:49Z</time>
      </trkpt>
      <trkpt lat="47.6906" lon="2.83918">
        <ele>164.1</ele>
        <time>2019-10-21T03:35:44Z</time>
      </trkpt>
      <trkpt lat="47.69076" lon="2.83918">
        <ele>164.7</ele>
        <time>2019-10-21T03:35:40Z</time>
      </trkpt>
      <trkpt lat="47.69094" lon="2.83922">
        <ele>164.8</ele>
        <time>2019-10-21T03:35:35Z</time>
      </trkpt>
      <trkpt lat="47.69096" lon="2.83946">
        <ele>163.9</ele>
        <time>2019-10-21T03:35:31Z</time>
      </trkpt>
      <trkpt lat="47.69094" lon="2.83985">
        <ele>163</ele>
        <time>2019-10-21T03:35:24Z</time>
      </trkpt>
      <trkpt lat="47.69098" lon="2.84027">
        <ele>163</ele>
        <time>2019-10-21T03:35:16Z</time>
      </trkpt>
      <trkpt lat="47.6911" lon="2.84077">
        <ele>162</ele>
        <time>2019-10-21T03:35:06Z</time>
      </trkpt>
      <trkpt lat="47.69119" lon="2.84138">
        <ele>161.6</ele>
        <time>2019-10-21T03:34:55Z</time>
      </trkpt>
      <trkpt lat="47.6913" lon="2.8416">
        <ele>161.6</ele>
        <time>2019-10-21T03:34:50Z</time>
      </trkpt>
      <trkpt lat="47.69139" lon="2.84176">
        <ele>161.7</ele>
        <time>2019-10-21T03:34:47Z</time>
      </trkpt>
      <trkpt lat="47.6915" lon="2.84179">
        <ele>162.1</ele>
        <time>2019-10-21T03:34:44Z</time>
      </trkpt>
      <trkpt lat="47.69178" lon="2.84175">
        <ele>163.3</ele>
        <time>2019-10-21T03:34:36Z</time>
      </trkpt>
      <trkpt lat="47.692" lon="2.84162">
        <ele>164</ele>
        <time>2019-10-21T03:34:30Z</time>
      </trkpt>
      <trkpt lat="47.69207" lon="2.84152">
        <ele>164</ele>
        <time>2019-10-21T03:34:27Z</time>
      </trkpt>
      <trkpt lat="47.69216" lon="2.84138">
        <ele>164</ele>
        <time>2019-10-21T03:34:24Z</time>
      </trkpt>
      <trkpt lat="47.69329" lon="2.84071">
        <ele>164.1</ele>
        <time>2019-10-21T03:33:51Z</time>
      </trkpt>
      <trkpt lat="47.69442" lon="2.84002">
        <ele>163.1</ele>
        <time>2019-10-21T03:33:19Z</time>
      </trkpt>
      <trkpt lat="47.69467" lon="2.83987">
        <ele>162.6</ele>
        <time>2019-10-21T03:33:11Z</time>
      </trkpt>
      <trkpt lat="47.69842" lon="2.84024">
        <ele>163.9</ele>
        <time>2019-10-21T03:31:31Z</time>
      </trkpt>
      <trkpt lat="47.69867" lon="2.84043">
        <ele>164</ele>
        <time>2019-10-21T03:31:23Z</time>
      </trkpt>
      <trkpt lat="47.699" lon="2.84077">
        <ele>164</ele>
        <time>2019-10-21T03:31:13Z</time>
      </trkpt>
      <trkpt lat="47.70002" lon="2.84197">
        <ele>165</ele>
        <time>2019-10-21T03:30:38Z</time>
      </trkpt>
      <trkpt lat="47.69996" lon="2.8423">
        <ele>165</ele>
        <time>2019-10-21T03:30:32Z</time>
      </trkpt>
      <trkpt lat="47.69991" lon="2.84284">
        <ele>164</ele>
        <time>2019-10-21T03:30:22Z</time>
      </trkpt>
      <trkpt lat="47.69991" lon="2.84313">
        <ele>164.6</ele>
        <time>2019-10-21T03:30:17Z</time>
      </trkpt>
      <trkpt lat="47.69992" lon="2.84325">
        <ele>165.7</ele>
        <time>2019-10-21T03:30:15Z</time>
      </trkpt>
      <trkpt lat="47.69995" lon="2.84347">
        <ele>166.6</ele>
        <time>2019-10-21T03:30:11Z</time>
      </trkpt>
      <trkpt lat="47.69995" lon="2.84356">
        <ele>166.5</ele>
        <time>2019-10-21T03:30:09Z</time>
      </trkpt>
      <trkpt lat="47.69997" lon="2.84368">
        <ele>166.5</ele>
        <time>2019-10-21T03:30:07Z</time>
      </trkpt>
      <trkpt lat="47.70016" lon="2.84358">
        <ele>166.5</ele>
        <time>2019-10-21T03:30:01Z</time>
      </trkpt>
      <trkpt lat="47.70046" lon="2.84353">
        <ele>166.1</ele>
        <time>2019-10-21T03:29:53Z</time>
      </trkpt>
      <trkpt lat="47.70096" lon="2.8434">
        <ele>166.3</ele>
        <time>2019-10-21T03:29:40Z</time>
      </trkpt>
      <trkpt lat="47.70101" lon="2.84338">
        <ele>166.5</ele>
        <time>2019-10-21T03:29:38Z</time>
      </trkpt>
      <trkpt lat="47.70139" lon="2.84325">
        <ele>166</ele>
        <time>2019-10-21T03:29:28Z</time>
      </trkpt>
      <trkpt lat="47.70145" lon="2.84324">
        <ele>166</ele>
        <time>2019-10-21T03:29:26Z</time>
      </trkpt>
      <trkpt lat="47.70256" lon="2.8429">
        <ele>165.6</ele>
        <time>2019-10-21T03:28:56Z</time>
      </trkpt>
      <trkpt lat="47.70339" lon="2.84264">
        <ele>165.5</ele>
        <time>2019-10-21T03:28:33Z</time>
      </trkpt>
      <trkpt lat="47.70422" lon="2.84244">
        <ele>165.8</ele>
        <time>2019-10-21T03:28:11Z</time>
      </trkpt>
      <trkpt lat="47.70733" lon="2.84143">
        <ele>166.6</ele>
        <time>2019-10-21T03:26:46Z</time>
      </trkpt>
      <trkpt lat="47.70775" lon="2.84131">
        <ele>166.7</ele>
        <time>2019-10-21T03:26:34Z</time>
      </trkpt>
      <trkpt lat="47.70804" lon="2.84133">
        <ele>166.8</ele>
        <time>2019-10-21T03:26:27Z</time>
      </trkpt>
      <trkpt lat="47.70831" lon="2.84149">
        <ele>166.4</ele>
        <time>2019-10-21T03:26:19Z</time>
      </trkpt>
      <trkpt lat="47.71699" lon="2.84881">
        <ele>165.6</ele>
        <time>2019-10-21T03:21:52Z</time>
      </trkpt>
      <trkpt lat="47.72066" lon="2.85197">
        <ele>165.1</ele>
        <time>2019-10-21T03:19:59Z</time>
      </trkpt>
      <trkpt lat="47.7225" lon="2.85359">
        <ele>166.8</ele>
        <time>2019-10-21T03:19:02Z</time>
      </trkpt>
      <trkpt lat="47.72264" lon="2.85371">
        <ele>166</ele>
        <time>2019-10-21T03:18:57Z</time>
      </trkpt>
      <trkpt lat="47.7228" lon="2.85376">
        <ele>165.1</ele>
        <time>2019-10-21T03:18:53Z</time>
      </trkpt>
      <trkpt lat="47.72307" lon="2.85388">
        <ele>166.8</ele>
        <time>2019-10-21T03:18:46Z</time>
      </trkpt>
      <trkpt lat="47.72316" lon="2.85387">
        <ele>166.3</ele>
        <time>2019-10-21T03:18:43Z</time>
      </trkpt>
      <trkpt lat="47.72326" lon="2.85395">
        <ele>166</ele>
        <time>2019-10-21T03:18:40Z</time>
      </trkpt>
      <trkpt lat="47.72336" lon="2.8541">
        <ele>166.4</ele>
        <time>2019-10-21T03:18:36Z</time>
      </trkpt>
      <trkpt lat="47.72452" lon="2.85482">
        <ele>166.6</ele>
        <time>2019-10-21T03:18:03Z</time>
      </trkpt>
      <trkpt lat="47.73175" lon="2.85881">
        <ele>166.7</ele>
        <time>2019-10-21T03:14:37Z</time>
      </trkpt>
      <trkpt lat="47.73194" lon="2.85886">
        <ele>167.8</ele>
        <time>2019-10-21T03:14:32Z</time>
      </trkpt>
      <trkpt lat="47.73204" lon="2.85891">
        <ele>167.1</ele>
        <time>2019-10-21T03:14:29Z</time>
      </trkpt>
      <trkpt lat="47.73213" lon="2.85906">
        <ele>167.4</ele>
        <time>2019-10-21T03:14:25Z</time>
      </trkpt>
      <trkpt lat="47.73562" lon="2.861">
        <ele>166</ele>
        <time>2019-10-21T03:12:46Z</time>
      </trkpt>
      <trkpt lat="47.73603" lon="2.8612">
        <ele>165.5</ele>
        <time>2019-10-21T03:12:34Z</time>
      </trkpt>
      <trkpt lat="47.73628" lon="2.86141">
        <ele>165.1</ele>
        <time>2019-10-21T03:12:26Z</time>
      </trkpt>
      <trkpt lat="47.737" lon="2.86235">
        <ele>165.4</ele>
        <time>2019-10-21T03:12:01Z</time>
      </trkpt>
      <trkpt lat="47.73712" lon="2.86251">
        <ele>164.4</ele>
        <time>2019-10-21T03:11:56Z</time>
      </trkpt>
      <trkpt lat="47.73761" lon="2.86328">
        <ele>162.4</ele>
        <time>2019-10-21T03:11:37Z</time>
      </trkpt>
      <trkpt lat="47.73778" lon="2.86359">
        <ele>161.8</ele>
        <time>2019-10-21T03:11:30Z</time>
      </trkpt>
      <trkpt lat="47.73784" lon="2.86375">
        <ele>162.1</ele>
        <time>2019-10-21T03:11:27Z</time>
      </trkpt>
      <trkpt lat="47.73787" lon="2.86396">
        <ele>161.8</ele>
        <time>2019-10-21T03:11:23Z</time>
      </trkpt>
      <trkpt lat="47.73792" lon="2.86447">
        <ele>161</ele>
        <time>2019-10-21T03:11:14Z</time>
      </trkpt>
      <trkpt lat="47.73819" lon="2.86732">
        <ele>160.4</ele>
        <time>2019-10-21T03:10:22Z</time>
      </trkpt>
      <trkpt lat="47.73831" lon="2.86757">
        <ele>161</ele>
        <time>2019-10-21T03:10:17Z</time>
      </trkpt>
      <trkpt lat="47.73855" lon="2.86795">
        <ele>160.8</ele>
        <time>2019-10-21T03:10:07Z</time>
      </trkpt>
      <trkpt lat="47.73874" lon="2.8682">
        <ele>161</ele>
        <time>2019-10-21T03:10:00Z</time>
      </trkpt>
      <trkpt lat="47.73884" lon="2.8684">
        <ele>160.2</ele>
        <time>2019-10-21T03:09:56Z</time>
      </trkpt>
      <trkpt lat="47.73888" lon="2.86849">
        <ele>160.6</ele>
        <time>2019-10-21T03:09:54Z</time>
      </trkpt>
      <trkpt lat="47.73957" lon="2.86964">
        <ele>157.9</ele>
        <time>2019-10-21T03:09:26Z</time>
      </trkpt>
      <trkpt lat="47.74004" lon="2.87045">
        <ele>158</ele>
        <time>2019-10-21T03:09:07Z</time>
      </trkpt>
      <trkpt lat="47.74023" lon="2.87073">
        <ele>157.7</ele>
        <time>2019-10-21T03:09:00Z</time>
      </trkpt>
      <trkpt lat="47.74034" lon="2.8709">
        <ele>157.7</ele>
        <time>2019-10-21T03:08:56Z</time>
      </trkpt>
      <trkpt lat="47.74053" lon="2.87127">
        <ele>156.4</ele>
        <time>2019-10-21T03:08:47Z</time>
      </trkpt>
      <trkpt lat="47.74139" lon="2.87273">
        <ele>152.8</ele>
        <time>2019-10-21T03:08:12Z</time>
      </trkpt>
      <trkpt lat="47.74162" lon="2.87309">
        <ele>152.4</ele>
        <time>2019-10-21T03:08:04Z</time>
      </trkpt>
      <trkpt lat="47.74169" lon="2.87337">
        <ele>153.8</ele>
        <time>2019-10-21T03:07:58Z</time>
      </trkpt>
      <trkpt lat="47.74173" lon="2.87373">
        <ele>153.1</ele>
        <time>2019-10-21T03:07:52Z</time>
      </trkpt>
      <trkpt lat="47.7417" lon="2.87417">
        <ele>153.9</ele>
        <time>2019-10-21T03:07:44Z</time>
      </trkpt>
      <trkpt lat="47.74163" lon="2.87477">
        <ele>150.1</ele>
        <time>2019-10-21T03:07:33Z</time>
      </trkpt>
      <trkpt lat="47.74155" lon="2.8755">
        <ele>149.7</ele>
        <time>2019-10-21T03:07:19Z</time>
      </trkpt>
      <trkpt lat="47.74154" lon="2.8764">
        <ele>149.3</ele>
        <time>2019-10-21T03:07:03Z</time>
      </trkpt>
      <trkpt lat="47.74158" lon="2.87683">
        <ele>149.1</ele>
        <time>2019-10-21T03:06:55Z</time>
      </trkpt>
      <trkpt lat="47.74168" lon="2.87732">
        <ele>149.3</ele>
        <time>2019-10-21T03:06:46Z</time>
      </trkpt>
      <trkpt lat="47.74179" lon="2.87763">
        <ele>149.8</ele>
        <time>2019-10-21T03:06:40Z</time>
      </trkpt>
      <trkpt lat="47.74184" lon="2.87776">
        <ele>150</ele>
        <time>2019-10-21T03:06:37Z</time>
      </trkpt>
      <trkpt lat="47.74188" lon="2.87793">
        <ele>147.9</ele>
        <time>2019-10-21T03:06:34Z</time>
      </trkpt>
      <trkpt lat="47.74193" lon="2.87831">
        <ele>147.9</ele>
        <time>2019-10-21T03:06:27Z</time>
      </trkpt>
      <trkpt lat="47.74212" lon="2.87823">
        <ele>148.5</ele>
        <time>2019-10-21T03:06:22Z</time>
      </trkpt>
      <trkpt lat="47.74223" lon="2.87817">
        <ele>149.6</ele>
        <time>2019-10-21T03:06:19Z</time>
      </trkpt>
      <trkpt lat="47.74227" lon="2.87832">
        <ele>149.2</ele>
        <time>2019-10-21T03:06:16Z</time>
      </trkpt>
      <trkpt lat="47.74229" lon="2.87843">
        <ele>148.6</ele>
        <time>2019-10-21T03:06:14Z</time>
      </trkpt>
      <trkpt lat="47.74239" lon="2.87885">
        <ele>146.7</ele>
        <time>2019-10-21T03:06:06Z</time>
      </trkpt>
      <trkpt lat="47.74248" lon="2.87925">
        <ele>146.4</ele>
        <time>2019-10-21T03:05:58Z</time>
      </trkpt>
      <trkpt lat="47.74249" lon="2.87932">
        <ele>146.3</ele>
        <time>2019-10-21T03:05:57Z</time>
      </trkpt>
      <trkpt lat="47.74255" lon="2.87946">
        <ele>146.1</ele>
        <time>2019-10-21T03:05:54Z</time>
      </trkpt>
      <trkpt lat="47.74269" lon="2.87973">
        <ele>145.3</ele>
        <time>2019-10-21T03:05:48Z</time>
      </trkpt>
      <trkpt lat="47.74293" lon="2.88004">
        <ele>144.9</ele>
        <time>2019-10-21T03:05:39Z</time>
      </trkpt>
      <trkpt lat="47.74327" lon="2.88039">
        <ele>144.5</ele>
        <time>2019-10-21T03:05:28Z</time>
      </trkpt>
      <trkpt lat="47.74354" lon="2.88072">
        <ele>144.4</ele>
        <time>2019-10-21T03:05:19Z</time>
      </trkpt>
      <trkpt lat="47.74366" lon="2.88083">
        <ele>144.8</ele>
        <time>2019-10-21T03:05:15Z</time>
      </trkpt>
      <trkpt lat="47.74374" lon="2.88088">
        <ele>144.2</ele>
        <time>2019-10-21T03:05:13Z</time>
      </trkpt>
      <trkpt lat="47.74378" lon="2.8809">
        <ele>143.9</ele>
        <time>2019-10-21T03:05:12Z</time>
      </trkpt>
      <trkpt lat="47.74397" lon="2.88097">
        <ele>142.1</ele>
        <time>2019-10-21T03:05:06Z</time>
      </trkpt>
      <trkpt lat="47.74407" lon="2.88103">
        <ele>141</ele>
        <time>2019-10-21T03:05:04Z</time>
      </trkpt>
      <trkpt lat="47.74411" lon="2.88105">
        <ele>140.7</ele>
        <time>2019-10-21T03:05:02Z</time>
      </trkpt>
      <trkpt lat="47.74436" lon="2.88121">
        <ele>141.3</ele>
        <time>2019-10-21T03:04:55Z</time>
      </trkpt>
      <trkpt lat="47.74438" lon="2.88122">
        <ele>141.3</ele>
        <time>2019-10-21T03:04:55Z</time>
      </trkpt>
      <trkpt lat="47.74442" lon="2.88126">
        <ele>141.4</ele>
        <time>2019-10-21T03:04:53Z</time>
      </trkpt>
      <trkpt lat="47.74464" lon="2.88123">
        <ele>142.4</ele>
        <time>2019-10-21T03:04:47Z</time>
      </trkpt>
      <trkpt lat="47.74478" lon="2.88121">
        <ele>142.8</ele>
        <time>2019-10-21T03:04:44Z</time>
      </trkpt>
      <trkpt lat="47.74488" lon="2.88115">
        <ele>142.8</ele>
        <time>2019-10-21T03:04:41Z</time>
      </trkpt>
      <trkpt lat="47.74497" lon="2.88104">
        <ele>142.2</ele>
        <time>2019-10-21T03:04:38Z</time>
      </trkpt>
      <trkpt lat="47.74524" lon="2.88096">
        <ele>141.6</ele>
        <time>2019-10-21T03:04:30Z</time>
      </trkpt>
      <trkpt lat="47.74777" lon="2.88012">
        <ele>141</ele>
        <time>2019-10-21T03:03:21Z</time>
      </trkpt>
      <trkpt lat="47.74847" lon="2.87989">
        <ele>141</ele>
        <time>2019-10-21T03:03:02Z</time>
      </trkpt>
      <trkpt lat="47.74861" lon="2.87983">
        <ele>141</ele>
        <time>2019-10-21T03:02:58Z</time>
      </trkpt>
      <trkpt lat="47.74927" lon="2.8796">
        <ele>140.6</ele>
        <time>2019-10-21T03:02:40Z</time>
      </trkpt>
      <trkpt lat="47.74984" lon="2.87948">
        <ele>141</ele>
        <time>2019-10-21T03:02:24Z</time>
      </trkpt>
      <trkpt lat="47.75014" lon="2.8795">
        <ele>141</ele>
        <time>2019-10-21T03:02:16Z</time>
      </trkpt>
      <trkpt lat="47.75058" lon="2.87956">
        <ele>140.9</ele>
        <time>2019-10-21T03:02:05Z</time>
      </trkpt>
      <trkpt lat="47.75173" lon="2.87985">
        <ele>140.9</ele>
        <time>2019-10-21T03:01:33Z</time>
      </trkpt>
      <trkpt lat="47.75449" lon="2.88112">
        <ele>142</ele>
        <time>2019-10-21T03:00:16Z</time>
      </trkpt>
      <trkpt lat="47.75568" lon="2.88112">
        <ele>142</ele>
        <time>2019-10-21T02:59:45Z</time>
      </trkpt>
      <trkpt lat="47.75828" lon="2.88119">
        <ele>140.6</ele>
        <time>2019-10-21T02:58:35Z</time>
      </trkpt>
      <trkpt lat="47.76072" lon="2.88132">
        <ele>141.8</ele>
        <time>2019-10-21T02:57:30Z</time>
      </trkpt>
      <trkpt lat="47.76292" lon="2.88142">
        <ele>142</ele>
        <time>2019-10-21T02:56:31Z</time>
      </trkpt>
      <trkpt lat="47.764" lon="2.8815">
        <ele>140.2</ele>
        <time>2019-10-21T02:56:02Z</time>
      </trkpt>
      <trkpt lat="47.7653" lon="2.88142">
        <ele>141.1</ele>
        <time>2019-10-21T02:55:27Z</time>
      </trkpt>
      <trkpt lat="47.76608" lon="2.88128">
        <ele>140.4</ele>
        <time>2019-10-21T02:55:06Z</time>
      </trkpt>
      <trkpt lat="47.76668" lon="2.88118">
        <ele>141.2</ele>
        <time>2019-10-21T02:54:50Z</time>
      </trkpt>
      <trkpt lat="47.76717" lon="2.88109">
        <ele>140.8</ele>
        <time>2019-10-21T02:54:37Z</time>
      </trkpt>
      <trkpt lat="47.76789" lon="2.88097">
        <ele>141</ele>
        <time>2019-10-21T02:54:18Z</time>
      </trkpt>
      <trkpt lat="47.76844" lon="2.88089">
        <ele>141.2</ele>
        <time>2019-10-21T02:54:03Z</time>
      </trkpt>
      <trkpt lat="47.76904" lon="2.88082">
        <ele>141.4</ele>
        <time>2019-10-21T02:53:47Z</time>
      </trkpt>
      <trkpt lat="47.76957" lon="2.88073">
        <ele>140.9</ele>
        <time>2019-10-21T02:53:33Z</time>
      </trkpt>
      <trkpt lat="47.77044" lon="2.88058">
        <ele>141.1</ele>
        <time>2019-10-21T02:53:09Z</time>
      </trkpt>
      <trkpt lat="47.77069" lon="2.88059">
        <ele>141.1</ele>
        <time>2019-10-21T02:53:02Z</time>
      </trkpt>
      <trkpt lat="47.77104" lon="2.8807">
        <ele>140.8</ele>
        <time>2019-10-21T02:52:53Z</time>
      </trkpt>
      <trkpt lat="47.77147" lon="2.88093">
        <ele>140.5</ele>
        <time>2019-10-21T02:52:41Z</time>
      </trkpt>
      <trkpt lat="47.77176" lon="2.88103">
        <ele>141.1</ele>
        <time>2019-10-21T02:52:33Z</time>
      </trkpt>
      <trkpt lat="47.77196" lon="2.88099">
        <ele>140.7</ele>
        <time>2019-10-21T02:52:27Z</time>
      </trkpt>
      <trkpt lat="47.77241" lon="2.88093">
        <ele>140.7</ele>
        <time>2019-10-21T02:52:15Z</time>
      </trkpt>
      <trkpt lat="47.77304" lon="2.88082">
        <ele>140.9</ele>
        <time>2019-10-21T02:51:58Z</time>
      </trkpt>
      <trkpt lat="47.77369" lon="2.88067">
        <ele>141.2</ele>
        <time>2019-10-21T02:51:41Z</time>
      </trkpt>
      <trkpt lat="47.77419" lon="2.88062">
        <ele>143.5</ele>
        <time>2019-10-21T02:51:27Z</time>
      </trkpt>
      <trkpt lat="47.77431" lon="2.88061">
        <ele>143.3</ele>
        <time>2019-10-21T02:51:24Z</time>
      </trkpt>
      <trkpt lat="47.77441" lon="2.88053">
        <ele>142.7</ele>
        <time>2019-10-21T02:51:21Z</time>
      </trkpt>
      <trkpt lat="47.77476" lon="2.88048">
        <ele>141.5</ele>
        <time>2019-10-21T02:51:12Z</time>
      </trkpt>
      <trkpt lat="47.77532" lon="2.88045">
        <ele>140.9</ele>
        <time>2019-10-21T02:50:57Z</time>
      </trkpt>
      <trkpt lat="47.77611" lon="2.88047">
        <ele>141.1</ele>
        <time>2019-10-21T02:50:36Z</time>
      </trkpt>
      <trkpt lat="47.77658" lon="2.88049">
        <ele>141.4</ele>
        <time>2019-10-21T02:50:23Z</time>
      </trkpt>
      <trkpt lat="47.77724" lon="2.88044">
        <ele>140.8</ele>
        <time>2019-10-21T02:50:05Z</time>
      </trkpt>
      <trkpt lat="47.77772" lon="2.88031">
        <ele>140.2</ele>
        <time>2019-10-21T02:49:52Z</time>
      </trkpt>
      <trkpt lat="47.77849" lon="2.88007">
        <ele>141.1</ele>
        <time>2019-10-21T02:49:31Z</time>
      </trkpt>
      <trkpt lat="47.77894" lon="2.87992">
        <ele>141.2</ele>
        <time>2019-10-21T02:49:19Z</time>
      </trkpt>
      <trkpt lat="47.77964" lon="2.87965">
        <ele>141.1</ele>
        <time>2019-10-21T02:49:00Z</time>
      </trkpt>
      <trkpt lat="47.78019" lon="2.87945">
        <ele>141.4</ele>
        <time>2019-10-21T02:48:45Z</time>
      </trkpt>
      <trkpt lat="47.78085" lon="2.87915">
        <ele>141.7</ele>
        <time>2019-10-21T02:48:26Z</time>
      </trkpt>
      <trkpt lat="47.78131" lon="2.87889">
        <ele>141.2</ele>
        <time>2019-10-21T02:48:13Z</time>
      </trkpt>
      <trkpt lat="47.78184" lon="2.87863">
        <ele>140.9</ele>
        <time>2019-10-21T02:47:58Z</time>
      </trkpt>
      <trkpt lat="47.78242" lon="2.87842">
        <ele>140.7</ele>
        <time>2019-10-21T02:47:42Z</time>
      </trkpt>
      <trkpt lat="47.78312" lon="2.87822">
        <ele>143</ele>
        <time>2019-10-21T02:47:23Z</time>
      </trkpt>
      <trkpt lat="47.78328" lon="2.87816">
        <ele>143.1</ele>
        <time>2019-10-21T02:47:19Z</time>
      </trkpt>
      <trkpt lat="47.78353" lon="2.87799">
        <ele>141.4</ele>
        <time>2019-10-21T02:47:11Z</time>
      </trkpt>
      <trkpt lat="47.78386" lon="2.87785">
        <ele>140.8</ele>
        <time>2019-10-21T02:47:02Z</time>
      </trkpt>
      <trkpt lat="47.78435" lon="2.87763">
        <ele>139.9</ele>
        <time>2019-10-21T02:46:49Z</time>
      </trkpt>
      <trkpt lat="47.78465" lon="2.8775">
        <ele>141.5</ele>
        <time>2019-10-21T02:46:40Z</time>
      </trkpt>
      <trkpt lat="47.78511" lon="2.87723">
        <ele>139.7</ele>
        <time>2019-10-21T02:46:27Z</time>
      </trkpt>
      <trkpt lat="47.78576" lon="2.87687">
        <ele>137.7</ele>
        <time>2019-10-21T02:46:08Z</time>
      </trkpt>
      <trkpt lat="47.78625" lon="2.87658">
        <ele>137.7</ele>
        <time>2019-10-21T02:45:54Z</time>
      </trkpt>
      <trkpt lat="47.78652" lon="2.87631">
        <ele>137.6</ele>
        <time>2019-10-21T02:45:46Z</time>
      </trkpt>
      <trkpt lat="47.78714" lon="2.87556">
        <ele>137.1</ele>
        <time>2019-10-21T02:45:24Z</time>
      </trkpt>
      <trkpt lat="47.78767" lon="2.8749">
        <ele>137.4</ele>
        <time>2019-10-21T02:45:06Z</time>
      </trkpt>
      <trkpt lat="47.78825" lon="2.8743">
        <ele>137.2</ele>
        <time>2019-10-21T02:44:47Z</time>
      </trkpt>
      <trkpt lat="47.78853" lon="2.87402">
        <ele>136.9</ele>
        <time>2019-10-21T02:44:38Z</time>
      </trkpt>
      <trkpt lat="47.7886" lon="2.87399">
        <ele>137.3</ele>
        <time>2019-10-21T02:44:36Z</time>
      </trkpt>
      <trkpt lat="47.7889" lon="2.87364">
        <ele>137</ele>
        <time>2019-10-21T02:44:26Z</time>
      </trkpt>
      <trkpt lat="47.78901" lon="2.87348">
        <ele>134.8</ele>
        <time>2019-10-21T02:44:22Z</time>
      </trkpt>
      <trkpt lat="47.79004" lon="2.87229">
        <ele>133.1</ele>
        <time>2019-10-21T02:43:47Z</time>
      </trkpt>
      <trkpt lat="47.79035" lon="2.87203">
        <ele>133.5</ele>
        <time>2019-10-21T02:43:37Z</time>
      </trkpt>
      <trkpt lat="47.79073" lon="2.87183">
        <ele>133.8</ele>
        <time>2019-10-21T02:43:27Z</time>
      </trkpt>
      <trkpt lat="47.79097" lon="2.87177">
        <ele>133.4</ele>
        <time>2019-10-21T02:43:20Z</time>
      </trkpt>
      <trkpt lat="47.79127" lon="2.87172">
        <ele>134.4</ele>
        <time>2019-10-21T02:43:12Z</time>
      </trkpt>
      <trkpt lat="47.79149" lon="2.87164">
        <ele>134.9</ele>
        <time>2019-10-21T02:43:06Z</time>
      </trkpt>
      <trkpt lat="47.79162" lon="2.87153">
        <ele>134.9</ele>
        <time>2019-10-21T02:43:02Z</time>
      </trkpt>
      <trkpt lat="47.79174" lon="2.8714">
        <ele>135.1</ele>
        <time>2019-10-21T02:42:58Z</time>
      </trkpt>
      <trkpt lat="47.79191" lon="2.87118">
        <ele>134.9</ele>
        <time>2019-10-21T02:42:52Z</time>
      </trkpt>
      <trkpt lat="47.79206" lon="2.87087">
        <ele>134.7</ele>
        <time>2019-10-21T02:42:45Z</time>
      </trkpt>
      <trkpt lat="47.79215" lon="2.87058">
        <ele>134.3</ele>
        <time>2019-10-21T02:42:39Z</time>
      </trkpt>
      <trkpt lat="47.79235" lon="2.87005">
        <ele>133.6</ele>
        <time>2019-10-21T02:42:29Z</time>
      </trkpt>
      <trkpt lat="47.79256" lon="2.86952">
        <ele>133.9</ele>
        <time>2019-10-21T02:42:17Z</time>
      </trkpt>
      <trkpt lat="47.79255" lon="2.86944">
        <ele>133.8</ele>
        <time>2019-10-21T02:42:16Z</time>
      </trkpt>
      <trkpt lat="47.79282" lon="2.86871">
        <ele>131.1</ele>
        <time>2019-10-21T02:42:01Z</time>
      </trkpt>
      <trkpt lat="47.79293" lon="2.86843">
        <ele>130.7</ele>
        <time>2019-10-21T02:41:55Z</time>
      </trkpt>
      <trkpt lat="47.79336" lon="2.86764">
        <ele>130.6</ele>
        <time>2019-10-21T02:41:37Z</time>
      </trkpt>
      <trkpt lat="47.79354" lon="2.86727">
        <ele>131</ele>
        <time>2019-10-21T02:41:29Z</time>
      </trkpt>
      <trkpt lat="47.79412" lon="2.86613">
        <ele>131</ele>
        <time>2019-10-21T02:41:03Z</time>
      </trkpt>
      <trkpt lat="47.79446" lon="2.86548">
        <ele>130.8</ele>
        <time>2019-10-21T02:40:48Z</time>
      </trkpt>
      <trkpt lat="47.79462" lon="2.8651">
        <ele>130.6</ele>
        <time>2019-10-21T02:40:40Z</time>
      </trkpt>
      <trkpt lat="47.79487" lon="2.86451">
        <ele>130.5</ele>
        <time>2019-10-21T02:40:28Z</time>
      </trkpt>
      <trkpt lat="47.79497" lon="2.86415">
        <ele>130.8</ele>
        <time>2019-10-21T02:40:21Z</time>
      </trkpt>
      <trkpt lat="47.79514" lon="2.86348">
        <ele>130.5</ele>
        <time>2019-10-21T02:40:08Z</time>
      </trkpt>
      <trkpt lat="47.79527" lon="2.86277">
        <ele>131</ele>
        <time>2019-10-21T02:39:55Z</time>
      </trkpt>
      <trkpt lat="47.79532" lon="2.86224">
        <ele>131.2</ele>
        <time>2019-10-21T02:39:45Z</time>
      </trkpt>
      <trkpt lat="47.7953" lon="2.86143">
        <ele>131</ele>
        <time>2019-10-21T02:39:31Z</time>
      </trkpt>
      <trkpt lat="47.79523" lon="2.86065">
        <ele>130.8</ele>
        <time>2019-10-21T02:39:16Z</time>
      </trkpt>
      <trkpt lat="47.79519" lon="2.86021">
        <ele>130.5</ele>
        <time>2019-10-21T02:39:08Z</time>
      </trkpt>
      <trkpt lat="47.79507" lon="2.85967">
        <ele>130.6</ele>
        <time>2019-10-21T02:38:58Z</time>
      </trkpt>
      <trkpt lat="47.79453" lon="2.85771">
        <ele>129.9</ele>
        <time>2019-10-21T02:38:20Z</time>
      </trkpt>
      <trkpt lat="47.79425" lon="2.85678">
        <ele>130.4</ele>
        <time>2019-10-21T02:38:02Z</time>
      </trkpt>
      <trkpt lat="47.79412" lon="2.85634">
        <ele>130.7</ele>
        <time>2019-10-21T02:37:53Z</time>
      </trkpt>
      <trkpt lat="47.79405" lon="2.85602">
        <ele>130.2</ele>
        <time>2019-10-21T02:37:47Z</time>
      </trkpt>
      <trkpt lat="47.79405" lon="2.8557">
        <ele>130.2</ele>
        <time>2019-10-21T02:37:42Z</time>
      </trkpt>
      <trkpt lat="47.7941" lon="2.85537">
        <ele>130.5</ele>
        <time>2019-10-21T02:37:35Z</time>
      </trkpt>
      <trkpt lat="47.79428" lon="2.85459">
        <ele>130.2</ele>
        <time>2019-10-21T02:37:21Z</time>
      </trkpt>
      <trkpt lat="47.79446" lon="2.85388">
        <ele>131</ele>
        <time>2019-10-21T02:37:07Z</time>
      </trkpt>
      <trkpt lat="47.7946" lon="2.8534">
        <ele>130.2</ele>
        <time>2019-10-21T02:36:58Z</time>
      </trkpt>
      <trkpt lat="47.79475" lon="2.85306">
        <ele>130.1</ele>
        <time>2019-10-21T02:36:50Z</time>
      </trkpt>
      <trkpt lat="47.79506" lon="2.85266">
        <ele>130.3</ele>
        <time>2019-10-21T02:36:39Z</time>
      </trkpt>
      <trkpt lat="47.79578" lon="2.8519">
        <ele>130.3</ele>
        <time>2019-10-21T02:36:16Z</time>
      </trkpt>
      <trkpt lat="47.79624" lon="2.8515">
        <ele>130.2</ele>
        <time>2019-10-21T02:36:02Z</time>
      </trkpt>
      <trkpt lat="47.79656" lon="2.85113">
        <ele>129.9</ele>
        <time>2019-10-21T02:35:51Z</time>
      </trkpt>
      <trkpt lat="47.79702" lon="2.85054">
        <ele>129.5</ele>
        <time>2019-10-21T02:35:35Z</time>
      </trkpt>
      <trkpt lat="47.79728" lon="2.85017">
        <ele>130.4</ele>
        <time>2019-10-21T02:35:25Z</time>
      </trkpt>
      <trkpt lat="47.79753" lon="2.84954">
        <ele>129.4</ele>
        <time>2019-10-21T02:35:12Z</time>
      </trkpt>
      <trkpt lat="47.79767" lon="2.84919">
        <ele>129.9</ele>
        <time>2019-10-21T02:35:04Z</time>
      </trkpt>
      <trkpt lat="47.79812" lon="2.84789">
        <ele>129.6</ele>
        <time>2019-10-21T02:34:38Z</time>
      </trkpt>
      <trkpt lat="47.79862" lon="2.84636">
        <ele>130.7</ele>
        <time>2019-10-21T02:34:08Z</time>
      </trkpt>
      <trkpt lat="47.79883" lon="2.8459">
        <ele>130.2</ele>
        <time>2019-10-21T02:33:58Z</time>
      </trkpt>
      <trkpt lat="47.79928" lon="2.8456">
        <ele>130.5</ele>
        <time>2019-10-21T02:33:45Z</time>
      </trkpt>
      <trkpt lat="47.80038" lon="2.84537">
        <ele>130.6</ele>
        <time>2019-10-21T02:33:15Z</time>
      </trkpt>
      <trkpt lat="47.80062" lon="2.8453">
        <ele>131</ele>
        <time>2019-10-21T02:33:08Z</time>
      </trkpt>
      <trkpt lat="47.80157" lon="2.84494">
        <ele>130.5</ele>
        <time>2019-10-21T02:32:42Z</time>
      </trkpt>
      <trkpt lat="47.80251" lon="2.84458">
        <ele>130</ele>
        <time>2019-10-21T02:32:16Z</time>
      </trkpt>
      <trkpt lat="47.80361" lon="2.8441">
        <ele>130</ele>
        <time>2019-10-21T02:31:46Z</time>
      </trkpt>
      <trkpt lat="47.8041" lon="2.84381">
        <ele>130.3</ele>
        <time>2019-10-21T02:31:31Z</time>
      </trkpt>
      <trkpt lat="47.80434" lon="2.84371">
        <ele>129.9</ele>
        <time>2019-10-21T02:31:25Z</time>
      </trkpt>
      <trkpt lat="47.80436" lon="2.84384">
        <ele>129.7</ele>
        <time>2019-10-21T02:31:22Z</time>
      </trkpt>
      <trkpt lat="47.80439" lon="2.84394">
        <ele>129.8</ele>
        <time>2019-10-21T02:31:20Z</time>
      </trkpt>
      <trkpt lat="47.80442" lon="2.84407">
        <ele>131</ele>
        <time>2019-10-21T02:31:18Z</time>
      </trkpt>
      <trkpt lat="47.80484" lon="2.84382">
        <ele>129.1</ele>
        <time>2019-10-21T02:31:06Z</time>
      </trkpt>
      <trkpt lat="47.8054" lon="2.84354">
        <ele>128.7</ele>
        <time>2019-10-21T02:30:50Z</time>
      </trkpt>
      <trkpt lat="47.80602" lon="2.84334">
        <ele>128</ele>
        <time>2019-10-21T02:30:33Z</time>
      </trkpt>
      <trkpt lat="47.8067" lon="2.84328">
        <ele>128</ele>
        <time>2019-10-21T02:30:15Z</time>
      </trkpt>
      <trkpt lat="47.80766" lon="2.84319">
        <ele>127.5</ele>
        <time>2019-10-21T02:29:49Z</time>
      </trkpt>
      <trkpt lat="47.80801" lon="2.84313">
        <ele>127.5</ele>
        <time>2019-10-21T02:29:40Z</time>
      </trkpt>
      <trkpt lat="47.80828" lon="2.84309">
        <ele>127.8</ele>
        <time>2019-10-21T02:29:33Z</time>
      </trkpt>
      <trkpt lat="47.80849" lon="2.84312">
        <ele>126.1</ele>
        <time>2019-10-21T02:29:27Z</time>
      </trkpt>
      <trkpt lat="47.80902" lon="2.84304">
        <ele>125</ele>
        <time>2019-10-21T02:29:13Z</time>
      </trkpt>
      <trkpt lat="47.80995" lon="2.84294">
        <ele>124.7</ele>
        <time>2019-10-21T02:28:48Z</time>
      </trkpt>
      <trkpt lat="47.8101" lon="2.84294">
        <ele>124.6</ele>
        <time>2019-10-21T02:28:44Z</time>
      </trkpt>
      <trkpt lat="47.81025" lon="2.843">
        <ele>124.8</ele>
        <time>2019-10-21T02:28:40Z</time>
      </trkpt>
      <trkpt lat="47.81039" lon="2.84313">
        <ele>124.7</ele>
        <time>2019-10-21T02:28:35Z</time>
      </trkpt>
      <trkpt lat="47.81055" lon="2.84323">
        <ele>124.6</ele>
        <time>2019-10-21T02:28:31Z</time>
      </trkpt>
      <trkpt lat="47.81067" lon="2.84326">
        <ele>124.7</ele>
        <time>2019-10-21T02:28:27Z</time>
      </trkpt>
      <trkpt lat="47.81077" lon="2.84323">
        <ele>124.6</ele>
        <time>2019-10-21T02:28:25Z</time>
      </trkpt>
      <trkpt lat="47.81087" lon="2.84317">
        <ele>124.5</ele>
        <time>2019-10-21T02:28:22Z</time>
      </trkpt>
      <trkpt lat="47.81096" lon="2.84309">
        <ele>124.6</ele>
        <time>2019-10-21T02:28:19Z</time>
      </trkpt>
      <trkpt lat="47.81103" lon="2.84304">
        <ele>124.7</ele>
        <time>2019-10-21T02:28:17Z</time>
      </trkpt>
      <trkpt lat="47.81115" lon="2.84298">
        <ele>124.8</ele>
        <time>2019-10-21T02:28:14Z</time>
      </trkpt>
      <trkpt lat="47.81125" lon="2.84298">
        <ele>125.1</ele>
        <time>2019-10-21T02:28:11Z</time>
      </trkpt>
      <trkpt lat="47.81277" lon="2.8432">
        <ele>124.5</ele>
        <time>2019-10-21T02:27:30Z</time>
      </trkpt>
      <trkpt lat="47.81303" lon="2.84325">
        <ele>124.7</ele>
        <time>2019-10-21T02:27:23Z</time>
      </trkpt>
      <trkpt lat="47.8133" lon="2.84333">
        <ele>125</ele>
        <time>2019-10-21T02:27:16Z</time>
      </trkpt>
      <trkpt lat="47.81372" lon="2.84354">
        <ele>124.8</ele>
        <time>2019-10-21T02:27:04Z</time>
      </trkpt>
      <trkpt lat="47.81409" lon="2.84376">
        <ele>124.7</ele>
        <time>2019-10-21T02:26:53Z</time>
      </trkpt>
      <trkpt lat="47.81432" lon="2.84395">
        <ele>125</ele>
        <time>2019-10-21T02:26:46Z</time>
      </trkpt>
      <trkpt lat="47.81445" lon="2.84403">
        <ele>125</ele>
        <time>2019-10-21T02:26:42Z</time>
      </trkpt>
      <trkpt lat="47.81451" lon="2.84403">
        <ele>125</ele>
        <time>2019-10-21T02:26:41Z</time>
      </trkpt>
      <trkpt lat="47.81454" lon="2.84399">
        <ele>125</ele>
        <time>2019-10-21T02:26:40Z</time>
      </trkpt>
      <trkpt lat="47.81464" lon="2.84388">
        <ele>125</ele>
        <time>2019-10-21T02:26:36Z</time>
      </trkpt>
      <trkpt lat="47.81467" lon="2.84386">
        <ele>125</ele>
        <time>2019-10-21T02:26:36Z</time>
      </trkpt>
      <trkpt lat="47.81471" lon="2.84386">
        <ele>125</ele>
        <time>2019-10-21T02:26:34Z</time>
      </trkpt>
      <trkpt lat="47.81509" lon="2.84398">
        <ele>124.7</ele>
        <time>2019-10-21T02:26:24Z</time>
      </trkpt>
      <trkpt lat="47.81537" lon="2.84408">
        <ele>123.6</ele>
        <time>2019-10-21T02:26:16Z</time>
      </trkpt>
      <trkpt lat="47.81549" lon="2.84416">
        <ele>123.2</ele>
        <time>2019-10-21T02:26:13Z</time>
      </trkpt>
      <trkpt lat="47.81566" lon="2.84427">
        <ele>123.1</ele>
        <time>2019-10-21T02:26:08Z</time>
      </trkpt>
      <trkpt lat="47.81581" lon="2.84433">
        <ele>122.9</ele>
        <time>2019-10-21T02:26:04Z</time>
      </trkpt>
      <trkpt lat="47.81647" lon="2.84457">
        <ele>123.1</ele>
        <time>2019-10-21T02:25:46Z</time>
      </trkpt>
      <trkpt lat="47.81698" lon="2.84474">
        <ele>122.9</ele>
        <time>2019-10-21T02:25:32Z</time>
      </trkpt>
      <trkpt lat="47.81737" lon="2.84484">
        <ele>122.7</ele>
        <time>2019-10-21T02:25:21Z</time>
      </trkpt>
      <trkpt lat="47.81758" lon="2.84486">
        <ele>122.8</ele>
        <time>2019-10-21T02:25:15Z</time>
      </trkpt>
      <trkpt lat="47.81779" lon="2.84485">
        <ele>122.4</ele>
        <time>2019-10-21T02:25:10Z</time>
      </trkpt>
      <trkpt lat="47.81819" lon="2.84476">
        <ele>123.1</ele>
        <time>2019-10-21T02:24:59Z</time>
      </trkpt>
      <trkpt lat="47.81856" lon="2.8446">
        <ele>122.7</ele>
        <time>2019-10-21T02:24:49Z</time>
      </trkpt>
      <trkpt lat="47.81893" lon="2.84436">
        <ele>123.2</ele>
        <time>2019-10-21T02:24:38Z</time>
      </trkpt>
      <trkpt lat="47.81938" lon="2.84396">
        <ele>122.9</ele>
        <time>2019-10-21T02:24:24Z</time>
      </trkpt>
      <trkpt lat="47.8195" lon="2.84383">
        <ele>122.7</ele>
        <time>2019-10-21T02:24:20Z</time>
      </trkpt>
      <trkpt lat="47.8196" lon="2.84373">
        <ele>122.5</ele>
        <time>2019-10-21T02:24:17Z</time>
      </trkpt>
      <trkpt lat="47.81979" lon="2.84345">
        <ele>122.6</ele>
        <time>2019-10-21T02:24:10Z</time>
      </trkpt>
      <trkpt lat="47.81989" lon="2.84337">
        <ele>122.7</ele>
        <time>2019-10-21T02:24:07Z</time>
      </trkpt>
      <trkpt lat="47.82009" lon="2.84325">
        <ele>122.5</ele>
        <time>2019-10-21T02:24:01Z</time>
      </trkpt>
      <trkpt lat="47.82018" lon="2.8432">
        <ele>122.4</ele>
        <time>2019-10-21T02:23:58Z</time>
      </trkpt>
      <trkpt lat="47.82031" lon="2.84313">
        <ele>122.4</ele>
        <time>2019-10-21T02:23:55Z</time>
      </trkpt>
      <trkpt lat="47.82074" lon="2.84293">
        <ele>122.4</ele>
        <time>2019-10-21T02:23:43Z</time>
      </trkpt>
      <trkpt lat="47.82104" lon="2.8428">
        <ele>122.8</ele>
        <time>2019-10-21T02:23:34Z</time>
      </trkpt>
      <trkpt lat="47.82128" lon="2.84268">
        <ele>122.3</ele>
        <time>2019-10-21T02:23:27Z</time>
      </trkpt>
      <trkpt lat="47.8215" lon="2.84258">
        <ele>121.9</ele>
        <time>2019-10-21T02:23:21Z</time>
      </trkpt>
      <trkpt lat="47.82209" lon="2.84229">
        <ele>121.8</ele>
        <time>2019-10-21T02:23:05Z</time>
      </trkpt>
      <trkpt lat="47.82227" lon="2.84223">
        <ele>122.2</ele>
        <time>2019-10-21T02:23:00Z</time>
      </trkpt>
      <trkpt lat="47.82254" lon="2.84214">
        <ele>122.3</ele>
        <time>2019-10-21T02:22:52Z</time>
      </trkpt>
      <trkpt lat="47.8227" lon="2.8421">
        <ele>121.7</ele>
        <time>2019-10-21T02:22:48Z</time>
      </trkpt>
      <trkpt lat="47.82281" lon="2.84211">
        <ele>121.7</ele>
        <time>2019-10-21T02:22:45Z</time>
      </trkpt>
      <trkpt lat="47.82294" lon="2.84213">
        <ele>122.1</ele>
        <time>2019-10-21T02:22:42Z</time>
      </trkpt>
      <trkpt lat="47.82308" lon="2.84219">
        <ele>122.6</ele>
        <time>2019-10-21T02:22:38Z</time>
      </trkpt>
      <trkpt lat="47.82328" lon="2.84232">
        <ele>121.6</ele>
        <time>2019-10-21T02:22:32Z</time>
      </trkpt>
      <trkpt lat="47.82387" lon="2.84278">
        <ele>122</ele>
        <time>2019-10-21T02:22:14Z</time>
      </trkpt>
      <trkpt lat="47.82432" lon="2.84313">
        <ele>121.9</ele>
        <time>2019-10-21T02:22:01Z</time>
      </trkpt>
      <trkpt lat="47.82449" lon="2.84326">
        <ele>121.8</ele>
        <time>2019-10-21T02:21:55Z</time>
      </trkpt>
      <trkpt lat="47.82465" lon="2.84331">
        <ele>122</ele>
        <time>2019-10-21T02:21:51Z</time>
      </trkpt>
      <trkpt lat="47.82482" lon="2.84336">
        <ele>122</ele>
        <time>2019-10-21T02:21:46Z</time>
      </trkpt>
      <trkpt lat="47.82497" lon="2.84338">
        <ele>122</ele>
        <time>2019-10-21T02:21:42Z</time>
      </trkpt>
      <trkpt lat="47.82519" lon="2.84333">
        <ele>122</ele>
        <time>2019-10-21T02:21:36Z</time>
      </trkpt>
      <trkpt lat="47.82563" lon="2.84325">
        <ele>121.7</ele>
        <time>2019-10-21T02:21:25Z</time>
      </trkpt>
      <trkpt lat="47.82599" lon="2.84315">
        <ele>121.7</ele>
        <time>2019-10-21T02:21:15Z</time>
      </trkpt>
      <trkpt lat="47.82616" lon="2.84307">
        <ele>122</ele>
        <time>2019-10-21T02:21:10Z</time>
      </trkpt>
      <trkpt lat="47.82633" lon="2.84295">
        <ele>122</ele>
        <time>2019-10-21T02:21:05Z</time>
      </trkpt>
      <trkpt lat="47.82649" lon="2.84282">
        <ele>122</ele>
        <time>2019-10-21T02:21:00Z</time>
      </trkpt>
      <trkpt lat="47.82667" lon="2.8426">
        <ele>121.4</ele>
        <time>2019-10-21T02:20:54Z</time>
      </trkpt>
      <trkpt lat="47.82682" lon="2.84235">
        <ele>121.3</ele>
        <time>2019-10-21T02:20:48Z</time>
      </trkpt>
      <trkpt lat="47.82695" lon="2.84204">
        <ele>122</ele>
        <time>2019-10-21T02:20:41Z</time>
      </trkpt>
      <trkpt lat="47.82703" lon="2.84178">
        <ele>121.3</ele>
        <time>2019-10-21T02:20:36Z</time>
      </trkpt>
      <trkpt lat="47.82734" lon="2.84045">
        <ele>120.7</ele>
        <time>2019-10-21T02:20:11Z</time>
      </trkpt>
      <trkpt lat="47.82748" lon="2.83989">
        <ele>122.4</ele>
        <time>2019-10-21T02:20:00Z</time>
      </trkpt>
      <trkpt lat="47.82761" lon="2.83948">
        <ele>121.8</ele>
        <time>2019-10-21T02:19:52Z</time>
      </trkpt>
      <trkpt lat="47.82771" lon="2.83924">
        <ele>122.7</ele>
        <time>2019-10-21T02:19:47Z</time>
      </trkpt>
      <trkpt lat="47.82788" lon="2.83895">
        <ele>121.4</ele>
        <time>2019-10-21T02:19:40Z</time>
      </trkpt>
      <trkpt lat="47.82821" lon="2.83849">
        <ele>120.9</ele>
        <time>2019-10-21T02:19:28Z</time>
      </trkpt>
      <trkpt lat="47.82852" lon="2.83811">
        <ele>121.8</ele>
        <time>2019-10-21T02:19:17Z</time>
      </trkpt>
      <trkpt lat="47.8287" lon="2.83791">
        <ele>121.5</ele>
        <time>2019-10-21T02:19:11Z</time>
      </trkpt>
      <trkpt lat="47.82904" lon="2.83752">
        <ele>120.5</ele>
        <time>2019-10-21T02:19:00Z</time>
      </trkpt>
      <trkpt lat="47.82923" lon="2.83717">
        <ele>121.3</ele>
        <time>2019-10-21T02:18:52Z</time>
      </trkpt>
      <trkpt lat="47.82959" lon="2.83654">
        <ele>120.9</ele>
        <time>2019-10-21T02:18:37Z</time>
      </trkpt>
      <trkpt lat="47.82983" lon="2.83616">
        <ele>121</ele>
        <time>2019-10-21T02:18:28Z</time>
      </trkpt>
      <trkpt lat="47.82993" lon="2.83605">
        <ele>121.1</ele>
        <time>2019-10-21T02:18:24Z</time>
      </trkpt>
      <trkpt lat="47.83028" lon="2.83579">
        <ele>121</ele>
        <time>2019-10-21T02:18:14Z</time>
      </trkpt>
      <trkpt lat="47.83051" lon="2.83564">
        <ele>121.1</ele>
        <time>2019-10-21T02:18:07Z</time>
      </trkpt>
      <trkpt lat="47.83059" lon="2.83559">
        <ele>121.6</ele>
        <time>2019-10-21T02:18:05Z</time>
      </trkpt>
      <trkpt lat="47.83077" lon="2.8355">
        <ele>121.8</ele>
        <time>2019-10-21T02:18:00Z</time>
      </trkpt>
      <trkpt lat="47.83099" lon="2.83543">
        <ele>120.9</ele>
        <time>2019-10-21T02:17:54Z</time>
      </trkpt>
      <trkpt lat="47.83105" lon="2.83542">
        <ele>120.7</ele>
        <time>2019-10-21T02:17:52Z</time>
      </trkpt>
      <trkpt lat="47.83112" lon="2.8354">
        <ele>120.6</ele>
        <time>2019-10-21T02:17:50Z</time>
      </trkpt>
      <trkpt lat="47.83138" lon="2.83538">
        <ele>120.6</ele>
        <time>2019-10-21T02:17:43Z</time>
      </trkpt>
      <trkpt lat="47.83161" lon="2.83533">
        <ele>121.3</ele>
        <time>2019-10-21T02:17:37Z</time>
      </trkpt>
      <trkpt lat="47.83204" lon="2.83514">
        <ele>120.8</ele>
        <time>2019-10-21T02:17:25Z</time>
      </trkpt>
      <trkpt lat="47.83258" lon="2.83487">
        <ele>121.2</ele>
        <time>2019-10-21T02:17:10Z</time>
      </trkpt>
      <trkpt lat="47.83292" lon="2.83462">
        <ele>121</ele>
        <time>2019-10-21T02:17:00Z</time>
      </trkpt>
      <trkpt lat="47.83327" lon="2.83442">
        <ele>122.7</ele>
        <time>2019-10-21T02:16:50Z</time>
      </trkpt>
      <trkpt lat="47.83371" lon="2.83424">
        <ele>121.7</ele>
        <time>2019-10-21T02:16:38Z</time>
      </trkpt>
      <trkpt lat="47.83418" lon="2.83404">
        <ele>121.4</ele>
        <time>2019-10-21T02:16:24Z</time>
      </trkpt>
      <trkpt lat="47.83435" lon="2.83399">
        <ele>121.2</ele>
        <time>2019-10-21T02:16:20Z</time>
      </trkpt>
      <trkpt lat="47.8345" lon="2.83397">
        <ele>121.2</ele>
        <time>2019-10-21T02:16:16Z</time>
      </trkpt>
      <trkpt lat="47.83478" lon="2.83397">
        <ele>121.4</ele>
        <time>2019-10-21T02:16:08Z</time>
      </trkpt>
      <trkpt lat="47.83596" lon="2.83396">
        <ele>121.6</ele>
        <time>2019-10-21T02:15:37Z</time>
      </trkpt>
      <trkpt lat="47.83672" lon="2.83397">
        <ele>120.9</ele>
        <time>2019-10-21T02:15:17Z</time>
      </trkpt>
      <trkpt lat="47.83714" lon="2.83398">
        <ele>121.2</ele>
        <time>2019-10-21T02:15:05Z</time>
      </trkpt>
      <trkpt lat="47.83726" lon="2.83395">
        <ele>121.6</ele>
        <time>2019-10-21T02:15:02Z</time>
      </trkpt>
      <trkpt lat="47.83743" lon="2.83387">
        <ele>122.7</ele>
        <time>2019-10-21T02:14:57Z</time>
      </trkpt>
      <trkpt lat="47.83756" lon="2.83377">
        <ele>122</ele>
        <time>2019-10-21T02:14:53Z</time>
      </trkpt>
      <trkpt lat="47.83769" lon="2.83364">
        <ele>122.2</ele>
        <time>2019-10-21T02:14:49Z</time>
      </trkpt>
      <trkpt lat="47.83775" lon="2.83354">
        <ele>122.6</ele>
        <time>2019-10-21T02:14:47Z</time>
      </trkpt>
      <trkpt lat="47.83785" lon="2.83332">
        <ele>121.5</ele>
        <time>2019-10-21T02:14:42Z</time>
      </trkpt>
      <trkpt lat="47.83792" lon="2.83315">
        <ele>121.3</ele>
        <time>2019-10-21T02:14:38Z</time>
      </trkpt>
      <trkpt lat="47.83798" lon="2.83286">
        <ele>122.4</ele>
        <time>2019-10-21T02:14:33Z</time>
      </trkpt>
      <trkpt lat="47.83844" lon="2.83088">
        <ele>121.2</ele>
        <time>2019-10-21T02:13:55Z</time>
      </trkpt>
      <trkpt lat="47.83866" lon="2.82991">
        <ele>121.5</ele>
        <time>2019-10-21T02:13:37Z</time>
      </trkpt>
      <trkpt lat="47.83905" lon="2.82849">
        <ele>120.9</ele>
        <time>2019-10-21T02:13:10Z</time>
      </trkpt>
      <trkpt lat="47.83944" lon="2.82714">
        <ele>122</ele>
        <time>2019-10-21T02:12:43Z</time>
      </trkpt>
      <trkpt lat="47.8397" lon="2.82623">
        <ele>121.3</ele>
        <time>2019-10-21T02:12:25Z</time>
      </trkpt>
      <trkpt lat="47.84001" lon="2.82516">
        <ele>121.5</ele>
        <time>2019-10-21T02:12:05Z</time>
      </trkpt>
      <trkpt lat="47.84016" lon="2.82468">
        <ele>120.5</ele>
        <time>2019-10-21T02:11:55Z</time>
      </trkpt>
      <trkpt lat="47.8403" lon="2.82429">
        <ele>121.6</ele>
        <time>2019-10-21T02:11:47Z</time>
      </trkpt>
      <trkpt lat="47.84039" lon="2.82399">
        <ele>120.5</ele>
        <time>2019-10-21T02:11:41Z</time>
      </trkpt>
      <trkpt lat="47.84058" lon="2.82362">
        <ele>120.4</ele>
        <time>2019-10-21T02:11:33Z</time>
      </trkpt>
      <trkpt lat="47.8406" lon="2.82357">
        <ele>119.6</ele>
        <time>2019-10-21T02:11:32Z</time>
      </trkpt>
      <trkpt lat="47.84072" lon="2.82319">
        <ele>116.7</ele>
        <time>2019-10-21T02:11:24Z</time>
      </trkpt>
      <trkpt lat="47.84086" lon="2.82278">
        <ele>115.9</ele>
        <time>2019-10-21T02:11:16Z</time>
      </trkpt>
      <trkpt lat="47.84101" lon="2.82235">
        <ele>115.9</ele>
        <time>2019-10-21T02:11:07Z</time>
      </trkpt>
      <trkpt lat="47.84124" lon="2.82187">
        <ele>115.9</ele>
        <time>2019-10-21T02:10:57Z</time>
      </trkpt>
      <trkpt lat="47.84143" lon="2.82161">
        <ele>116.8</ele>
        <time>2019-10-21T02:10:50Z</time>
      </trkpt>
      <trkpt lat="47.84167" lon="2.82133">
        <ele>117</ele>
        <time>2019-10-21T02:10:42Z</time>
      </trkpt>
      <trkpt lat="47.84186" lon="2.82116">
        <ele>116.8</ele>
        <time>2019-10-21T02:10:36Z</time>
      </trkpt>
      <trkpt lat="47.84204" lon="2.82099">
        <ele>116.5</ele>
        <time>2019-10-21T02:10:30Z</time>
      </trkpt>
      <trkpt lat="47.84241" lon="2.82063">
        <ele>116.1</ele>
        <time>2019-10-21T02:10:18Z</time>
      </trkpt>
      <trkpt lat="47.84294" lon="2.82004">
        <ele>115.4</ele>
        <time>2019-10-21T02:10:01Z</time>
      </trkpt>
      <trkpt lat="47.84338" lon="2.81954">
        <ele>115.7</ele>
        <time>2019-10-21T02:09:46Z</time>
      </trkpt>
      <trkpt lat="47.84382" lon="2.81907">
        <ele>115.1</ele>
        <time>2019-10-21T02:09:31Z</time>
      </trkpt>
      <trkpt lat="47.84404" lon="2.81882">
        <ele>115.3</ele>
        <time>2019-10-21T02:09:24Z</time>
      </trkpt>
      <trkpt lat="47.84426" lon="2.81861">
        <ele>115.3</ele>
        <time>2019-10-21T02:09:17Z</time>
      </trkpt>
      <trkpt lat="47.8445" lon="2.81846">
        <ele>115.1</ele>
        <time>2019-10-21T02:09:10Z</time>
      </trkpt>
      <trkpt lat="47.84498" lon="2.8182">
        <ele>115</ele>
        <time>2019-10-21T02:08:56Z</time>
      </trkpt>
      <trkpt lat="47.84546" lon="2.81805">
        <ele>115.4</ele>
        <time>2019-10-21T02:08:43Z</time>
      </trkpt>
      <trkpt lat="47.84625" lon="2.81779">
        <ele>115.9</ele>
        <time>2019-10-21T02:08:22Z</time>
      </trkpt>
      <trkpt lat="47.84661" lon="2.8177">
        <ele>115.7</ele>
        <time>2019-10-21T02:08:12Z</time>
      </trkpt>
      <trkpt lat="47.84683" lon="2.81768">
        <ele>115.7</ele>
        <time>2019-10-21T02:08:06Z</time>
      </trkpt>
      <trkpt lat="47.84716" lon="2.8177">
        <ele>115.6</ele>
        <time>2019-10-21T02:07:57Z</time>
      </trkpt>
      <trkpt lat="47.84758" lon="2.81776">
        <ele>116.1</ele>
        <time>2019-10-21T02:07:46Z</time>
      </trkpt>
      <trkpt lat="47.84834" lon="2.81789">
        <ele>115.8</ele>
        <time>2019-10-21T02:07:26Z</time>
      </trkpt>
      <trkpt lat="47.84862" lon="2.81792">
        <ele>115.5</ele>
        <time>2019-10-21T02:07:18Z</time>
      </trkpt>
      <trkpt lat="47.84871" lon="2.8179">
        <ele>115.7</ele>
        <time>2019-10-21T02:07:16Z</time>
      </trkpt>
      <trkpt lat="47.84886" lon="2.81789">
        <ele>115.8</ele>
        <time>2019-10-21T02:07:12Z</time>
      </trkpt>
      <trkpt lat="47.84908" lon="2.81785">
        <ele>116</ele>
        <time>2019-10-21T02:07:06Z</time>
      </trkpt>
      <trkpt lat="47.84926" lon="2.81787">
        <ele>115.4</ele>
        <time>2019-10-21T02:07:01Z</time>
      </trkpt>
      <trkpt lat="47.84954" lon="2.81788">
        <ele>114.9</ele>
        <time>2019-10-21T02:06:53Z</time>
      </trkpt>
      <trkpt lat="47.84983" lon="2.81795">
        <ele>114.9</ele>
        <time>2019-10-21T02:06:46Z</time>
      </trkpt>
      <trkpt lat="47.85097" lon="2.81841">
        <ele>115.4</ele>
        <time>2019-10-21T02:06:14Z</time>
      </trkpt>
      <trkpt lat="47.85204" lon="2.81877">
        <ele>115.1</ele>
        <time>2019-10-21T02:05:45Z</time>
      </trkpt>
      <trkpt lat="47.85314" lon="2.81911">
        <ele>114.9</ele>
        <time>2019-10-21T02:05:15Z</time>
      </trkpt>
      <trkpt lat="47.85386" lon="2.81931">
        <ele>115.4</ele>
        <time>2019-10-21T02:04:55Z</time>
      </trkpt>
      <trkpt lat="47.85414" lon="2.81934">
        <ele>115.7</ele>
        <time>2019-10-21T02:04:48Z</time>
      </trkpt>
      <trkpt lat="47.85439" lon="2.81932">
        <ele>115.9</ele>
        <time>2019-10-21T02:04:41Z</time>
      </trkpt>
      <trkpt lat="47.85469" lon="2.81922">
        <ele>115.7</ele>
        <time>2019-10-21T02:04:33Z</time>
      </trkpt>
      <trkpt lat="47.85491" lon="2.81905">
        <ele>116</ele>
        <time>2019-10-21T02:04:26Z</time>
      </trkpt>
      <trkpt lat="47.85512" lon="2.81888">
        <ele>116.2</ele>
        <time>2019-10-21T02:04:20Z</time>
      </trkpt>
      <trkpt lat="47.85527" lon="2.81876">
        <ele>116</ele>
        <time>2019-10-21T02:04:15Z</time>
      </trkpt>
      <trkpt lat="47.85553" lon="2.81867">
        <ele>116.4</ele>
        <time>2019-10-21T02:04:08Z</time>
      </trkpt>
      <trkpt lat="47.85571" lon="2.81864">
        <ele>116.7</ele>
        <time>2019-10-21T02:04:03Z</time>
      </trkpt>
      <trkpt lat="47.85592" lon="2.81866">
        <ele>116.5</ele>
        <time>2019-10-21T02:03:58Z</time>
      </trkpt>
      <trkpt lat="47.85608" lon="2.81871">
        <ele>116.2</ele>
        <time>2019-10-21T02:03:53Z</time>
      </trkpt>
      <trkpt lat="47.85626" lon="2.81881">
        <ele>116</ele>
        <time>2019-10-21T02:03:48Z</time>
      </trkpt>
      <trkpt lat="47.85686" lon="2.81914">
        <ele>115.8</ele>
        <time>2019-10-21T02:03:31Z</time>
      </trkpt>
      <trkpt lat="47.85694" lon="2.81919">
        <ele>115.8</ele>
        <time>2019-10-21T02:03:29Z</time>
      </trkpt>
      <trkpt lat="47.85706" lon="2.81923">
        <ele>115.9</ele>
        <time>2019-10-21T02:03:25Z</time>
      </trkpt>
      <trkpt lat="47.85728" lon="2.81927">
        <ele>116</ele>
        <time>2019-10-21T02:03:19Z</time>
      </trkpt>
      <trkpt lat="47.85782" lon="2.81937">
        <ele>115.6</ele>
        <time>2019-10-21T02:03:05Z</time>
      </trkpt>
      <trkpt lat="47.85805" lon="2.81942">
        <ele>116.1</ele>
        <time>2019-10-21T02:02:59Z</time>
      </trkpt>
      <trkpt lat="47.85823" lon="2.81949">
        <ele>116.2</ele>
        <time>2019-10-21T02:02:54Z</time>
      </trkpt>
      <trkpt lat="47.85852" lon="2.81965">
        <ele>115.8</ele>
        <time>2019-10-21T02:02:45Z</time>
      </trkpt>
      <trkpt lat="47.85906" lon="2.81997">
        <ele>115.4</ele>
        <time>2019-10-21T02:02:30Z</time>
      </trkpt>
      <trkpt lat="47.85945" lon="2.82023">
        <ele>116.1</ele>
        <time>2019-10-21T02:02:18Z</time>
      </trkpt>
      <trkpt lat="47.85947" lon="2.82027">
        <ele>115.7</ele>
        <time>2019-10-21T02:02:18Z</time>
      </trkpt>
      <trkpt lat="47.85958" lon="2.82033">
        <ele>113.6</ele>
        <time>2019-10-21T02:02:14Z</time>
      </trkpt>
      <trkpt lat="47.85996" lon="2.82052">
        <ele>112.6</ele>
        <time>2019-10-21T02:02:04Z</time>
      </trkpt>
      <trkpt lat="47.86006" lon="2.8206">
        <ele>112.5</ele>
        <time>2019-10-21T02:02:01Z</time>
      </trkpt>
      <trkpt lat="47.86064" lon="2.82096">
        <ele>111.8</ele>
        <time>2019-10-21T02:01:44Z</time>
      </trkpt>
      <trkpt lat="47.86088" lon="2.82106">
        <ele>112.6</ele>
        <time>2019-10-21T02:01:37Z</time>
      </trkpt>
      <trkpt lat="47.86103" lon="2.82118">
        <ele>112.1</ele>
        <time>2019-10-21T02:01:33Z</time>
      </trkpt>
      <trkpt lat="47.86127" lon="2.82135">
        <ele>111.4</ele>
        <time>2019-10-21T02:01:26Z</time>
      </trkpt>
      <trkpt lat="47.86152" lon="2.82153">
        <ele>111</ele>
        <time>2019-10-21T02:01:18Z</time>
      </trkpt>
      <trkpt lat="47.86183" lon="2.82182">
        <ele>111</ele>
        <time>2019-10-21T02:01:08Z</time>
      </trkpt>
      <trkpt lat="47.8623" lon="2.82222">
        <ele>111.3</ele>
        <time>2019-10-21T02:00:54Z</time>
      </trkpt>
      <trkpt lat="47.86275" lon="2.82267">
        <ele>110.9</ele>
        <time>2019-10-21T02:00:39Z</time>
      </trkpt>
      <trkpt lat="47.86352" lon="2.82338">
        <ele>110.9</ele>
        <time>2019-10-21T02:00:15Z</time>
      </trkpt>
      <trkpt lat="47.86408" lon="2.82389">
        <ele>110.7</ele>
        <time>2019-10-21T01:59:58Z</time>
      </trkpt>
      <trkpt lat="47.86432" lon="2.82414">
        <ele>110.6</ele>
        <time>2019-10-21T01:59:50Z</time>
      </trkpt>
      <trkpt lat="47.86472" lon="2.82473">
        <ele>111</ele>
        <time>2019-10-21T01:59:35Z</time>
      </trkpt>
      <trkpt lat="47.86523" lon="2.82553">
        <ele>110.8</ele>
        <time>2019-10-21T01:59:15Z</time>
      </trkpt>
      <trkpt lat="47.86597" lon="2.8266">
        <ele>110.7</ele>
        <time>2019-10-21T01:58:48Z</time>
      </trkpt>
      <trkpt lat="47.8663" lon="2.82709">
        <ele>110.7</ele>
        <time>2019-10-21T01:58:35Z</time>
      </trkpt>
      <trkpt lat="47.86661" lon="2.82757">
        <ele>110.6</ele>
        <time>2019-10-21T01:58:23Z</time>
      </trkpt>
      <trkpt lat="47.86688" lon="2.82778">
        <ele>110.8</ele>
        <time>2019-10-21T01:58:15Z</time>
      </trkpt>
      <trkpt lat="47.86715" lon="2.82793">
        <ele>110.5</ele>
        <time>2019-10-21T01:58:07Z</time>
      </trkpt>
      <trkpt lat="47.86736" lon="2.82798">
        <ele>110.3</ele>
        <time>2019-10-21T01:58:02Z</time>
      </trkpt>
      <trkpt lat="47.86766" lon="2.82798">
        <ele>110.3</ele>
        <time>2019-10-21T01:57:54Z</time>
      </trkpt>
      <trkpt lat="47.86792" lon="2.82798">
        <ele>110.4</ele>
        <time>2019-10-21T01:57:47Z</time>
      </trkpt>
      <trkpt lat="47.86815" lon="2.82793">
        <ele>110.8</ele>
        <time>2019-10-21T01:57:41Z</time>
      </trkpt>
      <trkpt lat="47.86837" lon="2.82786">
        <ele>110.7</ele>
        <time>2019-10-21T01:57:34Z</time>
      </trkpt>
      <trkpt lat="47.86863" lon="2.82772">
        <ele>110.9</ele>
        <time>2019-10-21T01:57:27Z</time>
      </trkpt>
      <trkpt lat="47.86893" lon="2.82751">
        <ele>110.8</ele>
        <time>2019-10-21T01:57:18Z</time>
      </trkpt>
      <trkpt lat="47.86948" lon="2.82716">
        <ele>110.9</ele>
        <time>2019-10-21T01:57:02Z</time>
      </trkpt>
      <trkpt lat="47.86997" lon="2.82684">
        <ele>110.8</ele>
        <time>2019-10-21T01:56:48Z</time>
      </trkpt>
      <trkpt lat="47.8701" lon="2.82668">
        <ele>111.2</ele>
        <time>2019-10-21T01:56:43Z</time>
      </trkpt>
      <trkpt lat="47.87031" lon="2.82643">
        <ele>111.4</ele>
        <time>2019-10-21T01:56:36Z</time>
      </trkpt>
      <trkpt lat="47.87043" lon="2.82623">
        <ele>111</ele>
        <time>2019-10-21T01:56:31Z</time>
      </trkpt>
      <trkpt lat="47.87057" lon="2.82586">
        <ele>111.8</ele>
        <time>2019-10-21T01:56:24Z</time>
      </trkpt>
      <trkpt lat="47.8707" lon="2.82553">
        <ele>110.5</ele>
        <time>2019-10-21T01:56:17Z</time>
      </trkpt>
      <trkpt lat="47.8708" lon="2.82522">
        <ele>111</ele>
        <time>2019-10-21T01:56:11Z</time>
      </trkpt>
      <trkpt lat="47.87091" lon="2.82485">
        <ele>110.4</ele>
        <time>2019-10-21T01:56:04Z</time>
      </trkpt>
      <trkpt lat="47.8712" lon="2.824">
        <ele>110.4</ele>
        <time>2019-10-21T01:55:47Z</time>
      </trkpt>
      <trkpt lat="47.87167" lon="2.82284">
        <ele>110.8</ele>
        <time>2019-10-21T01:55:22Z</time>
      </trkpt>
      <trkpt lat="47.87201" lon="2.82197">
        <ele>110.8</ele>
        <time>2019-10-21T01:55:04Z</time>
      </trkpt>
      <trkpt lat="47.87216" lon="2.82169">
        <ele>111.1</ele>
        <time>2019-10-21T01:54:58Z</time>
      </trkpt>
      <trkpt lat="47.87233" lon="2.82147">
        <ele>110.9</ele>
        <time>2019-10-21T01:54:52Z</time>
      </trkpt>
      <trkpt lat="47.87267" lon="2.82115">
        <ele>111.2</ele>
        <time>2019-10-21T01:54:41Z</time>
      </trkpt>
      <trkpt lat="47.87362" lon="2.8203">
        <ele>111.7</ele>
        <time>2019-10-21T01:54:11Z</time>
      </trkpt>
      <trkpt lat="47.87384" lon="2.82015">
        <ele>110.7</ele>
        <time>2019-10-21T01:54:05Z</time>
      </trkpt>
      <trkpt lat="47.87409" lon="2.81997">
        <ele>111.4</ele>
        <time>2019-10-21T01:53:58Z</time>
      </trkpt>
      <trkpt lat="47.87431" lon="2.8198">
        <ele>111.7</ele>
        <time>2019-10-21T01:53:51Z</time>
      </trkpt>
      <trkpt lat="47.87477" lon="2.81929">
        <ele>110.9</ele>
        <time>2019-10-21T01:53:36Z</time>
      </trkpt>
      <trkpt lat="47.87499" lon="2.81911">
        <ele>111.2</ele>
        <time>2019-10-21T01:53:29Z</time>
      </trkpt>
      <trkpt lat="47.87522" lon="2.81898">
        <ele>110.9</ele>
        <time>2019-10-21T01:53:22Z</time>
      </trkpt>
      <trkpt lat="47.87545" lon="2.81893">
        <ele>111.3</ele>
        <time>2019-10-21T01:53:16Z</time>
      </trkpt>
      <trkpt lat="47.87566" lon="2.81893">
        <ele>111</ele>
        <time>2019-10-21T01:53:10Z</time>
      </trkpt>
      <trkpt lat="47.87604" lon="2.81903">
        <ele>109.9</ele>
        <time>2019-10-21T01:53:00Z</time>
      </trkpt>
      <trkpt lat="47.87641" lon="2.819">
        <ele>110.2</ele>
        <time>2019-10-21T01:52:50Z</time>
      </trkpt>
      <trkpt lat="47.87717" lon="2.81887">
        <ele>111</ele>
        <time>2019-10-21T01:52:30Z</time>
      </trkpt>
      <trkpt lat="47.87783" lon="2.81874">
        <ele>110.1</ele>
        <time>2019-10-21T01:52:12Z</time>
      </trkpt>
      <trkpt lat="47.87846" lon="2.81858">
        <ele>110.1</ele>
        <time>2019-10-21T01:51:55Z</time>
      </trkpt>
      <trkpt lat="47.87912" lon="2.81851">
        <ele>109.7</ele>
        <time>2019-10-21T01:51:37Z</time>
      </trkpt>
      <trkpt lat="47.87975" lon="2.81849">
        <ele>109.9</ele>
        <time>2019-10-21T01:51:20Z</time>
      </trkpt>
      <trkpt lat="47.88054" lon="2.81858">
        <ele>110.2</ele>
        <time>2019-10-21T01:50:59Z</time>
      </trkpt>
      <trkpt lat="47.88093" lon="2.81867">
        <ele>110.4</ele>
        <time>2019-10-21T01:50:49Z</time>
      </trkpt>
      <trkpt lat="47.88127" lon="2.81876">
        <ele>110</ele>
        <time>2019-10-21T01:50:40Z</time>
      </trkpt>
      <trkpt lat="47.88169" lon="2.81893">
        <ele>114</ele>
        <time>2019-10-21T01:50:28Z</time>
      </trkpt>
      <trkpt lat="47.88212" lon="2.81905">
        <ele>109.8</ele>
        <time>2019-10-21T01:50:16Z</time>
      </trkpt>
      <trkpt lat="47.88226" lon="2.81903">
        <ele>110.1</ele>
        <time>2019-10-21T01:50:12Z</time>
      </trkpt>
      <trkpt lat="47.88299" lon="2.81943">
        <ele>109.6</ele>
        <time>2019-10-21T01:49:52Z</time>
      </trkpt>
      <trkpt lat="47.8837" lon="2.81985">
        <ele>109.6</ele>
        <time>2019-10-21T01:49:31Z</time>
      </trkpt>
      <trkpt lat="47.88406" lon="2.82">
        <ele>110.6</ele>
        <time>2019-10-21T01:49:21Z</time>
      </trkpt>
      <trkpt lat="47.88426" lon="2.82004">
        <ele>110.5</ele>
        <time>2019-10-21T01:49:16Z</time>
      </trkpt>
      <trkpt lat="47.88447" lon="2.82005">
        <ele>110.5</ele>
        <time>2019-10-21T01:49:10Z</time>
      </trkpt>
      <trkpt lat="47.88489" lon="2.82">
        <ele>110.4</ele>
        <time>2019-10-21T01:48:59Z</time>
      </trkpt>
      <trkpt lat="47.88527" lon="2.81983">
        <ele>110.3</ele>
        <time>2019-10-21T01:48:48Z</time>
      </trkpt>
      <trkpt lat="47.88602" lon="2.81944">
        <ele>110.3</ele>
        <time>2019-10-21T01:48:27Z</time>
      </trkpt>
      <trkpt lat="47.88751" lon="2.81866">
        <ele>110.6</ele>
        <time>2019-10-21T01:47:45Z</time>
      </trkpt>
      <trkpt lat="47.88791" lon="2.81826">
        <ele>110.3</ele>
        <time>2019-10-21T01:47:32Z</time>
      </trkpt>
      <trkpt lat="47.88826" lon="2.81774">
        <ele>109.8</ele>
        <time>2019-10-21T01:47:19Z</time>
      </trkpt>
      <trkpt lat="47.8887" lon="2.81712">
        <ele>110</ele>
        <time>2019-10-21T01:47:03Z</time>
      </trkpt>
      <trkpt lat="47.88909" lon="2.8164">
        <ele>109.5</ele>
        <time>2019-10-21T01:46:46Z</time>
      </trkpt>
      <trkpt lat="47.88986" lon="2.81494">
        <ele>109.6</ele>
        <time>2019-10-21T01:46:13Z</time>
      </trkpt>
      <trkpt lat="47.88998" lon="2.81472">
        <ele>111.1</ele>
        <time>2019-10-21T01:46:08Z</time>
      </trkpt>
      <trkpt lat="47.89013" lon="2.81454">
        <ele>110</ele>
        <time>2019-10-21T01:46:03Z</time>
      </trkpt>
      <trkpt lat="47.89189" lon="2.81285">
        <ele>110.2</ele>
        <time>2019-10-21T01:45:07Z</time>
      </trkpt>
      <trkpt lat="47.89225" lon="2.81259">
        <ele>110</ele>
        <time>2019-10-21T01:44:56Z</time>
      </trkpt>
      <trkpt lat="47.89276" lon="2.81235">
        <ele>110.1</ele>
        <time>2019-10-21T01:44:42Z</time>
      </trkpt>
      <trkpt lat="47.89323" lon="2.81212">
        <ele>109.8</ele>
        <time>2019-10-21T01:44:29Z</time>
      </trkpt>
      <trkpt lat="47.89345" lon="2.81201">
        <ele>110.2</ele>
        <time>2019-10-21T01:44:22Z</time>
      </trkpt>
      <trkpt lat="47.89366" lon="2.81199">
        <ele>110.3</ele>
        <time>2019-10-21T01:44:17Z</time>
      </trkpt>
      <trkpt lat="47.89495" lon="2.81222">
        <ele>110.8</ele>
        <time>2019-10-21T01:43:42Z</time>
      </trkpt>
      <trkpt lat="47.89629" lon="2.81257">
        <ele>109.3</ele>
        <time>2019-10-21T01:43:06Z</time>
      </trkpt>
      <trkpt lat="47.89706" lon="2.81283">
        <ele>110</ele>
        <time>2019-10-21T01:42:45Z</time>
      </trkpt>
      <trkpt lat="47.89744" lon="2.81305">
        <ele>109.4</ele>
        <time>2019-10-21T01:42:34Z</time>
      </trkpt>
      <trkpt lat="47.89866" lon="2.81343">
        <ele>109.3</ele>
        <time>2019-10-21T01:42:00Z</time>
      </trkpt>
      <trkpt lat="47.89982" lon="2.81364">
        <ele>109.8</ele>
        <time>2019-10-21T01:41:29Z</time>
      </trkpt>
      <trkpt lat="47.90042" lon="2.8138">
        <ele>109.3</ele>
        <time>2019-10-21T01:41:13Z</time>
      </trkpt>
      <trkpt lat="47.90105" lon="2.81408">
        <ele>109.2</ele>
        <time>2019-10-21T01:40:55Z</time>
      </trkpt>
      <trkpt lat="47.90127" lon="2.81413">
        <ele>109.8</ele>
        <time>2019-10-21T01:40:49Z</time>
      </trkpt>
      <trkpt lat="47.90212" lon="2.81424">
        <ele>109.9</ele>
        <time>2019-10-21T01:40:27Z</time>
      </trkpt>
      <trkpt lat="47.90227" lon="2.81426">
        <ele>109.7</ele>
        <time>2019-10-21T01:40:23Z</time>
      </trkpt>
      <trkpt lat="47.9024" lon="2.81424">
        <ele>109.9</ele>
        <time>2019-10-21T01:40:19Z</time>
      </trkpt>
      <trkpt lat="47.90253" lon="2.81421">
        <ele>110.3</ele>
        <time>2019-10-21T01:40:16Z</time>
      </trkpt>
      <trkpt lat="47.90304" lon="2.81388">
        <ele>111</ele>
        <time>2019-10-21T01:40:01Z</time>
      </trkpt>
      <trkpt lat="47.9045" lon="2.81286">
        <ele>111</ele>
        <time>2019-10-21T01:39:18Z</time>
      </trkpt>
      <trkpt lat="47.90482" lon="2.81261">
        <ele>111.2</ele>
        <time>2019-10-21T01:39:08Z</time>
      </trkpt>
      <trkpt lat="47.9052" lon="2.81219">
        <ele>111.7</ele>
        <time>2019-10-21T01:38:55Z</time>
      </trkpt>
      <trkpt lat="47.90535" lon="2.81204">
        <ele>111.9</ele>
        <time>2019-10-21T01:38:51Z</time>
      </trkpt>
      <trkpt lat="47.90575" lon="2.81179">
        <ele>113.2</ele>
        <time>2019-10-21T01:38:39Z</time>
      </trkpt>
      <trkpt lat="47.90615" lon="2.81147">
        <ele>110.9</ele>
        <time>2019-10-21T01:38:27Z</time>
      </trkpt>
      <trkpt lat="47.90634" lon="2.81132">
        <ele>110.5</ele>
        <time>2019-10-21T01:38:21Z</time>
      </trkpt>
      <trkpt lat="47.90672" lon="2.81125">
        <ele>111</ele>
        <time>2019-10-21T01:38:11Z</time>
      </trkpt>
      <trkpt lat="47.90746" lon="2.8115">
        <ele>110.9</ele>
        <time>2019-10-21T01:37:51Z</time>
      </trkpt>
      <trkpt lat="47.90805" lon="2.81155">
        <ele>110.4</ele>
        <time>2019-10-21T01:37:35Z</time>
      </trkpt>
      <trkpt lat="47.90836" lon="2.81148">
        <ele>110.3</ele>
        <time>2019-10-21T01:37:26Z</time>
      </trkpt>
      <trkpt lat="47.90885" lon="2.81131">
        <ele>109.2</ele>
        <time>2019-10-21T01:37:13Z</time>
      </trkpt>
      <trkpt lat="47.90966" lon="2.81099">
        <ele>110</ele>
        <time>2019-10-21T01:36:51Z</time>
      </trkpt>
      <trkpt lat="47.91016" lon="2.81075">
        <ele>109.1</ele>
        <time>2019-10-21T01:36:37Z</time>
      </trkpt>
      <trkpt lat="47.91058" lon="2.81046">
        <ele>108.8</ele>
        <time>2019-10-21T01:36:24Z</time>
      </trkpt>
      <trkpt lat="47.91081" lon="2.81032">
        <ele>110</ele>
        <time>2019-10-21T01:36:18Z</time>
      </trkpt>
      <trkpt lat="47.9111" lon="2.81016">
        <ele>108.8</ele>
        <time>2019-10-21T01:36:09Z</time>
      </trkpt>
      <trkpt lat="47.91139" lon="2.81006">
        <ele>109.5</ele>
        <time>2019-10-21T01:36:01Z</time>
      </trkpt>
      <trkpt lat="47.91188" lon="2.80995">
        <ele>109.8</ele>
        <time>2019-10-21T01:35:48Z</time>
      </trkpt>
      <trkpt lat="47.91256" lon="2.80982">
        <ele>109.1</ele>
        <time>2019-10-21T01:35:30Z</time>
      </trkpt>
      <trkpt lat="47.91283" lon="2.80977">
        <ele>109.8</ele>
        <time>2019-10-21T01:35:22Z</time>
      </trkpt>
      <trkpt lat="47.91302" lon="2.80975">
        <ele>110.2</ele>
        <time>2019-10-21T01:35:17Z</time>
      </trkpt>
      <trkpt lat="47.91319" lon="2.80975">
        <ele>110.2</ele>
        <time>2019-10-21T01:35:13Z</time>
      </trkpt>
      <trkpt lat="47.91339" lon="2.80977">
        <ele>109.9</ele>
        <time>2019-10-21T01:35:07Z</time>
      </trkpt>
      <trkpt lat="47.91356" lon="2.80984">
        <ele>109.1</ele>
        <time>2019-10-21T01:35:03Z</time>
      </trkpt>
      <trkpt lat="47.91481" lon="2.81042">
        <ele>109.8</ele>
        <time>2019-10-21T01:34:28Z</time>
      </trkpt>
      <trkpt lat="47.91514" lon="2.81062">
        <ele>110.7</ele>
        <time>2019-10-21T01:34:18Z</time>
      </trkpt>
      <trkpt lat="47.91544" lon="2.81086">
        <ele>110.8</ele>
        <time>2019-10-21T01:34:09Z</time>
      </trkpt>
      <trkpt lat="47.91595" lon="2.81127">
        <ele>110.3</ele>
        <time>2019-10-21T01:33:54Z</time>
      </trkpt>
      <trkpt lat="47.91648" lon="2.81162">
        <ele>111</ele>
        <time>2019-10-21T01:33:38Z</time>
      </trkpt>
      <trkpt lat="47.91672" lon="2.81173">
        <ele>110.6</ele>
        <time>2019-10-21T01:33:32Z</time>
      </trkpt>
      <trkpt lat="47.91696" lon="2.81181">
        <ele>110.5</ele>
        <time>2019-10-21T01:33:25Z</time>
      </trkpt>
      <trkpt lat="47.91731" lon="2.81187">
        <ele>111</ele>
        <time>2019-10-21T01:33:16Z</time>
      </trkpt>
      <trkpt lat="47.91858" lon="2.81199">
        <ele>110.7</ele>
        <time>2019-10-21T01:32:42Z</time>
      </trkpt>
      <trkpt lat="47.91911" lon="2.81204">
        <ele>110.3</ele>
        <time>2019-10-21T01:32:27Z</time>
      </trkpt>
      <trkpt lat="47.92004" lon="2.81214">
        <ele>110.4</ele>
        <time>2019-10-21T01:32:02Z</time>
      </trkpt>
      <trkpt lat="47.92066" lon="2.8122">
        <ele>111</ele>
        <time>2019-10-21T01:31:46Z</time>
      </trkpt>
      <trkpt lat="47.92158" lon="2.81229">
        <ele>110.8</ele>
        <time>2019-10-21T01:31:21Z</time>
      </trkpt>
      <trkpt lat="47.92258" lon="2.81238">
        <ele>110.4</ele>
        <time>2019-10-21T01:30:54Z</time>
      </trkpt>
      <trkpt lat="47.92284" lon="2.81238">
        <ele>110.4</ele>
        <time>2019-10-21T01:30:47Z</time>
      </trkpt>
      <trkpt lat="47.9231" lon="2.81234">
        <ele>110.5</ele>
        <time>2019-10-21T01:30:41Z</time>
      </trkpt>
      <trkpt lat="47.92329" lon="2.81229">
        <ele>110.5</ele>
        <time>2019-10-21T01:30:35Z</time>
      </trkpt>
      <trkpt lat="47.92361" lon="2.81215">
        <ele>111</ele>
        <time>2019-10-21T01:30:26Z</time>
      </trkpt>
      <trkpt lat="47.92406" lon="2.81201">
        <ele>110.6</ele>
        <time>2019-10-21T01:30:14Z</time>
      </trkpt>
      <trkpt lat="47.92434" lon="2.81195">
        <ele>110.9</ele>
        <time>2019-10-21T01:30:07Z</time>
      </trkpt>
      <trkpt lat="47.92497" lon="2.81194">
        <ele>111</ele>
        <time>2019-10-21T01:29:50Z</time>
      </trkpt>
      <trkpt lat="47.92636" lon="2.81196">
        <ele>110.8</ele>
        <time>2019-10-21T01:29:13Z</time>
      </trkpt>
      <trkpt lat="47.92783" lon="2.81196">
        <ele>110.8</ele>
        <time>2019-10-21T01:28:33Z</time>
      </trkpt>
      <trkpt lat="47.92832" lon="2.81198">
        <ele>110.5</ele>
        <time>2019-10-21T01:28:20Z</time>
      </trkpt>
      <trkpt lat="47.92861" lon="2.81202">
        <ele>107.5</ele>
        <time>2019-10-21T01:28:12Z</time>
      </trkpt>
      <trkpt lat="47.92891" lon="2.81204">
        <ele>107</ele>
        <time>2019-10-21T01:28:04Z</time>
      </trkpt>
      <trkpt lat="47.92938" lon="2.81196">
        <ele>107.8</ele>
        <time>2019-10-21T01:27:52Z</time>
      </trkpt>
      <trkpt lat="47.92982" lon="2.81184">
        <ele>107.2</ele>
        <time>2019-10-21T01:27:40Z</time>
      </trkpt>
      <trkpt lat="47.93017" lon="2.81171">
        <ele>107.1</ele>
        <time>2019-10-21T01:27:30Z</time>
      </trkpt>
      <trkpt lat="47.93061" lon="2.81153">
        <ele>106.8</ele>
        <time>2019-10-21T01:27:18Z</time>
      </trkpt>
      <trkpt lat="47.93122" lon="2.81119">
        <ele>106.9</ele>
        <time>2019-10-21T01:27:01Z</time>
      </trkpt>
      <trkpt lat="47.93147" lon="2.81103">
        <ele>106.6</ele>
        <time>2019-10-21T01:26:53Z</time>
      </trkpt>
      <trkpt lat="47.93158" lon="2.81095">
        <ele>106.4</ele>
        <time>2019-10-21T01:26:50Z</time>
      </trkpt>
      <trkpt lat="47.93191" lon="2.81077">
        <ele>105.9</ele>
        <time>2019-10-21T01:26:41Z</time>
      </trkpt>
      <trkpt lat="47.93196" lon="2.81075">
        <ele>105.6</ele>
        <time>2019-10-21T01:26:39Z</time>
      </trkpt>
      <trkpt lat="47.93207" lon="2.81073">
        <ele>104.9</ele>
        <time>2019-10-21T01:26:36Z</time>
      </trkpt>
      <trkpt lat="47.93236" lon="2.81062">
        <ele>103.9</ele>
        <time>2019-10-21T01:26:28Z</time>
      </trkpt>
      <trkpt lat="47.93287" lon="2.81036">
        <ele>103.4</ele>
        <time>2019-10-21T01:26:14Z</time>
      </trkpt>
      <trkpt lat="47.93311" lon="2.81017">
        <ele>103.3</ele>
        <time>2019-10-21T01:26:07Z</time>
      </trkpt>
      <trkpt lat="47.93344" lon="2.8099">
        <ele>103.3</ele>
        <time>2019-10-21T01:25:57Z</time>
      </trkpt>
      <trkpt lat="47.93361" lon="2.80974">
        <ele>103.8</ele>
        <time>2019-10-21T01:25:51Z</time>
      </trkpt>
      <trkpt lat="47.93388" lon="2.80942">
        <ele>103.1</ele>
        <time>2019-10-21T01:25:42Z</time>
      </trkpt>
      <trkpt lat="47.9341" lon="2.80911">
        <ele>102.8</ele>
        <time>2019-10-21T01:25:34Z</time>
      </trkpt>
      <trkpt lat="47.9343" lon="2.80882">
        <ele>102.8</ele>
        <time>2019-10-21T01:25:27Z</time>
      </trkpt>
      <trkpt lat="47.93447" lon="2.80852">
        <ele>103</ele>
        <time>2019-10-21T01:25:20Z</time>
      </trkpt>
      <trkpt lat="47.93463" lon="2.80812">
        <ele>102.4</ele>
        <time>2019-10-21T01:25:11Z</time>
      </trkpt>
      <trkpt lat="47.93476" lon="2.80785">
        <ele>103.4</ele>
        <time>2019-10-21T01:25:05Z</time>
      </trkpt>
      <trkpt lat="47.93494" lon="2.80761">
        <ele>103.2</ele>
        <time>2019-10-21T01:24:59Z</time>
      </trkpt>
      <trkpt lat="47.93504" lon="2.8075">
        <ele>102.9</ele>
        <time>2019-10-21T01:24:55Z</time>
      </trkpt>
      <trkpt lat="47.93522" lon="2.80719">
        <ele>100.7</ele>
        <time>2019-10-21T01:24:48Z</time>
      </trkpt>
      <trkpt lat="47.93535" lon="2.80695">
        <ele>99.8</ele>
        <time>2019-10-21T01:24:43Z</time>
      </trkpt>
      <trkpt lat="47.93572" lon="2.80621">
        <ele>99</ele>
        <time>2019-10-21T01:24:26Z</time>
      </trkpt>
      <trkpt lat="47.93621" lon="2.80502">
        <ele>98.9</ele>
        <time>2019-10-21T01:24:01Z</time>
      </trkpt>
      <trkpt lat="47.93661" lon="2.80396">
        <ele>98.8</ele>
        <time>2019-10-21T01:23:39Z</time>
      </trkpt>
      <trkpt lat="47.93669" lon="2.80371">
        <ele>99.4</ele>
        <time>2019-10-21T01:23:34Z</time>
      </trkpt>
      <trkpt lat="47.93674" lon="2.80348">
        <ele>99.2</ele>
        <time>2019-10-21T01:23:30Z</time>
      </trkpt>
      <trkpt lat="47.93696" lon="2.80293">
        <ele>98.5</ele>
        <time>2019-10-21T01:23:19Z</time>
      </trkpt>
      <trkpt lat="47.93719" lon="2.80233">
        <ele>97.1</ele>
        <time>2019-10-21T01:23:06Z</time>
      </trkpt>
      <trkpt lat="47.93775" lon="2.80084">
        <ele>97</ele>
        <time>2019-10-21T01:22:36Z</time>
      </trkpt>
      <trkpt lat="47.93825" lon="2.79952">
        <ele>96.2</ele>
        <time>2019-10-21T01:22:08Z</time>
      </trkpt>
      <trkpt lat="47.93848" lon="2.79882">
        <ele>96.5</ele>
        <time>2019-10-21T01:21:54Z</time>
      </trkpt>
      <trkpt lat="47.93864" lon="2.79827">
        <ele>96.9</ele>
        <time>2019-10-21T01:21:44Z</time>
      </trkpt>
      <trkpt lat="47.9388" lon="2.79769">
        <ele>96.5</ele>
        <time>2019-10-21T01:21:33Z</time>
      </trkpt>
      <trkpt lat="47.93905" lon="2.79681">
        <ele>96.1</ele>
        <time>2019-10-21T01:21:15Z</time>
      </trkpt>
      <trkpt lat="47.93924" lon="2.79612">
        <ele>96.5</ele>
        <time>2019-10-21T01:21:02Z</time>
      </trkpt>
      <trkpt lat="47.93946" lon="2.79544">
        <ele>96.4</ele>
        <time>2019-10-21T01:20:49Z</time>
      </trkpt>
      <trkpt lat="47.93959" lon="2.79508">
        <ele>96.1</ele>
        <time>2019-10-21T01:20:41Z</time>
      </trkpt>
      <trkpt lat="47.93979" lon="2.79469">
        <ele>96.8</ele>
        <time>2019-10-21T01:20:32Z</time>
      </trkpt>
      <trkpt lat="47.93996" lon="2.79433">
        <ele>96.5</ele>
        <time>2019-10-21T01:20:25Z</time>
      </trkpt>
      <trkpt lat="47.94035" lon="2.79358">
        <ele>96.5</ele>
        <time>2019-10-21T01:20:08Z</time>
      </trkpt>
      <trkpt lat="47.94056" lon="2.79316">
        <ele>96.2</ele>
        <time>2019-10-21T01:19:58Z</time>
      </trkpt>
      <trkpt lat="47.94067" lon="2.79291">
        <ele>96</ele>
        <time>2019-10-21T01:19:53Z</time>
      </trkpt>
      <trkpt lat="47.94078" lon="2.79252">
        <ele>96.1</ele>
        <time>2019-10-21T01:19:45Z</time>
      </trkpt>
      <trkpt lat="47.94084" lon="2.79217">
        <ele>96.1</ele>
        <time>2019-10-21T01:19:39Z</time>
      </trkpt>
      <trkpt lat="47.94089" lon="2.79184">
        <ele>96.6</ele>
        <time>2019-10-21T01:19:33Z</time>
      </trkpt>
      <trkpt lat="47.94105" lon="2.79087">
        <ele>96.1</ele>
        <time>2019-10-21T01:19:15Z</time>
      </trkpt>
      <trkpt lat="47.94114" lon="2.79047">
        <ele>95.9</ele>
        <time>2019-10-21T01:19:07Z</time>
      </trkpt>
      <trkpt lat="47.94123" lon="2.7902">
        <ele>95.4</ele>
        <time>2019-10-21T01:19:02Z</time>
      </trkpt>
      <trkpt lat="47.94134" lon="2.78996">
        <ele>95.6</ele>
        <time>2019-10-21T01:18:57Z</time>
      </trkpt>
      <trkpt lat="47.94149" lon="2.78971">
        <ele>95.9</ele>
        <time>2019-10-21T01:18:51Z</time>
      </trkpt>
      <trkpt lat="47.94188" lon="2.78914">
        <ele>96.3</ele>
        <time>2019-10-21T01:18:36Z</time>
      </trkpt>
      <trkpt lat="47.94202" lon="2.78893">
        <ele>95.7</ele>
        <time>2019-10-21T01:18:31Z</time>
      </trkpt>
      <trkpt lat="47.94219" lon="2.78871">
        <ele>95.8</ele>
        <time>2019-10-21T01:18:25Z</time>
      </trkpt>
      <trkpt lat="47.94231" lon="2.78858">
        <ele>95.8</ele>
        <time>2019-10-21T01:18:21Z</time>
      </trkpt>
      <trkpt lat="47.94256" lon="2.78822">
        <ele>96.7</ele>
        <time>2019-10-21T01:18:12Z</time>
      </trkpt>
      <trkpt lat="47.94295" lon="2.78772">
        <ele>96</ele>
        <time>2019-10-21T01:17:58Z</time>
      </trkpt>
      <trkpt lat="47.9434" lon="2.78718">
        <ele>95.9</ele>
        <time>2019-10-21T01:17:42Z</time>
      </trkpt>
      <trkpt lat="47.94367" lon="2.78691">
        <ele>95.9</ele>
        <time>2019-10-21T01:17:34Z</time>
      </trkpt>
      <trkpt lat="47.94382" lon="2.78676">
        <ele>95.9</ele>
        <time>2019-10-21T01:17:29Z</time>
      </trkpt>
      <trkpt lat="47.94393" lon="2.78666">
        <ele>95.9</ele>
        <time>2019-10-21T01:17:25Z</time>
      </trkpt>
      <trkpt lat="47.94407" lon="2.78655">
        <ele>96</ele>
        <time>2019-10-21T01:17:21Z</time>
      </trkpt>
      <trkpt lat="47.94428" lon="2.78641">
        <ele>96.4</ele>
        <time>2019-10-21T01:17:15Z</time>
      </trkpt>
      <trkpt lat="47.94442" lon="2.78633">
        <ele>96.3</ele>
        <time>2019-10-21T01:17:11Z</time>
      </trkpt>
      <trkpt lat="47.94497" lon="2.78598">
        <ele>95.6</ele>
        <time>2019-10-21T01:16:55Z</time>
      </trkpt>
      <trkpt lat="47.94554" lon="2.78563">
        <ele>95.5</ele>
        <time>2019-10-21T01:16:39Z</time>
      </trkpt>
      <trkpt lat="47.94593" lon="2.78542">
        <ele>96.3</ele>
        <time>2019-10-21T01:16:28Z</time>
      </trkpt>
      <trkpt lat="47.94639" lon="2.78513">
        <ele>96.5</ele>
        <time>2019-10-21T01:16:14Z</time>
      </trkpt>
      <trkpt lat="47.94666" lon="2.78492">
        <ele>96</ele>
        <time>2019-10-21T01:16:06Z</time>
      </trkpt>
      <trkpt lat="47.94717" lon="2.7845">
        <ele>96</ele>
        <time>2019-10-21T01:15:51Z</time>
      </trkpt>
      <trkpt lat="47.9475" lon="2.78426">
        <ele>95.7</ele>
        <time>2019-10-21T01:15:41Z</time>
      </trkpt>
      <trkpt lat="47.94757" lon="2.78423">
        <ele>95.5</ele>
        <time>2019-10-21T01:15:39Z</time>
      </trkpt>
      <trkpt lat="47.94792" lon="2.78393">
        <ele>94.1</ele>
        <time>2019-10-21T01:15:28Z</time>
      </trkpt>
      <trkpt lat="47.94846" lon="2.78346">
        <ele>94</ele>
        <time>2019-10-21T01:15:11Z</time>
      </trkpt>
      <trkpt lat="47.94896" lon="2.78305">
        <ele>94</ele>
        <time>2019-10-21T01:14:56Z</time>
      </trkpt>
      <trkpt lat="47.94983" lon="2.78235">
        <ele>94</ele>
        <time>2019-10-21T01:14:30Z</time>
      </trkpt>
      <trkpt lat="47.95026" lon="2.78206">
        <ele>94</ele>
        <time>2019-10-21T01:14:17Z</time>
      </trkpt>
      <trkpt lat="47.95059" lon="2.78183">
        <ele>93.6</ele>
        <time>2019-10-21T01:14:07Z</time>
      </trkpt>
      <trkpt lat="47.9509" lon="2.7816">
        <ele>94.4</ele>
        <time>2019-10-21T01:13:58Z</time>
      </trkpt>
      <trkpt lat="47.95108" lon="2.78148">
        <ele>93.7</ele>
        <time>2019-10-21T01:13:53Z</time>
      </trkpt>
      <trkpt lat="47.95136" lon="2.78127">
        <ele>93.5</ele>
        <time>2019-10-21T01:13:44Z</time>
      </trkpt>
      <trkpt lat="47.95159" lon="2.78103">
        <ele>93.5</ele>
        <time>2019-10-21T01:13:37Z</time>
      </trkpt>
      <trkpt lat="47.95165" lon="2.78097">
        <ele>93.5</ele>
        <time>2019-10-21T01:13:35Z</time>
      </trkpt>
      <trkpt lat="47.9518" lon="2.78082">
        <ele>93.5</ele>
        <time>2019-10-21T01:13:30Z</time>
      </trkpt>
      <trkpt lat="47.95205" lon="2.78057">
        <ele>93.6</ele>
        <time>2019-10-21T01:13:22Z</time>
      </trkpt>
      <trkpt lat="47.95214" lon="2.78049">
        <ele>93.5</ele>
        <time>2019-10-21T01:13:19Z</time>
      </trkpt>
      <trkpt lat="47.95252" lon="2.78024">
        <ele>93.8</ele>
        <time>2019-10-21T01:13:08Z</time>
      </trkpt>
      <trkpt lat="47.95286" lon="2.78004">
        <ele>93.2</ele>
        <time>2019-10-21T01:12:58Z</time>
      </trkpt>
      <trkpt lat="47.95313" lon="2.77989">
        <ele>93.8</ele>
        <time>2019-10-21T01:12:51Z</time>
      </trkpt>
      <trkpt lat="47.95347" lon="2.77974">
        <ele>93.9</ele>
        <time>2019-10-21T01:12:41Z</time>
      </trkpt>
      <trkpt lat="47.95385" lon="2.77954">
        <ele>92.8</ele>
        <time>2019-10-21T01:12:31Z</time>
      </trkpt>
      <trkpt lat="47.95407" lon="2.77945">
        <ele>93</ele>
        <time>2019-10-21T01:12:24Z</time>
      </trkpt>
      <trkpt lat="47.95431" lon="2.77933">
        <ele>92.7</ele>
        <time>2019-10-21T01:12:18Z</time>
      </trkpt>
      <trkpt lat="47.95455" lon="2.77915">
        <ele>93</ele>
        <time>2019-10-21T01:12:10Z</time>
      </trkpt>
      <trkpt lat="47.95484" lon="2.77888">
        <ele>93</ele>
        <time>2019-10-21T01:12:01Z</time>
      </trkpt>
      <trkpt lat="47.95507" lon="2.77862">
        <ele>93</ele>
        <time>2019-10-21T01:11:54Z</time>
      </trkpt>
      <trkpt lat="47.95546" lon="2.77822">
        <ele>93.3</ele>
        <time>2019-10-21T01:11:41Z</time>
      </trkpt>
      <trkpt lat="47.95569" lon="2.77799">
        <ele>93.4</ele>
        <time>2019-10-21T01:11:34Z</time>
      </trkpt>
      <trkpt lat="47.95585" lon="2.77785">
        <ele>93</ele>
        <time>2019-10-21T01:11:29Z</time>
      </trkpt>
      <trkpt lat="47.95605" lon="2.77771">
        <ele>93.1</ele>
        <time>2019-10-21T01:11:23Z</time>
      </trkpt>
      <trkpt lat="47.95641" lon="2.77751">
        <ele>93</ele>
        <time>2019-10-21T01:11:12Z</time>
      </trkpt>
      <trkpt lat="47.95683" lon="2.77727">
        <ele>93</ele>
        <time>2019-10-21T01:11:00Z</time>
      </trkpt>
      <trkpt lat="47.95698" lon="2.77718">
        <ele>92.9</ele>
        <time>2019-10-21T01:10:56Z</time>
      </trkpt>
      <trkpt lat="47.95709" lon="2.7771">
        <ele>92.7</ele>
        <time>2019-10-21T01:10:53Z</time>
      </trkpt>
      <trkpt lat="47.95718" lon="2.77701">
        <ele>92.8</ele>
        <time>2019-10-21T01:10:50Z</time>
      </trkpt>
      <trkpt lat="47.95724" lon="2.77693">
        <ele>92.9</ele>
        <time>2019-10-21T01:10:48Z</time>
      </trkpt>
      <trkpt lat="47.95734" lon="2.7768">
        <ele>92.8</ele>
        <time>2019-10-21T01:10:44Z</time>
      </trkpt>
      <trkpt lat="47.95744" lon="2.77664">
        <ele>93.1</ele>
        <time>2019-10-21T01:10:40Z</time>
      </trkpt>
      <trkpt lat="47.95775" lon="2.77622">
        <ele>92.7</ele>
        <time>2019-10-21T01:10:29Z</time>
      </trkpt>
      <trkpt lat="47.95807" lon="2.7758">
        <ele>93.1</ele>
        <time>2019-10-21T01:10:18Z</time>
      </trkpt>
      <trkpt lat="47.95836" lon="2.77545">
        <ele>92.9</ele>
        <time>2019-10-21T01:10:08Z</time>
      </trkpt>
      <trkpt lat="47.95852" lon="2.77529">
        <ele>93</ele>
        <time>2019-10-21T01:10:03Z</time>
      </trkpt>
      <trkpt lat="47.95869" lon="2.77512">
        <ele>92.9</ele>
        <time>2019-10-21T01:09:57Z</time>
      </trkpt>
      <trkpt lat="47.95896" lon="2.77487">
        <ele>92.9</ele>
        <time>2019-10-21T01:09:49Z</time>
      </trkpt>
      <trkpt lat="47.95937" lon="2.77451">
        <ele>93</ele>
        <time>2019-10-21T01:09:36Z</time>
      </trkpt>
      <trkpt lat="47.96001" lon="2.77399">
        <ele>92.6</ele>
        <time>2019-10-21T01:09:17Z</time>
      </trkpt>
      <trkpt lat="47.96017" lon="2.77384">
        <ele>92.6</ele>
        <time>2019-10-21T01:09:12Z</time>
      </trkpt>
      <trkpt lat="47.96025" lon="2.77376">
        <ele>92.6</ele>
        <time>2019-10-21T01:09:09Z</time>
      </trkpt>
      <trkpt lat="47.96033" lon="2.77365">
        <ele>92.7</ele>
        <time>2019-10-21T01:09:06Z</time>
      </trkpt>
      <trkpt lat="47.96041" lon="2.77352">
        <ele>92.7</ele>
        <time>2019-10-21T01:09:03Z</time>
      </trkpt>
      <trkpt lat="47.96046" lon="2.77344">
        <ele>92.7</ele>
        <time>2019-10-21T01:09:01Z</time>
      </trkpt>
      <trkpt lat="47.96061" lon="2.77304">
        <ele>92.8</ele>
        <time>2019-10-21T01:08:53Z</time>
      </trkpt>
      <trkpt lat="47.96088" lon="2.77215">
        <ele>93.4</ele>
        <time>2019-10-21T01:08:35Z</time>
      </trkpt>
      <trkpt lat="47.96122" lon="2.77111">
        <ele>92.6</ele>
        <time>2019-10-21T01:08:15Z</time>
      </trkpt>
      <trkpt lat="47.96142" lon="2.77049">
        <ele>92.8</ele>
        <time>2019-10-21T01:08:02Z</time>
      </trkpt>
      <trkpt lat="47.96148" lon="2.77032">
        <ele>92.3</ele>
        <time>2019-10-21T01:07:59Z</time>
      </trkpt>
      <trkpt lat="47.96157" lon="2.77014">
        <ele>92.5</ele>
        <time>2019-10-21T01:07:55Z</time>
      </trkpt>
      <trkpt lat="47.96176" lon="2.76984">
        <ele>92.5</ele>
        <time>2019-10-21T01:07:47Z</time>
      </trkpt>
      <trkpt lat="47.96253" lon="2.76872">
        <ele>92.4</ele>
        <time>2019-10-21T01:07:19Z</time>
      </trkpt>
      <trkpt lat="47.96297" lon="2.76807">
        <ele>92.3</ele>
        <time>2019-10-21T01:07:02Z</time>
      </trkpt>
      <trkpt lat="47.96305" lon="2.76794">
        <ele>92.4</ele>
        <time>2019-10-21T01:06:59Z</time>
      </trkpt>
      <trkpt lat="47.96324" lon="2.76758">
        <ele>92.6</ele>
        <time>2019-10-21T01:06:51Z</time>
      </trkpt>
      <trkpt lat="47.96333" lon="2.76744">
        <ele>93</ele>
        <time>2019-10-21T01:06:47Z</time>
      </trkpt>
      <trkpt lat="47.96348" lon="2.76725">
        <ele>94</ele>
        <time>2019-10-21T01:06:42Z</time>
      </trkpt>
      <trkpt lat="47.96359" lon="2.76717">
        <ele>94.5</ele>
        <time>2019-10-21T01:06:39Z</time>
      </trkpt>
      <trkpt lat="47.96365" lon="2.76711">
        <ele>94.2</ele>
        <time>2019-10-21T01:06:37Z</time>
      </trkpt>
      <trkpt lat="47.96383" lon="2.7668">
        <ele>93</ele>
        <time>2019-10-21T01:06:30Z</time>
      </trkpt>
      <trkpt lat="47.96392" lon="2.76665">
        <ele>91.8</ele>
        <time>2019-10-21T01:06:26Z</time>
      </trkpt>
      <trkpt lat="47.96414" lon="2.76635">
        <ele>91.2</ele>
        <time>2019-10-21T01:06:18Z</time>
      </trkpt>
      <trkpt lat="47.96456" lon="2.76582">
        <ele>91.6</ele>
        <time>2019-10-21T01:06:03Z</time>
      </trkpt>
      <trkpt lat="47.96488" lon="2.76541">
        <ele>91.2</ele>
        <time>2019-10-21T01:05:52Z</time>
      </trkpt>
      <trkpt lat="47.96523" lon="2.765">
        <ele>91</ele>
        <time>2019-10-21T01:05:40Z</time>
      </trkpt>
      <trkpt lat="47.96583" lon="2.76426">
        <ele>91</ele>
        <time>2019-10-21T01:05:19Z</time>
      </trkpt>
      <trkpt lat="47.96609" lon="2.76393">
        <ele>90.9</ele>
        <time>2019-10-21T01:05:10Z</time>
      </trkpt>
      <trkpt lat="47.96649" lon="2.76344">
        <ele>90.9</ele>
        <time>2019-10-21T01:04:56Z</time>
      </trkpt>
      <trkpt lat="47.96671" lon="2.76317">
        <ele>90.8</ele>
        <time>2019-10-21T01:04:49Z</time>
      </trkpt>
      <trkpt lat="47.96691" lon="2.76295">
        <ele>90.5</ele>
        <time>2019-10-21T01:04:42Z</time>
      </trkpt>
      <trkpt lat="47.96708" lon="2.76278">
        <ele>91</ele>
        <time>2019-10-21T01:04:37Z</time>
      </trkpt>
      <trkpt lat="47.96725" lon="2.76265">
        <ele>90.9</ele>
        <time>2019-10-21T01:04:32Z</time>
      </trkpt>
      <trkpt lat="47.96743" lon="2.76253">
        <ele>90.9</ele>
        <time>2019-10-21T01:04:26Z</time>
      </trkpt>
      <trkpt lat="47.96756" lon="2.76245">
        <ele>90.8</ele>
        <time>2019-10-21T01:04:23Z</time>
      </trkpt>
      <trkpt lat="47.96779" lon="2.76231">
        <ele>90.7</ele>
        <time>2019-10-21T01:04:16Z</time>
      </trkpt>
      <trkpt lat="47.9679" lon="2.76221">
        <ele>91</ele>
        <time>2019-10-21T01:04:12Z</time>
      </trkpt>
      <trkpt lat="47.96799" lon="2.76212">
        <ele>91</ele>
        <time>2019-10-21T01:04:10Z</time>
      </trkpt>
      <trkpt lat="47.96809" lon="2.76198">
        <ele>90.9</ele>
        <time>2019-10-21T01:04:06Z</time>
      </trkpt>
      <trkpt lat="47.96836" lon="2.76159">
        <ele>90.9</ele>
        <time>2019-10-21T01:03:56Z</time>
      </trkpt>
      <trkpt lat="47.96851" lon="2.76139">
        <ele>91</ele>
        <time>2019-10-21T01:03:51Z</time>
      </trkpt>
      <trkpt lat="47.96858" lon="2.7613">
        <ele>91</ele>
        <time>2019-10-21T01:03:48Z</time>
      </trkpt>
      <trkpt lat="47.96877" lon="2.76109">
        <ele>90.5</ele>
        <time>2019-10-21T01:03:42Z</time>
      </trkpt>
      <trkpt lat="47.96897" lon="2.76088">
        <ele>90.6</ele>
        <time>2019-10-21T01:03:35Z</time>
      </trkpt>
      <trkpt lat="47.96918" lon="2.76065">
        <ele>90.6</ele>
        <time>2019-10-21T01:03:28Z</time>
      </trkpt>
      <trkpt lat="47.96936" lon="2.76042">
        <ele>90.6</ele>
        <time>2019-10-21T01:03:22Z</time>
      </trkpt>
      <trkpt lat="47.96949" lon="2.76023">
        <ele>90.8</ele>
        <time>2019-10-21T01:03:17Z</time>
      </trkpt>
      <trkpt lat="47.96965" lon="2.75996">
        <ele>90.4</ele>
        <time>2019-10-21T01:03:11Z</time>
      </trkpt>
      <trkpt lat="47.96981" lon="2.75966">
        <ele>90.7</ele>
        <time>2019-10-21T01:03:04Z</time>
      </trkpt>
      <trkpt lat="47.96997" lon="2.75935">
        <ele>90.4</ele>
        <time>2019-10-21T01:02:57Z</time>
      </trkpt>
      <trkpt lat="47.97006" lon="2.75917">
        <ele>90.8</ele>
        <time>2019-10-21T01:02:53Z</time>
      </trkpt>
      <trkpt lat="47.97022" lon="2.75887">
        <ele>91.1</ele>
        <time>2019-10-21T01:02:46Z</time>
      </trkpt>
      <trkpt lat="47.97053" lon="2.7582">
        <ele>90.5</ele>
        <time>2019-10-21T01:02:31Z</time>
      </trkpt>
      <trkpt lat="47.97069" lon="2.75783">
        <ele>90.5</ele>
        <time>2019-10-21T01:02:23Z</time>
      </trkpt>
      <trkpt lat="47.97095" lon="2.75728">
        <ele>90.6</ele>
        <time>2019-10-21T01:02:11Z</time>
      </trkpt>
      <trkpt lat="47.97116" lon="2.75687">
        <ele>91</ele>
        <time>2019-10-21T01:02:02Z</time>
      </trkpt>
      <trkpt lat="47.97125" lon="2.75667">
        <ele>92.5</ele>
        <time>2019-10-21T01:01:58Z</time>
      </trkpt>
      <trkpt lat="47.97138" lon="2.75645">
        <ele>92.4</ele>
        <time>2019-10-21T01:01:53Z</time>
      </trkpt>
      <trkpt lat="47.97151" lon="2.75634">
        <ele>93.3</ele>
        <time>2019-10-21T01:01:49Z</time>
      </trkpt>
      <trkpt lat="47.9716" lon="2.75615">
        <ele>91.6</ele>
        <time>2019-10-21T01:01:44Z</time>
      </trkpt>
      <trkpt lat="47.97185" lon="2.75548">
        <ele>90.5</ele>
        <time>2019-10-21T01:01:31Z</time>
      </trkpt>
      <trkpt lat="47.9723" lon="2.75451">
        <ele>90.4</ele>
        <time>2019-10-21T01:01:10Z</time>
      </trkpt>
      <trkpt lat="47.97263" lon="2.75387">
        <ele>90.2</ele>
        <time>2019-10-21T01:00:55Z</time>
      </trkpt>
      <trkpt lat="47.97312" lon="2.75292">
        <ele>90.5</ele>
        <time>2019-10-21T01:00:34Z</time>
      </trkpt>
      <trkpt lat="47.97361" lon="2.75193">
        <ele>91</ele>
        <time>2019-10-21T01:00:12Z</time>
      </trkpt>
      <trkpt lat="47.97404" lon="2.75106">
        <ele>89.8</ele>
        <time>2019-10-21T00:59:52Z</time>
      </trkpt>
      <trkpt lat="47.97433" lon="2.75045">
        <ele>90.3</ele>
        <time>2019-10-21T00:59:39Z</time>
      </trkpt>
      <trkpt lat="47.97448" lon="2.75012">
        <ele>90.6</ele>
        <time>2019-10-21T00:59:32Z</time>
      </trkpt>
      <trkpt lat="47.97468" lon="2.74962">
        <ele>90.1</ele>
        <time>2019-10-21T00:59:21Z</time>
      </trkpt>
      <trkpt lat="47.97482" lon="2.74924">
        <ele>90.3</ele>
        <time>2019-10-21T00:59:14Z</time>
      </trkpt>
      <trkpt lat="47.97498" lon="2.74883">
        <ele>90.3</ele>
        <time>2019-10-21T00:59:05Z</time>
      </trkpt>
      <trkpt lat="47.97513" lon="2.74851">
        <ele>90.2</ele>
        <time>2019-10-21T00:58:58Z</time>
      </trkpt>
      <trkpt lat="47.97547" lon="2.74789">
        <ele>89.7</ele>
        <time>2019-10-21T00:58:44Z</time>
      </trkpt>
      <trkpt lat="47.97573" lon="2.74742">
        <ele>89.8</ele>
        <time>2019-10-21T00:58:33Z</time>
      </trkpt>
      <trkpt lat="47.97603" lon="2.74694">
        <ele>90.6</ele>
        <time>2019-10-21T00:58:21Z</time>
      </trkpt>
      <trkpt lat="47.97646" lon="2.74631">
        <ele>90.6</ele>
        <time>2019-10-21T00:58:05Z</time>
      </trkpt>
      <trkpt lat="47.97692" lon="2.74563">
        <ele>90.6</ele>
        <time>2019-10-21T00:57:48Z</time>
      </trkpt>
      <trkpt lat="47.97717" lon="2.74528">
        <ele>91</ele>
        <time>2019-10-21T00:57:39Z</time>
      </trkpt>
      <trkpt lat="47.97746" lon="2.7449">
        <ele>91.1</ele>
        <time>2019-10-21T00:57:28Z</time>
      </trkpt>
      <trkpt lat="47.9776" lon="2.74467">
        <ele>91</ele>
        <time>2019-10-21T00:57:23Z</time>
      </trkpt>
      <trkpt lat="47.97773" lon="2.74444">
        <ele>89.4</ele>
        <time>2019-10-21T00:57:17Z</time>
      </trkpt>
      <trkpt lat="47.97778" lon="2.74432">
        <ele>89.9</ele>
        <time>2019-10-21T00:57:15Z</time>
      </trkpt>
      <trkpt lat="47.97784" lon="2.7442">
        <ele>90.1</ele>
        <time>2019-10-21T00:57:12Z</time>
      </trkpt>
      <trkpt lat="47.97788" lon="2.74401">
        <ele>89.9</ele>
        <time>2019-10-21T00:57:09Z</time>
      </trkpt>
      <trkpt lat="47.97796" lon="2.74382">
        <ele>89.4</ele>
        <time>2019-10-21T00:57:05Z</time>
      </trkpt>
      <trkpt lat="47.97804" lon="2.74365">
        <ele>89.8</ele>
        <time>2019-10-21T00:57:01Z</time>
      </trkpt>
      <trkpt lat="47.97813" lon="2.74353">
        <ele>89.6</ele>
        <time>2019-10-21T00:56:58Z</time>
      </trkpt>
      <trkpt lat="47.9782" lon="2.74346">
        <ele>89.5</ele>
        <time>2019-10-21T00:56:55Z</time>
      </trkpt>
      <trkpt lat="47.9783" lon="2.7433">
        <ele>90.3</ele>
        <time>2019-10-21T00:56:51Z</time>
      </trkpt>
      <trkpt lat="47.97848" lon="2.74298">
        <ele>91.1</ele>
        <time>2019-10-21T00:56:44Z</time>
      </trkpt>
      <trkpt lat="47.97864" lon="2.7428">
        <ele>90.9</ele>
        <time>2019-10-21T00:56:39Z</time>
      </trkpt>
      <trkpt lat="47.9788" lon="2.74265">
        <ele>90.8</ele>
        <time>2019-10-21T00:56:34Z</time>
      </trkpt>
      <trkpt lat="47.97908" lon="2.74243">
        <ele>90.8</ele>
        <time>2019-10-21T00:56:25Z</time>
      </trkpt>
      <trkpt lat="47.97939" lon="2.74221">
        <ele>91</ele>
        <time>2019-10-21T00:56:16Z</time>
      </trkpt>
      <trkpt lat="47.97947" lon="2.74215">
        <ele>90.7</ele>
        <time>2019-10-21T00:56:14Z</time>
      </trkpt>
      <trkpt lat="47.98017" lon="2.74169">
        <ele>90.1</ele>
        <time>2019-10-21T00:55:53Z</time>
      </trkpt>
      <trkpt lat="47.98062" lon="2.74135">
        <ele>90.8</ele>
        <time>2019-10-21T00:55:40Z</time>
      </trkpt>
      <trkpt lat="47.98092" lon="2.74111">
        <ele>91</ele>
        <time>2019-10-21T00:55:31Z</time>
      </trkpt>
      <trkpt lat="47.98106" lon="2.74097">
        <ele>91</ele>
        <time>2019-10-21T00:55:26Z</time>
      </trkpt>
      <trkpt lat="47.98127" lon="2.74071">
        <ele>91</ele>
        <time>2019-10-21T00:55:19Z</time>
      </trkpt>
      <trkpt lat="47.98164" lon="2.7402">
        <ele>91.1</ele>
        <time>2019-10-21T00:55:05Z</time>
      </trkpt>
      <trkpt lat="47.98192" lon="2.7399">
        <ele>91.1</ele>
        <time>2019-10-21T00:54:56Z</time>
      </trkpt>
      <trkpt lat="47.98218" lon="2.73967">
        <ele>91.1</ele>
        <time>2019-10-21T00:54:48Z</time>
      </trkpt>
      <trkpt lat="47.98277" lon="2.73925">
        <ele>90.4</ele>
        <time>2019-10-21T00:54:31Z</time>
      </trkpt>
      <trkpt lat="47.98372" lon="2.73873">
        <ele>90.2</ele>
        <time>2019-10-21T00:54:04Z</time>
      </trkpt>
      <trkpt lat="47.98427" lon="2.73847">
        <ele>90.1</ele>
        <time>2019-10-21T00:53:48Z</time>
      </trkpt>
      <trkpt lat="47.98466" lon="2.73829">
        <ele>90.4</ele>
        <time>2019-10-21T00:53:37Z</time>
      </trkpt>
      <trkpt lat="47.98476" lon="2.73825">
        <ele>90.1</ele>
        <time>2019-10-21T00:53:35Z</time>
      </trkpt>
      <trkpt lat="47.98545" lon="2.738">
        <ele>90.6</ele>
        <time>2019-10-21T00:53:16Z</time>
      </trkpt>
      <trkpt lat="47.98581" lon="2.73787">
        <ele>90.1</ele>
        <time>2019-10-21T00:53:06Z</time>
      </trkpt>
      <trkpt lat="47.98644" lon="2.73764">
        <ele>90.2</ele>
        <time>2019-10-21T00:52:48Z</time>
      </trkpt>
      <trkpt lat="47.987" lon="2.73746">
        <ele>88.9</ele>
        <time>2019-10-21T00:52:33Z</time>
      </trkpt>
      <trkpt lat="47.98754" lon="2.73725">
        <ele>90.2</ele>
        <time>2019-10-21T00:52:18Z</time>
      </trkpt>
      <trkpt lat="47.98793" lon="2.73707">
        <ele>89.4</ele>
        <time>2019-10-21T00:52:07Z</time>
      </trkpt>
      <trkpt lat="47.98809" lon="2.73692">
        <ele>90.5</ele>
        <time>2019-10-21T00:52:02Z</time>
      </trkpt>
      <trkpt lat="47.98821" lon="2.73677">
        <ele>89.8</ele>
        <time>2019-10-21T00:51:58Z</time>
      </trkpt>
      <trkpt lat="47.98854" lon="2.73622">
        <ele>90</ele>
        <time>2019-10-21T00:51:45Z</time>
      </trkpt>
      <trkpt lat="47.98884" lon="2.73565">
        <ele>90.3</ele>
        <time>2019-10-21T00:51:32Z</time>
      </trkpt>
      <trkpt lat="47.98901" lon="2.73544">
        <ele>90.2</ele>
        <time>2019-10-21T00:51:26Z</time>
      </trkpt>
      <trkpt lat="47.98911" lon="2.73536">
        <ele>90.3</ele>
        <time>2019-10-21T00:51:23Z</time>
      </trkpt>
      <trkpt lat="47.98922" lon="2.73521">
        <ele>90.6</ele>
        <time>2019-10-21T00:51:19Z</time>
      </trkpt>
      <trkpt lat="47.98933" lon="2.7351">
        <ele>90.7</ele>
        <time>2019-10-21T00:51:15Z</time>
      </trkpt>
      <trkpt lat="47.98957" lon="2.7349">
        <ele>92.1</ele>
        <time>2019-10-21T00:51:08Z</time>
      </trkpt>
      <trkpt lat="47.98963" lon="2.73482">
        <ele>92</ele>
        <time>2019-10-21T00:51:06Z</time>
      </trkpt>
      <trkpt lat="47.98972" lon="2.73477">
        <ele>92.2</ele>
        <time>2019-10-21T00:51:03Z</time>
      </trkpt>
      <trkpt lat="47.9898" lon="2.73477">
        <ele>91.7</ele>
        <time>2019-10-21T00:51:01Z</time>
      </trkpt>
      <trkpt lat="47.99004" lon="2.73467">
        <ele>90.8</ele>
        <time>2019-10-21T00:50:55Z</time>
      </trkpt>
      <trkpt lat="47.99013" lon="2.73467">
        <ele>90.2</ele>
        <time>2019-10-21T00:50:52Z</time>
      </trkpt>
      <trkpt lat="47.99031" lon="2.7346">
        <ele>89.9</ele>
        <time>2019-10-21T00:50:47Z</time>
      </trkpt>
      <trkpt lat="47.99094" lon="2.73459">
        <ele>89.6</ele>
        <time>2019-10-21T00:50:30Z</time>
      </trkpt>
      <trkpt lat="47.99136" lon="2.73463">
        <ele>90.3</ele>
        <time>2019-10-21T00:50:19Z</time>
      </trkpt>
      <trkpt lat="47.99222" lon="2.73474">
        <ele>90.8</ele>
        <time>2019-10-21T00:49:56Z</time>
      </trkpt>
      <trkpt lat="47.99297" lon="2.73486">
        <ele>89.4</ele>
        <time>2019-10-21T00:49:36Z</time>
      </trkpt>
      <trkpt lat="47.99353" lon="2.73498">
        <ele>89.8</ele>
        <time>2019-10-21T00:49:21Z</time>
      </trkpt>
      <trkpt lat="47.99358" lon="2.73495">
        <ele>90.1</ele>
        <time>2019-10-21T00:49:19Z</time>
      </trkpt>
      <trkpt lat="47.99398" lon="2.73509">
        <ele>89.4</ele>
        <time>2019-10-21T00:49:08Z</time>
      </trkpt>
      <trkpt lat="47.99418" lon="2.7352">
        <ele>88.2</ele>
        <time>2019-10-21T00:49:03Z</time>
      </trkpt>
      <trkpt lat="47.99442" lon="2.7354">
        <ele>86.5</ele>
        <time>2019-10-21T00:48:55Z</time>
      </trkpt>
      <trkpt lat="47.99452" lon="2.73543">
        <ele>86.5</ele>
        <time>2019-10-21T00:48:53Z</time>
      </trkpt>
      <trkpt lat="47.99468" lon="2.73542">
        <ele>86.5</ele>
        <time>2019-10-21T00:48:48Z</time>
      </trkpt>
      <trkpt lat="47.99478" lon="2.73542">
        <ele>86.5</ele>
        <time>2019-10-21T00:48:46Z</time>
      </trkpt>
      <trkpt lat="47.99508" lon="2.73541">
        <ele>86.6</ele>
        <time>2019-10-21T00:48:38Z</time>
      </trkpt>
      <trkpt lat="47.99607" lon="2.73545">
        <ele>87</ele>
        <time>2019-10-21T00:48:11Z</time>
      </trkpt>
      <trkpt lat="47.99627" lon="2.73546">
        <ele>86.6</ele>
        <time>2019-10-21T00:48:06Z</time>
      </trkpt>
      <trkpt lat="47.99627" lon="2.73562">
        <ele>86.8</ele>
        <time>2019-10-21T00:48:03Z</time>
      </trkpt>
      <trkpt lat="47.99651" lon="2.73563">
        <ele>86.6</ele>
        <time>2019-10-21T00:47:57Z</time>
      </trkpt>
      <trkpt lat="47.99757" lon="2.73574">
        <ele>87.6</ele>
        <time>2019-10-21T00:47:28Z</time>
      </trkpt>
      <trkpt lat="47.99766" lon="2.73574">
        <ele>87.5</ele>
        <time>2019-10-21T00:47:26Z</time>
      </trkpt>
      <trkpt lat="47.99768" lon="2.73592">
        <ele>88</ele>
        <time>2019-10-21T00:47:22Z</time>
      </trkpt>
      <trkpt lat="47.9977" lon="2.73618">
        <ele>88</ele>
        <time>2019-10-21T00:47:18Z</time>
      </trkpt>
      <trkpt lat="47.9977" lon="2.7362">
        <ele>88</ele>
        <time>2019-10-21T00:47:17Z</time>
      </trkpt>
      <trkpt lat="47.99773" lon="2.73651">
        <ele>86.5</ele>
        <time>2019-10-21T00:47:12Z</time>
      </trkpt>
      <trkpt lat="47.99773" lon="2.73658">
        <ele>85.6</ele>
        <time>2019-10-21T00:47:11Z</time>
      </trkpt>
      <trkpt lat="47.99779" lon="2.73659">
        <ele>85.2</ele>
        <time>2019-10-21T00:47:09Z</time>
      </trkpt>
      <trkpt lat="47.99781" lon="2.73659">
        <ele>85.3</ele>
        <time>2019-10-21T00:47:08Z</time>
      </trkpt>
      <trkpt lat="47.99872" lon="2.7367">
        <ele>85.7</ele>
        <time>2019-10-21T00:46:44Z</time>
      </trkpt>
      <trkpt lat="47.99874" lon="2.73662">
        <ele>86</ele>
        <time>2019-10-21T00:46:42Z</time>
      </trkpt>
      <trkpt lat="47.99875" lon="2.73639">
        <ele>86</ele>
        <time>2019-10-21T00:46:38Z</time>
      </trkpt>
      <trkpt lat="47.99876" lon="2.73613">
        <ele>86</ele>
        <time>2019-10-21T00:46:34Z</time>
      </trkpt>
      <trkpt lat="47.99872" lon="2.73566">
        <ele>85.2</ele>
        <time>2019-10-21T00:46:25Z</time>
      </trkpt>
      <trkpt lat="47.99863" lon="2.73572">
        <ele>85.2</ele>
        <time>2019-10-21T00:46:23Z</time>
      </trkpt>
      <trkpt lat="47.99842" lon="2.73578">
        <ele>85.7</ele>
        <time>2019-10-21T00:46:17Z</time>
      </trkpt>
      <trkpt lat="47.99816" lon="2.7358">
        <ele>86.4</ele>
        <time>2019-10-21T00:46:10Z</time>
      </trkpt>
      <trkpt lat="47.99798" lon="2.7358">
        <ele>87</ele>
        <time>2019-10-21T00:46:05Z</time>
      </trkpt>
      <trkpt lat="47.99766" lon="2.73574">
        <ele>87.5</ele>
        <time>2019-10-21T00:45:57Z</time>
      </trkpt>
      <trkpt lat="47.99757" lon="2.73574">
        <ele>87.6</ele>
        <time>2019-10-21T00:45:54Z</time>
      </trkpt>
      <trkpt lat="47.99651" lon="2.73563">
        <ele>86.6</ele>
        <time>2019-10-21T00:45:26Z</time>
      </trkpt>
      <trkpt lat="47.99627" lon="2.73562">
        <ele>86.8</ele>
        <time>2019-10-21T00:45:19Z</time>
      </trkpt>
      <trkpt lat="47.99627" lon="2.73546">
        <ele>86.6</ele>
        <time>2019-10-21T00:45:16Z</time>
      </trkpt>
      <trkpt lat="47.99627" lon="2.73543">
        <ele>86.5</ele>
        <time>2019-10-21T00:45:16Z</time>
      </trkpt>
      <trkpt lat="47.99628" lon="2.73521">
        <ele>86.1</ele>
        <time>2019-10-21T00:45:12Z</time>
      </trkpt>
      <trkpt lat="47.99628" lon="2.7352">
        <ele>86.1</ele>
        <time>2019-10-21T00:45:12Z</time>
      </trkpt>
      <trkpt lat="47.99632" lon="2.7352">
        <ele>85.9</ele>
        <time>2019-10-21T00:45:11Z</time>
      </trkpt>
      <trkpt lat="47.99683" lon="2.73524">
        <ele>85.1</ele>
        <time>2019-10-21T00:44:57Z</time>
      </trkpt>
      <trkpt lat="47.99692" lon="2.73525">
        <ele>85.1</ele>
        <time>2019-10-21T00:44:55Z</time>
      </trkpt>
      <trkpt lat="47.99743" lon="2.73527">
        <ele>85</ele>
        <time>2019-10-21T00:44:41Z</time>
      </trkpt>
      <trkpt lat="47.99759" lon="2.73536">
        <ele>85.7</ele>
        <time>2019-10-21T00:44:36Z</time>
      </trkpt>
      <trkpt lat="47.99775" lon="2.7354">
        <ele>86</ele>
        <time>2019-10-21T00:44:32Z</time>
      </trkpt>
      <trkpt lat="47.99784" lon="2.73539">
        <ele>85.9</ele>
        <time>2019-10-21T00:44:30Z</time>
      </trkpt>
      <trkpt lat="47.99794" lon="2.73537">
        <ele>85.8</ele>
        <time>2019-10-21T00:44:27Z</time>
      </trkpt>
      <trkpt lat="47.99807" lon="2.73537">
        <ele>85.7</ele>
        <time>2019-10-21T00:44:24Z</time>
      </trkpt>
      <trkpt lat="47.99822" lon="2.73541">
        <ele>85.5</ele>
        <time>2019-10-21T00:44:19Z</time>
      </trkpt>
      <trkpt lat="47.99836" lon="2.73543">
        <ele>85.4</ele>
        <time>2019-10-21T00:44:16Z</time>
      </trkpt>
      <trkpt lat="47.99844" lon="2.73541">
        <ele>85.1</ele>
        <time>2019-10-21T00:44:14Z</time>
      </trkpt>
      <trkpt lat="47.99852" lon="2.73538">
        <ele>85</ele>
        <time>2019-10-21T00:44:11Z</time>
      </trkpt>
      <trkpt lat="47.99863" lon="2.7353">
        <ele>85</ele>
        <time>2019-10-21T00:44:08Z</time>
      </trkpt>
      <trkpt lat="47.99872" lon="2.7352">
        <ele>85.5</ele>
        <time>2019-10-21T00:44:05Z</time>
      </trkpt>
      <trkpt lat="47.99878" lon="2.73512">
        <ele>85.5</ele>
        <time>2019-10-21T00:44:03Z</time>
      </trkpt>
      <trkpt lat="47.99884" lon="2.73497">
        <ele>85.2</ele>
        <time>2019-10-21T00:44:00Z</time>
      </trkpt>
      <trkpt lat="47.99889" lon="2.73482">
        <ele>85</ele>
        <time>2019-10-21T00:43:57Z</time>
      </trkpt>
      <trkpt lat="47.99892" lon="2.73469">
        <ele>85.2</ele>
        <time>2019-10-21T00:43:54Z</time>
      </trkpt>
      <trkpt lat="47.99902" lon="2.73428">
        <ele>85.7</ele>
        <time>2019-10-21T00:43:47Z</time>
      </trkpt>
      <trkpt lat="47.99913" lon="2.73379">
        <ele>85.1</ele>
        <time>2019-10-21T00:43:37Z</time>
      </trkpt>
      <trkpt lat="47.99915" lon="2.73369">
        <ele>85.1</ele>
        <time>2019-10-21T00:43:35Z</time>
      </trkpt>
      <trkpt lat="47.99922" lon="2.73351">
        <ele>86.2</ele>
        <time>2019-10-21T00:43:32Z</time>
      </trkpt>
      <trkpt lat="47.99924" lon="2.73348">
        <ele>86.4</ele>
        <time>2019-10-21T00:43:31Z</time>
      </trkpt>
      <trkpt lat="47.99927" lon="2.73334">
        <ele>87.2</ele>
        <time>2019-10-21T00:43:28Z</time>
      </trkpt>
      <trkpt lat="47.99927" lon="2.73326">
        <ele>86.8</ele>
        <time>2019-10-21T00:43:27Z</time>
      </trkpt>
      <trkpt lat="47.99928" lon="2.7331">
        <ele>85.8</ele>
        <time>2019-10-21T00:43:24Z</time>
      </trkpt>
      <trkpt lat="47.9993" lon="2.73299">
        <ele>85.4</ele>
        <time>2019-10-21T00:43:22Z</time>
      </trkpt>
      <trkpt lat="47.99935" lon="2.73278">
        <ele>84.7</ele>
        <time>2019-10-21T00:43:18Z</time>
      </trkpt>
      <trkpt lat="47.99939" lon="2.73248">
        <ele>85.2</ele>
        <time>2019-10-21T00:43:13Z</time>
      </trkpt>
      <trkpt lat="47.9994" lon="2.73246">
        <ele>85.2</ele>
        <time>2019-10-21T00:43:12Z</time>
      </trkpt>
      <trkpt lat="47.99943" lon="2.7322">
        <ele>85.1</ele>
        <time>2019-10-21T00:43:07Z</time>
      </trkpt>
      <trkpt lat="47.99944" lon="2.73211">
        <ele>85</ele>
        <time>2019-10-21T00:43:06Z</time>
      </trkpt>
      <trkpt lat="47.99947" lon="2.73177">
        <ele>85.7</ele>
        <time>2019-10-21T00:43:00Z</time>
      </trkpt>
      <trkpt lat="47.99948" lon="2.73144">
        <ele>85.9</ele>
        <time>2019-10-21T00:42:54Z</time>
      </trkpt>
      <trkpt lat="47.99949" lon="2.7312">
        <ele>85.3</ele>
        <time>2019-10-21T00:42:49Z</time>
      </trkpt>
      <trkpt lat="47.99949" lon="2.73102">
        <ele>85.3</ele>
        <time>2019-10-21T00:42:46Z</time>
      </trkpt>
      <trkpt lat="47.9995" lon="2.73083">
        <ele>85.8</ele>
        <time>2019-10-21T00:42:43Z</time>
      </trkpt>
      <trkpt lat="47.9995" lon="2.73016">
        <ele>85.8</ele>
        <time>2019-10-21T00:42:31Z</time>
      </trkpt>
      <trkpt lat="47.9995" lon="2.72981">
        <ele>85.3</ele>
        <time>2019-10-21T00:42:25Z</time>
      </trkpt>
      <trkpt lat="47.99951" lon="2.72967">
        <ele>85.5</ele>
        <time>2019-10-21T00:42:22Z</time>
      </trkpt>
      <trkpt lat="47.99951" lon="2.72964">
        <ele>85.8</ele>
        <time>2019-10-21T00:42:22Z</time>
      </trkpt>
      <trkpt lat="47.9996" lon="2.72943">
        <ele>86.3</ele>
        <time>2019-10-21T00:42:17Z</time>
      </trkpt>
      <trkpt lat="47.99973" lon="2.72924">
        <ele>85.5</ele>
        <time>2019-10-21T00:42:12Z</time>
      </trkpt>
      <trkpt lat="48.00005" lon="2.72904">
        <ele>87</ele>
        <time>2019-10-21T00:42:03Z</time>
      </trkpt>
      <trkpt lat="48.00019" lon="2.72897">
        <ele>86.6</ele>
        <time>2019-10-21T00:41:59Z</time>
      </trkpt>
      <trkpt lat="48.00021" lon="2.72884">
        <ele>87.5</ele>
        <time>2019-10-21T00:41:57Z</time>
      </trkpt>
      <trkpt lat="48.00041" lon="2.72878">
        <ele>86.3</ele>
        <time>2019-10-21T00:41:51Z</time>
      </trkpt>
      <trkpt lat="48.00221" lon="2.72758">
        <ele>85.2</ele>
        <time>2019-10-21T00:40:58Z</time>
      </trkpt>
      <trkpt lat="48.00244" lon="2.72744">
        <ele>84.4</ele>
        <time>2019-10-21T00:40:52Z</time>
      </trkpt>
      <trkpt lat="48.00295" lon="2.72711">
        <ele>84.6</ele>
        <time>2019-10-21T00:40:37Z</time>
      </trkpt>
      <trkpt lat="48.00347" lon="2.72677">
        <ele>84.8</ele>
        <time>2019-10-21T00:40:22Z</time>
      </trkpt>
      <trkpt lat="48.00406" lon="2.72635">
        <ele>85.6</ele>
        <time>2019-10-21T00:40:04Z</time>
      </trkpt>
      <trkpt lat="48.00473" lon="2.7259">
        <ele>86.5</ele>
        <time>2019-10-21T00:39:45Z</time>
      </trkpt>
      <trkpt lat="48.00543" lon="2.7254">
        <ele>85.6</ele>
        <time>2019-10-21T00:39:24Z</time>
      </trkpt>
      <trkpt lat="48.00658" lon="2.72464">
        <ele>85.2</ele>
        <time>2019-10-21T00:38:50Z</time>
      </trkpt>
      <trkpt lat="48.00744" lon="2.72404">
        <ele>87.2</ele>
        <time>2019-10-21T00:38:25Z</time>
      </trkpt>
      <trkpt lat="48.00776" lon="2.72385">
        <ele>86.3</ele>
        <time>2019-10-21T00:38:16Z</time>
      </trkpt>
      <trkpt lat="48.00802" lon="2.72378">
        <ele>87.8</ele>
        <time>2019-10-21T00:38:09Z</time>
      </trkpt>
      <trkpt lat="48.00833" lon="2.72374">
        <ele>88.2</ele>
        <time>2019-10-21T00:38:01Z</time>
      </trkpt>
      <trkpt lat="48.00867" lon="2.72362">
        <ele>86.9</ele>
        <time>2019-10-21T00:37:51Z</time>
      </trkpt>
      <trkpt lat="48.00895" lon="2.72359">
        <ele>87.1</ele>
        <time>2019-10-21T00:37:44Z</time>
      </trkpt>
      <trkpt lat="48.00912" lon="2.72358">
        <ele>87.2</ele>
        <time>2019-10-21T00:37:39Z</time>
      </trkpt>
      <trkpt lat="48.00912" lon="2.7235">
        <ele>87.7</ele>
        <time>2019-10-21T00:37:38Z</time>
      </trkpt>
      <trkpt lat="48.00917" lon="2.72337">
        <ele>88.7</ele>
        <time>2019-10-21T00:37:35Z</time>
      </trkpt>
      <trkpt lat="48.00918" lon="2.72342">
        <ele>88.4</ele>
        <time>2019-10-21T00:37:34Z</time>
      </trkpt>
      <trkpt lat="48.00922" lon="2.72344">
        <ele>88.2</ele>
        <time>2019-10-21T00:37:33Z</time>
      </trkpt>
      <trkpt lat="48.00933" lon="2.72352">
        <ele>87.1</ele>
        <time>2019-10-21T00:37:30Z</time>
      </trkpt>
      <trkpt lat="48.01027" lon="2.72358">
        <ele>85.7</ele>
        <time>2019-10-21T00:37:05Z</time>
      </trkpt>
      <trkpt lat="48.01146" lon="2.72414">
        <ele>85.5</ele>
        <time>2019-10-21T00:36:31Z</time>
      </trkpt>
      <trkpt lat="48.01237" lon="2.72458">
        <ele>86.6</ele>
        <time>2019-10-21T00:36:06Z</time>
      </trkpt>
      <trkpt lat="48.01299" lon="2.72482">
        <ele>86.6</ele>
        <time>2019-10-21T00:35:49Z</time>
      </trkpt>
      <trkpt lat="48.01354" lon="2.72493">
        <ele>86</ele>
        <time>2019-10-21T00:35:34Z</time>
      </trkpt>
      <trkpt lat="48.01411" lon="2.72497">
        <ele>85.5</ele>
        <time>2019-10-21T00:35:18Z</time>
      </trkpt>
      <trkpt lat="48.01481" lon="2.72492">
        <ele>85.9</ele>
        <time>2019-10-21T00:35:00Z</time>
      </trkpt>
      <trkpt lat="48.01525" lon="2.72487">
        <ele>86</ele>
        <time>2019-10-21T00:34:48Z</time>
      </trkpt>
      <trkpt lat="48.01569" lon="2.72475">
        <ele>85.4</ele>
        <time>2019-10-21T00:34:36Z</time>
      </trkpt>
      <trkpt lat="48.01661" lon="2.72443">
        <ele>85.1</ele>
        <time>2019-10-21T00:34:11Z</time>
      </trkpt>
      <trkpt lat="48.01754" lon="2.72402">
        <ele>85</ele>
        <time>2019-10-21T00:33:45Z</time>
      </trkpt>
      <trkpt lat="48.0182" lon="2.72378">
        <ele>86.7</ele>
        <time>2019-10-21T00:33:27Z</time>
      </trkpt>
      <trkpt lat="48.01872" lon="2.72348">
        <ele>84.8</ele>
        <time>2019-10-21T00:33:12Z</time>
      </trkpt>
      <trkpt lat="48.01914" lon="2.72315">
        <ele>84.7</ele>
        <time>2019-10-21T00:32:59Z</time>
      </trkpt>
      <trkpt lat="48.01935" lon="2.72305">
        <ele>85</ele>
        <time>2019-10-21T00:32:53Z</time>
      </trkpt>
      <trkpt lat="48.01967" lon="2.723">
        <ele>85.2</ele>
        <time>2019-10-21T00:32:45Z</time>
      </trkpt>
      <trkpt lat="48.02014" lon="2.72301">
        <ele>85.4</ele>
        <time>2019-10-21T00:32:32Z</time>
      </trkpt>
      <trkpt lat="48.02028" lon="2.72308">
        <ele>84.9</ele>
        <time>2019-10-21T00:32:28Z</time>
      </trkpt>
      <trkpt lat="48.02077" lon="2.72354">
        <ele>84.6</ele>
        <time>2019-10-21T00:32:13Z</time>
      </trkpt>
      <trkpt lat="48.02122" lon="2.72387">
        <ele>84.5</ele>
        <time>2019-10-21T00:31:59Z</time>
      </trkpt>
      <trkpt lat="48.02152" lon="2.72407">
        <ele>82.5</ele>
        <time>2019-10-21T00:31:51Z</time>
      </trkpt>
      <trkpt lat="48.02178" lon="2.72417">
        <ele>82.4</ele>
        <time>2019-10-21T00:31:43Z</time>
      </trkpt>
      <trkpt lat="48.0222" lon="2.72423">
        <ele>82.8</ele>
        <time>2019-10-21T00:31:32Z</time>
      </trkpt>
      <trkpt lat="48.02245" lon="2.72415">
        <ele>82.2</ele>
        <time>2019-10-21T00:31:25Z</time>
      </trkpt>
      <trkpt lat="48.02295" lon="2.724">
        <ele>82.6</ele>
        <time>2019-10-21T00:31:12Z</time>
      </trkpt>
      <trkpt lat="48.02334" lon="2.72394">
        <ele>83</ele>
        <time>2019-10-21T00:31:01Z</time>
      </trkpt>
      <trkpt lat="48.02438" lon="2.72355">
        <ele>82.4</ele>
        <time>2019-10-21T00:30:33Z</time>
      </trkpt>
      <trkpt lat="48.02478" lon="2.72342">
        <ele>82.6</ele>
        <time>2019-10-21T00:30:22Z</time>
      </trkpt>
      <trkpt lat="48.02552" lon="2.72313">
        <ele>82.7</ele>
        <time>2019-10-21T00:30:01Z</time>
      </trkpt>
      <trkpt lat="48.02575" lon="2.72301">
        <ele>83</ele>
        <time>2019-10-21T00:29:55Z</time>
      </trkpt>
      <trkpt lat="48.02584" lon="2.72293">
        <ele>83</ele>
        <time>2019-10-21T00:29:52Z</time>
      </trkpt>
      <trkpt lat="48.02589" lon="2.72289">
        <ele>82.8</ele>
        <time>2019-10-21T00:29:50Z</time>
      </trkpt>
      <trkpt lat="48.02617" lon="2.72261">
        <ele>82</ele>
        <time>2019-10-21T00:29:41Z</time>
      </trkpt>
      <trkpt lat="48.02634" lon="2.72235">
        <ele>82.1</ele>
        <time>2019-10-21T00:29:35Z</time>
      </trkpt>
      <trkpt lat="48.02642" lon="2.72224">
        <ele>82</ele>
        <time>2019-10-21T00:29:32Z</time>
      </trkpt>
      <trkpt lat="48.02652" lon="2.72214">
        <ele>82.3</ele>
        <time>2019-10-21T00:29:29Z</time>
      </trkpt>
      <trkpt lat="48.02673" lon="2.722">
        <ele>82.8</ele>
        <time>2019-10-21T00:29:23Z</time>
      </trkpt>
      <trkpt lat="48.02683" lon="2.72194">
        <ele>83</ele>
        <time>2019-10-21T00:29:20Z</time>
      </trkpt>
      <trkpt lat="48.02689" lon="2.7219">
        <ele>83</ele>
        <time>2019-10-21T00:29:18Z</time>
      </trkpt>
      <trkpt lat="48.02707" lon="2.72184">
        <ele>82.5</ele>
        <time>2019-10-21T00:29:13Z</time>
      </trkpt>
      <trkpt lat="48.02698" lon="2.72164">
        <ele>82.8</ele>
        <time>2019-10-21T00:29:09Z</time>
      </trkpt>
      <trkpt lat="48.02693" lon="2.72153">
        <ele>82.5</ele>
        <time>2019-10-21T00:29:06Z</time>
      </trkpt>
      <trkpt lat="48.02679" lon="2.72127">
        <ele>82.3</ele>
        <time>2019-10-21T00:29:00Z</time>
      </trkpt>
      <trkpt lat="48.02658" lon="2.721">
        <ele>82</ele>
        <time>2019-10-21T00:28:53Z</time>
      </trkpt>
      <trkpt lat="48.02581" lon="2.71995">
        <ele>82</ele>
        <time>2019-10-21T00:28:25Z</time>
      </trkpt>
      <trkpt lat="48.02532" lon="2.71926">
        <ele>82</ele>
        <time>2019-10-21T00:28:07Z</time>
      </trkpt>
      <trkpt lat="48.02483" lon="2.71856">
        <ele>82.1</ele>
        <time>2019-10-21T00:27:49Z</time>
      </trkpt>
      <trkpt lat="48.02432" lon="2.71787">
        <ele>82.4</ele>
        <time>2019-10-21T00:27:31Z</time>
      </trkpt>
      <trkpt lat="48.02367" lon="2.71695">
        <ele>82.9</ele>
        <time>2019-10-21T00:27:07Z</time>
      </trkpt>
      <trkpt lat="48.023" lon="2.71607">
        <ele>83</ele>
        <time>2019-10-21T00:26:43Z</time>
      </trkpt>
      <trkpt lat="48.02281" lon="2.71572">
        <ele>84.3</ele>
        <time>2019-10-21T00:26:35Z</time>
      </trkpt>
      <trkpt lat="48.02279" lon="2.71565">
        <ele>84.6</ele>
        <time>2019-10-21T00:26:33Z</time>
      </trkpt>
      <trkpt lat="48.02267" lon="2.71535">
        <ele>83.4</ele>
        <time>2019-10-21T00:26:27Z</time>
      </trkpt>
      <trkpt lat="48.02232" lon="2.71436">
        <ele>82.6</ele>
        <time>2019-10-21T00:26:07Z</time>
      </trkpt>
      <trkpt lat="48.02207" lon="2.71366">
        <ele>82.5</ele>
        <time>2019-10-21T00:25:53Z</time>
      </trkpt>
      <trkpt lat="48.02186" lon="2.71294">
        <ele>82.7</ele>
        <time>2019-10-21T00:25:39Z</time>
      </trkpt>
      <trkpt lat="48.02161" lon="2.71223">
        <ele>82.2</ele>
        <time>2019-10-21T00:25:25Z</time>
      </trkpt>
      <trkpt lat="48.02137" lon="2.7115">
        <ele>82.5</ele>
        <time>2019-10-21T00:25:10Z</time>
      </trkpt>
      <trkpt lat="48.02038" lon="2.70866">
        <ele>83.6</ele>
        <time>2019-10-21T00:24:13Z</time>
      </trkpt>
      <trkpt lat="48.02033" lon="2.70855">
        <ele>84</ele>
        <time>2019-10-21T00:24:11Z</time>
      </trkpt>
      <trkpt lat="48.02027" lon="2.70852">
        <ele>84.4</ele>
        <time>2019-10-21T00:24:09Z</time>
      </trkpt>
      <trkpt lat="48.02029" lon="2.70838">
        <ele>84.8</ele>
        <time>2019-10-21T00:24:06Z</time>
      </trkpt>
      <trkpt lat="48.02028" lon="2.70822">
        <ele>84.6</ele>
        <time>2019-10-21T00:24:03Z</time>
      </trkpt>
      <trkpt lat="48.02019" lon="2.70787">
        <ele>84.3</ele>
        <time>2019-10-21T00:23:57Z</time>
      </trkpt>
      <trkpt lat="48.02014" lon="2.70771">
        <ele>84.4</ele>
        <time>2019-10-21T00:23:54Z</time>
      </trkpt>
      <trkpt lat="48.0201" lon="2.70755">
        <ele>84.3</ele>
        <time>2019-10-21T00:23:51Z</time>
      </trkpt>
      <trkpt lat="48.02008" lon="2.70735">
        <ele>84</ele>
        <time>2019-10-21T00:23:47Z</time>
      </trkpt>
      <trkpt lat="48.02008" lon="2.70716">
        <ele>83.7</ele>
        <time>2019-10-21T00:23:43Z</time>
      </trkpt>
      <trkpt lat="48.02014" lon="2.70685">
        <ele>83.5</ele>
        <time>2019-10-21T00:23:38Z</time>
      </trkpt>
      <trkpt lat="48.02028" lon="2.70624">
        <ele>83</ele>
        <time>2019-10-21T00:23:26Z</time>
      </trkpt>
      <trkpt lat="48.02031" lon="2.70601">
        <ele>83</ele>
        <time>2019-10-21T00:23:22Z</time>
      </trkpt>
      <trkpt lat="48.02013" lon="2.70455">
        <ele>83</ele>
        <time>2019-10-21T00:22:55Z</time>
      </trkpt>
      <trkpt lat="48.02003" lon="2.70397">
        <ele>83.1</ele>
        <time>2019-10-21T00:22:45Z</time>
      </trkpt>
      <trkpt lat="48.01992" lon="2.70338">
        <ele>83.2</ele>
        <time>2019-10-21T00:22:34Z</time>
      </trkpt>
      <trkpt lat="48.01984" lon="2.70313">
        <ele>83.6</ele>
        <time>2019-10-21T00:22:29Z</time>
      </trkpt>
      <trkpt lat="48.01966" lon="2.70256">
        <ele>83.4</ele>
        <time>2019-10-21T00:22:18Z</time>
      </trkpt>
      <trkpt lat="48.01951" lon="2.70196">
        <ele>83</ele>
        <time>2019-10-21T00:22:06Z</time>
      </trkpt>
      <trkpt lat="48.01934" lon="2.70138">
        <ele>83</ele>
        <time>2019-10-21T00:21:55Z</time>
      </trkpt>
      <trkpt lat="48.01904" lon="2.70087">
        <ele>83.5</ele>
        <time>2019-10-21T00:21:43Z</time>
      </trkpt>
      <trkpt lat="48.01795" lon="2.69958">
        <ele>83.6</ele>
        <time>2019-10-21T00:21:06Z</time>
      </trkpt>
      <trkpt lat="48.0177" lon="2.69932">
        <ele>83.8</ele>
        <time>2019-10-21T00:20:57Z</time>
      </trkpt>
      <trkpt lat="48.0176" lon="2.69919">
        <ele>83.7</ele>
        <time>2019-10-21T00:20:54Z</time>
      </trkpt>
      <trkpt lat="48.01739" lon="2.69887">
        <ele>83.8</ele>
        <time>2019-10-21T00:20:46Z</time>
      </trkpt>
      <trkpt lat="48.01722" lon="2.69853">
        <ele>83.7</ele>
        <time>2019-10-21T00:20:38Z</time>
      </trkpt>
      <trkpt lat="48.01686" lon="2.69789">
        <ele>83.3</ele>
        <time>2019-10-21T00:20:23Z</time>
      </trkpt>
      <trkpt lat="48.01662" lon="2.69755">
        <ele>83.3</ele>
        <time>2019-10-21T00:20:15Z</time>
      </trkpt>
      <trkpt lat="48.01633" lon="2.69728">
        <ele>83.4</ele>
        <time>2019-10-21T00:20:05Z</time>
      </trkpt>
      <trkpt lat="48.01549" lon="2.6967">
        <ele>83.4</ele>
        <time>2019-10-21T00:19:41Z</time>
      </trkpt>
      <trkpt lat="48.01489" lon="2.69622">
        <ele>83.5</ele>
        <time>2019-10-21T00:19:22Z</time>
      </trkpt>
      <trkpt lat="48.01415" lon="2.69569">
        <ele>83.6</ele>
        <time>2019-10-21T00:19:01Z</time>
      </trkpt>
      <trkpt lat="48.014" lon="2.69557">
        <ele>83.7</ele>
        <time>2019-10-21T00:18:56Z</time>
      </trkpt>
      <trkpt lat="48.01388" lon="2.69549">
        <ele>83.7</ele>
        <time>2019-10-21T00:18:53Z</time>
      </trkpt>
      <trkpt lat="48.01347" lon="2.69525">
        <ele>83</ele>
        <time>2019-10-21T00:18:41Z</time>
      </trkpt>
      <trkpt lat="48.01335" lon="2.69522">
        <ele>83</ele>
        <time>2019-10-21T00:18:37Z</time>
      </trkpt>
      <trkpt lat="48.01305" lon="2.69519">
        <ele>83</ele>
        <time>2019-10-21T00:18:29Z</time>
      </trkpt>
      <trkpt lat="48.01273" lon="2.69522">
        <ele>84.2</ele>
        <time>2019-10-21T00:18:21Z</time>
      </trkpt>
      <trkpt lat="48.01209" lon="2.69512">
        <ele>85.6</ele>
        <time>2019-10-21T00:18:04Z</time>
      </trkpt>
      <trkpt lat="48.01172" lon="2.69486">
        <ele>84.3</ele>
        <time>2019-10-21T00:17:53Z</time>
      </trkpt>
      <trkpt lat="48.01098" lon="2.69401">
        <ele>85.1</ele>
        <time>2019-10-21T00:17:28Z</time>
      </trkpt>
      <trkpt lat="48.01085" lon="2.69353">
        <ele>83.7</ele>
        <time>2019-10-21T00:17:19Z</time>
      </trkpt>
      <trkpt lat="48.0107" lon="2.69307">
        <ele>85.4</ele>
        <time>2019-10-21T00:17:09Z</time>
      </trkpt>
      <trkpt lat="48.01068" lon="2.69298">
        <ele>85.7</ele>
        <time>2019-10-21T00:17:08Z</time>
      </trkpt>
      <trkpt lat="48.01041" lon="2.69227">
        <ele>84.2</ele>
        <time>2019-10-21T00:16:53Z</time>
      </trkpt>
      <trkpt lat="48.01016" lon="2.69171">
        <ele>83.5</ele>
        <time>2019-10-21T00:16:41Z</time>
      </trkpt>
      <trkpt lat="48.00995" lon="2.69113">
        <ele>83.2</ele>
        <time>2019-10-21T00:16:29Z</time>
      </trkpt>
      <trkpt lat="48.00968" lon="2.69057">
        <ele>83.2</ele>
        <time>2019-10-21T00:16:17Z</time>
      </trkpt>
      <trkpt lat="48.00949" lon="2.68998">
        <ele>84.8</ele>
        <time>2019-10-21T00:16:05Z</time>
      </trkpt>
      <trkpt lat="48.00932" lon="2.6895">
        <ele>84</ele>
        <time>2019-10-21T00:15:56Z</time>
      </trkpt>
      <trkpt lat="48.00923" lon="2.68924">
        <ele>85.4</ele>
        <time>2019-10-21T00:15:50Z</time>
      </trkpt>
      <trkpt lat="48.00912" lon="2.689">
        <ele>85.7</ele>
        <time>2019-10-21T00:15:45Z</time>
      </trkpt>
      <trkpt lat="48.00897" lon="2.68863">
        <ele>86</ele>
        <time>2019-10-21T00:15:37Z</time>
      </trkpt>
      <trkpt lat="48.00876" lon="2.68804">
        <ele>86</ele>
        <time>2019-10-21T00:15:25Z</time>
      </trkpt>
      <trkpt lat="48.00868" lon="2.68789">
        <ele>86.7</ele>
        <time>2019-10-21T00:15:22Z</time>
      </trkpt>
      <trkpt lat="48.0086" lon="2.68769">
        <ele>86.4</ele>
        <time>2019-10-21T00:15:18Z</time>
      </trkpt>
      <trkpt lat="48.00859" lon="2.68759">
        <ele>85.8</ele>
        <time>2019-10-21T00:15:16Z</time>
      </trkpt>
      <trkpt lat="48.00806" lon="2.6861">
        <ele>85.9</ele>
        <time>2019-10-21T00:14:46Z</time>
      </trkpt>
      <trkpt lat="48.0078" lon="2.68535">
        <ele>86.2</ele>
        <time>2019-10-21T00:14:31Z</time>
      </trkpt>
      <trkpt lat="48.00766" lon="2.68499">
        <ele>85.9</ele>
        <time>2019-10-21T00:14:23Z</time>
      </trkpt>
      <trkpt lat="48.0075" lon="2.68464">
        <ele>85.7</ele>
        <time>2019-10-21T00:14:16Z</time>
      </trkpt>
      <trkpt lat="48.00731" lon="2.68431">
        <ele>86.2</ele>
        <time>2019-10-21T00:14:08Z</time>
      </trkpt>
      <trkpt lat="48.0071" lon="2.68404">
        <ele>86</ele>
        <time>2019-10-21T00:14:01Z</time>
      </trkpt>
      <trkpt lat="48.00665" lon="2.68363">
        <ele>86.1</ele>
        <time>2019-10-21T00:13:47Z</time>
      </trkpt>
      <trkpt lat="48.00633" lon="2.68345">
        <ele>85.5</ele>
        <time>2019-10-21T00:13:37Z</time>
      </trkpt>
      <trkpt lat="48.00606" lon="2.68336">
        <ele>85.8</ele>
        <time>2019-10-21T00:13:30Z</time>
      </trkpt>
      <trkpt lat="48.00458" lon="2.68328">
        <ele>85.9</ele>
        <time>2019-10-21T00:12:50Z</time>
      </trkpt>
      <trkpt lat="48.00438" lon="2.68325">
        <ele>85.7</ele>
        <time>2019-10-21T00:12:45Z</time>
      </trkpt>
      <trkpt lat="48.00417" lon="2.68312">
        <ele>85.2</ele>
        <time>2019-10-21T00:12:39Z</time>
      </trkpt>
      <trkpt lat="48.00389" lon="2.68288">
        <ele>85.4</ele>
        <time>2019-10-21T00:12:30Z</time>
      </trkpt>
      <trkpt lat="48.00366" lon="2.68251">
        <ele>85.8</ele>
        <time>2019-10-21T00:12:21Z</time>
      </trkpt>
      <trkpt lat="48.00355" lon="2.68222">
        <ele>85.2</ele>
        <time>2019-10-21T00:12:15Z</time>
      </trkpt>
      <trkpt lat="48.00338" lon="2.68181">
        <ele>86.3</ele>
        <time>2019-10-21T00:12:07Z</time>
      </trkpt>
      <trkpt lat="48.00323" lon="2.68138">
        <ele>85.4</ele>
        <time>2019-10-21T00:11:58Z</time>
      </trkpt>
      <trkpt lat="48.00276" lon="2.68011">
        <ele>85.4</ele>
        <time>2019-10-21T00:11:32Z</time>
      </trkpt>
      <trkpt lat="48.00239" lon="2.67916">
        <ele>85.4</ele>
        <time>2019-10-21T00:11:12Z</time>
      </trkpt>
      <trkpt lat="48.00213" lon="2.67846">
        <ele>86.4</ele>
        <time>2019-10-21T00:10:58Z</time>
      </trkpt>
      <trkpt lat="48.00193" lon="2.67789">
        <ele>85.4</ele>
        <time>2019-10-21T00:10:47Z</time>
      </trkpt>
      <trkpt lat="48.00172" lon="2.67743">
        <ele>86.8</ele>
        <time>2019-10-21T00:10:37Z</time>
      </trkpt>
      <trkpt lat="48.00162" lon="2.67718">
        <ele>86.9</ele>
        <time>2019-10-21T00:10:32Z</time>
      </trkpt>
      <trkpt lat="48.00153" lon="2.67699">
        <ele>86.6</ele>
        <time>2019-10-21T00:10:27Z</time>
      </trkpt>
      <trkpt lat="48.00135" lon="2.67652">
        <ele>85.8</ele>
        <time>2019-10-21T00:10:18Z</time>
      </trkpt>
      <trkpt lat="48.00055" lon="2.67522">
        <ele>85.8</ele>
        <time>2019-10-21T00:09:46Z</time>
      </trkpt>
      <trkpt lat="47.99964" lon="2.6739">
        <ele>85.3</ele>
        <time>2019-10-21T00:09:12Z</time>
      </trkpt>
      <trkpt lat="47.99871" lon="2.67255">
        <ele>85.7</ele>
        <time>2019-10-21T00:08:38Z</time>
      </trkpt>
      <trkpt lat="47.99745" lon="2.67104">
        <ele>85.8</ele>
        <time>2019-10-21T00:07:54Z</time>
      </trkpt>
      <trkpt lat="47.99718" lon="2.67073">
        <ele>85.7</ele>
        <time>2019-10-21T00:07:45Z</time>
      </trkpt>
      <trkpt lat="47.99648" lon="2.66939">
        <ele>85.7</ele>
        <time>2019-10-21T00:07:15Z</time>
      </trkpt>
      <trkpt lat="47.99592" lon="2.66817">
        <ele>85.4</ele>
        <time>2019-10-21T00:06:48Z</time>
      </trkpt>
      <trkpt lat="47.99536" lon="2.66669">
        <ele>85</ele>
        <time>2019-10-21T00:06:18Z</time>
      </trkpt>
      <trkpt lat="47.99514" lon="2.66618">
        <ele>85</ele>
        <time>2019-10-21T00:06:07Z</time>
      </trkpt>
      <trkpt lat="47.99494" lon="2.66564">
        <ele>85.2</ele>
        <time>2019-10-21T00:05:56Z</time>
      </trkpt>
      <trkpt lat="47.99462" lon="2.6648">
        <ele>85.2</ele>
        <time>2019-10-21T00:05:39Z</time>
      </trkpt>
      <trkpt lat="47.99444" lon="2.66362">
        <ele>86</ele>
        <time>2019-10-21T00:05:17Z</time>
      </trkpt>
      <trkpt lat="47.99431" lon="2.66294">
        <ele>85</ele>
        <time>2019-10-21T00:05:05Z</time>
      </trkpt>
      <trkpt lat="47.99425" lon="2.66238">
        <ele>85.3</ele>
        <time>2019-10-21T00:04:54Z</time>
      </trkpt>
      <trkpt lat="47.99432" lon="2.66151">
        <ele>85.4</ele>
        <time>2019-10-21T00:04:39Z</time>
      </trkpt>
      <trkpt lat="47.99433" lon="2.66138">
        <ele>85.4</ele>
        <time>2019-10-21T00:04:36Z</time>
      </trkpt>
      <trkpt lat="47.99437" lon="2.66021">
        <ele>86</ele>
        <time>2019-10-21T00:04:16Z</time>
      </trkpt>
      <trkpt lat="47.99439" lon="2.65953">
        <ele>85.8</ele>
        <time>2019-10-21T00:04:03Z</time>
      </trkpt>
      <trkpt lat="47.99436" lon="2.65839">
        <ele>86</ele>
        <time>2019-10-21T00:03:43Z</time>
      </trkpt>
      <trkpt lat="47.99436" lon="2.65723">
        <ele>86</ele>
        <time>2019-10-21T00:03:22Z</time>
      </trkpt>
      <trkpt lat="47.99449" lon="2.65615">
        <ele>85.9</ele>
        <time>2019-10-21T00:03:03Z</time>
      </trkpt>
      <trkpt lat="47.99457" lon="2.65449">
        <ele>85.5</ele>
        <time>2019-10-21T00:02:33Z</time>
      </trkpt>
      <trkpt lat="47.9946" lon="2.65355">
        <ele>85.4</ele>
        <time>2019-10-21T00:02:16Z</time>
      </trkpt>
      <trkpt lat="47.9946" lon="2.65307">
        <ele>85.4</ele>
        <time>2019-10-21T00:02:07Z</time>
      </trkpt>
      <trkpt lat="47.9946" lon="2.65253">
        <ele>85.4</ele>
        <time>2019-10-21T00:01:58Z</time>
      </trkpt>
      <trkpt lat="47.99458" lon="2.65219">
        <ele>85.5</ele>
        <time>2019-10-21T00:01:52Z</time>
      </trkpt>
      <trkpt lat="47.99455" lon="2.65194">
        <ele>85.6</ele>
        <time>2019-10-21T00:01:47Z</time>
      </trkpt>
      <trkpt lat="47.99452" lon="2.65179">
        <ele>85.7</ele>
        <time>2019-10-21T00:01:44Z</time>
      </trkpt>
      <trkpt lat="47.99447" lon="2.65149">
        <ele>86</ele>
        <time>2019-10-21T00:01:39Z</time>
      </trkpt>
      <trkpt lat="47.99444" lon="2.65136">
        <ele>85.9</ele>
        <time>2019-10-21T00:01:36Z</time>
      </trkpt>
      <trkpt lat="47.99423" lon="2.6506">
        <ele>86</ele>
        <time>2019-10-21T00:01:22Z</time>
      </trkpt>
      <trkpt lat="47.99396" lon="2.64953">
        <ele>86.4</ele>
        <time>2019-10-21T00:01:01Z</time>
      </trkpt>
      <trkpt lat="47.99386" lon="2.64924">
        <ele>86.2</ele>
        <time>2019-10-21T00:00:55Z</time>
      </trkpt>
      <trkpt lat="47.99382" lon="2.6491">
        <ele>85.9</ele>
        <time>2019-10-21T00:00:53Z</time>
      </trkpt>
      <trkpt lat="47.99367" lon="2.64872">
        <ele>86.8</ele>
        <time>2019-10-21T00:00:45Z</time>
      </trkpt>
      <trkpt lat="47.99334" lon="2.64788">
        <ele>88</ele>
        <time>2019-10-21T00:00:27Z</time>
      </trkpt>
      <trkpt lat="47.99327" lon="2.64775">
        <ele>87.6</ele>
        <time>2019-10-21T00:00:24Z</time>
      </trkpt>
      <trkpt lat="47.99325" lon="2.64763">
        <ele>87</ele>
        <time>2019-10-21T00:00:22Z</time>
      </trkpt>
      <trkpt lat="47.9932" lon="2.64746">
        <ele>86.8</ele>
        <time>2019-10-21T00:00:19Z</time>
      </trkpt>
      <trkpt lat="47.99315" lon="2.6473">
        <ele>87.9</ele>
        <time>2019-10-21T00:00:16Z</time>
      </trkpt>
      <trkpt lat="47.99304" lon="2.64712">
        <ele>88</ele>
        <time>2019-10-21T00:00:11Z</time>
      </trkpt>
      <trkpt lat="47.99286" lon="2.64667">
        <ele>88</ele>
        <time>2019-10-21T00:00:02Z</time>
      </trkpt>
      <trkpt lat="47.99264" lon="2.64609">
        <ele>88.5</ele>
        <time>2019-10-20T23:59:50Z</time>
      </trkpt>
      <trkpt lat="47.99253" lon="2.64581">
        <ele>88</ele>
        <time>2019-10-20T23:59:44Z</time>
      </trkpt>
      <trkpt lat="47.99231" lon="2.64528">
        <ele>87.3</ele>
        <time>2019-10-20T23:59:33Z</time>
      </trkpt>
      <trkpt lat="47.99197" lon="2.64439">
        <ele>88</ele>
        <time>2019-10-20T23:59:15Z</time>
      </trkpt>
      <trkpt lat="47.99161" lon="2.64349">
        <ele>88</ele>
        <time>2019-10-20T23:58:56Z</time>
      </trkpt>
      <trkpt lat="47.99145" lon="2.64311">
        <ele>88</ele>
        <time>2019-10-20T23:58:48Z</time>
      </trkpt>
      <trkpt lat="47.99139" lon="2.64298">
        <ele>88</ele>
        <time>2019-10-20T23:58:45Z</time>
      </trkpt>
      <trkpt lat="47.99123" lon="2.6427">
        <ele>88</ele>
        <time>2019-10-20T23:58:39Z</time>
      </trkpt>
      <trkpt lat="47.99112" lon="2.64251">
        <ele>88</ele>
        <time>2019-10-20T23:58:34Z</time>
      </trkpt>
      <trkpt lat="47.99103" lon="2.64238">
        <ele>88</ele>
        <time>2019-10-20T23:58:31Z</time>
      </trkpt>
      <trkpt lat="47.99026" lon="2.64124">
        <ele>88.4</ele>
        <time>2019-10-20T23:58:02Z</time>
      </trkpt>
      <trkpt lat="47.98967" lon="2.64034">
        <ele>88</ele>
        <time>2019-10-20T23:57:39Z</time>
      </trkpt>
      <trkpt lat="47.98952" lon="2.64013">
        <ele>88</ele>
        <time>2019-10-20T23:57:34Z</time>
      </trkpt>
      <trkpt lat="47.98937" lon="2.63991">
        <ele>88</ele>
        <time>2019-10-20T23:57:28Z</time>
      </trkpt>
      <trkpt lat="47.98846" lon="2.63857">
        <ele>88.1</ele>
        <time>2019-10-20T23:56:54Z</time>
      </trkpt>
      <trkpt lat="47.98837" lon="2.63848">
        <ele>88.5</ele>
        <time>2019-10-20T23:56:51Z</time>
      </trkpt>
      <trkpt lat="47.98827" lon="2.63834">
        <ele>88.8</ele>
        <time>2019-10-20T23:56:47Z</time>
      </trkpt>
      <trkpt lat="47.98817" lon="2.63815">
        <ele>90.4</ele>
        <time>2019-10-20T23:56:43Z</time>
      </trkpt>
      <trkpt lat="47.98812" lon="2.63808">
        <ele>91.7</ele>
        <time>2019-10-20T23:56:41Z</time>
      </trkpt>
      <trkpt lat="47.98805" lon="2.63801">
        <ele>92.1</ele>
        <time>2019-10-20T23:56:39Z</time>
      </trkpt>
      <trkpt lat="47.98798" lon="2.63793">
        <ele>90</ele>
        <time>2019-10-20T23:56:37Z</time>
      </trkpt>
      <trkpt lat="47.98774" lon="2.63761">
        <ele>88</ele>
        <time>2019-10-20T23:56:28Z</time>
      </trkpt>
      <trkpt lat="47.98763" lon="2.63747">
        <ele>88.1</ele>
        <time>2019-10-20T23:56:24Z</time>
      </trkpt>
      <trkpt lat="47.98718" lon="2.63688">
        <ele>88</ele>
        <time>2019-10-20T23:56:08Z</time>
      </trkpt>
      <trkpt lat="47.98643" lon="2.63596">
        <ele>88</ele>
        <time>2019-10-20T23:55:42Z</time>
      </trkpt>
      <trkpt lat="47.9848" lon="2.63395">
        <ele>89.3</ele>
        <time>2019-10-20T23:54:46Z</time>
      </trkpt>
      <trkpt lat="47.98454" lon="2.63367">
        <ele>90.3</ele>
        <time>2019-10-20T23:54:37Z</time>
      </trkpt>
      <trkpt lat="47.98438" lon="2.63353">
        <ele>90.5</ele>
        <time>2019-10-20T23:54:32Z</time>
      </trkpt>
      <trkpt lat="47.98383" lon="2.63316">
        <ele>88.3</ele>
        <time>2019-10-20T23:54:16Z</time>
      </trkpt>
      <trkpt lat="47.98318" lon="2.63283">
        <ele>88.2</ele>
        <time>2019-10-20T23:53:58Z</time>
      </trkpt>
      <trkpt lat="47.98248" lon="2.63245">
        <ele>88.8</ele>
        <time>2019-10-20T23:53:38Z</time>
      </trkpt>
      <trkpt lat="47.98185" lon="2.63211">
        <ele>88.6</ele>
        <time>2019-10-20T23:53:20Z</time>
      </trkpt>
      <trkpt lat="47.98133" lon="2.63183">
        <ele>88.6</ele>
        <time>2019-10-20T23:53:05Z</time>
      </trkpt>
      <trkpt lat="47.98115" lon="2.63172">
        <ele>88.2</ele>
        <time>2019-10-20T23:53:00Z</time>
      </trkpt>
      <trkpt lat="47.98063" lon="2.63136">
        <ele>88</ele>
        <time>2019-10-20T23:52:45Z</time>
      </trkpt>
      <trkpt lat="47.9804" lon="2.6312">
        <ele>88.2</ele>
        <time>2019-10-20T23:52:38Z</time>
      </trkpt>
      <trkpt lat="47.97942" lon="2.63048">
        <ele>88.1</ele>
        <time>2019-10-20T23:52:09Z</time>
      </trkpt>
      <trkpt lat="47.97863" lon="2.62991">
        <ele>88.7</ele>
        <time>2019-10-20T23:51:45Z</time>
      </trkpt>
      <trkpt lat="47.97824" lon="2.6296">
        <ele>88.7</ele>
        <time>2019-10-20T23:51:34Z</time>
      </trkpt>
      <trkpt lat="47.97785" lon="2.62923">
        <ele>88.8</ele>
        <time>2019-10-20T23:51:21Z</time>
      </trkpt>
      <trkpt lat="47.97722" lon="2.62869">
        <ele>88.3</ele>
        <time>2019-10-20T23:51:02Z</time>
      </trkpt>
      <trkpt lat="47.97669" lon="2.62823">
        <ele>88.6</ele>
        <time>2019-10-20T23:50:45Z</time>
      </trkpt>
      <trkpt lat="47.97593" lon="2.62757">
        <ele>88.7</ele>
        <time>2019-10-20T23:50:22Z</time>
      </trkpt>
      <trkpt lat="47.97548" lon="2.62719">
        <ele>88.9</ele>
        <time>2019-10-20T23:50:08Z</time>
      </trkpt>
      <trkpt lat="47.97508" lon="2.62692">
        <ele>89.3</ele>
        <time>2019-10-20T23:49:56Z</time>
      </trkpt>
      <trkpt lat="47.97471" lon="2.62674">
        <ele>88.5</ele>
        <time>2019-10-20T23:49:46Z</time>
      </trkpt>
      <trkpt lat="47.9744" lon="2.62663">
        <ele>89.1</ele>
        <time>2019-10-20T23:49:38Z</time>
      </trkpt>
      <trkpt lat="47.97424" lon="2.62659">
        <ele>89.3</ele>
        <time>2019-10-20T23:49:33Z</time>
      </trkpt>
      <trkpt lat="47.97409" lon="2.62658">
        <ele>89.4</ele>
        <time>2019-10-20T23:49:29Z</time>
      </trkpt>
      <trkpt lat="47.97389" lon="2.62659">
        <ele>89.4</ele>
        <time>2019-10-20T23:49:24Z</time>
      </trkpt>
      <trkpt lat="47.97381" lon="2.62661">
        <ele>89.6</ele>
        <time>2019-10-20T23:49:22Z</time>
      </trkpt>
      <trkpt lat="47.97375" lon="2.62662">
        <ele>89.7</ele>
        <time>2019-10-20T23:49:20Z</time>
      </trkpt>
      <trkpt lat="47.97333" lon="2.62671">
        <ele>90</ele>
        <time>2019-10-20T23:49:09Z</time>
      </trkpt>
      <trkpt lat="47.97321" lon="2.62673">
        <ele>90.8</ele>
        <time>2019-10-20T23:49:05Z</time>
      </trkpt>
      <trkpt lat="47.97303" lon="2.62684">
        <ele>91.4</ele>
        <time>2019-10-20T23:49:00Z</time>
      </trkpt>
      <trkpt lat="47.9729" lon="2.62695">
        <ele>91.5</ele>
        <time>2019-10-20T23:48:56Z</time>
      </trkpt>
      <trkpt lat="47.97233" lon="2.62731">
        <ele>91.3</ele>
        <time>2019-10-20T23:48:40Z</time>
      </trkpt>
      <trkpt lat="47.97228" lon="2.62735">
        <ele>91.4</ele>
        <time>2019-10-20T23:48:38Z</time>
      </trkpt>
      <trkpt lat="47.97208" lon="2.62747">
        <ele>91.5</ele>
        <time>2019-10-20T23:48:32Z</time>
      </trkpt>
      <trkpt lat="47.97175" lon="2.62764">
        <ele>91.4</ele>
        <time>2019-10-20T23:48:23Z</time>
      </trkpt>
      <trkpt lat="47.97164" lon="2.62768">
        <ele>91.6</ele>
        <time>2019-10-20T23:48:20Z</time>
      </trkpt>
      <trkpt lat="47.97146" lon="2.62772">
        <ele>91.8</ele>
        <time>2019-10-20T23:48:15Z</time>
      </trkpt>
      <trkpt lat="47.97129" lon="2.62772">
        <ele>91.8</ele>
        <time>2019-10-20T23:48:11Z</time>
      </trkpt>
      <trkpt lat="47.97112" lon="2.6277">
        <ele>91.7</ele>
        <time>2019-10-20T23:48:06Z</time>
      </trkpt>
      <trkpt lat="47.97101" lon="2.62767">
        <ele>91.8</ele>
        <time>2019-10-20T23:48:03Z</time>
      </trkpt>
      <trkpt lat="47.9709" lon="2.62762">
        <ele>91.9</ele>
        <time>2019-10-20T23:48:00Z</time>
      </trkpt>
      <trkpt lat="47.97082" lon="2.62757">
        <ele>92</ele>
        <time>2019-10-20T23:47:58Z</time>
      </trkpt>
      <trkpt lat="47.97069" lon="2.62748">
        <ele>91.9</ele>
        <time>2019-10-20T23:47:54Z</time>
      </trkpt>
      <trkpt lat="47.97058" lon="2.62738">
        <ele>91.6</ele>
        <time>2019-10-20T23:47:51Z</time>
      </trkpt>
      <trkpt lat="47.97046" lon="2.62724">
        <ele>91.4</ele>
        <time>2019-10-20T23:47:46Z</time>
      </trkpt>
      <trkpt lat="47.96934" lon="2.62556">
        <ele>91.4</ele>
        <time>2019-10-20T23:47:04Z</time>
      </trkpt>
      <trkpt lat="47.96879" lon="2.62476">
        <ele>91.4</ele>
        <time>2019-10-20T23:46:44Z</time>
      </trkpt>
      <trkpt lat="47.96828" lon="2.62399">
        <ele>91.5</ele>
        <time>2019-10-20T23:46:24Z</time>
      </trkpt>
      <trkpt lat="47.96792" lon="2.62345">
        <ele>92</ele>
        <time>2019-10-20T23:46:11Z</time>
      </trkpt>
      <trkpt lat="47.9675" lon="2.62282">
        <ele>92</ele>
        <time>2019-10-20T23:45:55Z</time>
      </trkpt>
      <trkpt lat="47.96721" lon="2.62238">
        <ele>92.1</ele>
        <time>2019-10-20T23:45:44Z</time>
      </trkpt>
      <trkpt lat="47.96697" lon="2.62202">
        <ele>92</ele>
        <time>2019-10-20T23:45:35Z</time>
      </trkpt>
      <trkpt lat="47.96681" lon="2.62181">
        <ele>92</ele>
        <time>2019-10-20T23:45:29Z</time>
      </trkpt>
      <trkpt lat="47.96667" lon="2.62163">
        <ele>91.9</ele>
        <time>2019-10-20T23:45:24Z</time>
      </trkpt>
      <trkpt lat="47.96648" lon="2.62141">
        <ele>92.4</ele>
        <time>2019-10-20T23:45:17Z</time>
      </trkpt>
      <trkpt lat="47.96617" lon="2.62108">
        <ele>92.4</ele>
        <time>2019-10-20T23:45:07Z</time>
      </trkpt>
      <trkpt lat="47.96588" lon="2.62082">
        <ele>91.8</ele>
        <time>2019-10-20T23:44:58Z</time>
      </trkpt>
      <trkpt lat="47.96555" lon="2.62056">
        <ele>92</ele>
        <time>2019-10-20T23:44:48Z</time>
      </trkpt>
      <trkpt lat="47.96537" lon="2.62044">
        <ele>91.7</ele>
        <time>2019-10-20T23:44:43Z</time>
      </trkpt>
      <trkpt lat="47.96518" lon="2.62034">
        <ele>91.6</ele>
        <time>2019-10-20T23:44:38Z</time>
      </trkpt>
      <trkpt lat="47.96488" lon="2.62021">
        <ele>92.4</ele>
        <time>2019-10-20T23:44:29Z</time>
      </trkpt>
      <trkpt lat="47.96469" lon="2.62013">
        <ele>92.4</ele>
        <time>2019-10-20T23:44:24Z</time>
      </trkpt>
      <trkpt lat="47.96454" lon="2.6201">
        <ele>92.3</ele>
        <time>2019-10-20T23:44:20Z</time>
      </trkpt>
      <trkpt lat="47.96444" lon="2.62007">
        <ele>92.3</ele>
        <time>2019-10-20T23:44:17Z</time>
      </trkpt>
      <trkpt lat="47.96435" lon="2.62001">
        <ele>92.4</ele>
        <time>2019-10-20T23:44:15Z</time>
      </trkpt>
      <trkpt lat="47.96424" lon="2.61992">
        <ele>92.7</ele>
        <time>2019-10-20T23:44:11Z</time>
      </trkpt>
      <trkpt lat="47.96415" lon="2.61981">
        <ele>93</ele>
        <time>2019-10-20T23:44:08Z</time>
      </trkpt>
      <trkpt lat="47.96404" lon="2.61971">
        <ele>93</ele>
        <time>2019-10-20T23:44:05Z</time>
      </trkpt>
      <trkpt lat="47.96385" lon="2.61947">
        <ele>93</ele>
        <time>2019-10-20T23:43:58Z</time>
      </trkpt>
      <trkpt lat="47.96379" lon="2.61937">
        <ele>92.7</ele>
        <time>2019-10-20T23:43:56Z</time>
      </trkpt>
      <trkpt lat="47.96371" lon="2.61921">
        <ele>92.4</ele>
        <time>2019-10-20T23:43:52Z</time>
      </trkpt>
      <trkpt lat="47.96363" lon="2.61902">
        <ele>92.4</ele>
        <time>2019-10-20T23:43:48Z</time>
      </trkpt>
      <trkpt lat="47.96333" lon="2.61845">
        <ele>91.9</ele>
        <time>2019-10-20T23:43:35Z</time>
      </trkpt>
      <trkpt lat="47.96316" lon="2.6181">
        <ele>92.6</ele>
        <time>2019-10-20T23:43:27Z</time>
      </trkpt>
      <trkpt lat="47.96308" lon="2.61791">
        <ele>92.5</ele>
        <time>2019-10-20T23:43:23Z</time>
      </trkpt>
      <trkpt lat="47.96291" lon="2.61743">
        <ele>92.6</ele>
        <time>2019-10-20T23:43:14Z</time>
      </trkpt>
      <trkpt lat="47.96284" lon="2.61719">
        <ele>92.7</ele>
        <time>2019-10-20T23:43:09Z</time>
      </trkpt>
      <trkpt lat="47.96274" lon="2.61682">
        <ele>92.1</ele>
        <time>2019-10-20T23:43:02Z</time>
      </trkpt>
      <trkpt lat="47.96266" lon="2.61634">
        <ele>91.9</ele>
        <time>2019-10-20T23:42:53Z</time>
      </trkpt>
      <trkpt lat="47.96251" lon="2.6154">
        <ele>92.4</ele>
        <time>2019-10-20T23:42:36Z</time>
      </trkpt>
      <trkpt lat="47.96246" lon="2.61518">
        <ele>91.8</ele>
        <time>2019-10-20T23:42:32Z</time>
      </trkpt>
      <trkpt lat="47.96234" lon="2.61476">
        <ele>92.5</ele>
        <time>2019-10-20T23:42:23Z</time>
      </trkpt>
      <trkpt lat="47.9621" lon="2.61401">
        <ele>92.2</ele>
        <time>2019-10-20T23:42:08Z</time>
      </trkpt>
      <trkpt lat="47.96188" lon="2.61341">
        <ele>91.7</ele>
        <time>2019-10-20T23:41:56Z</time>
      </trkpt>
      <trkpt lat="47.96177" lon="2.61319">
        <ele>92.4</ele>
        <time>2019-10-20T23:41:51Z</time>
      </trkpt>
      <trkpt lat="47.96159" lon="2.61286">
        <ele>92.3</ele>
        <time>2019-10-20T23:41:44Z</time>
      </trkpt>
      <trkpt lat="47.9615" lon="2.61269">
        <ele>92.7</ele>
        <time>2019-10-20T23:41:40Z</time>
      </trkpt>
      <trkpt lat="47.96141" lon="2.6125">
        <ele>92.9</ele>
        <time>2019-10-20T23:41:36Z</time>
      </trkpt>
      <trkpt lat="47.96133" lon="2.61231">
        <ele>91.9</ele>
        <time>2019-10-20T23:41:32Z</time>
      </trkpt>
      <trkpt lat="47.96125" lon="2.61207">
        <ele>92</ele>
        <time>2019-10-20T23:41:27Z</time>
      </trkpt>
      <trkpt lat="47.96122" lon="2.61191">
        <ele>92</ele>
        <time>2019-10-20T23:41:24Z</time>
      </trkpt>
      <trkpt lat="47.96118" lon="2.6117">
        <ele>92</ele>
        <time>2019-10-20T23:41:20Z</time>
      </trkpt>
      <trkpt lat="47.96113" lon="2.61141">
        <ele>92</ele>
        <time>2019-10-20T23:41:14Z</time>
      </trkpt>
      <trkpt lat="47.96098" lon="2.61045">
        <ele>91.7</ele>
        <time>2019-10-20T23:40:57Z</time>
      </trkpt>
      <trkpt lat="47.96091" lon="2.6099">
        <ele>92</ele>
        <time>2019-10-20T23:40:47Z</time>
      </trkpt>
      <trkpt lat="47.96087" lon="2.60965">
        <ele>92</ele>
        <time>2019-10-20T23:40:42Z</time>
      </trkpt>
      <trkpt lat="47.96087" lon="2.60937">
        <ele>91.9</ele>
        <time>2019-10-20T23:40:37Z</time>
      </trkpt>
      <trkpt lat="47.9609" lon="2.60907">
        <ele>92</ele>
        <time>2019-10-20T23:40:32Z</time>
      </trkpt>
      <trkpt lat="47.96097" lon="2.60866">
        <ele>91.6</ele>
        <time>2019-10-20T23:40:24Z</time>
      </trkpt>
      <trkpt lat="47.96101" lon="2.60841">
        <ele>91.4</ele>
        <time>2019-10-20T23:40:20Z</time>
      </trkpt>
      <trkpt lat="47.96112" lon="2.60771">
        <ele>92</ele>
        <time>2019-10-20T23:40:07Z</time>
      </trkpt>
      <trkpt lat="47.96118" lon="2.60727">
        <ele>92</ele>
        <time>2019-10-20T23:39:59Z</time>
      </trkpt>
      <trkpt lat="47.96122" lon="2.60685">
        <ele>92.2</ele>
        <time>2019-10-20T23:39:51Z</time>
      </trkpt>
      <trkpt lat="47.96122" lon="2.60665">
        <ele>92.6</ele>
        <time>2019-10-20T23:39:48Z</time>
      </trkpt>
      <trkpt lat="47.96121" lon="2.60642">
        <ele>92.6</ele>
        <time>2019-10-20T23:39:44Z</time>
      </trkpt>
      <trkpt lat="47.96118" lon="2.60619">
        <ele>92.8</ele>
        <time>2019-10-20T23:39:39Z</time>
      </trkpt>
      <trkpt lat="47.96114" lon="2.60593">
        <ele>92.3</ele>
        <time>2019-10-20T23:39:35Z</time>
      </trkpt>
      <trkpt lat="47.96109" lon="2.60565">
        <ele>92.1</ele>
        <time>2019-10-20T23:39:29Z</time>
      </trkpt>
      <trkpt lat="47.96106" lon="2.6055">
        <ele>92</ele>
        <time>2019-10-20T23:39:27Z</time>
      </trkpt>
      <trkpt lat="47.96099" lon="2.60521">
        <ele>91.7</ele>
        <time>2019-10-20T23:39:21Z</time>
      </trkpt>
      <trkpt lat="47.96096" lon="2.6051">
        <ele>92.2</ele>
        <time>2019-10-20T23:39:19Z</time>
      </trkpt>
      <trkpt lat="47.96066" lon="2.60432">
        <ele>91.8</ele>
        <time>2019-10-20T23:39:03Z</time>
      </trkpt>
      <trkpt lat="47.96054" lon="2.60398">
        <ele>92</ele>
        <time>2019-10-20T23:38:56Z</time>
      </trkpt>
      <trkpt lat="47.9605" lon="2.60385">
        <ele>91.9</ele>
        <time>2019-10-20T23:38:53Z</time>
      </trkpt>
      <trkpt lat="47.96036" lon="2.60329">
        <ele>92</ele>
        <time>2019-10-20T23:38:43Z</time>
      </trkpt>
      <trkpt lat="47.96002" lon="2.60174">
        <ele>91.9</ele>
        <time>2019-10-20T23:38:14Z</time>
      </trkpt>
      <trkpt lat="47.95967" lon="2.60014">
        <ele>91.6</ele>
        <time>2019-10-20T23:37:43Z</time>
      </trkpt>
      <trkpt lat="47.95962" lon="2.5999">
        <ele>91.4</ele>
        <time>2019-10-20T23:37:39Z</time>
      </trkpt>
      <trkpt lat="47.95961" lon="2.59981">
        <ele>91.4</ele>
        <time>2019-10-20T23:37:37Z</time>
      </trkpt>
      <trkpt lat="47.95959" lon="2.59962">
        <ele>91.7</ele>
        <time>2019-10-20T23:37:34Z</time>
      </trkpt>
      <trkpt lat="47.95956" lon="2.59925">
        <ele>92</ele>
        <time>2019-10-20T23:37:27Z</time>
      </trkpt>
      <trkpt lat="47.95955" lon="2.59894">
        <ele>92</ele>
        <time>2019-10-20T23:37:21Z</time>
      </trkpt>
      <trkpt lat="47.95956" lon="2.59802">
        <ele>92</ele>
        <time>2019-10-20T23:37:05Z</time>
      </trkpt>
      <trkpt lat="47.95956" lon="2.59778">
        <ele>92</ele>
        <time>2019-10-20T23:37:01Z</time>
      </trkpt>
      <trkpt lat="47.95955" lon="2.59755">
        <ele>92</ele>
        <time>2019-10-20T23:36:57Z</time>
      </trkpt>
      <trkpt lat="47.9595" lon="2.59694">
        <ele>92</ele>
        <time>2019-10-20T23:36:46Z</time>
      </trkpt>
      <trkpt lat="47.95943" lon="2.59638">
        <ele>92</ele>
        <time>2019-10-20T23:36:36Z</time>
      </trkpt>
      <trkpt lat="47.95939" lon="2.59613">
        <ele>92</ele>
        <time>2019-10-20T23:36:31Z</time>
      </trkpt>
      <trkpt lat="47.95935" lon="2.59593">
        <ele>91.6</ele>
        <time>2019-10-20T23:36:27Z</time>
      </trkpt>
      <trkpt lat="47.95927" lon="2.59569">
        <ele>92.1</ele>
        <time>2019-10-20T23:36:22Z</time>
      </trkpt>
      <trkpt lat="47.95898" lon="2.59496">
        <ele>92.6</ele>
        <time>2019-10-20T23:36:07Z</time>
      </trkpt>
      <trkpt lat="47.95872" lon="2.59434">
        <ele>92.1</ele>
        <time>2019-10-20T23:35:54Z</time>
      </trkpt>
      <trkpt lat="47.95863" lon="2.59411">
        <ele>92.8</ele>
        <time>2019-10-20T23:35:49Z</time>
      </trkpt>
      <trkpt lat="47.95855" lon="2.59382">
        <ele>92</ele>
        <time>2019-10-20T23:35:44Z</time>
      </trkpt>
      <trkpt lat="47.9585" lon="2.59365">
        <ele>91.9</ele>
        <time>2019-10-20T23:35:40Z</time>
      </trkpt>
      <trkpt lat="47.95838" lon="2.59306">
        <ele>92</ele>
        <time>2019-10-20T23:35:29Z</time>
      </trkpt>
      <trkpt lat="47.9583" lon="2.5926">
        <ele>92.4</ele>
        <time>2019-10-20T23:35:21Z</time>
      </trkpt>
      <trkpt lat="47.95819" lon="2.59197">
        <ele>92.5</ele>
        <time>2019-10-20T23:35:09Z</time>
      </trkpt>
      <trkpt lat="47.95795" lon="2.59071">
        <ele>92</ele>
        <time>2019-10-20T23:34:46Z</time>
      </trkpt>
      <trkpt lat="47.95764" lon="2.58908">
        <ele>92</ele>
        <time>2019-10-20T23:34:16Z</time>
      </trkpt>
      <trkpt lat="47.95741" lon="2.58797">
        <ele>92.1</ele>
        <time>2019-10-20T23:33:55Z</time>
      </trkpt>
      <trkpt lat="47.95739" lon="2.58784">
        <ele>91.9</ele>
        <time>2019-10-20T23:33:52Z</time>
      </trkpt>
      <trkpt lat="47.95729" lon="2.58741">
        <ele>93.5</ele>
        <time>2019-10-20T23:33:44Z</time>
      </trkpt>
      <trkpt lat="47.95728" lon="2.58737">
        <ele>93.6</ele>
        <time>2019-10-20T23:33:43Z</time>
      </trkpt>
      <trkpt lat="47.95724" lon="2.58734">
        <ele>93.6</ele>
        <time>2019-10-20T23:33:42Z</time>
      </trkpt>
      <trkpt lat="47.95722" lon="2.58728">
        <ele>93.8</ele>
        <time>2019-10-20T23:33:41Z</time>
      </trkpt>
      <trkpt lat="47.95718" lon="2.58711">
        <ele>93.7</ele>
        <time>2019-10-20T23:33:38Z</time>
      </trkpt>
      <trkpt lat="47.95714" lon="2.58685">
        <ele>93.2</ele>
        <time>2019-10-20T23:33:33Z</time>
      </trkpt>
      <trkpt lat="47.9571" lon="2.58643">
        <ele>93</ele>
        <time>2019-10-20T23:33:25Z</time>
      </trkpt>
      <trkpt lat="47.95705" lon="2.58571">
        <ele>93.6</ele>
        <time>2019-10-20T23:33:13Z</time>
      </trkpt>
      <trkpt lat="47.95701" lon="2.58536">
        <ele>93.8</ele>
        <time>2019-10-20T23:33:06Z</time>
      </trkpt>
      <trkpt lat="47.95685" lon="2.58454">
        <ele>93</ele>
        <time>2019-10-20T23:32:51Z</time>
      </trkpt>
      <trkpt lat="47.95676" lon="2.58406">
        <ele>93.7</ele>
        <time>2019-10-20T23:32:42Z</time>
      </trkpt>
      <trkpt lat="47.95662" lon="2.58365">
        <ele>93.3</ele>
        <time>2019-10-20T23:32:34Z</time>
      </trkpt>
      <trkpt lat="47.95639" lon="2.58293">
        <ele>93.5</ele>
        <time>2019-10-20T23:32:19Z</time>
      </trkpt>
      <trkpt lat="47.95628" lon="2.58257">
        <ele>93.4</ele>
        <time>2019-10-20T23:32:12Z</time>
      </trkpt>
      <trkpt lat="47.95623" lon="2.58229">
        <ele>94.2</ele>
        <time>2019-10-20T23:32:07Z</time>
      </trkpt>
      <trkpt lat="47.95619" lon="2.58193">
        <ele>94.3</ele>
        <time>2019-10-20T23:32:01Z</time>
      </trkpt>
      <trkpt lat="47.95616" lon="2.58162">
        <ele>94.1</ele>
        <time>2019-10-20T23:31:55Z</time>
      </trkpt>
      <trkpt lat="47.95615" lon="2.58135">
        <ele>94</ele>
        <time>2019-10-20T23:31:50Z</time>
      </trkpt>
      <trkpt lat="47.95615" lon="2.58101">
        <ele>94</ele>
        <time>2019-10-20T23:31:44Z</time>
      </trkpt>
      <trkpt lat="47.95617" lon="2.58077">
        <ele>94</ele>
        <time>2019-10-20T23:31:40Z</time>
      </trkpt>
      <trkpt lat="47.95619" lon="2.58054">
        <ele>93.7</ele>
        <time>2019-10-20T23:31:36Z</time>
      </trkpt>
      <trkpt lat="47.95621" lon="2.58032">
        <ele>93.6</ele>
        <time>2019-10-20T23:31:32Z</time>
      </trkpt>
      <trkpt lat="47.95626" lon="2.58007">
        <ele>93.5</ele>
        <time>2019-10-20T23:31:27Z</time>
      </trkpt>
      <trkpt lat="47.95655" lon="2.57879">
        <ele>93.4</ele>
        <time>2019-10-20T23:31:03Z</time>
      </trkpt>
      <trkpt lat="47.95664" lon="2.57842">
        <ele>93</ele>
        <time>2019-10-20T23:30:56Z</time>
      </trkpt>
      <trkpt lat="47.95667" lon="2.57822">
        <ele>93</ele>
        <time>2019-10-20T23:30:52Z</time>
      </trkpt>
      <trkpt lat="47.95671" lon="2.57801">
        <ele>93</ele>
        <time>2019-10-20T23:30:48Z</time>
      </trkpt>
      <trkpt lat="47.95672" lon="2.57786">
        <ele>93</ele>
        <time>2019-10-20T23:30:45Z</time>
      </trkpt>
      <trkpt lat="47.95673" lon="2.57769">
        <ele>93</ele>
        <time>2019-10-20T23:30:42Z</time>
      </trkpt>
      <trkpt lat="47.95673" lon="2.57754">
        <ele>93</ele>
        <time>2019-10-20T23:30:40Z</time>
      </trkpt>
      <trkpt lat="47.95673" lon="2.57733">
        <ele>93</ele>
        <time>2019-10-20T23:30:36Z</time>
      </trkpt>
      <trkpt lat="47.9567" lon="2.57697">
        <ele>93</ele>
        <time>2019-10-20T23:30:30Z</time>
      </trkpt>
      <trkpt lat="47.95666" lon="2.5767">
        <ele>93</ele>
        <time>2019-10-20T23:30:25Z</time>
      </trkpt>
      <trkpt lat="47.9565" lon="2.57579">
        <ele>93.6</ele>
        <time>2019-10-20T23:30:08Z</time>
      </trkpt>
      <trkpt lat="47.95647" lon="2.5756">
        <ele>93.7</ele>
        <time>2019-10-20T23:30:04Z</time>
      </trkpt>
      <trkpt lat="47.95617" lon="2.57393">
        <ele>93.8</ele>
        <time>2019-10-20T23:29:33Z</time>
      </trkpt>
      <trkpt lat="47.95589" lon="2.57234">
        <ele>93.9</ele>
        <time>2019-10-20T23:29:04Z</time>
      </trkpt>
      <trkpt lat="47.95577" lon="2.57148">
        <ele>93.2</ele>
        <time>2019-10-20T23:28:48Z</time>
      </trkpt>
      <trkpt lat="47.95572" lon="2.57099">
        <ele>93.4</ele>
        <time>2019-10-20T23:28:39Z</time>
      </trkpt>
      <trkpt lat="47.95561" lon="2.57026">
        <ele>93.8</ele>
        <time>2019-10-20T23:28:26Z</time>
      </trkpt>
      <trkpt lat="47.95557" lon="2.57001">
        <ele>94</ele>
        <time>2019-10-20T23:28:21Z</time>
      </trkpt>
      <trkpt lat="47.95553" lon="2.56983">
        <ele>93.4</ele>
        <time>2019-10-20T23:28:18Z</time>
      </trkpt>
      <trkpt lat="47.95547" lon="2.56966">
        <ele>93.3</ele>
        <time>2019-10-20T23:28:14Z</time>
      </trkpt>
      <trkpt lat="47.95537" lon="2.56938">
        <ele>93.7</ele>
        <time>2019-10-20T23:28:09Z</time>
      </trkpt>
      <trkpt lat="47.95503" lon="2.56864">
        <ele>94.1</ele>
        <time>2019-10-20T23:27:53Z</time>
      </trkpt>
      <trkpt lat="47.95493" lon="2.5684">
        <ele>93.4</ele>
        <time>2019-10-20T23:27:48Z</time>
      </trkpt>
      <trkpt lat="47.95485" lon="2.56819">
        <ele>93.8</ele>
        <time>2019-10-20T23:27:43Z</time>
      </trkpt>
      <trkpt lat="47.95478" lon="2.56795">
        <ele>94.4</ele>
        <time>2019-10-20T23:27:39Z</time>
      </trkpt>
      <trkpt lat="47.95473" lon="2.5677">
        <ele>93.8</ele>
        <time>2019-10-20T23:27:34Z</time>
      </trkpt>
      <trkpt lat="47.9547" lon="2.56751">
        <ele>93.2</ele>
        <time>2019-10-20T23:27:31Z</time>
      </trkpt>
      <trkpt lat="47.95468" lon="2.56731">
        <ele>93.3</ele>
        <time>2019-10-20T23:27:27Z</time>
      </trkpt>
      <trkpt lat="47.9546" lon="2.56689">
        <ele>93.9</ele>
        <time>2019-10-20T23:27:19Z</time>
      </trkpt>
      <trkpt lat="47.95452" lon="2.5664">
        <ele>95.9</ele>
        <time>2019-10-20T23:27:10Z</time>
      </trkpt>
      <trkpt lat="47.95432" lon="2.56555">
        <ele>93.9</ele>
        <time>2019-10-20T23:26:54Z</time>
      </trkpt>
      <trkpt lat="47.95416" lon="2.56487">
        <ele>94.1</ele>
        <time>2019-10-20T23:26:41Z</time>
      </trkpt>
      <trkpt lat="47.95403" lon="2.56428">
        <ele>94.3</ele>
        <time>2019-10-20T23:26:30Z</time>
      </trkpt>
      <trkpt lat="47.95386" lon="2.56347">
        <ele>93.6</ele>
        <time>2019-10-20T23:26:15Z</time>
      </trkpt>
      <trkpt lat="47.95381" lon="2.56321">
        <ele>93.6</ele>
        <time>2019-10-20T23:26:10Z</time>
      </trkpt>
      <trkpt lat="47.95379" lon="2.563">
        <ele>93.8</ele>
        <time>2019-10-20T23:26:06Z</time>
      </trkpt>
      <trkpt lat="47.95376" lon="2.5627">
        <ele>94.6</ele>
        <time>2019-10-20T23:26:01Z</time>
      </trkpt>
      <trkpt lat="47.9538" lon="2.56269">
        <ele>94.4</ele>
        <time>2019-10-20T23:26:00Z</time>
      </trkpt>
      <trkpt lat="47.95394" lon="2.56264">
        <ele>94.6</ele>
        <time>2019-10-20T23:25:56Z</time>
      </trkpt>
      <trkpt lat="47.95399" lon="2.56262">
        <ele>94.9</ele>
        <time>2019-10-20T23:25:54Z</time>
      </trkpt>
      <trkpt lat="47.95391" lon="2.56233">
        <ele>96</ele>
        <time>2019-10-20T23:25:49Z</time>
      </trkpt>
      <trkpt lat="47.95385" lon="2.56205">
        <ele>95.9</ele>
        <time>2019-10-20T23:25:44Z</time>
      </trkpt>
      <trkpt lat="47.95373" lon="2.56086">
        <ele>95</ele>
        <time>2019-10-20T23:25:22Z</time>
      </trkpt>
      <trkpt lat="47.95371" lon="2.56065">
        <ele>95</ele>
        <time>2019-10-20T23:25:18Z</time>
      </trkpt>
      <trkpt lat="47.95364" lon="2.55998">
        <ele>94.9</ele>
        <time>2019-10-20T23:25:06Z</time>
      </trkpt>
      <trkpt lat="47.95362" lon="2.5598">
        <ele>95</ele>
        <time>2019-10-20T23:25:03Z</time>
      </trkpt>
      <trkpt lat="47.95355" lon="2.5593">
        <ele>95.4</ele>
        <time>2019-10-20T23:24:54Z</time>
      </trkpt>
      <trkpt lat="47.95347" lon="2.55884">
        <ele>94.5</ele>
        <time>2019-10-20T23:24:45Z</time>
      </trkpt>
      <trkpt lat="47.95339" lon="2.55847">
        <ele>94.8</ele>
        <time>2019-10-20T23:24:38Z</time>
      </trkpt>
      <trkpt lat="47.95328" lon="2.55803">
        <ele>95.2</ele>
        <time>2019-10-20T23:24:30Z</time>
      </trkpt>
      <trkpt lat="47.95291" lon="2.55672">
        <ele>95.1</ele>
        <time>2019-10-20T23:24:04Z</time>
      </trkpt>
      <trkpt lat="47.95218" lon="2.55425">
        <ele>95.3</ele>
        <time>2019-10-20T23:23:16Z</time>
      </trkpt>
      <trkpt lat="47.95194" lon="2.55338">
        <ele>95.8</ele>
        <time>2019-10-20T23:22:59Z</time>
      </trkpt>
      <trkpt lat="47.95188" lon="2.55313">
        <ele>95.3</ele>
        <time>2019-10-20T23:22:54Z</time>
      </trkpt>
      <trkpt lat="47.95163" lon="2.55229">
        <ele>95.1</ele>
        <time>2019-10-20T23:22:38Z</time>
      </trkpt>
      <trkpt lat="47.95124" lon="2.55092">
        <ele>95.6</ele>
        <time>2019-10-20T23:22:11Z</time>
      </trkpt>
      <trkpt lat="47.95098" lon="2.54998">
        <ele>95</ele>
        <time>2019-10-20T23:21:53Z</time>
      </trkpt>
      <trkpt lat="47.95083" lon="2.54934">
        <ele>96</ele>
        <time>2019-10-20T23:21:41Z</time>
      </trkpt>
      <trkpt lat="47.9506" lon="2.54836">
        <ele>95</ele>
        <time>2019-10-20T23:21:22Z</time>
      </trkpt>
      <trkpt lat="47.95032" lon="2.54724">
        <ele>95.9</ele>
        <time>2019-10-20T23:21:01Z</time>
      </trkpt>
      <trkpt lat="47.94997" lon="2.54573">
        <ele>95.4</ele>
        <time>2019-10-20T23:20:32Z</time>
      </trkpt>
      <trkpt lat="47.94985" lon="2.54533">
        <ele>95.6</ele>
        <time>2019-10-20T23:20:25Z</time>
      </trkpt>
      <trkpt lat="47.94977" lon="2.5451">
        <ele>95.7</ele>
        <time>2019-10-20T23:20:20Z</time>
      </trkpt>
      <trkpt lat="47.94964" lon="2.54483">
        <ele>95.8</ele>
        <time>2019-10-20T23:20:14Z</time>
      </trkpt>
      <trkpt lat="47.94946" lon="2.54446">
        <ele>95.1</ele>
        <time>2019-10-20T23:20:06Z</time>
      </trkpt>
      <trkpt lat="47.94913" lon="2.5438">
        <ele>96</ele>
        <time>2019-10-20T23:19:51Z</time>
      </trkpt>
      <trkpt lat="47.94898" lon="2.54345">
        <ele>95.7</ele>
        <time>2019-10-20T23:19:44Z</time>
      </trkpt>
      <trkpt lat="47.94873" lon="2.5429">
        <ele>95.7</ele>
        <time>2019-10-20T23:19:32Z</time>
      </trkpt>
      <trkpt lat="47.94853" lon="2.54257">
        <ele>95.9</ele>
        <time>2019-10-20T23:19:24Z</time>
      </trkpt>
      <trkpt lat="47.94825" lon="2.542">
        <ele>98.3</ele>
        <time>2019-10-20T23:19:11Z</time>
      </trkpt>
      <trkpt lat="47.94824" lon="2.54188">
        <ele>98.2</ele>
        <time>2019-10-20T23:19:09Z</time>
      </trkpt>
      <trkpt lat="47.94812" lon="2.54188">
        <ele>97.7</ele>
        <time>2019-10-20T23:19:06Z</time>
      </trkpt>
      <trkpt lat="47.94789" lon="2.54138">
        <ele>98</ele>
        <time>2019-10-20T23:18:55Z</time>
      </trkpt>
      <trkpt lat="47.94775" lon="2.54103">
        <ele>97.9</ele>
        <time>2019-10-20T23:18:48Z</time>
      </trkpt>
      <trkpt lat="47.9474" lon="2.54024">
        <ele>97.4</ele>
        <time>2019-10-20T23:18:31Z</time>
      </trkpt>
      <trkpt lat="47.94715" lon="2.53968">
        <ele>98</ele>
        <time>2019-10-20T23:18:19Z</time>
      </trkpt>
      <trkpt lat="47.94687" lon="2.53909">
        <ele>97.8</ele>
        <time>2019-10-20T23:18:06Z</time>
      </trkpt>
      <trkpt lat="47.9464" lon="2.53814">
        <ele>98</ele>
        <time>2019-10-20T23:17:44Z</time>
      </trkpt>
      <trkpt lat="47.94578" lon="2.53687">
        <ele>98</ele>
        <time>2019-10-20T23:17:16Z</time>
      </trkpt>
      <trkpt lat="47.94548" lon="2.53624">
        <ele>98.3</ele>
        <time>2019-10-20T23:17:03Z</time>
      </trkpt>
      <trkpt lat="47.9453" lon="2.53588">
        <ele>100.5</ele>
        <time>2019-10-20T23:16:55Z</time>
      </trkpt>
      <trkpt lat="47.94511" lon="2.53563">
        <ele>98.5</ele>
        <time>2019-10-20T23:16:48Z</time>
      </trkpt>
      <trkpt lat="47.94494" lon="2.53543">
        <ele>98</ele>
        <time>2019-10-20T23:16:42Z</time>
      </trkpt>
      <trkpt lat="47.94467" lon="2.53523">
        <ele>98.1</ele>
        <time>2019-10-20T23:16:34Z</time>
      </trkpt>
      <trkpt lat="47.94458" lon="2.53517">
        <ele>98.2</ele>
        <time>2019-10-20T23:16:31Z</time>
      </trkpt>
      <trkpt lat="47.94442" lon="2.53508">
        <ele>98</ele>
        <time>2019-10-20T23:16:27Z</time>
      </trkpt>
      <trkpt lat="47.94427" lon="2.53501">
        <ele>98</ele>
        <time>2019-10-20T23:16:23Z</time>
      </trkpt>
      <trkpt lat="47.9441" lon="2.53495">
        <ele>98</ele>
        <time>2019-10-20T23:16:18Z</time>
      </trkpt>
      <trkpt lat="47.94403" lon="2.53492">
        <ele>98.1</ele>
        <time>2019-10-20T23:16:16Z</time>
      </trkpt>
      <trkpt lat="47.94367" lon="2.53478">
        <ele>98.2</ele>
        <time>2019-10-20T23:16:06Z</time>
      </trkpt>
      <trkpt lat="47.94305" lon="2.53454">
        <ele>98</ele>
        <time>2019-10-20T23:15:49Z</time>
      </trkpt>
      <trkpt lat="47.94283" lon="2.53443">
        <ele>98</ele>
        <time>2019-10-20T23:15:43Z</time>
      </trkpt>
      <trkpt lat="47.94272" lon="2.53436">
        <ele>98.1</ele>
        <time>2019-10-20T23:15:39Z</time>
      </trkpt>
      <trkpt lat="47.94258" lon="2.53435">
        <ele>98.2</ele>
        <time>2019-10-20T23:15:36Z</time>
      </trkpt>
      <trkpt lat="47.94236" lon="2.53427">
        <ele>98.6</ele>
        <time>2019-10-20T23:15:30Z</time>
      </trkpt>
      <trkpt lat="47.94197" lon="2.53413">
        <ele>98.2</ele>
        <time>2019-10-20T23:15:19Z</time>
      </trkpt>
      <trkpt lat="47.94142" lon="2.53391">
        <ele>98.1</ele>
        <time>2019-10-20T23:15:04Z</time>
      </trkpt>
      <trkpt lat="47.94017" lon="2.53341">
        <ele>98.7</ele>
        <time>2019-10-20T23:14:29Z</time>
      </trkpt>
      <trkpt lat="47.93955" lon="2.5331">
        <ele>98.3</ele>
        <time>2019-10-20T23:14:12Z</time>
      </trkpt>
      <trkpt lat="47.93926" lon="2.53293">
        <ele>98.5</ele>
        <time>2019-10-20T23:14:03Z</time>
      </trkpt>
      <trkpt lat="47.93897" lon="2.53274">
        <ele>98.4</ele>
        <time>2019-10-20T23:13:55Z</time>
      </trkpt>
      <trkpt lat="47.93862" lon="2.53247">
        <ele>98.1</ele>
        <time>2019-10-20T23:13:44Z</time>
      </trkpt>
      <trkpt lat="47.93827" lon="2.53219">
        <ele>98.8</ele>
        <time>2019-10-20T23:13:34Z</time>
      </trkpt>
      <trkpt lat="47.93795" lon="2.5319">
        <ele>98.6</ele>
        <time>2019-10-20T23:13:24Z</time>
      </trkpt>
      <trkpt lat="47.93763" lon="2.53158">
        <ele>98.5</ele>
        <time>2019-10-20T23:13:14Z</time>
      </trkpt>
      <trkpt lat="47.93718" lon="2.53114">
        <ele>98.8</ele>
        <time>2019-10-20T23:12:59Z</time>
      </trkpt>
      <trkpt lat="47.93694" lon="2.53091">
        <ele>98.7</ele>
        <time>2019-10-20T23:12:52Z</time>
      </trkpt>
      <trkpt lat="47.93673" lon="2.53068">
        <ele>98.5</ele>
        <time>2019-10-20T23:12:44Z</time>
      </trkpt>
      <trkpt lat="47.93657" lon="2.53043">
        <ele>98.7</ele>
        <time>2019-10-20T23:12:38Z</time>
      </trkpt>
      <trkpt lat="47.93643" lon="2.53014">
        <ele>98.6</ele>
        <time>2019-10-20T23:12:32Z</time>
      </trkpt>
      <trkpt lat="47.93616" lon="2.5296">
        <ele>98.4</ele>
        <time>2019-10-20T23:12:20Z</time>
      </trkpt>
      <trkpt lat="47.93605" lon="2.52938">
        <ele>98.8</ele>
        <time>2019-10-20T23:12:15Z</time>
      </trkpt>
      <trkpt lat="47.93594" lon="2.52917">
        <ele>98.4</ele>
        <time>2019-10-20T23:12:10Z</time>
      </trkpt>
      <trkpt lat="47.93581" lon="2.52899">
        <ele>98.6</ele>
        <time>2019-10-20T23:12:05Z</time>
      </trkpt>
      <trkpt lat="47.93566" lon="2.52881">
        <ele>98.6</ele>
        <time>2019-10-20T23:12:00Z</time>
      </trkpt>
      <trkpt lat="47.93249" lon="2.52504">
        <ele>99.7</ele>
        <time>2019-10-20T23:10:12Z</time>
      </trkpt>
      <trkpt lat="47.93228" lon="2.52475">
        <ele>98.9</ele>
        <time>2019-10-20T23:10:04Z</time>
      </trkpt>
      <trkpt lat="47.93213" lon="2.52443">
        <ele>99.3</ele>
        <time>2019-10-20T23:09:57Z</time>
      </trkpt>
      <trkpt lat="47.93197" lon="2.52394">
        <ele>98.8</ele>
        <time>2019-10-20T23:09:48Z</time>
      </trkpt>
      <trkpt lat="47.93182" lon="2.52344">
        <ele>99.3</ele>
        <time>2019-10-20T23:09:38Z</time>
      </trkpt>
      <trkpt lat="47.93152" lon="2.52243">
        <ele>99.5</ele>
        <time>2019-10-20T23:09:18Z</time>
      </trkpt>
      <trkpt lat="47.9313" lon="2.5217">
        <ele>99.9</ele>
        <time>2019-10-20T23:09:04Z</time>
      </trkpt>
      <trkpt lat="47.93127" lon="2.52165">
        <ele>100</ele>
        <time>2019-10-20T23:09:03Z</time>
      </trkpt>
      <trkpt lat="47.93122" lon="2.52165">
        <ele>100</ele>
        <time>2019-10-20T23:09:01Z</time>
      </trkpt>
      <trkpt lat="47.93119" lon="2.52159">
        <ele>100</ele>
        <time>2019-10-20T23:09:00Z</time>
      </trkpt>
      <trkpt lat="47.93105" lon="2.52095">
        <ele>100</ele>
        <time>2019-10-20T23:08:48Z</time>
      </trkpt>
      <trkpt lat="47.93065" lon="2.51947">
        <ele>100.3</ele>
        <time>2019-10-20T23:08:19Z</time>
      </trkpt>
      <trkpt lat="47.93023" lon="2.51806">
        <ele>103.5</ele>
        <time>2019-10-20T23:07:52Z</time>
      </trkpt>
      <trkpt lat="47.93002" lon="2.51762">
        <ele>100.6</ele>
        <time>2019-10-20T23:07:42Z</time>
      </trkpt>
      <trkpt lat="47.92957" lon="2.51665">
        <ele>100.5</ele>
        <time>2019-10-20T23:07:21Z</time>
      </trkpt>
      <trkpt lat="47.92908" lon="2.51563">
        <ele>101.2</ele>
        <time>2019-10-20T23:06:58Z</time>
      </trkpt>
      <trkpt lat="47.92885" lon="2.51511">
        <ele>100.5</ele>
        <time>2019-10-20T23:06:47Z</time>
      </trkpt>
      <trkpt lat="47.92864" lon="2.51456">
        <ele>100.6</ele>
        <time>2019-10-20T23:06:36Z</time>
      </trkpt>
      <trkpt lat="47.9273" lon="2.51103">
        <ele>100.5</ele>
        <time>2019-10-20T23:05:23Z</time>
      </trkpt>
      <trkpt lat="47.92681" lon="2.50983">
        <ele>100.7</ele>
        <time>2019-10-20T23:04:58Z</time>
      </trkpt>
      <trkpt lat="47.92665" lon="2.50947">
        <ele>100.9</ele>
        <time>2019-10-20T23:04:50Z</time>
      </trkpt>
      <trkpt lat="47.92646" lon="2.50916">
        <ele>100.3</ele>
        <time>2019-10-20T23:04:43Z</time>
      </trkpt>
      <trkpt lat="47.92606" lon="2.50852">
        <ele>100.4</ele>
        <time>2019-10-20T23:04:27Z</time>
      </trkpt>
      <trkpt lat="47.92519" lon="2.50718">
        <ele>100.7</ele>
        <time>2019-10-20T23:03:54Z</time>
      </trkpt>
      <trkpt lat="47.92501" lon="2.50696">
        <ele>100</ele>
        <time>2019-10-20T23:03:48Z</time>
      </trkpt>
      <trkpt lat="47.92482" lon="2.50678">
        <ele>100.4</ele>
        <time>2019-10-20T23:03:42Z</time>
      </trkpt>
      <trkpt lat="47.92408" lon="2.50602">
        <ele>100.2</ele>
        <time>2019-10-20T23:03:18Z</time>
      </trkpt>
      <trkpt lat="47.92394" lon="2.50583">
        <ele>100.2</ele>
        <time>2019-10-20T23:03:12Z</time>
      </trkpt>
      <trkpt lat="47.92378" lon="2.50557">
        <ele>100.6</ele>
        <time>2019-10-20T23:03:06Z</time>
      </trkpt>
      <trkpt lat="47.92366" lon="2.50526">
        <ele>100.1</ele>
        <time>2019-10-20T23:03:00Z</time>
      </trkpt>
      <trkpt lat="47.92353" lon="2.50486">
        <ele>100.9</ele>
        <time>2019-10-20T23:02:52Z</time>
      </trkpt>
      <trkpt lat="47.92345" lon="2.50442">
        <ele>100.4</ele>
        <time>2019-10-20T23:02:44Z</time>
      </trkpt>
      <trkpt lat="47.92334" lon="2.5038">
        <ele>100.3</ele>
        <time>2019-10-20T23:02:32Z</time>
      </trkpt>
      <trkpt lat="47.92332" lon="2.50373">
        <ele>100.6</ele>
        <time>2019-10-20T23:02:31Z</time>
      </trkpt>
      <trkpt lat="47.92306" lon="2.50226">
        <ele>100</ele>
        <time>2019-10-20T23:02:04Z</time>
      </trkpt>
      <trkpt lat="47.92301" lon="2.50188">
        <ele>101</ele>
        <time>2019-10-20T23:01:57Z</time>
      </trkpt>
      <trkpt lat="47.92304" lon="2.50173">
        <ele>101</ele>
        <time>2019-10-20T23:01:54Z</time>
      </trkpt>
      <trkpt lat="47.92317" lon="2.50126">
        <ele>100.8</ele>
        <time>2019-10-20T23:01:45Z</time>
      </trkpt>
      <trkpt lat="47.9232" lon="2.501">
        <ele>101.2</ele>
        <time>2019-10-20T23:01:40Z</time>
      </trkpt>
      <trkpt lat="47.92319" lon="2.50076">
        <ele>101.8</ele>
        <time>2019-10-20T23:01:36Z</time>
      </trkpt>
      <trkpt lat="47.92315" lon="2.50064">
        <ele>102.3</ele>
        <time>2019-10-20T23:01:33Z</time>
      </trkpt>
      <trkpt lat="47.92312" lon="2.49973">
        <ele>102.8</ele>
        <time>2019-10-20T23:01:17Z</time>
      </trkpt>
      <trkpt lat="47.92238" lon="2.4981">
        <ele>102.4</ele>
        <time>2019-10-20T23:00:42Z</time>
      </trkpt>
      <trkpt lat="47.92159" lon="2.49664">
        <ele>102.3</ele>
        <time>2019-10-20T23:00:08Z</time>
      </trkpt>
      <trkpt lat="47.92053" lon="2.49441">
        <ele>102.1</ele>
        <time>2019-10-20T22:59:19Z</time>
      </trkpt>
      <trkpt lat="47.919" lon="2.49161">
        <ele>103</ele>
        <time>2019-10-20T22:58:14Z</time>
      </trkpt>
      <trkpt lat="47.91874" lon="2.49114">
        <ele>103</ele>
        <time>2019-10-20T22:58:04Z</time>
      </trkpt>
      <trkpt lat="47.91848" lon="2.49072">
        <ele>103</ele>
        <time>2019-10-20T22:57:53Z</time>
      </trkpt>
      <trkpt lat="47.91791" lon="2.48993">
        <ele>103</ele>
        <time>2019-10-20T22:57:33Z</time>
      </trkpt>
      <trkpt lat="47.91743" lon="2.48923">
        <ele>103</ele>
        <time>2019-10-20T22:57:15Z</time>
      </trkpt>
      <trkpt lat="47.91693" lon="2.48854">
        <ele>103</ele>
        <time>2019-10-20T22:56:56Z</time>
      </trkpt>
      <trkpt lat="47.91596" lon="2.48715">
        <ele>103.6</ele>
        <time>2019-10-20T22:56:20Z</time>
      </trkpt>
      <trkpt lat="47.91574" lon="2.48684">
        <ele>104</ele>
        <time>2019-10-20T22:56:12Z</time>
      </trkpt>
      <trkpt lat="47.91552" lon="2.48651">
        <ele>104.2</ele>
        <time>2019-10-20T22:56:04Z</time>
      </trkpt>
      <trkpt lat="47.91531" lon="2.48631">
        <ele>105.5</ele>
        <time>2019-10-20T22:55:57Z</time>
      </trkpt>
      <trkpt lat="47.91518" lon="2.48613">
        <ele>105.4</ele>
        <time>2019-10-20T22:55:53Z</time>
      </trkpt>
      <trkpt lat="47.91504" lon="2.4859">
        <ele>105.7</ele>
        <time>2019-10-20T22:55:47Z</time>
      </trkpt>
      <trkpt lat="47.91482" lon="2.48548">
        <ele>105.6</ele>
        <time>2019-10-20T22:55:38Z</time>
      </trkpt>
      <trkpt lat="47.91465" lon="2.48507">
        <ele>105.5</ele>
        <time>2019-10-20T22:55:29Z</time>
      </trkpt>
      <trkpt lat="47.91447" lon="2.48467">
        <ele>105.8</ele>
        <time>2019-10-20T22:55:20Z</time>
      </trkpt>
      <trkpt lat="47.9143" lon="2.48425">
        <ele>105.5</ele>
        <time>2019-10-20T22:55:11Z</time>
      </trkpt>
      <trkpt lat="47.91381" lon="2.4831">
        <ele>105.4</ele>
        <time>2019-10-20T22:54:47Z</time>
      </trkpt>
      <trkpt lat="47.91357" lon="2.48252">
        <ele>105.7</ele>
        <time>2019-10-20T22:54:35Z</time>
      </trkpt>
      <trkpt lat="47.91346" lon="2.48238">
        <ele>107.3</ele>
        <time>2019-10-20T22:54:31Z</time>
      </trkpt>
      <trkpt lat="47.91337" lon="2.48217">
        <ele>107.2</ele>
        <time>2019-10-20T22:54:27Z</time>
      </trkpt>
      <trkpt lat="47.91337" lon="2.48205">
        <ele>107.4</ele>
        <time>2019-10-20T22:54:24Z</time>
      </trkpt>
      <trkpt lat="47.91333" lon="2.48195">
        <ele>107</ele>
        <time>2019-10-20T22:54:22Z</time>
      </trkpt>
      <trkpt lat="47.9126" lon="2.48022">
        <ele>106.9</ele>
        <time>2019-10-20T22:53:46Z</time>
      </trkpt>
      <trkpt lat="47.91222" lon="2.47934">
        <ele>106.6</ele>
        <time>2019-10-20T22:53:27Z</time>
      </trkpt>
      <trkpt lat="47.91201" lon="2.47885">
        <ele>106.3</ele>
        <time>2019-10-20T22:53:17Z</time>
      </trkpt>
      <trkpt lat="47.91183" lon="2.47849">
        <ele>106.4</ele>
        <time>2019-10-20T22:53:09Z</time>
      </trkpt>
      <trkpt lat="47.91157" lon="2.47815">
        <ele>106.8</ele>
        <time>2019-10-20T22:52:59Z</time>
      </trkpt>
      <trkpt lat="47.91106" lon="2.4775">
        <ele>108.2</ele>
        <time>2019-10-20T22:52:41Z</time>
      </trkpt>
      <trkpt lat="47.91093" lon="2.47732">
        <ele>109.1</ele>
        <time>2019-10-20T22:52:37Z</time>
      </trkpt>
      <trkpt lat="47.91089" lon="2.47728">
        <ele>109.4</ele>
        <time>2019-10-20T22:52:35Z</time>
      </trkpt>
      <trkpt lat="47.91086" lon="2.47729">
        <ele>109.6</ele>
        <time>2019-10-20T22:52:35Z</time>
      </trkpt>
      <trkpt lat="47.91082" lon="2.47728">
        <ele>109.7</ele>
        <time>2019-10-20T22:52:33Z</time>
      </trkpt>
      <trkpt lat="47.91079" lon="2.47723">
        <ele>109.8</ele>
        <time>2019-10-20T22:52:32Z</time>
      </trkpt>
      <trkpt lat="47.91067" lon="2.47706">
        <ele>108.9</ele>
        <time>2019-10-20T22:52:28Z</time>
      </trkpt>
      <trkpt lat="47.91065" lon="2.47701">
        <ele>108.8</ele>
        <time>2019-10-20T22:52:27Z</time>
      </trkpt>
      <trkpt lat="47.91065" lon="2.47695">
        <ele>108.7</ele>
        <time>2019-10-20T22:52:26Z</time>
      </trkpt>
      <trkpt lat="47.91065" lon="2.4769">
        <ele>108.4</ele>
        <time>2019-10-20T22:52:25Z</time>
      </trkpt>
      <trkpt lat="47.91063" lon="2.47685">
        <ele>108.3</ele>
        <time>2019-10-20T22:52:24Z</time>
      </trkpt>
      <trkpt lat="47.91056" lon="2.47674">
        <ele>108.2</ele>
        <time>2019-10-20T22:52:21Z</time>
      </trkpt>
      <trkpt lat="47.91045" lon="2.47659">
        <ele>108</ele>
        <time>2019-10-20T22:52:17Z</time>
      </trkpt>
      <trkpt lat="47.91023" lon="2.4763">
        <ele>108.5</ele>
        <time>2019-10-20T22:52:09Z</time>
      </trkpt>
      <trkpt lat="47.90998" lon="2.47601">
        <ele>108.4</ele>
        <time>2019-10-20T22:52:01Z</time>
      </trkpt>
      <trkpt lat="47.90989" lon="2.47587">
        <ele>108</ele>
        <time>2019-10-20T22:51:57Z</time>
      </trkpt>
      <trkpt lat="47.90981" lon="2.47571">
        <ele>108.4</ele>
        <time>2019-10-20T22:51:54Z</time>
      </trkpt>
      <trkpt lat="47.90971" lon="2.47546">
        <ele>108.7</ele>
        <time>2019-10-20T22:51:49Z</time>
      </trkpt>
      <trkpt lat="47.90962" lon="2.47521">
        <ele>108.2</ele>
        <time>2019-10-20T22:51:43Z</time>
      </trkpt>
      <trkpt lat="47.90934" lon="2.47451">
        <ele>108.7</ele>
        <time>2019-10-20T22:51:29Z</time>
      </trkpt>
      <trkpt lat="47.90913" lon="2.47396">
        <ele>108.5</ele>
        <time>2019-10-20T22:51:17Z</time>
      </trkpt>
      <trkpt lat="47.90904" lon="2.47366">
        <ele>108.1</ele>
        <time>2019-10-20T22:51:12Z</time>
      </trkpt>
      <trkpt lat="47.90897" lon="2.47335">
        <ele>108.4</ele>
        <time>2019-10-20T22:51:06Z</time>
      </trkpt>
      <trkpt lat="47.90893" lon="2.47312">
        <ele>108.7</ele>
        <time>2019-10-20T22:51:01Z</time>
      </trkpt>
      <trkpt lat="47.90892" lon="2.47288">
        <ele>108.8</ele>
        <time>2019-10-20T22:50:57Z</time>
      </trkpt>
      <trkpt lat="47.9089" lon="2.47242">
        <ele>108.9</ele>
        <time>2019-10-20T22:50:49Z</time>
      </trkpt>
      <trkpt lat="47.90887" lon="2.4715">
        <ele>108.9</ele>
        <time>2019-10-20T22:50:32Z</time>
      </trkpt>
      <trkpt lat="47.90882" lon="2.47122">
        <ele>108.5</ele>
        <time>2019-10-20T22:50:27Z</time>
      </trkpt>
      <trkpt lat="47.90874" lon="2.47096">
        <ele>108.8</ele>
        <time>2019-10-20T22:50:22Z</time>
      </trkpt>
      <trkpt lat="47.90853" lon="2.47052">
        <ele>109</ele>
        <time>2019-10-20T22:50:12Z</time>
      </trkpt>
      <trkpt lat="47.90832" lon="2.47018">
        <ele>109</ele>
        <time>2019-10-20T22:50:04Z</time>
      </trkpt>
      <trkpt lat="47.9081" lon="2.46985">
        <ele>109</ele>
        <time>2019-10-20T22:49:56Z</time>
      </trkpt>
      <trkpt lat="47.9079" lon="2.46957">
        <ele>109.3</ele>
        <time>2019-10-20T22:49:48Z</time>
      </trkpt>
      <trkpt lat="47.90762" lon="2.46925">
        <ele>109.9</ele>
        <time>2019-10-20T22:49:39Z</time>
      </trkpt>
      <trkpt lat="47.90729" lon="2.46888">
        <ele>112.4</ele>
        <time>2019-10-20T22:49:28Z</time>
      </trkpt>
      <trkpt lat="47.90683" lon="2.46844">
        <ele>109.6</ele>
        <time>2019-10-20T22:49:13Z</time>
      </trkpt>
      <trkpt lat="47.90601" lon="2.46758">
        <ele>109.6</ele>
        <time>2019-10-20T22:48:47Z</time>
      </trkpt>
      <trkpt lat="47.90573" lon="2.4673">
        <ele>109.5</ele>
        <time>2019-10-20T22:48:38Z</time>
      </trkpt>
      <trkpt lat="47.90553" lon="2.46708">
        <ele>109.6</ele>
        <time>2019-10-20T22:48:31Z</time>
      </trkpt>
      <trkpt lat="47.90512" lon="2.46653">
        <ele>110.2</ele>
        <time>2019-10-20T22:48:16Z</time>
      </trkpt>
      <trkpt lat="47.90498" lon="2.46629">
        <ele>110</ele>
        <time>2019-10-20T22:48:11Z</time>
      </trkpt>
      <trkpt lat="47.9045" lon="2.46545">
        <ele>110.3</ele>
        <time>2019-10-20T22:47:51Z</time>
      </trkpt>
      <trkpt lat="47.90428" lon="2.46501">
        <ele>111</ele>
        <time>2019-10-20T22:47:41Z</time>
      </trkpt>
      <trkpt lat="47.90413" lon="2.46461">
        <ele>112.4</ele>
        <time>2019-10-20T22:47:33Z</time>
      </trkpt>
      <trkpt lat="47.9041" lon="2.46455">
        <ele>112.5</ele>
        <time>2019-10-20T22:47:31Z</time>
      </trkpt>
      <trkpt lat="47.90405" lon="2.46453">
        <ele>112.4</ele>
        <time>2019-10-20T22:47:30Z</time>
      </trkpt>
      <trkpt lat="47.90401" lon="2.46448">
        <ele>112.4</ele>
        <time>2019-10-20T22:47:29Z</time>
      </trkpt>
      <trkpt lat="47.90394" lon="2.46432">
        <ele>111.8</ele>
        <time>2019-10-20T22:47:25Z</time>
      </trkpt>
      <trkpt lat="47.9039" lon="2.46422">
        <ele>111.3</ele>
        <time>2019-10-20T22:47:23Z</time>
      </trkpt>
      <trkpt lat="47.90389" lon="2.46417">
        <ele>111</ele>
        <time>2019-10-20T22:47:22Z</time>
      </trkpt>
      <trkpt lat="47.9039" lon="2.46403">
        <ele>112</ele>
        <time>2019-10-20T22:47:20Z</time>
      </trkpt>
      <trkpt lat="47.90386" lon="2.46392">
        <ele>112.8</ele>
        <time>2019-10-20T22:47:17Z</time>
      </trkpt>
      <trkpt lat="47.90365" lon="2.46361">
        <ele>113.1</ele>
        <time>2019-10-20T22:47:10Z</time>
      </trkpt>
      <trkpt lat="47.90342" lon="2.4633">
        <ele>113.4</ele>
        <time>2019-10-20T22:47:01Z</time>
      </trkpt>
      <trkpt lat="47.90294" lon="2.46271">
        <ele>113.1</ele>
        <time>2019-10-20T22:46:45Z</time>
      </trkpt>
      <trkpt lat="47.90189" lon="2.46148">
        <ele>113.5</ele>
        <time>2019-10-20T22:46:09Z</time>
      </trkpt>
      <trkpt lat="47.90136" lon="2.46089">
        <ele>113.7</ele>
        <time>2019-10-20T22:45:51Z</time>
      </trkpt>
      <trkpt lat="47.90109" lon="2.46058">
        <ele>113</ele>
        <time>2019-10-20T22:45:42Z</time>
      </trkpt>
      <trkpt lat="47.90085" lon="2.46025">
        <ele>113.3</ele>
        <time>2019-10-20T22:45:33Z</time>
      </trkpt>
      <trkpt lat="47.90047" lon="2.45962">
        <ele>113.5</ele>
        <time>2019-10-20T22:45:18Z</time>
      </trkpt>
      <trkpt lat="47.90009" lon="2.45899">
        <ele>113.5</ele>
        <time>2019-10-20T22:45:03Z</time>
      </trkpt>
      <trkpt lat="47.89936" lon="2.45807">
        <ele>113.4</ele>
        <time>2019-10-20T22:44:38Z</time>
      </trkpt>
      <trkpt lat="47.89897" lon="2.45762">
        <ele>113.2</ele>
        <time>2019-10-20T22:44:24Z</time>
      </trkpt>
      <trkpt lat="47.89857" lon="2.45717">
        <ele>113.2</ele>
        <time>2019-10-20T22:44:11Z</time>
      </trkpt>
      <trkpt lat="47.89845" lon="2.45704">
        <ele>113.3</ele>
        <time>2019-10-20T22:44:07Z</time>
      </trkpt>
      <trkpt lat="47.89833" lon="2.45693">
        <ele>113.1</ele>
        <time>2019-10-20T22:44:03Z</time>
      </trkpt>
      <trkpt lat="47.89808" lon="2.45668">
        <ele>113.1</ele>
        <time>2019-10-20T22:43:55Z</time>
      </trkpt>
      <trkpt lat="47.89767" lon="2.4563">
        <ele>113.6</ele>
        <time>2019-10-20T22:43:42Z</time>
      </trkpt>
      <trkpt lat="47.89737" lon="2.45599">
        <ele>115</ele>
        <time>2019-10-20T22:43:33Z</time>
      </trkpt>
      <trkpt lat="47.89732" lon="2.45606">
        <ele>115</ele>
        <time>2019-10-20T22:43:31Z</time>
      </trkpt>
      <trkpt lat="47.89727" lon="2.45602">
        <ele>115</ele>
        <time>2019-10-20T22:43:29Z</time>
      </trkpt>
      <trkpt lat="47.89714" lon="2.45593">
        <ele>115.1</ele>
        <time>2019-10-20T22:43:25Z</time>
      </trkpt>
      <trkpt lat="47.89708" lon="2.45587">
        <ele>115.1</ele>
        <time>2019-10-20T22:43:24Z</time>
      </trkpt>
      <trkpt lat="47.89703" lon="2.4558">
        <ele>115</ele>
        <time>2019-10-20T22:43:22Z</time>
      </trkpt>
      <trkpt lat="47.89703" lon="2.45574">
        <ele>115</ele>
        <time>2019-10-20T22:43:21Z</time>
      </trkpt>
      <trkpt lat="47.89705" lon="2.45566">
        <ele>115</ele>
        <time>2019-10-20T22:43:19Z</time>
      </trkpt>
      <trkpt lat="47.89711" lon="2.45557">
        <ele>115</ele>
        <time>2019-10-20T22:43:17Z</time>
      </trkpt>
      <trkpt lat="47.89724" lon="2.45543">
        <ele>115</ele>
        <time>2019-10-20T22:43:12Z</time>
      </trkpt>
      <trkpt lat="47.89743" lon="2.45523">
        <ele>115.1</ele>
        <time>2019-10-20T22:43:06Z</time>
      </trkpt>
      <trkpt lat="47.89758" lon="2.45503">
        <ele>116.2</ele>
        <time>2019-10-20T22:43:01Z</time>
      </trkpt>
      <trkpt lat="47.89773" lon="2.45483">
        <ele>117.7</ele>
        <time>2019-10-20T22:42:55Z</time>
      </trkpt>
      <trkpt lat="47.8978" lon="2.45479">
        <ele>118.4</ele>
        <time>2019-10-20T22:42:53Z</time>
      </trkpt>
      <trkpt lat="47.89789" lon="2.45456">
        <ele>118.4</ele>
        <time>2019-10-20T22:42:49Z</time>
      </trkpt>
      <trkpt lat="47.89808" lon="2.45413">
        <ele>119</ele>
        <time>2019-10-20T22:42:39Z</time>
      </trkpt>
      <trkpt lat="47.89818" lon="2.45389">
        <ele>119.4</ele>
        <time>2019-10-20T22:42:34Z</time>
      </trkpt>
      <trkpt lat="47.89843" lon="2.45316">
        <ele>121.4</ele>
        <time>2019-10-20T22:42:20Z</time>
      </trkpt>
      <trkpt lat="47.89863" lon="2.45265">
        <ele>122.1</ele>
        <time>2019-10-20T22:42:09Z</time>
      </trkpt>
      <trkpt lat="47.8994" lon="2.45074">
        <ele>122.3</ele>
        <time>2019-10-20T22:41:29Z</time>
      </trkpt>
      <trkpt lat="47.90036" lon="2.44834">
        <ele>121.9</ele>
        <time>2019-10-20T22:40:39Z</time>
      </trkpt>
      <trkpt lat="47.90086" lon="2.44714">
        <ele>121</ele>
        <time>2019-10-20T22:40:14Z</time>
      </trkpt>
      <trkpt lat="47.9011" lon="2.44655">
        <ele>121.6</ele>
        <time>2019-10-20T22:40:01Z</time>
      </trkpt>
      <trkpt lat="47.90124" lon="2.44625">
        <ele>120.8</ele>
        <time>2019-10-20T22:39:55Z</time>
      </trkpt>
      <trkpt lat="47.90139" lon="2.44597">
        <ele>121</ele>
        <time>2019-10-20T22:39:49Z</time>
      </trkpt>
      <trkpt lat="47.9019" lon="2.4457">
        <ele>120.1</ele>
        <time>2019-10-20T22:39:34Z</time>
      </trkpt>
      <trkpt lat="47.90299" lon="2.4455">
        <ele>121</ele>
        <time>2019-10-20T22:39:05Z</time>
      </trkpt>
      <trkpt lat="47.90336" lon="2.44557">
        <ele>121.9</ele>
        <time>2019-10-20T22:38:55Z</time>
      </trkpt>
      <trkpt lat="47.90372" lon="2.4457">
        <ele>121.3</ele>
        <time>2019-10-20T22:38:45Z</time>
      </trkpt>
      <trkpt lat="47.90451" lon="2.44585">
        <ele>121.2</ele>
        <time>2019-10-20T22:38:24Z</time>
      </trkpt>
      <trkpt lat="47.90587" lon="2.44558">
        <ele>124</ele>
        <time>2019-10-20T22:37:47Z</time>
      </trkpt>
      <trkpt lat="47.90659" lon="2.44539">
        <ele>123.4</ele>
        <time>2019-10-20T22:37:27Z</time>
      </trkpt>
      <trkpt lat="47.90753" lon="2.44513">
        <ele>123.5</ele>
        <time>2019-10-20T22:37:02Z</time>
      </trkpt>
      <trkpt lat="47.9085" lon="2.44486">
        <ele>123.5</ele>
        <time>2019-10-20T22:36:35Z</time>
      </trkpt>
      <trkpt lat="47.90945" lon="2.44459">
        <ele>124.1</ele>
        <time>2019-10-20T22:36:10Z</time>
      </trkpt>
      <trkpt lat="47.91042" lon="2.44444">
        <ele>125</ele>
        <time>2019-10-20T22:35:44Z</time>
      </trkpt>
      <trkpt lat="47.91057" lon="2.44441">
        <ele>125.8</ele>
        <time>2019-10-20T22:35:40Z</time>
      </trkpt>
      <trkpt lat="47.91071" lon="2.44434">
        <ele>125.7</ele>
        <time>2019-10-20T22:35:36Z</time>
      </trkpt>
      <trkpt lat="47.91098" lon="2.44418">
        <ele>125.2</ele>
        <time>2019-10-20T22:35:28Z</time>
      </trkpt>
      <trkpt lat="47.91148" lon="2.44364">
        <ele>125</ele>
        <time>2019-10-20T22:35:11Z</time>
      </trkpt>
      <trkpt lat="47.91195" lon="2.44302">
        <ele>124.9</ele>
        <time>2019-10-20T22:34:55Z</time>
      </trkpt>
      <trkpt lat="47.9122" lon="2.44271">
        <ele>125.2</ele>
        <time>2019-10-20T22:34:46Z</time>
      </trkpt>
      <trkpt lat="47.91239" lon="2.44237">
        <ele>124.1</ele>
        <time>2019-10-20T22:34:38Z</time>
      </trkpt>
      <trkpt lat="47.91251" lon="2.44201">
        <ele>124</ele>
        <time>2019-10-20T22:34:31Z</time>
      </trkpt>
      <trkpt lat="47.91258" lon="2.44164">
        <ele>123.3</ele>
        <time>2019-10-20T22:34:24Z</time>
      </trkpt>
      <trkpt lat="47.91257" lon="2.44084">
        <ele>123</ele>
        <time>2019-10-20T22:34:10Z</time>
      </trkpt>
      <trkpt lat="47.91255" lon="2.44013">
        <ele>123</ele>
        <time>2019-10-20T22:33:57Z</time>
      </trkpt>
      <trkpt lat="47.91259" lon="2.43975">
        <ele>123</ele>
        <time>2019-10-20T22:33:50Z</time>
      </trkpt>
      <trkpt lat="47.91265" lon="2.43936">
        <ele>123.3</ele>
        <time>2019-10-20T22:33:43Z</time>
      </trkpt>
      <trkpt lat="47.91284" lon="2.43896">
        <ele>123.2</ele>
        <time>2019-10-20T22:33:34Z</time>
      </trkpt>
      <trkpt lat="47.91305" lon="2.43864">
        <ele>123.9</ele>
        <time>2019-10-20T22:33:26Z</time>
      </trkpt>
      <trkpt lat="47.91519" lon="2.4361">
        <ele>123</ele>
        <time>2019-10-20T22:32:13Z</time>
      </trkpt>
      <trkpt lat="47.91715" lon="2.43368">
        <ele>125.7</ele>
        <time>2019-10-20T22:31:05Z</time>
      </trkpt>
      <trkpt lat="47.91808" lon="2.43259">
        <ele>125.1</ele>
        <time>2019-10-20T22:30:33Z</time>
      </trkpt>
      <trkpt lat="47.919" lon="2.43152">
        <ele>125.7</ele>
        <time>2019-10-20T22:30:02Z</time>
      </trkpt>
      <trkpt lat="47.91972" lon="2.43061">
        <ele>126</ele>
        <time>2019-10-20T22:29:37Z</time>
      </trkpt>
      <trkpt lat="47.92006" lon="2.43011">
        <ele>125.3</ele>
        <time>2019-10-20T22:29:24Z</time>
      </trkpt>
      <trkpt lat="47.92032" lon="2.42958">
        <ele>125.1</ele>
        <time>2019-10-20T22:29:12Z</time>
      </trkpt>
      <trkpt lat="47.9206" lon="2.42849">
        <ele>124.4</ele>
        <time>2019-10-20T22:28:52Z</time>
      </trkpt>
      <trkpt lat="47.92081" lon="2.42735">
        <ele>125.9</ele>
        <time>2019-10-20T22:28:30Z</time>
      </trkpt>
      <trkpt lat="47.92108" lon="2.42573">
        <ele>125.1</ele>
        <time>2019-10-20T22:28:01Z</time>
      </trkpt>
      <trkpt lat="47.92109" lon="2.42535">
        <ele>125</ele>
        <time>2019-10-20T22:27:54Z</time>
      </trkpt>
      <trkpt lat="47.92078" lon="2.42293">
        <ele>124</ele>
        <time>2019-10-20T22:27:10Z</time>
      </trkpt>
      <trkpt lat="47.92083" lon="2.42277">
        <ele>124</ele>
        <time>2019-10-20T22:27:06Z</time>
      </trkpt>
      <trkpt lat="47.92077" lon="2.42244">
        <ele>124.7</ele>
        <time>2019-10-20T22:27:00Z</time>
      </trkpt>
      <trkpt lat="47.92031" lon="2.41924">
        <ele>126.1</ele>
        <time>2019-10-20T22:26:02Z</time>
      </trkpt>
      <trkpt lat="47.92028" lon="2.41915">
        <ele>126.9</ele>
        <time>2019-10-20T22:26:00Z</time>
      </trkpt>
      <trkpt lat="47.92021" lon="2.41913">
        <ele>126.8</ele>
        <time>2019-10-20T22:25:58Z</time>
      </trkpt>
      <trkpt lat="47.92007" lon="2.41919">
        <ele>126.9</ele>
        <time>2019-10-20T22:25:54Z</time>
      </trkpt>
      <trkpt lat="47.92003" lon="2.41919">
        <ele>126.9</ele>
        <time>2019-10-20T22:25:53Z</time>
      </trkpt>
      <trkpt lat="47.92002" lon="2.41918">
        <ele>126.9</ele>
        <time>2019-10-20T22:25:53Z</time>
      </trkpt>
      <trkpt lat="47.91999" lon="2.41917">
        <ele>127</ele>
        <time>2019-10-20T22:25:52Z</time>
      </trkpt>
      <trkpt lat="47.91998" lon="2.41912">
        <ele>126.7</ele>
        <time>2019-10-20T22:25:51Z</time>
      </trkpt>
      <trkpt lat="47.91974" lon="2.4163">
        <ele>125.6</ele>
        <time>2019-10-20T22:25:00Z</time>
      </trkpt>
      <trkpt lat="47.91972" lon="2.41619">
        <ele>125.3</ele>
        <time>2019-10-20T22:24:58Z</time>
      </trkpt>
      <trkpt lat="47.91962" lon="2.41586">
        <ele>124.8</ele>
        <time>2019-10-20T22:24:52Z</time>
      </trkpt>
      <trkpt lat="47.91887" lon="2.41381">
        <ele>124.5</ele>
        <time>2019-10-20T22:24:10Z</time>
      </trkpt>
      <trkpt lat="47.91853" lon="2.41294">
        <ele>124.2</ele>
        <time>2019-10-20T22:23:52Z</time>
      </trkpt>
      <trkpt lat="47.91796" lon="2.41147">
        <ele>123.9</ele>
        <time>2019-10-20T22:23:21Z</time>
      </trkpt>
      <trkpt lat="47.91791" lon="2.41133">
        <ele>123.9</ele>
        <time>2019-10-20T22:23:19Z</time>
      </trkpt>
      <trkpt lat="47.91791" lon="2.41123">
        <ele>123.7</ele>
        <time>2019-10-20T22:23:17Z</time>
      </trkpt>
      <trkpt lat="47.91791" lon="2.41111">
        <ele>123.5</ele>
        <time>2019-10-20T22:23:15Z</time>
      </trkpt>
      <trkpt lat="47.91787" lon="2.41089">
        <ele>123.7</ele>
        <time>2019-10-20T22:23:11Z</time>
      </trkpt>
      <trkpt lat="47.91786" lon="2.41057">
        <ele>123.7</ele>
        <time>2019-10-20T22:23:05Z</time>
      </trkpt>
      <trkpt lat="47.91787" lon="2.41024">
        <ele>123.7</ele>
        <time>2019-10-20T22:22:59Z</time>
      </trkpt>
      <trkpt lat="47.918" lon="2.40959">
        <ele>123.1</ele>
        <time>2019-10-20T22:22:47Z</time>
      </trkpt>
      <trkpt lat="47.91818" lon="2.40916">
        <ele>122.4</ele>
        <time>2019-10-20T22:22:38Z</time>
      </trkpt>
      <trkpt lat="47.91835" lon="2.40893">
        <ele>122.2</ele>
        <time>2019-10-20T22:22:31Z</time>
      </trkpt>
      <trkpt lat="47.91896" lon="2.40813">
        <ele>122.5</ele>
        <time>2019-10-20T22:22:10Z</time>
      </trkpt>
      <trkpt lat="47.91928" lon="2.40775">
        <ele>122.9</ele>
        <time>2019-10-20T22:21:59Z</time>
      </trkpt>
      <trkpt lat="47.91942" lon="2.40762">
        <ele>123.4</ele>
        <time>2019-10-20T22:21:54Z</time>
      </trkpt>
      <trkpt lat="47.91954" lon="2.40724">
        <ele>123.4</ele>
        <time>2019-10-20T22:21:47Z</time>
      </trkpt>
      <trkpt lat="47.91952" lon="2.40713">
        <ele>123.3</ele>
        <time>2019-10-20T22:21:45Z</time>
      </trkpt>
      <trkpt lat="47.91935" lon="2.40674">
        <ele>123.4</ele>
        <time>2019-10-20T22:21:37Z</time>
      </trkpt>
      <trkpt lat="47.91932" lon="2.40636">
        <ele>123.6</ele>
        <time>2019-10-20T22:21:30Z</time>
      </trkpt>
      <trkpt lat="47.9193" lon="2.4056">
        <ele>123</ele>
        <time>2019-10-20T22:21:16Z</time>
      </trkpt>
      <trkpt lat="47.91899" lon="2.40379">
        <ele>122.8</ele>
        <time>2019-10-20T22:20:43Z</time>
      </trkpt>
      <trkpt lat="47.91876" lon="2.40327">
        <ele>123</ele>
        <time>2019-10-20T22:20:32Z</time>
      </trkpt>
      <trkpt lat="47.9186" lon="2.40254">
        <ele>123.8</ele>
        <time>2019-10-20T22:20:18Z</time>
      </trkpt>
      <trkpt lat="47.91855" lon="2.40192">
        <ele>124.3</ele>
        <time>2019-10-20T22:20:07Z</time>
      </trkpt>
      <trkpt lat="47.91852" lon="2.40074">
        <ele>125</ele>
        <time>2019-10-20T22:19:45Z</time>
      </trkpt>
      <trkpt lat="47.91848" lon="2.39991">
        <ele>126</ele>
        <time>2019-10-20T22:19:31Z</time>
      </trkpt>
      <trkpt lat="47.91847" lon="2.39929">
        <ele>126.6</ele>
        <time>2019-10-20T22:19:19Z</time>
      </trkpt>
      <trkpt lat="47.91844" lon="2.3986">
        <ele>127</ele>
        <time>2019-10-20T22:19:07Z</time>
      </trkpt>
      <trkpt lat="47.91844" lon="2.3985">
        <ele>127</ele>
        <time>2019-10-20T22:19:05Z</time>
      </trkpt>
      <trkpt lat="47.91852" lon="2.39773">
        <ele>127.7</ele>
        <time>2019-10-20T22:18:51Z</time>
      </trkpt>
      <trkpt lat="47.91862" lon="2.39718">
        <ele>128</ele>
        <time>2019-10-20T22:18:41Z</time>
      </trkpt>
      <trkpt lat="47.91862" lon="2.39692">
        <ele>128</ele>
        <time>2019-10-20T22:18:36Z</time>
      </trkpt>
      <trkpt lat="47.91846" lon="2.39678">
        <ele>128</ele>
        <time>2019-10-20T22:18:31Z</time>
      </trkpt>
      <trkpt lat="47.91845" lon="2.39667">
        <ele>128</ele>
        <time>2019-10-20T22:18:30Z</time>
      </trkpt>
      <trkpt lat="47.91827" lon="2.39454">
        <ele>129.5</ele>
        <time>2019-10-20T22:17:51Z</time>
      </trkpt>
      <trkpt lat="47.91815" lon="2.39368">
        <ele>129.8</ele>
        <time>2019-10-20T22:17:35Z</time>
      </trkpt>
      <trkpt lat="47.91795" lon="2.39267">
        <ele>129.5</ele>
        <time>2019-10-20T22:17:16Z</time>
      </trkpt>
      <trkpt lat="47.91752" lon="2.39065">
        <ele>127.7</ele>
        <time>2019-10-20T22:16:39Z</time>
      </trkpt>
      <trkpt lat="47.91743" lon="2.38898">
        <ele>128</ele>
        <time>2019-10-20T22:16:09Z</time>
      </trkpt>
      <trkpt lat="47.91744" lon="2.38849">
        <ele>129</ele>
        <time>2019-10-20T22:16:00Z</time>
      </trkpt>
      <trkpt lat="47.91753" lon="2.38657">
        <ele>128</ele>
        <time>2019-10-20T22:15:25Z</time>
      </trkpt>
      <trkpt lat="47.91773" lon="2.38499">
        <ele>127.8</ele>
        <time>2019-10-20T22:14:56Z</time>
      </trkpt>
      <trkpt lat="47.91787" lon="2.38461">
        <ele>128.3</ele>
        <time>2019-10-20T22:14:49Z</time>
      </trkpt>
      <trkpt lat="47.91857" lon="2.38302">
        <ele>128.7</ele>
        <time>2019-10-20T22:14:15Z</time>
      </trkpt>
      <trkpt lat="47.91925" lon="2.38146">
        <ele>129</ele>
        <time>2019-10-20T22:13:41Z</time>
      </trkpt>
      <trkpt lat="47.92022" lon="2.37926">
        <ele>132</ele>
        <time>2019-10-20T22:12:54Z</time>
      </trkpt>
      <trkpt lat="47.92086" lon="2.37445">
        <ele>135.1</ele>
        <time>2019-10-20T22:11:26Z</time>
      </trkpt>
      <trkpt lat="47.92095" lon="2.37419">
        <ele>136</ele>
        <time>2019-10-20T22:11:21Z</time>
      </trkpt>
      <trkpt lat="47.92146" lon="2.37306">
        <ele>136</ele>
        <time>2019-10-20T22:10:57Z</time>
      </trkpt>
      <trkpt lat="47.92205" lon="2.37174">
        <ele>136.8</ele>
        <time>2019-10-20T22:10:28Z</time>
      </trkpt>
      <trkpt lat="47.92363" lon="2.36859">
        <ele>137</ele>
        <time>2019-10-20T22:09:18Z</time>
      </trkpt>
      <trkpt lat="47.92399" lon="2.36734">
        <ele>137</ele>
        <time>2019-10-20T22:08:54Z</time>
      </trkpt>
      <trkpt lat="47.92412" lon="2.36677">
        <ele>137</ele>
        <time>2019-10-20T22:08:43Z</time>
      </trkpt>
      <trkpt lat="47.92522" lon="2.3619">
        <ele>137</ele>
        <time>2019-10-20T22:07:11Z</time>
      </trkpt>
      <trkpt lat="47.92563" lon="2.36011">
        <ele>137</ele>
        <time>2019-10-20T22:06:37Z</time>
      </trkpt>
      <trkpt lat="47.93114" lon="2.35505">
        <ele>140</ele>
        <time>2019-10-20T22:03:44Z</time>
      </trkpt>
      <trkpt lat="47.93124" lon="2.35493">
        <ele>140</ele>
        <time>2019-10-20T22:03:41Z</time>
      </trkpt>
      <trkpt lat="47.93146" lon="2.35464">
        <ele>139.7</ele>
        <time>2019-10-20T22:03:33Z</time>
      </trkpt>
      <trkpt lat="47.93577" lon="2.34832">
        <ele>134.7</ele>
        <time>2019-10-20T22:00:51Z</time>
      </trkpt>
      <trkpt lat="47.93581" lon="2.34827">
        <ele>134.7</ele>
        <time>2019-10-20T22:00:50Z</time>
      </trkpt>
      <trkpt lat="47.93585" lon="2.34821">
        <ele>134.5</ele>
        <time>2019-10-20T22:00:48Z</time>
      </trkpt>
      <trkpt lat="47.93608" lon="2.34789">
        <ele>133.5</ele>
        <time>2019-10-20T22:00:40Z</time>
      </trkpt>
      <trkpt lat="47.93671" lon="2.34697">
        <ele>132</ele>
        <time>2019-10-20T22:00:16Z</time>
      </trkpt>
      <trkpt lat="47.93733" lon="2.34605">
        <ele>130.9</ele>
        <time>2019-10-20T21:59:53Z</time>
      </trkpt>
      <trkpt lat="47.93764" lon="2.34561">
        <ele>130</ele>
        <time>2019-10-20T21:59:42Z</time>
      </trkpt>
      <trkpt lat="47.93817" lon="2.34482">
        <ele>130.6</ele>
        <time>2019-10-20T21:59:22Z</time>
      </trkpt>
      <trkpt lat="47.93839" lon="2.3445">
        <ele>131</ele>
        <time>2019-10-20T21:59:13Z</time>
      </trkpt>
      <trkpt lat="47.93851" lon="2.34432">
        <ele>131.3</ele>
        <time>2019-10-20T21:59:09Z</time>
      </trkpt>
      <trkpt lat="47.93908" lon="2.34349">
        <ele>133.3</ele>
        <time>2019-10-20T21:58:48Z</time>
      </trkpt>
      <trkpt lat="47.93937" lon="2.34306">
        <ele>134.7</ele>
        <time>2019-10-20T21:58:37Z</time>
      </trkpt>
      <trkpt lat="47.93983" lon="2.34237">
        <ele>136</ele>
        <time>2019-10-20T21:58:19Z</time>
      </trkpt>
      <trkpt lat="47.93993" lon="2.34214">
        <ele>136</ele>
        <time>2019-10-20T21:58:14Z</time>
      </trkpt>
      <trkpt lat="47.94018" lon="2.34154">
        <ele>136</ele>
        <time>2019-10-20T21:58:02Z</time>
      </trkpt>
      <trkpt lat="47.94074" lon="2.34019">
        <ele>136</ele>
        <time>2019-10-20T21:57:33Z</time>
      </trkpt>
      <trkpt lat="47.94085" lon="2.33993">
        <ele>136</ele>
        <time>2019-10-20T21:57:28Z</time>
      </trkpt>
      <trkpt lat="47.94122" lon="2.33907">
        <ele>136</ele>
        <time>2019-10-20T21:57:10Z</time>
      </trkpt>
      <trkpt lat="47.94175" lon="2.3378">
        <ele>136</ele>
        <time>2019-10-20T21:56:43Z</time>
      </trkpt>
      <trkpt lat="47.94241" lon="2.33625">
        <ele>135.3</ele>
        <time>2019-10-20T21:56:10Z</time>
      </trkpt>
      <trkpt lat="47.94273" lon="2.33554">
        <ele>135.8</ele>
        <time>2019-10-20T21:55:55Z</time>
      </trkpt>
      <trkpt lat="47.943" lon="2.33481">
        <ele>135</ele>
        <time>2019-10-20T21:55:40Z</time>
      </trkpt>
      <trkpt lat="47.94344" lon="2.33377">
        <ele>134</ele>
        <time>2019-10-20T21:55:18Z</time>
      </trkpt>
      <trkpt lat="47.94357" lon="2.33339">
        <ele>134</ele>
        <time>2019-10-20T21:55:10Z</time>
      </trkpt>
      <trkpt lat="47.94361" lon="2.33322">
        <ele>134</ele>
        <time>2019-10-20T21:55:07Z</time>
      </trkpt>
      <trkpt lat="47.94371" lon="2.33267">
        <ele>134</ele>
        <time>2019-10-20T21:54:56Z</time>
      </trkpt>
      <trkpt lat="47.94376" lon="2.33228">
        <ele>134</ele>
        <time>2019-10-20T21:54:49Z</time>
      </trkpt>
      <trkpt lat="47.94386" lon="2.33154">
        <ele>133</ele>
        <time>2019-10-20T21:54:36Z</time>
      </trkpt>
      <trkpt lat="47.944" lon="2.33071">
        <ele>133</ele>
        <time>2019-10-20T21:54:20Z</time>
      </trkpt>
      <trkpt lat="47.94435" lon="2.32818">
        <ele>132</ele>
        <time>2019-10-20T21:53:34Z</time>
      </trkpt>
      <trkpt lat="47.94449" lon="2.32736">
        <ele>131.2</ele>
        <time>2019-10-20T21:53:19Z</time>
      </trkpt>
      <trkpt lat="47.94473" lon="2.32672">
        <ele>132</ele>
        <time>2019-10-20T21:53:06Z</time>
      </trkpt>
      <trkpt lat="47.94507" lon="2.32585">
        <ele>132</ele>
        <time>2019-10-20T21:52:48Z</time>
      </trkpt>
      <trkpt lat="47.94636" lon="2.32254">
        <ele>133.1</ele>
        <time>2019-10-20T21:51:40Z</time>
      </trkpt>
      <trkpt lat="47.94646" lon="2.32219">
        <ele>133</ele>
        <time>2019-10-20T21:51:33Z</time>
      </trkpt>
      <trkpt lat="47.94654" lon="2.32167">
        <ele>133</ele>
        <time>2019-10-20T21:51:23Z</time>
      </trkpt>
      <trkpt lat="47.9466" lon="2.32128">
        <ele>132.9</ele>
        <time>2019-10-20T21:51:16Z</time>
      </trkpt>
      <trkpt lat="47.94679" lon="2.32075">
        <ele>133</ele>
        <time>2019-10-20T21:51:05Z</time>
      </trkpt>
      <trkpt lat="47.94736" lon="2.31929">
        <ele>132</ele>
        <time>2019-10-20T21:50:35Z</time>
      </trkpt>
      <trkpt lat="47.94774" lon="2.31828">
        <ele>132</ele>
        <time>2019-10-20T21:50:14Z</time>
      </trkpt>
      <trkpt lat="47.94805" lon="2.31746">
        <ele>131.9</ele>
        <time>2019-10-20T21:49:57Z</time>
      </trkpt>
      <trkpt lat="47.94852" lon="2.31621">
        <ele>131.6</ele>
        <time>2019-10-20T21:49:32Z</time>
      </trkpt>
      <trkpt lat="47.94882" lon="2.31533">
        <ele>130.2</ele>
        <time>2019-10-20T21:49:14Z</time>
      </trkpt>
      <trkpt lat="47.94899" lon="2.31503">
        <ele>130.9</ele>
        <time>2019-10-20T21:49:07Z</time>
      </trkpt>
      <trkpt lat="47.94928" lon="2.3145">
        <ele>132</ele>
        <time>2019-10-20T21:48:55Z</time>
      </trkpt>
      <trkpt lat="47.9495" lon="2.31403">
        <ele>132</ele>
        <time>2019-10-20T21:48:44Z</time>
      </trkpt>
      <trkpt lat="47.94968" lon="2.31353">
        <ele>132</ele>
        <time>2019-10-20T21:48:34Z</time>
      </trkpt>
      <trkpt lat="47.9499" lon="2.31284">
        <ele>131.7</ele>
        <time>2019-10-20T21:48:21Z</time>
      </trkpt>
      <trkpt lat="47.95112" lon="2.30887">
        <ele>129</ele>
        <time>2019-10-20T21:47:03Z</time>
      </trkpt>
      <trkpt lat="47.95137" lon="2.30815">
        <ele>129</ele>
        <time>2019-10-20T21:46:48Z</time>
      </trkpt>
      <trkpt lat="47.95187" lon="2.30693">
        <ele>128.7</ele>
        <time>2019-10-20T21:46:23Z</time>
      </trkpt>
      <trkpt lat="47.95216" lon="2.30619">
        <ele>128.7</ele>
        <time>2019-10-20T21:46:07Z</time>
      </trkpt>
      <trkpt lat="47.95253" lon="2.3061">
        <ele>129</ele>
        <time>2019-10-20T21:45:57Z</time>
      </trkpt>
      <trkpt lat="47.95326" lon="2.30593">
        <ele>129.7</ele>
        <time>2019-10-20T21:45:37Z</time>
      </trkpt>
      <trkpt lat="47.95384" lon="2.30578">
        <ele>130</ele>
        <time>2019-10-20T21:45:22Z</time>
      </trkpt>
      <trkpt lat="47.95416" lon="2.30573">
        <ele>130</ele>
        <time>2019-10-20T21:45:13Z</time>
      </trkpt>
      <trkpt lat="47.95557" lon="2.30524">
        <ele>129</ele>
        <time>2019-10-20T21:44:34Z</time>
      </trkpt>
      <trkpt lat="47.95564" lon="2.30524">
        <ele>129</ele>
        <time>2019-10-20T21:44:33Z</time>
      </trkpt>
      <trkpt lat="47.95582" lon="2.3052">
        <ele>129</ele>
        <time>2019-10-20T21:44:28Z</time>
      </trkpt>
      <trkpt lat="47.95683" lon="2.30499">
        <ele>127</ele>
        <time>2019-10-20T21:44:00Z</time>
      </trkpt>
      <trkpt lat="47.9569" lon="2.30497">
        <ele>127</ele>
        <time>2019-10-20T21:43:59Z</time>
      </trkpt>
      <trkpt lat="47.9576" lon="2.30482">
        <ele>125.4</ele>
        <time>2019-10-20T21:43:40Z</time>
      </trkpt>
      <trkpt lat="47.95756" lon="2.30456">
        <ele>125.2</ele>
        <time>2019-10-20T21:43:35Z</time>
      </trkpt>
      <trkpt lat="47.9575" lon="2.30431">
        <ele>124.5</ele>
        <time>2019-10-20T21:43:30Z</time>
      </trkpt>
      <trkpt lat="47.95738" lon="2.30373">
        <ele>124</ele>
        <time>2019-10-20T21:43:19Z</time>
      </trkpt>
      <trkpt lat="47.95713" lon="2.30264">
        <ele>123.8</ele>
        <time>2019-10-20T21:42:58Z</time>
      </trkpt>
      <trkpt lat="47.95676" lon="2.30078">
        <ele>124.4</ele>
        <time>2019-10-20T21:42:24Z</time>
      </trkpt>
      <trkpt lat="47.95659" lon="2.3">
        <ele>123.8</ele>
        <time>2019-10-20T21:42:09Z</time>
      </trkpt>
      <trkpt lat="47.95632" lon="2.29873">
        <ele>123.8</ele>
        <time>2019-10-20T21:41:45Z</time>
      </trkpt>
      <trkpt lat="47.95602" lon="2.29734">
        <ele>124.1</ele>
        <time>2019-10-20T21:41:19Z</time>
      </trkpt>
      <trkpt lat="47.95598" lon="2.29712">
        <ele>123.9</ele>
        <time>2019-10-20T21:41:15Z</time>
      </trkpt>
      <trkpt lat="47.9558" lon="2.29632">
        <ele>124</ele>
        <time>2019-10-20T21:41:00Z</time>
      </trkpt>
      <trkpt lat="47.95576" lon="2.29611">
        <ele>123.5</ele>
        <time>2019-10-20T21:40:56Z</time>
      </trkpt>
      <trkpt lat="47.95572" lon="2.29591">
        <ele>123.8</ele>
        <time>2019-10-20T21:40:52Z</time>
      </trkpt>
      <trkpt lat="47.95565" lon="2.2955">
        <ele>124.4</ele>
        <time>2019-10-20T21:40:45Z</time>
      </trkpt>
      <trkpt lat="47.95553" lon="2.29489">
        <ele>123.6</ele>
        <time>2019-10-20T21:40:34Z</time>
      </trkpt>
      <trkpt lat="47.95537" lon="2.29417">
        <ele>124</ele>
        <time>2019-10-20T21:40:20Z</time>
      </trkpt>
      <trkpt lat="47.95534" lon="2.29399">
        <ele>124</ele>
        <time>2019-10-20T21:40:17Z</time>
      </trkpt>
      <trkpt lat="47.95533" lon="2.29393">
        <ele>124</ele>
        <time>2019-10-20T21:40:16Z</time>
      </trkpt>
      <trkpt lat="47.95528" lon="2.29368">
        <ele>123.2</ele>
        <time>2019-10-20T21:40:11Z</time>
      </trkpt>
      <trkpt lat="47.95506" lon="2.29262">
        <ele>121.8</ele>
        <time>2019-10-20T21:39:51Z</time>
      </trkpt>
      <trkpt lat="47.95495" lon="2.29233">
        <ele>121.1</ele>
        <time>2019-10-20T21:39:45Z</time>
      </trkpt>
      <trkpt lat="47.95483" lon="2.29205">
        <ele>121.2</ele>
        <time>2019-10-20T21:39:39Z</time>
      </trkpt>
      <trkpt lat="47.95474" lon="2.29184">
        <ele>121.2</ele>
        <time>2019-10-20T21:39:35Z</time>
      </trkpt>
      <trkpt lat="47.95463" lon="2.29168">
        <ele>120.7</ele>
        <time>2019-10-20T21:39:31Z</time>
      </trkpt>
      <trkpt lat="47.95445" lon="2.29144">
        <ele>121.2</ele>
        <time>2019-10-20T21:39:24Z</time>
      </trkpt>
      <trkpt lat="47.9542" lon="2.29118">
        <ele>121</ele>
        <time>2019-10-20T21:39:16Z</time>
      </trkpt>
      <trkpt lat="47.95379" lon="2.29083">
        <ele>121.4</ele>
        <time>2019-10-20T21:39:03Z</time>
      </trkpt>
      <trkpt lat="47.95337" lon="2.29032">
        <ele>121.1</ele>
        <time>2019-10-20T21:38:49Z</time>
      </trkpt>
      <trkpt lat="47.9529" lon="2.28993">
        <ele>121</ele>
        <time>2019-10-20T21:38:34Z</time>
      </trkpt>
      <trkpt lat="47.95233" lon="2.28929">
        <ele>121</ele>
        <time>2019-10-20T21:38:15Z</time>
      </trkpt>
      <trkpt lat="47.95119" lon="2.28819">
        <ele>121.3</ele>
        <time>2019-10-20T21:37:39Z</time>
      </trkpt>
      <trkpt lat="47.9505" lon="2.28748">
        <ele>121.1</ele>
        <time>2019-10-20T21:37:17Z</time>
      </trkpt>
      <trkpt lat="47.95028" lon="2.28724">
        <ele>121.1</ele>
        <time>2019-10-20T21:37:09Z</time>
      </trkpt>
      <trkpt lat="47.9502" lon="2.28712">
        <ele>121.5</ele>
        <time>2019-10-20T21:37:06Z</time>
      </trkpt>
      <trkpt lat="47.95012" lon="2.28704">
        <ele>121.6</ele>
        <time>2019-10-20T21:37:04Z</time>
      </trkpt>
      <trkpt lat="47.95003" lon="2.28697">
        <ele>121.2</ele>
        <time>2019-10-20T21:37:01Z</time>
      </trkpt>
      <trkpt lat="47.94989" lon="2.28685">
        <ele>121.1</ele>
        <time>2019-10-20T21:36:57Z</time>
      </trkpt>
      <trkpt lat="47.94969" lon="2.2867">
        <ele>121.2</ele>
        <time>2019-10-20T21:36:51Z</time>
      </trkpt>
      <trkpt lat="47.94956" lon="2.28658">
        <ele>121.1</ele>
        <time>2019-10-20T21:36:47Z</time>
      </trkpt>
      <trkpt lat="47.9487" lon="2.28583">
        <ele>120.7</ele>
        <time>2019-10-20T21:36:20Z</time>
      </trkpt>
      <trkpt lat="47.94839" lon="2.28555">
        <ele>120.8</ele>
        <time>2019-10-20T21:36:10Z</time>
      </trkpt>
      <trkpt lat="47.94809" lon="2.28522">
        <ele>120.7</ele>
        <time>2019-10-20T21:36:00Z</time>
      </trkpt>
      <trkpt lat="47.94674" lon="2.28428">
        <ele>119.7</ele>
        <time>2019-10-20T21:35:21Z</time>
      </trkpt>
      <trkpt lat="47.94647" lon="2.28418">
        <ele>120.6</ele>
        <time>2019-10-20T21:35:13Z</time>
      </trkpt>
      <trkpt lat="47.94607" lon="2.28418">
        <ele>120</ele>
        <time>2019-10-20T21:35:03Z</time>
      </trkpt>
      <trkpt lat="47.94567" lon="2.28414">
        <ele>120</ele>
        <time>2019-10-20T21:34:52Z</time>
      </trkpt>
      <trkpt lat="47.94545" lon="2.28405">
        <ele>120.2</ele>
        <time>2019-10-20T21:34:46Z</time>
      </trkpt>
      <trkpt lat="47.94494" lon="2.28371">
        <ele>119.9</ele>
        <time>2019-10-20T21:34:31Z</time>
      </trkpt>
      <trkpt lat="47.9447" lon="2.28355">
        <ele>119.9</ele>
        <time>2019-10-20T21:34:24Z</time>
      </trkpt>
      <trkpt lat="47.94422" lon="2.28324">
        <ele>118.4</ele>
        <time>2019-10-20T21:34:10Z</time>
      </trkpt>
      <trkpt lat="47.9438" lon="2.28294">
        <ele>117.7</ele>
        <time>2019-10-20T21:33:57Z</time>
      </trkpt>
      <trkpt lat="47.94362" lon="2.28279">
        <ele>118</ele>
        <time>2019-10-20T21:33:52Z</time>
      </trkpt>
      <trkpt lat="47.94346" lon="2.2826">
        <ele>117.4</ele>
        <time>2019-10-20T21:33:46Z</time>
      </trkpt>
      <trkpt lat="47.94288" lon="2.28165">
        <ele>117.6</ele>
        <time>2019-10-20T21:33:23Z</time>
      </trkpt>
      <trkpt lat="47.94262" lon="2.28124">
        <ele>117.3</ele>
        <time>2019-10-20T21:33:13Z</time>
      </trkpt>
      <trkpt lat="47.94248" lon="2.28103">
        <ele>117</ele>
        <time>2019-10-20T21:33:08Z</time>
      </trkpt>
      <trkpt lat="47.94209" lon="2.28039">
        <ele>116.7</ele>
        <time>2019-10-20T21:32:53Z</time>
      </trkpt>
      <trkpt lat="47.94175" lon="2.27987">
        <ele>117.1</ele>
        <time>2019-10-20T21:32:39Z</time>
      </trkpt>
      <trkpt lat="47.94142" lon="2.27934">
        <ele>116.9</ele>
        <time>2019-10-20T21:32:27Z</time>
      </trkpt>
      <trkpt lat="47.94121" lon="2.27889">
        <ele>116.6</ele>
        <time>2019-10-20T21:32:17Z</time>
      </trkpt>
      <trkpt lat="47.94117" lon="2.27883">
        <ele>116.8</ele>
        <time>2019-10-20T21:32:15Z</time>
      </trkpt>
      <trkpt lat="47.94115" lon="2.27873">
        <ele>116.9</ele>
        <time>2019-10-20T21:32:13Z</time>
      </trkpt>
      <trkpt lat="47.94115" lon="2.27858">
        <ele>116.8</ele>
        <time>2019-10-20T21:32:11Z</time>
      </trkpt>
      <trkpt lat="47.94122" lon="2.27831">
        <ele>116</ele>
        <time>2019-10-20T21:32:05Z</time>
      </trkpt>
      <trkpt lat="47.94128" lon="2.27803">
        <ele>116.1</ele>
        <time>2019-10-20T21:32:00Z</time>
      </trkpt>
      <trkpt lat="47.94131" lon="2.2778">
        <ele>116.7</ele>
        <time>2019-10-20T21:31:56Z</time>
      </trkpt>
      <trkpt lat="47.94128" lon="2.27751">
        <ele>116</ele>
        <time>2019-10-20T21:31:51Z</time>
      </trkpt>
      <trkpt lat="47.94123" lon="2.27729">
        <ele>116.3</ele>
        <time>2019-10-20T21:31:46Z</time>
      </trkpt>
      <trkpt lat="47.94115" lon="2.27708">
        <ele>116.5</ele>
        <time>2019-10-20T21:31:42Z</time>
      </trkpt>
      <trkpt lat="47.94113" lon="2.27704">
        <ele>116.6</ele>
        <time>2019-10-20T21:31:41Z</time>
      </trkpt>
      <trkpt lat="47.94102" lon="2.27678">
        <ele>116.3</ele>
        <time>2019-10-20T21:31:36Z</time>
      </trkpt>
      <trkpt lat="47.94085" lon="2.27637">
        <ele>116.9</ele>
        <time>2019-10-20T21:31:27Z</time>
      </trkpt>
      <trkpt lat="47.94079" lon="2.27622">
        <ele>116.7</ele>
        <time>2019-10-20T21:31:24Z</time>
      </trkpt>
      <trkpt lat="47.94051" lon="2.27552">
        <ele>116.6</ele>
        <time>2019-10-20T21:31:10Z</time>
      </trkpt>
      <trkpt lat="47.94037" lon="2.27517">
        <ele>116</ele>
        <time>2019-10-20T21:31:02Z</time>
      </trkpt>
      <trkpt lat="47.93996" lon="2.27408">
        <ele>116.8</ele>
        <time>2019-10-20T21:30:40Z</time>
      </trkpt>
      <trkpt lat="47.93954" lon="2.27298">
        <ele>116.5</ele>
        <time>2019-10-20T21:30:17Z</time>
      </trkpt>
      <trkpt lat="47.93952" lon="2.27294">
        <ele>116.6</ele>
        <time>2019-10-20T21:30:16Z</time>
      </trkpt>
      <trkpt lat="47.93932" lon="2.27239">
        <ele>116.7</ele>
        <time>2019-10-20T21:30:05Z</time>
      </trkpt>
      <trkpt lat="47.93918" lon="2.27208">
        <ele>117</ele>
        <time>2019-10-20T21:29:58Z</time>
      </trkpt>
      <trkpt lat="47.9391" lon="2.27188">
        <ele>116.6</ele>
        <time>2019-10-20T21:29:54Z</time>
      </trkpt>
      <trkpt lat="47.93888" lon="2.27133">
        <ele>116.8</ele>
        <time>2019-10-20T21:29:43Z</time>
      </trkpt>
      <trkpt lat="47.93864" lon="2.27083">
        <ele>117</ele>
        <time>2019-10-20T21:29:32Z</time>
      </trkpt>
      <trkpt lat="47.93837" lon="2.27023">
        <ele>116.7</ele>
        <time>2019-10-20T21:29:19Z</time>
      </trkpt>
      <trkpt lat="47.93807" lon="2.26973">
        <ele>116.9</ele>
        <time>2019-10-20T21:29:07Z</time>
      </trkpt>
      <trkpt lat="47.93764" lon="2.26894">
        <ele>116.8</ele>
        <time>2019-10-20T21:28:49Z</time>
      </trkpt>
      <trkpt lat="47.93735" lon="2.26847">
        <ele>114.8</ele>
        <time>2019-10-20T21:28:37Z</time>
      </trkpt>
      <trkpt lat="47.93709" lon="2.26797">
        <ele>114.3</ele>
        <time>2019-10-20T21:28:26Z</time>
      </trkpt>
      <trkpt lat="47.93701" lon="2.26753">
        <ele>116.2</ele>
        <time>2019-10-20T21:28:18Z</time>
      </trkpt>
      <trkpt lat="47.93695" lon="2.26733">
        <ele>114.8</ele>
        <time>2019-10-20T21:28:14Z</time>
      </trkpt>
      <trkpt lat="47.93688" lon="2.26715">
        <ele>114.4</ele>
        <time>2019-10-20T21:28:10Z</time>
      </trkpt>
      <trkpt lat="47.93682" lon="2.267">
        <ele>114.5</ele>
        <time>2019-10-20T21:28:07Z</time>
      </trkpt>
      <trkpt lat="47.93676" lon="2.26684">
        <ele>114.8</ele>
        <time>2019-10-20T21:28:04Z</time>
      </trkpt>
      <trkpt lat="47.93669" lon="2.26656">
        <ele>114.7</ele>
        <time>2019-10-20T21:27:58Z</time>
      </trkpt>
      <trkpt lat="47.93652" lon="2.26595">
        <ele>114.5</ele>
        <time>2019-10-20T21:27:46Z</time>
      </trkpt>
      <trkpt lat="47.93617" lon="2.26443">
        <ele>115.5</ele>
        <time>2019-10-20T21:27:18Z</time>
      </trkpt>
      <trkpt lat="47.93606" lon="2.26388">
        <ele>114.2</ele>
        <time>2019-10-20T21:27:07Z</time>
      </trkpt>
      <trkpt lat="47.93588" lon="2.26314">
        <ele>115.8</ele>
        <time>2019-10-20T21:26:53Z</time>
      </trkpt>
      <trkpt lat="47.9358" lon="2.26244">
        <ele>114.1</ele>
        <time>2019-10-20T21:26:40Z</time>
      </trkpt>
      <trkpt lat="47.93582" lon="2.2617">
        <ele>114</ele>
        <time>2019-10-20T21:26:27Z</time>
      </trkpt>
      <trkpt lat="47.93585" lon="2.2607">
        <ele>114.1</ele>
        <time>2019-10-20T21:26:09Z</time>
      </trkpt>
      <trkpt lat="47.93587" lon="2.25931">
        <ele>114.1</ele>
        <time>2019-10-20T21:25:45Z</time>
      </trkpt>
      <trkpt lat="47.93588" lon="2.25873">
        <ele>114.1</ele>
        <time>2019-10-20T21:25:34Z</time>
      </trkpt>
      <trkpt lat="47.93592" lon="2.25743">
        <ele>114</ele>
        <time>2019-10-20T21:25:11Z</time>
      </trkpt>
      <trkpt lat="47.93595" lon="2.25615">
        <ele>114</ele>
        <time>2019-10-20T21:24:48Z</time>
      </trkpt>
      <trkpt lat="47.93609" lon="2.2542">
        <ele>114</ele>
        <time>2019-10-20T21:24:13Z</time>
      </trkpt>
      <trkpt lat="47.9361" lon="2.2533">
        <ele>114</ele>
        <time>2019-10-20T21:23:57Z</time>
      </trkpt>
      <trkpt lat="47.93606" lon="2.25238">
        <ele>114</ele>
        <time>2019-10-20T21:23:40Z</time>
      </trkpt>
      <trkpt lat="47.93599" lon="2.25104">
        <ele>113.6</ele>
        <time>2019-10-20T21:23:16Z</time>
      </trkpt>
      <trkpt lat="47.93594" lon="2.24969">
        <ele>113.4</ele>
        <time>2019-10-20T21:22:52Z</time>
      </trkpt>
      <trkpt lat="47.93587" lon="2.24872">
        <ele>114</ele>
        <time>2019-10-20T21:22:34Z</time>
      </trkpt>
      <trkpt lat="47.93582" lon="2.24776">
        <ele>114</ele>
        <time>2019-10-20T21:22:17Z</time>
      </trkpt>
      <trkpt lat="47.93578" lon="2.2474">
        <ele>113.8</ele>
        <time>2019-10-20T21:22:11Z</time>
      </trkpt>
      <trkpt lat="47.9356" lon="2.24618">
        <ele>113.2</ele>
        <time>2019-10-20T21:21:48Z</time>
      </trkpt>
      <trkpt lat="47.9354" lon="2.24494">
        <ele>113.4</ele>
        <time>2019-10-20T21:21:26Z</time>
      </trkpt>
      <trkpt lat="47.93506" lon="2.24211">
        <ele>113.5</ele>
        <time>2019-10-20T21:20:34Z</time>
      </trkpt>
      <trkpt lat="47.93498" lon="2.2412">
        <ele>113.9</ele>
        <time>2019-10-20T21:20:18Z</time>
      </trkpt>
      <trkpt lat="47.93481" lon="2.2386">
        <ele>114</ele>
        <time>2019-10-20T21:19:31Z</time>
      </trkpt>
      <trkpt lat="47.93474" lon="2.237">
        <ele>113.3</ele>
        <time>2019-10-20T21:19:02Z</time>
      </trkpt>
      <trkpt lat="47.93483" lon="2.23545">
        <ele>113.2</ele>
        <time>2019-10-20T21:18:34Z</time>
      </trkpt>
      <trkpt lat="47.9349" lon="2.23393">
        <ele>113.3</ele>
        <time>2019-10-20T21:18:07Z</time>
      </trkpt>
      <trkpt lat="47.93492" lon="2.23304">
        <ele>113.4</ele>
        <time>2019-10-20T21:17:51Z</time>
      </trkpt>
      <trkpt lat="47.93486" lon="2.23243">
        <ele>113.1</ele>
        <time>2019-10-20T21:17:40Z</time>
      </trkpt>
      <trkpt lat="47.93481" lon="2.23155">
        <ele>113.7</ele>
        <time>2019-10-20T21:17:24Z</time>
      </trkpt>
      <trkpt lat="47.93469" lon="2.23068">
        <ele>113.8</ele>
        <time>2019-10-20T21:17:08Z</time>
      </trkpt>
      <trkpt lat="47.93446" lon="2.22898">
        <ele>113.7</ele>
        <time>2019-10-20T21:16:37Z</time>
      </trkpt>
      <trkpt lat="47.93439" lon="2.22843">
        <ele>113.6</ele>
        <time>2019-10-20T21:16:27Z</time>
      </trkpt>
      <trkpt lat="47.9343" lon="2.2279">
        <ele>113</ele>
        <time>2019-10-20T21:16:18Z</time>
      </trkpt>
      <trkpt lat="47.93424" lon="2.22743">
        <ele>114</ele>
        <time>2019-10-20T21:16:09Z</time>
      </trkpt>
      <trkpt lat="47.9342" lon="2.22719">
        <ele>114</ele>
        <time>2019-10-20T21:16:04Z</time>
      </trkpt>
      <trkpt lat="47.93414" lon="2.22698">
        <ele>113.7</ele>
        <time>2019-10-20T21:16:00Z</time>
      </trkpt>
      <trkpt lat="47.93414" lon="2.22688">
        <ele>113.1</ele>
        <time>2019-10-20T21:15:59Z</time>
      </trkpt>
      <trkpt lat="47.93406" lon="2.22641">
        <ele>110.8</ele>
        <time>2019-10-20T21:15:50Z</time>
      </trkpt>
      <trkpt lat="47.93399" lon="2.22582">
        <ele>112.3</ele>
        <time>2019-10-20T21:15:39Z</time>
      </trkpt>
      <trkpt lat="47.93392" lon="2.22501">
        <ele>112</ele>
        <time>2019-10-20T21:15:25Z</time>
      </trkpt>
      <trkpt lat="47.93377" lon="2.22336">
        <ele>110.9</ele>
        <time>2019-10-20T21:14:55Z</time>
      </trkpt>
      <trkpt lat="47.9336" lon="2.22189">
        <ele>111</ele>
        <time>2019-10-20T21:14:28Z</time>
      </trkpt>
      <trkpt lat="47.9334" lon="2.22046">
        <ele>111.8</ele>
        <time>2019-10-20T21:14:02Z</time>
      </trkpt>
      <trkpt lat="47.93304" lon="2.21757">
        <ele>110.9</ele>
        <time>2019-10-20T21:13:09Z</time>
      </trkpt>
      <trkpt lat="47.93293" lon="2.21667">
        <ele>110</ele>
        <time>2019-10-20T21:12:53Z</time>
      </trkpt>
      <trkpt lat="47.93279" lon="2.21575">
        <ele>111</ele>
        <time>2019-10-20T21:12:36Z</time>
      </trkpt>
      <trkpt lat="47.93257" lon="2.21389">
        <ele>111</ele>
        <time>2019-10-20T21:12:02Z</time>
      </trkpt>
      <trkpt lat="47.93246" lon="2.21332">
        <ele>110.7</ele>
        <time>2019-10-20T21:11:52Z</time>
      </trkpt>
      <trkpt lat="47.93232" lon="2.21275">
        <ele>110.1</ele>
        <time>2019-10-20T21:11:41Z</time>
      </trkpt>
      <trkpt lat="47.93201" lon="2.21176">
        <ele>110.7</ele>
        <time>2019-10-20T21:11:21Z</time>
      </trkpt>
      <trkpt lat="47.93166" lon="2.21092">
        <ele>110.7</ele>
        <time>2019-10-20T21:11:03Z</time>
      </trkpt>
      <trkpt lat="47.93126" lon="2.21012">
        <ele>109.8</ele>
        <time>2019-10-20T21:10:46Z</time>
      </trkpt>
      <trkpt lat="47.93045" lon="2.20635">
        <ele>110</ele>
        <time>2019-10-20T21:09:35Z</time>
      </trkpt>
      <trkpt lat="47.93033" lon="2.20524">
        <ele>110.2</ele>
        <time>2019-10-20T21:09:15Z</time>
      </trkpt>
      <trkpt lat="47.93048" lon="2.20415">
        <ele>110.5</ele>
        <time>2019-10-20T21:08:55Z</time>
      </trkpt>
      <trkpt lat="47.93084" lon="2.20205">
        <ele>110.4</ele>
        <time>2019-10-20T21:08:16Z</time>
      </trkpt>
      <trkpt lat="47.93095" lon="2.20157">
        <ele>109.4</ele>
        <time>2019-10-20T21:08:07Z</time>
      </trkpt>
      <trkpt lat="47.93099" lon="2.20104">
        <ele>110</ele>
        <time>2019-10-20T21:07:57Z</time>
      </trkpt>
      <trkpt lat="47.93087" lon="2.20026">
        <ele>112.8</ele>
        <time>2019-10-20T21:07:43Z</time>
      </trkpt>
      <trkpt lat="47.93069" lon="2.19948">
        <ele>109.5</ele>
        <time>2019-10-20T21:07:28Z</time>
      </trkpt>
      <trkpt lat="47.93058" lon="2.19904">
        <ele>111</ele>
        <time>2019-10-20T21:07:20Z</time>
      </trkpt>
      <trkpt lat="47.9305" lon="2.19858">
        <ele>110.3</ele>
        <time>2019-10-20T21:07:11Z</time>
      </trkpt>
      <trkpt lat="47.93043" lon="2.1979">
        <ele>109.4</ele>
        <time>2019-10-20T21:06:59Z</time>
      </trkpt>
      <trkpt lat="47.93048" lon="2.19759">
        <ele>110.2</ele>
        <time>2019-10-20T21:06:53Z</time>
      </trkpt>
      <trkpt lat="47.93042" lon="2.1972">
        <ele>108.5</ele>
        <time>2019-10-20T21:06:46Z</time>
      </trkpt>
      <trkpt lat="47.93046" lon="2.1972">
        <ele>108.6</ele>
        <time>2019-10-20T21:06:45Z</time>
      </trkpt>
      <trkpt lat="47.93064" lon="2.19719">
        <ele>109.8</ele>
        <time>2019-10-20T21:06:40Z</time>
      </trkpt>
      <trkpt lat="47.93066" lon="2.19719">
        <ele>110</ele>
        <time>2019-10-20T21:06:40Z</time>
      </trkpt>
      <trkpt lat="47.93069" lon="2.19719">
        <ele>110.3</ele>
        <time>2019-10-20T21:06:39Z</time>
      </trkpt>
      <trkpt lat="47.9307" lon="2.19706">
        <ele>110</ele>
        <time>2019-10-20T21:06:37Z</time>
      </trkpt>
      <trkpt lat="47.93072" lon="2.19691">
        <ele>109.7</ele>
        <time>2019-10-20T21:06:34Z</time>
      </trkpt>
      <trkpt lat="47.93077" lon="2.19664">
        <ele>109.6</ele>
        <time>2019-10-20T21:06:29Z</time>
      </trkpt>
      <trkpt lat="47.93085" lon="2.19629">
        <ele>109.3</ele>
        <time>2019-10-20T21:06:22Z</time>
      </trkpt>
      <trkpt lat="47.93087" lon="2.19618">
        <ele>108.7</ele>
        <time>2019-10-20T21:06:20Z</time>
      </trkpt>
      <trkpt lat="47.93092" lon="2.19608">
        <ele>108.6</ele>
        <time>2019-10-20T21:06:18Z</time>
      </trkpt>
      <trkpt lat="47.93107" lon="2.1957">
        <ele>109.4</ele>
        <time>2019-10-20T21:06:10Z</time>
      </trkpt>
      <trkpt lat="47.93123" lon="2.19535">
        <ele>108.7</ele>
        <time>2019-10-20T21:06:02Z</time>
      </trkpt>
      <trkpt lat="47.93144" lon="2.19486">
        <ele>108.6</ele>
        <time>2019-10-20T21:05:52Z</time>
      </trkpt>
      <trkpt lat="47.9316" lon="2.19446">
        <ele>109</ele>
        <time>2019-10-20T21:05:44Z</time>
      </trkpt>
      <trkpt lat="47.93182" lon="2.19395">
        <ele>108</ele>
        <time>2019-10-20T21:05:33Z</time>
      </trkpt>
      <trkpt lat="47.93205" lon="2.19342">
        <ele>108.6</ele>
        <time>2019-10-20T21:05:21Z</time>
      </trkpt>
      <trkpt lat="47.93255" lon="2.19221">
        <ele>108.4</ele>
        <time>2019-10-20T21:04:56Z</time>
      </trkpt>
      <trkpt lat="47.93275" lon="2.19174">
        <ele>109.1</ele>
        <time>2019-10-20T21:04:46Z</time>
      </trkpt>
      <trkpt lat="47.9329" lon="2.19141">
        <ele>108.9</ele>
        <time>2019-10-20T21:04:39Z</time>
      </trkpt>
      <trkpt lat="47.93307" lon="2.1911">
        <ele>108.1</ele>
        <time>2019-10-20T21:04:32Z</time>
      </trkpt>
      <trkpt lat="47.93322" lon="2.19087">
        <ele>108.7</ele>
        <time>2019-10-20T21:04:26Z</time>
      </trkpt>
      <trkpt lat="47.9334" lon="2.19064">
        <ele>108.7</ele>
        <time>2019-10-20T21:04:20Z</time>
      </trkpt>
      <trkpt lat="47.93351" lon="2.19053">
        <ele>109.2</ele>
        <time>2019-10-20T21:04:16Z</time>
      </trkpt>
      <trkpt lat="47.93381" lon="2.1902">
        <ele>108.6</ele>
        <time>2019-10-20T21:04:06Z</time>
      </trkpt>
      <trkpt lat="47.93403" lon="2.19001">
        <ele>108.5</ele>
        <time>2019-10-20T21:03:59Z</time>
      </trkpt>
      <trkpt lat="47.93441" lon="2.18967">
        <ele>108.7</ele>
        <time>2019-10-20T21:03:48Z</time>
      </trkpt>
      <trkpt lat="47.93471" lon="2.18942">
        <ele>108.9</ele>
        <time>2019-10-20T21:03:38Z</time>
      </trkpt>
      <trkpt lat="47.93495" lon="2.18919">
        <ele>108.8</ele>
        <time>2019-10-20T21:03:31Z</time>
      </trkpt>
      <trkpt lat="47.9351" lon="2.18901">
        <ele>108.3</ele>
        <time>2019-10-20T21:03:26Z</time>
      </trkpt>
      <trkpt lat="47.93518" lon="2.18889">
        <ele>108</ele>
        <time>2019-10-20T21:03:22Z</time>
      </trkpt>
      <trkpt lat="47.93528" lon="2.18874">
        <ele>108</ele>
        <time>2019-10-20T21:03:19Z</time>
      </trkpt>
      <trkpt lat="47.93547" lon="2.18835">
        <ele>108.7</ele>
        <time>2019-10-20T21:03:10Z</time>
      </trkpt>
      <trkpt lat="47.93561" lon="2.18794">
        <ele>108.2</ele>
        <time>2019-10-20T21:03:02Z</time>
      </trkpt>
      <trkpt lat="47.9357" lon="2.1875">
        <ele>109</ele>
        <time>2019-10-20T21:02:54Z</time>
      </trkpt>
      <trkpt lat="47.93574" lon="2.18729">
        <ele>108.5</ele>
        <time>2019-10-20T21:02:50Z</time>
      </trkpt>
      <trkpt lat="47.93579" lon="2.18682">
        <ele>108</ele>
        <time>2019-10-20T21:02:41Z</time>
      </trkpt>
      <trkpt lat="47.93588" lon="2.18612">
        <ele>108.2</ele>
        <time>2019-10-20T21:02:28Z</time>
      </trkpt>
      <trkpt lat="47.93597" lon="2.18543">
        <ele>108.5</ele>
        <time>2019-10-20T21:02:16Z</time>
      </trkpt>
      <trkpt lat="47.93603" lon="2.18495">
        <ele>108.7</ele>
        <time>2019-10-20T21:02:07Z</time>
      </trkpt>
      <trkpt lat="47.93613" lon="2.18412">
        <ele>108.8</ele>
        <time>2019-10-20T21:01:52Z</time>
      </trkpt>
      <trkpt lat="47.9362" lon="2.18356">
        <ele>108.3</ele>
        <time>2019-10-20T21:01:42Z</time>
      </trkpt>
      <trkpt lat="47.93629" lon="2.18284">
        <ele>108.9</ele>
        <time>2019-10-20T21:01:29Z</time>
      </trkpt>
      <trkpt lat="47.93634" lon="2.18239">
        <ele>108.6</ele>
        <time>2019-10-20T21:01:20Z</time>
      </trkpt>
      <trkpt lat="47.9364" lon="2.18188">
        <ele>108</ele>
        <time>2019-10-20T21:01:11Z</time>
      </trkpt>
      <trkpt lat="47.93644" lon="2.18161">
        <ele>108.2</ele>
        <time>2019-10-20T21:01:06Z</time>
      </trkpt>
      <trkpt lat="47.93647" lon="2.18134">
        <ele>108.3</ele>
        <time>2019-10-20T21:01:02Z</time>
      </trkpt>
      <trkpt lat="47.93649" lon="2.18117">
        <ele>108.4</ele>
        <time>2019-10-20T21:00:58Z</time>
      </trkpt>
      <trkpt lat="47.93659" lon="2.18065">
        <ele>108.3</ele>
        <time>2019-10-20T21:00:49Z</time>
      </trkpt>
      <trkpt lat="47.93687" lon="2.17927">
        <ele>108.3</ele>
        <time>2019-10-20T21:00:23Z</time>
      </trkpt>
      <trkpt lat="47.93716" lon="2.17792">
        <ele>108.5</ele>
        <time>2019-10-20T20:59:58Z</time>
      </trkpt>
      <trkpt lat="47.93723" lon="2.17758">
        <ele>108</ele>
        <time>2019-10-20T20:59:51Z</time>
      </trkpt>
      <trkpt lat="47.93729" lon="2.17728">
        <ele>108.2</ele>
        <time>2019-10-20T20:59:46Z</time>
      </trkpt>
      <trkpt lat="47.93733" lon="2.17696">
        <ele>108.4</ele>
        <time>2019-10-20T20:59:40Z</time>
      </trkpt>
      <trkpt lat="47.93737" lon="2.17662">
        <ele>108.4</ele>
        <time>2019-10-20T20:59:34Z</time>
      </trkpt>
      <trkpt lat="47.9374" lon="2.17622">
        <ele>108</ele>
        <time>2019-10-20T20:59:26Z</time>
      </trkpt>
      <trkpt lat="47.9374" lon="2.17586">
        <ele>108.6</ele>
        <time>2019-10-20T20:59:20Z</time>
      </trkpt>
      <trkpt lat="47.9374" lon="2.17545">
        <ele>108.6</ele>
        <time>2019-10-20T20:59:13Z</time>
      </trkpt>
      <trkpt lat="47.9374" lon="2.17526">
        <ele>108.6</ele>
        <time>2019-10-20T20:59:09Z</time>
      </trkpt>
      <trkpt lat="47.93742" lon="2.17515">
        <ele>108.7</ele>
        <time>2019-10-20T20:59:07Z</time>
      </trkpt>
      <trkpt lat="47.93741" lon="2.17499">
        <ele>108.7</ele>
        <time>2019-10-20T20:59:04Z</time>
      </trkpt>
      <trkpt lat="47.9374" lon="2.17481">
        <ele>108.9</ele>
        <time>2019-10-20T20:59:01Z</time>
      </trkpt>
      <trkpt lat="47.93736" lon="2.17463">
        <ele>109</ele>
        <time>2019-10-20T20:58:58Z</time>
      </trkpt>
      <trkpt lat="47.93734" lon="2.17438">
        <ele>108.9</ele>
        <time>2019-10-20T20:58:53Z</time>
      </trkpt>
      <trkpt lat="47.93734" lon="2.17416">
        <ele>108.5</ele>
        <time>2019-10-20T20:58:49Z</time>
      </trkpt>
      <trkpt lat="47.93737" lon="2.17402">
        <ele>107.5</ele>
        <time>2019-10-20T20:58:47Z</time>
      </trkpt>
      <trkpt lat="47.93741" lon="2.1739">
        <ele>107.1</ele>
        <time>2019-10-20T20:58:44Z</time>
      </trkpt>
      <trkpt lat="47.93743" lon="2.17374">
        <ele>107.2</ele>
        <time>2019-10-20T20:58:41Z</time>
      </trkpt>
      <trkpt lat="47.93741" lon="2.17356">
        <ele>106.9</ele>
        <time>2019-10-20T20:58:38Z</time>
      </trkpt>
      <trkpt lat="47.93734" lon="2.17297">
        <ele>106</ele>
        <time>2019-10-20T20:58:27Z</time>
      </trkpt>
      <trkpt lat="47.93728" lon="2.17242">
        <ele>105.4</ele>
        <time>2019-10-20T20:58:17Z</time>
      </trkpt>
      <trkpt lat="47.93723" lon="2.17196">
        <ele>106</ele>
        <time>2019-10-20T20:58:09Z</time>
      </trkpt>
      <trkpt lat="47.93717" lon="2.17165">
        <ele>106.8</ele>
        <time>2019-10-20T20:58:03Z</time>
      </trkpt>
      <trkpt lat="47.93706" lon="2.17125">
        <ele>105.6</ele>
        <time>2019-10-20T20:57:55Z</time>
      </trkpt>
      <trkpt lat="47.93692" lon="2.17073">
        <ele>106.3</ele>
        <time>2019-10-20T20:57:45Z</time>
      </trkpt>
      <trkpt lat="47.93677" lon="2.1702">
        <ele>105.4</ele>
        <time>2019-10-20T20:57:35Z</time>
      </trkpt>
      <trkpt lat="47.93646" lon="2.16911">
        <ele>105.7</ele>
        <time>2019-10-20T20:57:14Z</time>
      </trkpt>
      <trkpt lat="47.9364" lon="2.16886">
        <ele>106.1</ele>
        <time>2019-10-20T20:57:09Z</time>
      </trkpt>
      <trkpt lat="47.93633" lon="2.16859">
        <ele>107</ele>
        <time>2019-10-20T20:57:04Z</time>
      </trkpt>
      <trkpt lat="47.93628" lon="2.16837">
        <ele>106.7</ele>
        <time>2019-10-20T20:57:00Z</time>
      </trkpt>
      <trkpt lat="47.93625" lon="2.16815">
        <ele>106.2</ele>
        <time>2019-10-20T20:56:56Z</time>
      </trkpt>
      <trkpt lat="47.93621" lon="2.16771">
        <ele>105.9</ele>
        <time>2019-10-20T20:56:48Z</time>
      </trkpt>
      <trkpt lat="47.93614" lon="2.16693">
        <ele>106.1</ele>
        <time>2019-10-20T20:56:34Z</time>
      </trkpt>
      <trkpt lat="47.93612" lon="2.16589">
        <ele>106.1</ele>
        <time>2019-10-20T20:56:15Z</time>
      </trkpt>
      <trkpt lat="47.93615" lon="2.16498">
        <ele>105.1</ele>
        <time>2019-10-20T20:55:59Z</time>
      </trkpt>
      <trkpt lat="47.93617" lon="2.16473">
        <ele>105.2</ele>
        <time>2019-10-20T20:55:54Z</time>
      </trkpt>
      <trkpt lat="47.93621" lon="2.1644">
        <ele>105.5</ele>
        <time>2019-10-20T20:55:48Z</time>
      </trkpt>
      <trkpt lat="47.93624" lon="2.16421">
        <ele>105.9</ele>
        <time>2019-10-20T20:55:45Z</time>
      </trkpt>
      <trkpt lat="47.93626" lon="2.16414">
        <ele>106</ele>
        <time>2019-10-20T20:55:43Z</time>
      </trkpt>
      <trkpt lat="47.93645" lon="2.16343">
        <ele>105.3</ele>
        <time>2019-10-20T20:55:30Z</time>
      </trkpt>
      <trkpt lat="47.93679" lon="2.16217">
        <ele>105.2</ele>
        <time>2019-10-20T20:55:05Z</time>
      </trkpt>
      <trkpt lat="47.93718" lon="2.16078">
        <ele>106</ele>
        <time>2019-10-20T20:54:38Z</time>
      </trkpt>
      <trkpt lat="47.93729" lon="2.16031">
        <ele>105.1</ele>
        <time>2019-10-20T20:54:30Z</time>
      </trkpt>
      <trkpt lat="47.93732" lon="2.16013">
        <ele>105.2</ele>
        <time>2019-10-20T20:54:26Z</time>
      </trkpt>
      <trkpt lat="47.93737" lon="2.15986">
        <ele>105.8</ele>
        <time>2019-10-20T20:54:21Z</time>
      </trkpt>
      <trkpt lat="47.9374" lon="2.15959">
        <ele>106</ele>
        <time>2019-10-20T20:54:16Z</time>
      </trkpt>
      <trkpt lat="47.93742" lon="2.15914">
        <ele>106.1</ele>
        <time>2019-10-20T20:54:08Z</time>
      </trkpt>
      <trkpt lat="47.93745" lon="2.15878">
        <ele>106.4</ele>
        <time>2019-10-20T20:54:02Z</time>
      </trkpt>
      <trkpt lat="47.93745" lon="2.15851">
        <ele>105.9</ele>
        <time>2019-10-20T20:53:57Z</time>
      </trkpt>
      <trkpt lat="47.93742" lon="2.15735">
        <ele>106.2</ele>
        <time>2019-10-20T20:53:36Z</time>
      </trkpt>
      <trkpt lat="47.9374" lon="2.15665">
        <ele>106</ele>
        <time>2019-10-20T20:53:24Z</time>
      </trkpt>
      <trkpt lat="47.93739" lon="2.15628">
        <ele>106</ele>
        <time>2019-10-20T20:53:17Z</time>
      </trkpt>
      <trkpt lat="47.93741" lon="2.15583">
        <ele>106</ele>
        <time>2019-10-20T20:53:09Z</time>
      </trkpt>
      <trkpt lat="47.93746" lon="2.15518">
        <ele>106</ele>
        <time>2019-10-20T20:52:57Z</time>
      </trkpt>
      <trkpt lat="47.9375" lon="2.15469">
        <ele>105</ele>
        <time>2019-10-20T20:52:48Z</time>
      </trkpt>
      <trkpt lat="47.93751" lon="2.15442">
        <ele>105</ele>
        <time>2019-10-20T20:52:44Z</time>
      </trkpt>
      <trkpt lat="47.93753" lon="2.15394">
        <ele>105.1</ele>
        <time>2019-10-20T20:52:35Z</time>
      </trkpt>
      <trkpt lat="47.93752" lon="2.1532">
        <ele>105.6</ele>
        <time>2019-10-20T20:52:22Z</time>
      </trkpt>
      <trkpt lat="47.93751" lon="2.15279">
        <ele>106</ele>
        <time>2019-10-20T20:52:14Z</time>
      </trkpt>
      <trkpt lat="47.93751" lon="2.15264">
        <ele>106</ele>
        <time>2019-10-20T20:52:12Z</time>
      </trkpt>
      <trkpt lat="47.93751" lon="2.15254">
        <ele>106</ele>
        <time>2019-10-20T20:52:10Z</time>
      </trkpt>
      <trkpt lat="47.93748" lon="2.15238">
        <ele>106</ele>
        <time>2019-10-20T20:52:07Z</time>
      </trkpt>
      <trkpt lat="47.93744" lon="2.15225">
        <ele>105.8</ele>
        <time>2019-10-20T20:52:04Z</time>
      </trkpt>
      <trkpt lat="47.93732" lon="2.15194">
        <ele>105.3</ele>
        <time>2019-10-20T20:51:58Z</time>
      </trkpt>
      <trkpt lat="47.93727" lon="2.15189">
        <ele>105.1</ele>
        <time>2019-10-20T20:51:56Z</time>
      </trkpt>
      <trkpt lat="47.93723" lon="2.15183">
        <ele>105</ele>
        <time>2019-10-20T20:51:55Z</time>
      </trkpt>
      <trkpt lat="47.93712" lon="2.15151">
        <ele>105</ele>
        <time>2019-10-20T20:51:48Z</time>
      </trkpt>
      <trkpt lat="47.9371" lon="2.15142">
        <ele>104.7</ele>
        <time>2019-10-20T20:51:47Z</time>
      </trkpt>
      <trkpt lat="47.9371" lon="2.15133">
        <ele>104.5</ele>
        <time>2019-10-20T20:51:45Z</time>
      </trkpt>
      <trkpt lat="47.93711" lon="2.15124">
        <ele>104.4</ele>
        <time>2019-10-20T20:51:43Z</time>
      </trkpt>
      <trkpt lat="47.93705" lon="2.1513">
        <ele>104.2</ele>
        <time>2019-10-20T20:51:41Z</time>
      </trkpt>
      <trkpt lat="47.93691" lon="2.15141">
        <ele>104.4</ele>
        <time>2019-10-20T20:51:37Z</time>
      </trkpt>
      <trkpt lat="47.93689" lon="2.15143">
        <ele>104.6</ele>
        <time>2019-10-20T20:51:37Z</time>
      </trkpt>
      <trkpt lat="47.93688" lon="2.15135">
        <ele>104.3</ele>
        <time>2019-10-20T20:51:35Z</time>
      </trkpt>
      <trkpt lat="47.93684" lon="2.15125">
        <ele>104.3</ele>
        <time>2019-10-20T20:51:33Z</time>
      </trkpt>
      <trkpt lat="47.93648" lon="2.15038">
        <ele>104.3</ele>
        <time>2019-10-20T20:51:15Z</time>
      </trkpt>
      <trkpt lat="47.93583" lon="2.1489">
        <ele>104</ele>
        <time>2019-10-20T20:50:43Z</time>
      </trkpt>
      <trkpt lat="47.93557" lon="2.14844">
        <ele>104.1</ele>
        <time>2019-10-20T20:50:32Z</time>
      </trkpt>
      <trkpt lat="47.93535" lon="2.14814">
        <ele>103.9</ele>
        <time>2019-10-20T20:50:24Z</time>
      </trkpt>
      <trkpt lat="47.93529" lon="2.14808">
        <ele>104</ele>
        <time>2019-10-20T20:50:22Z</time>
      </trkpt>
      <trkpt lat="47.93468" lon="2.14764">
        <ele>104</ele>
        <time>2019-10-20T20:50:04Z</time>
      </trkpt>
      <trkpt lat="47.93454" lon="2.14753">
        <ele>103.7</ele>
        <time>2019-10-20T20:50:00Z</time>
      </trkpt>
      <trkpt lat="47.93441" lon="2.1474">
        <ele>103.7</ele>
        <time>2019-10-20T20:49:56Z</time>
      </trkpt>
      <trkpt lat="47.93419" lon="2.14707">
        <ele>104.4</ele>
        <time>2019-10-20T20:49:47Z</time>
      </trkpt>
      <trkpt lat="47.93393" lon="2.14659">
        <ele>104.2</ele>
        <time>2019-10-20T20:49:36Z</time>
      </trkpt>
      <trkpt lat="47.93348" lon="2.14556">
        <ele>103.5</ele>
        <time>2019-10-20T20:49:14Z</time>
      </trkpt>
      <trkpt lat="47.93296" lon="2.1444">
        <ele>103.4</ele>
        <time>2019-10-20T20:48:49Z</time>
      </trkpt>
      <trkpt lat="47.93252" lon="2.14345">
        <ele>103.8</ele>
        <time>2019-10-20T20:48:29Z</time>
      </trkpt>
      <trkpt lat="47.93233" lon="2.14307">
        <ele>104.2</ele>
        <time>2019-10-20T20:48:20Z</time>
      </trkpt>
      <trkpt lat="47.93216" lon="2.14279">
        <ele>103.3</ele>
        <time>2019-10-20T20:48:14Z</time>
      </trkpt>
      <trkpt lat="47.93178" lon="2.14218">
        <ele>103.6</ele>
        <time>2019-10-20T20:47:59Z</time>
      </trkpt>
      <trkpt lat="47.93172" lon="2.14208">
        <ele>103.8</ele>
        <time>2019-10-20T20:47:56Z</time>
      </trkpt>
      <trkpt lat="47.93146" lon="2.1416">
        <ele>103.6</ele>
        <time>2019-10-20T20:47:45Z</time>
      </trkpt>
      <trkpt lat="47.93122" lon="2.14122">
        <ele>103</ele>
        <time>2019-10-20T20:47:36Z</time>
      </trkpt>
      <trkpt lat="47.93081" lon="2.14078">
        <ele>103.8</ele>
        <time>2019-10-20T20:47:22Z</time>
      </trkpt>
      <trkpt lat="47.93046" lon="2.14038">
        <ele>103.6</ele>
        <time>2019-10-20T20:47:11Z</time>
      </trkpt>
      <trkpt lat="47.9302" lon="2.14008">
        <ele>103.5</ele>
        <time>2019-10-20T20:47:02Z</time>
      </trkpt>
      <trkpt lat="47.93007" lon="2.14">
        <ele>103.7</ele>
        <time>2019-10-20T20:46:58Z</time>
      </trkpt>
      <trkpt lat="47.92972" lon="2.13965">
        <ele>103.8</ele>
        <time>2019-10-20T20:46:47Z</time>
      </trkpt>
      <trkpt lat="47.92935" lon="2.1393">
        <ele>104.3</ele>
        <time>2019-10-20T20:46:35Z</time>
      </trkpt>
      <trkpt lat="47.92927" lon="2.13919">
        <ele>104.3</ele>
        <time>2019-10-20T20:46:32Z</time>
      </trkpt>
      <trkpt lat="47.92895" lon="2.13887">
        <ele>103.7</ele>
        <time>2019-10-20T20:46:22Z</time>
      </trkpt>
      <trkpt lat="47.92836" lon="2.1383">
        <ele>103.8</ele>
        <time>2019-10-20T20:46:03Z</time>
      </trkpt>
      <trkpt lat="47.92812" lon="2.13794">
        <ele>104.3</ele>
        <time>2019-10-20T20:45:54Z</time>
      </trkpt>
      <trkpt lat="47.92788" lon="2.13755">
        <ele>104.3</ele>
        <time>2019-10-20T20:45:45Z</time>
      </trkpt>
      <trkpt lat="47.92709" lon="2.13604">
        <ele>103.8</ele>
        <time>2019-10-20T20:45:10Z</time>
      </trkpt>
      <trkpt lat="47.92672" lon="2.13534">
        <ele>104.1</ele>
        <time>2019-10-20T20:44:54Z</time>
      </trkpt>
      <trkpt lat="47.92641" lon="2.13475">
        <ele>103.9</ele>
        <time>2019-10-20T20:44:41Z</time>
      </trkpt>
      <trkpt lat="47.92634" lon="2.13462">
        <ele>103.7</ele>
        <time>2019-10-20T20:44:38Z</time>
      </trkpt>
      <trkpt lat="47.92546" lon="2.13295">
        <ele>103.6</ele>
        <time>2019-10-20T20:44:00Z</time>
      </trkpt>
      <trkpt lat="47.9245" lon="2.13117">
        <ele>103.2</ele>
        <time>2019-10-20T20:43:19Z</time>
      </trkpt>
      <trkpt lat="47.92368" lon="2.12963">
        <ele>103</ele>
        <time>2019-10-20T20:42:44Z</time>
      </trkpt>
      <trkpt lat="47.92324" lon="2.12865">
        <ele>103</ele>
        <time>2019-10-20T20:42:23Z</time>
      </trkpt>
      <trkpt lat="47.92322" lon="2.1286">
        <ele>103</ele>
        <time>2019-10-20T20:42:22Z</time>
      </trkpt>
      <trkpt lat="47.92312" lon="2.12829">
        <ele>103</ele>
        <time>2019-10-20T20:42:15Z</time>
      </trkpt>
      <trkpt lat="47.92305" lon="2.12794">
        <ele>103</ele>
        <time>2019-10-20T20:42:09Z</time>
      </trkpt>
      <trkpt lat="47.92296" lon="2.12725">
        <ele>103.3</ele>
        <time>2019-10-20T20:41:56Z</time>
      </trkpt>
      <trkpt lat="47.92289" lon="2.12649">
        <ele>103.4</ele>
        <time>2019-10-20T20:41:43Z</time>
      </trkpt>
      <trkpt lat="47.92277" lon="2.12518">
        <ele>103</ele>
        <time>2019-10-20T20:41:19Z</time>
      </trkpt>
      <trkpt lat="47.92253" lon="2.12245">
        <ele>103.1</ele>
        <time>2019-10-20T20:40:30Z</time>
      </trkpt>
      <trkpt lat="47.9225" lon="2.12214">
        <ele>103</ele>
        <time>2019-10-20T20:40:24Z</time>
      </trkpt>
      <trkpt lat="47.92247" lon="2.12186">
        <ele>103</ele>
        <time>2019-10-20T20:40:19Z</time>
      </trkpt>
      <trkpt lat="47.92246" lon="2.12173">
        <ele>103</ele>
        <time>2019-10-20T20:40:17Z</time>
      </trkpt>
      <trkpt lat="47.92227" lon="2.1199">
        <ele>103.2</ele>
        <time>2019-10-20T20:39:43Z</time>
      </trkpt>
      <trkpt lat="47.92224" lon="2.11952">
        <ele>103.1</ele>
        <time>2019-10-20T20:39:37Z</time>
      </trkpt>
      <trkpt lat="47.92207" lon="2.11882">
        <ele>102.7</ele>
        <time>2019-10-20T20:39:23Z</time>
      </trkpt>
      <trkpt lat="47.92156" lon="2.11733">
        <ele>102.6</ele>
        <time>2019-10-20T20:38:53Z</time>
      </trkpt>
      <trkpt lat="47.92141" lon="2.11682">
        <ele>103.1</ele>
        <time>2019-10-20T20:38:43Z</time>
      </trkpt>
      <trkpt lat="47.92088" lon="2.11535">
        <ele>103.5</ele>
        <time>2019-10-20T20:38:13Z</time>
      </trkpt>
      <trkpt lat="47.92057" lon="2.11466">
        <ele>103.8</ele>
        <time>2019-10-20T20:37:58Z</time>
      </trkpt>
      <trkpt lat="47.92026" lon="2.11406">
        <ele>103.5</ele>
        <time>2019-10-20T20:37:45Z</time>
      </trkpt>
      <trkpt lat="47.91955" lon="2.11298">
        <ele>103.3</ele>
        <time>2019-10-20T20:37:18Z</time>
      </trkpt>
      <trkpt lat="47.91903" lon="2.11208">
        <ele>103.3</ele>
        <time>2019-10-20T20:36:57Z</time>
      </trkpt>
      <trkpt lat="47.91869" lon="2.11145">
        <ele>103.6</ele>
        <time>2019-10-20T20:36:42Z</time>
      </trkpt>
      <trkpt lat="47.91797" lon="2.10992">
        <ele>102.7</ele>
        <time>2019-10-20T20:36:08Z</time>
      </trkpt>
      <trkpt lat="47.91693" lon="2.10779">
        <ele>103.8</ele>
        <time>2019-10-20T20:35:21Z</time>
      </trkpt>
      <trkpt lat="47.91578" lon="2.10546">
        <ele>102.8</ele>
        <time>2019-10-20T20:34:30Z</time>
      </trkpt>
      <trkpt lat="47.91489" lon="2.10372">
        <ele>102.8</ele>
        <time>2019-10-20T20:33:50Z</time>
      </trkpt>
      <trkpt lat="47.91459" lon="2.10315">
        <ele>103</ele>
        <time>2019-10-20T20:33:37Z</time>
      </trkpt>
      <trkpt lat="47.91436" lon="2.10278">
        <ele>101.3</ele>
        <time>2019-10-20T20:33:28Z</time>
      </trkpt>
      <trkpt lat="47.91338" lon="2.10127">
        <ele>101.4</ele>
        <time>2019-10-20T20:32:51Z</time>
      </trkpt>
      <trkpt lat="47.91313" lon="2.1008">
        <ele>101.7</ele>
        <time>2019-10-20T20:32:40Z</time>
      </trkpt>
      <trkpt lat="47.91268" lon="2.10064">
        <ele>101</ele>
        <time>2019-10-20T20:32:28Z</time>
      </trkpt>
      <trkpt lat="47.91216" lon="2.10051">
        <ele>101.6</ele>
        <time>2019-10-20T20:32:14Z</time>
      </trkpt>
      <trkpt lat="47.91167" lon="2.10036">
        <ele>101</ele>
        <time>2019-10-20T20:32:00Z</time>
      </trkpt>
      <trkpt lat="47.91116" lon="2.10023">
        <ele>101.9</ele>
        <time>2019-10-20T20:31:46Z</time>
      </trkpt>
      <trkpt lat="47.91071" lon="2.10007">
        <ele>101.8</ele>
        <time>2019-10-20T20:31:34Z</time>
      </trkpt>
      <trkpt lat="47.91024" lon="2.09974">
        <ele>102</ele>
        <time>2019-10-20T20:31:20Z</time>
      </trkpt>
      <trkpt lat="47.90954" lon="2.09913">
        <ele>101.1</ele>
        <time>2019-10-20T20:30:58Z</time>
      </trkpt>
      <trkpt lat="47.90892" lon="2.09825">
        <ele>101.3</ele>
        <time>2019-10-20T20:30:36Z</time>
      </trkpt>
      <trkpt lat="47.90825" lon="2.0962">
        <ele>101</ele>
        <time>2019-10-20T20:29:55Z</time>
      </trkpt>
      <trkpt lat="47.90786" lon="2.09517">
        <ele>101.3</ele>
        <time>2019-10-20T20:29:34Z</time>
      </trkpt>
      <trkpt lat="47.90745" lon="2.09422">
        <ele>101</ele>
        <time>2019-10-20T20:29:13Z</time>
      </trkpt>
      <trkpt lat="47.90725" lon="2.09368">
        <ele>101</ele>
        <time>2019-10-20T20:29:02Z</time>
      </trkpt>
      <trkpt lat="47.90703" lon="2.09315">
        <ele>101</ele>
        <time>2019-10-20T20:28:51Z</time>
      </trkpt>
      <trkpt lat="47.907" lon="2.09308">
        <ele>101</ele>
        <time>2019-10-20T20:28:50Z</time>
      </trkpt>
      <trkpt lat="47.90677" lon="2.09248">
        <ele>101</ele>
        <time>2019-10-20T20:28:37Z</time>
      </trkpt>
      <trkpt lat="47.90646" lon="2.0917">
        <ele>101</ele>
        <time>2019-10-20T20:28:21Z</time>
      </trkpt>
      <trkpt lat="47.90612" lon="2.09087">
        <ele>101</ele>
        <time>2019-10-20T20:28:03Z</time>
      </trkpt>
      <trkpt lat="47.90571" lon="2.08986">
        <ele>102.3</ele>
        <time>2019-10-20T20:27:42Z</time>
      </trkpt>
      <trkpt lat="47.90559" lon="2.08931">
        <ele>102</ele>
        <time>2019-10-20T20:27:32Z</time>
      </trkpt>
      <trkpt lat="47.90507" lon="2.08822">
        <ele>102.5</ele>
        <time>2019-10-20T20:27:08Z</time>
      </trkpt>
      <trkpt lat="47.905" lon="2.08813">
        <ele>101.3</ele>
        <time>2019-10-20T20:27:06Z</time>
      </trkpt>
      <trkpt lat="47.90434" lon="2.08693">
        <ele>100.7</ele>
        <time>2019-10-20T20:26:38Z</time>
      </trkpt>
      <trkpt lat="47.90355" lon="2.0855">
        <ele>100.8</ele>
        <time>2019-10-20T20:26:05Z</time>
      </trkpt>
      <trkpt lat="47.90338" lon="2.08487">
        <ele>101.5</ele>
        <time>2019-10-20T20:25:52Z</time>
      </trkpt>
      <trkpt lat="47.90322" lon="2.08418">
        <ele>100.6</ele>
        <time>2019-10-20T20:25:39Z</time>
      </trkpt>
      <trkpt lat="47.90299" lon="2.08339">
        <ele>100.9</ele>
        <time>2019-10-20T20:25:24Z</time>
      </trkpt>
      <trkpt lat="47.90273" lon="2.0824">
        <ele>101.4</ele>
        <time>2019-10-20T20:25:05Z</time>
      </trkpt>
      <trkpt lat="47.90241" lon="2.08142">
        <ele>100.8</ele>
        <time>2019-10-20T20:24:45Z</time>
      </trkpt>
      <trkpt lat="47.90223" lon="2.08088">
        <ele>100.9</ele>
        <time>2019-10-20T20:24:35Z</time>
      </trkpt>
      <trkpt lat="47.9021" lon="2.08027">
        <ele>100.6</ele>
        <time>2019-10-20T20:24:23Z</time>
      </trkpt>
      <trkpt lat="47.90167" lon="2.07846">
        <ele>102</ele>
        <time>2019-10-20T20:23:49Z</time>
      </trkpt>
      <trkpt lat="47.90117" lon="2.07638">
        <ele>101</ele>
        <time>2019-10-20T20:23:09Z</time>
      </trkpt>
      <trkpt lat="47.90092" lon="2.07537">
        <ele>100.3</ele>
        <time>2019-10-20T20:22:50Z</time>
      </trkpt>
      <trkpt lat="47.90067" lon="2.07438">
        <ele>100.1</ele>
        <time>2019-10-20T20:22:31Z</time>
      </trkpt>
      <trkpt lat="47.9003" lon="2.07288">
        <ele>101.1</ele>
        <time>2019-10-20T20:22:02Z</time>
      </trkpt>
      <trkpt lat="47.90022" lon="2.07259">
        <ele>100.7</ele>
        <time>2019-10-20T20:21:57Z</time>
      </trkpt>
      <trkpt lat="47.90015" lon="2.07246">
        <ele>100.6</ele>
        <time>2019-10-20T20:21:54Z</time>
      </trkpt>
      <trkpt lat="47.89968" lon="2.07149">
        <ele>100.7</ele>
        <time>2019-10-20T20:21:32Z</time>
      </trkpt>
      <trkpt lat="47.89942" lon="2.07087">
        <ele>100.8</ele>
        <time>2019-10-20T20:21:19Z</time>
      </trkpt>
      <trkpt lat="47.89917" lon="2.07021">
        <ele>101.8</ele>
        <time>2019-10-20T20:21:06Z</time>
      </trkpt>
      <trkpt lat="47.89858" lon="2.06876">
        <ele>100.8</ele>
        <time>2019-10-20T20:20:35Z</time>
      </trkpt>
      <trkpt lat="47.89834" lon="2.06821">
        <ele>101</ele>
        <time>2019-10-20T20:20:23Z</time>
      </trkpt>
      <trkpt lat="47.89809" lon="2.06767">
        <ele>100.5</ele>
        <time>2019-10-20T20:20:12Z</time>
      </trkpt>
      <trkpt lat="47.89736" lon="2.06598">
        <ele>100.5</ele>
        <time>2019-10-20T20:19:36Z</time>
      </trkpt>
      <trkpt lat="47.89721" lon="2.06565">
        <ele>100.9</ele>
        <time>2019-10-20T20:19:29Z</time>
      </trkpt>
      <trkpt lat="47.89703" lon="2.06531">
        <ele>100.9</ele>
        <time>2019-10-20T20:19:21Z</time>
      </trkpt>
      <trkpt lat="47.89665" lon="2.0646">
        <ele>100.9</ele>
        <time>2019-10-20T20:19:04Z</time>
      </trkpt>
      <trkpt lat="47.89589" lon="2.06328">
        <ele>100.4</ele>
        <time>2019-10-20T20:18:33Z</time>
      </trkpt>
      <trkpt lat="47.89574" lon="2.06299">
        <ele>100.4</ele>
        <time>2019-10-20T20:18:27Z</time>
      </trkpt>
      <trkpt lat="47.89561" lon="2.06267">
        <ele>100.5</ele>
        <time>2019-10-20T20:18:20Z</time>
      </trkpt>
      <trkpt lat="47.89523" lon="2.06136">
        <ele>100.7</ele>
        <time>2019-10-20T20:17:54Z</time>
      </trkpt>
      <trkpt lat="47.89508" lon="2.06084">
        <ele>100.3</ele>
        <time>2019-10-20T20:17:44Z</time>
      </trkpt>
      <trkpt lat="47.8948" lon="2.05988">
        <ele>99.9</ele>
        <time>2019-10-20T20:17:26Z</time>
      </trkpt>
      <trkpt lat="47.89475" lon="2.05962">
        <ele>100.5</ele>
        <time>2019-10-20T20:17:21Z</time>
      </trkpt>
      <trkpt lat="47.89459" lon="2.0589">
        <ele>100</ele>
        <time>2019-10-20T20:17:07Z</time>
      </trkpt>
      <trkpt lat="47.89449" lon="2.05814">
        <ele>99.9</ele>
        <time>2019-10-20T20:16:53Z</time>
      </trkpt>
      <trkpt lat="47.89429" lon="2.05702">
        <ele>99.9</ele>
        <time>2019-10-20T20:16:33Z</time>
      </trkpt>
      <trkpt lat="47.89414" lon="2.05639">
        <ele>100.8</ele>
        <time>2019-10-20T20:16:21Z</time>
      </trkpt>
      <trkpt lat="47.89393" lon="2.05586">
        <ele>100.2</ele>
        <time>2019-10-20T20:16:10Z</time>
      </trkpt>
      <trkpt lat="47.89359" lon="2.05503">
        <ele>100.7</ele>
        <time>2019-10-20T20:15:52Z</time>
      </trkpt>
      <trkpt lat="47.89332" lon="2.05443">
        <ele>101.9</ele>
        <time>2019-10-20T20:15:39Z</time>
      </trkpt>
      <trkpt lat="47.89298" lon="2.05399">
        <ele>100.9</ele>
        <time>2019-10-20T20:15:27Z</time>
      </trkpt>
      <trkpt lat="47.89273" lon="2.05348">
        <ele>100.7</ele>
        <time>2019-10-20T20:15:16Z</time>
      </trkpt>
      <trkpt lat="47.89261" lon="2.05322">
        <ele>100</ele>
        <time>2019-10-20T20:15:10Z</time>
      </trkpt>
      <trkpt lat="47.89256" lon="2.05301">
        <ele>100.3</ele>
        <time>2019-10-20T20:15:06Z</time>
      </trkpt>
      <trkpt lat="47.89238" lon="2.0526">
        <ele>100</ele>
        <time>2019-10-20T20:14:57Z</time>
      </trkpt>
      <trkpt lat="47.89225" lon="2.0524">
        <ele>99.9</ele>
        <time>2019-10-20T20:14:52Z</time>
      </trkpt>
      <trkpt lat="47.8921" lon="2.05211">
        <ele>98.7</ele>
        <time>2019-10-20T20:14:46Z</time>
      </trkpt>
      <trkpt lat="47.89209" lon="2.05208">
        <ele>98.7</ele>
        <time>2019-10-20T20:14:45Z</time>
      </trkpt>
      <trkpt lat="47.89208" lon="2.05202">
        <ele>98.7</ele>
        <time>2019-10-20T20:14:44Z</time>
      </trkpt>
      <trkpt lat="47.89208" lon="2.05197">
        <ele>98.6</ele>
        <time>2019-10-20T20:14:43Z</time>
      </trkpt>
      <trkpt lat="47.89207" lon="2.05185">
        <ele>98.8</ele>
        <time>2019-10-20T20:14:41Z</time>
      </trkpt>
      <trkpt lat="47.89208" lon="2.05164">
        <ele>99.1</ele>
        <time>2019-10-20T20:14:37Z</time>
      </trkpt>
      <trkpt lat="47.89208" lon="2.0508">
        <ele>98.6</ele>
        <time>2019-10-20T20:14:22Z</time>
      </trkpt>
      <trkpt lat="47.89207" lon="2.04941">
        <ele>98.5</ele>
        <time>2019-10-20T20:13:57Z</time>
      </trkpt>
      <trkpt lat="47.89207" lon="2.04833">
        <ele>98.1</ele>
        <time>2019-10-20T20:13:38Z</time>
      </trkpt>
      <trkpt lat="47.89227" lon="2.04664">
        <ele>99.7</ele>
        <time>2019-10-20T20:13:07Z</time>
      </trkpt>
      <trkpt lat="47.89245" lon="2.04518">
        <ele>98.8</ele>
        <time>2019-10-20T20:12:41Z</time>
      </trkpt>
      <trkpt lat="47.89259" lon="2.04396">
        <ele>98.7</ele>
        <time>2019-10-20T20:12:18Z</time>
      </trkpt>
      <trkpt lat="47.89249" lon="2.04354">
        <ele>98.5</ele>
        <time>2019-10-20T20:12:10Z</time>
      </trkpt>
      <trkpt lat="47.89232" lon="2.04313">
        <ele>98.4</ele>
        <time>2019-10-20T20:12:02Z</time>
      </trkpt>
      <trkpt lat="47.89206" lon="2.04186">
        <ele>98</ele>
        <time>2019-10-20T20:11:38Z</time>
      </trkpt>
      <trkpt lat="47.89204" lon="2.04139">
        <ele>98</ele>
        <time>2019-10-20T20:11:29Z</time>
      </trkpt>
      <trkpt lat="47.89202" lon="2.04123">
        <ele>98.6</ele>
        <time>2019-10-20T20:11:27Z</time>
      </trkpt>
      <trkpt lat="47.89193" lon="2.04052">
        <ele>98</ele>
        <time>2019-10-20T20:11:14Z</time>
      </trkpt>
      <trkpt lat="47.89181" lon="2.03934">
        <ele>98.2</ele>
        <time>2019-10-20T20:10:52Z</time>
      </trkpt>
      <trkpt lat="47.89165" lon="2.03823">
        <ele>98.6</ele>
        <time>2019-10-20T20:10:32Z</time>
      </trkpt>
      <trkpt lat="47.89159" lon="2.03791">
        <ele>97.9</ele>
        <time>2019-10-20T20:10:26Z</time>
      </trkpt>
      <trkpt lat="47.8916" lon="2.03697">
        <ele>97.3</ele>
        <time>2019-10-20T20:10:09Z</time>
      </trkpt>
      <trkpt lat="47.89163" lon="2.03631">
        <ele>98.1</ele>
        <time>2019-10-20T20:09:57Z</time>
      </trkpt>
      <trkpt lat="47.89164" lon="2.03579">
        <ele>98</ele>
        <time>2019-10-20T20:09:48Z</time>
      </trkpt>
      <trkpt lat="47.89161" lon="2.03532">
        <ele>98</ele>
        <time>2019-10-20T20:09:40Z</time>
      </trkpt>
      <trkpt lat="47.89144" lon="2.03423">
        <ele>97.8</ele>
        <time>2019-10-20T20:09:20Z</time>
      </trkpt>
      <trkpt lat="47.89128" lon="2.03311">
        <ele>97.4</ele>
        <time>2019-10-20T20:08:59Z</time>
      </trkpt>
      <trkpt lat="47.89109" lon="2.03156">
        <ele>98</ele>
        <time>2019-10-20T20:08:31Z</time>
      </trkpt>
      <trkpt lat="47.89094" lon="2.03046">
        <ele>98</ele>
        <time>2019-10-20T20:08:11Z</time>
      </trkpt>
      <trkpt lat="47.8908" lon="2.02964">
        <ele>97.4</ele>
        <time>2019-10-20T20:07:56Z</time>
      </trkpt>
      <trkpt lat="47.89074" lon="2.02935">
        <ele>97.7</ele>
        <time>2019-10-20T20:07:50Z</time>
      </trkpt>
      <trkpt lat="47.89072" lon="2.0291">
        <ele>97</ele>
        <time>2019-10-20T20:07:46Z</time>
      </trkpt>
      <trkpt lat="47.89071" lon="2.02855">
        <ele>97.1</ele>
        <time>2019-10-20T20:07:36Z</time>
      </trkpt>
      <trkpt lat="47.8907" lon="2.02798">
        <ele>98</ele>
        <time>2019-10-20T20:07:26Z</time>
      </trkpt>
      <trkpt lat="47.8907" lon="2.0277">
        <ele>98.2</ele>
        <time>2019-10-20T20:07:20Z</time>
      </trkpt>
      <trkpt lat="47.89068" lon="2.02743">
        <ele>99.3</ele>
        <time>2019-10-20T20:07:15Z</time>
      </trkpt>
      <trkpt lat="47.89066" lon="2.0272">
        <ele>100.1</ele>
        <time>2019-10-20T20:07:12Z</time>
      </trkpt>
      <trkpt lat="47.89063" lon="2.02711">
        <ele>100.4</ele>
        <time>2019-10-20T20:07:10Z</time>
      </trkpt>
      <trkpt lat="47.8906" lon="2.02696">
        <ele>100.4</ele>
        <time>2019-10-20T20:07:07Z</time>
      </trkpt>
      <trkpt lat="47.89059" lon="2.02683">
        <ele>100.6</ele>
        <time>2019-10-20T20:07:05Z</time>
      </trkpt>
      <trkpt lat="47.89059" lon="2.02671">
        <ele>100.6</ele>
        <time>2019-10-20T20:07:02Z</time>
      </trkpt>
      <trkpt lat="47.89062" lon="2.02643">
        <ele>99.6</ele>
        <time>2019-10-20T20:06:57Z</time>
      </trkpt>
      <trkpt lat="47.89051" lon="2.02561">
        <ele>98.3</ele>
        <time>2019-10-20T20:06:42Z</time>
      </trkpt>
      <trkpt lat="47.89045" lon="2.02514">
        <ele>97.8</ele>
        <time>2019-10-20T20:06:34Z</time>
      </trkpt>
      <trkpt lat="47.89039" lon="2.02471">
        <ele>98.2</ele>
        <time>2019-10-20T20:06:26Z</time>
      </trkpt>
      <trkpt lat="47.89037" lon="2.02451">
        <ele>98.3</ele>
        <time>2019-10-20T20:06:22Z</time>
      </trkpt>
      <trkpt lat="47.89038" lon="2.02431">
        <ele>98.3</ele>
        <time>2019-10-20T20:06:19Z</time>
      </trkpt>
      <trkpt lat="47.8907" lon="2.02324">
        <ele>98</ele>
        <time>2019-10-20T20:05:58Z</time>
      </trkpt>
      <trkpt lat="47.89114" lon="2.0218">
        <ele>99.3</ele>
        <time>2019-10-20T20:05:29Z</time>
      </trkpt>
      <trkpt lat="47.89147" lon="2.02058">
        <ele>99.4</ele>
        <time>2019-10-20T20:05:06Z</time>
      </trkpt>
      <trkpt lat="47.89158" lon="2.01998">
        <ele>97.4</ele>
        <time>2019-10-20T20:04:55Z</time>
      </trkpt>
      <trkpt lat="47.89169" lon="2.01935">
        <ele>99.1</ele>
        <time>2019-10-20T20:04:43Z</time>
      </trkpt>
      <trkpt lat="47.8919" lon="2.01767">
        <ele>98.7</ele>
        <time>2019-10-20T20:04:12Z</time>
      </trkpt>
      <trkpt lat="47.89215" lon="2.01632">
        <ele>98</ele>
        <time>2019-10-20T20:03:47Z</time>
      </trkpt>
      <trkpt lat="47.89221" lon="2.01589">
        <ele>98.8</ele>
        <time>2019-10-20T20:03:39Z</time>
      </trkpt>
      <trkpt lat="47.89229" lon="2.01544">
        <ele>99.2</ele>
        <time>2019-10-20T20:03:31Z</time>
      </trkpt>
      <trkpt lat="47.89248" lon="2.01443">
        <ele>98.9</ele>
        <time>2019-10-20T20:03:12Z</time>
      </trkpt>
      <trkpt lat="47.89258" lon="2.01383">
        <ele>99.1</ele>
        <time>2019-10-20T20:03:01Z</time>
      </trkpt>
      <trkpt lat="47.89267" lon="2.01325">
        <ele>97.3</ele>
        <time>2019-10-20T20:02:51Z</time>
      </trkpt>
      <trkpt lat="47.89287" lon="2.01222">
        <ele>97.7</ele>
        <time>2019-10-20T20:02:31Z</time>
      </trkpt>
      <trkpt lat="47.89309" lon="2.01119">
        <ele>98.7</ele>
        <time>2019-10-20T20:02:12Z</time>
      </trkpt>
      <trkpt lat="47.89331" lon="2.01012">
        <ele>98.5</ele>
        <time>2019-10-20T20:01:52Z</time>
      </trkpt>
      <trkpt lat="47.89341" lon="2.0096">
        <ele>99</ele>
        <time>2019-10-20T20:01:42Z</time>
      </trkpt>
      <trkpt lat="47.89349" lon="2.00904">
        <ele>97.9</ele>
        <time>2019-10-20T20:01:32Z</time>
      </trkpt>
      <trkpt lat="47.89363" lon="2.00755">
        <ele>98.9</ele>
        <time>2019-10-20T20:01:05Z</time>
      </trkpt>
      <trkpt lat="47.89375" lon="2.00602">
        <ele>96.5</ele>
        <time>2019-10-20T20:00:37Z</time>
      </trkpt>
      <trkpt lat="47.89383" lon="2.00512">
        <ele>97.2</ele>
        <time>2019-10-20T20:00:21Z</time>
      </trkpt>
      <trkpt lat="47.89396" lon="2.00347">
        <ele>97.9</ele>
        <time>2019-10-20T19:59:51Z</time>
      </trkpt>
      <trkpt lat="47.89413" lon="2.00267">
        <ele>98.4</ele>
        <time>2019-10-20T19:59:36Z</time>
      </trkpt>
      <trkpt lat="47.89431" lon="2.0022">
        <ele>97.5</ele>
        <time>2019-10-20T19:59:27Z</time>
      </trkpt>
      <trkpt lat="47.89455" lon="2.00169">
        <ele>97.7</ele>
        <time>2019-10-20T19:59:15Z</time>
      </trkpt>
      <trkpt lat="47.89498" lon="2.00112">
        <ele>98.9</ele>
        <time>2019-10-20T19:59:00Z</time>
      </trkpt>
      <trkpt lat="47.89506" lon="2.00098">
        <ele>99.5</ele>
        <time>2019-10-20T19:58:57Z</time>
      </trkpt>
      <trkpt lat="47.8951" lon="2.00087">
        <ele>99.3</ele>
        <time>2019-10-20T19:58:55Z</time>
      </trkpt>
      <trkpt lat="47.89512" lon="2.00084">
        <ele>99.2</ele>
        <time>2019-10-20T19:58:54Z</time>
      </trkpt>
      <trkpt lat="47.89532" lon="2.00062">
        <ele>99.3</ele>
        <time>2019-10-20T19:58:47Z</time>
      </trkpt>
      <trkpt lat="47.89542" lon="2.00045">
        <ele>98.8</ele>
        <time>2019-10-20T19:58:43Z</time>
      </trkpt>
      <trkpt lat="47.8955" lon="2.00026">
        <ele>98.3</ele>
        <time>2019-10-20T19:58:39Z</time>
      </trkpt>
      <trkpt lat="47.89565" lon="1.99981">
        <ele>99.4</ele>
        <time>2019-10-20T19:58:30Z</time>
      </trkpt>
      <trkpt lat="47.89594" lon="1.99891">
        <ele>98.9</ele>
        <time>2019-10-20T19:58:12Z</time>
      </trkpt>
      <trkpt lat="47.89628" lon="1.99805">
        <ele>98.4</ele>
        <time>2019-10-20T19:57:54Z</time>
      </trkpt>
      <trkpt lat="47.89664" lon="1.99715">
        <ele>98.6</ele>
        <time>2019-10-20T19:57:36Z</time>
      </trkpt>
      <trkpt lat="47.89686" lon="1.99653">
        <ele>98.1</ele>
        <time>2019-10-20T19:57:23Z</time>
      </trkpt>
      <trkpt lat="47.89712" lon="1.99564">
        <ele>98</ele>
        <time>2019-10-20T19:57:06Z</time>
      </trkpt>
      <trkpt lat="47.89737" lon="1.99469">
        <ele>98.4</ele>
        <time>2019-10-20T19:56:47Z</time>
      </trkpt>
      <trkpt lat="47.89763" lon="1.99371">
        <ele>99</ele>
        <time>2019-10-20T19:56:28Z</time>
      </trkpt>
      <trkpt lat="47.89775" lon="1.993">
        <ele>98.3</ele>
        <time>2019-10-20T19:56:15Z</time>
      </trkpt>
      <trkpt lat="47.89787" lon="1.99215">
        <ele>99.2</ele>
        <time>2019-10-20T19:56:00Z</time>
      </trkpt>
      <trkpt lat="47.89808" lon="1.99105">
        <ele>98.4</ele>
        <time>2019-10-20T19:55:39Z</time>
      </trkpt>
      <trkpt lat="47.8981" lon="1.99095">
        <ele>97.5</ele>
        <time>2019-10-20T19:55:37Z</time>
      </trkpt>
      <trkpt lat="47.89811" lon="1.99091">
        <ele>97.3</ele>
        <time>2019-10-20T19:55:37Z</time>
      </trkpt>
      <trkpt lat="47.89815" lon="1.99069">
        <ele>97.9</ele>
        <time>2019-10-20T19:55:33Z</time>
      </trkpt>
      <trkpt lat="47.89816" lon="1.99065">
        <ele>98.1</ele>
        <time>2019-10-20T19:55:32Z</time>
      </trkpt>
      <trkpt lat="47.89823" lon="1.99026">
        <ele>98.2</ele>
        <time>2019-10-20T19:55:25Z</time>
      </trkpt>
      <trkpt lat="47.89836" lon="1.98926">
        <ele>99.6</ele>
        <time>2019-10-20T19:55:06Z</time>
      </trkpt>
      <trkpt lat="47.89839" lon="1.98901">
        <ele>99.7</ele>
        <time>2019-10-20T19:55:02Z</time>
      </trkpt>
      <trkpt lat="47.89852" lon="1.98818">
        <ele>97.8</ele>
        <time>2019-10-20T19:54:47Z</time>
      </trkpt>
      <trkpt lat="47.89861" lon="1.98768">
        <ele>99.3</ele>
        <time>2019-10-20T19:54:37Z</time>
      </trkpt>
      <trkpt lat="47.89867" lon="1.98717">
        <ele>100.1</ele>
        <time>2019-10-20T19:54:28Z</time>
      </trkpt>
      <trkpt lat="47.89878" lon="1.98657">
        <ele>98</ele>
        <time>2019-10-20T19:54:17Z</time>
      </trkpt>
      <trkpt lat="47.89883" lon="1.98626">
        <ele>98.1</ele>
        <time>2019-10-20T19:54:11Z</time>
      </trkpt>
      <trkpt lat="47.89884" lon="1.98606">
        <ele>98</ele>
        <time>2019-10-20T19:54:08Z</time>
      </trkpt>
      <trkpt lat="47.8989" lon="1.98603">
        <ele>98</ele>
        <time>2019-10-20T19:54:06Z</time>
      </trkpt>
      <trkpt lat="47.8989" lon="1.98545">
        <ele>97.3</ele>
        <time>2019-10-20T19:53:55Z</time>
      </trkpt>
      <trkpt lat="47.8989" lon="1.98541">
        <ele>97</ele>
        <time>2019-10-20T19:53:55Z</time>
      </trkpt>
      <trkpt lat="47.89902" lon="1.98541">
        <ele>97.7</ele>
        <time>2019-10-20T19:53:52Z</time>
      </trkpt>
      <trkpt lat="47.89906" lon="1.98541">
        <ele>97.9</ele>
        <time>2019-10-20T19:53:50Z</time>
      </trkpt>
      <trkpt lat="47.89918" lon="1.98498">
        <ele>98.9</ele>
        <time>2019-10-20T19:53:42Z</time>
      </trkpt>
      <trkpt lat="47.89926" lon="1.98477">
        <ele>98.1</ele>
        <time>2019-10-20T19:53:38Z</time>
      </trkpt>
      <trkpt lat="47.89942" lon="1.98449">
        <ele>97.7</ele>
        <time>2019-10-20T19:53:31Z</time>
      </trkpt>
      <trkpt lat="47.90011" lon="1.98383">
        <ele>97.4</ele>
        <time>2019-10-20T19:53:09Z</time>
      </trkpt>
      <trkpt lat="47.90025" lon="1.98375">
        <ele>97.7</ele>
        <time>2019-10-20T19:53:05Z</time>
      </trkpt>
      <trkpt lat="47.90041" lon="1.98376">
        <ele>97.2</ele>
        <time>2019-10-20T19:53:01Z</time>
      </trkpt>
      <trkpt lat="47.90053" lon="1.98383">
        <ele>95.9</ele>
        <time>2019-10-20T19:52:58Z</time>
      </trkpt>
      <trkpt lat="47.90062" lon="1.98392">
        <ele>95.8</ele>
        <time>2019-10-20T19:52:55Z</time>
      </trkpt>
      <trkpt lat="47.90069" lon="1.98397">
        <ele>96.7</ele>
        <time>2019-10-20T19:52:53Z</time>
      </trkpt>
      <trkpt lat="47.9011" lon="1.98301">
        <ele>97.6</ele>
        <time>2019-10-20T19:52:32Z</time>
      </trkpt>
      <trkpt lat="47.90112" lon="1.98297">
        <ele>97.4</ele>
        <time>2019-10-20T19:52:31Z</time>
      </trkpt>
      <trkpt lat="47.90125" lon="1.98269">
        <ele>97.2</ele>
        <time>2019-10-20T19:52:25Z</time>
      </trkpt>
      <trkpt lat="47.9014" lon="1.98233">
        <ele>96.8</ele>
        <time>2019-10-20T19:52:18Z</time>
      </trkpt>
      <trkpt lat="47.90148" lon="1.98213">
        <ele>96.2</ele>
        <time>2019-10-20T19:52:13Z</time>
      </trkpt>
      <trkpt lat="47.90189" lon="1.98113">
        <ele>96.6</ele>
        <time>2019-10-20T19:51:52Z</time>
      </trkpt>
      <trkpt lat="47.90215" lon="1.98024">
        <ele>96.4</ele>
        <time>2019-10-20T19:51:35Z</time>
      </trkpt>
      <trkpt lat="47.90231" lon="1.9796">
        <ele>95.6</ele>
        <time>2019-10-20T19:51:23Z</time>
      </trkpt>
      <trkpt lat="47.9024" lon="1.97909">
        <ele>96.4</ele>
        <time>2019-10-20T19:51:13Z</time>
      </trkpt>
      <trkpt lat="47.90251" lon="1.9784">
        <ele>96</ele>
        <time>2019-10-20T19:51:01Z</time>
      </trkpt>
      <trkpt lat="47.90258" lon="1.97788">
        <ele>95.6</ele>
        <time>2019-10-20T19:50:51Z</time>
      </trkpt>
      <trkpt lat="47.90279" lon="1.97649">
        <ele>96</ele>
        <time>2019-10-20T19:50:26Z</time>
      </trkpt>
      <trkpt lat="47.90291" lon="1.97578">
        <ele>95.4</ele>
        <time>2019-10-20T19:50:13Z</time>
      </trkpt>
      <trkpt lat="47.90292" lon="1.97567">
        <ele>95.2</ele>
        <time>2019-10-20T19:50:11Z</time>
      </trkpt>
      <trkpt lat="47.90292" lon="1.97562">
        <ele>95.1</ele>
        <time>2019-10-20T19:50:10Z</time>
      </trkpt>
      <trkpt lat="47.90293" lon="1.97555">
        <ele>95</ele>
        <time>2019-10-20T19:50:08Z</time>
      </trkpt>
      <trkpt lat="47.90295" lon="1.97547">
        <ele>95.2</ele>
        <time>2019-10-20T19:50:07Z</time>
      </trkpt>
      <trkpt lat="47.90295" lon="1.97541">
        <ele>95.3</ele>
        <time>2019-10-20T19:50:06Z</time>
      </trkpt>
      <trkpt lat="47.90303" lon="1.97491">
        <ele>96</ele>
        <time>2019-10-20T19:49:57Z</time>
      </trkpt>
      <trkpt lat="47.90317" lon="1.97408">
        <ele>95.8</ele>
        <time>2019-10-20T19:49:41Z</time>
      </trkpt>
      <trkpt lat="47.90325" lon="1.97353">
        <ele>96.3</ele>
        <time>2019-10-20T19:49:31Z</time>
      </trkpt>
      <trkpt lat="47.90333" lon="1.97304">
        <ele>96</ele>
        <time>2019-10-20T19:49:22Z</time>
      </trkpt>
      <trkpt lat="47.90337" lon="1.97267">
        <ele>96</ele>
        <time>2019-10-20T19:49:15Z</time>
      </trkpt>
      <trkpt lat="47.9034" lon="1.97218">
        <ele>97.1</ele>
        <time>2019-10-20T19:49:07Z</time>
      </trkpt>
      <trkpt lat="47.90341" lon="1.97182">
        <ele>97.3</ele>
        <time>2019-10-20T19:49:00Z</time>
      </trkpt>
      <trkpt lat="47.9034" lon="1.97063">
        <ele>97.9</ele>
        <time>2019-10-20T19:48:39Z</time>
      </trkpt>
      <trkpt lat="47.90341" lon="1.96901">
        <ele>97.5</ele>
        <time>2019-10-20T19:48:10Z</time>
      </trkpt>
      <trkpt lat="47.90341" lon="1.96806">
        <ele>97.5</ele>
        <time>2019-10-20T19:47:53Z</time>
      </trkpt>
      <trkpt lat="47.90342" lon="1.96665">
        <ele>97.8</ele>
        <time>2019-10-20T19:47:28Z</time>
      </trkpt>
      <trkpt lat="47.90343" lon="1.96533">
        <ele>97.8</ele>
        <time>2019-10-20T19:47:04Z</time>
      </trkpt>
      <trkpt lat="47.90346" lon="1.96429">
        <ele>98.6</ele>
        <time>2019-10-20T19:46:45Z</time>
      </trkpt>
      <trkpt lat="47.9035" lon="1.96345">
        <ele>98.5</ele>
        <time>2019-10-20T19:46:30Z</time>
      </trkpt>
      <trkpt lat="47.90352" lon="1.96325">
        <ele>98.1</ele>
        <time>2019-10-20T19:46:27Z</time>
      </trkpt>
      <trkpt lat="47.9036" lon="1.96293">
        <ele>97.8</ele>
        <time>2019-10-20T19:46:20Z</time>
      </trkpt>
      <trkpt lat="47.90365" lon="1.96265">
        <ele>97.9</ele>
        <time>2019-10-20T19:46:15Z</time>
      </trkpt>
      <trkpt lat="47.90368" lon="1.9619">
        <ele>97.1</ele>
        <time>2019-10-20T19:46:02Z</time>
      </trkpt>
      <trkpt lat="47.90372" lon="1.96083">
        <ele>96.6</ele>
        <time>2019-10-20T19:45:43Z</time>
      </trkpt>
      <trkpt lat="47.90372" lon="1.96065">
        <ele>96.8</ele>
        <time>2019-10-20T19:45:39Z</time>
      </trkpt>
      <trkpt lat="47.90372" lon="1.96046">
        <ele>97</ele>
        <time>2019-10-20T19:45:36Z</time>
      </trkpt>
      <trkpt lat="47.90376" lon="1.95985">
        <ele>97.2</ele>
        <time>2019-10-20T19:45:25Z</time>
      </trkpt>
      <trkpt lat="47.90379" lon="1.95961">
        <ele>97.5</ele>
        <time>2019-10-20T19:45:21Z</time>
      </trkpt>
      <trkpt lat="47.90384" lon="1.95897">
        <ele>97.9</ele>
        <time>2019-10-20T19:45:09Z</time>
      </trkpt>
      <trkpt lat="47.90391" lon="1.95808">
        <ele>96.5</ele>
        <time>2019-10-20T19:44:53Z</time>
      </trkpt>
      <trkpt lat="47.90395" lon="1.95756">
        <ele>97.1</ele>
        <time>2019-10-20T19:44:44Z</time>
      </trkpt>
      <trkpt lat="47.90397" lon="1.95681">
        <ele>97.2</ele>
        <time>2019-10-20T19:44:30Z</time>
      </trkpt>
      <trkpt lat="47.90401" lon="1.95605">
        <ele>99.3</ele>
        <time>2019-10-20T19:44:17Z</time>
      </trkpt>
      <trkpt lat="47.90407" lon="1.95457">
        <ele>98.7</ele>
        <time>2019-10-20T19:43:50Z</time>
      </trkpt>
      <trkpt lat="47.90408" lon="1.95344">
        <ele>97.8</ele>
        <time>2019-10-20T19:43:30Z</time>
      </trkpt>
      <trkpt lat="47.90407" lon="1.95256">
        <ele>98.1</ele>
        <time>2019-10-20T19:43:14Z</time>
      </trkpt>
      <trkpt lat="47.90404" lon="1.95189">
        <ele>98.5</ele>
        <time>2019-10-20T19:43:02Z</time>
      </trkpt>
      <trkpt lat="47.90399" lon="1.95119">
        <ele>98.5</ele>
        <time>2019-10-20T19:42:49Z</time>
      </trkpt>
      <trkpt lat="47.90395" lon="1.95069">
        <ele>97.8</ele>
        <time>2019-10-20T19:42:40Z</time>
      </trkpt>
      <trkpt lat="47.90389" lon="1.94999">
        <ele>97.1</ele>
        <time>2019-10-20T19:42:28Z</time>
      </trkpt>
      <trkpt lat="47.90383" lon="1.94934">
        <ele>98.3</ele>
        <time>2019-10-20T19:42:16Z</time>
      </trkpt>
      <trkpt lat="47.90379" lon="1.94887">
        <ele>99.2</ele>
        <time>2019-10-20T19:42:07Z</time>
      </trkpt>
      <trkpt lat="47.90372" lon="1.94842">
        <ele>98.4</ele>
        <time>2019-10-20T19:41:59Z</time>
      </trkpt>
      <trkpt lat="47.90358" lon="1.94755">
        <ele>97</ele>
        <time>2019-10-20T19:41:43Z</time>
      </trkpt>
      <trkpt lat="47.90339" lon="1.94628">
        <ele>97.6</ele>
        <time>2019-10-20T19:41:20Z</time>
      </trkpt>
      <trkpt lat="47.90334" lon="1.94599">
        <ele>96.7</ele>
        <time>2019-10-20T19:41:14Z</time>
      </trkpt>
      <trkpt lat="47.90328" lon="1.94574">
        <ele>96.4</ele>
        <time>2019-10-20T19:41:10Z</time>
      </trkpt>
      <trkpt lat="47.90315" lon="1.9452">
        <ele>98</ele>
        <time>2019-10-20T19:40:59Z</time>
      </trkpt>
      <trkpt lat="47.90303" lon="1.94472">
        <ele>96.5</ele>
        <time>2019-10-20T19:40:50Z</time>
      </trkpt>
      <trkpt lat="47.90299" lon="1.94452">
        <ele>97.2</ele>
        <time>2019-10-20T19:40:47Z</time>
      </trkpt>
      <trkpt lat="47.90294" lon="1.94432">
        <ele>98.7</ele>
        <time>2019-10-20T19:40:43Z</time>
      </trkpt>
      <trkpt lat="47.90286" lon="1.94416">
        <ele>98</ele>
        <time>2019-10-20T19:40:39Z</time>
      </trkpt>
      <trkpt lat="47.90282" lon="1.94399">
        <ele>97.7</ele>
        <time>2019-10-20T19:40:36Z</time>
      </trkpt>
      <trkpt lat="47.90276" lon="1.94364">
        <ele>97.5</ele>
        <time>2019-10-20T19:40:29Z</time>
      </trkpt>
      <trkpt lat="47.90271" lon="1.94326">
        <ele>100.5</ele>
        <time>2019-10-20T19:40:23Z</time>
      </trkpt>
      <trkpt lat="47.9027" lon="1.94302">
        <ele>101.4</ele>
        <time>2019-10-20T19:40:18Z</time>
      </trkpt>
      <trkpt lat="47.90272" lon="1.94272">
        <ele>100.8</ele>
        <time>2019-10-20T19:40:13Z</time>
      </trkpt>
      <trkpt lat="47.90268" lon="1.94172">
        <ele>98.4</ele>
        <time>2019-10-20T19:39:55Z</time>
      </trkpt>
      <trkpt lat="47.90269" lon="1.94155">
        <ele>97.8</ele>
        <time>2019-10-20T19:39:52Z</time>
      </trkpt>
      <trkpt lat="47.90272" lon="1.94136">
        <ele>97.3</ele>
        <time>2019-10-20T19:39:48Z</time>
      </trkpt>
      <trkpt lat="47.90267" lon="1.94093">
        <ele>96.5</ele>
        <time>2019-10-20T19:39:40Z</time>
      </trkpt>
      <trkpt lat="47.90263" lon="1.9406">
        <ele>96.9</ele>
        <time>2019-10-20T19:39:34Z</time>
      </trkpt>
      <trkpt lat="47.90256" lon="1.94024">
        <ele>97.2</ele>
        <time>2019-10-20T19:39:28Z</time>
      </trkpt>
      <trkpt lat="47.90253" lon="1.94025">
        <ele>97.1</ele>
        <time>2019-10-20T19:39:27Z</time>
      </trkpt>
      <trkpt lat="47.90249" lon="1.94022">
        <ele>97.1</ele>
        <time>2019-10-20T19:39:26Z</time>
      </trkpt>
      <trkpt lat="47.90242" lon="1.94006">
        <ele>97</ele>
        <time>2019-10-20T19:39:22Z</time>
      </trkpt>
      <trkpt lat="47.90239" lon="1.93999">
        <ele>96.8</ele>
        <time>2019-10-20T19:39:21Z</time>
      </trkpt>
      <trkpt lat="47.90228" lon="1.93961">
        <ele>96.2</ele>
        <time>2019-10-20T19:39:13Z</time>
      </trkpt>
      <trkpt lat="47.90215" lon="1.93921">
        <ele>97.7</ele>
        <time>2019-10-20T19:39:05Z</time>
      </trkpt>
      <trkpt lat="47.90189" lon="1.93843">
        <ele>96.8</ele>
        <time>2019-10-20T19:38:50Z</time>
      </trkpt>
      <trkpt lat="47.90169" lon="1.93777">
        <ele>96.8</ele>
        <time>2019-10-20T19:38:37Z</time>
      </trkpt>
      <trkpt lat="47.90139" lon="1.93694">
        <ele>96.1</ele>
        <time>2019-10-20T19:38:20Z</time>
      </trkpt>
      <trkpt lat="47.90098" lon="1.93558">
        <ele>99.8</ele>
        <time>2019-10-20T19:37:53Z</time>
      </trkpt>
      <trkpt lat="47.90089" lon="1.93516">
        <ele>97</ele>
        <time>2019-10-20T19:37:45Z</time>
      </trkpt>
      <trkpt lat="47.90077" lon="1.93415">
        <ele>96.5</ele>
        <time>2019-10-20T19:37:27Z</time>
      </trkpt>
      <trkpt lat="47.90065" lon="1.93279">
        <ele>97.1</ele>
        <time>2019-10-20T19:37:02Z</time>
      </trkpt>
      <trkpt lat="47.90064" lon="1.93262">
        <ele>96.7</ele>
        <time>2019-10-20T19:36:59Z</time>
      </trkpt>
      <trkpt lat="47.90061" lon="1.93236">
        <ele>95.9</ele>
        <time>2019-10-20T19:36:55Z</time>
      </trkpt>
      <trkpt lat="47.90059" lon="1.9321">
        <ele>95.5</ele>
        <time>2019-10-20T19:36:50Z</time>
      </trkpt>
      <trkpt lat="47.90057" lon="1.93183">
        <ele>95.6</ele>
        <time>2019-10-20T19:36:45Z</time>
      </trkpt>
      <trkpt lat="47.90053" lon="1.93146">
        <ele>95.7</ele>
        <time>2019-10-20T19:36:38Z</time>
      </trkpt>
      <trkpt lat="47.9005" lon="1.93122">
        <ele>96.1</ele>
        <time>2019-10-20T19:36:34Z</time>
      </trkpt>
      <trkpt lat="47.90049" lon="1.9311">
        <ele>96.6</ele>
        <time>2019-10-20T19:36:32Z</time>
      </trkpt>
      <trkpt lat="47.90044" lon="1.93098">
        <ele>96.5</ele>
        <time>2019-10-20T19:36:29Z</time>
      </trkpt>
      <trkpt lat="47.90043" lon="1.93094">
        <ele>96.5</ele>
        <time>2019-10-20T19:36:29Z</time>
      </trkpt>
      <trkpt lat="47.90039" lon="1.93059">
        <ele>96.5</ele>
        <time>2019-10-20T19:36:22Z</time>
      </trkpt>
      <trkpt lat="47.90034" lon="1.93027">
        <ele>95.9</ele>
        <time>2019-10-20T19:36:16Z</time>
      </trkpt>
      <trkpt lat="47.90018" lon="1.92929">
        <ele>95.6</ele>
        <time>2019-10-20T19:35:58Z</time>
      </trkpt>
      <trkpt lat="47.90018" lon="1.92922">
        <ele>95.8</ele>
        <time>2019-10-20T19:35:57Z</time>
      </trkpt>
      <trkpt lat="47.90016" lon="1.92917">
        <ele>95.4</ele>
        <time>2019-10-20T19:35:56Z</time>
      </trkpt>
      <trkpt lat="47.90006" lon="1.92855">
        <ele>95.7</ele>
        <time>2019-10-20T19:35:45Z</time>
      </trkpt>
      <trkpt lat="47.89995" lon="1.92793">
        <ele>95.6</ele>
        <time>2019-10-20T19:35:33Z</time>
      </trkpt>
      <trkpt lat="47.89976" lon="1.92684">
        <ele>95.4</ele>
        <time>2019-10-20T19:35:13Z</time>
      </trkpt>
      <trkpt lat="47.89965" lon="1.92618">
        <ele>95.6</ele>
        <time>2019-10-20T19:35:01Z</time>
      </trkpt>
      <trkpt lat="47.89962" lon="1.92603">
        <ele>95.6</ele>
        <time>2019-10-20T19:34:58Z</time>
      </trkpt>
      <trkpt lat="47.89958" lon="1.92579">
        <ele>95.5</ele>
        <time>2019-10-20T19:34:53Z</time>
      </trkpt>
      <trkpt lat="47.89939" lon="1.92473">
        <ele>96</ele>
        <time>2019-10-20T19:34:34Z</time>
      </trkpt>
      <trkpt lat="47.89917" lon="1.92344">
        <ele>95.6</ele>
        <time>2019-10-20T19:34:10Z</time>
      </trkpt>
      <trkpt lat="47.89899" lon="1.92249">
        <ele>95.1</ele>
        <time>2019-10-20T19:33:52Z</time>
      </trkpt>
      <trkpt lat="47.89884" lon="1.92155">
        <ele>95</ele>
        <time>2019-10-20T19:33:35Z</time>
      </trkpt>
      <trkpt lat="47.89877" lon="1.92105">
        <ele>94.9</ele>
        <time>2019-10-20T19:33:26Z</time>
      </trkpt>
      <trkpt lat="47.89875" lon="1.92085">
        <ele>95.4</ele>
        <time>2019-10-20T19:33:22Z</time>
      </trkpt>
      <trkpt lat="47.89877" lon="1.92076">
        <ele>95.6</ele>
        <time>2019-10-20T19:33:21Z</time>
      </trkpt>
      <trkpt lat="47.8988" lon="1.92071">
        <ele>95.7</ele>
        <time>2019-10-20T19:33:19Z</time>
      </trkpt>
      <trkpt lat="47.89884" lon="1.92065">
        <ele>95.8</ele>
        <time>2019-10-20T19:33:18Z</time>
      </trkpt>
      <trkpt lat="47.89872" lon="1.91994">
        <ele>96.3</ele>
        <time>2019-10-20T19:33:05Z</time>
      </trkpt>
      <trkpt lat="47.89872" lon="1.91988">
        <ele>96.1</ele>
        <time>2019-10-20T19:33:04Z</time>
      </trkpt>
      <trkpt lat="47.89874" lon="1.91982">
        <ele>96.1</ele>
        <time>2019-10-20T19:33:02Z</time>
      </trkpt>
      <trkpt lat="47.89851" lon="1.91845">
        <ele>96.5</ele>
        <time>2019-10-20T19:32:37Z</time>
      </trkpt>
      <trkpt lat="47.89833" lon="1.9175">
        <ele>95.9</ele>
        <time>2019-10-20T19:32:19Z</time>
      </trkpt>
      <trkpt lat="47.89818" lon="1.91658">
        <ele>95</ele>
        <time>2019-10-20T19:32:02Z</time>
      </trkpt>
      <trkpt lat="47.89815" lon="1.91605">
        <ele>95.9</ele>
        <time>2019-10-20T19:31:53Z</time>
      </trkpt>
      <trkpt lat="47.8981" lon="1.91516">
        <ele>96.2</ele>
        <time>2019-10-20T19:31:37Z</time>
      </trkpt>
      <trkpt lat="47.89806" lon="1.91426">
        <ele>96</ele>
        <time>2019-10-20T19:31:21Z</time>
      </trkpt>
      <trkpt lat="47.89808" lon="1.91383">
        <ele>96</ele>
        <time>2019-10-20T19:31:13Z</time>
      </trkpt>
      <trkpt lat="47.89808" lon="1.91371">
        <ele>96</ele>
        <time>2019-10-20T19:31:11Z</time>
      </trkpt>
      <trkpt lat="47.89812" lon="1.9137">
        <ele>96</ele>
        <time>2019-10-20T19:31:10Z</time>
      </trkpt>
      <trkpt lat="47.89816" lon="1.9137">
        <ele>96</ele>
        <time>2019-10-20T19:31:09Z</time>
      </trkpt>
      <trkpt lat="47.89838" lon="1.91369">
        <ele>96.2</ele>
        <time>2019-10-20T19:31:03Z</time>
      </trkpt>
      <trkpt lat="47.89843" lon="1.91368">
        <ele>96.4</ele>
        <time>2019-10-20T19:31:02Z</time>
      </trkpt>
      <trkpt lat="47.89896" lon="1.91362">
        <ele>99.3</ele>
        <time>2019-10-20T19:30:47Z</time>
      </trkpt>
      <trkpt lat="47.89899" lon="1.91362">
        <ele>99.4</ele>
        <time>2019-10-20T19:30:47Z</time>
      </trkpt>
      <trkpt lat="47.89949" lon="1.91356">
        <ele>101.3</ele>
        <time>2019-10-20T19:30:33Z</time>
      </trkpt>
      <trkpt lat="47.89981" lon="1.91352">
        <ele>103.1</ele>
        <time>2019-10-20T19:30:25Z</time>
      </trkpt>
      <trkpt lat="47.89995" lon="1.9135">
        <ele>103.7</ele>
        <time>2019-10-20T19:30:21Z</time>
      </trkpt>
      <trkpt lat="47.90014" lon="1.91349">
        <ele>104.5</ele>
        <time>2019-10-20T19:30:16Z</time>
      </trkpt>
      <trkpt lat="47.90044" lon="1.91347">
        <ele>105.6</ele>
        <time>2019-10-20T19:30:08Z</time>
      </trkpt>
      <trkpt lat="47.90047" lon="1.91347">
        <ele>105.7</ele>
        <time>2019-10-20T19:30:07Z</time>
      </trkpt>
      <trkpt lat="47.90049" lon="1.91347">
        <ele>105.8</ele>
        <time>2019-10-20T19:30:06Z</time>
      </trkpt>
      <trkpt lat="47.90074" lon="1.91343">
        <ele>106</ele>
        <time>2019-10-20T19:30:00Z</time>
      </trkpt>
      <trkpt lat="47.90179" lon="1.91328">
        <ele>107.6</ele>
        <time>2019-10-20T19:29:31Z</time>
      </trkpt>
      <trkpt lat="47.9023" lon="1.91315">
        <ele>108.1</ele>
        <time>2019-10-20T19:29:18Z</time>
      </trkpt>
      <trkpt lat="47.90249" lon="1.91308">
        <ele>108.1</ele>
        <time>2019-10-20T19:29:12Z</time>
      </trkpt>
      <trkpt lat="47.90258" lon="1.91301">
        <ele>108.5</ele>
        <time>2019-10-20T19:29:10Z</time>
      </trkpt>
      <trkpt lat="47.90263" lon="1.91296">
        <ele>108.8</ele>
        <time>2019-10-20T19:29:08Z</time>
      </trkpt>
      <trkpt lat="47.90276" lon="1.9128">
        <ele>109.1</ele>
        <time>2019-10-20T19:29:04Z</time>
      </trkpt>
      <trkpt lat="47.90274" lon="1.91267">
        <ele>109.5</ele>
        <time>2019-10-20T19:29:01Z</time>
      </trkpt>
      <trkpt lat="47.9027" lon="1.9121">
        <ele>110</ele>
        <time>2019-10-20T19:28:51Z</time>
      </trkpt>
      <trkpt lat="47.90268" lon="1.91176">
        <ele>110.7</ele>
        <time>2019-10-20T19:28:45Z</time>
      </trkpt>
      <trkpt lat="47.90262" lon="1.91087">
        <ele>111.5</ele>
        <time>2019-10-20T19:28:29Z</time>
      </trkpt>
      <trkpt lat="47.90262" lon="1.91078">
        <ele>111.5</ele>
        <time>2019-10-20T19:28:27Z</time>
      </trkpt>
      <trkpt lat="47.90261" lon="1.91053">
        <ele>111</ele>
        <time>2019-10-20T19:28:23Z</time>
      </trkpt>
      <trkpt lat="47.9026" lon="1.91038">
        <ele>111</ele>
        <time>2019-10-20T19:28:20Z</time>
      </trkpt>
      <trkpt lat="47.90261" lon="1.9103">
        <ele>111</ele>
        <time>2019-10-20T19:28:19Z</time>
      </trkpt>
      <trkpt lat="47.90256" lon="1.91015">
        <ele>111.1</ele>
        <time>2019-10-20T19:28:16Z</time>
      </trkpt>
      <trkpt lat="47.90254" lon="1.91013">
        <ele>111.1</ele>
        <time>2019-10-20T19:28:15Z</time>
      </trkpt>
      <trkpt lat="47.90253" lon="1.9101">
        <ele>111.1</ele>
        <time>2019-10-20T19:28:14Z</time>
      </trkpt>
      <trkpt lat="47.90252" lon="1.91007">
        <ele>111.1</ele>
        <time>2019-10-20T19:28:14Z</time>
      </trkpt>
      <trkpt lat="47.90252" lon="1.91003">
        <ele>111.1</ele>
        <time>2019-10-20T19:28:13Z</time>
      </trkpt>
      <trkpt lat="47.90253" lon="1.90999">
        <ele>111.1</ele>
        <time>2019-10-20T19:28:12Z</time>
      </trkpt>
      <trkpt lat="47.90254" lon="1.90996">
        <ele>111.1</ele>
        <time>2019-10-20T19:28:12Z</time>
      </trkpt>
      <trkpt lat="47.90256" lon="1.90994">
        <ele>111.2</ele>
        <time>2019-10-20T19:28:11Z</time>
      </trkpt>
      <trkpt lat="47.90259" lon="1.90992">
        <ele>111.3</ele>
        <time>2019-10-20T19:28:10Z</time>
      </trkpt>
      <trkpt lat="47.90261" lon="1.90992">
        <ele>111.4</ele>
        <time>2019-10-20T19:28:10Z</time>
      </trkpt>
      <trkpt lat="47.90268" lon="1.9099">
        <ele>111.6</ele>
        <time>2019-10-20T19:28:08Z</time>
      </trkpt>
      <trkpt lat="47.9028" lon="1.90988">
        <ele>112</ele>
        <time>2019-10-20T19:28:04Z</time>
      </trkpt>
      <trkpt lat="47.90285" lon="1.90989">
        <ele>112</ele>
        <time>2019-10-20T19:28:03Z</time>
      </trkpt>
      <trkpt lat="47.90287" lon="1.90988">
        <ele>112</ele>
        <time>2019-10-20T19:28:02Z</time>
      </trkpt>
      <trkpt lat="47.90324" lon="1.90985">
        <ele>112</ele>
        <time>2019-10-20T19:27:53Z</time>
      </trkpt>
      <trkpt lat="47.90328" lon="1.90984">
        <ele>112</ele>
        <time>2019-10-20T19:27:52Z</time>
      </trkpt>
      <trkpt lat="47.90331" lon="1.90983">
        <ele>112</ele>
        <time>2019-10-20T19:27:51Z</time>
      </trkpt>
      <trkpt lat="47.90328" lon="1.90923">
        <ele>112</ele>
        <time>2019-10-20T19:27:40Z</time>
      </trkpt>
      <trkpt lat="47.90326" lon="1.90887">
        <ele>112</ele>
        <time>2019-10-20T19:27:33Z</time>
      </trkpt>
      <trkpt lat="47.90326" lon="1.90878">
        <ele>112</ele>
        <time>2019-10-20T19:27:32Z</time>
      </trkpt>
      <trkpt lat="47.90326" lon="1.90876">
        <ele>112</ele>
        <time>2019-10-20T19:27:31Z</time>
      </trkpt>
      <trkpt lat="47.90326" lon="1.90871">
        <ele>112</ele>
        <time>2019-10-20T19:27:31Z</time>
      </trkpt>
      <trkpt lat="47.90325" lon="1.90868">
        <ele>112</ele>
        <time>2019-10-20T19:27:30Z</time>
      </trkpt>
      <trkpt lat="47.90321" lon="1.90867">
        <ele>112</ele>
        <time>2019-10-20T19:27:29Z</time>
      </trkpt>
      <trkpt lat="47.90319" lon="1.90866">
        <ele>112</ele>
        <time>2019-10-20T19:27:28Z</time>
      </trkpt>
      <trkpt lat="47.90314" lon="1.90866">
        <ele>112</ele>
        <time>2019-10-20T19:27:27Z</time>
      </trkpt>
      <trkpt lat="47.90294" lon="1.90869">
        <ele>111.7</ele>
        <time>2019-10-20T19:27:22Z</time>
      </trkpt>
      <trkpt lat="47.90275" lon="1.90873">
        <ele>111.4</ele>
        <time>2019-10-20T19:27:17Z</time>
      </trkpt>
    </trkseg>
  </trk>
</gpx>